<?xml version="1.0" encoding="UTF-8" standalone="no" ?>
<gpx xmlns="http://www.topografix.com/GPX/1/1" xmlns:xsi="http://www.w3.org/2001/XMLSchema-instance" xsi:schemaLocation="http://www.topografix.com/GPX/1/1 http://www.topografix.com/GPX/1/1/gpx.xsd" version="1.1" creator="VisuGPX - https://www.visugpx.com">
  <metadata>
    <name>Levens - St André</name>
    <desc><![CDATA[Sortie ASCVTT du 30 decembre 2012 sur le parcours de la TransV.

CR : [url]http://www.ascvtt.com/2013/01/01/finir-lannee-sur-le-velo/[/url]
]]></desc>
  </metadata>
  <trk>
    <name><![CDATA[Reco TV part 2 ]]></name>
    <trkseg>
      <trkpt lat="43.86489" lon="7.23253">
        <ele>602.40002441406</ele>
        <time>2012-12-30T08:56:26Z</time>
      </trkpt>
      <trkpt lat="43.86488" lon="7.23258">
        <ele>602.79998779297</ele>
        <time>2012-12-30T08:56:43Z</time>
      </trkpt>
      <trkpt lat="43.86487" lon="7.23259">
        <ele>602.79998779297</ele>
        <time>2012-12-30T08:56:47Z</time>
      </trkpt>
      <trkpt lat="43.86487" lon="7.2326">
        <ele>602.79998779297</ele>
        <time>2012-12-30T08:56:53Z</time>
      </trkpt>
      <trkpt lat="43.86488" lon="7.2326">
        <ele>603</ele>
        <time>2012-12-30T08:57:02Z</time>
      </trkpt>
      <trkpt lat="43.86488" lon="7.2326">
        <ele>603</ele>
        <time>2012-12-30T08:57:09Z</time>
      </trkpt>
      <trkpt lat="43.8649" lon="7.23259">
        <ele>603.40002441406</ele>
        <time>2012-12-30T08:57:24Z</time>
      </trkpt>
      <trkpt lat="43.86492" lon="7.2326">
        <ele>604</ele>
        <time>2012-12-30T08:57:32Z</time>
      </trkpt>
      <trkpt lat="43.86493" lon="7.2326">
        <ele>604.20001220703</ele>
        <time>2012-12-30T08:57:35Z</time>
      </trkpt>
      <trkpt lat="43.86496" lon="7.23259">
        <ele>604.59997558594</ele>
        <time>2012-12-30T08:57:48Z</time>
      </trkpt>
      <trkpt lat="43.86499" lon="7.23262">
        <ele>605.59997558594</ele>
        <time>2012-12-30T08:57:51Z</time>
      </trkpt>
      <trkpt lat="43.86501" lon="7.23263">
        <ele>606.40002441406</ele>
        <time>2012-12-30T08:57:53Z</time>
      </trkpt>
      <trkpt lat="43.86502" lon="7.23264">
        <ele>606.79998779297</ele>
        <time>2012-12-30T08:57:54Z</time>
      </trkpt>
      <trkpt lat="43.86507" lon="7.23269">
        <ele>608.40002441406</ele>
        <time>2012-12-30T08:57:59Z</time>
      </trkpt>
      <trkpt lat="43.8651" lon="7.23269">
        <ele>609</ele>
        <time>2012-12-30T08:58:00Z</time>
      </trkpt>
      <trkpt lat="43.86515" lon="7.23274">
        <ele>610.79998779297</ele>
        <time>2012-12-30T08:58:05Z</time>
      </trkpt>
      <trkpt lat="43.86516" lon="7.23276">
        <ele>611.59997558594</ele>
        <time>2012-12-30T08:58:06Z</time>
      </trkpt>
      <trkpt lat="43.86518" lon="7.23277">
        <ele>612.20001220703</ele>
        <time>2012-12-30T08:58:07Z</time>
      </trkpt>
      <trkpt lat="43.8652" lon="7.2328">
        <ele>613</ele>
        <time>2012-12-30T08:58:08Z</time>
      </trkpt>
      <trkpt lat="43.8652" lon="7.2328">
        <ele>613.20001220703</ele>
        <time>2012-12-30T08:58:09Z</time>
      </trkpt>
      <trkpt lat="43.86522" lon="7.23281">
        <ele>613.59997558594</ele>
        <time>2012-12-30T08:58:10Z</time>
      </trkpt>
      <trkpt lat="43.86523" lon="7.23281">
        <ele>613.79998779297</ele>
        <time>2012-12-30T08:58:11Z</time>
      </trkpt>
      <trkpt lat="43.86525" lon="7.23283">
        <ele>614.59997558594</ele>
        <time>2012-12-30T08:58:13Z</time>
      </trkpt>
      <trkpt lat="43.86525" lon="7.23284">
        <ele>614.79998779297</ele>
        <time>2012-12-30T08:58:14Z</time>
      </trkpt>
      <trkpt lat="43.86523" lon="7.23286">
        <ele>615</ele>
        <time>2012-12-30T08:58:16Z</time>
      </trkpt>
      <trkpt lat="43.86523" lon="7.23287">
        <ele>615</ele>
        <time>2012-12-30T08:58:17Z</time>
      </trkpt>
      <trkpt lat="43.86522" lon="7.23288">
        <ele>615.20001220703</ele>
        <time>2012-12-30T08:58:18Z</time>
      </trkpt>
      <trkpt lat="43.86521" lon="7.23289">
        <ele>615.20001220703</ele>
        <time>2012-12-30T08:58:19Z</time>
      </trkpt>
      <trkpt lat="43.86521" lon="7.2329">
        <ele>615.40002441406</ele>
        <time>2012-12-30T08:58:20Z</time>
      </trkpt>
      <trkpt lat="43.8652" lon="7.23291">
        <ele>615.59997558594</ele>
        <time>2012-12-30T08:58:22Z</time>
      </trkpt>
      <trkpt lat="43.8652" lon="7.23292">
        <ele>615.59997558594</ele>
        <time>2012-12-30T08:58:23Z</time>
      </trkpt>
      <trkpt lat="43.86517" lon="7.23298">
        <ele>616.40002441406</ele>
        <time>2012-12-30T08:58:31Z</time>
      </trkpt>
      <trkpt lat="43.86517" lon="7.23299">
        <ele>616.59997558594</ele>
        <time>2012-12-30T08:58:34Z</time>
      </trkpt>
      <trkpt lat="43.86518" lon="7.233">
        <ele>617</ele>
        <time>2012-12-30T08:58:35Z</time>
      </trkpt>
      <trkpt lat="43.8652" lon="7.23301">
        <ele>617.79998779297</ele>
        <time>2012-12-30T08:58:38Z</time>
      </trkpt>
      <trkpt lat="43.86526" lon="7.23303">
        <ele>619.40002441406</ele>
        <time>2012-12-30T08:58:45Z</time>
      </trkpt>
      <trkpt lat="43.86528" lon="7.23304">
        <ele>620.20001220703</ele>
        <time>2012-12-30T08:58:50Z</time>
      </trkpt>
      <trkpt lat="43.86531" lon="7.23304">
        <ele>620.79998779297</ele>
        <time>2012-12-30T08:58:55Z</time>
      </trkpt>
      <trkpt lat="43.86529" lon="7.23309">
        <ele>621.59997558594</ele>
        <time>2012-12-30T08:59:01Z</time>
      </trkpt>
      <trkpt lat="43.86529" lon="7.23314">
        <ele>622.79998779297</ele>
        <time>2012-12-30T08:59:04Z</time>
      </trkpt>
      <trkpt lat="43.8653" lon="7.23316">
        <ele>623.40002441406</ele>
        <time>2012-12-30T08:59:06Z</time>
      </trkpt>
      <trkpt lat="43.86531" lon="7.23317">
        <ele>624</ele>
        <time>2012-12-30T08:59:08Z</time>
      </trkpt>
      <trkpt lat="43.86532" lon="7.23317">
        <ele>624.20001220703</ele>
        <time>2012-12-30T08:59:09Z</time>
      </trkpt>
      <trkpt lat="43.86532" lon="7.23317">
        <ele>624</ele>
        <time>2012-12-30T08:59:13Z</time>
      </trkpt>
      <trkpt lat="43.86533" lon="7.23317">
        <ele>624.40002441406</ele>
        <time>2012-12-30T08:59:14Z</time>
      </trkpt>
      <trkpt lat="43.86538" lon="7.2332">
        <ele>626.40002441406</ele>
        <time>2012-12-30T08:59:20Z</time>
      </trkpt>
      <trkpt lat="43.86539" lon="7.2332">
        <ele>626.59997558594</ele>
        <time>2012-12-30T08:59:21Z</time>
      </trkpt>
      <trkpt lat="43.8654" lon="7.23325">
        <ele>628.20001220703</ele>
        <time>2012-12-30T08:59:28Z</time>
      </trkpt>
      <trkpt lat="43.86543" lon="7.23328">
        <ele>629.59997558594</ele>
        <time>2012-12-30T08:59:35Z</time>
      </trkpt>
      <trkpt lat="43.86544" lon="7.2333">
        <ele>630.59997558594</ele>
        <time>2012-12-30T08:59:39Z</time>
      </trkpt>
      <trkpt lat="43.86549" lon="7.23332">
        <ele>632.59997558594</ele>
        <time>2012-12-30T08:59:44Z</time>
      </trkpt>
      <trkpt lat="43.86551" lon="7.23334">
        <ele>633.59997558594</ele>
        <time>2012-12-30T08:59:47Z</time>
      </trkpt>
      <trkpt lat="43.86557" lon="7.23333">
        <ele>635.40002441406</ele>
        <time>2012-12-30T08:59:52Z</time>
      </trkpt>
      <trkpt lat="43.86562" lon="7.23338">
        <ele>638.79998779297</ele>
        <time>2012-12-30T09:00:00Z</time>
      </trkpt>
      <trkpt lat="43.86563" lon="7.23338">
        <ele>639</ele>
        <time>2012-12-30T09:00:01Z</time>
      </trkpt>
      <trkpt lat="43.86565" lon="7.23337">
        <ele>639</ele>
        <time>2012-12-30T09:00:04Z</time>
      </trkpt>
      <trkpt lat="43.86567" lon="7.23337">
        <ele>639.20001220703</ele>
        <time>2012-12-30T09:00:05Z</time>
      </trkpt>
      <trkpt lat="43.8657" lon="7.23336">
        <ele>640</ele>
        <time>2012-12-30T09:00:10Z</time>
      </trkpt>
      <trkpt lat="43.86571" lon="7.23336">
        <ele>640.40002441406</ele>
        <time>2012-12-30T09:00:11Z</time>
      </trkpt>
      <trkpt lat="43.86573" lon="7.23341">
        <ele>642.59997558594</ele>
        <time>2012-12-30T09:00:19Z</time>
      </trkpt>
      <trkpt lat="43.8657" lon="7.23343">
        <ele>642.59997558594</ele>
        <time>2012-12-30T09:00:27Z</time>
      </trkpt>
      <trkpt lat="43.86571" lon="7.23341">
        <ele>642.40002441406</ele>
        <time>2012-12-30T09:00:34Z</time>
      </trkpt>
      <trkpt lat="43.86577" lon="7.23338">
        <ele>642.79998779297</ele>
        <time>2012-12-30T09:00:40Z</time>
      </trkpt>
      <trkpt lat="43.86586" lon="7.23331">
        <ele>642.59997558594</ele>
        <time>2012-12-30T09:00:45Z</time>
      </trkpt>
      <trkpt lat="43.86588" lon="7.2333">
        <ele>642.40002441406</ele>
        <time>2012-12-30T09:00:46Z</time>
      </trkpt>
      <trkpt lat="43.86599" lon="7.23321">
        <ele>641.20001220703</ele>
        <time>2012-12-30T09:00:53Z</time>
      </trkpt>
      <trkpt lat="43.86601" lon="7.2332">
        <ele>641.20001220703</ele>
        <time>2012-12-30T09:00:54Z</time>
      </trkpt>
      <trkpt lat="43.86609" lon="7.23317">
        <ele>641.40002441406</ele>
        <time>2012-12-30T09:01:01Z</time>
      </trkpt>
      <trkpt lat="43.8661" lon="7.23316">
        <ele>641.40002441406</ele>
        <time>2012-12-30T09:01:02Z</time>
      </trkpt>
      <trkpt lat="43.86623" lon="7.23311">
        <ele>641.59997558594</ele>
        <time>2012-12-30T09:01:10Z</time>
      </trkpt>
      <trkpt lat="43.86629" lon="7.23309">
        <ele>642</ele>
        <time>2012-12-30T09:01:17Z</time>
      </trkpt>
      <trkpt lat="43.86637" lon="7.23309">
        <ele>643.40002441406</ele>
        <time>2012-12-30T09:01:25Z</time>
      </trkpt>
      <trkpt lat="43.86644" lon="7.23307">
        <ele>643.59997558594</ele>
        <time>2012-12-30T09:01:31Z</time>
      </trkpt>
      <trkpt lat="43.86647" lon="7.23305">
        <ele>643.40002441406</ele>
        <time>2012-12-30T09:01:38Z</time>
      </trkpt>
      <trkpt lat="43.86652" lon="7.23304">
        <ele>643.79998779297</ele>
        <time>2012-12-30T09:01:44Z</time>
      </trkpt>
      <trkpt lat="43.86658" lon="7.23302">
        <ele>644</ele>
        <time>2012-12-30T09:01:52Z</time>
      </trkpt>
      <trkpt lat="43.86664" lon="7.23298">
        <ele>643.59997558594</ele>
        <time>2012-12-30T09:02:00Z</time>
      </trkpt>
      <trkpt lat="43.86667" lon="7.23296">
        <ele>643.59997558594</ele>
        <time>2012-12-30T09:02:07Z</time>
      </trkpt>
      <trkpt lat="43.8667" lon="7.23292">
        <ele>642.79998779297</ele>
        <time>2012-12-30T09:02:14Z</time>
      </trkpt>
      <trkpt lat="43.86674" lon="7.23286">
        <ele>642.20001220703</ele>
        <time>2012-12-30T09:02:22Z</time>
      </trkpt>
      <trkpt lat="43.86682" lon="7.2328">
        <ele>642.40002441406</ele>
        <time>2012-12-30T09:02:30Z</time>
      </trkpt>
      <trkpt lat="43.86694" lon="7.23276">
        <ele>644.79998779297</ele>
        <time>2012-12-30T09:02:40Z</time>
      </trkpt>
      <trkpt lat="43.86697" lon="7.23276">
        <ele>645.79998779297</ele>
        <time>2012-12-30T09:02:43Z</time>
      </trkpt>
      <trkpt lat="43.86702" lon="7.23275">
        <ele>647</ele>
        <time>2012-12-30T09:02:48Z</time>
      </trkpt>
      <trkpt lat="43.86704" lon="7.23275">
        <ele>647.59997558594</ele>
        <time>2012-12-30T09:02:50Z</time>
      </trkpt>
      <trkpt lat="43.86707" lon="7.23273">
        <ele>648</ele>
        <time>2012-12-30T09:02:54Z</time>
      </trkpt>
      <trkpt lat="43.86718" lon="7.23273">
        <ele>651.40002441406</ele>
        <time>2012-12-30T09:03:02Z</time>
      </trkpt>
      <trkpt lat="43.86719" lon="7.23273">
        <ele>651.59997558594</ele>
        <time>2012-12-30T09:03:03Z</time>
      </trkpt>
      <trkpt lat="43.86722" lon="7.23273">
        <ele>652.59997558594</ele>
        <time>2012-12-30T09:03:06Z</time>
      </trkpt>
      <trkpt lat="43.86726" lon="7.23272">
        <ele>653.79998779297</ele>
        <time>2012-12-30T09:03:10Z</time>
      </trkpt>
      <trkpt lat="43.86731" lon="7.23272">
        <ele>655.20001220703</ele>
        <time>2012-12-30T09:03:16Z</time>
      </trkpt>
      <trkpt lat="43.86734" lon="7.23271">
        <ele>655.79998779297</ele>
        <time>2012-12-30T09:03:18Z</time>
      </trkpt>
      <trkpt lat="43.86739" lon="7.2327">
        <ele>657.20001220703</ele>
        <time>2012-12-30T09:03:23Z</time>
      </trkpt>
      <trkpt lat="43.86747" lon="7.23271">
        <ele>660</ele>
        <time>2012-12-30T09:03:32Z</time>
      </trkpt>
      <trkpt lat="43.86747" lon="7.23272">
        <ele>660</ele>
        <time>2012-12-30T09:03:34Z</time>
      </trkpt>
      <trkpt lat="43.86745" lon="7.23277">
        <ele>660.40002441406</ele>
        <time>2012-12-30T09:03:37Z</time>
      </trkpt>
      <trkpt lat="43.86742" lon="7.23279">
        <ele>659.79998779297</ele>
        <time>2012-12-30T09:03:42Z</time>
      </trkpt>
      <trkpt lat="43.86734" lon="7.23284">
        <ele>658.40002441406</ele>
        <time>2012-12-30T09:03:48Z</time>
      </trkpt>
      <trkpt lat="43.86726" lon="7.23292">
        <ele>657.79998779297</ele>
        <time>2012-12-30T09:03:54Z</time>
      </trkpt>
      <trkpt lat="43.8672" lon="7.233">
        <ele>657.59997558594</ele>
        <time>2012-12-30T09:03:59Z</time>
      </trkpt>
      <trkpt lat="43.86716" lon="7.23304">
        <ele>657.79998779297</ele>
        <time>2012-12-30T09:04:01Z</time>
      </trkpt>
      <trkpt lat="43.86706" lon="7.23317">
        <ele>658.40002441406</ele>
        <time>2012-12-30T09:04:07Z</time>
      </trkpt>
      <trkpt lat="43.86696" lon="7.2333">
        <ele>659.79998779297</ele>
        <time>2012-12-30T09:04:13Z</time>
      </trkpt>
      <trkpt lat="43.8669" lon="7.23338">
        <ele>661</ele>
        <time>2012-12-30T09:04:17Z</time>
      </trkpt>
      <trkpt lat="43.86685" lon="7.23343">
        <ele>661.20001220703</ele>
        <time>2012-12-30T09:04:19Z</time>
      </trkpt>
      <trkpt lat="43.8667" lon="7.23357">
        <ele>663.40002441406</ele>
        <time>2012-12-30T09:04:26Z</time>
      </trkpt>
      <trkpt lat="43.86668" lon="7.23358">
        <ele>663.59997558594</ele>
        <time>2012-12-30T09:04:27Z</time>
      </trkpt>
      <trkpt lat="43.86656" lon="7.23366">
        <ele>664.20001220703</ele>
        <time>2012-12-30T09:04:33Z</time>
      </trkpt>
      <trkpt lat="43.86634" lon="7.23372">
        <ele>663.79998779297</ele>
        <time>2012-12-30T09:04:39Z</time>
      </trkpt>
      <trkpt lat="43.86615" lon="7.23377">
        <ele>663</ele>
        <time>2012-12-30T09:04:45Z</time>
      </trkpt>
      <trkpt lat="43.86601" lon="7.23377">
        <ele>661.59997558594</ele>
        <time>2012-12-30T09:04:50Z</time>
      </trkpt>
      <trkpt lat="43.86576" lon="7.23382">
        <ele>659.40002441406</ele>
        <time>2012-12-30T09:04:57Z</time>
      </trkpt>
      <trkpt lat="43.86557" lon="7.23394">
        <ele>657.59997558594</ele>
        <time>2012-12-30T09:05:03Z</time>
      </trkpt>
      <trkpt lat="43.86539" lon="7.23411">
        <ele>657.59997558594</ele>
        <time>2012-12-30T09:05:10Z</time>
      </trkpt>
      <trkpt lat="43.8653" lon="7.23422">
        <ele>657.59997558594</ele>
        <time>2012-12-30T09:05:15Z</time>
      </trkpt>
      <trkpt lat="43.86518" lon="7.2344">
        <ele>657.59997558594</ele>
        <time>2012-12-30T09:05:21Z</time>
      </trkpt>
      <trkpt lat="43.86507" lon="7.23456">
        <ele>657.59997558594</ele>
        <time>2012-12-30T09:05:27Z</time>
      </trkpt>
      <trkpt lat="43.86502" lon="7.23465">
        <ele>658.20001220703</ele>
        <time>2012-12-30T09:05:31Z</time>
      </trkpt>
      <trkpt lat="43.86502" lon="7.23466">
        <ele>658.40002441406</ele>
        <time>2012-12-30T09:05:39Z</time>
      </trkpt>
      <trkpt lat="43.86496" lon="7.23476">
        <ele>658</ele>
        <time>2012-12-30T09:05:43Z</time>
      </trkpt>
      <trkpt lat="43.86486" lon="7.23505">
        <ele>658.40002441406</ele>
        <time>2012-12-30T09:05:51Z</time>
      </trkpt>
      <trkpt lat="43.86481" lon="7.23534">
        <ele>659.20001220703</ele>
        <time>2012-12-30T09:05:57Z</time>
      </trkpt>
      <trkpt lat="43.86481" lon="7.23558">
        <ele>662.59997558594</ele>
        <time>2012-12-30T09:06:02Z</time>
      </trkpt>
      <trkpt lat="43.86473" lon="7.23591">
        <ele>663.20001220703</ele>
        <time>2012-12-30T09:06:08Z</time>
      </trkpt>
      <trkpt lat="43.86472" lon="7.23596">
        <ele>663.40002441406</ele>
        <time>2012-12-30T09:06:10Z</time>
      </trkpt>
      <trkpt lat="43.86468" lon="7.23601">
        <ele>662.40002441406</ele>
        <time>2012-12-30T09:06:12Z</time>
      </trkpt>
      <trkpt lat="43.86456" lon="7.23625">
        <ele>661.40002441406</ele>
        <time>2012-12-30T09:06:18Z</time>
      </trkpt>
      <trkpt lat="43.86437" lon="7.23662">
        <ele>662.79998779297</ele>
        <time>2012-12-30T09:06:26Z</time>
      </trkpt>
      <trkpt lat="43.86422" lon="7.23691">
        <ele>662.40002441406</ele>
        <time>2012-12-30T09:06:33Z</time>
      </trkpt>
      <trkpt lat="43.86406" lon="7.23724">
        <ele>665.59997558594</ele>
        <time>2012-12-30T09:06:40Z</time>
      </trkpt>
      <trkpt lat="43.86397" lon="7.23754">
        <ele>671</ele>
        <time>2012-12-30T09:06:46Z</time>
      </trkpt>
      <trkpt lat="43.86383" lon="7.23762">
        <ele>671.59997558594</ele>
        <time>2012-12-30T09:06:50Z</time>
      </trkpt>
      <trkpt lat="43.86366" lon="7.23755">
        <ele>669.40002441406</ele>
        <time>2012-12-30T09:06:54Z</time>
      </trkpt>
      <trkpt lat="43.86363" lon="7.23752">
        <ele>668.40002441406</ele>
        <time>2012-12-30T09:06:55Z</time>
      </trkpt>
      <trkpt lat="43.86357" lon="7.2374">
        <ele>664.59997558594</ele>
        <time>2012-12-30T09:06:58Z</time>
      </trkpt>
      <trkpt lat="43.86349" lon="7.23729">
        <ele>660</ele>
        <time>2012-12-30T09:07:01Z</time>
      </trkpt>
      <trkpt lat="43.86341" lon="7.23724">
        <ele>657.59997558594</ele>
        <time>2012-12-30T09:07:03Z</time>
      </trkpt>
      <trkpt lat="43.86325" lon="7.23725">
        <ele>655.40002441406</ele>
        <time>2012-12-30T09:07:07Z</time>
      </trkpt>
      <trkpt lat="43.86294" lon="7.23746">
        <ele>657.40002441406</ele>
        <time>2012-12-30T09:07:14Z</time>
      </trkpt>
      <trkpt lat="43.86266" lon="7.23767">
        <ele>659.59997558594</ele>
        <time>2012-12-30T09:07:21Z</time>
      </trkpt>
      <trkpt lat="43.8624" lon="7.23782">
        <ele>662.59997558594</ele>
        <time>2012-12-30T09:07:27Z</time>
      </trkpt>
      <trkpt lat="43.86235" lon="7.23785">
        <ele>663.59997558594</ele>
        <time>2012-12-30T09:07:28Z</time>
      </trkpt>
      <trkpt lat="43.86211" lon="7.23797">
        <ele>667.59997558594</ele>
        <time>2012-12-30T09:07:34Z</time>
      </trkpt>
      <trkpt lat="43.86189" lon="7.23805">
        <ele>669.40002441406</ele>
        <time>2012-12-30T09:07:41Z</time>
      </trkpt>
      <trkpt lat="43.86178" lon="7.23809">
        <ele>669.79998779297</ele>
        <time>2012-12-30T09:07:46Z</time>
      </trkpt>
      <trkpt lat="43.86176" lon="7.23809">
        <ele>669.79998779297</ele>
        <time>2012-12-30T09:07:47Z</time>
      </trkpt>
      <trkpt lat="43.86176" lon="7.23807">
        <ele>669.59997558594</ele>
        <time>2012-12-30T09:07:50Z</time>
      </trkpt>
      <trkpt lat="43.86176" lon="7.23807">
        <ele>669.59997558594</ele>
        <time>2012-12-30T09:07:52Z</time>
      </trkpt>
      <trkpt lat="43.86176" lon="7.23807">
        <ele>669.59997558594</ele>
        <time>2012-12-30T09:07:55Z</time>
      </trkpt>
      <trkpt lat="43.86178" lon="7.23803">
        <ele>669</ele>
        <time>2012-12-30T09:08:05Z</time>
      </trkpt>
      <trkpt lat="43.86176" lon="7.23799">
        <ele>668.40002441406</ele>
        <time>2012-12-30T09:08:18Z</time>
      </trkpt>
      <trkpt lat="43.86174" lon="7.23797">
        <ele>668</ele>
        <time>2012-12-30T09:08:19Z</time>
      </trkpt>
      <trkpt lat="43.86172" lon="7.2379">
        <ele>667</ele>
        <time>2012-12-30T09:08:22Z</time>
      </trkpt>
      <trkpt lat="43.86171" lon="7.23788">
        <ele>666.79998779297</ele>
        <time>2012-12-30T09:08:24Z</time>
      </trkpt>
      <trkpt lat="43.86171" lon="7.23789">
        <ele>667</ele>
        <time>2012-12-30T09:08:25Z</time>
      </trkpt>
      <trkpt lat="43.86169" lon="7.23792">
        <ele>667.40002441406</ele>
        <time>2012-12-30T09:08:29Z</time>
      </trkpt>
      <trkpt lat="43.86167" lon="7.23795">
        <ele>667.79998779297</ele>
        <time>2012-12-30T09:08:34Z</time>
      </trkpt>
      <trkpt lat="43.86167" lon="7.23797">
        <ele>668</ele>
        <time>2012-12-30T09:08:36Z</time>
      </trkpt>
      <trkpt lat="43.86167" lon="7.238">
        <ele>668.59997558594</ele>
        <time>2012-12-30T09:08:40Z</time>
      </trkpt>
      <trkpt lat="43.86165" lon="7.23803">
        <ele>669.20001220703</ele>
        <time>2012-12-30T09:08:43Z</time>
      </trkpt>
      <trkpt lat="43.86161" lon="7.23805">
        <ele>670.20001220703</ele>
        <time>2012-12-30T09:08:47Z</time>
      </trkpt>
      <trkpt lat="43.8616" lon="7.23806">
        <ele>670.59997558594</ele>
        <time>2012-12-30T09:08:49Z</time>
      </trkpt>
      <trkpt lat="43.86154" lon="7.23813">
        <ele>672.79998779297</ele>
        <time>2012-12-30T09:08:57Z</time>
      </trkpt>
      <trkpt lat="43.8615" lon="7.23819">
        <ele>674.40002441406</ele>
        <time>2012-12-30T09:09:05Z</time>
      </trkpt>
      <trkpt lat="43.86144" lon="7.23827">
        <ele>676.59997558594</ele>
        <time>2012-12-30T09:09:14Z</time>
      </trkpt>
      <trkpt lat="43.8614" lon="7.23835">
        <ele>678.20001220703</ele>
        <time>2012-12-30T09:09:23Z</time>
      </trkpt>
      <trkpt lat="43.86138" lon="7.23842">
        <ele>678.79998779297</ele>
        <time>2012-12-30T09:09:31Z</time>
      </trkpt>
      <trkpt lat="43.86135" lon="7.23851">
        <ele>679.79998779297</ele>
        <time>2012-12-30T09:09:39Z</time>
      </trkpt>
      <trkpt lat="43.86136" lon="7.23859">
        <ele>679.79998779297</ele>
        <time>2012-12-30T09:09:46Z</time>
      </trkpt>
      <trkpt lat="43.86137" lon="7.2386">
        <ele>679.79998779297</ele>
        <time>2012-12-30T09:09:47Z</time>
      </trkpt>
      <trkpt lat="43.86138" lon="7.23869">
        <ele>680</ele>
        <time>2012-12-30T09:09:55Z</time>
      </trkpt>
      <trkpt lat="43.86138" lon="7.23877">
        <ele>680.40002441406</ele>
        <time>2012-12-30T09:10:02Z</time>
      </trkpt>
      <trkpt lat="43.86137" lon="7.23884">
        <ele>680.79998779297</ele>
        <time>2012-12-30T09:10:12Z</time>
      </trkpt>
      <trkpt lat="43.86136" lon="7.23886">
        <ele>681</ele>
        <time>2012-12-30T09:10:17Z</time>
      </trkpt>
      <trkpt lat="43.86136" lon="7.23893">
        <ele>681.40002441406</ele>
        <time>2012-12-30T09:10:30Z</time>
      </trkpt>
      <trkpt lat="43.86137" lon="7.23902">
        <ele>681.59997558594</ele>
        <time>2012-12-30T09:10:36Z</time>
      </trkpt>
      <trkpt lat="43.86137" lon="7.23904">
        <ele>681.79998779297</ele>
        <time>2012-12-30T09:10:37Z</time>
      </trkpt>
      <trkpt lat="43.86134" lon="7.23915">
        <ele>682.40002441406</ele>
        <time>2012-12-30T09:10:45Z</time>
      </trkpt>
      <trkpt lat="43.86133" lon="7.23926">
        <ele>682.59997558594</ele>
        <time>2012-12-30T09:10:52Z</time>
      </trkpt>
      <trkpt lat="43.86135" lon="7.2394">
        <ele>682.79998779297</ele>
        <time>2012-12-30T09:10:59Z</time>
      </trkpt>
      <trkpt lat="43.8614" lon="7.2396">
        <ele>683.20001220703</ele>
        <time>2012-12-30T09:11:08Z</time>
      </trkpt>
      <trkpt lat="43.86143" lon="7.23978">
        <ele>683.79998779297</ele>
        <time>2012-12-30T09:11:16Z</time>
      </trkpt>
      <trkpt lat="43.86141" lon="7.23994">
        <ele>684</ele>
        <time>2012-12-30T09:11:23Z</time>
      </trkpt>
      <trkpt lat="43.86136" lon="7.24013">
        <ele>683</ele>
        <time>2012-12-30T09:11:30Z</time>
      </trkpt>
      <trkpt lat="43.86137" lon="7.24034">
        <ele>682</ele>
        <time>2012-12-30T09:11:34Z</time>
      </trkpt>
      <trkpt lat="43.86146" lon="7.24054">
        <ele>682.20001220703</ele>
        <time>2012-12-30T09:11:38Z</time>
      </trkpt>
      <trkpt lat="43.86155" lon="7.2407">
        <ele>682.79998779297</ele>
        <time>2012-12-30T09:11:43Z</time>
      </trkpt>
      <trkpt lat="43.86158" lon="7.24073">
        <ele>683</ele>
        <time>2012-12-30T09:11:45Z</time>
      </trkpt>
      <trkpt lat="43.8616" lon="7.2407">
        <ele>683.59997558594</ele>
        <time>2012-12-30T09:11:47Z</time>
      </trkpt>
      <trkpt lat="43.86162" lon="7.24065">
        <ele>684</ele>
        <time>2012-12-30T09:11:49Z</time>
      </trkpt>
      <trkpt lat="43.86164" lon="7.24061">
        <ele>684.40002441406</ele>
        <time>2012-12-30T09:11:51Z</time>
      </trkpt>
      <trkpt lat="43.86164" lon="7.2406">
        <ele>684.40002441406</ele>
        <time>2012-12-30T09:11:52Z</time>
      </trkpt>
      <trkpt lat="43.86164" lon="7.2406">
        <ele>684.40002441406</ele>
        <time>2012-12-30T09:11:53Z</time>
      </trkpt>
      <trkpt lat="43.86164" lon="7.2406">
        <ele>684.40002441406</ele>
        <time>2012-12-30T09:11:55Z</time>
      </trkpt>
      <trkpt lat="43.86168" lon="7.24053">
        <ele>685</ele>
        <time>2012-12-30T09:12:21Z</time>
      </trkpt>
      <trkpt lat="43.8617" lon="7.24049">
        <ele>685.20001220703</ele>
        <time>2012-12-30T09:12:23Z</time>
      </trkpt>
      <trkpt lat="43.86173" lon="7.24043">
        <ele>685.40002441406</ele>
        <time>2012-12-30T09:12:25Z</time>
      </trkpt>
      <trkpt lat="43.86177" lon="7.24037">
        <ele>685.79998779297</ele>
        <time>2012-12-30T09:12:27Z</time>
      </trkpt>
      <trkpt lat="43.8618" lon="7.2403">
        <ele>686</ele>
        <time>2012-12-30T09:12:29Z</time>
      </trkpt>
      <trkpt lat="43.86189" lon="7.24015">
        <ele>686.59997558594</ele>
        <time>2012-12-30T09:12:34Z</time>
      </trkpt>
      <trkpt lat="43.86195" lon="7.23996">
        <ele>687.20001220703</ele>
        <time>2012-12-30T09:12:39Z</time>
      </trkpt>
      <trkpt lat="43.86195" lon="7.23974">
        <ele>686.59997558594</ele>
        <time>2012-12-30T09:12:44Z</time>
      </trkpt>
      <trkpt lat="43.86201" lon="7.2396">
        <ele>686.59997558594</ele>
        <time>2012-12-30T09:12:47Z</time>
      </trkpt>
      <trkpt lat="43.86203" lon="7.23957">
        <ele>686.79998779297</ele>
        <time>2012-12-30T09:12:48Z</time>
      </trkpt>
      <trkpt lat="43.86217" lon="7.23939">
        <ele>688</ele>
        <time>2012-12-30T09:12:54Z</time>
      </trkpt>
      <trkpt lat="43.86221" lon="7.23918">
        <ele>688.59997558594</ele>
        <time>2012-12-30T09:12:59Z</time>
      </trkpt>
      <trkpt lat="43.86232" lon="7.23899">
        <ele>687.79998779297</ele>
        <time>2012-12-30T09:13:04Z</time>
      </trkpt>
      <trkpt lat="43.8625" lon="7.23882">
        <ele>687.40002441406</ele>
        <time>2012-12-30T09:13:11Z</time>
      </trkpt>
      <trkpt lat="43.86266" lon="7.23866">
        <ele>686.40002441406</ele>
        <time>2012-12-30T09:13:19Z</time>
      </trkpt>
      <trkpt lat="43.86277" lon="7.23857">
        <ele>686.20001220703</ele>
        <time>2012-12-30T09:13:25Z</time>
      </trkpt>
      <trkpt lat="43.8629" lon="7.23846">
        <ele>685.79998779297</ele>
        <time>2012-12-30T09:13:31Z</time>
      </trkpt>
      <trkpt lat="43.86305" lon="7.23837">
        <ele>686.20001220703</ele>
        <time>2012-12-30T09:13:36Z</time>
      </trkpt>
      <trkpt lat="43.86312" lon="7.23835">
        <ele>686.79998779297</ele>
        <time>2012-12-30T09:13:38Z</time>
      </trkpt>
      <trkpt lat="43.86315" lon="7.23835">
        <ele>687.20001220703</ele>
        <time>2012-12-30T09:13:39Z</time>
      </trkpt>
      <trkpt lat="43.86318" lon="7.23836">
        <ele>687.59997558594</ele>
        <time>2012-12-30T09:13:40Z</time>
      </trkpt>
      <trkpt lat="43.86322" lon="7.2384">
        <ele>688.40002441406</ele>
        <time>2012-12-30T09:13:42Z</time>
      </trkpt>
      <trkpt lat="43.86324" lon="7.23842">
        <ele>688.79998779297</ele>
        <time>2012-12-30T09:13:43Z</time>
      </trkpt>
      <trkpt lat="43.8633" lon="7.23855">
        <ele>691</ele>
        <time>2012-12-30T09:13:48Z</time>
      </trkpt>
      <trkpt lat="43.86337" lon="7.23877">
        <ele>693.59997558594</ele>
        <time>2012-12-30T09:13:55Z</time>
      </trkpt>
      <trkpt lat="43.86341" lon="7.2389">
        <ele>694.79998779297</ele>
        <time>2012-12-30T09:13:59Z</time>
      </trkpt>
      <trkpt lat="43.86344" lon="7.23894">
        <ele>695.20001220703</ele>
        <time>2012-12-30T09:14:01Z</time>
      </trkpt>
      <trkpt lat="43.86352" lon="7.23902">
        <ele>696.20001220703</ele>
        <time>2012-12-30T09:14:05Z</time>
      </trkpt>
      <trkpt lat="43.86355" lon="7.23904">
        <ele>696.40002441406</ele>
        <time>2012-12-30T09:14:07Z</time>
      </trkpt>
      <trkpt lat="43.86361" lon="7.23907">
        <ele>696.79998779297</ele>
        <time>2012-12-30T09:14:10Z</time>
      </trkpt>
      <trkpt lat="43.86363" lon="7.23908">
        <ele>697</ele>
        <time>2012-12-30T09:14:11Z</time>
      </trkpt>
      <trkpt lat="43.86367" lon="7.2391">
        <ele>697.20001220703</ele>
        <time>2012-12-30T09:14:13Z</time>
      </trkpt>
      <trkpt lat="43.86383" lon="7.23911">
        <ele>697.59997558594</ele>
        <time>2012-12-30T09:14:20Z</time>
      </trkpt>
      <trkpt lat="43.864" lon="7.23917">
        <ele>698.59997558594</ele>
        <time>2012-12-30T09:14:27Z</time>
      </trkpt>
      <trkpt lat="43.86415" lon="7.23927">
        <ele>699.79998779297</ele>
        <time>2012-12-30T09:14:34Z</time>
      </trkpt>
      <trkpt lat="43.86433" lon="7.23928">
        <ele>702.40002441406</ele>
        <time>2012-12-30T09:14:42Z</time>
      </trkpt>
      <trkpt lat="43.86448" lon="7.23926">
        <ele>704.40002441406</ele>
        <time>2012-12-30T09:14:49Z</time>
      </trkpt>
      <trkpt lat="43.86452" lon="7.23925">
        <ele>704.79998779297</ele>
        <time>2012-12-30T09:14:51Z</time>
      </trkpt>
      <trkpt lat="43.86466" lon="7.23924">
        <ele>706.79998779297</ele>
        <time>2012-12-30T09:14:58Z</time>
      </trkpt>
      <trkpt lat="43.86485" lon="7.23922">
        <ele>709.40002441406</ele>
        <time>2012-12-30T09:15:07Z</time>
      </trkpt>
      <trkpt lat="43.86502" lon="7.23917">
        <ele>711.20001220703</ele>
        <time>2012-12-30T09:15:14Z</time>
      </trkpt>
      <trkpt lat="43.86504" lon="7.23915">
        <ele>711.20001220703</ele>
        <time>2012-12-30T09:15:15Z</time>
      </trkpt>
      <trkpt lat="43.8651" lon="7.23905">
        <ele>710.79998779297</ele>
        <time>2012-12-30T09:15:20Z</time>
      </trkpt>
      <trkpt lat="43.86512" lon="7.23903">
        <ele>710.59997558594</ele>
        <time>2012-12-30T09:15:21Z</time>
      </trkpt>
      <trkpt lat="43.86513" lon="7.239">
        <ele>710.40002441406</ele>
        <time>2012-12-30T09:15:22Z</time>
      </trkpt>
      <trkpt lat="43.86516" lon="7.23892">
        <ele>709.79998779297</ele>
        <time>2012-12-30T09:15:25Z</time>
      </trkpt>
      <trkpt lat="43.86522" lon="7.23879">
        <ele>709.20001220703</ele>
        <time>2012-12-30T09:15:30Z</time>
      </trkpt>
      <trkpt lat="43.86524" lon="7.23878">
        <ele>709.20001220703</ele>
        <time>2012-12-30T09:15:31Z</time>
      </trkpt>
      <trkpt lat="43.86532" lon="7.23865">
        <ele>708.59997558594</ele>
        <time>2012-12-30T09:15:38Z</time>
      </trkpt>
      <trkpt lat="43.86544" lon="7.23854">
        <ele>708.59997558594</ele>
        <time>2012-12-30T09:15:46Z</time>
      </trkpt>
      <trkpt lat="43.86552" lon="7.23853">
        <ele>709.40002441406</ele>
        <time>2012-12-30T09:15:51Z</time>
      </trkpt>
      <trkpt lat="43.86555" lon="7.23855">
        <ele>710</ele>
        <time>2012-12-30T09:15:53Z</time>
      </trkpt>
      <trkpt lat="43.86572" lon="7.23863">
        <ele>713.20001220703</ele>
        <time>2012-12-30T09:16:03Z</time>
      </trkpt>
      <trkpt lat="43.86584" lon="7.23869">
        <ele>715</ele>
        <time>2012-12-30T09:16:10Z</time>
      </trkpt>
      <trkpt lat="43.86598" lon="7.23876">
        <ele>715.20001220703</ele>
        <time>2012-12-30T09:16:18Z</time>
      </trkpt>
      <trkpt lat="43.86607" lon="7.23883">
        <ele>715.59997558594</ele>
        <time>2012-12-30T09:16:24Z</time>
      </trkpt>
      <trkpt lat="43.86608" lon="7.23884">
        <ele>715.79998779297</ele>
        <time>2012-12-30T09:16:25Z</time>
      </trkpt>
      <trkpt lat="43.86609" lon="7.23886">
        <ele>716</ele>
        <time>2012-12-30T09:16:26Z</time>
      </trkpt>
      <trkpt lat="43.86611" lon="7.23888">
        <ele>716</ele>
        <time>2012-12-30T09:16:27Z</time>
      </trkpt>
      <trkpt lat="43.86617" lon="7.23897">
        <ele>717</ele>
        <time>2012-12-30T09:16:32Z</time>
      </trkpt>
      <trkpt lat="43.86621" lon="7.23903">
        <ele>717.59997558594</ele>
        <time>2012-12-30T09:16:35Z</time>
      </trkpt>
      <trkpt lat="43.86626" lon="7.23917">
        <ele>719.40002441406</ele>
        <time>2012-12-30T09:16:42Z</time>
      </trkpt>
      <trkpt lat="43.86631" lon="7.23931">
        <ele>721</ele>
        <time>2012-12-30T09:16:49Z</time>
      </trkpt>
      <trkpt lat="43.86633" lon="7.2394">
        <ele>722</ele>
        <time>2012-12-30T09:16:53Z</time>
      </trkpt>
      <trkpt lat="43.86635" lon="7.23947">
        <ele>723</ele>
        <time>2012-12-30T09:16:56Z</time>
      </trkpt>
      <trkpt lat="43.86644" lon="7.23974">
        <ele>726.20001220703</ele>
        <time>2012-12-30T09:17:06Z</time>
      </trkpt>
      <trkpt lat="43.86651" lon="7.23985">
        <ele>727.59997558594</ele>
        <time>2012-12-30T09:17:11Z</time>
      </trkpt>
      <trkpt lat="43.86652" lon="7.23987">
        <ele>728</ele>
        <time>2012-12-30T09:17:12Z</time>
      </trkpt>
      <trkpt lat="43.86655" lon="7.2399">
        <ele>728.40002441406</ele>
        <time>2012-12-30T09:17:14Z</time>
      </trkpt>
      <trkpt lat="43.86662" lon="7.23997">
        <ele>729.40002441406</ele>
        <time>2012-12-30T09:17:18Z</time>
      </trkpt>
      <trkpt lat="43.86667" lon="7.24001">
        <ele>730</ele>
        <time>2012-12-30T09:17:21Z</time>
      </trkpt>
      <trkpt lat="43.86676" lon="7.24009">
        <ele>729</ele>
        <time>2012-12-30T09:17:27Z</time>
      </trkpt>
      <trkpt lat="43.86684" lon="7.24023">
        <ele>728.40002441406</ele>
        <time>2012-12-30T09:17:34Z</time>
      </trkpt>
      <trkpt lat="43.86687" lon="7.2404">
        <ele>728.79998779297</ele>
        <time>2012-12-30T09:17:40Z</time>
      </trkpt>
      <trkpt lat="43.86687" lon="7.24061">
        <ele>730.59997558594</ele>
        <time>2012-12-30T09:17:48Z</time>
      </trkpt>
      <trkpt lat="43.86678" lon="7.24076">
        <ele>733.20001220703</ele>
        <time>2012-12-30T09:17:55Z</time>
      </trkpt>
      <trkpt lat="43.86676" lon="7.24079">
        <ele>733.59997558594</ele>
        <time>2012-12-30T09:17:56Z</time>
      </trkpt>
      <trkpt lat="43.86671" lon="7.2409">
        <ele>735.20001220703</ele>
        <time>2012-12-30T09:18:01Z</time>
      </trkpt>
      <trkpt lat="43.86666" lon="7.24102">
        <ele>736.40002441406</ele>
        <time>2012-12-30T09:18:06Z</time>
      </trkpt>
      <trkpt lat="43.86654" lon="7.24116">
        <ele>736.79998779297</ele>
        <time>2012-12-30T09:18:14Z</time>
      </trkpt>
      <trkpt lat="43.86637" lon="7.24129">
        <ele>737.79998779297</ele>
        <time>2012-12-30T09:18:21Z</time>
      </trkpt>
      <trkpt lat="43.86628" lon="7.24138">
        <ele>738.59997558594</ele>
        <time>2012-12-30T09:18:24Z</time>
      </trkpt>
      <trkpt lat="43.86621" lon="7.24143">
        <ele>739.20001220703</ele>
        <time>2012-12-30T09:18:27Z</time>
      </trkpt>
      <trkpt lat="43.86603" lon="7.24153">
        <ele>740.59997558594</ele>
        <time>2012-12-30T09:18:36Z</time>
      </trkpt>
      <trkpt lat="43.86587" lon="7.24166">
        <ele>742.59997558594</ele>
        <time>2012-12-30T09:18:45Z</time>
      </trkpt>
      <trkpt lat="43.86581" lon="7.24171">
        <ele>743.79998779297</ele>
        <time>2012-12-30T09:18:50Z</time>
      </trkpt>
      <trkpt lat="43.8658" lon="7.24171">
        <ele>744</ele>
        <time>2012-12-30T09:18:51Z</time>
      </trkpt>
      <trkpt lat="43.86574" lon="7.24174">
        <ele>744.59997558594</ele>
        <time>2012-12-30T09:18:57Z</time>
      </trkpt>
      <trkpt lat="43.86571" lon="7.24175">
        <ele>745</ele>
        <time>2012-12-30T09:18:59Z</time>
      </trkpt>
      <trkpt lat="43.86563" lon="7.24179">
        <ele>745.79998779297</ele>
        <time>2012-12-30T09:19:05Z</time>
      </trkpt>
      <trkpt lat="43.8656" lon="7.2418">
        <ele>746</ele>
        <time>2012-12-30T09:19:07Z</time>
      </trkpt>
      <trkpt lat="43.86552" lon="7.24185">
        <ele>747</ele>
        <time>2012-12-30T09:19:14Z</time>
      </trkpt>
      <trkpt lat="43.86539" lon="7.2419">
        <ele>748.20001220703</ele>
        <time>2012-12-30T09:19:22Z</time>
      </trkpt>
      <trkpt lat="43.86533" lon="7.24192">
        <ele>748.59997558594</ele>
        <time>2012-12-30T09:19:26Z</time>
      </trkpt>
      <trkpt lat="43.86524" lon="7.24194">
        <ele>749</ele>
        <time>2012-12-30T09:19:31Z</time>
      </trkpt>
      <trkpt lat="43.86517" lon="7.24195">
        <ele>749</ele>
        <time>2012-12-30T09:19:35Z</time>
      </trkpt>
      <trkpt lat="43.86505" lon="7.24197">
        <ele>749.40002441406</ele>
        <time>2012-12-30T09:19:41Z</time>
      </trkpt>
      <trkpt lat="43.86489" lon="7.24204">
        <ele>749</ele>
        <time>2012-12-30T09:19:50Z</time>
      </trkpt>
      <trkpt lat="43.86483" lon="7.24208">
        <ele>748.79998779297</ele>
        <time>2012-12-30T09:19:53Z</time>
      </trkpt>
      <trkpt lat="43.86478" lon="7.24215">
        <ele>749.20001220703</ele>
        <time>2012-12-30T09:19:57Z</time>
      </trkpt>
      <trkpt lat="43.86466" lon="7.24236">
        <ele>751.20001220703</ele>
        <time>2012-12-30T09:20:07Z</time>
      </trkpt>
      <trkpt lat="43.86454" lon="7.24256">
        <ele>752.79998779297</ele>
        <time>2012-12-30T09:20:16Z</time>
      </trkpt>
      <trkpt lat="43.86445" lon="7.24275">
        <ele>755</ele>
        <time>2012-12-30T09:20:24Z</time>
      </trkpt>
      <trkpt lat="43.86441" lon="7.24295">
        <ele>757.59997558594</ele>
        <time>2012-12-30T09:20:32Z</time>
      </trkpt>
      <trkpt lat="43.86436" lon="7.24317">
        <ele>760.79998779297</ele>
        <time>2012-12-30T09:20:41Z</time>
      </trkpt>
      <trkpt lat="43.86432" lon="7.2433">
        <ele>762</ele>
        <time>2012-12-30T09:20:47Z</time>
      </trkpt>
      <trkpt lat="43.86425" lon="7.24343">
        <ele>762.79998779297</ele>
        <time>2012-12-30T09:20:55Z</time>
      </trkpt>
      <trkpt lat="43.86413" lon="7.24359">
        <ele>763</ele>
        <time>2012-12-30T09:21:05Z</time>
      </trkpt>
      <trkpt lat="43.86402" lon="7.24377">
        <ele>762.79998779297</ele>
        <time>2012-12-30T09:21:14Z</time>
      </trkpt>
      <trkpt lat="43.86393" lon="7.244">
        <ele>763.79998779297</ele>
        <time>2012-12-30T09:21:23Z</time>
      </trkpt>
      <trkpt lat="43.86391" lon="7.24407">
        <ele>764.40002441406</ele>
        <time>2012-12-30T09:21:26Z</time>
      </trkpt>
      <trkpt lat="43.86387" lon="7.24422">
        <ele>764.59997558594</ele>
        <time>2012-12-30T09:21:32Z</time>
      </trkpt>
      <trkpt lat="43.86388" lon="7.24438">
        <ele>765</ele>
        <time>2012-12-30T09:21:39Z</time>
      </trkpt>
      <trkpt lat="43.86395" lon="7.24456">
        <ele>768.20001220703</ele>
        <time>2012-12-30T09:21:47Z</time>
      </trkpt>
      <trkpt lat="43.86398" lon="7.24465">
        <ele>769.40002441406</ele>
        <time>2012-12-30T09:21:51Z</time>
      </trkpt>
      <trkpt lat="43.86399" lon="7.24473">
        <ele>770</ele>
        <time>2012-12-30T09:21:54Z</time>
      </trkpt>
      <trkpt lat="43.86404" lon="7.24494">
        <ele>772.59997558594</ele>
        <time>2012-12-30T09:22:02Z</time>
      </trkpt>
      <trkpt lat="43.86411" lon="7.24512">
        <ele>774.79998779297</ele>
        <time>2012-12-30T09:22:10Z</time>
      </trkpt>
      <trkpt lat="43.86413" lon="7.24516">
        <ele>775.20001220703</ele>
        <time>2012-12-30T09:22:12Z</time>
      </trkpt>
      <trkpt lat="43.86423" lon="7.24538">
        <ele>777.79998779297</ele>
        <time>2012-12-30T09:22:24Z</time>
      </trkpt>
      <trkpt lat="43.86433" lon="7.24556">
        <ele>781.20001220703</ele>
        <time>2012-12-30T09:22:35Z</time>
      </trkpt>
      <trkpt lat="43.86438" lon="7.24566">
        <ele>782.59997558594</ele>
        <time>2012-12-30T09:22:40Z</time>
      </trkpt>
      <trkpt lat="43.86439" lon="7.24568">
        <ele>782.79998779297</ele>
        <time>2012-12-30T09:22:41Z</time>
      </trkpt>
      <trkpt lat="43.8644" lon="7.2457">
        <ele>783</ele>
        <time>2012-12-30T09:22:42Z</time>
      </trkpt>
      <trkpt lat="43.86443" lon="7.24589">
        <ele>784.79998779297</ele>
        <time>2012-12-30T09:22:50Z</time>
      </trkpt>
      <trkpt lat="43.86443" lon="7.24599">
        <ele>785.40002441406</ele>
        <time>2012-12-30T09:22:54Z</time>
      </trkpt>
      <trkpt lat="43.86442" lon="7.24606">
        <ele>785.79998779297</ele>
        <time>2012-12-30T09:22:57Z</time>
      </trkpt>
      <trkpt lat="43.86441" lon="7.24628">
        <ele>787.59997558594</ele>
        <time>2012-12-30T09:23:06Z</time>
      </trkpt>
      <trkpt lat="43.86439" lon="7.24641">
        <ele>788.40002441406</ele>
        <time>2012-12-30T09:23:12Z</time>
      </trkpt>
      <trkpt lat="43.86434" lon="7.2466">
        <ele>788.20001220703</ele>
        <time>2012-12-30T09:23:20Z</time>
      </trkpt>
      <trkpt lat="43.86429" lon="7.24677">
        <ele>789.40002441406</ele>
        <time>2012-12-30T09:23:28Z</time>
      </trkpt>
      <trkpt lat="43.86422" lon="7.24697">
        <ele>791.20001220703</ele>
        <time>2012-12-30T09:23:37Z</time>
      </trkpt>
      <trkpt lat="43.86414" lon="7.2472">
        <ele>793.20001220703</ele>
        <time>2012-12-30T09:23:47Z</time>
      </trkpt>
      <trkpt lat="43.86405" lon="7.24743">
        <ele>794.79998779297</ele>
        <time>2012-12-30T09:23:57Z</time>
      </trkpt>
      <trkpt lat="43.86398" lon="7.24764">
        <ele>795.59997558594</ele>
        <time>2012-12-30T09:24:06Z</time>
      </trkpt>
      <trkpt lat="43.86391" lon="7.2479">
        <ele>797.40002441406</ele>
        <time>2012-12-30T09:24:16Z</time>
      </trkpt>
      <trkpt lat="43.86384" lon="7.24817">
        <ele>799.40002441406</ele>
        <time>2012-12-30T09:24:26Z</time>
      </trkpt>
      <trkpt lat="43.86379" lon="7.24837">
        <ele>800.79998779297</ele>
        <time>2012-12-30T09:24:33Z</time>
      </trkpt>
      <trkpt lat="43.86372" lon="7.24865">
        <ele>801.40002441406</ele>
        <time>2012-12-30T09:24:43Z</time>
      </trkpt>
      <trkpt lat="43.86369" lon="7.24883">
        <ele>802.59997558594</ele>
        <time>2012-12-30T09:24:49Z</time>
      </trkpt>
      <trkpt lat="43.86367" lon="7.24897">
        <ele>803.79998779297</ele>
        <time>2012-12-30T09:24:54Z</time>
      </trkpt>
      <trkpt lat="43.86364" lon="7.24926">
        <ele>805.59997558594</ele>
        <time>2012-12-30T09:25:04Z</time>
      </trkpt>
      <trkpt lat="43.86363" lon="7.24932">
        <ele>805.79998779297</ele>
        <time>2012-12-30T09:25:06Z</time>
      </trkpt>
      <trkpt lat="43.86363" lon="7.24935">
        <ele>805.79998779297</ele>
        <time>2012-12-30T09:25:07Z</time>
      </trkpt>
      <trkpt lat="43.86363" lon="7.24948">
        <ele>806.59997558594</ele>
        <time>2012-12-30T09:25:12Z</time>
      </trkpt>
      <trkpt lat="43.86364" lon="7.2497">
        <ele>808.59997558594</ele>
        <time>2012-12-30T09:25:20Z</time>
      </trkpt>
      <trkpt lat="43.86364" lon="7.24976">
        <ele>809</ele>
        <time>2012-12-30T09:25:22Z</time>
      </trkpt>
      <trkpt lat="43.86364" lon="7.24978">
        <ele>809.20001220703</ele>
        <time>2012-12-30T09:25:23Z</time>
      </trkpt>
      <trkpt lat="43.86364" lon="7.24981">
        <ele>809.20001220703</ele>
        <time>2012-12-30T09:25:24Z</time>
      </trkpt>
      <trkpt lat="43.86364" lon="7.24984">
        <ele>809.59997558594</ele>
        <time>2012-12-30T09:25:25Z</time>
      </trkpt>
      <trkpt lat="43.86364" lon="7.24993">
        <ele>810.20001220703</ele>
        <time>2012-12-30T09:25:28Z</time>
      </trkpt>
      <trkpt lat="43.86367" lon="7.25014">
        <ele>811.40002441406</ele>
        <time>2012-12-30T09:25:36Z</time>
      </trkpt>
      <trkpt lat="43.8637" lon="7.25036">
        <ele>812.79998779297</ele>
        <time>2012-12-30T09:25:45Z</time>
      </trkpt>
      <trkpt lat="43.86375" lon="7.25059">
        <ele>815</ele>
        <time>2012-12-30T09:25:54Z</time>
      </trkpt>
      <trkpt lat="43.86381" lon="7.25081">
        <ele>818.40002441406</ele>
        <time>2012-12-30T09:26:03Z</time>
      </trkpt>
      <trkpt lat="43.86382" lon="7.25084">
        <ele>818.79998779297</ele>
        <time>2012-12-30T09:26:04Z</time>
      </trkpt>
      <trkpt lat="43.86382" lon="7.25087">
        <ele>819</ele>
        <time>2012-12-30T09:26:05Z</time>
      </trkpt>
      <trkpt lat="43.86385" lon="7.25097">
        <ele>820</ele>
        <time>2012-12-30T09:26:09Z</time>
      </trkpt>
      <trkpt lat="43.86386" lon="7.25099">
        <ele>820.40002441406</ele>
        <time>2012-12-30T09:26:10Z</time>
      </trkpt>
      <trkpt lat="43.86387" lon="7.25102">
        <ele>820.79998779297</ele>
        <time>2012-12-30T09:26:11Z</time>
      </trkpt>
      <trkpt lat="43.8639" lon="7.25109">
        <ele>821.79998779297</ele>
        <time>2012-12-30T09:26:14Z</time>
      </trkpt>
      <trkpt lat="43.86392" lon="7.25116">
        <ele>822.59997558594</ele>
        <time>2012-12-30T09:26:17Z</time>
      </trkpt>
      <trkpt lat="43.86393" lon="7.25118">
        <ele>823</ele>
        <time>2012-12-30T09:26:18Z</time>
      </trkpt>
      <trkpt lat="43.86396" lon="7.25129">
        <ele>824</ele>
        <time>2012-12-30T09:26:22Z</time>
      </trkpt>
      <trkpt lat="43.86404" lon="7.25159">
        <ele>826.79998779297</ele>
        <time>2012-12-30T09:26:34Z</time>
      </trkpt>
      <trkpt lat="43.86408" lon="7.25173">
        <ele>828.20001220703</ele>
        <time>2012-12-30T09:26:40Z</time>
      </trkpt>
      <trkpt lat="43.86408" lon="7.25175">
        <ele>828.40002441406</ele>
        <time>2012-12-30T09:26:41Z</time>
      </trkpt>
      <trkpt lat="43.86409" lon="7.25177">
        <ele>828.40002441406</ele>
        <time>2012-12-30T09:26:42Z</time>
      </trkpt>
      <trkpt lat="43.8641" lon="7.2518">
        <ele>828.79998779297</ele>
        <time>2012-12-30T09:26:43Z</time>
      </trkpt>
      <trkpt lat="43.86411" lon="7.25182">
        <ele>829</ele>
        <time>2012-12-30T09:26:44Z</time>
      </trkpt>
      <trkpt lat="43.86414" lon="7.25195">
        <ele>830</ele>
        <time>2012-12-30T09:26:50Z</time>
      </trkpt>
      <trkpt lat="43.86419" lon="7.25214">
        <ele>831</ele>
        <time>2012-12-30T09:26:58Z</time>
      </trkpt>
      <trkpt lat="43.86424" lon="7.25233">
        <ele>832.40002441406</ele>
        <time>2012-12-30T09:27:06Z</time>
      </trkpt>
      <trkpt lat="43.86425" lon="7.25235">
        <ele>832.40002441406</ele>
        <time>2012-12-30T09:27:07Z</time>
      </trkpt>
      <trkpt lat="43.86429" lon="7.25251">
        <ele>833.79998779297</ele>
        <time>2012-12-30T09:27:14Z</time>
      </trkpt>
      <trkpt lat="43.86432" lon="7.25264">
        <ele>835.40002441406</ele>
        <time>2012-12-30T09:27:20Z</time>
      </trkpt>
      <trkpt lat="43.86434" lon="7.25274">
        <ele>836.59997558594</ele>
        <time>2012-12-30T09:27:24Z</time>
      </trkpt>
      <trkpt lat="43.86434" lon="7.25276">
        <ele>837</ele>
        <time>2012-12-30T09:27:25Z</time>
      </trkpt>
      <trkpt lat="43.86436" lon="7.25285">
        <ele>838.20001220703</ele>
        <time>2012-12-30T09:27:29Z</time>
      </trkpt>
      <trkpt lat="43.8644" lon="7.25305">
        <ele>840</ele>
        <time>2012-12-30T09:27:37Z</time>
      </trkpt>
      <trkpt lat="43.86444" lon="7.25329">
        <ele>842</ele>
        <time>2012-12-30T09:27:47Z</time>
      </trkpt>
      <trkpt lat="43.86449" lon="7.25351">
        <ele>843.79998779297</ele>
        <time>2012-12-30T09:27:56Z</time>
      </trkpt>
      <trkpt lat="43.86452" lon="7.25368">
        <ele>845.40002441406</ele>
        <time>2012-12-30T09:28:04Z</time>
      </trkpt>
      <trkpt lat="43.86455" lon="7.25386">
        <ele>846.20001220703</ele>
        <time>2012-12-30T09:28:12Z</time>
      </trkpt>
      <trkpt lat="43.86456" lon="7.25395">
        <ele>846.20001220703</ele>
        <time>2012-12-30T09:28:17Z</time>
      </trkpt>
      <trkpt lat="43.86456" lon="7.25401">
        <ele>846.20001220703</ele>
        <time>2012-12-30T09:28:20Z</time>
      </trkpt>
      <trkpt lat="43.86457" lon="7.25416">
        <ele>845.40002441406</ele>
        <time>2012-12-30T09:28:28Z</time>
      </trkpt>
      <trkpt lat="43.86457" lon="7.25423">
        <ele>845.59997558594</ele>
        <time>2012-12-30T09:28:32Z</time>
      </trkpt>
      <trkpt lat="43.86459" lon="7.25427">
        <ele>846</ele>
        <time>2012-12-30T09:28:34Z</time>
      </trkpt>
      <trkpt lat="43.86459" lon="7.25429">
        <ele>846</ele>
        <time>2012-12-30T09:28:35Z</time>
      </trkpt>
      <trkpt lat="43.86461" lon="7.25436">
        <ele>847</ele>
        <time>2012-12-30T09:28:39Z</time>
      </trkpt>
      <trkpt lat="43.86464" lon="7.25447">
        <ele>848</ele>
        <time>2012-12-30T09:28:45Z</time>
      </trkpt>
      <trkpt lat="43.86465" lon="7.25451">
        <ele>848.40002441406</ele>
        <time>2012-12-30T09:28:47Z</time>
      </trkpt>
      <trkpt lat="43.86468" lon="7.25464">
        <ele>849.40002441406</ele>
        <time>2012-12-30T09:28:54Z</time>
      </trkpt>
      <trkpt lat="43.86471" lon="7.25482">
        <ele>850.20001220703</ele>
        <time>2012-12-30T09:29:04Z</time>
      </trkpt>
      <trkpt lat="43.86475" lon="7.255">
        <ele>850.79998779297</ele>
        <time>2012-12-30T09:29:14Z</time>
      </trkpt>
      <trkpt lat="43.86477" lon="7.25514">
        <ele>851</ele>
        <time>2012-12-30T09:29:22Z</time>
      </trkpt>
      <trkpt lat="43.86477" lon="7.25516">
        <ele>851</ele>
        <time>2012-12-30T09:29:23Z</time>
      </trkpt>
      <trkpt lat="43.8648" lon="7.25537">
        <ele>850.40002441406</ele>
        <time>2012-12-30T09:29:34Z</time>
      </trkpt>
      <trkpt lat="43.86481" lon="7.25552">
        <ele>850</ele>
        <time>2012-12-30T09:29:43Z</time>
      </trkpt>
      <trkpt lat="43.86481" lon="7.25555">
        <ele>849.79998779297</ele>
        <time>2012-12-30T09:29:44Z</time>
      </trkpt>
      <trkpt lat="43.86485" lon="7.25566">
        <ele>850.40002441406</ele>
        <time>2012-12-30T09:29:50Z</time>
      </trkpt>
      <trkpt lat="43.8649" lon="7.25583">
        <ele>852.20001220703</ele>
        <time>2012-12-30T09:30:00Z</time>
      </trkpt>
      <trkpt lat="43.86491" lon="7.25585">
        <ele>852.20001220703</ele>
        <time>2012-12-30T09:30:01Z</time>
      </trkpt>
      <trkpt lat="43.86498" lon="7.25598">
        <ele>854</ele>
        <time>2012-12-30T09:30:10Z</time>
      </trkpt>
      <trkpt lat="43.86499" lon="7.25599">
        <ele>854.20001220703</ele>
        <time>2012-12-30T09:30:11Z</time>
      </trkpt>
      <trkpt lat="43.865" lon="7.25601">
        <ele>854.40002441406</ele>
        <time>2012-12-30T09:30:12Z</time>
      </trkpt>
      <trkpt lat="43.86506" lon="7.25612">
        <ele>855.40002441406</ele>
        <time>2012-12-30T09:30:20Z</time>
      </trkpt>
      <trkpt lat="43.86512" lon="7.25622">
        <ele>856.59997558594</ele>
        <time>2012-12-30T09:30:26Z</time>
      </trkpt>
      <trkpt lat="43.86517" lon="7.25628">
        <ele>857.59997558594</ele>
        <time>2012-12-30T09:30:30Z</time>
      </trkpt>
      <trkpt lat="43.86518" lon="7.2563">
        <ele>858</ele>
        <time>2012-12-30T09:30:31Z</time>
      </trkpt>
      <trkpt lat="43.86525" lon="7.25639">
        <ele>860</ele>
        <time>2012-12-30T09:30:37Z</time>
      </trkpt>
      <trkpt lat="43.86536" lon="7.25649">
        <ele>863.59997558594</ele>
        <time>2012-12-30T09:30:45Z</time>
      </trkpt>
      <trkpt lat="43.86545" lon="7.25664">
        <ele>865.79998779297</ele>
        <time>2012-12-30T09:30:54Z</time>
      </trkpt>
      <trkpt lat="43.86551" lon="7.2568">
        <ele>866.59997558594</ele>
        <time>2012-12-30T09:31:02Z</time>
      </trkpt>
      <trkpt lat="43.86554" lon="7.25689">
        <ele>866.79998779297</ele>
        <time>2012-12-30T09:31:06Z</time>
      </trkpt>
      <trkpt lat="43.86555" lon="7.25691">
        <ele>866.79998779297</ele>
        <time>2012-12-30T09:31:07Z</time>
      </trkpt>
      <trkpt lat="43.86556" lon="7.25698">
        <ele>866.20001220703</ele>
        <time>2012-12-30T09:31:10Z</time>
      </trkpt>
      <trkpt lat="43.86556" lon="7.257">
        <ele>866</ele>
        <time>2012-12-30T09:31:11Z</time>
      </trkpt>
      <trkpt lat="43.86558" lon="7.25716">
        <ele>864.40002441406</ele>
        <time>2012-12-30T09:31:18Z</time>
      </trkpt>
      <trkpt lat="43.86559" lon="7.2572">
        <ele>864.59997558594</ele>
        <time>2012-12-30T09:31:20Z</time>
      </trkpt>
      <trkpt lat="43.8656" lon="7.25721">
        <ele>865</ele>
        <time>2012-12-30T09:31:21Z</time>
      </trkpt>
      <trkpt lat="43.86559" lon="7.25721">
        <ele>864.59997558594</ele>
        <time>2012-12-30T09:31:24Z</time>
      </trkpt>
      <trkpt lat="43.8656" lon="7.25721">
        <ele>864.79998779297</ele>
        <time>2012-12-30T09:31:33Z</time>
      </trkpt>
      <trkpt lat="43.86559" lon="7.25719">
        <ele>864.40002441406</ele>
        <time>2012-12-30T09:31:52Z</time>
      </trkpt>
      <trkpt lat="43.86559" lon="7.25719">
        <ele>864.40002441406</ele>
        <time>2012-12-30T09:31:55Z</time>
      </trkpt>
      <trkpt lat="43.86559" lon="7.2572">
        <ele>864.40002441406</ele>
        <time>2012-12-30T09:32:00Z</time>
      </trkpt>
      <trkpt lat="43.86561" lon="7.2572">
        <ele>865.40002441406</ele>
        <time>2012-12-30T09:32:23Z</time>
      </trkpt>
      <trkpt lat="43.86561" lon="7.2572">
        <ele>865.59997558594</ele>
        <time>2012-12-30T09:32:28Z</time>
      </trkpt>
      <trkpt lat="43.86561" lon="7.2572">
        <ele>865.79998779297</ele>
        <time>2012-12-30T09:32:32Z</time>
      </trkpt>
      <trkpt lat="43.86561" lon="7.2572">
        <ele>865.79998779297</ele>
        <time>2012-12-30T09:32:34Z</time>
      </trkpt>
      <trkpt lat="43.86561" lon="7.2572">
        <ele>865.79998779297</ele>
        <time>2012-12-30T09:32:41Z</time>
      </trkpt>
      <trkpt lat="43.86562" lon="7.2572">
        <ele>865.79998779297</ele>
        <time>2012-12-30T09:32:55Z</time>
      </trkpt>
      <trkpt lat="43.86561" lon="7.2572">
        <ele>865.79998779297</ele>
        <time>2012-12-30T09:32:58Z</time>
      </trkpt>
      <trkpt lat="43.8656" lon="7.2572">
        <ele>864.79998779297</ele>
        <time>2012-12-30T09:33:18Z</time>
      </trkpt>
      <trkpt lat="43.8656" lon="7.2572">
        <ele>864.79998779297</ele>
        <time>2012-12-30T09:33:23Z</time>
      </trkpt>
      <trkpt lat="43.86559" lon="7.25719">
        <ele>864.79998779297</ele>
        <time>2012-12-30T09:33:32Z</time>
      </trkpt>
      <trkpt lat="43.86559" lon="7.25719">
        <ele>864.79998779297</ele>
        <time>2012-12-30T09:33:33Z</time>
      </trkpt>
      <trkpt lat="43.86559" lon="7.25719">
        <ele>864.79998779297</ele>
        <time>2012-12-30T09:33:40Z</time>
      </trkpt>
      <trkpt lat="43.86559" lon="7.25719">
        <ele>864.59997558594</ele>
        <time>2012-12-30T09:33:53Z</time>
      </trkpt>
      <trkpt lat="43.86558" lon="7.25719">
        <ele>864.20001220703</ele>
        <time>2012-12-30T09:33:56Z</time>
      </trkpt>
      <trkpt lat="43.86559" lon="7.25719">
        <ele>864.40002441406</ele>
        <time>2012-12-30T09:34:13Z</time>
      </trkpt>
      <trkpt lat="43.86559" lon="7.25719">
        <ele>864.59997558594</ele>
        <time>2012-12-30T09:34:24Z</time>
      </trkpt>
      <trkpt lat="43.86559" lon="7.25719">
        <ele>864.79998779297</ele>
        <time>2012-12-30T09:34:36Z</time>
      </trkpt>
      <trkpt lat="43.86559" lon="7.25721">
        <ele>864.40002441406</ele>
        <time>2012-12-30T09:34:56Z</time>
      </trkpt>
      <trkpt lat="43.86559" lon="7.25721">
        <ele>864.20001220703</ele>
        <time>2012-12-30T09:34:57Z</time>
      </trkpt>
      <trkpt lat="43.86565" lon="7.25724">
        <ele>867.20001220703</ele>
        <time>2012-12-30T09:35:09Z</time>
      </trkpt>
      <trkpt lat="43.86566" lon="7.25722">
        <ele>868.20001220703</ele>
        <time>2012-12-30T09:35:11Z</time>
      </trkpt>
      <trkpt lat="43.86568" lon="7.25719">
        <ele>869.79998779297</ele>
        <time>2012-12-30T09:35:13Z</time>
      </trkpt>
      <trkpt lat="43.86568" lon="7.25711">
        <ele>871</ele>
        <time>2012-12-30T09:35:18Z</time>
      </trkpt>
      <trkpt lat="43.86567" lon="7.25706">
        <ele>870.79998779297</ele>
        <time>2012-12-30T09:35:21Z</time>
      </trkpt>
      <trkpt lat="43.86565" lon="7.25705">
        <ele>870.20001220703</ele>
        <time>2012-12-30T09:35:24Z</time>
      </trkpt>
      <trkpt lat="43.86568" lon="7.25702">
        <ele>872.59997558594</ele>
        <time>2012-12-30T09:35:44Z</time>
      </trkpt>
      <trkpt lat="43.86571" lon="7.25713">
        <ele>872.40002441406</ele>
        <time>2012-12-30T09:35:48Z</time>
      </trkpt>
      <trkpt lat="43.8657" lon="7.25731">
        <ele>869</ele>
        <time>2012-12-30T09:35:52Z</time>
      </trkpt>
      <trkpt lat="43.86573" lon="7.25739">
        <ele>869.40002441406</ele>
        <time>2012-12-30T09:35:55Z</time>
      </trkpt>
      <trkpt lat="43.86574" lon="7.25739">
        <ele>870</ele>
        <time>2012-12-30T09:35:56Z</time>
      </trkpt>
      <trkpt lat="43.86575" lon="7.2574">
        <ele>870.20001220703</ele>
        <time>2012-12-30T09:35:57Z</time>
      </trkpt>
      <trkpt lat="43.86578" lon="7.25747">
        <ele>871.20001220703</ele>
        <time>2012-12-30T09:36:01Z</time>
      </trkpt>
      <trkpt lat="43.86586" lon="7.25759">
        <ele>873.79998779297</ele>
        <time>2012-12-30T09:36:09Z</time>
      </trkpt>
      <trkpt lat="43.86588" lon="7.2576">
        <ele>874.20001220703</ele>
        <time>2012-12-30T09:36:10Z</time>
      </trkpt>
      <trkpt lat="43.86589" lon="7.25763">
        <ele>874.59997558594</ele>
        <time>2012-12-30T09:36:15Z</time>
      </trkpt>
      <trkpt lat="43.8659" lon="7.25763">
        <ele>874.79998779297</ele>
        <time>2012-12-30T09:36:17Z</time>
      </trkpt>
      <trkpt lat="43.86592" lon="7.25763">
        <ele>875.59997558594</ele>
        <time>2012-12-30T09:36:20Z</time>
      </trkpt>
      <trkpt lat="43.86594" lon="7.25765">
        <ele>876.79998779297</ele>
        <time>2012-12-30T09:36:26Z</time>
      </trkpt>
      <trkpt lat="43.86597" lon="7.25765">
        <ele>878.20001220703</ele>
        <time>2012-12-30T09:36:33Z</time>
      </trkpt>
      <trkpt lat="43.86596" lon="7.25764">
        <ele>877.59997558594</ele>
        <time>2012-12-30T09:36:37Z</time>
      </trkpt>
      <trkpt lat="43.86596" lon="7.25764">
        <ele>877.79998779297</ele>
        <time>2012-12-30T09:36:38Z</time>
      </trkpt>
      <trkpt lat="43.86596" lon="7.25764">
        <ele>877.79998779297</ele>
        <time>2012-12-30T09:36:39Z</time>
      </trkpt>
      <trkpt lat="43.86596" lon="7.25764">
        <ele>877.40002441406</ele>
        <time>2012-12-30T09:36:42Z</time>
      </trkpt>
      <trkpt lat="43.86595" lon="7.25764">
        <ele>877.40002441406</ele>
        <time>2012-12-30T09:36:43Z</time>
      </trkpt>
      <trkpt lat="43.86596" lon="7.25763">
        <ele>878</ele>
        <time>2012-12-30T09:36:49Z</time>
      </trkpt>
      <trkpt lat="43.86601" lon="7.25766">
        <ele>879.59997558594</ele>
        <time>2012-12-30T09:36:59Z</time>
      </trkpt>
      <trkpt lat="43.86606" lon="7.25771">
        <ele>881.59997558594</ele>
        <time>2012-12-30T09:37:06Z</time>
      </trkpt>
      <trkpt lat="43.86608" lon="7.25773">
        <ele>882.20001220703</ele>
        <time>2012-12-30T09:37:13Z</time>
      </trkpt>
      <trkpt lat="43.8661" lon="7.25777">
        <ele>882.20001220703</ele>
        <time>2012-12-30T09:37:19Z</time>
      </trkpt>
      <trkpt lat="43.86614" lon="7.25784">
        <ele>883.59997558594</ele>
        <time>2012-12-30T09:37:26Z</time>
      </trkpt>
      <trkpt lat="43.8662" lon="7.25793">
        <ele>885.20001220703</ele>
        <time>2012-12-30T09:37:34Z</time>
      </trkpt>
      <trkpt lat="43.86622" lon="7.25798">
        <ele>885.40002441406</ele>
        <time>2012-12-30T09:37:38Z</time>
      </trkpt>
      <trkpt lat="43.86623" lon="7.25801">
        <ele>885.59997558594</ele>
        <time>2012-12-30T09:37:41Z</time>
      </trkpt>
      <trkpt lat="43.86625" lon="7.25804">
        <ele>886.20001220703</ele>
        <time>2012-12-30T09:37:44Z</time>
      </trkpt>
      <trkpt lat="43.86626" lon="7.25805">
        <ele>886.40002441406</ele>
        <time>2012-12-30T09:37:45Z</time>
      </trkpt>
      <trkpt lat="43.86628" lon="7.25809">
        <ele>886.79998779297</ele>
        <time>2012-12-30T09:37:48Z</time>
      </trkpt>
      <trkpt lat="43.8663" lon="7.25816">
        <ele>887</ele>
        <time>2012-12-30T09:37:53Z</time>
      </trkpt>
      <trkpt lat="43.86631" lon="7.2582">
        <ele>887</ele>
        <time>2012-12-30T09:37:54Z</time>
      </trkpt>
      <trkpt lat="43.86634" lon="7.25833">
        <ele>886.40002441406</ele>
        <time>2012-12-30T09:37:59Z</time>
      </trkpt>
      <trkpt lat="43.86635" lon="7.25834">
        <ele>886.40002441406</ele>
        <time>2012-12-30T09:38:00Z</time>
      </trkpt>
      <trkpt lat="43.86635" lon="7.25836">
        <ele>886.40002441406</ele>
        <time>2012-12-30T09:38:01Z</time>
      </trkpt>
      <trkpt lat="43.86638" lon="7.25844">
        <ele>886.20001220703</ele>
        <time>2012-12-30T09:38:05Z</time>
      </trkpt>
      <trkpt lat="43.8664" lon="7.25846">
        <ele>886.40002441406</ele>
        <time>2012-12-30T09:38:07Z</time>
      </trkpt>
      <trkpt lat="43.8664" lon="7.25847">
        <ele>886.59997558594</ele>
        <time>2012-12-30T09:38:08Z</time>
      </trkpt>
      <trkpt lat="43.86641" lon="7.2585">
        <ele>886.59997558594</ele>
        <time>2012-12-30T09:38:11Z</time>
      </trkpt>
      <trkpt lat="43.86644" lon="7.25859">
        <ele>886</ele>
        <time>2012-12-30T09:38:17Z</time>
      </trkpt>
      <trkpt lat="43.86646" lon="7.25862">
        <ele>886</ele>
        <time>2012-12-30T09:38:19Z</time>
      </trkpt>
      <trkpt lat="43.86648" lon="7.25869">
        <ele>885.40002441406</ele>
        <time>2012-12-30T09:38:23Z</time>
      </trkpt>
      <trkpt lat="43.86649" lon="7.25871">
        <ele>886</ele>
        <time>2012-12-30T09:38:25Z</time>
      </trkpt>
      <trkpt lat="43.86652" lon="7.25873">
        <ele>886.59997558594</ele>
        <time>2012-12-30T09:38:28Z</time>
      </trkpt>
      <trkpt lat="43.86656" lon="7.25878">
        <ele>887.59997558594</ele>
        <time>2012-12-30T09:38:34Z</time>
      </trkpt>
      <trkpt lat="43.86658" lon="7.25882">
        <ele>887.79998779297</ele>
        <time>2012-12-30T09:38:39Z</time>
      </trkpt>
      <trkpt lat="43.86659" lon="7.25884">
        <ele>888</ele>
        <time>2012-12-30T09:38:44Z</time>
      </trkpt>
      <trkpt lat="43.8666" lon="7.25885">
        <ele>888.20001220703</ele>
        <time>2012-12-30T09:38:46Z</time>
      </trkpt>
      <trkpt lat="43.86661" lon="7.25885">
        <ele>888.40002441406</ele>
        <time>2012-12-30T09:38:47Z</time>
      </trkpt>
      <trkpt lat="43.86663" lon="7.25886">
        <ele>889.20001220703</ele>
        <time>2012-12-30T09:38:50Z</time>
      </trkpt>
      <trkpt lat="43.86666" lon="7.25892">
        <ele>889.59997558594</ele>
        <time>2012-12-30T09:38:56Z</time>
      </trkpt>
      <trkpt lat="43.86666" lon="7.25892">
        <ele>889.59997558594</ele>
        <time>2012-12-30T09:38:57Z</time>
      </trkpt>
      <trkpt lat="43.86668" lon="7.25893">
        <ele>890.40002441406</ele>
        <time>2012-12-30T09:38:59Z</time>
      </trkpt>
      <trkpt lat="43.86668" lon="7.25892">
        <ele>890.59997558594</ele>
        <time>2012-12-30T09:39:00Z</time>
      </trkpt>
      <trkpt lat="43.86668" lon="7.25893">
        <ele>890.40002441406</ele>
        <time>2012-12-30T09:39:01Z</time>
      </trkpt>
      <trkpt lat="43.86673" lon="7.25894">
        <ele>892.20001220703</ele>
        <time>2012-12-30T09:39:06Z</time>
      </trkpt>
      <trkpt lat="43.86674" lon="7.25895">
        <ele>892.59997558594</ele>
        <time>2012-12-30T09:39:12Z</time>
      </trkpt>
      <trkpt lat="43.86674" lon="7.25896">
        <ele>892.20001220703</ele>
        <time>2012-12-30T09:39:15Z</time>
      </trkpt>
      <trkpt lat="43.86674" lon="7.25896">
        <ele>892.20001220703</ele>
        <time>2012-12-30T09:39:22Z</time>
      </trkpt>
      <trkpt lat="43.86674" lon="7.25896">
        <ele>892.20001220703</ele>
        <time>2012-12-30T09:39:23Z</time>
      </trkpt>
      <trkpt lat="43.86674" lon="7.25896">
        <ele>892</ele>
        <time>2012-12-30T09:39:29Z</time>
      </trkpt>
      <trkpt lat="43.86674" lon="7.25896">
        <ele>892</ele>
        <time>2012-12-30T09:39:30Z</time>
      </trkpt>
      <trkpt lat="43.86673" lon="7.25896">
        <ele>892.20001220703</ele>
        <time>2012-12-30T09:39:33Z</time>
      </trkpt>
      <trkpt lat="43.86674" lon="7.25895">
        <ele>892.40002441406</ele>
        <time>2012-12-30T09:39:34Z</time>
      </trkpt>
      <trkpt lat="43.86674" lon="7.25896">
        <ele>892.20001220703</ele>
        <time>2012-12-30T09:39:38Z</time>
      </trkpt>
      <trkpt lat="43.86674" lon="7.25896">
        <ele>892.20001220703</ele>
        <time>2012-12-30T09:39:41Z</time>
      </trkpt>
      <trkpt lat="43.86674" lon="7.25897">
        <ele>892.20001220703</ele>
        <time>2012-12-30T09:39:42Z</time>
      </trkpt>
      <trkpt lat="43.86674" lon="7.25896">
        <ele>892.20001220703</ele>
        <time>2012-12-30T09:39:49Z</time>
      </trkpt>
      <trkpt lat="43.86674" lon="7.25896">
        <ele>892.20001220703</ele>
        <time>2012-12-30T09:39:50Z</time>
      </trkpt>
      <trkpt lat="43.86674" lon="7.25896">
        <ele>892.20001220703</ele>
        <time>2012-12-30T09:39:51Z</time>
      </trkpt>
      <trkpt lat="43.86674" lon="7.25896">
        <ele>892.20001220703</ele>
        <time>2012-12-30T09:39:53Z</time>
      </trkpt>
      <trkpt lat="43.86674" lon="7.25896">
        <ele>892.40002441406</ele>
        <time>2012-12-30T09:39:54Z</time>
      </trkpt>
      <trkpt lat="43.86673" lon="7.25898">
        <ele>891.40002441406</ele>
        <time>2012-12-30T09:40:04Z</time>
      </trkpt>
      <trkpt lat="43.86673" lon="7.25897">
        <ele>891.59997558594</ele>
        <time>2012-12-30T09:40:06Z</time>
      </trkpt>
      <trkpt lat="43.86674" lon="7.25898">
        <ele>891.59997558594</ele>
        <time>2012-12-30T09:40:07Z</time>
      </trkpt>
      <trkpt lat="43.86673" lon="7.25898">
        <ele>891.59997558594</ele>
        <time>2012-12-30T09:40:14Z</time>
      </trkpt>
      <trkpt lat="43.86673" lon="7.25898">
        <ele>891.59997558594</ele>
        <time>2012-12-30T09:40:15Z</time>
      </trkpt>
      <trkpt lat="43.86676" lon="7.25899">
        <ele>892.40002441406</ele>
        <time>2012-12-30T09:40:30Z</time>
      </trkpt>
      <trkpt lat="43.86677" lon="7.259">
        <ele>892.59997558594</ele>
        <time>2012-12-30T09:40:31Z</time>
      </trkpt>
      <trkpt lat="43.86678" lon="7.259">
        <ele>893.20001220703</ele>
        <time>2012-12-30T09:40:33Z</time>
      </trkpt>
      <trkpt lat="43.86681" lon="7.25902">
        <ele>894.40002441406</ele>
        <time>2012-12-30T09:40:38Z</time>
      </trkpt>
      <trkpt lat="43.86681" lon="7.25902">
        <ele>894.40002441406</ele>
        <time>2012-12-30T09:40:39Z</time>
      </trkpt>
      <trkpt lat="43.86683" lon="7.25903">
        <ele>894.79998779297</ele>
        <time>2012-12-30T09:40:45Z</time>
      </trkpt>
      <trkpt lat="43.86682" lon="7.25902">
        <ele>894.59997558594</ele>
        <time>2012-12-30T09:40:54Z</time>
      </trkpt>
      <trkpt lat="43.86682" lon="7.25902">
        <ele>894.59997558594</ele>
        <time>2012-12-30T09:40:55Z</time>
      </trkpt>
      <trkpt lat="43.86683" lon="7.25901">
        <ele>895.20001220703</ele>
        <time>2012-12-30T09:41:19Z</time>
      </trkpt>
      <trkpt lat="43.86683" lon="7.25901">
        <ele>895.20001220703</ele>
        <time>2012-12-30T09:41:20Z</time>
      </trkpt>
      <trkpt lat="43.86683" lon="7.25901">
        <ele>895.20001220703</ele>
        <time>2012-12-30T09:41:33Z</time>
      </trkpt>
      <trkpt lat="43.86681" lon="7.25902">
        <ele>894.40002441406</ele>
        <time>2012-12-30T09:41:53Z</time>
      </trkpt>
      <trkpt lat="43.86681" lon="7.25902">
        <ele>894.40002441406</ele>
        <time>2012-12-30T09:41:54Z</time>
      </trkpt>
      <trkpt lat="43.86683" lon="7.25901">
        <ele>895</ele>
        <time>2012-12-30T09:42:07Z</time>
      </trkpt>
      <trkpt lat="43.86683" lon="7.25902">
        <ele>894.79998779297</ele>
        <time>2012-12-30T09:42:16Z</time>
      </trkpt>
      <trkpt lat="43.86686" lon="7.25902">
        <ele>896.20001220703</ele>
        <time>2012-12-30T09:42:24Z</time>
      </trkpt>
      <trkpt lat="43.86687" lon="7.25904">
        <ele>896.59997558594</ele>
        <time>2012-12-30T09:42:27Z</time>
      </trkpt>
      <trkpt lat="43.86689" lon="7.25906">
        <ele>896.79998779297</ele>
        <time>2012-12-30T09:42:29Z</time>
      </trkpt>
      <trkpt lat="43.86689" lon="7.25906">
        <ele>896.79998779297</ele>
        <time>2012-12-30T09:42:30Z</time>
      </trkpt>
      <trkpt lat="43.86697" lon="7.25915">
        <ele>898.40002441406</ele>
        <time>2012-12-30T09:42:36Z</time>
      </trkpt>
      <trkpt lat="43.86698" lon="7.25916">
        <ele>898.59997558594</ele>
        <time>2012-12-30T09:42:37Z</time>
      </trkpt>
      <trkpt lat="43.86699" lon="7.25918">
        <ele>898.79998779297</ele>
        <time>2012-12-30T09:42:38Z</time>
      </trkpt>
      <trkpt lat="43.86702" lon="7.25925">
        <ele>900</ele>
        <time>2012-12-30T09:42:41Z</time>
      </trkpt>
      <trkpt lat="43.86707" lon="7.25937">
        <ele>901.20001220703</ele>
        <time>2012-12-30T09:42:47Z</time>
      </trkpt>
      <trkpt lat="43.86706" lon="7.25939">
        <ele>900.79998779297</ele>
        <time>2012-12-30T09:42:48Z</time>
      </trkpt>
      <trkpt lat="43.86702" lon="7.25942">
        <ele>898.20001220703</ele>
        <time>2012-12-30T09:42:51Z</time>
      </trkpt>
      <trkpt lat="43.86699" lon="7.25944">
        <ele>896.79998779297</ele>
        <time>2012-12-30T09:42:52Z</time>
      </trkpt>
      <trkpt lat="43.86689" lon="7.25948">
        <ele>891.40002441406</ele>
        <time>2012-12-30T09:42:56Z</time>
      </trkpt>
      <trkpt lat="43.86683" lon="7.25952">
        <ele>887.79998779297</ele>
        <time>2012-12-30T09:42:59Z</time>
      </trkpt>
      <trkpt lat="43.8668" lon="7.2596">
        <ele>885.59997558594</ele>
        <time>2012-12-30T09:43:01Z</time>
      </trkpt>
      <trkpt lat="43.86678" lon="7.2597">
        <ele>883.79998779297</ele>
        <time>2012-12-30T09:43:03Z</time>
      </trkpt>
      <trkpt lat="43.86673" lon="7.25989">
        <ele>878.59997558594</ele>
        <time>2012-12-30T09:43:06Z</time>
      </trkpt>
      <trkpt lat="43.86666" lon="7.26001">
        <ele>873.79998779297</ele>
        <time>2012-12-30T09:43:10Z</time>
      </trkpt>
      <trkpt lat="43.86664" lon="7.26007">
        <ele>872.40002441406</ele>
        <time>2012-12-30T09:43:14Z</time>
      </trkpt>
      <trkpt lat="43.86664" lon="7.26008">
        <ele>872.40002441406</ele>
        <time>2012-12-30T09:43:15Z</time>
      </trkpt>
      <trkpt lat="43.86664" lon="7.26008">
        <ele>872.20001220703</ele>
        <time>2012-12-30T09:43:16Z</time>
      </trkpt>
      <trkpt lat="43.86661" lon="7.26016">
        <ele>870.59997558594</ele>
        <time>2012-12-30T09:43:21Z</time>
      </trkpt>
      <trkpt lat="43.86654" lon="7.26025">
        <ele>867.59997558594</ele>
        <time>2012-12-30T09:43:25Z</time>
      </trkpt>
      <trkpt lat="43.86654" lon="7.26025">
        <ele>867.59997558594</ele>
        <time>2012-12-30T09:43:26Z</time>
      </trkpt>
      <trkpt lat="43.86653" lon="7.26026">
        <ele>867.20001220703</ele>
        <time>2012-12-30T09:43:30Z</time>
      </trkpt>
      <trkpt lat="43.86648" lon="7.26021">
        <ele>865.40002441406</ele>
        <time>2012-12-30T09:43:33Z</time>
      </trkpt>
      <trkpt lat="43.86646" lon="7.26021">
        <ele>864.59997558594</ele>
        <time>2012-12-30T09:43:34Z</time>
      </trkpt>
      <trkpt lat="43.86645" lon="7.26028">
        <ele>863.79998779297</ele>
        <time>2012-12-30T09:43:37Z</time>
      </trkpt>
      <trkpt lat="43.8664" lon="7.26034">
        <ele>862</ele>
        <time>2012-12-30T09:43:39Z</time>
      </trkpt>
      <trkpt lat="43.86634" lon="7.2604">
        <ele>860.20001220703</ele>
        <time>2012-12-30T09:43:41Z</time>
      </trkpt>
      <trkpt lat="43.86629" lon="7.26041">
        <ele>858.59997558594</ele>
        <time>2012-12-30T09:43:43Z</time>
      </trkpt>
      <trkpt lat="43.86623" lon="7.2604">
        <ele>856.20001220703</ele>
        <time>2012-12-30T09:43:45Z</time>
      </trkpt>
      <trkpt lat="43.86618" lon="7.26043">
        <ele>854.79998779297</ele>
        <time>2012-12-30T09:43:48Z</time>
      </trkpt>
      <trkpt lat="43.86615" lon="7.26056">
        <ele>854.59997558594</ele>
        <time>2012-12-30T09:43:52Z</time>
      </trkpt>
      <trkpt lat="43.86617" lon="7.26069">
        <ele>855.79998779297</ele>
        <time>2012-12-30T09:43:57Z</time>
      </trkpt>
      <trkpt lat="43.86616" lon="7.26072">
        <ele>855.79998779297</ele>
        <time>2012-12-30T09:43:58Z</time>
      </trkpt>
      <trkpt lat="43.86611" lon="7.26074">
        <ele>854.59997558594</ele>
        <time>2012-12-30T09:44:00Z</time>
      </trkpt>
      <trkpt lat="43.86599" lon="7.26075">
        <ele>851.59997558594</ele>
        <time>2012-12-30T09:44:04Z</time>
      </trkpt>
      <trkpt lat="43.86592" lon="7.26075">
        <ele>850</ele>
        <time>2012-12-30T09:44:08Z</time>
      </trkpt>
      <trkpt lat="43.8659" lon="7.26078">
        <ele>849.79998779297</ele>
        <time>2012-12-30T09:44:14Z</time>
      </trkpt>
      <trkpt lat="43.86586" lon="7.2608">
        <ele>849</ele>
        <time>2012-12-30T09:44:19Z</time>
      </trkpt>
      <trkpt lat="43.86583" lon="7.2608">
        <ele>848.59997558594</ele>
        <time>2012-12-30T09:44:22Z</time>
      </trkpt>
      <trkpt lat="43.86583" lon="7.2608">
        <ele>848.59997558594</ele>
        <time>2012-12-30T09:44:23Z</time>
      </trkpt>
      <trkpt lat="43.86581" lon="7.26081">
        <ele>848.79998779297</ele>
        <time>2012-12-30T09:44:26Z</time>
      </trkpt>
      <trkpt lat="43.8658" lon="7.26081">
        <ele>849</ele>
        <time>2012-12-30T09:44:28Z</time>
      </trkpt>
      <trkpt lat="43.8658" lon="7.26081">
        <ele>849</ele>
        <time>2012-12-30T09:44:29Z</time>
      </trkpt>
      <trkpt lat="43.86578" lon="7.2608">
        <ele>849.20001220703</ele>
        <time>2012-12-30T09:44:31Z</time>
      </trkpt>
      <trkpt lat="43.86573" lon="7.26077">
        <ele>849.40002441406</ele>
        <time>2012-12-30T09:44:35Z</time>
      </trkpt>
      <trkpt lat="43.86572" lon="7.26076">
        <ele>849.20001220703</ele>
        <time>2012-12-30T09:44:36Z</time>
      </trkpt>
      <trkpt lat="43.8657" lon="7.26075">
        <ele>849.20001220703</ele>
        <time>2012-12-30T09:44:39Z</time>
      </trkpt>
      <trkpt lat="43.86567" lon="7.26073">
        <ele>849.20001220703</ele>
        <time>2012-12-30T09:44:42Z</time>
      </trkpt>
      <trkpt lat="43.86559" lon="7.2607">
        <ele>849.40002441406</ele>
        <time>2012-12-30T09:44:47Z</time>
      </trkpt>
      <trkpt lat="43.86559" lon="7.2607">
        <ele>849.40002441406</ele>
        <time>2012-12-30T09:44:48Z</time>
      </trkpt>
      <trkpt lat="43.86558" lon="7.26069">
        <ele>849.20001220703</ele>
        <time>2012-12-30T09:44:49Z</time>
      </trkpt>
      <trkpt lat="43.86556" lon="7.26069">
        <ele>849.40002441406</ele>
        <time>2012-12-30T09:44:51Z</time>
      </trkpt>
      <trkpt lat="43.86553" lon="7.26068">
        <ele>849.59997558594</ele>
        <time>2012-12-30T09:44:57Z</time>
      </trkpt>
      <trkpt lat="43.8655" lon="7.26065">
        <ele>849</ele>
        <time>2012-12-30T09:45:00Z</time>
      </trkpt>
      <trkpt lat="43.86549" lon="7.26064">
        <ele>848.59997558594</ele>
        <time>2012-12-30T09:45:01Z</time>
      </trkpt>
      <trkpt lat="43.86545" lon="7.26061">
        <ele>848.20001220703</ele>
        <time>2012-12-30T09:45:06Z</time>
      </trkpt>
      <trkpt lat="43.86543" lon="7.26051">
        <ele>845.40002441406</ele>
        <time>2012-12-30T09:45:18Z</time>
      </trkpt>
      <trkpt lat="43.86543" lon="7.26052">
        <ele>845.59997558594</ele>
        <time>2012-12-30T09:45:19Z</time>
      </trkpt>
      <trkpt lat="43.86546" lon="7.26058">
        <ele>847.20001220703</ele>
        <time>2012-12-30T09:45:26Z</time>
      </trkpt>
      <trkpt lat="43.86547" lon="7.26061">
        <ele>848.20001220703</ele>
        <time>2012-12-30T09:45:30Z</time>
      </trkpt>
      <trkpt lat="43.86547" lon="7.26062">
        <ele>848.40002441406</ele>
        <time>2012-12-30T09:45:31Z</time>
      </trkpt>
      <trkpt lat="43.86547" lon="7.26063">
        <ele>848.40002441406</ele>
        <time>2012-12-30T09:45:32Z</time>
      </trkpt>
      <trkpt lat="43.8655" lon="7.26067">
        <ele>849.40002441406</ele>
        <time>2012-12-30T09:45:40Z</time>
      </trkpt>
      <trkpt lat="43.8655" lon="7.26067">
        <ele>849.40002441406</ele>
        <time>2012-12-30T09:45:41Z</time>
      </trkpt>
      <trkpt lat="43.8655" lon="7.26067">
        <ele>849.40002441406</ele>
        <time>2012-12-30T09:45:42Z</time>
      </trkpt>
      <trkpt lat="43.86551" lon="7.26067">
        <ele>849.40002441406</ele>
        <time>2012-12-30T09:45:43Z</time>
      </trkpt>
      <trkpt lat="43.86551" lon="7.26068">
        <ele>849.59997558594</ele>
        <time>2012-12-30T09:45:44Z</time>
      </trkpt>
      <trkpt lat="43.86552" lon="7.2607">
        <ele>849.79998779297</ele>
        <time>2012-12-30T09:45:48Z</time>
      </trkpt>
      <trkpt lat="43.86553" lon="7.2607">
        <ele>850</ele>
        <time>2012-12-30T09:45:49Z</time>
      </trkpt>
      <trkpt lat="43.86556" lon="7.2607">
        <ele>849.79998779297</ele>
        <time>2012-12-30T09:45:54Z</time>
      </trkpt>
      <trkpt lat="43.86557" lon="7.26071">
        <ele>849.79998779297</ele>
        <time>2012-12-30T09:45:55Z</time>
      </trkpt>
      <trkpt lat="43.86563" lon="7.26073">
        <ele>849.59997558594</ele>
        <time>2012-12-30T09:46:03Z</time>
      </trkpt>
      <trkpt lat="43.86565" lon="7.26074">
        <ele>849.59997558594</ele>
        <time>2012-12-30T09:46:05Z</time>
      </trkpt>
      <trkpt lat="43.86565" lon="7.26076">
        <ele>850</ele>
        <time>2012-12-30T09:46:09Z</time>
      </trkpt>
      <trkpt lat="43.86565" lon="7.26078">
        <ele>850.40002441406</ele>
        <time>2012-12-30T09:46:14Z</time>
      </trkpt>
      <trkpt lat="43.86563" lon="7.26079">
        <ele>850.79998779297</ele>
        <time>2012-12-30T09:46:19Z</time>
      </trkpt>
      <trkpt lat="43.86561" lon="7.2608">
        <ele>851.40002441406</ele>
        <time>2012-12-30T09:46:22Z</time>
      </trkpt>
      <trkpt lat="43.86557" lon="7.26082">
        <ele>852.40002441406</ele>
        <time>2012-12-30T09:46:28Z</time>
      </trkpt>
      <trkpt lat="43.86552" lon="7.26088">
        <ele>855.59997558594</ele>
        <time>2012-12-30T09:46:35Z</time>
      </trkpt>
      <trkpt lat="43.86549" lon="7.26088">
        <ele>855.79998779297</ele>
        <time>2012-12-30T09:46:40Z</time>
      </trkpt>
      <trkpt lat="43.86547" lon="7.26088">
        <ele>855.79998779297</ele>
        <time>2012-12-30T09:46:41Z</time>
      </trkpt>
      <trkpt lat="43.86541" lon="7.26087">
        <ele>856.59997558594</ele>
        <time>2012-12-30T09:46:45Z</time>
      </trkpt>
      <trkpt lat="43.86536" lon="7.26085">
        <ele>856.40002441406</ele>
        <time>2012-12-30T09:46:48Z</time>
      </trkpt>
      <trkpt lat="43.86535" lon="7.26084">
        <ele>856.20001220703</ele>
        <time>2012-12-30T09:46:49Z</time>
      </trkpt>
      <trkpt lat="43.86532" lon="7.26083">
        <ele>856.20001220703</ele>
        <time>2012-12-30T09:46:50Z</time>
      </trkpt>
      <trkpt lat="43.86527" lon="7.26084">
        <ele>857</ele>
        <time>2012-12-30T09:46:53Z</time>
      </trkpt>
      <trkpt lat="43.86525" lon="7.26083">
        <ele>857</ele>
        <time>2012-12-30T09:46:55Z</time>
      </trkpt>
      <trkpt lat="43.86522" lon="7.26077">
        <ele>855.40002441406</ele>
        <time>2012-12-30T09:46:59Z</time>
      </trkpt>
      <trkpt lat="43.86515" lon="7.26072">
        <ele>854.20001220703</ele>
        <time>2012-12-30T09:47:02Z</time>
      </trkpt>
      <trkpt lat="43.86514" lon="7.2607">
        <ele>853.59997558594</ele>
        <time>2012-12-30T09:47:03Z</time>
      </trkpt>
      <trkpt lat="43.8651" lon="7.26068">
        <ele>853</ele>
        <time>2012-12-30T09:47:05Z</time>
      </trkpt>
      <trkpt lat="43.86509" lon="7.26068">
        <ele>853</ele>
        <time>2012-12-30T09:47:06Z</time>
      </trkpt>
      <trkpt lat="43.86507" lon="7.26068">
        <ele>853.20001220703</ele>
        <time>2012-12-30T09:47:07Z</time>
      </trkpt>
      <trkpt lat="43.86503" lon="7.26066">
        <ele>852.59997558594</ele>
        <time>2012-12-30T09:47:09Z</time>
      </trkpt>
      <trkpt lat="43.86502" lon="7.26064">
        <ele>852</ele>
        <time>2012-12-30T09:47:10Z</time>
      </trkpt>
      <trkpt lat="43.86491" lon="7.2606">
        <ele>852.79998779297</ele>
        <time>2012-12-30T09:47:15Z</time>
      </trkpt>
      <trkpt lat="43.86488" lon="7.26057">
        <ele>852.40002441406</ele>
        <time>2012-12-30T09:47:16Z</time>
      </trkpt>
      <trkpt lat="43.8648" lon="7.26052">
        <ele>852.40002441406</ele>
        <time>2012-12-30T09:47:20Z</time>
      </trkpt>
      <trkpt lat="43.8647" lon="7.26053">
        <ele>855.79998779297</ele>
        <time>2012-12-30T09:47:25Z</time>
      </trkpt>
      <trkpt lat="43.86468" lon="7.26055">
        <ele>857.20001220703</ele>
        <time>2012-12-30T09:47:26Z</time>
      </trkpt>
      <trkpt lat="43.86461" lon="7.26061">
        <ele>862.20001220703</ele>
        <time>2012-12-30T09:47:30Z</time>
      </trkpt>
      <trkpt lat="43.8646" lon="7.2606">
        <ele>862.20001220703</ele>
        <time>2012-12-30T09:47:31Z</time>
      </trkpt>
      <trkpt lat="43.86458" lon="7.26053">
        <ele>859.40002441406</ele>
        <time>2012-12-30T09:47:34Z</time>
      </trkpt>
      <trkpt lat="43.86454" lon="7.26045">
        <ele>856.79998779297</ele>
        <time>2012-12-30T09:47:39Z</time>
      </trkpt>
      <trkpt lat="43.86444" lon="7.26036">
        <ele>855.59997558594</ele>
        <time>2012-12-30T09:47:43Z</time>
      </trkpt>
      <trkpt lat="43.86441" lon="7.26031">
        <ele>854.59997558594</ele>
        <time>2012-12-30T09:47:44Z</time>
      </trkpt>
      <trkpt lat="43.86432" lon="7.26022">
        <ele>853.20001220703</ele>
        <time>2012-12-30T09:47:48Z</time>
      </trkpt>
      <trkpt lat="43.8643" lon="7.2602">
        <ele>852.79998779297</ele>
        <time>2012-12-30T09:47:49Z</time>
      </trkpt>
      <trkpt lat="43.86427" lon="7.26017">
        <ele>852.20001220703</ele>
        <time>2012-12-30T09:47:50Z</time>
      </trkpt>
      <trkpt lat="43.8642" lon="7.26013">
        <ele>852.59997558594</ele>
        <time>2012-12-30T09:47:53Z</time>
      </trkpt>
      <trkpt lat="43.8641" lon="7.26005">
        <ele>852.20001220703</ele>
        <time>2012-12-30T09:47:59Z</time>
      </trkpt>
      <trkpt lat="43.86398" lon="7.25995">
        <ele>850.79998779297</ele>
        <time>2012-12-30T09:48:05Z</time>
      </trkpt>
      <trkpt lat="43.86392" lon="7.25992">
        <ele>851.40002441406</ele>
        <time>2012-12-30T09:48:09Z</time>
      </trkpt>
      <trkpt lat="43.8639" lon="7.2599">
        <ele>850.79998779297</ele>
        <time>2012-12-30T09:48:10Z</time>
      </trkpt>
      <trkpt lat="43.86389" lon="7.25988">
        <ele>850.40002441406</ele>
        <time>2012-12-30T09:48:11Z</time>
      </trkpt>
      <trkpt lat="43.86389" lon="7.25986">
        <ele>849.79998779297</ele>
        <time>2012-12-30T09:48:15Z</time>
      </trkpt>
      <trkpt lat="43.86387" lon="7.25985">
        <ele>849.79998779297</ele>
        <time>2012-12-30T09:48:16Z</time>
      </trkpt>
      <trkpt lat="43.86378" lon="7.2598">
        <ele>849.79998779297</ele>
        <time>2012-12-30T09:48:19Z</time>
      </trkpt>
      <trkpt lat="43.86369" lon="7.25972">
        <ele>849</ele>
        <time>2012-12-30T09:48:22Z</time>
      </trkpt>
      <trkpt lat="43.86367" lon="7.25972">
        <ele>849.40002441406</ele>
        <time>2012-12-30T09:48:23Z</time>
      </trkpt>
      <trkpt lat="43.86366" lon="7.25971">
        <ele>849.40002441406</ele>
        <time>2012-12-30T09:48:24Z</time>
      </trkpt>
      <trkpt lat="43.86352" lon="7.25968">
        <ele>852.20001220703</ele>
        <time>2012-12-30T09:48:31Z</time>
      </trkpt>
      <trkpt lat="43.86337" lon="7.25962">
        <ele>853.59997558594</ele>
        <time>2012-12-30T09:48:37Z</time>
      </trkpt>
      <trkpt lat="43.86325" lon="7.25961">
        <ele>857</ele>
        <time>2012-12-30T09:48:42Z</time>
      </trkpt>
      <trkpt lat="43.8632" lon="7.2596">
        <ele>857.79998779297</ele>
        <time>2012-12-30T09:48:44Z</time>
      </trkpt>
      <trkpt lat="43.86315" lon="7.25952">
        <ele>856.20001220703</ele>
        <time>2012-12-30T09:48:47Z</time>
      </trkpt>
      <trkpt lat="43.86313" lon="7.25951">
        <ele>856.20001220703</ele>
        <time>2012-12-30T09:48:48Z</time>
      </trkpt>
      <trkpt lat="43.86301" lon="7.2594">
        <ele>855.59997558594</ele>
        <time>2012-12-30T09:48:54Z</time>
      </trkpt>
      <trkpt lat="43.86295" lon="7.25929">
        <ele>853.20001220703</ele>
        <time>2012-12-30T09:48:58Z</time>
      </trkpt>
      <trkpt lat="43.86279" lon="7.25912">
        <ele>852.20001220703</ele>
        <time>2012-12-30T09:49:04Z</time>
      </trkpt>
      <trkpt lat="43.86267" lon="7.25901">
        <ele>852.59997558594</ele>
        <time>2012-12-30T09:49:09Z</time>
      </trkpt>
      <trkpt lat="43.86255" lon="7.2589">
        <ele>853.40002441406</ele>
        <time>2012-12-30T09:49:13Z</time>
      </trkpt>
      <trkpt lat="43.86244" lon="7.25881">
        <ele>853.79998779297</ele>
        <time>2012-12-30T09:49:18Z</time>
      </trkpt>
      <trkpt lat="43.86242" lon="7.25867">
        <ele>849.20001220703</ele>
        <time>2012-12-30T09:49:21Z</time>
      </trkpt>
      <trkpt lat="43.86239" lon="7.25856">
        <ele>846.40002441406</ele>
        <time>2012-12-30T09:49:24Z</time>
      </trkpt>
      <trkpt lat="43.86234" lon="7.25846">
        <ele>844</ele>
        <time>2012-12-30T09:49:26Z</time>
      </trkpt>
      <trkpt lat="43.86225" lon="7.25826">
        <ele>839.79998779297</ele>
        <time>2012-12-30T09:49:31Z</time>
      </trkpt>
      <trkpt lat="43.86224" lon="7.25825">
        <ele>839.79998779297</ele>
        <time>2012-12-30T09:49:32Z</time>
      </trkpt>
      <trkpt lat="43.86221" lon="7.25822">
        <ele>839.40002441406</ele>
        <time>2012-12-30T09:49:35Z</time>
      </trkpt>
      <trkpt lat="43.8622" lon="7.25821">
        <ele>839.59997558594</ele>
        <time>2012-12-30T09:49:37Z</time>
      </trkpt>
      <trkpt lat="43.86219" lon="7.25821">
        <ele>839.59997558594</ele>
        <time>2012-12-30T09:49:38Z</time>
      </trkpt>
      <trkpt lat="43.86218" lon="7.25821">
        <ele>839.79998779297</ele>
        <time>2012-12-30T09:49:39Z</time>
      </trkpt>
      <trkpt lat="43.86216" lon="7.25819">
        <ele>840</ele>
        <time>2012-12-30T09:49:42Z</time>
      </trkpt>
      <trkpt lat="43.86214" lon="7.25819">
        <ele>840.40002441406</ele>
        <time>2012-12-30T09:49:46Z</time>
      </trkpt>
      <trkpt lat="43.86213" lon="7.25818">
        <ele>840.59997558594</ele>
        <time>2012-12-30T09:49:57Z</time>
      </trkpt>
      <trkpt lat="43.86216" lon="7.25818">
        <ele>839.59997558594</ele>
        <time>2012-12-30T09:50:01Z</time>
      </trkpt>
      <trkpt lat="43.86218" lon="7.25818">
        <ele>839</ele>
        <time>2012-12-30T09:50:07Z</time>
      </trkpt>
      <trkpt lat="43.86219" lon="7.25818">
        <ele>838.59997558594</ele>
        <time>2012-12-30T09:50:12Z</time>
      </trkpt>
      <trkpt lat="43.86218" lon="7.2582">
        <ele>839.40002441406</ele>
        <time>2012-12-30T09:50:20Z</time>
      </trkpt>
      <trkpt lat="43.86218" lon="7.25823">
        <ele>840.59997558594</ele>
        <time>2012-12-30T09:50:24Z</time>
      </trkpt>
      <trkpt lat="43.86218" lon="7.25824">
        <ele>840.79998779297</ele>
        <time>2012-12-30T09:50:26Z</time>
      </trkpt>
      <trkpt lat="43.8622" lon="7.25825">
        <ele>841</ele>
        <time>2012-12-30T09:50:29Z</time>
      </trkpt>
      <trkpt lat="43.86221" lon="7.25826">
        <ele>840.79998779297</ele>
        <time>2012-12-30T09:50:30Z</time>
      </trkpt>
      <trkpt lat="43.86221" lon="7.25823">
        <ele>840</ele>
        <time>2012-12-30T09:50:34Z</time>
      </trkpt>
      <trkpt lat="43.86221" lon="7.25823">
        <ele>840</ele>
        <time>2012-12-30T09:50:35Z</time>
      </trkpt>
      <trkpt lat="43.86222" lon="7.25823">
        <ele>839.79998779297</ele>
        <time>2012-12-30T09:50:36Z</time>
      </trkpt>
      <trkpt lat="43.86223" lon="7.25824">
        <ele>839.59997558594</ele>
        <time>2012-12-30T09:50:42Z</time>
      </trkpt>
      <trkpt lat="43.86225" lon="7.25823">
        <ele>838.59997558594</ele>
        <time>2012-12-30T09:50:46Z</time>
      </trkpt>
      <trkpt lat="43.86224" lon="7.25822">
        <ele>838.59997558594</ele>
        <time>2012-12-30T09:50:47Z</time>
      </trkpt>
      <trkpt lat="43.86221" lon="7.2583">
        <ele>842.40002441406</ele>
        <time>2012-12-30T09:51:16Z</time>
      </trkpt>
      <trkpt lat="43.86219" lon="7.2583">
        <ele>842.79998779297</ele>
        <time>2012-12-30T09:51:30Z</time>
      </trkpt>
      <trkpt lat="43.86226" lon="7.25825">
        <ele>839.20001220703</ele>
        <time>2012-12-30T09:52:11Z</time>
      </trkpt>
      <trkpt lat="43.86227" lon="7.25825">
        <ele>839</ele>
        <time>2012-12-30T09:52:15Z</time>
      </trkpt>
      <trkpt lat="43.86224" lon="7.25824">
        <ele>839.40002441406</ele>
        <time>2012-12-30T09:52:22Z</time>
      </trkpt>
      <trkpt lat="43.86224" lon="7.25823">
        <ele>839.20001220703</ele>
        <time>2012-12-30T09:52:23Z</time>
      </trkpt>
      <trkpt lat="43.86224" lon="7.25824">
        <ele>839.40002441406</ele>
        <time>2012-12-30T09:52:28Z</time>
      </trkpt>
      <trkpt lat="43.86221" lon="7.25825">
        <ele>840.79998779297</ele>
        <time>2012-12-30T09:53:07Z</time>
      </trkpt>
      <trkpt lat="43.86221" lon="7.25825">
        <ele>840.79998779297</ele>
        <time>2012-12-30T09:53:08Z</time>
      </trkpt>
      <trkpt lat="43.86224" lon="7.25823">
        <ele>839.20001220703</ele>
        <time>2012-12-30T09:53:30Z</time>
      </trkpt>
      <trkpt lat="43.86224" lon="7.25824">
        <ele>839.40002441406</ele>
        <time>2012-12-30T09:53:49Z</time>
      </trkpt>
      <trkpt lat="43.86222" lon="7.25824">
        <ele>840</ele>
        <time>2012-12-30T09:54:04Z</time>
      </trkpt>
      <trkpt lat="43.86219" lon="7.25824">
        <ele>841</ele>
        <time>2012-12-30T09:54:10Z</time>
      </trkpt>
      <trkpt lat="43.86219" lon="7.25824">
        <ele>841</ele>
        <time>2012-12-30T09:54:11Z</time>
      </trkpt>
      <trkpt lat="43.86222" lon="7.25826">
        <ele>840.59997558594</ele>
        <time>2012-12-30T09:54:37Z</time>
      </trkpt>
      <trkpt lat="43.86225" lon="7.25822">
        <ele>838.40002441406</ele>
        <time>2012-12-30T09:54:53Z</time>
      </trkpt>
      <trkpt lat="43.86224" lon="7.25821">
        <ele>838</ele>
        <time>2012-12-30T09:55:08Z</time>
      </trkpt>
      <trkpt lat="43.86224" lon="7.25821">
        <ele>838</ele>
        <time>2012-12-30T09:55:09Z</time>
      </trkpt>
      <trkpt lat="43.86223" lon="7.25822">
        <ele>839</ele>
        <time>2012-12-30T09:55:12Z</time>
      </trkpt>
      <trkpt lat="43.86223" lon="7.25822">
        <ele>838.79998779297</ele>
        <time>2012-12-30T09:55:13Z</time>
      </trkpt>
      <trkpt lat="43.86223" lon="7.25822">
        <ele>839</ele>
        <time>2012-12-30T09:55:14Z</time>
      </trkpt>
      <trkpt lat="43.86223" lon="7.2582">
        <ele>838.20001220703</ele>
        <time>2012-12-30T09:55:20Z</time>
      </trkpt>
      <trkpt lat="43.86223" lon="7.2582">
        <ele>838</ele>
        <time>2012-12-30T09:55:23Z</time>
      </trkpt>
      <trkpt lat="43.86222" lon="7.25822">
        <ele>839.20001220703</ele>
        <time>2012-12-30T09:55:31Z</time>
      </trkpt>
      <trkpt lat="43.86221" lon="7.25822">
        <ele>839.40002441406</ele>
        <time>2012-12-30T09:55:37Z</time>
      </trkpt>
      <trkpt lat="43.86218" lon="7.25813">
        <ele>837</ele>
        <time>2012-12-30T09:55:44Z</time>
      </trkpt>
      <trkpt lat="43.86214" lon="7.25805">
        <ele>835.40002441406</ele>
        <time>2012-12-30T09:55:48Z</time>
      </trkpt>
      <trkpt lat="43.86214" lon="7.25805">
        <ele>835.59997558594</ele>
        <time>2012-12-30T09:55:49Z</time>
      </trkpt>
      <trkpt lat="43.86209" lon="7.25801">
        <ele>835.40002441406</ele>
        <time>2012-12-30T09:55:52Z</time>
      </trkpt>
      <trkpt lat="43.86206" lon="7.25798">
        <ele>835.20001220703</ele>
        <time>2012-12-30T09:55:53Z</time>
      </trkpt>
      <trkpt lat="43.86204" lon="7.25795">
        <ele>834.79998779297</ele>
        <time>2012-12-30T09:55:54Z</time>
      </trkpt>
      <trkpt lat="43.86198" lon="7.25786">
        <ele>833.59997558594</ele>
        <time>2012-12-30T09:55:56Z</time>
      </trkpt>
      <trkpt lat="43.86189" lon="7.25775">
        <ele>832.40002441406</ele>
        <time>2012-12-30T09:55:58Z</time>
      </trkpt>
      <trkpt lat="43.86175" lon="7.25753">
        <ele>829</ele>
        <time>2012-12-30T09:56:02Z</time>
      </trkpt>
      <trkpt lat="43.86172" lon="7.25745">
        <ele>827.59997558594</ele>
        <time>2012-12-30T09:56:03Z</time>
      </trkpt>
      <trkpt lat="43.8616" lon="7.25725">
        <ele>823.59997558594</ele>
        <time>2012-12-30T09:56:08Z</time>
      </trkpt>
      <trkpt lat="43.86155" lon="7.25716">
        <ele>821.20001220703</ele>
        <time>2012-12-30T09:56:10Z</time>
      </trkpt>
      <trkpt lat="43.86149" lon="7.2571">
        <ele>819.79998779297</ele>
        <time>2012-12-30T09:56:12Z</time>
      </trkpt>
      <trkpt lat="43.86133" lon="7.25702">
        <ele>819</ele>
        <time>2012-12-30T09:56:15Z</time>
      </trkpt>
      <trkpt lat="43.86127" lon="7.25701">
        <ele>819.40002441406</ele>
        <time>2012-12-30T09:56:16Z</time>
      </trkpt>
      <trkpt lat="43.86117" lon="7.25703">
        <ele>821.20001220703</ele>
        <time>2012-12-30T09:56:18Z</time>
      </trkpt>
      <trkpt lat="43.86106" lon="7.25692">
        <ele>818.79998779297</ele>
        <time>2012-12-30T09:56:21Z</time>
      </trkpt>
      <trkpt lat="43.861" lon="7.25683">
        <ele>816.59997558594</ele>
        <time>2012-12-30T09:56:23Z</time>
      </trkpt>
      <trkpt lat="43.86097" lon="7.2568">
        <ele>816</ele>
        <time>2012-12-30T09:56:24Z</time>
      </trkpt>
      <trkpt lat="43.8609" lon="7.25672">
        <ele>813.79998779297</ele>
        <time>2012-12-30T09:56:26Z</time>
      </trkpt>
      <trkpt lat="43.86077" lon="7.25655">
        <ele>808.59997558594</ele>
        <time>2012-12-30T09:56:30Z</time>
      </trkpt>
      <trkpt lat="43.86069" lon="7.25648">
        <ele>806.40002441406</ele>
        <time>2012-12-30T09:56:32Z</time>
      </trkpt>
      <trkpt lat="43.86065" lon="7.25647">
        <ele>806.59997558594</ele>
        <time>2012-12-30T09:56:33Z</time>
      </trkpt>
      <trkpt lat="43.86048" lon="7.25642">
        <ele>805.59997558594</ele>
        <time>2012-12-30T09:56:36Z</time>
      </trkpt>
      <trkpt lat="43.86043" lon="7.2564">
        <ele>805</ele>
        <time>2012-12-30T09:56:37Z</time>
      </trkpt>
      <trkpt lat="43.86036" lon="7.25637">
        <ele>804.79998779297</ele>
        <time>2012-12-30T09:56:39Z</time>
      </trkpt>
      <trkpt lat="43.8603" lon="7.25636">
        <ele>804.59997558594</ele>
        <time>2012-12-30T09:56:40Z</time>
      </trkpt>
      <trkpt lat="43.8601" lon="7.2563">
        <ele>804</ele>
        <time>2012-12-30T09:56:44Z</time>
      </trkpt>
      <trkpt lat="43.86007" lon="7.25627">
        <ele>803</ele>
        <time>2012-12-30T09:56:45Z</time>
      </trkpt>
      <trkpt lat="43.85986" lon="7.25616">
        <ele>802.20001220703</ele>
        <time>2012-12-30T09:56:49Z</time>
      </trkpt>
      <trkpt lat="43.85981" lon="7.2561">
        <ele>801.40002441406</ele>
        <time>2012-12-30T09:56:51Z</time>
      </trkpt>
      <trkpt lat="43.85979" lon="7.25603">
        <ele>799.40002441406</ele>
        <time>2012-12-30T09:56:52Z</time>
      </trkpt>
      <trkpt lat="43.85975" lon="7.25584">
        <ele>793.59997558594</ele>
        <time>2012-12-30T09:56:56Z</time>
      </trkpt>
      <trkpt lat="43.85968" lon="7.25579">
        <ele>794</ele>
        <time>2012-12-30T09:56:58Z</time>
      </trkpt>
      <trkpt lat="43.85963" lon="7.25575">
        <ele>794.40002441406</ele>
        <time>2012-12-30T09:56:59Z</time>
      </trkpt>
      <trkpt lat="43.85958" lon="7.25574">
        <ele>795.20001220703</ele>
        <time>2012-12-30T09:57:00Z</time>
      </trkpt>
      <trkpt lat="43.85946" lon="7.2557">
        <ele>797.20001220703</ele>
        <time>2012-12-30T09:57:03Z</time>
      </trkpt>
      <trkpt lat="43.85943" lon="7.2556">
        <ele>795.40002441406</ele>
        <time>2012-12-30T09:57:05Z</time>
      </trkpt>
      <trkpt lat="43.8594" lon="7.25546">
        <ele>792.59997558594</ele>
        <time>2012-12-30T09:57:07Z</time>
      </trkpt>
      <trkpt lat="43.85939" lon="7.25536">
        <ele>790.59997558594</ele>
        <time>2012-12-30T09:57:09Z</time>
      </trkpt>
      <trkpt lat="43.85931" lon="7.25525">
        <ele>790</ele>
        <time>2012-12-30T09:57:13Z</time>
      </trkpt>
      <trkpt lat="43.85926" lon="7.25517">
        <ele>789.40002441406</ele>
        <time>2012-12-30T09:57:17Z</time>
      </trkpt>
      <trkpt lat="43.85926" lon="7.25509">
        <ele>787.79998779297</ele>
        <time>2012-12-30T09:57:32Z</time>
      </trkpt>
      <trkpt lat="43.85927" lon="7.25509">
        <ele>787.40002441406</ele>
        <time>2012-12-30T09:57:58Z</time>
      </trkpt>
      <trkpt lat="43.85927" lon="7.25508">
        <ele>787.40002441406</ele>
        <time>2012-12-30T09:57:59Z</time>
      </trkpt>
      <trkpt lat="43.85926" lon="7.25508">
        <ele>787.40002441406</ele>
        <time>2012-12-30T09:58:00Z</time>
      </trkpt>
      <trkpt lat="43.85925" lon="7.2551">
        <ele>788</ele>
        <time>2012-12-30T09:58:02Z</time>
      </trkpt>
      <trkpt lat="43.85924" lon="7.25509">
        <ele>788.20001220703</ele>
        <time>2012-12-30T09:58:03Z</time>
      </trkpt>
      <trkpt lat="43.85923" lon="7.2551">
        <ele>788.59997558594</ele>
        <time>2012-12-30T09:58:04Z</time>
      </trkpt>
      <trkpt lat="43.85923" lon="7.2551">
        <ele>788.59997558594</ele>
        <time>2012-12-30T09:58:05Z</time>
      </trkpt>
      <trkpt lat="43.8592" lon="7.25514">
        <ele>790.40002441406</ele>
        <time>2012-12-30T09:58:17Z</time>
      </trkpt>
      <trkpt lat="43.8592" lon="7.25515">
        <ele>790.40002441406</ele>
        <time>2012-12-30T09:58:18Z</time>
      </trkpt>
      <trkpt lat="43.85917" lon="7.25511">
        <ele>790.20001220703</ele>
        <time>2012-12-30T09:58:22Z</time>
      </trkpt>
      <trkpt lat="43.85907" lon="7.25499">
        <ele>789.59997558594</ele>
        <time>2012-12-30T09:58:27Z</time>
      </trkpt>
      <trkpt lat="43.85897" lon="7.25488">
        <ele>788.40002441406</ele>
        <time>2012-12-30T09:58:32Z</time>
      </trkpt>
      <trkpt lat="43.85884" lon="7.25467">
        <ele>785.59997558594</ele>
        <time>2012-12-30T09:58:37Z</time>
      </trkpt>
      <trkpt lat="43.85875" lon="7.25455">
        <ele>784.79998779297</ele>
        <time>2012-12-30T09:58:41Z</time>
      </trkpt>
      <trkpt lat="43.85861" lon="7.25445">
        <ele>785.79998779297</ele>
        <time>2012-12-30T09:58:46Z</time>
      </trkpt>
      <trkpt lat="43.85857" lon="7.25437">
        <ele>784.79998779297</ele>
        <time>2012-12-30T09:58:50Z</time>
      </trkpt>
      <trkpt lat="43.85852" lon="7.25436">
        <ele>785.59997558594</ele>
        <time>2012-12-30T09:58:52Z</time>
      </trkpt>
      <trkpt lat="43.8585" lon="7.25434">
        <ele>785.59997558594</ele>
        <time>2012-12-30T09:58:53Z</time>
      </trkpt>
      <trkpt lat="43.85847" lon="7.25428">
        <ele>785</ele>
        <time>2012-12-30T09:58:55Z</time>
      </trkpt>
      <trkpt lat="43.85836" lon="7.2541">
        <ele>784.20001220703</ele>
        <time>2012-12-30T09:58:59Z</time>
      </trkpt>
      <trkpt lat="43.8583" lon="7.25408">
        <ele>784.40002441406</ele>
        <time>2012-12-30T09:59:01Z</time>
      </trkpt>
      <trkpt lat="43.85827" lon="7.25407">
        <ele>784.40002441406</ele>
        <time>2012-12-30T09:59:02Z</time>
      </trkpt>
      <trkpt lat="43.85825" lon="7.25406">
        <ele>784.40002441406</ele>
        <time>2012-12-30T09:59:03Z</time>
      </trkpt>
      <trkpt lat="43.85802" lon="7.254">
        <ele>784.20001220703</ele>
        <time>2012-12-30T09:59:10Z</time>
      </trkpt>
      <trkpt lat="43.8579" lon="7.25402">
        <ele>784.79998779297</ele>
        <time>2012-12-30T09:59:16Z</time>
      </trkpt>
      <trkpt lat="43.85781" lon="7.2541">
        <ele>785.79998779297</ele>
        <time>2012-12-30T09:59:23Z</time>
      </trkpt>
      <trkpt lat="43.8578" lon="7.25411">
        <ele>786</ele>
        <time>2012-12-30T09:59:24Z</time>
      </trkpt>
      <trkpt lat="43.85772" lon="7.25418">
        <ele>787</ele>
        <time>2012-12-30T09:59:28Z</time>
      </trkpt>
      <trkpt lat="43.85767" lon="7.25422">
        <ele>788</ele>
        <time>2012-12-30T09:59:30Z</time>
      </trkpt>
      <trkpt lat="43.85765" lon="7.25424">
        <ele>788.40002441406</ele>
        <time>2012-12-30T09:59:31Z</time>
      </trkpt>
      <trkpt lat="43.85757" lon="7.25427">
        <ele>789.20001220703</ele>
        <time>2012-12-30T09:59:35Z</time>
      </trkpt>
      <trkpt lat="43.85745" lon="7.25425">
        <ele>788.40002441406</ele>
        <time>2012-12-30T09:59:38Z</time>
      </trkpt>
      <trkpt lat="43.85742" lon="7.25421">
        <ele>787.40002441406</ele>
        <time>2012-12-30T09:59:39Z</time>
      </trkpt>
      <trkpt lat="43.85721" lon="7.25414">
        <ele>784.59997558594</ele>
        <time>2012-12-30T09:59:43Z</time>
      </trkpt>
      <trkpt lat="43.85685" lon="7.254">
        <ele>780.59997558594</ele>
        <time>2012-12-30T09:59:49Z</time>
      </trkpt>
      <trkpt lat="43.85666" lon="7.25401">
        <ele>779.20001220703</ele>
        <time>2012-12-30T09:59:52Z</time>
      </trkpt>
      <trkpt lat="43.85659" lon="7.25405">
        <ele>780</ele>
        <time>2012-12-30T09:59:54Z</time>
      </trkpt>
      <trkpt lat="43.85656" lon="7.25407">
        <ele>780.40002441406</ele>
        <time>2012-12-30T09:59:55Z</time>
      </trkpt>
      <trkpt lat="43.85654" lon="7.25406">
        <ele>780.40002441406</ele>
        <time>2012-12-30T09:59:56Z</time>
      </trkpt>
      <trkpt lat="43.85651" lon="7.25399">
        <ele>779.59997558594</ele>
        <time>2012-12-30T09:59:58Z</time>
      </trkpt>
      <trkpt lat="43.85635" lon="7.25395">
        <ele>779.59997558594</ele>
        <time>2012-12-30T10:00:02Z</time>
      </trkpt>
      <trkpt lat="43.85617" lon="7.25391">
        <ele>779.40002441406</ele>
        <time>2012-12-30T10:00:06Z</time>
      </trkpt>
      <trkpt lat="43.85611" lon="7.25392">
        <ele>779.59997558594</ele>
        <time>2012-12-30T10:00:10Z</time>
      </trkpt>
      <trkpt lat="43.85609" lon="7.25391">
        <ele>779.59997558594</ele>
        <time>2012-12-30T10:00:11Z</time>
      </trkpt>
      <trkpt lat="43.85608" lon="7.25389">
        <ele>779.20001220703</ele>
        <time>2012-12-30T10:00:12Z</time>
      </trkpt>
      <trkpt lat="43.85601" lon="7.25383">
        <ele>777.79998779297</ele>
        <time>2012-12-30T10:00:15Z</time>
      </trkpt>
      <trkpt lat="43.85586" lon="7.25378">
        <ele>776.40002441406</ele>
        <time>2012-12-30T10:00:18Z</time>
      </trkpt>
      <trkpt lat="43.85571" lon="7.25381">
        <ele>777.59997558594</ele>
        <time>2012-12-30T10:00:21Z</time>
      </trkpt>
      <trkpt lat="43.85566" lon="7.25374">
        <ele>775.79998779297</ele>
        <time>2012-12-30T10:00:23Z</time>
      </trkpt>
      <trkpt lat="43.85562" lon="7.25372">
        <ele>775.20001220703</ele>
        <time>2012-12-30T10:00:24Z</time>
      </trkpt>
      <trkpt lat="43.8554" lon="7.25364">
        <ele>773.40002441406</ele>
        <time>2012-12-30T10:00:28Z</time>
      </trkpt>
      <trkpt lat="43.85535" lon="7.25364">
        <ele>773.40002441406</ele>
        <time>2012-12-30T10:00:29Z</time>
      </trkpt>
      <trkpt lat="43.85527" lon="7.25366">
        <ele>774.40002441406</ele>
        <time>2012-12-30T10:00:31Z</time>
      </trkpt>
      <trkpt lat="43.85523" lon="7.25365">
        <ele>774</ele>
        <time>2012-12-30T10:00:32Z</time>
      </trkpt>
      <trkpt lat="43.85514" lon="7.25353">
        <ele>770</ele>
        <time>2012-12-30T10:00:35Z</time>
      </trkpt>
      <trkpt lat="43.85494" lon="7.25346">
        <ele>768</ele>
        <time>2012-12-30T10:00:39Z</time>
      </trkpt>
      <trkpt lat="43.85489" lon="7.25344">
        <ele>767.20001220703</ele>
        <time>2012-12-30T10:00:40Z</time>
      </trkpt>
      <trkpt lat="43.85482" lon="7.25344">
        <ele>767.59997558594</ele>
        <time>2012-12-30T10:00:42Z</time>
      </trkpt>
      <trkpt lat="43.85477" lon="7.25347">
        <ele>769</ele>
        <time>2012-12-30T10:00:43Z</time>
      </trkpt>
      <trkpt lat="43.85464" lon="7.2534">
        <ele>766.79998779297</ele>
        <time>2012-12-30T10:00:47Z</time>
      </trkpt>
      <trkpt lat="43.85463" lon="7.25335">
        <ele>765</ele>
        <time>2012-12-30T10:00:48Z</time>
      </trkpt>
      <trkpt lat="43.8546" lon="7.25332">
        <ele>763.79998779297</ele>
        <time>2012-12-30T10:00:49Z</time>
      </trkpt>
      <trkpt lat="43.85452" lon="7.25331">
        <ele>763.79998779297</ele>
        <time>2012-12-30T10:00:51Z</time>
      </trkpt>
      <trkpt lat="43.85439" lon="7.25332">
        <ele>764.79998779297</ele>
        <time>2012-12-30T10:00:54Z</time>
      </trkpt>
      <trkpt lat="43.85434" lon="7.25333">
        <ele>765.20001220703</ele>
        <time>2012-12-30T10:00:55Z</time>
      </trkpt>
      <trkpt lat="43.85429" lon="7.25334">
        <ele>765.79998779297</ele>
        <time>2012-12-30T10:00:56Z</time>
      </trkpt>
      <trkpt lat="43.85424" lon="7.25335">
        <ele>766.20001220703</ele>
        <time>2012-12-30T10:00:57Z</time>
      </trkpt>
      <trkpt lat="43.85409" lon="7.25325">
        <ele>762.59997558594</ele>
        <time>2012-12-30T10:01:00Z</time>
      </trkpt>
      <trkpt lat="43.85402" lon="7.25323">
        <ele>761.40002441406</ele>
        <time>2012-12-30T10:01:01Z</time>
      </trkpt>
      <trkpt lat="43.85388" lon="7.25318">
        <ele>759.59997558594</ele>
        <time>2012-12-30T10:01:03Z</time>
      </trkpt>
      <trkpt lat="43.85381" lon="7.25316">
        <ele>758.79998779297</ele>
        <time>2012-12-30T10:01:04Z</time>
      </trkpt>
      <trkpt lat="43.85373" lon="7.25314">
        <ele>757.59997558594</ele>
        <time>2012-12-30T10:01:05Z</time>
      </trkpt>
      <trkpt lat="43.8535" lon="7.25308">
        <ele>755.20001220703</ele>
        <time>2012-12-30T10:01:08Z</time>
      </trkpt>
      <trkpt lat="43.85342" lon="7.25307">
        <ele>754.59997558594</ele>
        <time>2012-12-30T10:01:09Z</time>
      </trkpt>
      <trkpt lat="43.85319" lon="7.25306">
        <ele>752.40002441406</ele>
        <time>2012-12-30T10:01:12Z</time>
      </trkpt>
      <trkpt lat="43.85312" lon="7.2531">
        <ele>752.59997558594</ele>
        <time>2012-12-30T10:01:13Z</time>
      </trkpt>
      <trkpt lat="43.85272" lon="7.25322">
        <ele>750.59997558594</ele>
        <time>2012-12-30T10:01:18Z</time>
      </trkpt>
      <trkpt lat="43.85256" lon="7.25326">
        <ele>749.20001220703</ele>
        <time>2012-12-30T10:01:20Z</time>
      </trkpt>
      <trkpt lat="43.85231" lon="7.25332">
        <ele>747.40002441406</ele>
        <time>2012-12-30T10:01:23Z</time>
      </trkpt>
      <trkpt lat="43.85223" lon="7.25336">
        <ele>747</ele>
        <time>2012-12-30T10:01:24Z</time>
      </trkpt>
      <trkpt lat="43.85217" lon="7.25339">
        <ele>746.40002441406</ele>
        <time>2012-12-30T10:01:25Z</time>
      </trkpt>
      <trkpt lat="43.85206" lon="7.25342">
        <ele>745</ele>
        <time>2012-12-30T10:01:27Z</time>
      </trkpt>
      <trkpt lat="43.8519" lon="7.25338">
        <ele>742.59997558594</ele>
        <time>2012-12-30T10:01:30Z</time>
      </trkpt>
      <trkpt lat="43.85186" lon="7.25336">
        <ele>742.20001220703</ele>
        <time>2012-12-30T10:01:31Z</time>
      </trkpt>
      <trkpt lat="43.85184" lon="7.25328">
        <ele>741.20001220703</ele>
        <time>2012-12-30T10:01:34Z</time>
      </trkpt>
      <trkpt lat="43.85184" lon="7.25327">
        <ele>741</ele>
        <time>2012-12-30T10:01:35Z</time>
      </trkpt>
      <trkpt lat="43.85185" lon="7.25326">
        <ele>740.79998779297</ele>
        <time>2012-12-30T10:01:36Z</time>
      </trkpt>
      <trkpt lat="43.85184" lon="7.25326">
        <ele>740.59997558594</ele>
        <time>2012-12-30T10:01:37Z</time>
      </trkpt>
      <trkpt lat="43.85185" lon="7.25324">
        <ele>740.59997558594</ele>
        <time>2012-12-30T10:01:39Z</time>
      </trkpt>
      <trkpt lat="43.85186" lon="7.25322">
        <ele>740.20001220703</ele>
        <time>2012-12-30T10:01:41Z</time>
      </trkpt>
      <trkpt lat="43.85186" lon="7.2532">
        <ele>740</ele>
        <time>2012-12-30T10:01:43Z</time>
      </trkpt>
      <trkpt lat="43.85185" lon="7.2532">
        <ele>739.79998779297</ele>
        <time>2012-12-30T10:01:44Z</time>
      </trkpt>
      <trkpt lat="43.85185" lon="7.2532">
        <ele>739.59997558594</ele>
        <time>2012-12-30T10:01:49Z</time>
      </trkpt>
      <trkpt lat="43.85184" lon="7.2532">
        <ele>739.59997558594</ele>
        <time>2012-12-30T10:01:50Z</time>
      </trkpt>
      <trkpt lat="43.85184" lon="7.25318">
        <ele>739.40002441406</ele>
        <time>2012-12-30T10:01:56Z</time>
      </trkpt>
      <trkpt lat="43.85183" lon="7.25319">
        <ele>739.20001220703</ele>
        <time>2012-12-30T10:02:25Z</time>
      </trkpt>
      <trkpt lat="43.85183" lon="7.25319">
        <ele>739.40002441406</ele>
        <time>2012-12-30T10:02:31Z</time>
      </trkpt>
      <trkpt lat="43.85183" lon="7.2532">
        <ele>739.59997558594</ele>
        <time>2012-12-30T10:02:34Z</time>
      </trkpt>
      <trkpt lat="43.85184" lon="7.25319">
        <ele>739.40002441406</ele>
        <time>2012-12-30T10:02:40Z</time>
      </trkpt>
      <trkpt lat="43.85184" lon="7.25318">
        <ele>739.40002441406</ele>
        <time>2012-12-30T10:02:50Z</time>
      </trkpt>
      <trkpt lat="43.85183" lon="7.25318">
        <ele>739.20001220703</ele>
        <time>2012-12-30T10:02:52Z</time>
      </trkpt>
      <trkpt lat="43.85184" lon="7.25318">
        <ele>739.20001220703</ele>
        <time>2012-12-30T10:03:06Z</time>
      </trkpt>
      <trkpt lat="43.85185" lon="7.25319">
        <ele>739.59997558594</ele>
        <time>2012-12-30T10:03:12Z</time>
      </trkpt>
      <trkpt lat="43.85184" lon="7.25319">
        <ele>739.40002441406</ele>
        <time>2012-12-30T10:03:28Z</time>
      </trkpt>
      <trkpt lat="43.85185" lon="7.25318">
        <ele>739.59997558594</ele>
        <time>2012-12-30T10:03:32Z</time>
      </trkpt>
      <trkpt lat="43.85182" lon="7.25315">
        <ele>738.59997558594</ele>
        <time>2012-12-30T10:03:40Z</time>
      </trkpt>
      <trkpt lat="43.85178" lon="7.2531">
        <ele>737.40002441406</ele>
        <time>2012-12-30T10:03:49Z</time>
      </trkpt>
      <trkpt lat="43.85175" lon="7.25308">
        <ele>736.59997558594</ele>
        <time>2012-12-30T10:03:54Z</time>
      </trkpt>
      <trkpt lat="43.8517" lon="7.25305">
        <ele>735.59997558594</ele>
        <time>2012-12-30T10:04:05Z</time>
      </trkpt>
      <trkpt lat="43.85168" lon="7.25304">
        <ele>735.40002441406</ele>
        <time>2012-12-30T10:04:06Z</time>
      </trkpt>
      <trkpt lat="43.85166" lon="7.25303">
        <ele>735.20001220703</ele>
        <time>2012-12-30T10:04:07Z</time>
      </trkpt>
      <trkpt lat="43.85151" lon="7.2529">
        <ele>734</ele>
        <time>2012-12-30T10:04:12Z</time>
      </trkpt>
      <trkpt lat="43.85139" lon="7.25272">
        <ele>731</ele>
        <time>2012-12-30T10:04:16Z</time>
      </trkpt>
      <trkpt lat="43.85123" lon="7.25256">
        <ele>728.20001220703</ele>
        <time>2012-12-30T10:04:20Z</time>
      </trkpt>
      <trkpt lat="43.85108" lon="7.2525">
        <ele>726.79998779297</ele>
        <time>2012-12-30T10:04:24Z</time>
      </trkpt>
      <trkpt lat="43.85103" lon="7.25249">
        <ele>726.59997558594</ele>
        <time>2012-12-30T10:04:25Z</time>
      </trkpt>
      <trkpt lat="43.85094" lon="7.25241">
        <ele>724.40002441406</ele>
        <time>2012-12-30T10:04:28Z</time>
      </trkpt>
      <trkpt lat="43.8509" lon="7.25239">
        <ele>724</ele>
        <time>2012-12-30T10:04:29Z</time>
      </trkpt>
      <trkpt lat="43.85077" lon="7.25233">
        <ele>721.79998779297</ele>
        <time>2012-12-30T10:04:32Z</time>
      </trkpt>
      <trkpt lat="43.85074" lon="7.25229">
        <ele>720.79998779297</ele>
        <time>2012-12-30T10:04:33Z</time>
      </trkpt>
      <trkpt lat="43.85062" lon="7.25218">
        <ele>717</ele>
        <time>2012-12-30T10:04:36Z</time>
      </trkpt>
      <trkpt lat="43.85055" lon="7.25213">
        <ele>715.20001220703</ele>
        <time>2012-12-30T10:04:38Z</time>
      </trkpt>
      <trkpt lat="43.85047" lon="7.25218">
        <ele>716.20001220703</ele>
        <time>2012-12-30T10:04:40Z</time>
      </trkpt>
      <trkpt lat="43.85039" lon="7.25215">
        <ele>715</ele>
        <time>2012-12-30T10:04:43Z</time>
      </trkpt>
      <trkpt lat="43.85035" lon="7.25216">
        <ele>715</ele>
        <time>2012-12-30T10:04:44Z</time>
      </trkpt>
      <trkpt lat="43.85032" lon="7.25214">
        <ele>714.40002441406</ele>
        <time>2012-12-30T10:04:45Z</time>
      </trkpt>
      <trkpt lat="43.85029" lon="7.25211">
        <ele>713</ele>
        <time>2012-12-30T10:04:46Z</time>
      </trkpt>
      <trkpt lat="43.85025" lon="7.25209">
        <ele>712.40002441406</ele>
        <time>2012-12-30T10:04:47Z</time>
      </trkpt>
      <trkpt lat="43.85019" lon="7.25208">
        <ele>711.59997558594</ele>
        <time>2012-12-30T10:04:48Z</time>
      </trkpt>
      <trkpt lat="43.85014" lon="7.25205">
        <ele>710.40002441406</ele>
        <time>2012-12-30T10:04:49Z</time>
      </trkpt>
      <trkpt lat="43.8501" lon="7.25203">
        <ele>709.40002441406</ele>
        <time>2012-12-30T10:04:50Z</time>
      </trkpt>
      <trkpt lat="43.85005" lon="7.25203">
        <ele>709</ele>
        <time>2012-12-30T10:04:51Z</time>
      </trkpt>
      <trkpt lat="43.84981" lon="7.25199">
        <ele>708.79998779297</ele>
        <time>2012-12-30T10:04:56Z</time>
      </trkpt>
      <trkpt lat="43.84976" lon="7.25198">
        <ele>708.79998779297</ele>
        <time>2012-12-30T10:04:57Z</time>
      </trkpt>
      <trkpt lat="43.84968" lon="7.2519">
        <ele>706.59997558594</ele>
        <time>2012-12-30T10:05:00Z</time>
      </trkpt>
      <trkpt lat="43.84966" lon="7.2519">
        <ele>706.79998779297</ele>
        <time>2012-12-30T10:05:01Z</time>
      </trkpt>
      <trkpt lat="43.84963" lon="7.25189">
        <ele>706.79998779297</ele>
        <time>2012-12-30T10:05:02Z</time>
      </trkpt>
      <trkpt lat="43.84962" lon="7.25188">
        <ele>706.59997558594</ele>
        <time>2012-12-30T10:05:04Z</time>
      </trkpt>
      <trkpt lat="43.84956" lon="7.25185">
        <ele>705.79998779297</ele>
        <time>2012-12-30T10:05:11Z</time>
      </trkpt>
      <trkpt lat="43.84945" lon="7.25183">
        <ele>706.20001220703</ele>
        <time>2012-12-30T10:05:16Z</time>
      </trkpt>
      <trkpt lat="43.84929" lon="7.25181">
        <ele>706.59997558594</ele>
        <time>2012-12-30T10:05:21Z</time>
      </trkpt>
      <trkpt lat="43.84916" lon="7.25176">
        <ele>706</ele>
        <time>2012-12-30T10:05:26Z</time>
      </trkpt>
      <trkpt lat="43.84906" lon="7.25171">
        <ele>703.59997558594</ele>
        <time>2012-12-30T10:05:30Z</time>
      </trkpt>
      <trkpt lat="43.84898" lon="7.2516">
        <ele>699.20001220703</ele>
        <time>2012-12-30T10:05:33Z</time>
      </trkpt>
      <trkpt lat="43.84895" lon="7.25158">
        <ele>698.40002441406</ele>
        <time>2012-12-30T10:05:34Z</time>
      </trkpt>
      <trkpt lat="43.84889" lon="7.25153">
        <ele>696.59997558594</ele>
        <time>2012-12-30T10:05:36Z</time>
      </trkpt>
      <trkpt lat="43.84887" lon="7.25149">
        <ele>695.40002441406</ele>
        <time>2012-12-30T10:05:37Z</time>
      </trkpt>
      <trkpt lat="43.84887" lon="7.25144">
        <ele>693.79998779297</ele>
        <time>2012-12-30T10:05:38Z</time>
      </trkpt>
      <trkpt lat="43.84883" lon="7.25135">
        <ele>690.79998779297</ele>
        <time>2012-12-30T10:05:40Z</time>
      </trkpt>
      <trkpt lat="43.84874" lon="7.25118">
        <ele>685.59997558594</ele>
        <time>2012-12-30T10:05:44Z</time>
      </trkpt>
      <trkpt lat="43.84871" lon="7.25111">
        <ele>683.59997558594</ele>
        <time>2012-12-30T10:05:46Z</time>
      </trkpt>
      <trkpt lat="43.84871" lon="7.25108">
        <ele>682.59997558594</ele>
        <time>2012-12-30T10:05:47Z</time>
      </trkpt>
      <trkpt lat="43.84862" lon="7.25092">
        <ele>678.20001220703</ele>
        <time>2012-12-30T10:05:51Z</time>
      </trkpt>
      <trkpt lat="43.84854" lon="7.25086">
        <ele>676.59997558594</ele>
        <time>2012-12-30T10:05:53Z</time>
      </trkpt>
      <trkpt lat="43.84848" lon="7.25086">
        <ele>676.59997558594</ele>
        <time>2012-12-30T10:05:55Z</time>
      </trkpt>
      <trkpt lat="43.84842" lon="7.25086">
        <ele>676.59997558594</ele>
        <time>2012-12-30T10:05:59Z</time>
      </trkpt>
      <trkpt lat="43.84836" lon="7.25086">
        <ele>676.59997558594</ele>
        <time>2012-12-30T10:06:06Z</time>
      </trkpt>
      <trkpt lat="43.84826" lon="7.25083">
        <ele>675</ele>
        <time>2012-12-30T10:06:11Z</time>
      </trkpt>
      <trkpt lat="43.8481" lon="7.25075">
        <ele>671.40002441406</ele>
        <time>2012-12-30T10:06:15Z</time>
      </trkpt>
      <trkpt lat="43.84801" lon="7.2507">
        <ele>669.40002441406</ele>
        <time>2012-12-30T10:06:17Z</time>
      </trkpt>
      <trkpt lat="43.84792" lon="7.25063">
        <ele>667.40002441406</ele>
        <time>2012-12-30T10:06:20Z</time>
      </trkpt>
      <trkpt lat="43.8479" lon="7.25058">
        <ele>666.40002441406</ele>
        <time>2012-12-30T10:06:21Z</time>
      </trkpt>
      <trkpt lat="43.84787" lon="7.25053">
        <ele>665.40002441406</ele>
        <time>2012-12-30T10:06:23Z</time>
      </trkpt>
      <trkpt lat="43.84786" lon="7.25053">
        <ele>665.20001220703</ele>
        <time>2012-12-30T10:06:25Z</time>
      </trkpt>
      <trkpt lat="43.84786" lon="7.25053">
        <ele>665.20001220703</ele>
        <time>2012-12-30T10:06:27Z</time>
      </trkpt>
      <trkpt lat="43.84786" lon="7.25053">
        <ele>665.40002441406</ele>
        <time>2012-12-30T10:06:30Z</time>
      </trkpt>
      <trkpt lat="43.84785" lon="7.25053">
        <ele>665.20001220703</ele>
        <time>2012-12-30T10:06:57Z</time>
      </trkpt>
      <trkpt lat="43.84785" lon="7.25053">
        <ele>665.20001220703</ele>
        <time>2012-12-30T10:07:00Z</time>
      </trkpt>
      <trkpt lat="43.84785" lon="7.25053">
        <ele>665.20001220703</ele>
        <time>2012-12-30T10:07:03Z</time>
      </trkpt>
      <trkpt lat="43.84784" lon="7.25053">
        <ele>665.20001220703</ele>
        <time>2012-12-30T10:07:07Z</time>
      </trkpt>
      <trkpt lat="43.84784" lon="7.25054">
        <ele>665.40002441406</ele>
        <time>2012-12-30T10:07:10Z</time>
      </trkpt>
      <trkpt lat="43.84784" lon="7.25054">
        <ele>665.40002441406</ele>
        <time>2012-12-30T10:07:14Z</time>
      </trkpt>
      <trkpt lat="43.84784" lon="7.25052">
        <ele>665</ele>
        <time>2012-12-30T10:07:25Z</time>
      </trkpt>
      <trkpt lat="43.84784" lon="7.25051">
        <ele>664.79998779297</ele>
        <time>2012-12-30T10:07:32Z</time>
      </trkpt>
      <trkpt lat="43.84784" lon="7.25051">
        <ele>665</ele>
        <time>2012-12-30T10:07:38Z</time>
      </trkpt>
      <trkpt lat="43.84785" lon="7.25053">
        <ele>665.20001220703</ele>
        <time>2012-12-30T10:08:01Z</time>
      </trkpt>
      <trkpt lat="43.84785" lon="7.25053">
        <ele>665.20001220703</ele>
        <time>2012-12-30T10:08:03Z</time>
      </trkpt>
      <trkpt lat="43.84785" lon="7.25053">
        <ele>665.20001220703</ele>
        <time>2012-12-30T10:08:06Z</time>
      </trkpt>
      <trkpt lat="43.84784" lon="7.25055">
        <ele>665.59997558594</ele>
        <time>2012-12-30T10:08:17Z</time>
      </trkpt>
      <trkpt lat="43.84785" lon="7.2506">
        <ele>666.40002441406</ele>
        <time>2012-12-30T10:08:20Z</time>
      </trkpt>
      <trkpt lat="43.84786" lon="7.25072">
        <ele>668.40002441406</ele>
        <time>2012-12-30T10:08:26Z</time>
      </trkpt>
      <trkpt lat="43.84784" lon="7.25079">
        <ele>669.20001220703</ele>
        <time>2012-12-30T10:08:29Z</time>
      </trkpt>
      <trkpt lat="43.84783" lon="7.25084">
        <ele>670</ele>
        <time>2012-12-30T10:08:31Z</time>
      </trkpt>
      <trkpt lat="43.84776" lon="7.251">
        <ele>672.20001220703</ele>
        <time>2012-12-30T10:08:38Z</time>
      </trkpt>
      <trkpt lat="43.8477" lon="7.25107">
        <ele>672.59997558594</ele>
        <time>2012-12-30T10:08:44Z</time>
      </trkpt>
      <trkpt lat="43.84769" lon="7.25107">
        <ele>672.59997558594</ele>
        <time>2012-12-30T10:08:45Z</time>
      </trkpt>
      <trkpt lat="43.84766" lon="7.2511">
        <ele>672.59997558594</ele>
        <time>2012-12-30T10:08:48Z</time>
      </trkpt>
      <trkpt lat="43.84761" lon="7.25116">
        <ele>673.20001220703</ele>
        <time>2012-12-30T10:08:52Z</time>
      </trkpt>
      <trkpt lat="43.84755" lon="7.25126">
        <ele>674</ele>
        <time>2012-12-30T10:08:57Z</time>
      </trkpt>
      <trkpt lat="43.84753" lon="7.2513">
        <ele>674.20001220703</ele>
        <time>2012-12-30T10:08:59Z</time>
      </trkpt>
      <trkpt lat="43.84752" lon="7.25134">
        <ele>674.79998779297</ele>
        <time>2012-12-30T10:09:01Z</time>
      </trkpt>
      <trkpt lat="43.8475" lon="7.25145">
        <ele>676.20001220703</ele>
        <time>2012-12-30T10:09:06Z</time>
      </trkpt>
      <trkpt lat="43.84748" lon="7.25154">
        <ele>677.59997558594</ele>
        <time>2012-12-30T10:09:10Z</time>
      </trkpt>
      <trkpt lat="43.84748" lon="7.25162">
        <ele>678.79998779297</ele>
        <time>2012-12-30T10:09:13Z</time>
      </trkpt>
      <trkpt lat="43.84747" lon="7.25176">
        <ele>681.40002441406</ele>
        <time>2012-12-30T10:09:20Z</time>
      </trkpt>
      <trkpt lat="43.84743" lon="7.25184">
        <ele>682.79998779297</ele>
        <time>2012-12-30T10:09:25Z</time>
      </trkpt>
      <trkpt lat="43.84741" lon="7.25188">
        <ele>683.20001220703</ele>
        <time>2012-12-30T10:09:27Z</time>
      </trkpt>
      <trkpt lat="43.84736" lon="7.25199">
        <ele>685</ele>
        <time>2012-12-30T10:09:33Z</time>
      </trkpt>
      <trkpt lat="43.84734" lon="7.25203">
        <ele>685.59997558594</ele>
        <time>2012-12-30T10:09:36Z</time>
      </trkpt>
      <trkpt lat="43.8473" lon="7.2521">
        <ele>686.79998779297</ele>
        <time>2012-12-30T10:09:41Z</time>
      </trkpt>
      <trkpt lat="43.84725" lon="7.25214">
        <ele>687.20001220703</ele>
        <time>2012-12-30T10:09:45Z</time>
      </trkpt>
      <trkpt lat="43.84721" lon="7.25216">
        <ele>687</ele>
        <time>2012-12-30T10:09:48Z</time>
      </trkpt>
      <trkpt lat="43.8472" lon="7.25216">
        <ele>687</ele>
        <time>2012-12-30T10:09:49Z</time>
      </trkpt>
      <trkpt lat="43.84719" lon="7.25216">
        <ele>686.79998779297</ele>
        <time>2012-12-30T10:09:50Z</time>
      </trkpt>
      <trkpt lat="43.84711" lon="7.2522">
        <ele>686.79998779297</ele>
        <time>2012-12-30T10:09:56Z</time>
      </trkpt>
      <trkpt lat="43.84709" lon="7.25221">
        <ele>686.79998779297</ele>
        <time>2012-12-30T10:09:58Z</time>
      </trkpt>
      <trkpt lat="43.84709" lon="7.25222">
        <ele>687</ele>
        <time>2012-12-30T10:09:59Z</time>
      </trkpt>
      <trkpt lat="43.84703" lon="7.25225">
        <ele>687</ele>
        <time>2012-12-30T10:10:04Z</time>
      </trkpt>
      <trkpt lat="43.84696" lon="7.25229">
        <ele>687.20001220703</ele>
        <time>2012-12-30T10:10:11Z</time>
      </trkpt>
      <trkpt lat="43.84694" lon="7.2523">
        <ele>687.40002441406</ele>
        <time>2012-12-30T10:10:14Z</time>
      </trkpt>
      <trkpt lat="43.84693" lon="7.25232">
        <ele>687.59997558594</ele>
        <time>2012-12-30T10:10:15Z</time>
      </trkpt>
      <trkpt lat="43.84693" lon="7.25233">
        <ele>687.79998779297</ele>
        <time>2012-12-30T10:10:16Z</time>
      </trkpt>
      <trkpt lat="43.84693" lon="7.25235">
        <ele>688.20001220703</ele>
        <time>2012-12-30T10:10:17Z</time>
      </trkpt>
      <trkpt lat="43.84693" lon="7.25237">
        <ele>688.59997558594</ele>
        <time>2012-12-30T10:10:18Z</time>
      </trkpt>
      <trkpt lat="43.84694" lon="7.2524">
        <ele>689.20001220703</ele>
        <time>2012-12-30T10:10:20Z</time>
      </trkpt>
      <trkpt lat="43.84693" lon="7.2524">
        <ele>689.40002441406</ele>
        <time>2012-12-30T10:10:22Z</time>
      </trkpt>
      <trkpt lat="43.84693" lon="7.25246">
        <ele>690.40002441406</ele>
        <time>2012-12-30T10:10:29Z</time>
      </trkpt>
      <trkpt lat="43.84694" lon="7.25255">
        <ele>690.59997558594</ele>
        <time>2012-12-30T10:10:38Z</time>
      </trkpt>
      <trkpt lat="43.84695" lon="7.25262">
        <ele>689.20001220703</ele>
        <time>2012-12-30T10:10:45Z</time>
      </trkpt>
      <trkpt lat="43.84696" lon="7.25264">
        <ele>689</ele>
        <time>2012-12-30T10:10:47Z</time>
      </trkpt>
      <trkpt lat="43.84696" lon="7.25265">
        <ele>689</ele>
        <time>2012-12-30T10:10:48Z</time>
      </trkpt>
      <trkpt lat="43.84701" lon="7.25273">
        <ele>688</ele>
        <time>2012-12-30T10:10:57Z</time>
      </trkpt>
      <trkpt lat="43.84707" lon="7.25278">
        <ele>687.59997558594</ele>
        <time>2012-12-30T10:11:05Z</time>
      </trkpt>
      <trkpt lat="43.8471" lon="7.2528">
        <ele>687.59997558594</ele>
        <time>2012-12-30T10:11:13Z</time>
      </trkpt>
      <trkpt lat="43.84707" lon="7.25277">
        <ele>688</ele>
        <time>2012-12-30T10:11:44Z</time>
      </trkpt>
      <trkpt lat="43.84707" lon="7.25277">
        <ele>688</ele>
        <time>2012-12-30T10:11:48Z</time>
      </trkpt>
      <trkpt lat="43.84707" lon="7.25277">
        <ele>688</ele>
        <time>2012-12-30T10:11:49Z</time>
      </trkpt>
      <trkpt lat="43.84707" lon="7.25277">
        <ele>687.79998779297</ele>
        <time>2012-12-30T10:11:51Z</time>
      </trkpt>
      <trkpt lat="43.84708" lon="7.25277">
        <ele>688</ele>
        <time>2012-12-30T10:11:54Z</time>
      </trkpt>
      <trkpt lat="43.84709" lon="7.25274">
        <ele>688.59997558594</ele>
        <time>2012-12-30T10:12:06Z</time>
      </trkpt>
      <trkpt lat="43.84708" lon="7.25275">
        <ele>688.40002441406</ele>
        <time>2012-12-30T10:12:09Z</time>
      </trkpt>
      <trkpt lat="43.84706" lon="7.25273">
        <ele>688.40002441406</ele>
        <time>2012-12-30T10:12:19Z</time>
      </trkpt>
      <trkpt lat="43.84706" lon="7.25274">
        <ele>688.40002441406</ele>
        <time>2012-12-30T10:12:21Z</time>
      </trkpt>
      <trkpt lat="43.84706" lon="7.25273">
        <ele>688.59997558594</ele>
        <time>2012-12-30T10:12:22Z</time>
      </trkpt>
      <trkpt lat="43.84706" lon="7.25272">
        <ele>688.59997558594</ele>
        <time>2012-12-30T10:12:28Z</time>
      </trkpt>
      <trkpt lat="43.84709" lon="7.25274">
        <ele>688.59997558594</ele>
        <time>2012-12-30T10:12:32Z</time>
      </trkpt>
      <trkpt lat="43.84718" lon="7.25281">
        <ele>688.79998779297</ele>
        <time>2012-12-30T10:12:37Z</time>
      </trkpt>
      <trkpt lat="43.84735" lon="7.25294">
        <ele>688.79998779297</ele>
        <time>2012-12-30T10:12:44Z</time>
      </trkpt>
      <trkpt lat="43.84757" lon="7.25311">
        <ele>691</ele>
        <time>2012-12-30T10:12:50Z</time>
      </trkpt>
      <trkpt lat="43.84783" lon="7.2533">
        <ele>695.79998779297</ele>
        <time>2012-12-30T10:12:56Z</time>
      </trkpt>
      <trkpt lat="43.84793" lon="7.25339">
        <ele>695.79998779297</ele>
        <time>2012-12-30T10:12:58Z</time>
      </trkpt>
      <trkpt lat="43.84805" lon="7.25349">
        <ele>695.20001220703</ele>
        <time>2012-12-30T10:13:00Z</time>
      </trkpt>
      <trkpt lat="43.84811" lon="7.25354">
        <ele>694.79998779297</ele>
        <time>2012-12-30T10:13:01Z</time>
      </trkpt>
      <trkpt lat="43.84827" lon="7.25367">
        <ele>694</ele>
        <time>2012-12-30T10:13:04Z</time>
      </trkpt>
      <trkpt lat="43.8483" lon="7.25369">
        <ele>693.79998779297</ele>
        <time>2012-12-30T10:13:05Z</time>
      </trkpt>
      <trkpt lat="43.84848" lon="7.25388">
        <ele>690.40002441406</ele>
        <time>2012-12-30T10:13:11Z</time>
      </trkpt>
      <trkpt lat="43.84851" lon="7.25391">
        <ele>689.79998779297</ele>
        <time>2012-12-30T10:13:12Z</time>
      </trkpt>
      <trkpt lat="43.84875" lon="7.25413">
        <ele>687</ele>
        <time>2012-12-30T10:13:18Z</time>
      </trkpt>
      <trkpt lat="43.84883" lon="7.2542">
        <ele>686.20001220703</ele>
        <time>2012-12-30T10:13:20Z</time>
      </trkpt>
      <trkpt lat="43.84898" lon="7.25431">
        <ele>684.79998779297</ele>
        <time>2012-12-30T10:13:23Z</time>
      </trkpt>
      <trkpt lat="43.84919" lon="7.25442">
        <ele>684.79998779297</ele>
        <time>2012-12-30T10:13:27Z</time>
      </trkpt>
      <trkpt lat="43.84929" lon="7.25446">
        <ele>685.40002441406</ele>
        <time>2012-12-30T10:13:29Z</time>
      </trkpt>
      <trkpt lat="43.84946" lon="7.25455">
        <ele>685</ele>
        <time>2012-12-30T10:13:32Z</time>
      </trkpt>
      <trkpt lat="43.84951" lon="7.25458">
        <ele>685</ele>
        <time>2012-12-30T10:13:33Z</time>
      </trkpt>
      <trkpt lat="43.84956" lon="7.25459">
        <ele>685.40002441406</ele>
        <time>2012-12-30T10:13:34Z</time>
      </trkpt>
      <trkpt lat="43.84972" lon="7.25468">
        <ele>685.20001220703</ele>
        <time>2012-12-30T10:13:37Z</time>
      </trkpt>
      <trkpt lat="43.8499" lon="7.25482">
        <ele>683</ele>
        <time>2012-12-30T10:13:40Z</time>
      </trkpt>
      <trkpt lat="43.85" lon="7.25493">
        <ele>680.79998779297</ele>
        <time>2012-12-30T10:13:42Z</time>
      </trkpt>
      <trkpt lat="43.85031" lon="7.25524">
        <ele>680</ele>
        <time>2012-12-30T10:13:47Z</time>
      </trkpt>
      <trkpt lat="43.85048" lon="7.25542">
        <ele>680.59997558594</ele>
        <time>2012-12-30T10:13:50Z</time>
      </trkpt>
      <trkpt lat="43.85059" lon="7.25552">
        <ele>681.40002441406</ele>
        <time>2012-12-30T10:13:52Z</time>
      </trkpt>
      <trkpt lat="43.85072" lon="7.25563">
        <ele>683.20001220703</ele>
        <time>2012-12-30T10:13:55Z</time>
      </trkpt>
      <trkpt lat="43.85075" lon="7.25572">
        <ele>681.79998779297</ele>
        <time>2012-12-30T10:13:59Z</time>
      </trkpt>
      <trkpt lat="43.85075" lon="7.25574">
        <ele>681.40002441406</ele>
        <time>2012-12-30T10:14:00Z</time>
      </trkpt>
      <trkpt lat="43.85071" lon="7.25578">
        <ele>679.40002441406</ele>
        <time>2012-12-30T10:14:04Z</time>
      </trkpt>
      <trkpt lat="43.85067" lon="7.25582">
        <ele>677.20001220703</ele>
        <time>2012-12-30T10:14:07Z</time>
      </trkpt>
      <trkpt lat="43.85063" lon="7.25588">
        <ele>675.40002441406</ele>
        <time>2012-12-30T10:14:10Z</time>
      </trkpt>
      <trkpt lat="43.85059" lon="7.25596">
        <ele>673.59997558594</ele>
        <time>2012-12-30T10:14:14Z</time>
      </trkpt>
      <trkpt lat="43.85054" lon="7.25606">
        <ele>671.59997558594</ele>
        <time>2012-12-30T10:14:19Z</time>
      </trkpt>
      <trkpt lat="43.85051" lon="7.25625">
        <ele>669.59997558594</ele>
        <time>2012-12-30T10:14:26Z</time>
      </trkpt>
      <trkpt lat="43.85053" lon="7.25642">
        <ele>669.79998779297</ele>
        <time>2012-12-30T10:14:32Z</time>
      </trkpt>
      <trkpt lat="43.85056" lon="7.2567">
        <ele>669.79998779297</ele>
        <time>2012-12-30T10:14:38Z</time>
      </trkpt>
      <trkpt lat="43.85059" lon="7.25702">
        <ele>671.59997558594</ele>
        <time>2012-12-30T10:14:42Z</time>
      </trkpt>
      <trkpt lat="43.8506" lon="7.25711">
        <ele>672.20001220703</ele>
        <time>2012-12-30T10:14:43Z</time>
      </trkpt>
      <trkpt lat="43.85068" lon="7.2574">
        <ele>674.40002441406</ele>
        <time>2012-12-30T10:14:47Z</time>
      </trkpt>
      <trkpt lat="43.85069" lon="7.25762">
        <ele>675</ele>
        <time>2012-12-30T10:14:51Z</time>
      </trkpt>
      <trkpt lat="43.85067" lon="7.25772">
        <ele>674.79998779297</ele>
        <time>2012-12-30T10:14:53Z</time>
      </trkpt>
      <trkpt lat="43.85067" lon="7.25778">
        <ele>674.79998779297</ele>
        <time>2012-12-30T10:14:54Z</time>
      </trkpt>
      <trkpt lat="43.85067" lon="7.25785">
        <ele>675</ele>
        <time>2012-12-30T10:14:55Z</time>
      </trkpt>
      <trkpt lat="43.85071" lon="7.25798">
        <ele>675.59997558594</ele>
        <time>2012-12-30T10:14:57Z</time>
      </trkpt>
      <trkpt lat="43.85077" lon="7.25812">
        <ele>676</ele>
        <time>2012-12-30T10:14:59Z</time>
      </trkpt>
      <trkpt lat="43.85088" lon="7.25836">
        <ele>678.20001220703</ele>
        <time>2012-12-30T10:15:03Z</time>
      </trkpt>
      <trkpt lat="43.8509" lon="7.25841">
        <ele>680</ele>
        <time>2012-12-30T10:15:04Z</time>
      </trkpt>
      <trkpt lat="43.85091" lon="7.25846">
        <ele>681</ele>
        <time>2012-12-30T10:15:05Z</time>
      </trkpt>
      <trkpt lat="43.85091" lon="7.2585">
        <ele>681.20001220703</ele>
        <time>2012-12-30T10:15:06Z</time>
      </trkpt>
      <trkpt lat="43.85085" lon="7.25856">
        <ele>679.20001220703</ele>
        <time>2012-12-30T10:15:09Z</time>
      </trkpt>
      <trkpt lat="43.85077" lon="7.25855">
        <ele>678.79998779297</ele>
        <time>2012-12-30T10:15:14Z</time>
      </trkpt>
      <trkpt lat="43.85071" lon="7.25859">
        <ele>679.59997558594</ele>
        <time>2012-12-30T10:15:18Z</time>
      </trkpt>
      <trkpt lat="43.85068" lon="7.25862">
        <ele>680.20001220703</ele>
        <time>2012-12-30T10:15:20Z</time>
      </trkpt>
      <trkpt lat="43.85067" lon="7.25863">
        <ele>680.40002441406</ele>
        <time>2012-12-30T10:15:21Z</time>
      </trkpt>
      <trkpt lat="43.85056" lon="7.25867">
        <ele>681.59997558594</ele>
        <time>2012-12-30T10:15:28Z</time>
      </trkpt>
      <trkpt lat="43.85049" lon="7.25866">
        <ele>682</ele>
        <time>2012-12-30T10:15:33Z</time>
      </trkpt>
      <trkpt lat="43.85047" lon="7.25865">
        <ele>681.79998779297</ele>
        <time>2012-12-30T10:15:35Z</time>
      </trkpt>
      <trkpt lat="43.85044" lon="7.25863">
        <ele>681.59997558594</ele>
        <time>2012-12-30T10:15:37Z</time>
      </trkpt>
      <trkpt lat="43.85039" lon="7.25861">
        <ele>681.59997558594</ele>
        <time>2012-12-30T10:15:41Z</time>
      </trkpt>
      <trkpt lat="43.85033" lon="7.25854">
        <ele>680.40002441406</ele>
        <time>2012-12-30T10:15:47Z</time>
      </trkpt>
      <trkpt lat="43.85027" lon="7.25851">
        <ele>679.79998779297</ele>
        <time>2012-12-30T10:15:52Z</time>
      </trkpt>
      <trkpt lat="43.85024" lon="7.25849">
        <ele>679.59997558594</ele>
        <time>2012-12-30T10:15:54Z</time>
      </trkpt>
      <trkpt lat="43.85017" lon="7.25846">
        <ele>679</ele>
        <time>2012-12-30T10:16:00Z</time>
      </trkpt>
      <trkpt lat="43.85014" lon="7.25854">
        <ele>681</ele>
        <time>2012-12-30T10:16:05Z</time>
      </trkpt>
      <trkpt lat="43.85012" lon="7.2586">
        <ele>682.59997558594</ele>
        <time>2012-12-30T10:16:10Z</time>
      </trkpt>
      <trkpt lat="43.85006" lon="7.25869">
        <ele>685.20001220703</ele>
        <time>2012-12-30T10:16:17Z</time>
      </trkpt>
      <trkpt lat="43.85001" lon="7.25874">
        <ele>686.79998779297</ele>
        <time>2012-12-30T10:16:22Z</time>
      </trkpt>
      <trkpt lat="43.85001" lon="7.25875">
        <ele>687.40002441406</ele>
        <time>2012-12-30T10:16:23Z</time>
      </trkpt>
      <trkpt lat="43.85001" lon="7.25877">
        <ele>687.79998779297</ele>
        <time>2012-12-30T10:16:24Z</time>
      </trkpt>
      <trkpt lat="43.85001" lon="7.25878">
        <ele>688.20001220703</ele>
        <time>2012-12-30T10:16:25Z</time>
      </trkpt>
      <trkpt lat="43.85001" lon="7.2588">
        <ele>688.79998779297</ele>
        <time>2012-12-30T10:16:27Z</time>
      </trkpt>
      <trkpt lat="43.84998" lon="7.25882">
        <ele>689.59997558594</ele>
        <time>2012-12-30T10:16:30Z</time>
      </trkpt>
      <trkpt lat="43.84997" lon="7.25882">
        <ele>689.79998779297</ele>
        <time>2012-12-30T10:16:31Z</time>
      </trkpt>
      <trkpt lat="43.84996" lon="7.25882">
        <ele>689.79998779297</ele>
        <time>2012-12-30T10:16:34Z</time>
      </trkpt>
      <trkpt lat="43.84995" lon="7.2588">
        <ele>689.79998779297</ele>
        <time>2012-12-30T10:16:36Z</time>
      </trkpt>
      <trkpt lat="43.84991" lon="7.25879">
        <ele>690</ele>
        <time>2012-12-30T10:16:42Z</time>
      </trkpt>
      <trkpt lat="43.84988" lon="7.25883">
        <ele>691.40002441406</ele>
        <time>2012-12-30T10:16:48Z</time>
      </trkpt>
      <trkpt lat="43.84988" lon="7.25885">
        <ele>691.79998779297</ele>
        <time>2012-12-30T10:16:49Z</time>
      </trkpt>
      <trkpt lat="43.84989" lon="7.25886">
        <ele>692.20001220703</ele>
        <time>2012-12-30T10:16:51Z</time>
      </trkpt>
      <trkpt lat="43.8499" lon="7.2589">
        <ele>693</ele>
        <time>2012-12-30T10:16:55Z</time>
      </trkpt>
      <trkpt lat="43.84989" lon="7.25894">
        <ele>694.20001220703</ele>
        <time>2012-12-30T10:17:01Z</time>
      </trkpt>
      <trkpt lat="43.84985" lon="7.25897">
        <ele>695.59997558594</ele>
        <time>2012-12-30T10:17:08Z</time>
      </trkpt>
      <trkpt lat="43.84984" lon="7.25897">
        <ele>695.79998779297</ele>
        <time>2012-12-30T10:17:15Z</time>
      </trkpt>
      <trkpt lat="43.84983" lon="7.25896">
        <ele>695.40002441406</ele>
        <time>2012-12-30T10:17:18Z</time>
      </trkpt>
      <trkpt lat="43.84983" lon="7.25896">
        <ele>695.40002441406</ele>
        <time>2012-12-30T10:17:19Z</time>
      </trkpt>
      <trkpt lat="43.84981" lon="7.25893">
        <ele>695</ele>
        <time>2012-12-30T10:17:25Z</time>
      </trkpt>
      <trkpt lat="43.84977" lon="7.25892">
        <ele>695.40002441406</ele>
        <time>2012-12-30T10:17:32Z</time>
      </trkpt>
      <trkpt lat="43.84975" lon="7.25891">
        <ele>695.40002441406</ele>
        <time>2012-12-30T10:17:35Z</time>
      </trkpt>
      <trkpt lat="43.84974" lon="7.25889">
        <ele>695.20001220703</ele>
        <time>2012-12-30T10:17:39Z</time>
      </trkpt>
      <trkpt lat="43.84971" lon="7.25884">
        <ele>694.40002441406</ele>
        <time>2012-12-30T10:17:47Z</time>
      </trkpt>
      <trkpt lat="43.84968" lon="7.25877">
        <ele>693.20001220703</ele>
        <time>2012-12-30T10:17:56Z</time>
      </trkpt>
      <trkpt lat="43.84966" lon="7.25873">
        <ele>692.59997558594</ele>
        <time>2012-12-30T10:18:01Z</time>
      </trkpt>
      <trkpt lat="43.84962" lon="7.25875">
        <ele>693.79998779297</ele>
        <time>2012-12-30T10:18:07Z</time>
      </trkpt>
      <trkpt lat="43.84961" lon="7.25883">
        <ele>695.59997558594</ele>
        <time>2012-12-30T10:18:15Z</time>
      </trkpt>
      <trkpt lat="43.84958" lon="7.25884">
        <ele>696.40002441406</ele>
        <time>2012-12-30T10:18:22Z</time>
      </trkpt>
      <trkpt lat="43.84957" lon="7.2588">
        <ele>695.59997558594</ele>
        <time>2012-12-30T10:18:28Z</time>
      </trkpt>
      <trkpt lat="43.84953" lon="7.25881">
        <ele>696.59997558594</ele>
        <time>2012-12-30T10:18:33Z</time>
      </trkpt>
      <trkpt lat="43.8495" lon="7.25885">
        <ele>697.79998779297</ele>
        <time>2012-12-30T10:18:38Z</time>
      </trkpt>
      <trkpt lat="43.8495" lon="7.25886">
        <ele>698.20001220703</ele>
        <time>2012-12-30T10:18:40Z</time>
      </trkpt>
      <trkpt lat="43.8495" lon="7.25889">
        <ele>698.59997558594</ele>
        <time>2012-12-30T10:18:43Z</time>
      </trkpt>
      <trkpt lat="43.84949" lon="7.2589">
        <ele>698.79998779297</ele>
        <time>2012-12-30T10:18:44Z</time>
      </trkpt>
      <trkpt lat="43.84949" lon="7.25891">
        <ele>699.20001220703</ele>
        <time>2012-12-30T10:18:46Z</time>
      </trkpt>
      <trkpt lat="43.84948" lon="7.25893">
        <ele>699.79998779297</ele>
        <time>2012-12-30T10:18:49Z</time>
      </trkpt>
      <trkpt lat="43.84942" lon="7.25895">
        <ele>701</ele>
        <time>2012-12-30T10:18:57Z</time>
      </trkpt>
      <trkpt lat="43.84937" lon="7.25896">
        <ele>701.79998779297</ele>
        <time>2012-12-30T10:19:07Z</time>
      </trkpt>
      <trkpt lat="43.84935" lon="7.25895">
        <ele>702</ele>
        <time>2012-12-30T10:19:10Z</time>
      </trkpt>
      <trkpt lat="43.84931" lon="7.25896">
        <ele>702.59997558594</ele>
        <time>2012-12-30T10:19:16Z</time>
      </trkpt>
      <trkpt lat="43.84928" lon="7.25897">
        <ele>703.20001220703</ele>
        <time>2012-12-30T10:19:22Z</time>
      </trkpt>
      <trkpt lat="43.84923" lon="7.25898">
        <ele>704.20001220703</ele>
        <time>2012-12-30T10:19:30Z</time>
      </trkpt>
      <trkpt lat="43.84916" lon="7.25901">
        <ele>705.20001220703</ele>
        <time>2012-12-30T10:19:38Z</time>
      </trkpt>
      <trkpt lat="43.84912" lon="7.25901">
        <ele>704.40002441406</ele>
        <time>2012-12-30T10:19:45Z</time>
      </trkpt>
      <trkpt lat="43.84906" lon="7.25904">
        <ele>703.79998779297</ele>
        <time>2012-12-30T10:19:51Z</time>
      </trkpt>
      <trkpt lat="43.84905" lon="7.25905">
        <ele>703.59997558594</ele>
        <time>2012-12-30T10:19:52Z</time>
      </trkpt>
      <trkpt lat="43.849" lon="7.25914">
        <ele>704</ele>
        <time>2012-12-30T10:19:59Z</time>
      </trkpt>
      <trkpt lat="43.84896" lon="7.25918">
        <ele>704.20001220703</ele>
        <time>2012-12-30T10:20:02Z</time>
      </trkpt>
      <trkpt lat="43.84895" lon="7.25922">
        <ele>704.59997558594</ele>
        <time>2012-12-30T10:20:04Z</time>
      </trkpt>
      <trkpt lat="43.84888" lon="7.25931">
        <ele>705.20001220703</ele>
        <time>2012-12-30T10:20:11Z</time>
      </trkpt>
      <trkpt lat="43.84883" lon="7.2594">
        <ele>706.40002441406</ele>
        <time>2012-12-30T10:20:18Z</time>
      </trkpt>
      <trkpt lat="43.84878" lon="7.25952">
        <ele>708.40002441406</ele>
        <time>2012-12-30T10:20:26Z</time>
      </trkpt>
      <trkpt lat="43.84877" lon="7.25954">
        <ele>708.79998779297</ele>
        <time>2012-12-30T10:20:27Z</time>
      </trkpt>
      <trkpt lat="43.84876" lon="7.25961">
        <ele>710.40002441406</ele>
        <time>2012-12-30T10:20:31Z</time>
      </trkpt>
      <trkpt lat="43.84875" lon="7.25969">
        <ele>712.20001220703</ele>
        <time>2012-12-30T10:20:36Z</time>
      </trkpt>
      <trkpt lat="43.84874" lon="7.25971">
        <ele>712.79998779297</ele>
        <time>2012-12-30T10:20:37Z</time>
      </trkpt>
      <trkpt lat="43.84868" lon="7.25991">
        <ele>717</ele>
        <time>2012-12-30T10:20:46Z</time>
      </trkpt>
      <trkpt lat="43.84859" lon="7.26005">
        <ele>720.20001220703</ele>
        <time>2012-12-30T10:20:53Z</time>
      </trkpt>
      <trkpt lat="43.84851" lon="7.26018">
        <ele>723.40002441406</ele>
        <time>2012-12-30T10:21:00Z</time>
      </trkpt>
      <trkpt lat="43.8485" lon="7.26021">
        <ele>724.20001220703</ele>
        <time>2012-12-30T10:21:02Z</time>
      </trkpt>
      <trkpt lat="43.84847" lon="7.26024">
        <ele>724.79998779297</ele>
        <time>2012-12-30T10:21:04Z</time>
      </trkpt>
      <trkpt lat="43.84846" lon="7.26024">
        <ele>725</ele>
        <time>2012-12-30T10:21:05Z</time>
      </trkpt>
      <trkpt lat="43.84843" lon="7.26026">
        <ele>725.40002441406</ele>
        <time>2012-12-30T10:21:07Z</time>
      </trkpt>
      <trkpt lat="43.84838" lon="7.26027">
        <ele>725.59997558594</ele>
        <time>2012-12-30T10:21:10Z</time>
      </trkpt>
      <trkpt lat="43.84837" lon="7.26028">
        <ele>725.59997558594</ele>
        <time>2012-12-30T10:21:11Z</time>
      </trkpt>
      <trkpt lat="43.84832" lon="7.26026">
        <ele>724.79998779297</ele>
        <time>2012-12-30T10:21:14Z</time>
      </trkpt>
      <trkpt lat="43.8483" lon="7.26026">
        <ele>724.79998779297</ele>
        <time>2012-12-30T10:21:15Z</time>
      </trkpt>
      <trkpt lat="43.84829" lon="7.26027">
        <ele>725</ele>
        <time>2012-12-30T10:21:16Z</time>
      </trkpt>
      <trkpt lat="43.84824" lon="7.2603">
        <ele>725.79998779297</ele>
        <time>2012-12-30T10:21:20Z</time>
      </trkpt>
      <trkpt lat="43.84823" lon="7.2603">
        <ele>725.79998779297</ele>
        <time>2012-12-30T10:21:21Z</time>
      </trkpt>
      <trkpt lat="43.84822" lon="7.2603">
        <ele>725.79998779297</ele>
        <time>2012-12-30T10:21:22Z</time>
      </trkpt>
      <trkpt lat="43.84818" lon="7.2603">
        <ele>725.59997558594</ele>
        <time>2012-12-30T10:21:25Z</time>
      </trkpt>
      <trkpt lat="43.84818" lon="7.2603">
        <ele>725.59997558594</ele>
        <time>2012-12-30T10:21:26Z</time>
      </trkpt>
      <trkpt lat="43.84815" lon="7.2603">
        <ele>725.59997558594</ele>
        <time>2012-12-30T10:21:29Z</time>
      </trkpt>
      <trkpt lat="43.84813" lon="7.2603">
        <ele>725.40002441406</ele>
        <time>2012-12-30T10:21:32Z</time>
      </trkpt>
      <trkpt lat="43.84809" lon="7.2603">
        <ele>725.20001220703</ele>
        <time>2012-12-30T10:21:35Z</time>
      </trkpt>
      <trkpt lat="43.84806" lon="7.26033">
        <ele>725.79998779297</ele>
        <time>2012-12-30T10:21:39Z</time>
      </trkpt>
      <trkpt lat="43.84803" lon="7.26034">
        <ele>726</ele>
        <time>2012-12-30T10:21:42Z</time>
      </trkpt>
      <trkpt lat="43.848" lon="7.26036">
        <ele>726.20001220703</ele>
        <time>2012-12-30T10:21:46Z</time>
      </trkpt>
      <trkpt lat="43.84797" lon="7.26038">
        <ele>726.59997558594</ele>
        <time>2012-12-30T10:21:51Z</time>
      </trkpt>
      <trkpt lat="43.84792" lon="7.26043">
        <ele>727.79998779297</ele>
        <time>2012-12-30T10:21:57Z</time>
      </trkpt>
      <trkpt lat="43.8479" lon="7.26043">
        <ele>727.79998779297</ele>
        <time>2012-12-30T10:21:58Z</time>
      </trkpt>
      <trkpt lat="43.84783" lon="7.2605">
        <ele>729</ele>
        <time>2012-12-30T10:22:05Z</time>
      </trkpt>
      <trkpt lat="43.8478" lon="7.26052">
        <ele>729.40002441406</ele>
        <time>2012-12-30T10:22:07Z</time>
      </trkpt>
      <trkpt lat="43.84771" lon="7.26057">
        <ele>729.79998779297</ele>
        <time>2012-12-30T10:22:14Z</time>
      </trkpt>
      <trkpt lat="43.84765" lon="7.26062">
        <ele>730.40002441406</ele>
        <time>2012-12-30T10:22:20Z</time>
      </trkpt>
      <trkpt lat="43.84762" lon="7.26065">
        <ele>731</ele>
        <time>2012-12-30T10:22:25Z</time>
      </trkpt>
      <trkpt lat="43.8476" lon="7.26068">
        <ele>731.40002441406</ele>
        <time>2012-12-30T10:22:29Z</time>
      </trkpt>
      <trkpt lat="43.84759" lon="7.26068">
        <ele>731.40002441406</ele>
        <time>2012-12-30T10:22:32Z</time>
      </trkpt>
      <trkpt lat="43.84755" lon="7.26071">
        <ele>731.79998779297</ele>
        <time>2012-12-30T10:22:36Z</time>
      </trkpt>
      <trkpt lat="43.84753" lon="7.26072">
        <ele>731.59997558594</ele>
        <time>2012-12-30T10:22:44Z</time>
      </trkpt>
      <trkpt lat="43.84747" lon="7.26074">
        <ele>732.20001220703</ele>
        <time>2012-12-30T10:22:51Z</time>
      </trkpt>
      <trkpt lat="43.84739" lon="7.26077">
        <ele>733.59997558594</ele>
        <time>2012-12-30T10:22:58Z</time>
      </trkpt>
      <trkpt lat="43.84737" lon="7.26079">
        <ele>734.20001220703</ele>
        <time>2012-12-30T10:23:00Z</time>
      </trkpt>
      <trkpt lat="43.84736" lon="7.2608">
        <ele>734.59997558594</ele>
        <time>2012-12-30T10:23:01Z</time>
      </trkpt>
      <trkpt lat="43.84734" lon="7.26083">
        <ele>735.40002441406</ele>
        <time>2012-12-30T10:23:03Z</time>
      </trkpt>
      <trkpt lat="43.84731" lon="7.26085">
        <ele>736.20001220703</ele>
        <time>2012-12-30T10:23:05Z</time>
      </trkpt>
      <trkpt lat="43.84728" lon="7.26087">
        <ele>737.20001220703</ele>
        <time>2012-12-30T10:23:08Z</time>
      </trkpt>
      <trkpt lat="43.84723" lon="7.2609">
        <ele>738.59997558594</ele>
        <time>2012-12-30T10:23:12Z</time>
      </trkpt>
      <trkpt lat="43.84716" lon="7.26097">
        <ele>741</ele>
        <time>2012-12-30T10:23:17Z</time>
      </trkpt>
      <trkpt lat="43.84715" lon="7.26098">
        <ele>741.40002441406</ele>
        <time>2012-12-30T10:23:18Z</time>
      </trkpt>
      <trkpt lat="43.84714" lon="7.26099">
        <ele>741.79998779297</ele>
        <time>2012-12-30T10:23:19Z</time>
      </trkpt>
      <trkpt lat="43.8471" lon="7.26103">
        <ele>743</ele>
        <time>2012-12-30T10:23:23Z</time>
      </trkpt>
      <trkpt lat="43.84708" lon="7.26104">
        <ele>743.40002441406</ele>
        <time>2012-12-30T10:23:25Z</time>
      </trkpt>
      <trkpt lat="43.84703" lon="7.26107">
        <ele>744.59997558594</ele>
        <time>2012-12-30T10:23:29Z</time>
      </trkpt>
      <trkpt lat="43.847" lon="7.26107">
        <ele>744.79998779297</ele>
        <time>2012-12-30T10:23:31Z</time>
      </trkpt>
      <trkpt lat="43.84699" lon="7.26108">
        <ele>745.20001220703</ele>
        <time>2012-12-30T10:23:33Z</time>
      </trkpt>
      <trkpt lat="43.84697" lon="7.2611">
        <ele>745.59997558594</ele>
        <time>2012-12-30T10:23:35Z</time>
      </trkpt>
      <trkpt lat="43.8469" lon="7.26115">
        <ele>747.59997558594</ele>
        <time>2012-12-30T10:23:42Z</time>
      </trkpt>
      <trkpt lat="43.84683" lon="7.26126">
        <ele>750.40002441406</ele>
        <time>2012-12-30T10:23:50Z</time>
      </trkpt>
      <trkpt lat="43.84682" lon="7.26132">
        <ele>751.79998779297</ele>
        <time>2012-12-30T10:23:54Z</time>
      </trkpt>
      <trkpt lat="43.84682" lon="7.26132">
        <ele>751.79998779297</ele>
        <time>2012-12-30T10:23:56Z</time>
      </trkpt>
      <trkpt lat="43.84679" lon="7.26135">
        <ele>752.79998779297</ele>
        <time>2012-12-30T10:24:03Z</time>
      </trkpt>
      <trkpt lat="43.84674" lon="7.2614">
        <ele>754</ele>
        <time>2012-12-30T10:24:12Z</time>
      </trkpt>
      <trkpt lat="43.84671" lon="7.26142">
        <ele>754.59997558594</ele>
        <time>2012-12-30T10:24:20Z</time>
      </trkpt>
      <trkpt lat="43.84666" lon="7.26144">
        <ele>755</ele>
        <time>2012-12-30T10:24:26Z</time>
      </trkpt>
      <trkpt lat="43.84665" lon="7.26144">
        <ele>755.20001220703</ele>
        <time>2012-12-30T10:24:27Z</time>
      </trkpt>
      <trkpt lat="43.84663" lon="7.26146">
        <ele>755.59997558594</ele>
        <time>2012-12-30T10:24:34Z</time>
      </trkpt>
      <trkpt lat="43.8466" lon="7.26152">
        <ele>757</ele>
        <time>2012-12-30T10:24:40Z</time>
      </trkpt>
      <trkpt lat="43.84654" lon="7.26156">
        <ele>757.59997558594</ele>
        <time>2012-12-30T10:24:45Z</time>
      </trkpt>
      <trkpt lat="43.84654" lon="7.26156">
        <ele>757.79998779297</ele>
        <time>2012-12-30T10:24:46Z</time>
      </trkpt>
      <trkpt lat="43.8465" lon="7.26157">
        <ele>758</ele>
        <time>2012-12-30T10:24:52Z</time>
      </trkpt>
      <trkpt lat="43.84646" lon="7.26158">
        <ele>758.20001220703</ele>
        <time>2012-12-30T10:24:57Z</time>
      </trkpt>
      <trkpt lat="43.84643" lon="7.26158">
        <ele>758</ele>
        <time>2012-12-30T10:25:02Z</time>
      </trkpt>
      <trkpt lat="43.84642" lon="7.26157">
        <ele>758</ele>
        <time>2012-12-30T10:25:06Z</time>
      </trkpt>
      <trkpt lat="43.84641" lon="7.26156">
        <ele>758</ele>
        <time>2012-12-30T10:25:07Z</time>
      </trkpt>
      <trkpt lat="43.8464" lon="7.26156">
        <ele>758</ele>
        <time>2012-12-30T10:25:08Z</time>
      </trkpt>
      <trkpt lat="43.84636" lon="7.26156">
        <ele>758</ele>
        <time>2012-12-30T10:25:12Z</time>
      </trkpt>
      <trkpt lat="43.84632" lon="7.26157">
        <ele>758</ele>
        <time>2012-12-30T10:25:16Z</time>
      </trkpt>
      <trkpt lat="43.84628" lon="7.26157">
        <ele>758.20001220703</ele>
        <time>2012-12-30T10:25:19Z</time>
      </trkpt>
      <trkpt lat="43.84625" lon="7.26157">
        <ele>758.20001220703</ele>
        <time>2012-12-30T10:25:22Z</time>
      </trkpt>
      <trkpt lat="43.84624" lon="7.26157">
        <ele>758.20001220703</ele>
        <time>2012-12-30T10:25:23Z</time>
      </trkpt>
      <trkpt lat="43.84614" lon="7.26159">
        <ele>758.40002441406</ele>
        <time>2012-12-30T10:25:31Z</time>
      </trkpt>
      <trkpt lat="43.84607" lon="7.26158">
        <ele>758.40002441406</ele>
        <time>2012-12-30T10:25:38Z</time>
      </trkpt>
      <trkpt lat="43.84607" lon="7.26159">
        <ele>758.40002441406</ele>
        <time>2012-12-30T10:25:42Z</time>
      </trkpt>
      <trkpt lat="43.84607" lon="7.26159">
        <ele>758.40002441406</ele>
        <time>2012-12-30T10:25:45Z</time>
      </trkpt>
      <trkpt lat="43.84607" lon="7.26159">
        <ele>758.40002441406</ele>
        <time>2012-12-30T10:25:49Z</time>
      </trkpt>
      <trkpt lat="43.84607" lon="7.26159">
        <ele>758.40002441406</ele>
        <time>2012-12-30T10:26:06Z</time>
      </trkpt>
      <trkpt lat="43.84607" lon="7.26159">
        <ele>758.40002441406</ele>
        <time>2012-12-30T10:26:14Z</time>
      </trkpt>
      <trkpt lat="43.84607" lon="7.26158">
        <ele>758.40002441406</ele>
        <time>2012-12-30T10:26:20Z</time>
      </trkpt>
      <trkpt lat="43.84607" lon="7.26158">
        <ele>758.40002441406</ele>
        <time>2012-12-30T10:26:26Z</time>
      </trkpt>
      <trkpt lat="43.84607" lon="7.26159">
        <ele>758.40002441406</ele>
        <time>2012-12-30T10:26:30Z</time>
      </trkpt>
      <trkpt lat="43.84607" lon="7.26161">
        <ele>758.40002441406</ele>
        <time>2012-12-30T10:26:33Z</time>
      </trkpt>
      <trkpt lat="43.84607" lon="7.26162">
        <ele>758.40002441406</ele>
        <time>2012-12-30T10:26:36Z</time>
      </trkpt>
      <trkpt lat="43.84607" lon="7.26162">
        <ele>758.40002441406</ele>
        <time>2012-12-30T10:26:38Z</time>
      </trkpt>
      <trkpt lat="43.84607" lon="7.26164">
        <ele>758.40002441406</ele>
        <time>2012-12-30T10:26:40Z</time>
      </trkpt>
      <trkpt lat="43.84607" lon="7.26166">
        <ele>758.40002441406</ele>
        <time>2012-12-30T10:26:43Z</time>
      </trkpt>
      <trkpt lat="43.84607" lon="7.26166">
        <ele>758.40002441406</ele>
        <time>2012-12-30T10:26:46Z</time>
      </trkpt>
      <trkpt lat="43.84607" lon="7.26167">
        <ele>758.59997558594</ele>
        <time>2012-12-30T10:26:51Z</time>
      </trkpt>
      <trkpt lat="43.84606" lon="7.26169">
        <ele>758.79998779297</ele>
        <time>2012-12-30T10:27:04Z</time>
      </trkpt>
      <trkpt lat="43.84605" lon="7.26169">
        <ele>758.59997558594</ele>
        <time>2012-12-30T10:27:07Z</time>
      </trkpt>
      <trkpt lat="43.84605" lon="7.26168">
        <ele>758.59997558594</ele>
        <time>2012-12-30T10:27:10Z</time>
      </trkpt>
      <trkpt lat="43.84606" lon="7.26168">
        <ele>758.59997558594</ele>
        <time>2012-12-30T10:27:12Z</time>
      </trkpt>
      <trkpt lat="43.84606" lon="7.26167">
        <ele>758.40002441406</ele>
        <time>2012-12-30T10:27:17Z</time>
      </trkpt>
      <trkpt lat="43.84606" lon="7.26167">
        <ele>758.59997558594</ele>
        <time>2012-12-30T10:27:27Z</time>
      </trkpt>
      <trkpt lat="43.84605" lon="7.26167">
        <ele>758.59997558594</ele>
        <time>2012-12-30T10:27:37Z</time>
      </trkpt>
      <trkpt lat="43.84605" lon="7.26167">
        <ele>758.59997558594</ele>
        <time>2012-12-30T10:27:48Z</time>
      </trkpt>
      <trkpt lat="43.84606" lon="7.26167">
        <ele>758.59997558594</ele>
        <time>2012-12-30T10:27:52Z</time>
      </trkpt>
      <trkpt lat="43.84605" lon="7.26166">
        <ele>758.40002441406</ele>
        <time>2012-12-30T10:28:12Z</time>
      </trkpt>
      <trkpt lat="43.84604" lon="7.26173">
        <ele>759.20001220703</ele>
        <time>2012-12-30T10:28:22Z</time>
      </trkpt>
      <trkpt lat="43.84602" lon="7.26175">
        <ele>759.40002441406</ele>
        <time>2012-12-30T10:28:25Z</time>
      </trkpt>
      <trkpt lat="43.84602" lon="7.26177">
        <ele>759.59997558594</ele>
        <time>2012-12-30T10:28:28Z</time>
      </trkpt>
      <trkpt lat="43.84602" lon="7.26177">
        <ele>759.59997558594</ele>
        <time>2012-12-30T10:28:31Z</time>
      </trkpt>
      <trkpt lat="43.84602" lon="7.26177">
        <ele>759.79998779297</ele>
        <time>2012-12-30T10:28:32Z</time>
      </trkpt>
      <trkpt lat="43.846" lon="7.26177">
        <ele>759.59997558594</ele>
        <time>2012-12-30T10:28:54Z</time>
      </trkpt>
      <trkpt lat="43.846" lon="7.26177">
        <ele>759.59997558594</ele>
        <time>2012-12-30T10:28:57Z</time>
      </trkpt>
      <trkpt lat="43.846" lon="7.26177">
        <ele>759.59997558594</ele>
        <time>2012-12-30T10:28:58Z</time>
      </trkpt>
      <trkpt lat="43.846" lon="7.26177">
        <ele>759.59997558594</ele>
        <time>2012-12-30T10:29:01Z</time>
      </trkpt>
      <trkpt lat="43.846" lon="7.26178">
        <ele>759.79998779297</ele>
        <time>2012-12-30T10:29:07Z</time>
      </trkpt>
      <trkpt lat="43.846" lon="7.26179">
        <ele>759.79998779297</ele>
        <time>2012-12-30T10:29:12Z</time>
      </trkpt>
      <trkpt lat="43.846" lon="7.26179">
        <ele>759.79998779297</ele>
        <time>2012-12-30T10:29:16Z</time>
      </trkpt>
      <trkpt lat="43.84601" lon="7.26178">
        <ele>759.79998779297</ele>
        <time>2012-12-30T10:29:26Z</time>
      </trkpt>
      <trkpt lat="43.84601" lon="7.26178">
        <ele>759.79998779297</ele>
        <time>2012-12-30T10:29:29Z</time>
      </trkpt>
      <trkpt lat="43.84602" lon="7.26178">
        <ele>759.79998779297</ele>
        <time>2012-12-30T10:29:38Z</time>
      </trkpt>
      <trkpt lat="43.84602" lon="7.26177">
        <ele>759.79998779297</ele>
        <time>2012-12-30T10:30:13Z</time>
      </trkpt>
      <trkpt lat="43.84602" lon="7.26177">
        <ele>759.79998779297</ele>
        <time>2012-12-30T10:30:17Z</time>
      </trkpt>
      <trkpt lat="43.84602" lon="7.26178">
        <ele>759.79998779297</ele>
        <time>2012-12-30T10:30:27Z</time>
      </trkpt>
      <trkpt lat="43.84601" lon="7.26178">
        <ele>759.79998779297</ele>
        <time>2012-12-30T10:30:34Z</time>
      </trkpt>
      <trkpt lat="43.84601" lon="7.26179">
        <ele>760</ele>
        <time>2012-12-30T10:30:47Z</time>
      </trkpt>
      <trkpt lat="43.84601" lon="7.26179">
        <ele>760</ele>
        <time>2012-12-30T10:30:52Z</time>
      </trkpt>
      <trkpt lat="43.84601" lon="7.26179">
        <ele>760</ele>
        <time>2012-12-30T10:30:57Z</time>
      </trkpt>
      <trkpt lat="43.84601" lon="7.26179">
        <ele>760</ele>
        <time>2012-12-30T10:30:59Z</time>
      </trkpt>
      <trkpt lat="43.84601" lon="7.2618">
        <ele>760</ele>
        <time>2012-12-30T10:31:03Z</time>
      </trkpt>
      <trkpt lat="43.84601" lon="7.2618">
        <ele>760</ele>
        <time>2012-12-30T10:31:10Z</time>
      </trkpt>
      <trkpt lat="43.84601" lon="7.2618">
        <ele>760</ele>
        <time>2012-12-30T10:31:14Z</time>
      </trkpt>
      <trkpt lat="43.84601" lon="7.2618">
        <ele>760.20001220703</ele>
        <time>2012-12-30T10:31:18Z</time>
      </trkpt>
      <trkpt lat="43.84601" lon="7.2618">
        <ele>760</ele>
        <time>2012-12-30T10:31:34Z</time>
      </trkpt>
      <trkpt lat="43.84601" lon="7.2618">
        <ele>760</ele>
        <time>2012-12-30T10:31:35Z</time>
      </trkpt>
      <trkpt lat="43.846" lon="7.2618">
        <ele>760</ele>
        <time>2012-12-30T10:31:41Z</time>
      </trkpt>
      <trkpt lat="43.846" lon="7.2618">
        <ele>760</ele>
        <time>2012-12-30T10:31:42Z</time>
      </trkpt>
      <trkpt lat="43.846" lon="7.2618">
        <ele>760</ele>
        <time>2012-12-30T10:31:47Z</time>
      </trkpt>
      <trkpt lat="43.846" lon="7.2618">
        <ele>760</ele>
        <time>2012-12-30T10:31:59Z</time>
      </trkpt>
      <trkpt lat="43.846" lon="7.2618">
        <ele>760</ele>
        <time>2012-12-30T10:32:10Z</time>
      </trkpt>
      <trkpt lat="43.846" lon="7.2618">
        <ele>760</ele>
        <time>2012-12-30T10:32:16Z</time>
      </trkpt>
      <trkpt lat="43.846" lon="7.2618">
        <ele>760</ele>
        <time>2012-12-30T10:32:17Z</time>
      </trkpt>
      <trkpt lat="43.84599" lon="7.26179">
        <ele>759.79998779297</ele>
        <time>2012-12-30T10:32:21Z</time>
      </trkpt>
      <trkpt lat="43.846" lon="7.26179">
        <ele>759.79998779297</ele>
        <time>2012-12-30T10:32:24Z</time>
      </trkpt>
      <trkpt lat="43.846" lon="7.26179">
        <ele>759.79998779297</ele>
        <time>2012-12-30T10:32:25Z</time>
      </trkpt>
      <trkpt lat="43.846" lon="7.26179">
        <ele>759.79998779297</ele>
        <time>2012-12-30T10:32:27Z</time>
      </trkpt>
      <trkpt lat="43.846" lon="7.26179">
        <ele>759.79998779297</ele>
        <time>2012-12-30T10:32:35Z</time>
      </trkpt>
      <trkpt lat="43.846" lon="7.26179">
        <ele>759.79998779297</ele>
        <time>2012-12-30T10:32:36Z</time>
      </trkpt>
      <trkpt lat="43.846" lon="7.26179">
        <ele>759.79998779297</ele>
        <time>2012-12-30T10:32:53Z</time>
      </trkpt>
      <trkpt lat="43.84601" lon="7.26178">
        <ele>759.79998779297</ele>
        <time>2012-12-30T10:32:54Z</time>
      </trkpt>
      <trkpt lat="43.846" lon="7.26179">
        <ele>759.79998779297</ele>
        <time>2012-12-30T10:32:57Z</time>
      </trkpt>
      <trkpt lat="43.846" lon="7.26178">
        <ele>759.79998779297</ele>
        <time>2012-12-30T10:33:01Z</time>
      </trkpt>
      <trkpt lat="43.846" lon="7.26178">
        <ele>759.79998779297</ele>
        <time>2012-12-30T10:33:09Z</time>
      </trkpt>
      <trkpt lat="43.846" lon="7.26178">
        <ele>759.79998779297</ele>
        <time>2012-12-30T10:33:10Z</time>
      </trkpt>
      <trkpt lat="43.846" lon="7.26179">
        <ele>759.79998779297</ele>
        <time>2012-12-30T10:33:11Z</time>
      </trkpt>
      <trkpt lat="43.846" lon="7.26179">
        <ele>759.79998779297</ele>
        <time>2012-12-30T10:33:21Z</time>
      </trkpt>
      <trkpt lat="43.846" lon="7.26179">
        <ele>759.79998779297</ele>
        <time>2012-12-30T10:33:23Z</time>
      </trkpt>
      <trkpt lat="43.84597" lon="7.26181">
        <ele>760</ele>
        <time>2012-12-30T10:33:52Z</time>
      </trkpt>
      <trkpt lat="43.84595" lon="7.26184">
        <ele>760.20001220703</ele>
        <time>2012-12-30T10:33:57Z</time>
      </trkpt>
      <trkpt lat="43.84595" lon="7.26187">
        <ele>760.59997558594</ele>
        <time>2012-12-30T10:34:02Z</time>
      </trkpt>
      <trkpt lat="43.84595" lon="7.2619">
        <ele>761</ele>
        <time>2012-12-30T10:34:06Z</time>
      </trkpt>
      <trkpt lat="43.84595" lon="7.26191">
        <ele>761.20001220703</ele>
        <time>2012-12-30T10:34:07Z</time>
      </trkpt>
      <trkpt lat="43.84594" lon="7.26198">
        <ele>761.79998779297</ele>
        <time>2012-12-30T10:34:13Z</time>
      </trkpt>
      <trkpt lat="43.84593" lon="7.26202">
        <ele>762.20001220703</ele>
        <time>2012-12-30T10:34:17Z</time>
      </trkpt>
      <trkpt lat="43.84593" lon="7.26202">
        <ele>762.20001220703</ele>
        <time>2012-12-30T10:34:18Z</time>
      </trkpt>
      <trkpt lat="43.84593" lon="7.26204">
        <ele>762.40002441406</ele>
        <time>2012-12-30T10:34:20Z</time>
      </trkpt>
      <trkpt lat="43.84591" lon="7.26208">
        <ele>762.59997558594</ele>
        <time>2012-12-30T10:34:24Z</time>
      </trkpt>
      <trkpt lat="43.8459" lon="7.26211">
        <ele>763</ele>
        <time>2012-12-30T10:34:26Z</time>
      </trkpt>
      <trkpt lat="43.84586" lon="7.2622">
        <ele>763.40002441406</ele>
        <time>2012-12-30T10:34:30Z</time>
      </trkpt>
      <trkpt lat="43.84582" lon="7.2623">
        <ele>763.59997558594</ele>
        <time>2012-12-30T10:34:37Z</time>
      </trkpt>
      <trkpt lat="43.84576" lon="7.26244">
        <ele>763</ele>
        <time>2012-12-30T10:34:45Z</time>
      </trkpt>
      <trkpt lat="43.84571" lon="7.26254">
        <ele>763</ele>
        <time>2012-12-30T10:34:52Z</time>
      </trkpt>
      <trkpt lat="43.84569" lon="7.26258">
        <ele>763.59997558594</ele>
        <time>2012-12-30T10:34:55Z</time>
      </trkpt>
      <trkpt lat="43.84568" lon="7.26261">
        <ele>764.20001220703</ele>
        <time>2012-12-30T10:34:57Z</time>
      </trkpt>
      <trkpt lat="43.84567" lon="7.26264">
        <ele>765</ele>
        <time>2012-12-30T10:34:59Z</time>
      </trkpt>
      <trkpt lat="43.84565" lon="7.26267">
        <ele>765.40002441406</ele>
        <time>2012-12-30T10:35:01Z</time>
      </trkpt>
      <trkpt lat="43.84564" lon="7.26277">
        <ele>767.79998779297</ele>
        <time>2012-12-30T10:35:06Z</time>
      </trkpt>
      <trkpt lat="43.84565" lon="7.26286">
        <ele>771</ele>
        <time>2012-12-30T10:35:11Z</time>
      </trkpt>
      <trkpt lat="43.84564" lon="7.26289">
        <ele>771.59997558594</ele>
        <time>2012-12-30T10:35:12Z</time>
      </trkpt>
      <trkpt lat="43.84561" lon="7.26295">
        <ele>772.40002441406</ele>
        <time>2012-12-30T10:35:17Z</time>
      </trkpt>
      <trkpt lat="43.84561" lon="7.26295">
        <ele>772.40002441406</ele>
        <time>2012-12-30T10:35:18Z</time>
      </trkpt>
      <trkpt lat="43.84561" lon="7.26296">
        <ele>772.59997558594</ele>
        <time>2012-12-30T10:35:19Z</time>
      </trkpt>
      <trkpt lat="43.8456" lon="7.26296">
        <ele>772.59997558594</ele>
        <time>2012-12-30T10:35:20Z</time>
      </trkpt>
      <trkpt lat="43.84557" lon="7.26301">
        <ele>773</ele>
        <time>2012-12-30T10:35:25Z</time>
      </trkpt>
      <trkpt lat="43.84552" lon="7.26307">
        <ele>773</ele>
        <time>2012-12-30T10:35:31Z</time>
      </trkpt>
      <trkpt lat="43.84552" lon="7.26307">
        <ele>772.79998779297</ele>
        <time>2012-12-30T10:35:32Z</time>
      </trkpt>
      <trkpt lat="43.8455" lon="7.26308">
        <ele>772.79998779297</ele>
        <time>2012-12-30T10:35:34Z</time>
      </trkpt>
      <trkpt lat="43.84549" lon="7.26309">
        <ele>772.59997558594</ele>
        <time>2012-12-30T10:35:35Z</time>
      </trkpt>
      <trkpt lat="43.84548" lon="7.2631">
        <ele>772.59997558594</ele>
        <time>2012-12-30T10:35:36Z</time>
      </trkpt>
      <trkpt lat="43.84547" lon="7.26311">
        <ele>772.40002441406</ele>
        <time>2012-12-30T10:35:37Z</time>
      </trkpt>
      <trkpt lat="43.84546" lon="7.26312">
        <ele>772.40002441406</ele>
        <time>2012-12-30T10:35:38Z</time>
      </trkpt>
      <trkpt lat="43.84544" lon="7.26314">
        <ele>772.40002441406</ele>
        <time>2012-12-30T10:35:41Z</time>
      </trkpt>
      <trkpt lat="43.8454" lon="7.26319">
        <ele>772.40002441406</ele>
        <time>2012-12-30T10:35:46Z</time>
      </trkpt>
      <trkpt lat="43.84538" lon="7.26324">
        <ele>773.20001220703</ele>
        <time>2012-12-30T10:35:50Z</time>
      </trkpt>
      <trkpt lat="43.84538" lon="7.26324">
        <ele>773.40002441406</ele>
        <time>2012-12-30T10:35:51Z</time>
      </trkpt>
      <trkpt lat="43.84538" lon="7.26326">
        <ele>773.79998779297</ele>
        <time>2012-12-30T10:35:53Z</time>
      </trkpt>
      <trkpt lat="43.84538" lon="7.26327">
        <ele>774</ele>
        <time>2012-12-30T10:35:54Z</time>
      </trkpt>
      <trkpt lat="43.84537" lon="7.26328">
        <ele>774</ele>
        <time>2012-12-30T10:35:55Z</time>
      </trkpt>
      <trkpt lat="43.84536" lon="7.26328">
        <ele>774</ele>
        <time>2012-12-30T10:35:56Z</time>
      </trkpt>
      <trkpt lat="43.84536" lon="7.26329">
        <ele>774</ele>
        <time>2012-12-30T10:35:57Z</time>
      </trkpt>
      <trkpt lat="43.84535" lon="7.26329">
        <ele>774</ele>
        <time>2012-12-30T10:35:58Z</time>
      </trkpt>
      <trkpt lat="43.84534" lon="7.26331">
        <ele>774</ele>
        <time>2012-12-30T10:36:00Z</time>
      </trkpt>
      <trkpt lat="43.84533" lon="7.26332">
        <ele>773.79998779297</ele>
        <time>2012-12-30T10:36:01Z</time>
      </trkpt>
      <trkpt lat="43.84531" lon="7.26334">
        <ele>773.79998779297</ele>
        <time>2012-12-30T10:36:03Z</time>
      </trkpt>
      <trkpt lat="43.84527" lon="7.26338">
        <ele>774.20001220703</ele>
        <time>2012-12-30T10:36:07Z</time>
      </trkpt>
      <trkpt lat="43.84519" lon="7.2635">
        <ele>775.79998779297</ele>
        <time>2012-12-30T10:36:14Z</time>
      </trkpt>
      <trkpt lat="43.8451" lon="7.26362">
        <ele>777.20001220703</ele>
        <time>2012-12-30T10:36:22Z</time>
      </trkpt>
      <trkpt lat="43.84502" lon="7.2637">
        <ele>777.59997558594</ele>
        <time>2012-12-30T10:36:27Z</time>
      </trkpt>
      <trkpt lat="43.84499" lon="7.26371">
        <ele>777</ele>
        <time>2012-12-30T10:36:28Z</time>
      </trkpt>
      <trkpt lat="43.84489" lon="7.26374">
        <ele>774.20001220703</ele>
        <time>2012-12-30T10:36:31Z</time>
      </trkpt>
      <trkpt lat="43.84482" lon="7.2638">
        <ele>773.59997558594</ele>
        <time>2012-12-30T10:36:33Z</time>
      </trkpt>
      <trkpt lat="43.84476" lon="7.26386">
        <ele>773.79998779297</ele>
        <time>2012-12-30T10:36:35Z</time>
      </trkpt>
      <trkpt lat="43.84471" lon="7.26394">
        <ele>774.79998779297</ele>
        <time>2012-12-30T10:36:38Z</time>
      </trkpt>
      <trkpt lat="43.84465" lon="7.26402">
        <ele>775.79998779297</ele>
        <time>2012-12-30T10:36:43Z</time>
      </trkpt>
      <trkpt lat="43.84465" lon="7.26403">
        <ele>775.79998779297</ele>
        <time>2012-12-30T10:36:44Z</time>
      </trkpt>
      <trkpt lat="43.84463" lon="7.26408">
        <ele>777</ele>
        <time>2012-12-30T10:36:49Z</time>
      </trkpt>
      <trkpt lat="43.84462" lon="7.2641">
        <ele>777.40002441406</ele>
        <time>2012-12-30T10:36:51Z</time>
      </trkpt>
      <trkpt lat="43.84462" lon="7.2641">
        <ele>777.59997558594</ele>
        <time>2012-12-30T10:36:54Z</time>
      </trkpt>
      <trkpt lat="43.84462" lon="7.26411">
        <ele>777.40002441406</ele>
        <time>2012-12-30T10:36:55Z</time>
      </trkpt>
      <trkpt lat="43.84457" lon="7.26414">
        <ele>777</ele>
        <time>2012-12-30T10:37:01Z</time>
      </trkpt>
      <trkpt lat="43.84452" lon="7.26419">
        <ele>777</ele>
        <time>2012-12-30T10:37:08Z</time>
      </trkpt>
      <trkpt lat="43.84447" lon="7.26427">
        <ele>778.59997558594</ele>
        <time>2012-12-30T10:37:17Z</time>
      </trkpt>
      <trkpt lat="43.84444" lon="7.26433">
        <ele>779.20001220703</ele>
        <time>2012-12-30T10:37:25Z</time>
      </trkpt>
      <trkpt lat="43.84439" lon="7.2644">
        <ele>780</ele>
        <time>2012-12-30T10:37:32Z</time>
      </trkpt>
      <trkpt lat="43.8443" lon="7.26449">
        <ele>780.20001220703</ele>
        <time>2012-12-30T10:37:39Z</time>
      </trkpt>
      <trkpt lat="43.84418" lon="7.26456">
        <ele>778.59997558594</ele>
        <time>2012-12-30T10:37:47Z</time>
      </trkpt>
      <trkpt lat="43.84404" lon="7.26468">
        <ele>777.79998779297</ele>
        <time>2012-12-30T10:37:55Z</time>
      </trkpt>
      <trkpt lat="43.84398" lon="7.26478">
        <ele>779.20001220703</ele>
        <time>2012-12-30T10:38:00Z</time>
      </trkpt>
      <trkpt lat="43.84397" lon="7.26482">
        <ele>780.40002441406</ele>
        <time>2012-12-30T10:38:02Z</time>
      </trkpt>
      <trkpt lat="43.84398" lon="7.26483">
        <ele>781.40002441406</ele>
        <time>2012-12-30T10:38:04Z</time>
      </trkpt>
      <trkpt lat="43.84397" lon="7.26484">
        <ele>781.40002441406</ele>
        <time>2012-12-30T10:38:06Z</time>
      </trkpt>
      <trkpt lat="43.84396" lon="7.26483">
        <ele>780.79998779297</ele>
        <time>2012-12-30T10:38:08Z</time>
      </trkpt>
      <trkpt lat="43.84392" lon="7.26486">
        <ele>780.40002441406</ele>
        <time>2012-12-30T10:38:13Z</time>
      </trkpt>
      <trkpt lat="43.84392" lon="7.26487">
        <ele>780.40002441406</ele>
        <time>2012-12-30T10:38:14Z</time>
      </trkpt>
      <trkpt lat="43.8439" lon="7.2649">
        <ele>781</ele>
        <time>2012-12-30T10:38:18Z</time>
      </trkpt>
      <trkpt lat="43.84385" lon="7.26495">
        <ele>780.79998779297</ele>
        <time>2012-12-30T10:38:26Z</time>
      </trkpt>
      <trkpt lat="43.84383" lon="7.26497">
        <ele>780.79998779297</ele>
        <time>2012-12-30T10:38:28Z</time>
      </trkpt>
      <trkpt lat="43.8438" lon="7.26498">
        <ele>780.20001220703</ele>
        <time>2012-12-30T10:38:31Z</time>
      </trkpt>
      <trkpt lat="43.84373" lon="7.26507">
        <ele>779.59997558594</ele>
        <time>2012-12-30T10:38:36Z</time>
      </trkpt>
      <trkpt lat="43.84364" lon="7.26518">
        <ele>778.20001220703</ele>
        <time>2012-12-30T10:38:42Z</time>
      </trkpt>
      <trkpt lat="43.84363" lon="7.2652">
        <ele>778.20001220703</ele>
        <time>2012-12-30T10:38:43Z</time>
      </trkpt>
      <trkpt lat="43.84357" lon="7.26534">
        <ele>778.79998779297</ele>
        <time>2012-12-30T10:38:49Z</time>
      </trkpt>
      <trkpt lat="43.84356" lon="7.26539">
        <ele>779.59997558594</ele>
        <time>2012-12-30T10:38:51Z</time>
      </trkpt>
      <trkpt lat="43.84357" lon="7.26541">
        <ele>780.20001220703</ele>
        <time>2012-12-30T10:38:54Z</time>
      </trkpt>
      <trkpt lat="43.84358" lon="7.26547">
        <ele>782</ele>
        <time>2012-12-30T10:39:00Z</time>
      </trkpt>
      <trkpt lat="43.84359" lon="7.2655">
        <ele>782.79998779297</ele>
        <time>2012-12-30T10:39:02Z</time>
      </trkpt>
      <trkpt lat="43.84359" lon="7.2655">
        <ele>783</ele>
        <time>2012-12-30T10:39:03Z</time>
      </trkpt>
      <trkpt lat="43.8436" lon="7.2655">
        <ele>783.20001220703</ele>
        <time>2012-12-30T10:39:05Z</time>
      </trkpt>
      <trkpt lat="43.84362" lon="7.26553">
        <ele>785</ele>
        <time>2012-12-30T10:39:12Z</time>
      </trkpt>
      <trkpt lat="43.84366" lon="7.26558">
        <ele>787.59997558594</ele>
        <time>2012-12-30T10:39:18Z</time>
      </trkpt>
      <trkpt lat="43.84366" lon="7.2656">
        <ele>788.20001220703</ele>
        <time>2012-12-30T10:39:20Z</time>
      </trkpt>
      <trkpt lat="43.84367" lon="7.26564">
        <ele>789</ele>
        <time>2012-12-30T10:39:23Z</time>
      </trkpt>
      <trkpt lat="43.84367" lon="7.26565">
        <ele>789.59997558594</ele>
        <time>2012-12-30T10:39:24Z</time>
      </trkpt>
      <trkpt lat="43.84367" lon="7.26567">
        <ele>790.20001220703</ele>
        <time>2012-12-30T10:39:25Z</time>
      </trkpt>
      <trkpt lat="43.8437" lon="7.26578">
        <ele>793.40002441406</ele>
        <time>2012-12-30T10:39:29Z</time>
      </trkpt>
      <trkpt lat="43.84375" lon="7.26591">
        <ele>798.40002441406</ele>
        <time>2012-12-30T10:39:35Z</time>
      </trkpt>
      <trkpt lat="43.84377" lon="7.26593">
        <ele>799.59997558594</ele>
        <time>2012-12-30T10:39:37Z</time>
      </trkpt>
      <trkpt lat="43.84379" lon="7.26598">
        <ele>801.20001220703</ele>
        <time>2012-12-30T10:39:40Z</time>
      </trkpt>
      <trkpt lat="43.84383" lon="7.26603">
        <ele>803.40002441406</ele>
        <time>2012-12-30T10:39:44Z</time>
      </trkpt>
      <trkpt lat="43.84386" lon="7.26608">
        <ele>805.40002441406</ele>
        <time>2012-12-30T10:39:47Z</time>
      </trkpt>
      <trkpt lat="43.8439" lon="7.26619">
        <ele>808.59997558594</ele>
        <time>2012-12-30T10:39:53Z</time>
      </trkpt>
      <trkpt lat="43.84391" lon="7.2662">
        <ele>809</ele>
        <time>2012-12-30T10:39:54Z</time>
      </trkpt>
      <trkpt lat="43.84392" lon="7.26626">
        <ele>810</ele>
        <time>2012-12-30T10:39:58Z</time>
      </trkpt>
      <trkpt lat="43.84394" lon="7.26632">
        <ele>811.59997558594</ele>
        <time>2012-12-30T10:40:04Z</time>
      </trkpt>
      <trkpt lat="43.84396" lon="7.2664">
        <ele>813</ele>
        <time>2012-12-30T10:40:11Z</time>
      </trkpt>
      <trkpt lat="43.84395" lon="7.26644">
        <ele>813.20001220703</ele>
        <time>2012-12-30T10:40:15Z</time>
      </trkpt>
      <trkpt lat="43.84393" lon="7.26646">
        <ele>812.79998779297</ele>
        <time>2012-12-30T10:40:18Z</time>
      </trkpt>
      <trkpt lat="43.8439" lon="7.26648">
        <ele>812.40002441406</ele>
        <time>2012-12-30T10:40:20Z</time>
      </trkpt>
      <trkpt lat="43.84384" lon="7.26652">
        <ele>811.59997558594</ele>
        <time>2012-12-30T10:40:24Z</time>
      </trkpt>
      <trkpt lat="43.84376" lon="7.26657">
        <ele>810.40002441406</ele>
        <time>2012-12-30T10:40:30Z</time>
      </trkpt>
      <trkpt lat="43.84375" lon="7.26658">
        <ele>810.40002441406</ele>
        <time>2012-12-30T10:40:34Z</time>
      </trkpt>
      <trkpt lat="43.84373" lon="7.2666">
        <ele>810.20001220703</ele>
        <time>2012-12-30T10:40:37Z</time>
      </trkpt>
      <trkpt lat="43.84369" lon="7.26664">
        <ele>810</ele>
        <time>2012-12-30T10:40:43Z</time>
      </trkpt>
      <trkpt lat="43.84363" lon="7.26662">
        <ele>808.40002441406</ele>
        <time>2012-12-30T10:40:49Z</time>
      </trkpt>
      <trkpt lat="43.84361" lon="7.26663">
        <ele>808.20001220703</ele>
        <time>2012-12-30T10:40:51Z</time>
      </trkpt>
      <trkpt lat="43.8436" lon="7.26663">
        <ele>808</ele>
        <time>2012-12-30T10:40:54Z</time>
      </trkpt>
      <trkpt lat="43.84359" lon="7.26666">
        <ele>808.40002441406</ele>
        <time>2012-12-30T10:40:56Z</time>
      </trkpt>
      <trkpt lat="43.84356" lon="7.26668">
        <ele>808.20001220703</ele>
        <time>2012-12-30T10:40:59Z</time>
      </trkpt>
      <trkpt lat="43.84353" lon="7.26668">
        <ele>807.59997558594</ele>
        <time>2012-12-30T10:41:01Z</time>
      </trkpt>
      <trkpt lat="43.84343" lon="7.2667">
        <ele>806.20001220703</ele>
        <time>2012-12-30T10:41:06Z</time>
      </trkpt>
      <trkpt lat="43.84335" lon="7.26678">
        <ele>807.59997558594</ele>
        <time>2012-12-30T10:41:12Z</time>
      </trkpt>
      <trkpt lat="43.84324" lon="7.26684">
        <ele>808.20001220703</ele>
        <time>2012-12-30T10:41:18Z</time>
      </trkpt>
      <trkpt lat="43.84314" lon="7.26689">
        <ele>808.20001220703</ele>
        <time>2012-12-30T10:41:25Z</time>
      </trkpt>
      <trkpt lat="43.84304" lon="7.26693">
        <ele>808</ele>
        <time>2012-12-30T10:41:32Z</time>
      </trkpt>
      <trkpt lat="43.84293" lon="7.26699">
        <ele>808.59997558594</ele>
        <time>2012-12-30T10:41:40Z</time>
      </trkpt>
      <trkpt lat="43.84284" lon="7.26706">
        <ele>810</ele>
        <time>2012-12-30T10:41:47Z</time>
      </trkpt>
      <trkpt lat="43.84279" lon="7.26707">
        <ele>809.79998779297</ele>
        <time>2012-12-30T10:41:53Z</time>
      </trkpt>
      <trkpt lat="43.84276" lon="7.2671">
        <ele>810.40002441406</ele>
        <time>2012-12-30T10:41:59Z</time>
      </trkpt>
      <trkpt lat="43.84275" lon="7.26712">
        <ele>811.40002441406</ele>
        <time>2012-12-30T10:42:05Z</time>
      </trkpt>
      <trkpt lat="43.84274" lon="7.26713">
        <ele>811.59997558594</ele>
        <time>2012-12-30T10:42:06Z</time>
      </trkpt>
      <trkpt lat="43.8427" lon="7.26714">
        <ele>811.59997558594</ele>
        <time>2012-12-30T10:42:11Z</time>
      </trkpt>
      <trkpt lat="43.84266" lon="7.26717">
        <ele>812.20001220703</ele>
        <time>2012-12-30T10:42:16Z</time>
      </trkpt>
      <trkpt lat="43.84258" lon="7.26721">
        <ele>812.79998779297</ele>
        <time>2012-12-30T10:42:22Z</time>
      </trkpt>
      <trkpt lat="43.84256" lon="7.26722">
        <ele>812.79998779297</ele>
        <time>2012-12-30T10:42:24Z</time>
      </trkpt>
      <trkpt lat="43.84254" lon="7.26724">
        <ele>813.40002441406</ele>
        <time>2012-12-30T10:42:27Z</time>
      </trkpt>
      <trkpt lat="43.84249" lon="7.26728">
        <ele>814.20001220703</ele>
        <time>2012-12-30T10:42:31Z</time>
      </trkpt>
      <trkpt lat="43.84248" lon="7.2673">
        <ele>814.59997558594</ele>
        <time>2012-12-30T10:42:33Z</time>
      </trkpt>
      <trkpt lat="43.84245" lon="7.26731">
        <ele>814.59997558594</ele>
        <time>2012-12-30T10:42:39Z</time>
      </trkpt>
      <trkpt lat="43.84241" lon="7.26732">
        <ele>814.20001220703</ele>
        <time>2012-12-30T10:42:44Z</time>
      </trkpt>
      <trkpt lat="43.8424" lon="7.26732">
        <ele>814.40002441406</ele>
        <time>2012-12-30T10:42:45Z</time>
      </trkpt>
      <trkpt lat="43.84238" lon="7.26735">
        <ele>814.79998779297</ele>
        <time>2012-12-30T10:42:51Z</time>
      </trkpt>
      <trkpt lat="43.84233" lon="7.26739">
        <ele>815.59997558594</ele>
        <time>2012-12-30T10:42:58Z</time>
      </trkpt>
      <trkpt lat="43.84229" lon="7.26743">
        <ele>816.40002441406</ele>
        <time>2012-12-30T10:43:05Z</time>
      </trkpt>
      <trkpt lat="43.84227" lon="7.26745">
        <ele>816.59997558594</ele>
        <time>2012-12-30T10:43:08Z</time>
      </trkpt>
      <trkpt lat="43.84226" lon="7.26745">
        <ele>816.79998779297</ele>
        <time>2012-12-30T10:43:09Z</time>
      </trkpt>
      <trkpt lat="43.84225" lon="7.26746">
        <ele>817</ele>
        <time>2012-12-30T10:43:11Z</time>
      </trkpt>
      <trkpt lat="43.84225" lon="7.26747">
        <ele>817.20001220703</ele>
        <time>2012-12-30T10:43:18Z</time>
      </trkpt>
      <trkpt lat="43.84225" lon="7.26747">
        <ele>817.40002441406</ele>
        <time>2012-12-30T10:43:19Z</time>
      </trkpt>
      <trkpt lat="43.84225" lon="7.26747">
        <ele>817.40002441406</ele>
        <time>2012-12-30T10:43:20Z</time>
      </trkpt>
      <trkpt lat="43.84225" lon="7.26748">
        <ele>817.59997558594</ele>
        <time>2012-12-30T10:43:21Z</time>
      </trkpt>
      <trkpt lat="43.84223" lon="7.26749">
        <ele>817.40002441406</ele>
        <time>2012-12-30T10:43:31Z</time>
      </trkpt>
      <trkpt lat="43.84222" lon="7.26749">
        <ele>817.40002441406</ele>
        <time>2012-12-30T10:43:32Z</time>
      </trkpt>
      <trkpt lat="43.8422" lon="7.26751">
        <ele>817.79998779297</ele>
        <time>2012-12-30T10:43:34Z</time>
      </trkpt>
      <trkpt lat="43.84218" lon="7.26752">
        <ele>818</ele>
        <time>2012-12-30T10:43:36Z</time>
      </trkpt>
      <trkpt lat="43.84217" lon="7.26753">
        <ele>818</ele>
        <time>2012-12-30T10:43:37Z</time>
      </trkpt>
      <trkpt lat="43.84214" lon="7.26758">
        <ele>819.40002441406</ele>
        <time>2012-12-30T10:43:42Z</time>
      </trkpt>
      <trkpt lat="43.84212" lon="7.2676">
        <ele>819.79998779297</ele>
        <time>2012-12-30T10:43:45Z</time>
      </trkpt>
      <trkpt lat="43.8421" lon="7.26762">
        <ele>820.20001220703</ele>
        <time>2012-12-30T10:43:48Z</time>
      </trkpt>
      <trkpt lat="43.84209" lon="7.26764">
        <ele>820.79998779297</ele>
        <time>2012-12-30T10:43:51Z</time>
      </trkpt>
      <trkpt lat="43.84206" lon="7.26768">
        <ele>821.59997558594</ele>
        <time>2012-12-30T10:43:55Z</time>
      </trkpt>
      <trkpt lat="43.84203" lon="7.26772">
        <ele>822.59997558594</ele>
        <time>2012-12-30T10:44:01Z</time>
      </trkpt>
      <trkpt lat="43.84201" lon="7.26774">
        <ele>823.20001220703</ele>
        <time>2012-12-30T10:44:04Z</time>
      </trkpt>
      <trkpt lat="43.84199" lon="7.26777">
        <ele>824</ele>
        <time>2012-12-30T10:44:08Z</time>
      </trkpt>
      <trkpt lat="43.84197" lon="7.26783">
        <ele>825.79998779297</ele>
        <time>2012-12-30T10:44:12Z</time>
      </trkpt>
      <trkpt lat="43.84196" lon="7.26784">
        <ele>826.20001220703</ele>
        <time>2012-12-30T10:44:13Z</time>
      </trkpt>
      <trkpt lat="43.84195" lon="7.26787">
        <ele>826.79998779297</ele>
        <time>2012-12-30T10:44:16Z</time>
      </trkpt>
      <trkpt lat="43.84193" lon="7.2679">
        <ele>827.59997558594</ele>
        <time>2012-12-30T10:44:20Z</time>
      </trkpt>
      <trkpt lat="43.84192" lon="7.2679">
        <ele>827.79998779297</ele>
        <time>2012-12-30T10:44:21Z</time>
      </trkpt>
      <trkpt lat="43.84191" lon="7.26792">
        <ele>828.40002441406</ele>
        <time>2012-12-30T10:44:23Z</time>
      </trkpt>
      <trkpt lat="43.84188" lon="7.26798">
        <ele>830</ele>
        <time>2012-12-30T10:44:30Z</time>
      </trkpt>
      <trkpt lat="43.84187" lon="7.26799">
        <ele>830.20001220703</ele>
        <time>2012-12-30T10:44:31Z</time>
      </trkpt>
      <trkpt lat="43.84185" lon="7.26801">
        <ele>830.20001220703</ele>
        <time>2012-12-30T10:44:35Z</time>
      </trkpt>
      <trkpt lat="43.84181" lon="7.26806">
        <ele>831.20001220703</ele>
        <time>2012-12-30T10:44:39Z</time>
      </trkpt>
      <trkpt lat="43.8418" lon="7.26807">
        <ele>831.40002441406</ele>
        <time>2012-12-30T10:44:40Z</time>
      </trkpt>
      <trkpt lat="43.84179" lon="7.26808">
        <ele>831.79998779297</ele>
        <time>2012-12-30T10:44:41Z</time>
      </trkpt>
      <trkpt lat="43.84174" lon="7.26814">
        <ele>832.59997558594</ele>
        <time>2012-12-30T10:44:47Z</time>
      </trkpt>
      <trkpt lat="43.84172" lon="7.26815">
        <ele>832.79998779297</ele>
        <time>2012-12-30T10:44:48Z</time>
      </trkpt>
      <trkpt lat="43.8417" lon="7.26816">
        <ele>833</ele>
        <time>2012-12-30T10:44:50Z</time>
      </trkpt>
      <trkpt lat="43.84169" lon="7.26817">
        <ele>833</ele>
        <time>2012-12-30T10:44:51Z</time>
      </trkpt>
      <trkpt lat="43.84164" lon="7.26822">
        <ele>833.79998779297</ele>
        <time>2012-12-30T10:44:55Z</time>
      </trkpt>
      <trkpt lat="43.84161" lon="7.26826">
        <ele>834.40002441406</ele>
        <time>2012-12-30T10:44:58Z</time>
      </trkpt>
      <trkpt lat="43.84159" lon="7.26828">
        <ele>835</ele>
        <time>2012-12-30T10:45:01Z</time>
      </trkpt>
      <trkpt lat="43.84156" lon="7.26828">
        <ele>834.20001220703</ele>
        <time>2012-12-30T10:45:07Z</time>
      </trkpt>
      <trkpt lat="43.84156" lon="7.26829">
        <ele>834.40002441406</ele>
        <time>2012-12-30T10:45:08Z</time>
      </trkpt>
      <trkpt lat="43.84153" lon="7.26834">
        <ele>835.59997558594</ele>
        <time>2012-12-30T10:45:13Z</time>
      </trkpt>
      <trkpt lat="43.84149" lon="7.2684">
        <ele>836.59997558594</ele>
        <time>2012-12-30T10:45:20Z</time>
      </trkpt>
      <trkpt lat="43.84148" lon="7.26841">
        <ele>836.79998779297</ele>
        <time>2012-12-30T10:45:22Z</time>
      </trkpt>
      <trkpt lat="43.84144" lon="7.26843">
        <ele>836.59997558594</ele>
        <time>2012-12-30T10:45:27Z</time>
      </trkpt>
      <trkpt lat="43.8414" lon="7.26847">
        <ele>836.59997558594</ele>
        <time>2012-12-30T10:45:34Z</time>
      </trkpt>
      <trkpt lat="43.84135" lon="7.26855">
        <ele>838.40002441406</ele>
        <time>2012-12-30T10:45:43Z</time>
      </trkpt>
      <trkpt lat="43.84132" lon="7.2686">
        <ele>839.40002441406</ele>
        <time>2012-12-30T10:45:50Z</time>
      </trkpt>
      <trkpt lat="43.84131" lon="7.2686">
        <ele>839.40002441406</ele>
        <time>2012-12-30T10:45:51Z</time>
      </trkpt>
      <trkpt lat="43.8413" lon="7.26862">
        <ele>839.79998779297</ele>
        <time>2012-12-30T10:45:53Z</time>
      </trkpt>
      <trkpt lat="43.84127" lon="7.26867">
        <ele>840.59997558594</ele>
        <time>2012-12-30T10:45:57Z</time>
      </trkpt>
      <trkpt lat="43.84126" lon="7.26869">
        <ele>841.20001220703</ele>
        <time>2012-12-30T10:46:00Z</time>
      </trkpt>
      <trkpt lat="43.84124" lon="7.26873">
        <ele>842</ele>
        <time>2012-12-30T10:46:04Z</time>
      </trkpt>
      <trkpt lat="43.8412" lon="7.26875">
        <ele>842</ele>
        <time>2012-12-30T10:46:10Z</time>
      </trkpt>
      <trkpt lat="43.84115" lon="7.26879">
        <ele>842</ele>
        <time>2012-12-30T10:46:16Z</time>
      </trkpt>
      <trkpt lat="43.84114" lon="7.2688">
        <ele>842.40002441406</ele>
        <time>2012-12-30T10:46:18Z</time>
      </trkpt>
      <trkpt lat="43.84112" lon="7.26883">
        <ele>842.79998779297</ele>
        <time>2012-12-30T10:46:24Z</time>
      </trkpt>
      <trkpt lat="43.84108" lon="7.26886">
        <ele>842.59997558594</ele>
        <time>2012-12-30T10:46:30Z</time>
      </trkpt>
      <trkpt lat="43.84104" lon="7.26889">
        <ele>842.79998779297</ele>
        <time>2012-12-30T10:46:36Z</time>
      </trkpt>
      <trkpt lat="43.84102" lon="7.26894">
        <ele>844.20001220703</ele>
        <time>2012-12-30T10:46:43Z</time>
      </trkpt>
      <trkpt lat="43.84096" lon="7.26898">
        <ele>844</ele>
        <time>2012-12-30T10:46:50Z</time>
      </trkpt>
      <trkpt lat="43.84094" lon="7.26899">
        <ele>844</ele>
        <time>2012-12-30T10:46:56Z</time>
      </trkpt>
      <trkpt lat="43.84092" lon="7.26903">
        <ele>845.20001220703</ele>
        <time>2012-12-30T10:47:04Z</time>
      </trkpt>
      <trkpt lat="43.8409" lon="7.26908">
        <ele>846.20001220703</ele>
        <time>2012-12-30T10:47:10Z</time>
      </trkpt>
      <trkpt lat="43.84083" lon="7.2691">
        <ele>845.40002441406</ele>
        <time>2012-12-30T10:47:14Z</time>
      </trkpt>
      <trkpt lat="43.8408" lon="7.26912">
        <ele>845.40002441406</ele>
        <time>2012-12-30T10:47:16Z</time>
      </trkpt>
      <trkpt lat="43.84073" lon="7.2692">
        <ele>846.59997558594</ele>
        <time>2012-12-30T10:47:23Z</time>
      </trkpt>
      <trkpt lat="43.84072" lon="7.26921">
        <ele>846.79998779297</ele>
        <time>2012-12-30T10:47:24Z</time>
      </trkpt>
      <trkpt lat="43.8407" lon="7.26927">
        <ele>848.40002441406</ele>
        <time>2012-12-30T10:47:28Z</time>
      </trkpt>
      <trkpt lat="43.84068" lon="7.26928">
        <ele>848.40002441406</ele>
        <time>2012-12-30T10:47:29Z</time>
      </trkpt>
      <trkpt lat="43.84068" lon="7.26929">
        <ele>848.40002441406</ele>
        <time>2012-12-30T10:47:30Z</time>
      </trkpt>
      <trkpt lat="43.84067" lon="7.26929">
        <ele>848.20001220703</ele>
        <time>2012-12-30T10:47:31Z</time>
      </trkpt>
      <trkpt lat="43.84066" lon="7.26929">
        <ele>848.20001220703</ele>
        <time>2012-12-30T10:47:32Z</time>
      </trkpt>
      <trkpt lat="43.84067" lon="7.26929">
        <ele>848.40002441406</ele>
        <time>2012-12-30T10:47:33Z</time>
      </trkpt>
      <trkpt lat="43.84066" lon="7.2693">
        <ele>848.59997558594</ele>
        <time>2012-12-30T10:47:35Z</time>
      </trkpt>
      <trkpt lat="43.84065" lon="7.26932">
        <ele>848.79998779297</ele>
        <time>2012-12-30T10:47:36Z</time>
      </trkpt>
      <trkpt lat="43.84064" lon="7.26933">
        <ele>849.40002441406</ele>
        <time>2012-12-30T10:47:38Z</time>
      </trkpt>
      <trkpt lat="43.84059" lon="7.26938">
        <ele>849.59997558594</ele>
        <time>2012-12-30T10:47:44Z</time>
      </trkpt>
      <trkpt lat="43.84058" lon="7.26937">
        <ele>849.20001220703</ele>
        <time>2012-12-30T10:47:45Z</time>
      </trkpt>
      <trkpt lat="43.84053" lon="7.26939">
        <ele>848.59997558594</ele>
        <time>2012-12-30T10:47:49Z</time>
      </trkpt>
      <trkpt lat="43.84052" lon="7.2694">
        <ele>848.79998779297</ele>
        <time>2012-12-30T10:47:51Z</time>
      </trkpt>
      <trkpt lat="43.8405" lon="7.26945">
        <ele>849.59997558594</ele>
        <time>2012-12-30T10:47:56Z</time>
      </trkpt>
      <trkpt lat="43.84046" lon="7.26951">
        <ele>851</ele>
        <time>2012-12-30T10:48:04Z</time>
      </trkpt>
      <trkpt lat="43.84044" lon="7.26956">
        <ele>851.59997558594</ele>
        <time>2012-12-30T10:48:10Z</time>
      </trkpt>
      <trkpt lat="43.84043" lon="7.26957">
        <ele>851.79998779297</ele>
        <time>2012-12-30T10:48:11Z</time>
      </trkpt>
      <trkpt lat="43.84039" lon="7.26963">
        <ele>852.79998779297</ele>
        <time>2012-12-30T10:48:17Z</time>
      </trkpt>
      <trkpt lat="43.84039" lon="7.26964">
        <ele>853.20001220703</ele>
        <time>2012-12-30T10:48:18Z</time>
      </trkpt>
      <trkpt lat="43.84036" lon="7.26971">
        <ele>854.79998779297</ele>
        <time>2012-12-30T10:48:24Z</time>
      </trkpt>
      <trkpt lat="43.8403" lon="7.26981">
        <ele>856.40002441406</ele>
        <time>2012-12-30T10:48:31Z</time>
      </trkpt>
      <trkpt lat="43.84029" lon="7.26984">
        <ele>857.20001220703</ele>
        <time>2012-12-30T10:48:33Z</time>
      </trkpt>
      <trkpt lat="43.84029" lon="7.26985">
        <ele>857.79998779297</ele>
        <time>2012-12-30T10:48:37Z</time>
      </trkpt>
      <trkpt lat="43.84027" lon="7.26988">
        <ele>857.79998779297</ele>
        <time>2012-12-30T10:48:42Z</time>
      </trkpt>
      <trkpt lat="43.84027" lon="7.2699">
        <ele>858.59997558594</ele>
        <time>2012-12-30T10:48:44Z</time>
      </trkpt>
      <trkpt lat="43.84024" lon="7.26995">
        <ele>859.59997558594</ele>
        <time>2012-12-30T10:48:52Z</time>
      </trkpt>
      <trkpt lat="43.8402" lon="7.27001">
        <ele>860</ele>
        <time>2012-12-30T10:48:58Z</time>
      </trkpt>
      <trkpt lat="43.84013" lon="7.27009">
        <ele>860.79998779297</ele>
        <time>2012-12-30T10:49:03Z</time>
      </trkpt>
      <trkpt lat="43.84009" lon="7.27018">
        <ele>862.20001220703</ele>
        <time>2012-12-30T10:49:08Z</time>
      </trkpt>
      <trkpt lat="43.84007" lon="7.27019">
        <ele>862.20001220703</ele>
        <time>2012-12-30T10:49:09Z</time>
      </trkpt>
      <trkpt lat="43.84" lon="7.27027">
        <ele>862.40002441406</ele>
        <time>2012-12-30T10:49:14Z</time>
      </trkpt>
      <trkpt lat="43.83998" lon="7.27028">
        <ele>862.40002441406</ele>
        <time>2012-12-30T10:49:15Z</time>
      </trkpt>
      <trkpt lat="43.8399" lon="7.27042">
        <ele>865.20001220703</ele>
        <time>2012-12-30T10:49:20Z</time>
      </trkpt>
      <trkpt lat="43.83983" lon="7.27052">
        <ele>867.20001220703</ele>
        <time>2012-12-30T10:49:26Z</time>
      </trkpt>
      <trkpt lat="43.83974" lon="7.27062">
        <ele>868.79998779297</ele>
        <time>2012-12-30T10:49:33Z</time>
      </trkpt>
      <trkpt lat="43.83972" lon="7.27065">
        <ele>869.20001220703</ele>
        <time>2012-12-30T10:49:35Z</time>
      </trkpt>
      <trkpt lat="43.8397" lon="7.27066">
        <ele>869.20001220703</ele>
        <time>2012-12-30T10:49:37Z</time>
      </trkpt>
      <trkpt lat="43.83968" lon="7.27068">
        <ele>869.40002441406</ele>
        <time>2012-12-30T10:49:39Z</time>
      </trkpt>
      <trkpt lat="43.83966" lon="7.2707">
        <ele>869.59997558594</ele>
        <time>2012-12-30T10:49:42Z</time>
      </trkpt>
      <trkpt lat="43.83966" lon="7.27071">
        <ele>870</ele>
        <time>2012-12-30T10:49:44Z</time>
      </trkpt>
      <trkpt lat="43.83961" lon="7.27075">
        <ele>870.59997558594</ele>
        <time>2012-12-30T10:49:50Z</time>
      </trkpt>
      <trkpt lat="43.83955" lon="7.27079">
        <ele>870.59997558594</ele>
        <time>2012-12-30T10:49:55Z</time>
      </trkpt>
      <trkpt lat="43.83954" lon="7.27081">
        <ele>870.79998779297</ele>
        <time>2012-12-30T10:49:56Z</time>
      </trkpt>
      <trkpt lat="43.83952" lon="7.27082">
        <ele>871</ele>
        <time>2012-12-30T10:49:57Z</time>
      </trkpt>
      <trkpt lat="43.83944" lon="7.27087">
        <ele>870.79998779297</ele>
        <time>2012-12-30T10:50:04Z</time>
      </trkpt>
      <trkpt lat="43.83944" lon="7.27087">
        <ele>870.79998779297</ele>
        <time>2012-12-30T10:50:05Z</time>
      </trkpt>
      <trkpt lat="43.8394" lon="7.27088">
        <ele>870.20001220703</ele>
        <time>2012-12-30T10:50:11Z</time>
      </trkpt>
      <trkpt lat="43.83939" lon="7.27088">
        <ele>870</ele>
        <time>2012-12-30T10:50:13Z</time>
      </trkpt>
      <trkpt lat="43.8394" lon="7.27088">
        <ele>870.40002441406</ele>
        <time>2012-12-30T10:50:19Z</time>
      </trkpt>
      <trkpt lat="43.8394" lon="7.27088">
        <ele>870.20001220703</ele>
        <time>2012-12-30T10:50:20Z</time>
      </trkpt>
      <trkpt lat="43.83943" lon="7.2709">
        <ele>871.40002441406</ele>
        <time>2012-12-30T10:50:27Z</time>
      </trkpt>
      <trkpt lat="43.83943" lon="7.27089">
        <ele>871.20001220703</ele>
        <time>2012-12-30T10:50:34Z</time>
      </trkpt>
      <trkpt lat="43.8394" lon="7.27087">
        <ele>870.20001220703</ele>
        <time>2012-12-30T10:50:44Z</time>
      </trkpt>
      <trkpt lat="43.83939" lon="7.27088">
        <ele>870.40002441406</ele>
        <time>2012-12-30T10:50:46Z</time>
      </trkpt>
      <trkpt lat="43.83939" lon="7.27089">
        <ele>870.40002441406</ele>
        <time>2012-12-30T10:50:51Z</time>
      </trkpt>
      <trkpt lat="43.83939" lon="7.2709">
        <ele>870.40002441406</ele>
        <time>2012-12-30T10:51:01Z</time>
      </trkpt>
      <trkpt lat="43.83939" lon="7.27093">
        <ele>871.40002441406</ele>
        <time>2012-12-30T10:51:08Z</time>
      </trkpt>
      <trkpt lat="43.83938" lon="7.27093">
        <ele>871.40002441406</ele>
        <time>2012-12-30T10:51:11Z</time>
      </trkpt>
      <trkpt lat="43.83938" lon="7.27094">
        <ele>871.79998779297</ele>
        <time>2012-12-30T10:51:12Z</time>
      </trkpt>
      <trkpt lat="43.8394" lon="7.27096">
        <ele>872.40002441406</ele>
        <time>2012-12-30T10:51:14Z</time>
      </trkpt>
      <trkpt lat="43.83941" lon="7.27097">
        <ele>873</ele>
        <time>2012-12-30T10:51:16Z</time>
      </trkpt>
      <trkpt lat="43.83945" lon="7.271">
        <ele>874.59997558594</ele>
        <time>2012-12-30T10:51:34Z</time>
      </trkpt>
      <trkpt lat="43.83944" lon="7.27098">
        <ele>873.79998779297</ele>
        <time>2012-12-30T10:51:38Z</time>
      </trkpt>
      <trkpt lat="43.83943" lon="7.27098">
        <ele>873.59997558594</ele>
        <time>2012-12-30T10:51:39Z</time>
      </trkpt>
      <trkpt lat="43.83942" lon="7.27096">
        <ele>873</ele>
        <time>2012-12-30T10:51:44Z</time>
      </trkpt>
      <trkpt lat="43.83938" lon="7.27092">
        <ele>871</ele>
        <time>2012-12-30T10:51:50Z</time>
      </trkpt>
      <trkpt lat="43.83937" lon="7.2709">
        <ele>870.40002441406</ele>
        <time>2012-12-30T10:51:54Z</time>
      </trkpt>
      <trkpt lat="43.83939" lon="7.27091">
        <ele>870.79998779297</ele>
        <time>2012-12-30T10:52:05Z</time>
      </trkpt>
      <trkpt lat="43.83936" lon="7.27089">
        <ele>869.79998779297</ele>
        <time>2012-12-30T10:52:12Z</time>
      </trkpt>
      <trkpt lat="43.83935" lon="7.27088">
        <ele>869.40002441406</ele>
        <time>2012-12-30T10:52:13Z</time>
      </trkpt>
      <trkpt lat="43.83933" lon="7.27087">
        <ele>868.79998779297</ele>
        <time>2012-12-30T10:52:14Z</time>
      </trkpt>
      <trkpt lat="43.83931" lon="7.27083">
        <ele>867.40002441406</ele>
        <time>2012-12-30T10:52:16Z</time>
      </trkpt>
      <trkpt lat="43.83929" lon="7.27082">
        <ele>866.59997558594</ele>
        <time>2012-12-30T10:52:17Z</time>
      </trkpt>
      <trkpt lat="43.83928" lon="7.27081">
        <ele>866.20001220703</ele>
        <time>2012-12-30T10:52:22Z</time>
      </trkpt>
      <trkpt lat="43.8393" lon="7.27083">
        <ele>867</ele>
        <time>2012-12-30T10:52:25Z</time>
      </trkpt>
      <trkpt lat="43.8393" lon="7.27086">
        <ele>868.20001220703</ele>
        <time>2012-12-30T10:52:30Z</time>
      </trkpt>
      <trkpt lat="43.83929" lon="7.27086">
        <ele>868</ele>
        <time>2012-12-30T10:52:31Z</time>
      </trkpt>
      <trkpt lat="43.83929" lon="7.27087">
        <ele>868.20001220703</ele>
        <time>2012-12-30T10:52:32Z</time>
      </trkpt>
      <trkpt lat="43.83929" lon="7.27086">
        <ele>868</ele>
        <time>2012-12-30T10:52:33Z</time>
      </trkpt>
      <trkpt lat="43.83931" lon="7.27087">
        <ele>868.40002441406</ele>
        <time>2012-12-30T10:52:36Z</time>
      </trkpt>
      <trkpt lat="43.83931" lon="7.27086">
        <ele>868.20001220703</ele>
        <time>2012-12-30T10:52:38Z</time>
      </trkpt>
      <trkpt lat="43.83934" lon="7.27092">
        <ele>870.40002441406</ele>
        <time>2012-12-30T10:52:43Z</time>
      </trkpt>
      <trkpt lat="43.83935" lon="7.27091">
        <ele>870.40002441406</ele>
        <time>2012-12-30T10:52:46Z</time>
      </trkpt>
      <trkpt lat="43.8394" lon="7.27094">
        <ele>872</ele>
        <time>2012-12-30T10:53:10Z</time>
      </trkpt>
      <trkpt lat="43.83937" lon="7.27092">
        <ele>871</ele>
        <time>2012-12-30T10:53:31Z</time>
      </trkpt>
      <trkpt lat="43.83937" lon="7.27091">
        <ele>870.59997558594</ele>
        <time>2012-12-30T10:53:32Z</time>
      </trkpt>
      <trkpt lat="43.83934" lon="7.27087">
        <ele>869</ele>
        <time>2012-12-30T10:53:47Z</time>
      </trkpt>
      <trkpt lat="43.83937" lon="7.27089">
        <ele>870</ele>
        <time>2012-12-30T10:53:54Z</time>
      </trkpt>
      <trkpt lat="43.83937" lon="7.27089">
        <ele>870</ele>
        <time>2012-12-30T10:53:55Z</time>
      </trkpt>
      <trkpt lat="43.83936" lon="7.27089">
        <ele>870</ele>
        <time>2012-12-30T10:53:56Z</time>
      </trkpt>
      <trkpt lat="43.83936" lon="7.27089">
        <ele>870</ele>
        <time>2012-12-30T10:53:57Z</time>
      </trkpt>
      <trkpt lat="43.83936" lon="7.2709">
        <ele>870.20001220703</ele>
        <time>2012-12-30T10:53:58Z</time>
      </trkpt>
      <trkpt lat="43.83936" lon="7.27098">
        <ele>872.20001220703</ele>
        <time>2012-12-30T10:54:38Z</time>
      </trkpt>
      <trkpt lat="43.83936" lon="7.27099">
        <ele>872.40002441406</ele>
        <time>2012-12-30T10:54:44Z</time>
      </trkpt>
      <trkpt lat="43.83936" lon="7.271">
        <ele>872.79998779297</ele>
        <time>2012-12-30T10:54:48Z</time>
      </trkpt>
      <trkpt lat="43.83934" lon="7.27104">
        <ele>873.40002441406</ele>
        <time>2012-12-30T10:54:54Z</time>
      </trkpt>
      <trkpt lat="43.83933" lon="7.27106">
        <ele>873.79998779297</ele>
        <time>2012-12-30T10:54:58Z</time>
      </trkpt>
      <trkpt lat="43.83936" lon="7.27103">
        <ele>873.79998779297</ele>
        <time>2012-12-30T10:55:06Z</time>
      </trkpt>
      <trkpt lat="43.83938" lon="7.27098">
        <ele>872.79998779297</ele>
        <time>2012-12-30T10:55:17Z</time>
      </trkpt>
      <trkpt lat="43.8394" lon="7.27092">
        <ele>871.20001220703</ele>
        <time>2012-12-30T10:55:47Z</time>
      </trkpt>
      <trkpt lat="43.83941" lon="7.2709">
        <ele>871</ele>
        <time>2012-12-30T10:55:56Z</time>
      </trkpt>
      <trkpt lat="43.8394" lon="7.2709">
        <ele>870.79998779297</ele>
        <time>2012-12-30T10:56:03Z</time>
      </trkpt>
      <trkpt lat="43.83941" lon="7.27093">
        <ele>871.79998779297</ele>
        <time>2012-12-30T10:56:21Z</time>
      </trkpt>
      <trkpt lat="43.8394" lon="7.27093">
        <ele>871.79998779297</ele>
        <time>2012-12-30T10:56:29Z</time>
      </trkpt>
      <trkpt lat="43.8394" lon="7.27095">
        <ele>872.20001220703</ele>
        <time>2012-12-30T10:56:31Z</time>
      </trkpt>
      <trkpt lat="43.83941" lon="7.27096">
        <ele>872.59997558594</ele>
        <time>2012-12-30T10:56:34Z</time>
      </trkpt>
      <trkpt lat="43.83942" lon="7.27097">
        <ele>873.20001220703</ele>
        <time>2012-12-30T10:56:44Z</time>
      </trkpt>
      <trkpt lat="43.83943" lon="7.27098">
        <ele>873.40002441406</ele>
        <time>2012-12-30T10:56:45Z</time>
      </trkpt>
      <trkpt lat="43.83942" lon="7.27098">
        <ele>873.40002441406</ele>
        <time>2012-12-30T10:56:48Z</time>
      </trkpt>
      <trkpt lat="43.83941" lon="7.27096">
        <ele>872.59997558594</ele>
        <time>2012-12-30T10:56:50Z</time>
      </trkpt>
      <trkpt lat="43.8394" lon="7.27096">
        <ele>872.40002441406</ele>
        <time>2012-12-30T10:56:51Z</time>
      </trkpt>
      <trkpt lat="43.83936" lon="7.27094">
        <ele>871.20001220703</ele>
        <time>2012-12-30T10:57:28Z</time>
      </trkpt>
      <trkpt lat="43.83936" lon="7.27094">
        <ele>871.20001220703</ele>
        <time>2012-12-30T10:57:29Z</time>
      </trkpt>
      <trkpt lat="43.83935" lon="7.27094">
        <ele>871</ele>
        <time>2012-12-30T10:57:30Z</time>
      </trkpt>
      <trkpt lat="43.83927" lon="7.27097">
        <ele>870.40002441406</ele>
        <time>2012-12-30T10:57:36Z</time>
      </trkpt>
      <trkpt lat="43.83925" lon="7.27098">
        <ele>870.20001220703</ele>
        <time>2012-12-30T10:57:37Z</time>
      </trkpt>
      <trkpt lat="43.83918" lon="7.27101">
        <ele>869.59997558594</ele>
        <time>2012-12-30T10:57:42Z</time>
      </trkpt>
      <trkpt lat="43.83916" lon="7.27102">
        <ele>869.59997558594</ele>
        <time>2012-12-30T10:57:43Z</time>
      </trkpt>
      <trkpt lat="43.83908" lon="7.27106">
        <ele>870</ele>
        <time>2012-12-30T10:57:47Z</time>
      </trkpt>
      <trkpt lat="43.83901" lon="7.2711">
        <ele>870.40002441406</ele>
        <time>2012-12-30T10:57:50Z</time>
      </trkpt>
      <trkpt lat="43.83897" lon="7.27112">
        <ele>870.59997558594</ele>
        <time>2012-12-30T10:57:52Z</time>
      </trkpt>
      <trkpt lat="43.83892" lon="7.27114">
        <ele>870.79998779297</ele>
        <time>2012-12-30T10:57:54Z</time>
      </trkpt>
      <trkpt lat="43.83879" lon="7.27119">
        <ele>871</ele>
        <time>2012-12-30T10:57:59Z</time>
      </trkpt>
      <trkpt lat="43.83876" lon="7.27119">
        <ele>870.79998779297</ele>
        <time>2012-12-30T10:58:00Z</time>
      </trkpt>
      <trkpt lat="43.8387" lon="7.27123">
        <ele>871.20001220703</ele>
        <time>2012-12-30T10:58:02Z</time>
      </trkpt>
      <trkpt lat="43.83866" lon="7.27125">
        <ele>871.40002441406</ele>
        <time>2012-12-30T10:58:03Z</time>
      </trkpt>
      <trkpt lat="43.83849" lon="7.27133">
        <ele>871.79998779297</ele>
        <time>2012-12-30T10:58:08Z</time>
      </trkpt>
      <trkpt lat="43.83835" lon="7.27131">
        <ele>870.20001220703</ele>
        <time>2012-12-30T10:58:13Z</time>
      </trkpt>
      <trkpt lat="43.83822" lon="7.27125">
        <ele>870.59997558594</ele>
        <time>2012-12-30T10:58:19Z</time>
      </trkpt>
      <trkpt lat="43.83818" lon="7.27116">
        <ele>869</ele>
        <time>2012-12-30T10:58:24Z</time>
      </trkpt>
      <trkpt lat="43.83817" lon="7.27114">
        <ele>868.59997558594</ele>
        <time>2012-12-30T10:58:28Z</time>
      </trkpt>
      <trkpt lat="43.83816" lon="7.27111">
        <ele>868.20001220703</ele>
        <time>2012-12-30T10:58:30Z</time>
      </trkpt>
      <trkpt lat="43.83815" lon="7.2711">
        <ele>868.20001220703</ele>
        <time>2012-12-30T10:58:31Z</time>
      </trkpt>
      <trkpt lat="43.83814" lon="7.27108">
        <ele>867.79998779297</ele>
        <time>2012-12-30T10:58:33Z</time>
      </trkpt>
      <trkpt lat="43.8381" lon="7.27104">
        <ele>867.20001220703</ele>
        <time>2012-12-30T10:58:35Z</time>
      </trkpt>
      <trkpt lat="43.83809" lon="7.27102">
        <ele>867</ele>
        <time>2012-12-30T10:58:36Z</time>
      </trkpt>
      <trkpt lat="43.83805" lon="7.27101">
        <ele>867.20001220703</ele>
        <time>2012-12-30T10:58:38Z</time>
      </trkpt>
      <trkpt lat="43.83798" lon="7.27096">
        <ele>866.79998779297</ele>
        <time>2012-12-30T10:58:42Z</time>
      </trkpt>
      <trkpt lat="43.83784" lon="7.27088">
        <ele>866.59997558594</ele>
        <time>2012-12-30T10:58:49Z</time>
      </trkpt>
      <trkpt lat="43.83781" lon="7.27088">
        <ele>866.79998779297</ele>
        <time>2012-12-30T10:58:51Z</time>
      </trkpt>
      <trkpt lat="43.83775" lon="7.27088">
        <ele>867.40002441406</ele>
        <time>2012-12-30T10:58:54Z</time>
      </trkpt>
      <trkpt lat="43.83766" lon="7.27086">
        <ele>868</ele>
        <time>2012-12-30T10:59:00Z</time>
      </trkpt>
      <trkpt lat="43.83757" lon="7.27089">
        <ele>869.59997558594</ele>
        <time>2012-12-30T10:59:07Z</time>
      </trkpt>
      <trkpt lat="43.83756" lon="7.27089">
        <ele>869.79998779297</ele>
        <time>2012-12-30T10:59:08Z</time>
      </trkpt>
      <trkpt lat="43.83754" lon="7.2709">
        <ele>870.40002441406</ele>
        <time>2012-12-30T10:59:11Z</time>
      </trkpt>
      <trkpt lat="43.83753" lon="7.2709">
        <ele>870.59997558594</ele>
        <time>2012-12-30T10:59:12Z</time>
      </trkpt>
      <trkpt lat="43.83752" lon="7.27093">
        <ele>871.40002441406</ele>
        <time>2012-12-30T10:59:15Z</time>
      </trkpt>
      <trkpt lat="43.83751" lon="7.27092">
        <ele>871.20001220703</ele>
        <time>2012-12-30T10:59:17Z</time>
      </trkpt>
      <trkpt lat="43.83746" lon="7.27095">
        <ele>872.20001220703</ele>
        <time>2012-12-30T10:59:31Z</time>
      </trkpt>
      <trkpt lat="43.83739" lon="7.27094">
        <ele>872.20001220703</ele>
        <time>2012-12-30T10:59:39Z</time>
      </trkpt>
      <trkpt lat="43.83733" lon="7.27097">
        <ele>873.40002441406</ele>
        <time>2012-12-30T10:59:47Z</time>
      </trkpt>
      <trkpt lat="43.83732" lon="7.27097">
        <ele>873.40002441406</ele>
        <time>2012-12-30T10:59:48Z</time>
      </trkpt>
      <trkpt lat="43.83727" lon="7.27096">
        <ele>873.20001220703</ele>
        <time>2012-12-30T10:59:53Z</time>
      </trkpt>
      <trkpt lat="43.83718" lon="7.27097">
        <ele>873.79998779297</ele>
        <time>2012-12-30T10:59:59Z</time>
      </trkpt>
      <trkpt lat="43.83709" lon="7.27102">
        <ele>875.40002441406</ele>
        <time>2012-12-30T11:00:06Z</time>
      </trkpt>
      <trkpt lat="43.83701" lon="7.27111">
        <ele>878</ele>
        <time>2012-12-30T11:00:13Z</time>
      </trkpt>
      <trkpt lat="43.83699" lon="7.27112">
        <ele>878.40002441406</ele>
        <time>2012-12-30T11:00:17Z</time>
      </trkpt>
      <trkpt lat="43.83695" lon="7.27112">
        <ele>878.40002441406</ele>
        <time>2012-12-30T11:00:24Z</time>
      </trkpt>
      <trkpt lat="43.83693" lon="7.27112">
        <ele>878.59997558594</ele>
        <time>2012-12-30T11:00:26Z</time>
      </trkpt>
      <trkpt lat="43.83691" lon="7.27113">
        <ele>878.79998779297</ele>
        <time>2012-12-30T11:00:29Z</time>
      </trkpt>
      <trkpt lat="43.8369" lon="7.27111">
        <ele>878.20001220703</ele>
        <time>2012-12-30T11:00:36Z</time>
      </trkpt>
      <trkpt lat="43.83688" lon="7.27109">
        <ele>877.79998779297</ele>
        <time>2012-12-30T11:00:38Z</time>
      </trkpt>
      <trkpt lat="43.83686" lon="7.27109">
        <ele>877.79998779297</ele>
        <time>2012-12-30T11:00:41Z</time>
      </trkpt>
      <trkpt lat="43.8368" lon="7.27111">
        <ele>878.59997558594</ele>
        <time>2012-12-30T11:00:47Z</time>
      </trkpt>
      <trkpt lat="43.83667" lon="7.27115">
        <ele>879.79998779297</ele>
        <time>2012-12-30T11:00:55Z</time>
      </trkpt>
      <trkpt lat="43.83659" lon="7.27121">
        <ele>881.20001220703</ele>
        <time>2012-12-30T11:01:01Z</time>
      </trkpt>
      <trkpt lat="43.83647" lon="7.27125">
        <ele>881.79998779297</ele>
        <time>2012-12-30T11:01:08Z</time>
      </trkpt>
      <trkpt lat="43.83646" lon="7.27127">
        <ele>882</ele>
        <time>2012-12-30T11:01:09Z</time>
      </trkpt>
      <trkpt lat="43.83639" lon="7.27132">
        <ele>883.20001220703</ele>
        <time>2012-12-30T11:01:13Z</time>
      </trkpt>
      <trkpt lat="43.8363" lon="7.27142">
        <ele>885.40002441406</ele>
        <time>2012-12-30T11:01:19Z</time>
      </trkpt>
      <trkpt lat="43.83627" lon="7.27144">
        <ele>885.79998779297</ele>
        <time>2012-12-30T11:01:21Z</time>
      </trkpt>
      <trkpt lat="43.8362" lon="7.27146">
        <ele>886</ele>
        <time>2012-12-30T11:01:24Z</time>
      </trkpt>
      <trkpt lat="43.83609" lon="7.27154">
        <ele>887.59997558594</ele>
        <time>2012-12-30T11:01:30Z</time>
      </trkpt>
      <trkpt lat="43.83607" lon="7.27155">
        <ele>888</ele>
        <time>2012-12-30T11:01:31Z</time>
      </trkpt>
      <trkpt lat="43.83597" lon="7.27158">
        <ele>888.40002441406</ele>
        <time>2012-12-30T11:01:36Z</time>
      </trkpt>
      <trkpt lat="43.8358" lon="7.27159">
        <ele>888</ele>
        <time>2012-12-30T11:01:42Z</time>
      </trkpt>
      <trkpt lat="43.83569" lon="7.2716">
        <ele>888</ele>
        <time>2012-12-30T11:01:46Z</time>
      </trkpt>
      <trkpt lat="43.83554" lon="7.27161">
        <ele>888.40002441406</ele>
        <time>2012-12-30T11:01:52Z</time>
      </trkpt>
      <trkpt lat="43.83542" lon="7.2716">
        <ele>888.40002441406</ele>
        <time>2012-12-30T11:01:57Z</time>
      </trkpt>
      <trkpt lat="43.83528" lon="7.27161">
        <ele>888.40002441406</ele>
        <time>2012-12-30T11:02:03Z</time>
      </trkpt>
      <trkpt lat="43.83519" lon="7.2716">
        <ele>888</ele>
        <time>2012-12-30T11:02:09Z</time>
      </trkpt>
      <trkpt lat="43.83511" lon="7.27165">
        <ele>889.59997558594</ele>
        <time>2012-12-30T11:02:14Z</time>
      </trkpt>
      <trkpt lat="43.83509" lon="7.27166">
        <ele>889.79998779297</ele>
        <time>2012-12-30T11:02:15Z</time>
      </trkpt>
      <trkpt lat="43.83507" lon="7.27167">
        <ele>890</ele>
        <time>2012-12-30T11:02:17Z</time>
      </trkpt>
      <trkpt lat="43.83503" lon="7.27167">
        <ele>890</ele>
        <time>2012-12-30T11:02:20Z</time>
      </trkpt>
      <trkpt lat="43.83501" lon="7.27168">
        <ele>890.20001220703</ele>
        <time>2012-12-30T11:02:21Z</time>
      </trkpt>
      <trkpt lat="43.83495" lon="7.27173">
        <ele>890.59997558594</ele>
        <time>2012-12-30T11:02:25Z</time>
      </trkpt>
      <trkpt lat="43.83493" lon="7.27173">
        <ele>890.40002441406</ele>
        <time>2012-12-30T11:02:27Z</time>
      </trkpt>
      <trkpt lat="43.83488" lon="7.27175">
        <ele>890</ele>
        <time>2012-12-30T11:02:31Z</time>
      </trkpt>
      <trkpt lat="43.83484" lon="7.27176">
        <ele>889.59997558594</ele>
        <time>2012-12-30T11:02:34Z</time>
      </trkpt>
      <trkpt lat="43.83477" lon="7.27179">
        <ele>889</ele>
        <time>2012-12-30T11:02:40Z</time>
      </trkpt>
      <trkpt lat="43.83467" lon="7.27184">
        <ele>888.40002441406</ele>
        <time>2012-12-30T11:02:47Z</time>
      </trkpt>
      <trkpt lat="43.83462" lon="7.27187">
        <ele>888.20001220703</ele>
        <time>2012-12-30T11:02:52Z</time>
      </trkpt>
      <trkpt lat="43.83459" lon="7.27188">
        <ele>888.20001220703</ele>
        <time>2012-12-30T11:02:54Z</time>
      </trkpt>
      <trkpt lat="43.83448" lon="7.27194">
        <ele>887.40002441406</ele>
        <time>2012-12-30T11:03:02Z</time>
      </trkpt>
      <trkpt lat="43.83447" lon="7.27195">
        <ele>887.40002441406</ele>
        <time>2012-12-30T11:03:03Z</time>
      </trkpt>
      <trkpt lat="43.83444" lon="7.27199">
        <ele>887.79998779297</ele>
        <time>2012-12-30T11:03:07Z</time>
      </trkpt>
      <trkpt lat="43.83443" lon="7.27201">
        <ele>888</ele>
        <time>2012-12-30T11:03:10Z</time>
      </trkpt>
      <trkpt lat="43.83439" lon="7.27202">
        <ele>887.59997558594</ele>
        <time>2012-12-30T11:03:14Z</time>
      </trkpt>
      <trkpt lat="43.83438" lon="7.27203">
        <ele>887.40002441406</ele>
        <time>2012-12-30T11:03:15Z</time>
      </trkpt>
      <trkpt lat="43.8343" lon="7.27209">
        <ele>887.59997558594</ele>
        <time>2012-12-30T11:03:21Z</time>
      </trkpt>
      <trkpt lat="43.83422" lon="7.27219">
        <ele>888.20001220703</ele>
        <time>2012-12-30T11:03:26Z</time>
      </trkpt>
      <trkpt lat="43.83413" lon="7.27231">
        <ele>888</ele>
        <time>2012-12-30T11:03:31Z</time>
      </trkpt>
      <trkpt lat="43.834" lon="7.27246">
        <ele>886.40002441406</ele>
        <time>2012-12-30T11:03:35Z</time>
      </trkpt>
      <trkpt lat="43.83386" lon="7.27267">
        <ele>883.79998779297</ele>
        <time>2012-12-30T11:03:40Z</time>
      </trkpt>
      <trkpt lat="43.83379" lon="7.27276">
        <ele>882.20001220703</ele>
        <time>2012-12-30T11:03:42Z</time>
      </trkpt>
      <trkpt lat="43.83372" lon="7.27285">
        <ele>881.59997558594</ele>
        <time>2012-12-30T11:03:44Z</time>
      </trkpt>
      <trkpt lat="43.8336" lon="7.27307">
        <ele>881</ele>
        <time>2012-12-30T11:03:49Z</time>
      </trkpt>
      <trkpt lat="43.83359" lon="7.27308">
        <ele>881</ele>
        <time>2012-12-30T11:03:50Z</time>
      </trkpt>
      <trkpt lat="43.83359" lon="7.27311">
        <ele>881.40002441406</ele>
        <time>2012-12-30T11:03:51Z</time>
      </trkpt>
      <trkpt lat="43.83357" lon="7.27315">
        <ele>881.59997558594</ele>
        <time>2012-12-30T11:03:53Z</time>
      </trkpt>
      <trkpt lat="43.83349" lon="7.27327">
        <ele>881.79998779297</ele>
        <time>2012-12-30T11:03:58Z</time>
      </trkpt>
      <trkpt lat="43.83344" lon="7.27337">
        <ele>881.20001220703</ele>
        <time>2012-12-30T11:04:01Z</time>
      </trkpt>
      <trkpt lat="43.8334" lon="7.27344">
        <ele>879.20001220703</ele>
        <time>2012-12-30T11:04:03Z</time>
      </trkpt>
      <trkpt lat="43.83338" lon="7.27352">
        <ele>877.59997558594</ele>
        <time>2012-12-30T11:04:05Z</time>
      </trkpt>
      <trkpt lat="43.83336" lon="7.27369">
        <ele>875</ele>
        <time>2012-12-30T11:04:09Z</time>
      </trkpt>
      <trkpt lat="43.83333" lon="7.27384">
        <ele>872.79998779297</ele>
        <time>2012-12-30T11:04:13Z</time>
      </trkpt>
      <trkpt lat="43.8333" lon="7.27391">
        <ele>871.59997558594</ele>
        <time>2012-12-30T11:04:17Z</time>
      </trkpt>
      <trkpt lat="43.83329" lon="7.27393">
        <ele>871.40002441406</ele>
        <time>2012-12-30T11:04:20Z</time>
      </trkpt>
      <trkpt lat="43.83328" lon="7.27395">
        <ele>871.20001220703</ele>
        <time>2012-12-30T11:04:22Z</time>
      </trkpt>
      <trkpt lat="43.83329" lon="7.27395">
        <ele>871.20001220703</ele>
        <time>2012-12-30T11:04:26Z</time>
      </trkpt>
      <trkpt lat="43.83331" lon="7.27396">
        <ele>871.20001220703</ele>
        <time>2012-12-30T11:04:30Z</time>
      </trkpt>
      <trkpt lat="43.83331" lon="7.27397">
        <ele>871.20001220703</ele>
        <time>2012-12-30T11:04:31Z</time>
      </trkpt>
      <trkpt lat="43.83333" lon="7.27396">
        <ele>871.20001220703</ele>
        <time>2012-12-30T11:04:36Z</time>
      </trkpt>
      <trkpt lat="43.83334" lon="7.27396">
        <ele>871.40002441406</ele>
        <time>2012-12-30T11:04:39Z</time>
      </trkpt>
      <trkpt lat="43.83332" lon="7.27399">
        <ele>871</ele>
        <time>2012-12-30T11:04:52Z</time>
      </trkpt>
      <trkpt lat="43.83332" lon="7.27399">
        <ele>871</ele>
        <time>2012-12-30T11:04:56Z</time>
      </trkpt>
      <trkpt lat="43.83332" lon="7.27398">
        <ele>871</ele>
        <time>2012-12-30T11:05:05Z</time>
      </trkpt>
      <trkpt lat="43.83332" lon="7.27397">
        <ele>871.20001220703</ele>
        <time>2012-12-30T11:05:10Z</time>
      </trkpt>
      <trkpt lat="43.83333" lon="7.27397">
        <ele>871.20001220703</ele>
        <time>2012-12-30T11:05:19Z</time>
      </trkpt>
      <trkpt lat="43.83334" lon="7.27394">
        <ele>871.59997558594</ele>
        <time>2012-12-30T11:05:27Z</time>
      </trkpt>
      <trkpt lat="43.83333" lon="7.27395">
        <ele>871.59997558594</ele>
        <time>2012-12-30T11:05:28Z</time>
      </trkpt>
      <trkpt lat="43.83331" lon="7.27394">
        <ele>871.40002441406</ele>
        <time>2012-12-30T11:05:36Z</time>
      </trkpt>
      <trkpt lat="43.8333" lon="7.27394">
        <ele>871.40002441406</ele>
        <time>2012-12-30T11:05:37Z</time>
      </trkpt>
      <trkpt lat="43.83329" lon="7.27393">
        <ele>871.59997558594</ele>
        <time>2012-12-30T11:05:47Z</time>
      </trkpt>
      <trkpt lat="43.83329" lon="7.27392">
        <ele>871.59997558594</ele>
        <time>2012-12-30T11:05:50Z</time>
      </trkpt>
      <trkpt lat="43.83329" lon="7.27393">
        <ele>871.40002441406</ele>
        <time>2012-12-30T11:06:20Z</time>
      </trkpt>
      <trkpt lat="43.83329" lon="7.27393">
        <ele>871.40002441406</ele>
        <time>2012-12-30T11:06:32Z</time>
      </trkpt>
      <trkpt lat="43.83329" lon="7.27394">
        <ele>871.20001220703</ele>
        <time>2012-12-30T11:06:35Z</time>
      </trkpt>
      <trkpt lat="43.83327" lon="7.27397">
        <ele>871</ele>
        <time>2012-12-30T11:06:40Z</time>
      </trkpt>
      <trkpt lat="43.83327" lon="7.27399">
        <ele>870.79998779297</ele>
        <time>2012-12-30T11:06:42Z</time>
      </trkpt>
      <trkpt lat="43.83327" lon="7.27398">
        <ele>870.79998779297</ele>
        <time>2012-12-30T11:06:50Z</time>
      </trkpt>
      <trkpt lat="43.83327" lon="7.27397">
        <ele>871</ele>
        <time>2012-12-30T11:06:54Z</time>
      </trkpt>
      <trkpt lat="43.83326" lon="7.27397">
        <ele>870.79998779297</ele>
        <time>2012-12-30T11:07:05Z</time>
      </trkpt>
      <trkpt lat="43.83325" lon="7.27398">
        <ele>870.79998779297</ele>
        <time>2012-12-30T11:07:15Z</time>
      </trkpt>
      <trkpt lat="43.83329" lon="7.27395">
        <ele>871.20001220703</ele>
        <time>2012-12-30T11:07:20Z</time>
      </trkpt>
      <trkpt lat="43.83332" lon="7.27396">
        <ele>871.40002441406</ele>
        <time>2012-12-30T11:07:24Z</time>
      </trkpt>
      <trkpt lat="43.83332" lon="7.27396">
        <ele>871.20001220703</ele>
        <time>2012-12-30T11:07:27Z</time>
      </trkpt>
      <trkpt lat="43.83332" lon="7.27397">
        <ele>871.20001220703</ele>
        <time>2012-12-30T11:07:35Z</time>
      </trkpt>
      <trkpt lat="43.83334" lon="7.27398">
        <ele>871.20001220703</ele>
        <time>2012-12-30T11:07:44Z</time>
      </trkpt>
      <trkpt lat="43.83337" lon="7.27401">
        <ele>871</ele>
        <time>2012-12-30T11:07:47Z</time>
      </trkpt>
      <trkpt lat="43.83345" lon="7.27399">
        <ele>871.79998779297</ele>
        <time>2012-12-30T11:07:51Z</time>
      </trkpt>
      <trkpt lat="43.83349" lon="7.27399">
        <ele>872.20001220703</ele>
        <time>2012-12-30T11:07:52Z</time>
      </trkpt>
      <trkpt lat="43.83363" lon="7.27397">
        <ele>873.59997558594</ele>
        <time>2012-12-30T11:07:55Z</time>
      </trkpt>
      <trkpt lat="43.83368" lon="7.27396">
        <ele>874.20001220703</ele>
        <time>2012-12-30T11:07:56Z</time>
      </trkpt>
      <trkpt lat="43.83381" lon="7.27397">
        <ele>875.20001220703</ele>
        <time>2012-12-30T11:08:00Z</time>
      </trkpt>
      <trkpt lat="43.83382" lon="7.27397">
        <ele>875.20001220703</ele>
        <time>2012-12-30T11:08:01Z</time>
      </trkpt>
      <trkpt lat="43.83386" lon="7.27398">
        <ele>875.20001220703</ele>
        <time>2012-12-30T11:08:03Z</time>
      </trkpt>
      <trkpt lat="43.83389" lon="7.27399">
        <ele>875</ele>
        <time>2012-12-30T11:08:04Z</time>
      </trkpt>
      <trkpt lat="43.83395" lon="7.27398">
        <ele>875.79998779297</ele>
        <time>2012-12-30T11:08:06Z</time>
      </trkpt>
      <trkpt lat="43.83399" lon="7.27397">
        <ele>876.59997558594</ele>
        <time>2012-12-30T11:08:07Z</time>
      </trkpt>
      <trkpt lat="43.83403" lon="7.27396">
        <ele>877.20001220703</ele>
        <time>2012-12-30T11:08:08Z</time>
      </trkpt>
      <trkpt lat="43.83411" lon="7.27396">
        <ele>877.59997558594</ele>
        <time>2012-12-30T11:08:10Z</time>
      </trkpt>
      <trkpt lat="43.83413" lon="7.27399">
        <ele>876.79998779297</ele>
        <time>2012-12-30T11:08:11Z</time>
      </trkpt>
      <trkpt lat="43.83415" lon="7.274">
        <ele>876.79998779297</ele>
        <time>2012-12-30T11:08:12Z</time>
      </trkpt>
      <trkpt lat="43.83418" lon="7.27407">
        <ele>874.59997558594</ele>
        <time>2012-12-30T11:08:16Z</time>
      </trkpt>
      <trkpt lat="43.83416" lon="7.27408">
        <ele>873.79998779297</ele>
        <time>2012-12-30T11:08:18Z</time>
      </trkpt>
      <trkpt lat="43.83413" lon="7.27412">
        <ele>872.40002441406</ele>
        <time>2012-12-30T11:08:20Z</time>
      </trkpt>
      <trkpt lat="43.83404" lon="7.2742">
        <ele>869.40002441406</ele>
        <time>2012-12-30T11:08:24Z</time>
      </trkpt>
      <trkpt lat="43.83406" lon="7.27428">
        <ele>866.79998779297</ele>
        <time>2012-12-30T11:08:27Z</time>
      </trkpt>
      <trkpt lat="43.83408" lon="7.27431">
        <ele>865.79998779297</ele>
        <time>2012-12-30T11:08:28Z</time>
      </trkpt>
      <trkpt lat="43.83413" lon="7.27444">
        <ele>861.79998779297</ele>
        <time>2012-12-30T11:08:32Z</time>
      </trkpt>
      <trkpt lat="43.83418" lon="7.27447">
        <ele>861</ele>
        <time>2012-12-30T11:08:35Z</time>
      </trkpt>
      <trkpt lat="43.83416" lon="7.27456">
        <ele>857.79998779297</ele>
        <time>2012-12-30T11:08:39Z</time>
      </trkpt>
      <trkpt lat="43.83415" lon="7.27459">
        <ele>856.40002441406</ele>
        <time>2012-12-30T11:08:40Z</time>
      </trkpt>
      <trkpt lat="43.83417" lon="7.27467">
        <ele>854</ele>
        <time>2012-12-30T11:08:42Z</time>
      </trkpt>
      <trkpt lat="43.83418" lon="7.27484">
        <ele>848.40002441406</ele>
        <time>2012-12-30T11:08:46Z</time>
      </trkpt>
      <trkpt lat="43.83424" lon="7.27498">
        <ele>844.40002441406</ele>
        <time>2012-12-30T11:08:50Z</time>
      </trkpt>
      <trkpt lat="43.83426" lon="7.27496">
        <ele>845.20001220703</ele>
        <time>2012-12-30T11:08:54Z</time>
      </trkpt>
      <trkpt lat="43.83426" lon="7.27496">
        <ele>845.20001220703</ele>
        <time>2012-12-30T11:08:55Z</time>
      </trkpt>
      <trkpt lat="43.83427" lon="7.27495">
        <ele>845.59997558594</ele>
        <time>2012-12-30T11:08:59Z</time>
      </trkpt>
      <trkpt lat="43.83428" lon="7.27495">
        <ele>845.79998779297</ele>
        <time>2012-12-30T11:09:05Z</time>
      </trkpt>
      <trkpt lat="43.83428" lon="7.27497">
        <ele>845</ele>
        <time>2012-12-30T11:09:08Z</time>
      </trkpt>
      <trkpt lat="43.83432" lon="7.27502">
        <ele>844</ele>
        <time>2012-12-30T11:09:11Z</time>
      </trkpt>
      <trkpt lat="43.83433" lon="7.27503">
        <ele>844</ele>
        <time>2012-12-30T11:09:12Z</time>
      </trkpt>
      <trkpt lat="43.83437" lon="7.27504">
        <ele>844.20001220703</ele>
        <time>2012-12-30T11:09:15Z</time>
      </trkpt>
      <trkpt lat="43.83439" lon="7.27504">
        <ele>844.40002441406</ele>
        <time>2012-12-30T11:09:17Z</time>
      </trkpt>
      <trkpt lat="43.83445" lon="7.27507">
        <ele>844.20001220703</ele>
        <time>2012-12-30T11:09:21Z</time>
      </trkpt>
      <trkpt lat="43.83445" lon="7.2751">
        <ele>843.59997558594</ele>
        <time>2012-12-30T11:09:23Z</time>
      </trkpt>
      <trkpt lat="43.83445" lon="7.27511">
        <ele>843.20001220703</ele>
        <time>2012-12-30T11:09:25Z</time>
      </trkpt>
      <trkpt lat="43.83445" lon="7.27519">
        <ele>841.20001220703</ele>
        <time>2012-12-30T11:09:33Z</time>
      </trkpt>
      <trkpt lat="43.83443" lon="7.27524">
        <ele>839.79998779297</ele>
        <time>2012-12-30T11:09:37Z</time>
      </trkpt>
      <trkpt lat="43.83442" lon="7.27525">
        <ele>839.40002441406</ele>
        <time>2012-12-30T11:09:38Z</time>
      </trkpt>
      <trkpt lat="43.83437" lon="7.27523">
        <ele>839.40002441406</ele>
        <time>2012-12-30T11:09:41Z</time>
      </trkpt>
      <trkpt lat="43.83436" lon="7.27524">
        <ele>839.20001220703</ele>
        <time>2012-12-30T11:09:42Z</time>
      </trkpt>
      <trkpt lat="43.83434" lon="7.27524">
        <ele>839</ele>
        <time>2012-12-30T11:09:43Z</time>
      </trkpt>
      <trkpt lat="43.83431" lon="7.27525">
        <ele>838.59997558594</ele>
        <time>2012-12-30T11:09:45Z</time>
      </trkpt>
      <trkpt lat="43.8343" lon="7.27525">
        <ele>838.40002441406</ele>
        <time>2012-12-30T11:09:46Z</time>
      </trkpt>
      <trkpt lat="43.83428" lon="7.27526">
        <ele>838</ele>
        <time>2012-12-30T11:09:48Z</time>
      </trkpt>
      <trkpt lat="43.83429" lon="7.27527">
        <ele>837.79998779297</ele>
        <time>2012-12-30T11:10:00Z</time>
      </trkpt>
      <trkpt lat="43.83429" lon="7.27526">
        <ele>838</ele>
        <time>2012-12-30T11:10:30Z</time>
      </trkpt>
      <trkpt lat="43.83429" lon="7.27526">
        <ele>838</ele>
        <time>2012-12-30T11:10:31Z</time>
      </trkpt>
      <trkpt lat="43.83428" lon="7.27526">
        <ele>838</ele>
        <time>2012-12-30T11:10:33Z</time>
      </trkpt>
      <trkpt lat="43.83428" lon="7.27526">
        <ele>837.79998779297</ele>
        <time>2012-12-30T11:10:35Z</time>
      </trkpt>
      <trkpt lat="43.83428" lon="7.27527">
        <ele>837.79998779297</ele>
        <time>2012-12-30T11:10:41Z</time>
      </trkpt>
      <trkpt lat="43.83428" lon="7.27527">
        <ele>837.79998779297</ele>
        <time>2012-12-30T11:10:42Z</time>
      </trkpt>
      <trkpt lat="43.83426" lon="7.27527">
        <ele>837.79998779297</ele>
        <time>2012-12-30T11:10:52Z</time>
      </trkpt>
      <trkpt lat="43.83427" lon="7.27527">
        <ele>837.79998779297</ele>
        <time>2012-12-30T11:10:55Z</time>
      </trkpt>
      <trkpt lat="43.83428" lon="7.27526">
        <ele>838</ele>
        <time>2012-12-30T11:11:18Z</time>
      </trkpt>
      <trkpt lat="43.83427" lon="7.27526">
        <ele>837.79998779297</ele>
        <time>2012-12-30T11:11:23Z</time>
      </trkpt>
      <trkpt lat="43.83427" lon="7.27526">
        <ele>837.79998779297</ele>
        <time>2012-12-30T11:11:26Z</time>
      </trkpt>
      <trkpt lat="43.83428" lon="7.27526">
        <ele>838</ele>
        <time>2012-12-30T11:11:31Z</time>
      </trkpt>
      <trkpt lat="43.83429" lon="7.27526">
        <ele>838</ele>
        <time>2012-12-30T11:11:36Z</time>
      </trkpt>
      <trkpt lat="43.83429" lon="7.27527">
        <ele>837.79998779297</ele>
        <time>2012-12-30T11:11:41Z</time>
      </trkpt>
      <trkpt lat="43.83429" lon="7.27527">
        <ele>837.79998779297</ele>
        <time>2012-12-30T11:11:43Z</time>
      </trkpt>
      <trkpt lat="43.83429" lon="7.27527">
        <ele>837.79998779297</ele>
        <time>2012-12-30T11:11:54Z</time>
      </trkpt>
      <trkpt lat="43.83428" lon="7.27528">
        <ele>837.59997558594</ele>
        <time>2012-12-30T11:12:06Z</time>
      </trkpt>
      <trkpt lat="43.83427" lon="7.27528">
        <ele>837.40002441406</ele>
        <time>2012-12-30T11:12:09Z</time>
      </trkpt>
      <trkpt lat="43.83421" lon="7.27529">
        <ele>836.59997558594</ele>
        <time>2012-12-30T11:12:22Z</time>
      </trkpt>
      <trkpt lat="43.83417" lon="7.27528">
        <ele>836.40002441406</ele>
        <time>2012-12-30T11:12:24Z</time>
      </trkpt>
      <trkpt lat="43.83415" lon="7.27527">
        <ele>836.40002441406</ele>
        <time>2012-12-30T11:12:25Z</time>
      </trkpt>
      <trkpt lat="43.83411" lon="7.27524">
        <ele>836.79998779297</ele>
        <time>2012-12-30T11:12:27Z</time>
      </trkpt>
      <trkpt lat="43.83406" lon="7.2752">
        <ele>837.20001220703</ele>
        <time>2012-12-30T11:12:29Z</time>
      </trkpt>
      <trkpt lat="43.83402" lon="7.27525">
        <ele>835.59997558594</ele>
        <time>2012-12-30T11:12:33Z</time>
      </trkpt>
      <trkpt lat="43.83395" lon="7.27524">
        <ele>835</ele>
        <time>2012-12-30T11:12:38Z</time>
      </trkpt>
      <trkpt lat="43.83384" lon="7.27523">
        <ele>834.20001220703</ele>
        <time>2012-12-30T11:12:41Z</time>
      </trkpt>
      <trkpt lat="43.83381" lon="7.27521">
        <ele>834.20001220703</ele>
        <time>2012-12-30T11:12:42Z</time>
      </trkpt>
      <trkpt lat="43.83374" lon="7.27519">
        <ele>834.20001220703</ele>
        <time>2012-12-30T11:12:45Z</time>
      </trkpt>
      <trkpt lat="43.83368" lon="7.27517">
        <ele>833.79998779297</ele>
        <time>2012-12-30T11:12:50Z</time>
      </trkpt>
      <trkpt lat="43.83364" lon="7.27515">
        <ele>834.20001220703</ele>
        <time>2012-12-30T11:12:52Z</time>
      </trkpt>
      <trkpt lat="43.83361" lon="7.27514">
        <ele>833.79998779297</ele>
        <time>2012-12-30T11:12:55Z</time>
      </trkpt>
      <trkpt lat="43.8336" lon="7.27516">
        <ele>833.20001220703</ele>
        <time>2012-12-30T11:13:01Z</time>
      </trkpt>
      <trkpt lat="43.83354" lon="7.27517">
        <ele>832.40002441406</ele>
        <time>2012-12-30T11:13:12Z</time>
      </trkpt>
      <trkpt lat="43.83345" lon="7.2753">
        <ele>828</ele>
        <time>2012-12-30T11:13:16Z</time>
      </trkpt>
      <trkpt lat="43.83343" lon="7.27533">
        <ele>827</ele>
        <time>2012-12-30T11:13:17Z</time>
      </trkpt>
      <trkpt lat="43.8334" lon="7.27533">
        <ele>826.59997558594</ele>
        <time>2012-12-30T11:13:18Z</time>
      </trkpt>
      <trkpt lat="43.83338" lon="7.27532">
        <ele>826.59997558594</ele>
        <time>2012-12-30T11:13:19Z</time>
      </trkpt>
      <trkpt lat="43.83325" lon="7.27528">
        <ele>828.20001220703</ele>
        <time>2012-12-30T11:13:23Z</time>
      </trkpt>
      <trkpt lat="43.83315" lon="7.27529">
        <ele>828.79998779297</ele>
        <time>2012-12-30T11:13:27Z</time>
      </trkpt>
      <trkpt lat="43.83311" lon="7.27534">
        <ele>828</ele>
        <time>2012-12-30T11:13:29Z</time>
      </trkpt>
      <trkpt lat="43.83309" lon="7.27536">
        <ele>827.59997558594</ele>
        <time>2012-12-30T11:13:30Z</time>
      </trkpt>
      <trkpt lat="43.83303" lon="7.2754">
        <ele>827.20001220703</ele>
        <time>2012-12-30T11:13:33Z</time>
      </trkpt>
      <trkpt lat="43.83292" lon="7.27546">
        <ele>826.59997558594</ele>
        <time>2012-12-30T11:13:39Z</time>
      </trkpt>
      <trkpt lat="43.83288" lon="7.27558">
        <ele>823.59997558594</ele>
        <time>2012-12-30T11:13:41Z</time>
      </trkpt>
      <trkpt lat="43.83286" lon="7.27564">
        <ele>822.20001220703</ele>
        <time>2012-12-30T11:13:42Z</time>
      </trkpt>
      <trkpt lat="43.83286" lon="7.2757">
        <ele>820.40002441406</ele>
        <time>2012-12-30T11:13:43Z</time>
      </trkpt>
      <trkpt lat="43.83284" lon="7.27578">
        <ele>818.20001220703</ele>
        <time>2012-12-30T11:13:44Z</time>
      </trkpt>
      <trkpt lat="43.83282" lon="7.27585">
        <ele>816.20001220703</ele>
        <time>2012-12-30T11:13:45Z</time>
      </trkpt>
      <trkpt lat="43.83277" lon="7.27599">
        <ele>813.40002441406</ele>
        <time>2012-12-30T11:13:48Z</time>
      </trkpt>
      <trkpt lat="43.83274" lon="7.27602">
        <ele>812.79998779297</ele>
        <time>2012-12-30T11:13:51Z</time>
      </trkpt>
      <trkpt lat="43.83274" lon="7.27603">
        <ele>812.59997558594</ele>
        <time>2012-12-30T11:13:53Z</time>
      </trkpt>
      <trkpt lat="43.83274" lon="7.27604">
        <ele>812.40002441406</ele>
        <time>2012-12-30T11:13:59Z</time>
      </trkpt>
      <trkpt lat="43.83274" lon="7.27604">
        <ele>812.40002441406</ele>
        <time>2012-12-30T11:14:00Z</time>
      </trkpt>
      <trkpt lat="43.83276" lon="7.27599">
        <ele>813.59997558594</ele>
        <time>2012-12-30T11:14:12Z</time>
      </trkpt>
      <trkpt lat="43.83276" lon="7.27598">
        <ele>813.59997558594</ele>
        <time>2012-12-30T11:14:16Z</time>
      </trkpt>
      <trkpt lat="43.83276" lon="7.27598">
        <ele>813.79998779297</ele>
        <time>2012-12-30T11:14:17Z</time>
      </trkpt>
      <trkpt lat="43.83275" lon="7.27598">
        <ele>813.79998779297</ele>
        <time>2012-12-30T11:14:30Z</time>
      </trkpt>
      <trkpt lat="43.83276" lon="7.27597">
        <ele>813.79998779297</ele>
        <time>2012-12-30T11:14:46Z</time>
      </trkpt>
      <trkpt lat="43.83276" lon="7.27596">
        <ele>814.20001220703</ele>
        <time>2012-12-30T11:14:51Z</time>
      </trkpt>
      <trkpt lat="43.83276" lon="7.27596">
        <ele>814.20001220703</ele>
        <time>2012-12-30T11:14:52Z</time>
      </trkpt>
      <trkpt lat="43.83276" lon="7.27596">
        <ele>814.20001220703</ele>
        <time>2012-12-30T11:14:53Z</time>
      </trkpt>
      <trkpt lat="43.83277" lon="7.27596">
        <ele>814.20001220703</ele>
        <time>2012-12-30T11:14:58Z</time>
      </trkpt>
      <trkpt lat="43.83277" lon="7.27596">
        <ele>814.20001220703</ele>
        <time>2012-12-30T11:14:59Z</time>
      </trkpt>
      <trkpt lat="43.83277" lon="7.27596">
        <ele>814.20001220703</ele>
        <time>2012-12-30T11:15:00Z</time>
      </trkpt>
      <trkpt lat="43.83277" lon="7.27596">
        <ele>814</ele>
        <time>2012-12-30T11:15:04Z</time>
      </trkpt>
      <trkpt lat="43.83277" lon="7.27596">
        <ele>814.20001220703</ele>
        <time>2012-12-30T11:15:14Z</time>
      </trkpt>
      <trkpt lat="43.83277" lon="7.27596">
        <ele>814.20001220703</ele>
        <time>2012-12-30T11:15:15Z</time>
      </trkpt>
      <trkpt lat="43.83277" lon="7.27595">
        <ele>814.40002441406</ele>
        <time>2012-12-30T11:15:25Z</time>
      </trkpt>
      <trkpt lat="43.83277" lon="7.27596">
        <ele>814.20001220703</ele>
        <time>2012-12-30T11:15:39Z</time>
      </trkpt>
      <trkpt lat="43.83277" lon="7.27596">
        <ele>814.20001220703</ele>
        <time>2012-12-30T11:15:40Z</time>
      </trkpt>
      <trkpt lat="43.83278" lon="7.27598">
        <ele>813.59997558594</ele>
        <time>2012-12-30T11:15:50Z</time>
      </trkpt>
      <trkpt lat="43.83278" lon="7.27597">
        <ele>813.59997558594</ele>
        <time>2012-12-30T11:15:58Z</time>
      </trkpt>
      <trkpt lat="43.83278" lon="7.27597">
        <ele>813.79998779297</ele>
        <time>2012-12-30T11:15:59Z</time>
      </trkpt>
      <trkpt lat="43.83273" lon="7.27597">
        <ele>814.40002441406</ele>
        <time>2012-12-30T11:16:26Z</time>
      </trkpt>
      <trkpt lat="43.83263" lon="7.27602">
        <ele>814</ele>
        <time>2012-12-30T11:16:31Z</time>
      </trkpt>
      <trkpt lat="43.83254" lon="7.27616">
        <ele>810.79998779297</ele>
        <time>2012-12-30T11:16:35Z</time>
      </trkpt>
      <trkpt lat="43.83255" lon="7.27616">
        <ele>811</ele>
        <time>2012-12-30T11:16:38Z</time>
      </trkpt>
      <trkpt lat="43.83255" lon="7.27611">
        <ele>812.20001220703</ele>
        <time>2012-12-30T11:16:43Z</time>
      </trkpt>
      <trkpt lat="43.83254" lon="7.2761">
        <ele>812.40002441406</ele>
        <time>2012-12-30T11:16:44Z</time>
      </trkpt>
      <trkpt lat="43.8325" lon="7.27611">
        <ele>812.59997558594</ele>
        <time>2012-12-30T11:16:47Z</time>
      </trkpt>
      <trkpt lat="43.83247" lon="7.27611">
        <ele>813.79998779297</ele>
        <time>2012-12-30T11:16:49Z</time>
      </trkpt>
      <trkpt lat="43.83242" lon="7.27611">
        <ele>815.79998779297</ele>
        <time>2012-12-30T11:16:52Z</time>
      </trkpt>
      <trkpt lat="43.83235" lon="7.27611">
        <ele>818.59997558594</ele>
        <time>2012-12-30T11:16:57Z</time>
      </trkpt>
      <trkpt lat="43.83231" lon="7.2761">
        <ele>820.59997558594</ele>
        <time>2012-12-30T11:17:00Z</time>
      </trkpt>
      <trkpt lat="43.83228" lon="7.27611">
        <ele>821.40002441406</ele>
        <time>2012-12-30T11:17:04Z</time>
      </trkpt>
      <trkpt lat="43.83225" lon="7.27611">
        <ele>822.79998779297</ele>
        <time>2012-12-30T11:17:08Z</time>
      </trkpt>
      <trkpt lat="43.8322" lon="7.27611">
        <ele>824.79998779297</ele>
        <time>2012-12-30T11:17:15Z</time>
      </trkpt>
      <trkpt lat="43.83218" lon="7.27611">
        <ele>825.59997558594</ele>
        <time>2012-12-30T11:17:17Z</time>
      </trkpt>
      <trkpt lat="43.83214" lon="7.27607">
        <ele>827.79998779297</ele>
        <time>2012-12-30T11:17:21Z</time>
      </trkpt>
      <trkpt lat="43.83212" lon="7.27606">
        <ele>828.79998779297</ele>
        <time>2012-12-30T11:17:23Z</time>
      </trkpt>
      <trkpt lat="43.83209" lon="7.27608">
        <ele>829.79998779297</ele>
        <time>2012-12-30T11:17:30Z</time>
      </trkpt>
      <trkpt lat="43.83204" lon="7.27604">
        <ele>832.59997558594</ele>
        <time>2012-12-30T11:17:36Z</time>
      </trkpt>
      <trkpt lat="43.832" lon="7.27606">
        <ele>833.59997558594</ele>
        <time>2012-12-30T11:17:41Z</time>
      </trkpt>
      <trkpt lat="43.83197" lon="7.27606">
        <ele>834.79998779297</ele>
        <time>2012-12-30T11:17:45Z</time>
      </trkpt>
      <trkpt lat="43.83193" lon="7.27608">
        <ele>836</ele>
        <time>2012-12-30T11:17:50Z</time>
      </trkpt>
      <trkpt lat="43.83192" lon="7.27608">
        <ele>836.59997558594</ele>
        <time>2012-12-30T11:17:51Z</time>
      </trkpt>
      <trkpt lat="43.8319" lon="7.27608">
        <ele>837</ele>
        <time>2012-12-30T11:17:53Z</time>
      </trkpt>
      <trkpt lat="43.83187" lon="7.27614">
        <ele>837.20001220703</ele>
        <time>2012-12-30T11:18:01Z</time>
      </trkpt>
      <trkpt lat="43.83186" lon="7.27622">
        <ele>836.20001220703</ele>
        <time>2012-12-30T11:18:07Z</time>
      </trkpt>
      <trkpt lat="43.83185" lon="7.27626">
        <ele>835.59997558594</ele>
        <time>2012-12-30T11:18:10Z</time>
      </trkpt>
      <trkpt lat="43.83184" lon="7.27627">
        <ele>835.59997558594</ele>
        <time>2012-12-30T11:18:12Z</time>
      </trkpt>
      <trkpt lat="43.83183" lon="7.2763">
        <ele>835.79998779297</ele>
        <time>2012-12-30T11:18:17Z</time>
      </trkpt>
      <trkpt lat="43.83182" lon="7.2763">
        <ele>835.79998779297</ele>
        <time>2012-12-30T11:18:18Z</time>
      </trkpt>
      <trkpt lat="43.83182" lon="7.27631">
        <ele>836</ele>
        <time>2012-12-30T11:18:19Z</time>
      </trkpt>
      <trkpt lat="43.83181" lon="7.27632">
        <ele>836</ele>
        <time>2012-12-30T11:18:20Z</time>
      </trkpt>
      <trkpt lat="43.8318" lon="7.27636">
        <ele>835.79998779297</ele>
        <time>2012-12-30T11:18:25Z</time>
      </trkpt>
      <trkpt lat="43.8318" lon="7.27637">
        <ele>835.59997558594</ele>
        <time>2012-12-30T11:18:26Z</time>
      </trkpt>
      <trkpt lat="43.83181" lon="7.27644">
        <ele>833.79998779297</ele>
        <time>2012-12-30T11:18:33Z</time>
      </trkpt>
      <trkpt lat="43.83181" lon="7.27654">
        <ele>832</ele>
        <time>2012-12-30T11:18:37Z</time>
      </trkpt>
      <trkpt lat="43.8318" lon="7.27654">
        <ele>832.20001220703</ele>
        <time>2012-12-30T11:18:38Z</time>
      </trkpt>
      <trkpt lat="43.83181" lon="7.27655">
        <ele>831.59997558594</ele>
        <time>2012-12-30T11:18:43Z</time>
      </trkpt>
      <trkpt lat="43.83179" lon="7.27657">
        <ele>832</ele>
        <time>2012-12-30T11:18:45Z</time>
      </trkpt>
      <trkpt lat="43.83176" lon="7.27666">
        <ele>831.59997558594</ele>
        <time>2012-12-30T11:18:52Z</time>
      </trkpt>
      <trkpt lat="43.83176" lon="7.27667">
        <ele>831.59997558594</ele>
        <time>2012-12-30T11:18:56Z</time>
      </trkpt>
      <trkpt lat="43.83176" lon="7.27668">
        <ele>831.59997558594</ele>
        <time>2012-12-30T11:18:57Z</time>
      </trkpt>
      <trkpt lat="43.83176" lon="7.27669">
        <ele>831.40002441406</ele>
        <time>2012-12-30T11:18:58Z</time>
      </trkpt>
      <trkpt lat="43.83173" lon="7.27674">
        <ele>832</ele>
        <time>2012-12-30T11:19:05Z</time>
      </trkpt>
      <trkpt lat="43.83169" lon="7.27677">
        <ele>833.20001220703</ele>
        <time>2012-12-30T11:19:12Z</time>
      </trkpt>
      <trkpt lat="43.83166" lon="7.2768">
        <ele>833.79998779297</ele>
        <time>2012-12-30T11:19:19Z</time>
      </trkpt>
      <trkpt lat="43.83165" lon="7.27684">
        <ele>833.40002441406</ele>
        <time>2012-12-30T11:19:24Z</time>
      </trkpt>
      <trkpt lat="43.83164" lon="7.27685">
        <ele>833.40002441406</ele>
        <time>2012-12-30T11:19:26Z</time>
      </trkpt>
      <trkpt lat="43.83163" lon="7.27686">
        <ele>833.20001220703</ele>
        <time>2012-12-30T11:19:27Z</time>
      </trkpt>
      <trkpt lat="43.83163" lon="7.27687">
        <ele>833.20001220703</ele>
        <time>2012-12-30T11:19:28Z</time>
      </trkpt>
      <trkpt lat="43.83163" lon="7.27687">
        <ele>833.20001220703</ele>
        <time>2012-12-30T11:19:29Z</time>
      </trkpt>
      <trkpt lat="43.83159" lon="7.27692">
        <ele>833.20001220703</ele>
        <time>2012-12-30T11:19:36Z</time>
      </trkpt>
      <trkpt lat="43.83157" lon="7.27694">
        <ele>833.20001220703</ele>
        <time>2012-12-30T11:19:38Z</time>
      </trkpt>
      <trkpt lat="43.83155" lon="7.27697">
        <ele>833.20001220703</ele>
        <time>2012-12-30T11:19:44Z</time>
      </trkpt>
      <trkpt lat="43.83152" lon="7.27702">
        <ele>833</ele>
        <time>2012-12-30T11:19:51Z</time>
      </trkpt>
      <trkpt lat="43.8315" lon="7.27705">
        <ele>832.79998779297</ele>
        <time>2012-12-30T11:19:56Z</time>
      </trkpt>
      <trkpt lat="43.83148" lon="7.27707">
        <ele>833</ele>
        <time>2012-12-30T11:20:01Z</time>
      </trkpt>
      <trkpt lat="43.83148" lon="7.27708">
        <ele>832.79998779297</ele>
        <time>2012-12-30T11:20:02Z</time>
      </trkpt>
      <trkpt lat="43.83147" lon="7.27709">
        <ele>832.79998779297</ele>
        <time>2012-12-30T11:20:03Z</time>
      </trkpt>
      <trkpt lat="43.83142" lon="7.27714">
        <ele>833.20001220703</ele>
        <time>2012-12-30T11:20:07Z</time>
      </trkpt>
      <trkpt lat="43.8314" lon="7.27715">
        <ele>833.20001220703</ele>
        <time>2012-12-30T11:20:08Z</time>
      </trkpt>
      <trkpt lat="43.83127" lon="7.27726">
        <ele>834.40002441406</ele>
        <time>2012-12-30T11:20:14Z</time>
      </trkpt>
      <trkpt lat="43.83112" lon="7.27741">
        <ele>835.59997558594</ele>
        <time>2012-12-30T11:20:18Z</time>
      </trkpt>
      <trkpt lat="43.8311" lon="7.27743">
        <ele>835.79998779297</ele>
        <time>2012-12-30T11:20:20Z</time>
      </trkpt>
      <trkpt lat="43.8311" lon="7.27742">
        <ele>836</ele>
        <time>2012-12-30T11:20:21Z</time>
      </trkpt>
      <trkpt lat="43.83107" lon="7.27744">
        <ele>836.20001220703</ele>
        <time>2012-12-30T11:20:26Z</time>
      </trkpt>
      <trkpt lat="43.83107" lon="7.27745">
        <ele>836</ele>
        <time>2012-12-30T11:20:47Z</time>
      </trkpt>
      <trkpt lat="43.83107" lon="7.27746">
        <ele>836</ele>
        <time>2012-12-30T11:20:48Z</time>
      </trkpt>
      <trkpt lat="43.83107" lon="7.27745">
        <ele>836.20001220703</ele>
        <time>2012-12-30T11:21:02Z</time>
      </trkpt>
      <trkpt lat="43.83107" lon="7.27744">
        <ele>836.20001220703</ele>
        <time>2012-12-30T11:21:03Z</time>
      </trkpt>
      <trkpt lat="43.83107" lon="7.27744">
        <ele>836.40002441406</ele>
        <time>2012-12-30T11:21:04Z</time>
      </trkpt>
      <trkpt lat="43.83106" lon="7.27743">
        <ele>836.59997558594</ele>
        <time>2012-12-30T11:21:05Z</time>
      </trkpt>
      <trkpt lat="43.83105" lon="7.27743">
        <ele>836.79998779297</ele>
        <time>2012-12-30T11:21:06Z</time>
      </trkpt>
      <trkpt lat="43.83105" lon="7.27743">
        <ele>837</ele>
        <time>2012-12-30T11:21:07Z</time>
      </trkpt>
      <trkpt lat="43.83103" lon="7.27743">
        <ele>837.40002441406</ele>
        <time>2012-12-30T11:21:10Z</time>
      </trkpt>
      <trkpt lat="43.831" lon="7.27742">
        <ele>838</ele>
        <time>2012-12-30T11:21:13Z</time>
      </trkpt>
      <trkpt lat="43.83098" lon="7.27742">
        <ele>838.59997558594</ele>
        <time>2012-12-30T11:21:16Z</time>
      </trkpt>
      <trkpt lat="43.83093" lon="7.27742">
        <ele>839.79998779297</ele>
        <time>2012-12-30T11:21:22Z</time>
      </trkpt>
      <trkpt lat="43.83085" lon="7.27739">
        <ele>841.79998779297</ele>
        <time>2012-12-30T11:21:32Z</time>
      </trkpt>
      <trkpt lat="43.8308" lon="7.27737">
        <ele>843</ele>
        <time>2012-12-30T11:21:41Z</time>
      </trkpt>
      <trkpt lat="43.83079" lon="7.27735">
        <ele>843.20001220703</ele>
        <time>2012-12-30T11:21:59Z</time>
      </trkpt>
      <trkpt lat="43.83079" lon="7.27735">
        <ele>843.20001220703</ele>
        <time>2012-12-30T11:22:02Z</time>
      </trkpt>
      <trkpt lat="43.83079" lon="7.27739">
        <ele>842.79998779297</ele>
        <time>2012-12-30T11:22:17Z</time>
      </trkpt>
      <trkpt lat="43.83078" lon="7.27748">
        <ele>841.79998779297</ele>
        <time>2012-12-30T11:22:27Z</time>
      </trkpt>
      <trkpt lat="43.83078" lon="7.27746">
        <ele>842</ele>
        <time>2012-12-30T11:22:30Z</time>
      </trkpt>
      <trkpt lat="43.83076" lon="7.27742">
        <ele>842.79998779297</ele>
        <time>2012-12-30T11:22:34Z</time>
      </trkpt>
      <trkpt lat="43.83076" lon="7.27741">
        <ele>842.79998779297</ele>
        <time>2012-12-30T11:22:35Z</time>
      </trkpt>
      <trkpt lat="43.83076" lon="7.27739">
        <ele>843</ele>
        <time>2012-12-30T11:22:37Z</time>
      </trkpt>
      <trkpt lat="43.83077" lon="7.27737">
        <ele>843.20001220703</ele>
        <time>2012-12-30T11:22:44Z</time>
      </trkpt>
      <trkpt lat="43.83071" lon="7.27732">
        <ele>844.59997558594</ele>
        <time>2012-12-30T11:23:14Z</time>
      </trkpt>
      <trkpt lat="43.83073" lon="7.27735">
        <ele>843.79998779297</ele>
        <time>2012-12-30T11:23:20Z</time>
      </trkpt>
      <trkpt lat="43.83077" lon="7.27738">
        <ele>843</ele>
        <time>2012-12-30T11:23:27Z</time>
      </trkpt>
      <trkpt lat="43.83076" lon="7.27742">
        <ele>842.59997558594</ele>
        <time>2012-12-30T11:23:32Z</time>
      </trkpt>
      <trkpt lat="43.83078" lon="7.27746">
        <ele>842</ele>
        <time>2012-12-30T11:23:41Z</time>
      </trkpt>
      <trkpt lat="43.83078" lon="7.27747">
        <ele>842</ele>
        <time>2012-12-30T11:23:44Z</time>
      </trkpt>
      <trkpt lat="43.83078" lon="7.27745">
        <ele>842</ele>
        <time>2012-12-30T11:23:57Z</time>
      </trkpt>
      <trkpt lat="43.83078" lon="7.27739">
        <ele>842.79998779297</ele>
        <time>2012-12-30T11:24:24Z</time>
      </trkpt>
      <trkpt lat="43.83078" lon="7.2774">
        <ele>842.79998779297</ele>
        <time>2012-12-30T11:24:29Z</time>
      </trkpt>
      <trkpt lat="43.8308" lon="7.27741">
        <ele>842.40002441406</ele>
        <time>2012-12-30T11:25:12Z</time>
      </trkpt>
      <trkpt lat="43.83079" lon="7.27738">
        <ele>843</ele>
        <time>2012-12-30T11:25:18Z</time>
      </trkpt>
      <trkpt lat="43.83078" lon="7.2774">
        <ele>842.79998779297</ele>
        <time>2012-12-30T11:25:24Z</time>
      </trkpt>
      <trkpt lat="43.83077" lon="7.27738">
        <ele>843</ele>
        <time>2012-12-30T11:25:41Z</time>
      </trkpt>
      <trkpt lat="43.83078" lon="7.27738">
        <ele>843</ele>
        <time>2012-12-30T11:25:43Z</time>
      </trkpt>
      <trkpt lat="43.83078" lon="7.27737">
        <ele>843.20001220703</ele>
        <time>2012-12-30T11:25:47Z</time>
      </trkpt>
      <trkpt lat="43.83077" lon="7.27737">
        <ele>843.20001220703</ele>
        <time>2012-12-30T11:25:51Z</time>
      </trkpt>
      <trkpt lat="43.83078" lon="7.27737">
        <ele>843.20001220703</ele>
        <time>2012-12-30T11:25:52Z</time>
      </trkpt>
      <trkpt lat="43.83078" lon="7.27738">
        <ele>843</ele>
        <time>2012-12-30T11:25:53Z</time>
      </trkpt>
      <trkpt lat="43.83078" lon="7.27738">
        <ele>843</ele>
        <time>2012-12-30T11:25:59Z</time>
      </trkpt>
      <trkpt lat="43.83078" lon="7.27738">
        <ele>843</ele>
        <time>2012-12-30T11:26:00Z</time>
      </trkpt>
      <trkpt lat="43.83078" lon="7.27737">
        <ele>843.20001220703</ele>
        <time>2012-12-30T11:26:10Z</time>
      </trkpt>
      <trkpt lat="43.83078" lon="7.27737">
        <ele>843.20001220703</ele>
        <time>2012-12-30T11:26:11Z</time>
      </trkpt>
      <trkpt lat="43.83077" lon="7.27736">
        <ele>843.40002441406</ele>
        <time>2012-12-30T11:26:17Z</time>
      </trkpt>
      <trkpt lat="43.83077" lon="7.27736">
        <ele>843.40002441406</ele>
        <time>2012-12-30T11:26:18Z</time>
      </trkpt>
      <trkpt lat="43.83077" lon="7.27735">
        <ele>843.59997558594</ele>
        <time>2012-12-30T11:26:23Z</time>
      </trkpt>
      <trkpt lat="43.83078" lon="7.27734">
        <ele>843.40002441406</ele>
        <time>2012-12-30T11:26:29Z</time>
      </trkpt>
      <trkpt lat="43.83078" lon="7.27734">
        <ele>843.59997558594</ele>
        <time>2012-12-30T11:26:30Z</time>
      </trkpt>
      <trkpt lat="43.83077" lon="7.27737">
        <ele>843.20001220703</ele>
        <time>2012-12-30T11:28:14Z</time>
      </trkpt>
      <trkpt lat="43.83077" lon="7.27737">
        <ele>843.20001220703</ele>
        <time>2012-12-30T11:28:15Z</time>
      </trkpt>
      <trkpt lat="43.83077" lon="7.27737">
        <ele>843.40002441406</ele>
        <time>2012-12-30T11:28:19Z</time>
      </trkpt>
      <trkpt lat="43.83077" lon="7.27737">
        <ele>843.40002441406</ele>
        <time>2012-12-30T11:28:21Z</time>
      </trkpt>
      <trkpt lat="43.83077" lon="7.27737">
        <ele>843.40002441406</ele>
        <time>2012-12-30T11:28:29Z</time>
      </trkpt>
      <trkpt lat="43.83077" lon="7.27737">
        <ele>843.40002441406</ele>
        <time>2012-12-30T11:28:31Z</time>
      </trkpt>
      <trkpt lat="43.83077" lon="7.27736">
        <ele>843.40002441406</ele>
        <time>2012-12-30T11:28:35Z</time>
      </trkpt>
      <trkpt lat="43.83077" lon="7.27736">
        <ele>843.40002441406</ele>
        <time>2012-12-30T11:29:04Z</time>
      </trkpt>
      <trkpt lat="43.83078" lon="7.27734">
        <ele>843.59997558594</ele>
        <time>2012-12-30T11:29:26Z</time>
      </trkpt>
      <trkpt lat="43.83008" lon="7.27779">
        <ele>847.20001220703</ele>
        <time>2012-12-30T12:05:44Z</time>
      </trkpt>
      <trkpt lat="43.83007" lon="7.27779">
        <ele>847.40002441406</ele>
        <time>2012-12-30T12:05:45Z</time>
      </trkpt>
      <trkpt lat="43.83005" lon="7.2778">
        <ele>847.59997558594</ele>
        <time>2012-12-30T12:05:47Z</time>
      </trkpt>
      <trkpt lat="43.83004" lon="7.27781">
        <ele>847.40002441406</ele>
        <time>2012-12-30T12:05:48Z</time>
      </trkpt>
      <trkpt lat="43.82997" lon="7.27786">
        <ele>847.79998779297</ele>
        <time>2012-12-30T12:05:54Z</time>
      </trkpt>
      <trkpt lat="43.82989" lon="7.27791">
        <ele>848.59997558594</ele>
        <time>2012-12-30T12:05:59Z</time>
      </trkpt>
      <trkpt lat="43.82988" lon="7.27792">
        <ele>848.59997558594</ele>
        <time>2012-12-30T12:06:00Z</time>
      </trkpt>
      <trkpt lat="43.82986" lon="7.27795">
        <ele>848.59997558594</ele>
        <time>2012-12-30T12:06:01Z</time>
      </trkpt>
      <trkpt lat="43.82973" lon="7.27802">
        <ele>849.79998779297</ele>
        <time>2012-12-30T12:06:08Z</time>
      </trkpt>
      <trkpt lat="43.82957" lon="7.27808">
        <ele>851</ele>
        <time>2012-12-30T12:06:15Z</time>
      </trkpt>
      <trkpt lat="43.82944" lon="7.27821">
        <ele>851.20001220703</ele>
        <time>2012-12-30T12:06:22Z</time>
      </trkpt>
      <trkpt lat="43.82934" lon="7.2783">
        <ele>851.20001220703</ele>
        <time>2012-12-30T12:06:28Z</time>
      </trkpt>
      <trkpt lat="43.8293" lon="7.27831">
        <ele>851.59997558594</ele>
        <time>2012-12-30T12:06:30Z</time>
      </trkpt>
      <trkpt lat="43.82925" lon="7.27832">
        <ele>852</ele>
        <time>2012-12-30T12:06:33Z</time>
      </trkpt>
      <trkpt lat="43.82922" lon="7.27833">
        <ele>852.40002441406</ele>
        <time>2012-12-30T12:06:35Z</time>
      </trkpt>
      <trkpt lat="43.82909" lon="7.27837">
        <ele>852.20001220703</ele>
        <time>2012-12-30T12:06:41Z</time>
      </trkpt>
      <trkpt lat="43.82893" lon="7.2784">
        <ele>852.20001220703</ele>
        <time>2012-12-30T12:06:47Z</time>
      </trkpt>
      <trkpt lat="43.82877" lon="7.27841">
        <ele>852.79998779297</ele>
        <time>2012-12-30T12:06:54Z</time>
      </trkpt>
      <trkpt lat="43.8286" lon="7.27844">
        <ele>853.40002441406</ele>
        <time>2012-12-30T12:07:01Z</time>
      </trkpt>
      <trkpt lat="43.82845" lon="7.27847">
        <ele>853.79998779297</ele>
        <time>2012-12-30T12:07:06Z</time>
      </trkpt>
      <trkpt lat="43.82826" lon="7.27847">
        <ele>854.20001220703</ele>
        <time>2012-12-30T12:07:12Z</time>
      </trkpt>
      <trkpt lat="43.82806" lon="7.27847">
        <ele>853.59997558594</ele>
        <time>2012-12-30T12:07:17Z</time>
      </trkpt>
      <trkpt lat="43.82799" lon="7.27849">
        <ele>853</ele>
        <time>2012-12-30T12:07:19Z</time>
      </trkpt>
      <trkpt lat="43.82795" lon="7.27851">
        <ele>852.59997558594</ele>
        <time>2012-12-30T12:07:21Z</time>
      </trkpt>
      <trkpt lat="43.82784" lon="7.27855">
        <ele>851.79998779297</ele>
        <time>2012-12-30T12:07:25Z</time>
      </trkpt>
      <trkpt lat="43.82765" lon="7.2786">
        <ele>851</ele>
        <time>2012-12-30T12:07:30Z</time>
      </trkpt>
      <trkpt lat="43.8276" lon="7.27861">
        <ele>850.79998779297</ele>
        <time>2012-12-30T12:07:33Z</time>
      </trkpt>
      <trkpt lat="43.82756" lon="7.27863">
        <ele>850.59997558594</ele>
        <time>2012-12-30T12:07:35Z</time>
      </trkpt>
      <trkpt lat="43.82756" lon="7.27863">
        <ele>850.40002441406</ele>
        <time>2012-12-30T12:07:36Z</time>
      </trkpt>
      <trkpt lat="43.82755" lon="7.27864">
        <ele>850.40002441406</ele>
        <time>2012-12-30T12:07:37Z</time>
      </trkpt>
      <trkpt lat="43.82755" lon="7.27863">
        <ele>850.40002441406</ele>
        <time>2012-12-30T12:07:38Z</time>
      </trkpt>
      <trkpt lat="43.82755" lon="7.27861">
        <ele>850.59997558594</ele>
        <time>2012-12-30T12:07:39Z</time>
      </trkpt>
      <trkpt lat="43.82755" lon="7.27861">
        <ele>850.59997558594</ele>
        <time>2012-12-30T12:07:40Z</time>
      </trkpt>
      <trkpt lat="43.82751" lon="7.27858">
        <ele>850.79998779297</ele>
        <time>2012-12-30T12:07:45Z</time>
      </trkpt>
      <trkpt lat="43.8275" lon="7.27854">
        <ele>851.20001220703</ele>
        <time>2012-12-30T12:07:47Z</time>
      </trkpt>
      <trkpt lat="43.82748" lon="7.2785">
        <ele>851.40002441406</ele>
        <time>2012-12-30T12:07:50Z</time>
      </trkpt>
      <trkpt lat="43.82746" lon="7.27847">
        <ele>851.59997558594</ele>
        <time>2012-12-30T12:07:52Z</time>
      </trkpt>
      <trkpt lat="43.82745" lon="7.27847">
        <ele>851.59997558594</ele>
        <time>2012-12-30T12:07:53Z</time>
      </trkpt>
      <trkpt lat="43.82744" lon="7.27846">
        <ele>851.59997558594</ele>
        <time>2012-12-30T12:07:54Z</time>
      </trkpt>
      <trkpt lat="43.82742" lon="7.27838">
        <ele>852.20001220703</ele>
        <time>2012-12-30T12:07:58Z</time>
      </trkpt>
      <trkpt lat="43.82735" lon="7.2783">
        <ele>852.40002441406</ele>
        <time>2012-12-30T12:08:05Z</time>
      </trkpt>
      <trkpt lat="43.82734" lon="7.27828">
        <ele>852.40002441406</ele>
        <time>2012-12-30T12:08:06Z</time>
      </trkpt>
      <trkpt lat="43.82733" lon="7.27822">
        <ele>852.59997558594</ele>
        <time>2012-12-30T12:08:09Z</time>
      </trkpt>
      <trkpt lat="43.82732" lon="7.27816">
        <ele>852.79998779297</ele>
        <time>2012-12-30T12:08:11Z</time>
      </trkpt>
      <trkpt lat="43.82732" lon="7.27813">
        <ele>852.79998779297</ele>
        <time>2012-12-30T12:08:12Z</time>
      </trkpt>
      <trkpt lat="43.82726" lon="7.2779">
        <ele>853.59997558594</ele>
        <time>2012-12-30T12:08:19Z</time>
      </trkpt>
      <trkpt lat="43.82722" lon="7.27772">
        <ele>854.20001220703</ele>
        <time>2012-12-30T12:08:26Z</time>
      </trkpt>
      <trkpt lat="43.82722" lon="7.27755">
        <ele>854.79998779297</ele>
        <time>2012-12-30T12:08:33Z</time>
      </trkpt>
      <trkpt lat="43.82718" lon="7.27742">
        <ele>856.20001220703</ele>
        <time>2012-12-30T12:08:39Z</time>
      </trkpt>
      <trkpt lat="43.8272" lon="7.27728">
        <ele>858.40002441406</ele>
        <time>2012-12-30T12:08:45Z</time>
      </trkpt>
      <trkpt lat="43.82721" lon="7.27723">
        <ele>859.20001220703</ele>
        <time>2012-12-30T12:08:47Z</time>
      </trkpt>
      <trkpt lat="43.82718" lon="7.27717">
        <ele>860.40002441406</ele>
        <time>2012-12-30T12:08:50Z</time>
      </trkpt>
      <trkpt lat="43.82711" lon="7.27706">
        <ele>862.20001220703</ele>
        <time>2012-12-30T12:08:55Z</time>
      </trkpt>
      <trkpt lat="43.8271" lon="7.27705">
        <ele>862.40002441406</ele>
        <time>2012-12-30T12:08:56Z</time>
      </trkpt>
      <trkpt lat="43.82706" lon="7.27703">
        <ele>862.79998779297</ele>
        <time>2012-12-30T12:08:58Z</time>
      </trkpt>
      <trkpt lat="43.82701" lon="7.27702">
        <ele>863.20001220703</ele>
        <time>2012-12-30T12:09:01Z</time>
      </trkpt>
      <trkpt lat="43.8269" lon="7.27702">
        <ele>863.40002441406</ele>
        <time>2012-12-30T12:09:07Z</time>
      </trkpt>
      <trkpt lat="43.82688" lon="7.27703">
        <ele>863.40002441406</ele>
        <time>2012-12-30T12:09:08Z</time>
      </trkpt>
      <trkpt lat="43.82681" lon="7.27704">
        <ele>863.20001220703</ele>
        <time>2012-12-30T12:09:11Z</time>
      </trkpt>
      <trkpt lat="43.82679" lon="7.27706">
        <ele>863.20001220703</ele>
        <time>2012-12-30T12:09:12Z</time>
      </trkpt>
      <trkpt lat="43.82678" lon="7.27706">
        <ele>863</ele>
        <time>2012-12-30T12:09:13Z</time>
      </trkpt>
      <trkpt lat="43.82673" lon="7.27707">
        <ele>863</ele>
        <time>2012-12-30T12:09:16Z</time>
      </trkpt>
      <trkpt lat="43.82668" lon="7.27706">
        <ele>863.40002441406</ele>
        <time>2012-12-30T12:09:19Z</time>
      </trkpt>
      <trkpt lat="43.82666" lon="7.27707">
        <ele>863.20001220703</ele>
        <time>2012-12-30T12:09:20Z</time>
      </trkpt>
      <trkpt lat="43.82657" lon="7.27712">
        <ele>863</ele>
        <time>2012-12-30T12:09:25Z</time>
      </trkpt>
      <trkpt lat="43.82654" lon="7.27712">
        <ele>863.20001220703</ele>
        <time>2012-12-30T12:09:27Z</time>
      </trkpt>
      <trkpt lat="43.82653" lon="7.27712">
        <ele>863.20001220703</ele>
        <time>2012-12-30T12:09:28Z</time>
      </trkpt>
      <trkpt lat="43.82653" lon="7.27712">
        <ele>863.20001220703</ele>
        <time>2012-12-30T12:09:29Z</time>
      </trkpt>
      <trkpt lat="43.82649" lon="7.2771">
        <ele>864</ele>
        <time>2012-12-30T12:09:36Z</time>
      </trkpt>
      <trkpt lat="43.82645" lon="7.27706">
        <ele>865</ele>
        <time>2012-12-30T12:09:42Z</time>
      </trkpt>
      <trkpt lat="43.82643" lon="7.27705">
        <ele>865.40002441406</ele>
        <time>2012-12-30T12:09:46Z</time>
      </trkpt>
      <trkpt lat="43.82642" lon="7.27706">
        <ele>865.40002441406</ele>
        <time>2012-12-30T12:09:48Z</time>
      </trkpt>
      <trkpt lat="43.82637" lon="7.2771">
        <ele>865</ele>
        <time>2012-12-30T12:09:55Z</time>
      </trkpt>
      <trkpt lat="43.82632" lon="7.27712">
        <ele>864.79998779297</ele>
        <time>2012-12-30T12:10:01Z</time>
      </trkpt>
      <trkpt lat="43.82631" lon="7.27712">
        <ele>865</ele>
        <time>2012-12-30T12:10:02Z</time>
      </trkpt>
      <trkpt lat="43.82627" lon="7.27707">
        <ele>866.20001220703</ele>
        <time>2012-12-30T12:10:07Z</time>
      </trkpt>
      <trkpt lat="43.82624" lon="7.27707">
        <ele>866.40002441406</ele>
        <time>2012-12-30T12:10:13Z</time>
      </trkpt>
      <trkpt lat="43.82621" lon="7.27708">
        <ele>866.59997558594</ele>
        <time>2012-12-30T12:10:16Z</time>
      </trkpt>
      <trkpt lat="43.82619" lon="7.27708">
        <ele>866.59997558594</ele>
        <time>2012-12-30T12:10:20Z</time>
      </trkpt>
      <trkpt lat="43.82616" lon="7.27709">
        <ele>866.79998779297</ele>
        <time>2012-12-30T12:10:23Z</time>
      </trkpt>
      <trkpt lat="43.82616" lon="7.2771">
        <ele>866.40002441406</ele>
        <time>2012-12-30T12:10:26Z</time>
      </trkpt>
      <trkpt lat="43.82613" lon="7.27705">
        <ele>867.79998779297</ele>
        <time>2012-12-30T12:10:35Z</time>
      </trkpt>
      <trkpt lat="43.82609" lon="7.27707">
        <ele>867.79998779297</ele>
        <time>2012-12-30T12:10:39Z</time>
      </trkpt>
      <trkpt lat="43.82607" lon="7.27706">
        <ele>868.20001220703</ele>
        <time>2012-12-30T12:10:41Z</time>
      </trkpt>
      <trkpt lat="43.82605" lon="7.27703">
        <ele>868.79998779297</ele>
        <time>2012-12-30T12:10:47Z</time>
      </trkpt>
      <trkpt lat="43.82598" lon="7.27699">
        <ele>870.20001220703</ele>
        <time>2012-12-30T12:10:55Z</time>
      </trkpt>
      <trkpt lat="43.82595" lon="7.27698">
        <ele>870.79998779297</ele>
        <time>2012-12-30T12:11:00Z</time>
      </trkpt>
      <trkpt lat="43.82594" lon="7.27697">
        <ele>871</ele>
        <time>2012-12-30T12:11:01Z</time>
      </trkpt>
      <trkpt lat="43.82592" lon="7.27694">
        <ele>871.79998779297</ele>
        <time>2012-12-30T12:11:03Z</time>
      </trkpt>
      <trkpt lat="43.82589" lon="7.27692">
        <ele>872.59997558594</ele>
        <time>2012-12-30T12:11:06Z</time>
      </trkpt>
      <trkpt lat="43.82588" lon="7.27691">
        <ele>873</ele>
        <time>2012-12-30T12:11:07Z</time>
      </trkpt>
      <trkpt lat="43.82581" lon="7.27686">
        <ele>875</ele>
        <time>2012-12-30T12:11:13Z</time>
      </trkpt>
      <trkpt lat="43.82575" lon="7.27685">
        <ele>876.20001220703</ele>
        <time>2012-12-30T12:11:17Z</time>
      </trkpt>
      <trkpt lat="43.82573" lon="7.27687">
        <ele>876.40002441406</ele>
        <time>2012-12-30T12:11:18Z</time>
      </trkpt>
      <trkpt lat="43.82571" lon="7.27687">
        <ele>876.59997558594</ele>
        <time>2012-12-30T12:11:19Z</time>
      </trkpt>
      <trkpt lat="43.82569" lon="7.27687">
        <ele>876.79998779297</ele>
        <time>2012-12-30T12:11:20Z</time>
      </trkpt>
      <trkpt lat="43.82566" lon="7.27688">
        <ele>877.20001220703</ele>
        <time>2012-12-30T12:11:22Z</time>
      </trkpt>
      <trkpt lat="43.82564" lon="7.27687">
        <ele>877.79998779297</ele>
        <time>2012-12-30T12:11:25Z</time>
      </trkpt>
      <trkpt lat="43.82563" lon="7.27685">
        <ele>878.40002441406</ele>
        <time>2012-12-30T12:11:31Z</time>
      </trkpt>
      <trkpt lat="43.82559" lon="7.27687">
        <ele>878.59997558594</ele>
        <time>2012-12-30T12:11:44Z</time>
      </trkpt>
      <trkpt lat="43.82558" lon="7.27688">
        <ele>878.59997558594</ele>
        <time>2012-12-30T12:11:45Z</time>
      </trkpt>
      <trkpt lat="43.82558" lon="7.27688">
        <ele>878.59997558594</ele>
        <time>2012-12-30T12:11:46Z</time>
      </trkpt>
      <trkpt lat="43.82559" lon="7.27688">
        <ele>878.40002441406</ele>
        <time>2012-12-30T12:11:48Z</time>
      </trkpt>
      <trkpt lat="43.82559" lon="7.27688">
        <ele>878.59997558594</ele>
        <time>2012-12-30T12:11:52Z</time>
      </trkpt>
      <trkpt lat="43.82558" lon="7.27686">
        <ele>879</ele>
        <time>2012-12-30T12:11:53Z</time>
      </trkpt>
      <trkpt lat="43.82558" lon="7.27686">
        <ele>879.20001220703</ele>
        <time>2012-12-30T12:11:54Z</time>
      </trkpt>
      <trkpt lat="43.82557" lon="7.27685">
        <ele>879.40002441406</ele>
        <time>2012-12-30T12:11:55Z</time>
      </trkpt>
      <trkpt lat="43.82556" lon="7.27685">
        <ele>879.59997558594</ele>
        <time>2012-12-30T12:11:56Z</time>
      </trkpt>
      <trkpt lat="43.82552" lon="7.27685">
        <ele>880.40002441406</ele>
        <time>2012-12-30T12:12:03Z</time>
      </trkpt>
      <trkpt lat="43.82548" lon="7.27687">
        <ele>880.59997558594</ele>
        <time>2012-12-30T12:12:10Z</time>
      </trkpt>
      <trkpt lat="43.82546" lon="7.27692">
        <ele>880.20001220703</ele>
        <time>2012-12-30T12:12:16Z</time>
      </trkpt>
      <trkpt lat="43.82542" lon="7.27694">
        <ele>880.40002441406</ele>
        <time>2012-12-30T12:12:22Z</time>
      </trkpt>
      <trkpt lat="43.82542" lon="7.27698">
        <ele>879.79998779297</ele>
        <time>2012-12-30T12:12:26Z</time>
      </trkpt>
      <trkpt lat="43.82541" lon="7.27701">
        <ele>879.59997558594</ele>
        <time>2012-12-30T12:12:29Z</time>
      </trkpt>
      <trkpt lat="43.8254" lon="7.27701">
        <ele>879.79998779297</ele>
        <time>2012-12-30T12:12:30Z</time>
      </trkpt>
      <trkpt lat="43.82538" lon="7.27707">
        <ele>879</ele>
        <time>2012-12-30T12:12:35Z</time>
      </trkpt>
      <trkpt lat="43.82538" lon="7.27709">
        <ele>878.79998779297</ele>
        <time>2012-12-30T12:12:37Z</time>
      </trkpt>
      <trkpt lat="43.82536" lon="7.27708">
        <ele>879.40002441406</ele>
        <time>2012-12-30T12:12:39Z</time>
      </trkpt>
      <trkpt lat="43.82535" lon="7.27709">
        <ele>879.59997558594</ele>
        <time>2012-12-30T12:12:41Z</time>
      </trkpt>
      <trkpt lat="43.82529" lon="7.27713">
        <ele>880</ele>
        <time>2012-12-30T12:12:49Z</time>
      </trkpt>
      <trkpt lat="43.82529" lon="7.27714">
        <ele>880</ele>
        <time>2012-12-30T12:12:50Z</time>
      </trkpt>
      <trkpt lat="43.82528" lon="7.27716">
        <ele>880</ele>
        <time>2012-12-30T12:12:55Z</time>
      </trkpt>
      <trkpt lat="43.82526" lon="7.27717">
        <ele>880</ele>
        <time>2012-12-30T12:12:58Z</time>
      </trkpt>
      <trkpt lat="43.82524" lon="7.27719">
        <ele>880.20001220703</ele>
        <time>2012-12-30T12:13:02Z</time>
      </trkpt>
      <trkpt lat="43.82521" lon="7.27724">
        <ele>880.40002441406</ele>
        <time>2012-12-30T12:13:12Z</time>
      </trkpt>
      <trkpt lat="43.82515" lon="7.27728">
        <ele>881</ele>
        <time>2012-12-30T12:13:21Z</time>
      </trkpt>
      <trkpt lat="43.82511" lon="7.27735">
        <ele>881</ele>
        <time>2012-12-30T12:13:27Z</time>
      </trkpt>
      <trkpt lat="43.82505" lon="7.2774">
        <ele>881.59997558594</ele>
        <time>2012-12-30T12:13:34Z</time>
      </trkpt>
      <trkpt lat="43.82504" lon="7.27742">
        <ele>882</ele>
        <time>2012-12-30T12:13:36Z</time>
      </trkpt>
      <trkpt lat="43.82503" lon="7.27743">
        <ele>882</ele>
        <time>2012-12-30T12:13:37Z</time>
      </trkpt>
      <trkpt lat="43.82501" lon="7.27744">
        <ele>882.40002441406</ele>
        <time>2012-12-30T12:13:39Z</time>
      </trkpt>
      <trkpt lat="43.82497" lon="7.27743">
        <ele>882.79998779297</ele>
        <time>2012-12-30T12:13:42Z</time>
      </trkpt>
      <trkpt lat="43.82496" lon="7.27744">
        <ele>882.79998779297</ele>
        <time>2012-12-30T12:13:44Z</time>
      </trkpt>
      <trkpt lat="43.82494" lon="7.27748">
        <ele>882.40002441406</ele>
        <time>2012-12-30T12:13:48Z</time>
      </trkpt>
      <trkpt lat="43.82493" lon="7.27749">
        <ele>882.40002441406</ele>
        <time>2012-12-30T12:13:49Z</time>
      </trkpt>
      <trkpt lat="43.82487" lon="7.27751">
        <ele>882.20001220703</ele>
        <time>2012-12-30T12:13:53Z</time>
      </trkpt>
      <trkpt lat="43.82479" lon="7.27758">
        <ele>880.79998779297</ele>
        <time>2012-12-30T12:13:59Z</time>
      </trkpt>
      <trkpt lat="43.82473" lon="7.27761">
        <ele>880.40002441406</ele>
        <time>2012-12-30T12:14:03Z</time>
      </trkpt>
      <trkpt lat="43.8247" lon="7.27765">
        <ele>879.79998779297</ele>
        <time>2012-12-30T12:14:05Z</time>
      </trkpt>
      <trkpt lat="43.82467" lon="7.27767">
        <ele>879.59997558594</ele>
        <time>2012-12-30T12:14:07Z</time>
      </trkpt>
      <trkpt lat="43.8246" lon="7.27771">
        <ele>879.20001220703</ele>
        <time>2012-12-30T12:14:11Z</time>
      </trkpt>
      <trkpt lat="43.8245" lon="7.27774">
        <ele>879.59997558594</ele>
        <time>2012-12-30T12:14:17Z</time>
      </trkpt>
      <trkpt lat="43.82444" lon="7.27774">
        <ele>880.40002441406</ele>
        <time>2012-12-30T12:14:22Z</time>
      </trkpt>
      <trkpt lat="43.82438" lon="7.27781">
        <ele>879.79998779297</ele>
        <time>2012-12-30T12:14:26Z</time>
      </trkpt>
      <trkpt lat="43.82436" lon="7.2778">
        <ele>880.20001220703</ele>
        <time>2012-12-30T12:14:29Z</time>
      </trkpt>
      <trkpt lat="43.82435" lon="7.2778">
        <ele>880.40002441406</ele>
        <time>2012-12-30T12:14:30Z</time>
      </trkpt>
      <trkpt lat="43.82434" lon="7.27779">
        <ele>880.59997558594</ele>
        <time>2012-12-30T12:14:31Z</time>
      </trkpt>
      <trkpt lat="43.82431" lon="7.27778">
        <ele>881.20001220703</ele>
        <time>2012-12-30T12:14:34Z</time>
      </trkpt>
      <trkpt lat="43.82431" lon="7.27777">
        <ele>881.40002441406</ele>
        <time>2012-12-30T12:14:35Z</time>
      </trkpt>
      <trkpt lat="43.82428" lon="7.27775">
        <ele>882</ele>
        <time>2012-12-30T12:14:38Z</time>
      </trkpt>
      <trkpt lat="43.82425" lon="7.27774">
        <ele>882.59997558594</ele>
        <time>2012-12-30T12:14:41Z</time>
      </trkpt>
      <trkpt lat="43.82423" lon="7.27774">
        <ele>882.79998779297</ele>
        <time>2012-12-30T12:14:43Z</time>
      </trkpt>
      <trkpt lat="43.82422" lon="7.27773">
        <ele>883</ele>
        <time>2012-12-30T12:14:44Z</time>
      </trkpt>
      <trkpt lat="43.82418" lon="7.27775">
        <ele>883.20001220703</ele>
        <time>2012-12-30T12:14:47Z</time>
      </trkpt>
      <trkpt lat="43.82412" lon="7.27775">
        <ele>883.20001220703</ele>
        <time>2012-12-30T12:14:50Z</time>
      </trkpt>
      <trkpt lat="43.8241" lon="7.27774">
        <ele>883.20001220703</ele>
        <time>2012-12-30T12:14:51Z</time>
      </trkpt>
      <trkpt lat="43.82399" lon="7.27781">
        <ele>882.20001220703</ele>
        <time>2012-12-30T12:14:56Z</time>
      </trkpt>
      <trkpt lat="43.82396" lon="7.27782">
        <ele>882.20001220703</ele>
        <time>2012-12-30T12:14:58Z</time>
      </trkpt>
      <trkpt lat="43.82391" lon="7.27779">
        <ele>882.40002441406</ele>
        <time>2012-12-30T12:15:00Z</time>
      </trkpt>
      <trkpt lat="43.82381" lon="7.27774">
        <ele>882.40002441406</ele>
        <time>2012-12-30T12:15:05Z</time>
      </trkpt>
      <trkpt lat="43.82374" lon="7.27767">
        <ele>882.59997558594</ele>
        <time>2012-12-30T12:15:09Z</time>
      </trkpt>
      <trkpt lat="43.82368" lon="7.27764">
        <ele>882.40002441406</ele>
        <time>2012-12-30T12:15:11Z</time>
      </trkpt>
      <trkpt lat="43.82363" lon="7.27767">
        <ele>882</ele>
        <time>2012-12-30T12:15:13Z</time>
      </trkpt>
      <trkpt lat="43.82357" lon="7.27774">
        <ele>881.79998779297</ele>
        <time>2012-12-30T12:15:18Z</time>
      </trkpt>
      <trkpt lat="43.82351" lon="7.27778">
        <ele>881.59997558594</ele>
        <time>2012-12-30T12:15:21Z</time>
      </trkpt>
      <trkpt lat="43.82344" lon="7.27779">
        <ele>881.40002441406</ele>
        <time>2012-12-30T12:15:25Z</time>
      </trkpt>
      <trkpt lat="43.82331" lon="7.27777">
        <ele>881</ele>
        <time>2012-12-30T12:15:33Z</time>
      </trkpt>
      <trkpt lat="43.82328" lon="7.27776">
        <ele>880.79998779297</ele>
        <time>2012-12-30T12:15:37Z</time>
      </trkpt>
      <trkpt lat="43.82314" lon="7.27779">
        <ele>880.20001220703</ele>
        <time>2012-12-30T12:15:43Z</time>
      </trkpt>
      <trkpt lat="43.82302" lon="7.27774">
        <ele>879.20001220703</ele>
        <time>2012-12-30T12:15:47Z</time>
      </trkpt>
      <trkpt lat="43.82284" lon="7.27769">
        <ele>878</ele>
        <time>2012-12-30T12:15:52Z</time>
      </trkpt>
      <trkpt lat="43.82266" lon="7.27768">
        <ele>876.79998779297</ele>
        <time>2012-12-30T12:15:56Z</time>
      </trkpt>
      <trkpt lat="43.82255" lon="7.27771">
        <ele>876.40002441406</ele>
        <time>2012-12-30T12:15:58Z</time>
      </trkpt>
      <trkpt lat="43.82247" lon="7.27776">
        <ele>876.20001220703</ele>
        <time>2012-12-30T12:16:00Z</time>
      </trkpt>
      <trkpt lat="43.82243" lon="7.27776">
        <ele>875.79998779297</ele>
        <time>2012-12-30T12:16:01Z</time>
      </trkpt>
      <trkpt lat="43.82228" lon="7.27783">
        <ele>874.40002441406</ele>
        <time>2012-12-30T12:16:05Z</time>
      </trkpt>
      <trkpt lat="43.82215" lon="7.27791">
        <ele>873.59997558594</ele>
        <time>2012-12-30T12:16:09Z</time>
      </trkpt>
      <trkpt lat="43.82212" lon="7.27791">
        <ele>873.20001220703</ele>
        <time>2012-12-30T12:16:10Z</time>
      </trkpt>
      <trkpt lat="43.82195" lon="7.27792">
        <ele>871.59997558594</ele>
        <time>2012-12-30T12:16:15Z</time>
      </trkpt>
      <trkpt lat="43.82179" lon="7.27799">
        <ele>870.20001220703</ele>
        <time>2012-12-30T12:16:19Z</time>
      </trkpt>
      <trkpt lat="43.82165" lon="7.278">
        <ele>868.79998779297</ele>
        <time>2012-12-30T12:16:23Z</time>
      </trkpt>
      <trkpt lat="43.82152" lon="7.2781">
        <ele>868.40002441406</ele>
        <time>2012-12-30T12:16:28Z</time>
      </trkpt>
      <trkpt lat="43.82139" lon="7.27824">
        <ele>869.20001220703</ele>
        <time>2012-12-30T12:16:33Z</time>
      </trkpt>
      <trkpt lat="43.82122" lon="7.27842">
        <ele>870.59997558594</ele>
        <time>2012-12-30T12:16:38Z</time>
      </trkpt>
      <trkpt lat="43.82108" lon="7.27863">
        <ele>871.79998779297</ele>
        <time>2012-12-30T12:16:44Z</time>
      </trkpt>
      <trkpt lat="43.821" lon="7.2787">
        <ele>871.79998779297</ele>
        <time>2012-12-30T12:16:47Z</time>
      </trkpt>
      <trkpt lat="43.82092" lon="7.27872">
        <ele>871.59997558594</ele>
        <time>2012-12-30T12:16:50Z</time>
      </trkpt>
      <trkpt lat="43.82079" lon="7.2788">
        <ele>871.40002441406</ele>
        <time>2012-12-30T12:16:55Z</time>
      </trkpt>
      <trkpt lat="43.82078" lon="7.27881">
        <ele>871.40002441406</ele>
        <time>2012-12-30T12:16:56Z</time>
      </trkpt>
      <trkpt lat="43.82072" lon="7.27888">
        <ele>871.59997558594</ele>
        <time>2012-12-30T12:16:59Z</time>
      </trkpt>
      <trkpt lat="43.82069" lon="7.27893">
        <ele>871.59997558594</ele>
        <time>2012-12-30T12:17:01Z</time>
      </trkpt>
      <trkpt lat="43.82063" lon="7.279">
        <ele>871.79998779297</ele>
        <time>2012-12-30T12:17:04Z</time>
      </trkpt>
      <trkpt lat="43.82059" lon="7.27908">
        <ele>872.40002441406</ele>
        <time>2012-12-30T12:17:07Z</time>
      </trkpt>
      <trkpt lat="43.82058" lon="7.2791">
        <ele>872.40002441406</ele>
        <time>2012-12-30T12:17:08Z</time>
      </trkpt>
      <trkpt lat="43.82053" lon="7.27917">
        <ele>872.79998779297</ele>
        <time>2012-12-30T12:17:12Z</time>
      </trkpt>
      <trkpt lat="43.82052" lon="7.27918">
        <ele>873</ele>
        <time>2012-12-30T12:17:13Z</time>
      </trkpt>
      <trkpt lat="43.82049" lon="7.2792">
        <ele>873</ele>
        <time>2012-12-30T12:17:15Z</time>
      </trkpt>
      <trkpt lat="43.82042" lon="7.27921">
        <ele>872.79998779297</ele>
        <time>2012-12-30T12:17:18Z</time>
      </trkpt>
      <trkpt lat="43.82035" lon="7.27922">
        <ele>872.59997558594</ele>
        <time>2012-12-30T12:17:21Z</time>
      </trkpt>
      <trkpt lat="43.8203" lon="7.27926">
        <ele>872.59997558594</ele>
        <time>2012-12-30T12:17:24Z</time>
      </trkpt>
      <trkpt lat="43.82026" lon="7.2793">
        <ele>872.79998779297</ele>
        <time>2012-12-30T12:17:26Z</time>
      </trkpt>
      <trkpt lat="43.82024" lon="7.27934">
        <ele>873</ele>
        <time>2012-12-30T12:17:28Z</time>
      </trkpt>
      <trkpt lat="43.82024" lon="7.27935">
        <ele>873.20001220703</ele>
        <time>2012-12-30T12:17:29Z</time>
      </trkpt>
      <trkpt lat="43.82023" lon="7.27937">
        <ele>873.20001220703</ele>
        <time>2012-12-30T12:17:33Z</time>
      </trkpt>
      <trkpt lat="43.82017" lon="7.27938">
        <ele>873.20001220703</ele>
        <time>2012-12-30T12:17:42Z</time>
      </trkpt>
      <trkpt lat="43.82007" lon="7.27943">
        <ele>873</ele>
        <time>2012-12-30T12:17:48Z</time>
      </trkpt>
      <trkpt lat="43.82" lon="7.27956">
        <ele>873.79998779297</ele>
        <time>2012-12-30T12:17:55Z</time>
      </trkpt>
      <trkpt lat="43.81993" lon="7.2797">
        <ele>875</ele>
        <time>2012-12-30T12:18:02Z</time>
      </trkpt>
      <trkpt lat="43.81981" lon="7.27987">
        <ele>876.79998779297</ele>
        <time>2012-12-30T12:18:10Z</time>
      </trkpt>
      <trkpt lat="43.81978" lon="7.27996">
        <ele>877.59997558594</ele>
        <time>2012-12-30T12:18:15Z</time>
      </trkpt>
      <trkpt lat="43.81978" lon="7.27998">
        <ele>877.79998779297</ele>
        <time>2012-12-30T12:18:16Z</time>
      </trkpt>
      <trkpt lat="43.81976" lon="7.28006">
        <ele>878.59997558594</ele>
        <time>2012-12-30T12:18:22Z</time>
      </trkpt>
      <trkpt lat="43.81975" lon="7.28008">
        <ele>878.79998779297</ele>
        <time>2012-12-30T12:18:26Z</time>
      </trkpt>
      <trkpt lat="43.81974" lon="7.28009">
        <ele>879</ele>
        <time>2012-12-30T12:18:29Z</time>
      </trkpt>
      <trkpt lat="43.81971" lon="7.28016">
        <ele>879.59997558594</ele>
        <time>2012-12-30T12:18:36Z</time>
      </trkpt>
      <trkpt lat="43.81969" lon="7.28022">
        <ele>880.20001220703</ele>
        <time>2012-12-30T12:18:43Z</time>
      </trkpt>
      <trkpt lat="43.81966" lon="7.28024">
        <ele>880.40002441406</ele>
        <time>2012-12-30T12:18:48Z</time>
      </trkpt>
      <trkpt lat="43.81964" lon="7.28025">
        <ele>880.59997558594</ele>
        <time>2012-12-30T12:18:51Z</time>
      </trkpt>
      <trkpt lat="43.81963" lon="7.28029">
        <ele>881</ele>
        <time>2012-12-30T12:18:54Z</time>
      </trkpt>
      <trkpt lat="43.81963" lon="7.2803">
        <ele>881</ele>
        <time>2012-12-30T12:18:55Z</time>
      </trkpt>
      <trkpt lat="43.81963" lon="7.28031">
        <ele>881.20001220703</ele>
        <time>2012-12-30T12:18:57Z</time>
      </trkpt>
      <trkpt lat="43.81961" lon="7.28034">
        <ele>881.40002441406</ele>
        <time>2012-12-30T12:19:02Z</time>
      </trkpt>
      <trkpt lat="43.81955" lon="7.28038">
        <ele>882</ele>
        <time>2012-12-30T12:19:09Z</time>
      </trkpt>
      <trkpt lat="43.81953" lon="7.28039">
        <ele>882.20001220703</ele>
        <time>2012-12-30T12:19:11Z</time>
      </trkpt>
      <trkpt lat="43.81951" lon="7.2804">
        <ele>882.20001220703</ele>
        <time>2012-12-30T12:19:12Z</time>
      </trkpt>
      <trkpt lat="43.81948" lon="7.28045">
        <ele>882.79998779297</ele>
        <time>2012-12-30T12:19:15Z</time>
      </trkpt>
      <trkpt lat="43.81947" lon="7.28047">
        <ele>882.79998779297</ele>
        <time>2012-12-30T12:19:16Z</time>
      </trkpt>
      <trkpt lat="43.81945" lon="7.28048">
        <ele>883</ele>
        <time>2012-12-30T12:19:17Z</time>
      </trkpt>
      <trkpt lat="43.81939" lon="7.28057">
        <ele>883.79998779297</ele>
        <time>2012-12-30T12:19:22Z</time>
      </trkpt>
      <trkpt lat="43.81929" lon="7.28065">
        <ele>884.59997558594</ele>
        <time>2012-12-30T12:19:28Z</time>
      </trkpt>
      <trkpt lat="43.81919" lon="7.28075">
        <ele>885.40002441406</ele>
        <time>2012-12-30T12:19:34Z</time>
      </trkpt>
      <trkpt lat="43.81907" lon="7.2809">
        <ele>886.20001220703</ele>
        <time>2012-12-30T12:19:41Z</time>
      </trkpt>
      <trkpt lat="43.81893" lon="7.28101">
        <ele>886.59997558594</ele>
        <time>2012-12-30T12:19:47Z</time>
      </trkpt>
      <trkpt lat="43.81878" lon="7.28111">
        <ele>887.20001220703</ele>
        <time>2012-12-30T12:19:53Z</time>
      </trkpt>
      <trkpt lat="43.81876" lon="7.28114">
        <ele>887.20001220703</ele>
        <time>2012-12-30T12:19:54Z</time>
      </trkpt>
      <trkpt lat="43.81861" lon="7.28129">
        <ele>888</ele>
        <time>2012-12-30T12:20:00Z</time>
      </trkpt>
      <trkpt lat="43.81841" lon="7.28139">
        <ele>889</ele>
        <time>2012-12-30T12:20:06Z</time>
      </trkpt>
      <trkpt lat="43.81823" lon="7.2814">
        <ele>889.59997558594</ele>
        <time>2012-12-30T12:20:10Z</time>
      </trkpt>
      <trkpt lat="43.8181" lon="7.28147">
        <ele>890.20001220703</ele>
        <time>2012-12-30T12:20:14Z</time>
      </trkpt>
      <trkpt lat="43.81805" lon="7.28149">
        <ele>890.20001220703</ele>
        <time>2012-12-30T12:20:16Z</time>
      </trkpt>
      <trkpt lat="43.81802" lon="7.2815">
        <ele>890.40002441406</ele>
        <time>2012-12-30T12:20:18Z</time>
      </trkpt>
      <trkpt lat="43.818" lon="7.2815">
        <ele>890.40002441406</ele>
        <time>2012-12-30T12:20:20Z</time>
      </trkpt>
      <trkpt lat="43.818" lon="7.28151">
        <ele>890.40002441406</ele>
        <time>2012-12-30T12:20:22Z</time>
      </trkpt>
      <trkpt lat="43.81794" lon="7.28152">
        <ele>890.59997558594</ele>
        <time>2012-12-30T12:20:29Z</time>
      </trkpt>
      <trkpt lat="43.81788" lon="7.28154">
        <ele>890.79998779297</ele>
        <time>2012-12-30T12:20:37Z</time>
      </trkpt>
      <trkpt lat="43.81787" lon="7.28154">
        <ele>890.79998779297</ele>
        <time>2012-12-30T12:20:38Z</time>
      </trkpt>
      <trkpt lat="43.81783" lon="7.28154">
        <ele>891</ele>
        <time>2012-12-30T12:20:43Z</time>
      </trkpt>
      <trkpt lat="43.81781" lon="7.28154">
        <ele>891</ele>
        <time>2012-12-30T12:20:44Z</time>
      </trkpt>
      <trkpt lat="43.81778" lon="7.28153">
        <ele>891.20001220703</ele>
        <time>2012-12-30T12:20:48Z</time>
      </trkpt>
      <trkpt lat="43.81777" lon="7.28152">
        <ele>891.20001220703</ele>
        <time>2012-12-30T12:20:51Z</time>
      </trkpt>
      <trkpt lat="43.81771" lon="7.28149">
        <ele>891.20001220703</ele>
        <time>2012-12-30T12:20:57Z</time>
      </trkpt>
      <trkpt lat="43.8177" lon="7.28149">
        <ele>891.40002441406</ele>
        <time>2012-12-30T12:20:58Z</time>
      </trkpt>
      <trkpt lat="43.81769" lon="7.28149">
        <ele>891.40002441406</ele>
        <time>2012-12-30T12:21:04Z</time>
      </trkpt>
      <trkpt lat="43.81766" lon="7.28149">
        <ele>891.40002441406</ele>
        <time>2012-12-30T12:21:07Z</time>
      </trkpt>
      <trkpt lat="43.81765" lon="7.28149">
        <ele>891.40002441406</ele>
        <time>2012-12-30T12:21:09Z</time>
      </trkpt>
      <trkpt lat="43.81761" lon="7.28148">
        <ele>891.59997558594</ele>
        <time>2012-12-30T12:21:14Z</time>
      </trkpt>
      <trkpt lat="43.81758" lon="7.28148">
        <ele>891.59997558594</ele>
        <time>2012-12-30T12:21:18Z</time>
      </trkpt>
      <trkpt lat="43.81754" lon="7.2815">
        <ele>891.79998779297</ele>
        <time>2012-12-30T12:21:21Z</time>
      </trkpt>
      <trkpt lat="43.81747" lon="7.28152">
        <ele>891.79998779297</ele>
        <time>2012-12-30T12:21:25Z</time>
      </trkpt>
      <trkpt lat="43.81745" lon="7.28152">
        <ele>891.59997558594</ele>
        <time>2012-12-30T12:21:26Z</time>
      </trkpt>
      <trkpt lat="43.81733" lon="7.28153">
        <ele>890.59997558594</ele>
        <time>2012-12-30T12:21:32Z</time>
      </trkpt>
      <trkpt lat="43.8172" lon="7.28151">
        <ele>889.59997558594</ele>
        <time>2012-12-30T12:21:37Z</time>
      </trkpt>
      <trkpt lat="43.81718" lon="7.28152">
        <ele>889.40002441406</ele>
        <time>2012-12-30T12:21:38Z</time>
      </trkpt>
      <trkpt lat="43.8171" lon="7.28153">
        <ele>888.79998779297</ele>
        <time>2012-12-30T12:21:42Z</time>
      </trkpt>
      <trkpt lat="43.81707" lon="7.28154">
        <ele>888.40002441406</ele>
        <time>2012-12-30T12:21:43Z</time>
      </trkpt>
      <trkpt lat="43.81694" lon="7.28156">
        <ele>887.40002441406</ele>
        <time>2012-12-30T12:21:47Z</time>
      </trkpt>
      <trkpt lat="43.81689" lon="7.28155">
        <ele>887</ele>
        <time>2012-12-30T12:21:50Z</time>
      </trkpt>
      <trkpt lat="43.81687" lon="7.28157">
        <ele>886.79998779297</ele>
        <time>2012-12-30T12:21:51Z</time>
      </trkpt>
      <trkpt lat="43.81677" lon="7.28166">
        <ele>885.79998779297</ele>
        <time>2012-12-30T12:21:55Z</time>
      </trkpt>
      <trkpt lat="43.81671" lon="7.28169">
        <ele>885.40002441406</ele>
        <time>2012-12-30T12:21:57Z</time>
      </trkpt>
      <trkpt lat="43.81667" lon="7.2817">
        <ele>885.20001220703</ele>
        <time>2012-12-30T12:21:59Z</time>
      </trkpt>
      <trkpt lat="43.81663" lon="7.28171">
        <ele>885</ele>
        <time>2012-12-30T12:22:02Z</time>
      </trkpt>
      <trkpt lat="43.81657" lon="7.28171">
        <ele>884.79998779297</ele>
        <time>2012-12-30T12:22:04Z</time>
      </trkpt>
      <trkpt lat="43.81648" lon="7.28174">
        <ele>884.79998779297</ele>
        <time>2012-12-30T12:22:07Z</time>
      </trkpt>
      <trkpt lat="43.81645" lon="7.28176">
        <ele>884.79998779297</ele>
        <time>2012-12-30T12:22:08Z</time>
      </trkpt>
      <trkpt lat="43.81632" lon="7.28175">
        <ele>884.40002441406</ele>
        <time>2012-12-30T12:22:12Z</time>
      </trkpt>
      <trkpt lat="43.81624" lon="7.28175">
        <ele>884</ele>
        <time>2012-12-30T12:22:15Z</time>
      </trkpt>
      <trkpt lat="43.8162" lon="7.28178">
        <ele>884</ele>
        <time>2012-12-30T12:22:16Z</time>
      </trkpt>
      <trkpt lat="43.81603" lon="7.28188">
        <ele>883.40002441406</ele>
        <time>2012-12-30T12:22:20Z</time>
      </trkpt>
      <trkpt lat="43.8159" lon="7.2819">
        <ele>883</ele>
        <time>2012-12-30T12:22:24Z</time>
      </trkpt>
      <trkpt lat="43.81586" lon="7.2819">
        <ele>882.79998779297</ele>
        <time>2012-12-30T12:22:25Z</time>
      </trkpt>
      <trkpt lat="43.81575" lon="7.28202">
        <ele>882.40002441406</ele>
        <time>2012-12-30T12:22:29Z</time>
      </trkpt>
      <trkpt lat="43.81557" lon="7.28214">
        <ele>881.59997558594</ele>
        <time>2012-12-30T12:22:34Z</time>
      </trkpt>
      <trkpt lat="43.81535" lon="7.28228">
        <ele>880</ele>
        <time>2012-12-30T12:22:40Z</time>
      </trkpt>
      <trkpt lat="43.81525" lon="7.28235">
        <ele>878.79998779297</ele>
        <time>2012-12-30T12:22:43Z</time>
      </trkpt>
      <trkpt lat="43.8152" lon="7.28242">
        <ele>878</ele>
        <time>2012-12-30T12:22:45Z</time>
      </trkpt>
      <trkpt lat="43.81505" lon="7.28247">
        <ele>876.59997558594</ele>
        <time>2012-12-30T12:22:49Z</time>
      </trkpt>
      <trkpt lat="43.81501" lon="7.28246">
        <ele>876.40002441406</ele>
        <time>2012-12-30T12:22:50Z</time>
      </trkpt>
      <trkpt lat="43.81488" lon="7.28252">
        <ele>875.40002441406</ele>
        <time>2012-12-30T12:22:54Z</time>
      </trkpt>
      <trkpt lat="43.81471" lon="7.28248">
        <ele>874.40002441406</ele>
        <time>2012-12-30T12:22:58Z</time>
      </trkpt>
      <trkpt lat="43.81454" lon="7.28246">
        <ele>873.40002441406</ele>
        <time>2012-12-30T12:23:03Z</time>
      </trkpt>
      <trkpt lat="43.81436" lon="7.2825">
        <ele>872</ele>
        <time>2012-12-30T12:23:08Z</time>
      </trkpt>
      <trkpt lat="43.81418" lon="7.28253">
        <ele>871.20001220703</ele>
        <time>2012-12-30T12:23:14Z</time>
      </trkpt>
      <trkpt lat="43.81421" lon="7.28256">
        <ele>871.40002441406</ele>
        <time>2012-12-30T12:23:20Z</time>
      </trkpt>
      <trkpt lat="43.81419" lon="7.28255">
        <ele>871.20001220703</ele>
        <time>2012-12-30T12:23:23Z</time>
      </trkpt>
      <trkpt lat="43.81416" lon="7.28256">
        <ele>871</ele>
        <time>2012-12-30T12:23:27Z</time>
      </trkpt>
      <trkpt lat="43.81411" lon="7.28257">
        <ele>870.59997558594</ele>
        <time>2012-12-30T12:23:31Z</time>
      </trkpt>
      <trkpt lat="43.81411" lon="7.28255">
        <ele>870.40002441406</ele>
        <time>2012-12-30T12:23:33Z</time>
      </trkpt>
      <trkpt lat="43.8141" lon="7.28256">
        <ele>870.40002441406</ele>
        <time>2012-12-30T12:23:35Z</time>
      </trkpt>
      <trkpt lat="43.81409" lon="7.28258">
        <ele>870.40002441406</ele>
        <time>2012-12-30T12:23:39Z</time>
      </trkpt>
      <trkpt lat="43.81406" lon="7.28258">
        <ele>870</ele>
        <time>2012-12-30T12:23:44Z</time>
      </trkpt>
      <trkpt lat="43.81404" lon="7.28258">
        <ele>869.59997558594</ele>
        <time>2012-12-30T12:23:49Z</time>
      </trkpt>
      <trkpt lat="43.814" lon="7.2826">
        <ele>869.40002441406</ele>
        <time>2012-12-30T12:23:52Z</time>
      </trkpt>
      <trkpt lat="43.81397" lon="7.28259">
        <ele>869</ele>
        <time>2012-12-30T12:23:56Z</time>
      </trkpt>
      <trkpt lat="43.81395" lon="7.2826">
        <ele>868.79998779297</ele>
        <time>2012-12-30T12:23:58Z</time>
      </trkpt>
      <trkpt lat="43.81394" lon="7.2826">
        <ele>868.59997558594</ele>
        <time>2012-12-30T12:24:00Z</time>
      </trkpt>
      <trkpt lat="43.81394" lon="7.28258">
        <ele>868.59997558594</ele>
        <time>2012-12-30T12:24:02Z</time>
      </trkpt>
      <trkpt lat="43.81392" lon="7.28256">
        <ele>868.20001220703</ele>
        <time>2012-12-30T12:24:07Z</time>
      </trkpt>
      <trkpt lat="43.8139" lon="7.28254">
        <ele>868</ele>
        <time>2012-12-30T12:24:12Z</time>
      </trkpt>
      <trkpt lat="43.8139" lon="7.28251">
        <ele>867.79998779297</ele>
        <time>2012-12-30T12:24:17Z</time>
      </trkpt>
      <trkpt lat="43.81389" lon="7.28248">
        <ele>867.59997558594</ele>
        <time>2012-12-30T12:24:23Z</time>
      </trkpt>
      <trkpt lat="43.8139" lon="7.28243">
        <ele>867.59997558594</ele>
        <time>2012-12-30T12:24:31Z</time>
      </trkpt>
      <trkpt lat="43.81388" lon="7.28241">
        <ele>867.40002441406</ele>
        <time>2012-12-30T12:24:40Z</time>
      </trkpt>
      <trkpt lat="43.81388" lon="7.28241">
        <ele>867.40002441406</ele>
        <time>2012-12-30T12:24:43Z</time>
      </trkpt>
      <trkpt lat="43.81388" lon="7.28238">
        <ele>867.59997558594</ele>
        <time>2012-12-30T12:24:48Z</time>
      </trkpt>
      <trkpt lat="43.81388" lon="7.28237">
        <ele>867.59997558594</ele>
        <time>2012-12-30T12:24:50Z</time>
      </trkpt>
      <trkpt lat="43.8139" lon="7.28233">
        <ele>867.59997558594</ele>
        <time>2012-12-30T12:24:54Z</time>
      </trkpt>
      <trkpt lat="43.8139" lon="7.2823">
        <ele>867.79998779297</ele>
        <time>2012-12-30T12:25:00Z</time>
      </trkpt>
      <trkpt lat="43.8139" lon="7.2823">
        <ele>867.59997558594</ele>
        <time>2012-12-30T12:25:04Z</time>
      </trkpt>
      <trkpt lat="43.8139" lon="7.2823">
        <ele>867.59997558594</ele>
        <time>2012-12-30T12:25:08Z</time>
      </trkpt>
      <trkpt lat="43.81394" lon="7.28231">
        <ele>868.40002441406</ele>
        <time>2012-12-30T12:25:40Z</time>
      </trkpt>
      <trkpt lat="43.81393" lon="7.2823">
        <ele>868.20001220703</ele>
        <time>2012-12-30T12:25:50Z</time>
      </trkpt>
      <trkpt lat="43.81392" lon="7.2823">
        <ele>868</ele>
        <time>2012-12-30T12:25:52Z</time>
      </trkpt>
      <trkpt lat="43.81391" lon="7.28228">
        <ele>868</ele>
        <time>2012-12-30T12:25:56Z</time>
      </trkpt>
      <trkpt lat="43.81389" lon="7.28226">
        <ele>867.59997558594</ele>
        <time>2012-12-30T12:26:04Z</time>
      </trkpt>
      <trkpt lat="43.81388" lon="7.28228">
        <ele>867.40002441406</ele>
        <time>2012-12-30T12:26:21Z</time>
      </trkpt>
      <trkpt lat="43.81388" lon="7.28227">
        <ele>867.40002441406</ele>
        <time>2012-12-30T12:26:23Z</time>
      </trkpt>
      <trkpt lat="43.81386" lon="7.28224">
        <ele>867</ele>
        <time>2012-12-30T12:26:27Z</time>
      </trkpt>
      <trkpt lat="43.81385" lon="7.28224">
        <ele>867</ele>
        <time>2012-12-30T12:26:31Z</time>
      </trkpt>
      <trkpt lat="43.81385" lon="7.28224">
        <ele>867</ele>
        <time>2012-12-30T12:26:33Z</time>
      </trkpt>
      <trkpt lat="43.81384" lon="7.28225">
        <ele>866.79998779297</ele>
        <time>2012-12-30T12:26:42Z</time>
      </trkpt>
      <trkpt lat="43.81384" lon="7.28225">
        <ele>866.79998779297</ele>
        <time>2012-12-30T12:26:43Z</time>
      </trkpt>
      <trkpt lat="43.81384" lon="7.28225">
        <ele>866.79998779297</ele>
        <time>2012-12-30T12:26:50Z</time>
      </trkpt>
      <trkpt lat="43.81383" lon="7.28225">
        <ele>866.79998779297</ele>
        <time>2012-12-30T12:26:57Z</time>
      </trkpt>
      <trkpt lat="43.81383" lon="7.28226">
        <ele>866.59997558594</ele>
        <time>2012-12-30T12:27:04Z</time>
      </trkpt>
      <trkpt lat="43.81377" lon="7.28224">
        <ele>865.79998779297</ele>
        <time>2012-12-30T12:27:09Z</time>
      </trkpt>
      <trkpt lat="43.81364" lon="7.2822">
        <ele>863.59997558594</ele>
        <time>2012-12-30T12:27:14Z</time>
      </trkpt>
      <trkpt lat="43.8136" lon="7.28216">
        <ele>862.79998779297</ele>
        <time>2012-12-30T12:27:16Z</time>
      </trkpt>
      <trkpt lat="43.81359" lon="7.28211">
        <ele>862.59997558594</ele>
        <time>2012-12-30T12:27:17Z</time>
      </trkpt>
      <trkpt lat="43.81355" lon="7.28208">
        <ele>861.59997558594</ele>
        <time>2012-12-30T12:27:19Z</time>
      </trkpt>
      <trkpt lat="43.81354" lon="7.28206">
        <ele>861.40002441406</ele>
        <time>2012-12-30T12:27:20Z</time>
      </trkpt>
      <trkpt lat="43.8135" lon="7.28203">
        <ele>860.59997558594</ele>
        <time>2012-12-30T12:27:23Z</time>
      </trkpt>
      <trkpt lat="43.81348" lon="7.28202">
        <ele>860.20001220703</ele>
        <time>2012-12-30T12:27:25Z</time>
      </trkpt>
      <trkpt lat="43.81348" lon="7.28202">
        <ele>860</ele>
        <time>2012-12-30T12:27:26Z</time>
      </trkpt>
      <trkpt lat="43.81346" lon="7.28202">
        <ele>859.79998779297</ele>
        <time>2012-12-30T12:27:28Z</time>
      </trkpt>
      <trkpt lat="43.81342" lon="7.28199">
        <ele>859</ele>
        <time>2012-12-30T12:27:30Z</time>
      </trkpt>
      <trkpt lat="43.8134" lon="7.28192">
        <ele>858</ele>
        <time>2012-12-30T12:27:33Z</time>
      </trkpt>
      <trkpt lat="43.81339" lon="7.2819">
        <ele>857.79998779297</ele>
        <time>2012-12-30T12:27:34Z</time>
      </trkpt>
      <trkpt lat="43.81338" lon="7.28187">
        <ele>857.40002441406</ele>
        <time>2012-12-30T12:27:39Z</time>
      </trkpt>
      <trkpt lat="43.81336" lon="7.2818">
        <ele>856.40002441406</ele>
        <time>2012-12-30T12:27:45Z</time>
      </trkpt>
      <trkpt lat="43.81334" lon="7.28173">
        <ele>855.59997558594</ele>
        <time>2012-12-30T12:27:50Z</time>
      </trkpt>
      <trkpt lat="43.81332" lon="7.28163">
        <ele>854.20001220703</ele>
        <time>2012-12-30T12:27:54Z</time>
      </trkpt>
      <trkpt lat="43.8133" lon="7.28159">
        <ele>853.59997558594</ele>
        <time>2012-12-30T12:27:55Z</time>
      </trkpt>
      <trkpt lat="43.81328" lon="7.28144">
        <ele>852.20001220703</ele>
        <time>2012-12-30T12:28:00Z</time>
      </trkpt>
      <trkpt lat="43.81324" lon="7.28142">
        <ele>851.20001220703</ele>
        <time>2012-12-30T12:28:04Z</time>
      </trkpt>
      <trkpt lat="43.81318" lon="7.28139">
        <ele>850</ele>
        <time>2012-12-30T12:28:09Z</time>
      </trkpt>
      <trkpt lat="43.81317" lon="7.28139">
        <ele>849.79998779297</ele>
        <time>2012-12-30T12:28:10Z</time>
      </trkpt>
      <trkpt lat="43.8131" lon="7.28139">
        <ele>848.40002441406</ele>
        <time>2012-12-30T12:28:15Z</time>
      </trkpt>
      <trkpt lat="43.81308" lon="7.28136">
        <ele>848</ele>
        <time>2012-12-30T12:28:17Z</time>
      </trkpt>
      <trkpt lat="43.81309" lon="7.28127">
        <ele>847.59997558594</ele>
        <time>2012-12-30T12:28:20Z</time>
      </trkpt>
      <trkpt lat="43.81311" lon="7.28117">
        <ele>847.40002441406</ele>
        <time>2012-12-30T12:28:24Z</time>
      </trkpt>
      <trkpt lat="43.81311" lon="7.28114">
        <ele>847.40002441406</ele>
        <time>2012-12-30T12:28:25Z</time>
      </trkpt>
      <trkpt lat="43.81312" lon="7.28105">
        <ele>847</ele>
        <time>2012-12-30T12:28:28Z</time>
      </trkpt>
      <trkpt lat="43.81311" lon="7.28101">
        <ele>846.59997558594</ele>
        <time>2012-12-30T12:28:30Z</time>
      </trkpt>
      <trkpt lat="43.81311" lon="7.281">
        <ele>846.59997558594</ele>
        <time>2012-12-30T12:28:31Z</time>
      </trkpt>
      <trkpt lat="43.81313" lon="7.28097">
        <ele>846.79998779297</ele>
        <time>2012-12-30T12:28:34Z</time>
      </trkpt>
      <trkpt lat="43.81313" lon="7.28096">
        <ele>846.59997558594</ele>
        <time>2012-12-30T12:28:35Z</time>
      </trkpt>
      <trkpt lat="43.81316" lon="7.28087">
        <ele>846.59997558594</ele>
        <time>2012-12-30T12:28:39Z</time>
      </trkpt>
      <trkpt lat="43.81316" lon="7.28087">
        <ele>846.59997558594</ele>
        <time>2012-12-30T12:28:40Z</time>
      </trkpt>
      <trkpt lat="43.81316" lon="7.28085">
        <ele>846.40002441406</ele>
        <time>2012-12-30T12:28:47Z</time>
      </trkpt>
      <trkpt lat="43.81316" lon="7.28086">
        <ele>846.59997558594</ele>
        <time>2012-12-30T12:28:50Z</time>
      </trkpt>
      <trkpt lat="43.81316" lon="7.28087">
        <ele>846.59997558594</ele>
        <time>2012-12-30T12:28:57Z</time>
      </trkpt>
      <trkpt lat="43.81315" lon="7.28086">
        <ele>846.40002441406</ele>
        <time>2012-12-30T12:29:01Z</time>
      </trkpt>
      <trkpt lat="43.81315" lon="7.28086">
        <ele>846.40002441406</ele>
        <time>2012-12-30T12:29:11Z</time>
      </trkpt>
      <trkpt lat="43.81315" lon="7.28086">
        <ele>846.40002441406</ele>
        <time>2012-12-30T12:29:12Z</time>
      </trkpt>
      <trkpt lat="43.81315" lon="7.28085">
        <ele>846.40002441406</ele>
        <time>2012-12-30T12:29:16Z</time>
      </trkpt>
      <trkpt lat="43.81315" lon="7.28085">
        <ele>846.40002441406</ele>
        <time>2012-12-30T12:29:32Z</time>
      </trkpt>
      <trkpt lat="43.81314" lon="7.28085">
        <ele>846.20001220703</ele>
        <time>2012-12-30T12:29:42Z</time>
      </trkpt>
      <trkpt lat="43.81313" lon="7.28085">
        <ele>846.20001220703</ele>
        <time>2012-12-30T12:29:45Z</time>
      </trkpt>
      <trkpt lat="43.81313" lon="7.28085">
        <ele>846.20001220703</ele>
        <time>2012-12-30T12:29:46Z</time>
      </trkpt>
      <trkpt lat="43.81313" lon="7.28086">
        <ele>846</ele>
        <time>2012-12-30T12:29:48Z</time>
      </trkpt>
      <trkpt lat="43.81313" lon="7.28086">
        <ele>846</ele>
        <time>2012-12-30T12:29:50Z</time>
      </trkpt>
      <trkpt lat="43.81313" lon="7.28086">
        <ele>846</ele>
        <time>2012-12-30T12:29:55Z</time>
      </trkpt>
      <trkpt lat="43.81319" lon="7.28079">
        <ele>846.79998779297</ele>
        <time>2012-12-30T12:30:16Z</time>
      </trkpt>
      <trkpt lat="43.81323" lon="7.28061">
        <ele>847.20001220703</ele>
        <time>2012-12-30T12:30:21Z</time>
      </trkpt>
      <trkpt lat="43.81329" lon="7.28041">
        <ele>847.20001220703</ele>
        <time>2012-12-30T12:30:28Z</time>
      </trkpt>
      <trkpt lat="43.81333" lon="7.28033">
        <ele>847</ele>
        <time>2012-12-30T12:30:32Z</time>
      </trkpt>
      <trkpt lat="43.81335" lon="7.28029">
        <ele>847</ele>
        <time>2012-12-30T12:30:34Z</time>
      </trkpt>
      <trkpt lat="43.81338" lon="7.28012">
        <ele>846.40002441406</ele>
        <time>2012-12-30T12:30:41Z</time>
      </trkpt>
      <trkpt lat="43.81333" lon="7.27997">
        <ele>845.79998779297</ele>
        <time>2012-12-30T12:30:47Z</time>
      </trkpt>
      <trkpt lat="43.81332" lon="7.27991">
        <ele>845.20001220703</ele>
        <time>2012-12-30T12:30:51Z</time>
      </trkpt>
      <trkpt lat="43.81331" lon="7.27987">
        <ele>845</ele>
        <time>2012-12-30T12:30:54Z</time>
      </trkpt>
      <trkpt lat="43.81329" lon="7.27971">
        <ele>844</ele>
        <time>2012-12-30T12:31:02Z</time>
      </trkpt>
      <trkpt lat="43.8133" lon="7.27956">
        <ele>842.79998779297</ele>
        <time>2012-12-30T12:31:10Z</time>
      </trkpt>
      <trkpt lat="43.81332" lon="7.27952">
        <ele>842.59997558594</ele>
        <time>2012-12-30T12:31:12Z</time>
      </trkpt>
      <trkpt lat="43.81332" lon="7.2795">
        <ele>842.40002441406</ele>
        <time>2012-12-30T12:31:15Z</time>
      </trkpt>
      <trkpt lat="43.81332" lon="7.2795">
        <ele>842.40002441406</ele>
        <time>2012-12-30T12:31:16Z</time>
      </trkpt>
      <trkpt lat="43.81334" lon="7.27949">
        <ele>842.20001220703</ele>
        <time>2012-12-30T12:31:21Z</time>
      </trkpt>
      <trkpt lat="43.81335" lon="7.27946">
        <ele>841.79998779297</ele>
        <time>2012-12-30T12:31:23Z</time>
      </trkpt>
      <trkpt lat="43.81335" lon="7.27945">
        <ele>841.59997558594</ele>
        <time>2012-12-30T12:31:24Z</time>
      </trkpt>
      <trkpt lat="43.81337" lon="7.27939">
        <ele>841</ele>
        <time>2012-12-30T12:31:28Z</time>
      </trkpt>
      <trkpt lat="43.81338" lon="7.27939">
        <ele>840.59997558594</ele>
        <time>2012-12-30T12:31:29Z</time>
      </trkpt>
      <trkpt lat="43.8134" lon="7.27932">
        <ele>839.79998779297</ele>
        <time>2012-12-30T12:31:34Z</time>
      </trkpt>
      <trkpt lat="43.81339" lon="7.27931">
        <ele>839.79998779297</ele>
        <time>2012-12-30T12:31:35Z</time>
      </trkpt>
      <trkpt lat="43.81338" lon="7.27928">
        <ele>839.79998779297</ele>
        <time>2012-12-30T12:31:42Z</time>
      </trkpt>
      <trkpt lat="43.81337" lon="7.27929">
        <ele>840</ele>
        <time>2012-12-30T12:32:17Z</time>
      </trkpt>
      <trkpt lat="43.81333" lon="7.27927">
        <ele>840.59997558594</ele>
        <time>2012-12-30T12:32:25Z</time>
      </trkpt>
      <trkpt lat="43.81329" lon="7.27928">
        <ele>841</ele>
        <time>2012-12-30T12:32:28Z</time>
      </trkpt>
      <trkpt lat="43.81324" lon="7.27929">
        <ele>841.40002441406</ele>
        <time>2012-12-30T12:32:31Z</time>
      </trkpt>
      <trkpt lat="43.81312" lon="7.27933">
        <ele>842.20001220703</ele>
        <time>2012-12-30T12:32:38Z</time>
      </trkpt>
      <trkpt lat="43.81294" lon="7.27942">
        <ele>843.59997558594</ele>
        <time>2012-12-30T12:32:46Z</time>
      </trkpt>
      <trkpt lat="43.81276" lon="7.2795">
        <ele>845</ele>
        <time>2012-12-30T12:32:53Z</time>
      </trkpt>
      <trkpt lat="43.81262" lon="7.27951">
        <ele>845.59997558594</ele>
        <time>2012-12-30T12:33:00Z</time>
      </trkpt>
      <trkpt lat="43.81249" lon="7.2795">
        <ele>846.20001220703</ele>
        <time>2012-12-30T12:33:08Z</time>
      </trkpt>
      <trkpt lat="43.81245" lon="7.27949">
        <ele>847</ele>
        <time>2012-12-30T12:33:11Z</time>
      </trkpt>
      <trkpt lat="43.8124" lon="7.27949">
        <ele>847.59997558594</ele>
        <time>2012-12-30T12:33:14Z</time>
      </trkpt>
      <trkpt lat="43.81238" lon="7.2795">
        <ele>848</ele>
        <time>2012-12-30T12:33:16Z</time>
      </trkpt>
      <trkpt lat="43.81231" lon="7.27952">
        <ele>849.40002441406</ele>
        <time>2012-12-30T12:33:21Z</time>
      </trkpt>
      <trkpt lat="43.81226" lon="7.27954">
        <ele>850.20001220703</ele>
        <time>2012-12-30T12:33:24Z</time>
      </trkpt>
      <trkpt lat="43.81216" lon="7.27958">
        <ele>851.40002441406</ele>
        <time>2012-12-30T12:33:29Z</time>
      </trkpt>
      <trkpt lat="43.81211" lon="7.27959">
        <ele>852.20001220703</ele>
        <time>2012-12-30T12:33:31Z</time>
      </trkpt>
      <trkpt lat="43.81191" lon="7.2796">
        <ele>855.20001220703</ele>
        <time>2012-12-30T12:33:39Z</time>
      </trkpt>
      <trkpt lat="43.81179" lon="7.27965">
        <ele>856.40002441406</ele>
        <time>2012-12-30T12:33:45Z</time>
      </trkpt>
      <trkpt lat="43.81173" lon="7.27969">
        <ele>856.79998779297</ele>
        <time>2012-12-30T12:33:50Z</time>
      </trkpt>
      <trkpt lat="43.81165" lon="7.27972">
        <ele>857.20001220703</ele>
        <time>2012-12-30T12:33:54Z</time>
      </trkpt>
      <trkpt lat="43.81164" lon="7.27973">
        <ele>857.20001220703</ele>
        <time>2012-12-30T12:33:55Z</time>
      </trkpt>
      <trkpt lat="43.81159" lon="7.27974">
        <ele>857</ele>
        <time>2012-12-30T12:33:59Z</time>
      </trkpt>
      <trkpt lat="43.81155" lon="7.27974">
        <ele>857</ele>
        <time>2012-12-30T12:34:02Z</time>
      </trkpt>
      <trkpt lat="43.81156" lon="7.27974">
        <ele>857.20001220703</ele>
        <time>2012-12-30T12:34:06Z</time>
      </trkpt>
      <trkpt lat="43.81156" lon="7.27973">
        <ele>857.20001220703</ele>
        <time>2012-12-30T12:34:09Z</time>
      </trkpt>
      <trkpt lat="43.81156" lon="7.27973">
        <ele>857.20001220703</ele>
        <time>2012-12-30T12:34:15Z</time>
      </trkpt>
      <trkpt lat="43.81155" lon="7.27973">
        <ele>857.20001220703</ele>
        <time>2012-12-30T12:34:18Z</time>
      </trkpt>
      <trkpt lat="43.8115" lon="7.27968">
        <ele>858</ele>
        <time>2012-12-30T12:34:26Z</time>
      </trkpt>
      <trkpt lat="43.81145" lon="7.27972">
        <ele>857.40002441406</ele>
        <time>2012-12-30T12:34:34Z</time>
      </trkpt>
      <trkpt lat="43.81145" lon="7.27971">
        <ele>857.59997558594</ele>
        <time>2012-12-30T12:34:42Z</time>
      </trkpt>
      <trkpt lat="43.81143" lon="7.2797">
        <ele>857.79998779297</ele>
        <time>2012-12-30T12:34:49Z</time>
      </trkpt>
      <trkpt lat="43.81139" lon="7.27967">
        <ele>858.20001220703</ele>
        <time>2012-12-30T12:34:56Z</time>
      </trkpt>
      <trkpt lat="43.81134" lon="7.27962">
        <ele>859.20001220703</ele>
        <time>2012-12-30T12:35:03Z</time>
      </trkpt>
      <trkpt lat="43.81127" lon="7.27955">
        <ele>860.40002441406</ele>
        <time>2012-12-30T12:35:11Z</time>
      </trkpt>
      <trkpt lat="43.81124" lon="7.27948">
        <ele>861.79998779297</ele>
        <time>2012-12-30T12:35:18Z</time>
      </trkpt>
      <trkpt lat="43.81124" lon="7.27945">
        <ele>862</ele>
        <time>2012-12-30T12:35:25Z</time>
      </trkpt>
      <trkpt lat="43.81123" lon="7.27943">
        <ele>862.59997558594</ele>
        <time>2012-12-30T12:35:31Z</time>
      </trkpt>
      <trkpt lat="43.81119" lon="7.27942">
        <ele>863</ele>
        <time>2012-12-30T12:35:35Z</time>
      </trkpt>
      <trkpt lat="43.81117" lon="7.27944">
        <ele>862.59997558594</ele>
        <time>2012-12-30T12:35:39Z</time>
      </trkpt>
      <trkpt lat="43.81114" lon="7.27944">
        <ele>862.79998779297</ele>
        <time>2012-12-30T12:35:43Z</time>
      </trkpt>
      <trkpt lat="43.81112" lon="7.27941">
        <ele>863.40002441406</ele>
        <time>2012-12-30T12:35:47Z</time>
      </trkpt>
      <trkpt lat="43.81112" lon="7.27936">
        <ele>864.20001220703</ele>
        <time>2012-12-30T12:35:54Z</time>
      </trkpt>
      <trkpt lat="43.81112" lon="7.27932">
        <ele>865</ele>
        <time>2012-12-30T12:36:01Z</time>
      </trkpt>
      <trkpt lat="43.81107" lon="7.2793">
        <ele>865.79998779297</ele>
        <time>2012-12-30T12:36:12Z</time>
      </trkpt>
      <trkpt lat="43.81102" lon="7.27929">
        <ele>866.20001220703</ele>
        <time>2012-12-30T12:36:17Z</time>
      </trkpt>
      <trkpt lat="43.81102" lon="7.27928">
        <ele>866.20001220703</ele>
        <time>2012-12-30T12:36:18Z</time>
      </trkpt>
      <trkpt lat="43.81101" lon="7.27925">
        <ele>867</ele>
        <time>2012-12-30T12:36:23Z</time>
      </trkpt>
      <trkpt lat="43.81098" lon="7.27918">
        <ele>868.59997558594</ele>
        <time>2012-12-30T12:36:31Z</time>
      </trkpt>
      <trkpt lat="43.81098" lon="7.27916">
        <ele>868.79998779297</ele>
        <time>2012-12-30T12:36:40Z</time>
      </trkpt>
      <trkpt lat="43.81097" lon="7.27916">
        <ele>868.79998779297</ele>
        <time>2012-12-30T12:36:49Z</time>
      </trkpt>
      <trkpt lat="43.81096" lon="7.27915">
        <ele>868.79998779297</ele>
        <time>2012-12-30T12:37:02Z</time>
      </trkpt>
      <trkpt lat="43.81096" lon="7.27916">
        <ele>868.79998779297</ele>
        <time>2012-12-30T12:37:05Z</time>
      </trkpt>
      <trkpt lat="43.81096" lon="7.27915">
        <ele>868.79998779297</ele>
        <time>2012-12-30T12:37:10Z</time>
      </trkpt>
      <trkpt lat="43.81095" lon="7.27914">
        <ele>868.59997558594</ele>
        <time>2012-12-30T12:37:14Z</time>
      </trkpt>
      <trkpt lat="43.81094" lon="7.27913">
        <ele>868.59997558594</ele>
        <time>2012-12-30T12:37:19Z</time>
      </trkpt>
      <trkpt lat="43.81095" lon="7.27914">
        <ele>868.59997558594</ele>
        <time>2012-12-30T12:37:29Z</time>
      </trkpt>
      <trkpt lat="43.81096" lon="7.27914">
        <ele>868.59997558594</ele>
        <time>2012-12-30T12:37:32Z</time>
      </trkpt>
      <trkpt lat="43.81096" lon="7.27914">
        <ele>868.59997558594</ele>
        <time>2012-12-30T12:37:43Z</time>
      </trkpt>
      <trkpt lat="43.81096" lon="7.27915">
        <ele>868.59997558594</ele>
        <time>2012-12-30T12:37:45Z</time>
      </trkpt>
      <trkpt lat="43.81096" lon="7.27915">
        <ele>868.59997558594</ele>
        <time>2012-12-30T12:37:48Z</time>
      </trkpt>
      <trkpt lat="43.81097" lon="7.27915">
        <ele>868.59997558594</ele>
        <time>2012-12-30T12:38:09Z</time>
      </trkpt>
      <trkpt lat="43.81097" lon="7.27914">
        <ele>868.59997558594</ele>
        <time>2012-12-30T12:38:17Z</time>
      </trkpt>
      <trkpt lat="43.81097" lon="7.27915">
        <ele>868.59997558594</ele>
        <time>2012-12-30T12:38:23Z</time>
      </trkpt>
      <trkpt lat="43.81098" lon="7.27915">
        <ele>868.59997558594</ele>
        <time>2012-12-30T12:38:28Z</time>
      </trkpt>
      <trkpt lat="43.81098" lon="7.27915">
        <ele>868.59997558594</ele>
        <time>2012-12-30T12:38:29Z</time>
      </trkpt>
      <trkpt lat="43.81098" lon="7.27916">
        <ele>868.59997558594</ele>
        <time>2012-12-30T12:38:31Z</time>
      </trkpt>
      <trkpt lat="43.81099" lon="7.27918">
        <ele>868.59997558594</ele>
        <time>2012-12-30T12:39:01Z</time>
      </trkpt>
      <trkpt lat="43.81098" lon="7.27918">
        <ele>868.59997558594</ele>
        <time>2012-12-30T12:39:02Z</time>
      </trkpt>
      <trkpt lat="43.81098" lon="7.27918">
        <ele>868.59997558594</ele>
        <time>2012-12-30T12:39:22Z</time>
      </trkpt>
      <trkpt lat="43.81099" lon="7.27918">
        <ele>868.40002441406</ele>
        <time>2012-12-30T12:39:36Z</time>
      </trkpt>
      <trkpt lat="43.81099" lon="7.27919">
        <ele>868.40002441406</ele>
        <time>2012-12-30T12:39:39Z</time>
      </trkpt>
      <trkpt lat="43.81099" lon="7.27919">
        <ele>868.40002441406</ele>
        <time>2012-12-30T12:39:49Z</time>
      </trkpt>
      <trkpt lat="43.81099" lon="7.27918">
        <ele>868.40002441406</ele>
        <time>2012-12-30T12:39:56Z</time>
      </trkpt>
      <trkpt lat="43.81099" lon="7.27918">
        <ele>868.40002441406</ele>
        <time>2012-12-30T12:39:59Z</time>
      </trkpt>
      <trkpt lat="43.81098" lon="7.27918">
        <ele>868.40002441406</ele>
        <time>2012-12-30T12:40:04Z</time>
      </trkpt>
      <trkpt lat="43.81098" lon="7.27918">
        <ele>868.59997558594</ele>
        <time>2012-12-30T12:40:07Z</time>
      </trkpt>
      <trkpt lat="43.81098" lon="7.27918">
        <ele>868.59997558594</ele>
        <time>2012-12-30T12:40:08Z</time>
      </trkpt>
      <trkpt lat="43.81098" lon="7.27917">
        <ele>868.79998779297</ele>
        <time>2012-12-30T12:40:15Z</time>
      </trkpt>
      <trkpt lat="43.81098" lon="7.27917">
        <ele>868.79998779297</ele>
        <time>2012-12-30T12:40:27Z</time>
      </trkpt>
      <trkpt lat="43.81098" lon="7.27917">
        <ele>868.59997558594</ele>
        <time>2012-12-30T12:40:36Z</time>
      </trkpt>
      <trkpt lat="43.81098" lon="7.27919">
        <ele>868.20001220703</ele>
        <time>2012-12-30T12:40:45Z</time>
      </trkpt>
      <trkpt lat="43.81098" lon="7.27919">
        <ele>868.40002441406</ele>
        <time>2012-12-30T12:40:49Z</time>
      </trkpt>
      <trkpt lat="43.81098" lon="7.27919">
        <ele>868.40002441406</ele>
        <time>2012-12-30T12:40:51Z</time>
      </trkpt>
      <trkpt lat="43.81098" lon="7.27919">
        <ele>868.40002441406</ele>
        <time>2012-12-30T12:40:53Z</time>
      </trkpt>
      <trkpt lat="43.81098" lon="7.27918">
        <ele>868.59997558594</ele>
        <time>2012-12-30T12:41:06Z</time>
      </trkpt>
      <trkpt lat="43.81098" lon="7.27918">
        <ele>868.59997558594</ele>
        <time>2012-12-30T12:41:19Z</time>
      </trkpt>
      <trkpt lat="43.81098" lon="7.27918">
        <ele>868.59997558594</ele>
        <time>2012-12-30T12:41:21Z</time>
      </trkpt>
      <trkpt lat="43.81099" lon="7.27918">
        <ele>868.40002441406</ele>
        <time>2012-12-30T12:41:35Z</time>
      </trkpt>
      <trkpt lat="43.81099" lon="7.27919">
        <ele>868.40002441406</ele>
        <time>2012-12-30T12:41:54Z</time>
      </trkpt>
      <trkpt lat="43.81099" lon="7.27919">
        <ele>868.40002441406</ele>
        <time>2012-12-30T12:41:57Z</time>
      </trkpt>
      <trkpt lat="43.81098" lon="7.27919">
        <ele>868.20001220703</ele>
        <time>2012-12-30T12:42:08Z</time>
      </trkpt>
      <trkpt lat="43.81098" lon="7.2792">
        <ele>868.20001220703</ele>
        <time>2012-12-30T12:42:11Z</time>
      </trkpt>
      <trkpt lat="43.81098" lon="7.27919">
        <ele>868.20001220703</ele>
        <time>2012-12-30T12:42:22Z</time>
      </trkpt>
      <trkpt lat="43.81099" lon="7.27919">
        <ele>868.20001220703</ele>
        <time>2012-12-30T12:42:25Z</time>
      </trkpt>
      <trkpt lat="43.81098" lon="7.2792">
        <ele>868.20001220703</ele>
        <time>2012-12-30T12:42:35Z</time>
      </trkpt>
      <trkpt lat="43.81098" lon="7.2792">
        <ele>868.20001220703</ele>
        <time>2012-12-30T12:42:45Z</time>
      </trkpt>
      <trkpt lat="43.81098" lon="7.27919">
        <ele>868.40002441406</ele>
        <time>2012-12-30T12:42:47Z</time>
      </trkpt>
      <trkpt lat="43.81098" lon="7.2792">
        <ele>868.20001220703</ele>
        <time>2012-12-30T12:43:08Z</time>
      </trkpt>
      <trkpt lat="43.81098" lon="7.2792">
        <ele>868.20001220703</ele>
        <time>2012-12-30T12:43:11Z</time>
      </trkpt>
      <trkpt lat="43.81098" lon="7.2792">
        <ele>868.20001220703</ele>
        <time>2012-12-30T12:43:19Z</time>
      </trkpt>
      <trkpt lat="43.81098" lon="7.2792">
        <ele>868.20001220703</ele>
        <time>2012-12-30T12:43:24Z</time>
      </trkpt>
      <trkpt lat="43.81098" lon="7.2792">
        <ele>868.20001220703</ele>
        <time>2012-12-30T12:43:37Z</time>
      </trkpt>
      <trkpt lat="43.81099" lon="7.2792">
        <ele>868.20001220703</ele>
        <time>2012-12-30T12:43:42Z</time>
      </trkpt>
      <trkpt lat="43.81099" lon="7.2792">
        <ele>868</ele>
        <time>2012-12-30T12:43:47Z</time>
      </trkpt>
      <trkpt lat="43.81098" lon="7.2792">
        <ele>868.20001220703</ele>
        <time>2012-12-30T12:44:00Z</time>
      </trkpt>
      <trkpt lat="43.81098" lon="7.27919">
        <ele>868.40002441406</ele>
        <time>2012-12-30T12:44:01Z</time>
      </trkpt>
      <trkpt lat="43.81098" lon="7.27918">
        <ele>868.59997558594</ele>
        <time>2012-12-30T12:44:03Z</time>
      </trkpt>
      <trkpt lat="43.81098" lon="7.27917">
        <ele>868.79998779297</ele>
        <time>2012-12-30T12:44:04Z</time>
      </trkpt>
      <trkpt lat="43.81099" lon="7.27916">
        <ele>868.79998779297</ele>
        <time>2012-12-30T12:44:08Z</time>
      </trkpt>
      <trkpt lat="43.81102" lon="7.27916">
        <ele>868.59997558594</ele>
        <time>2012-12-30T12:44:13Z</time>
      </trkpt>
      <trkpt lat="43.81103" lon="7.27915">
        <ele>868.20001220703</ele>
        <time>2012-12-30T12:44:15Z</time>
      </trkpt>
      <trkpt lat="43.81105" lon="7.27916">
        <ele>868.20001220703</ele>
        <time>2012-12-30T12:44:18Z</time>
      </trkpt>
      <trkpt lat="43.81105" lon="7.27917">
        <ele>868.40002441406</ele>
        <time>2012-12-30T12:44:22Z</time>
      </trkpt>
      <trkpt lat="43.81106" lon="7.27917">
        <ele>868.20001220703</ele>
        <time>2012-12-30T12:44:25Z</time>
      </trkpt>
      <trkpt lat="43.81111" lon="7.27919">
        <ele>867.40002441406</ele>
        <time>2012-12-30T12:44:29Z</time>
      </trkpt>
      <trkpt lat="43.81112" lon="7.27919">
        <ele>867.40002441406</ele>
        <time>2012-12-30T12:44:30Z</time>
      </trkpt>
      <trkpt lat="43.81117" lon="7.27916">
        <ele>867.40002441406</ele>
        <time>2012-12-30T12:44:34Z</time>
      </trkpt>
      <trkpt lat="43.81118" lon="7.27915">
        <ele>867.20001220703</ele>
        <time>2012-12-30T12:44:35Z</time>
      </trkpt>
      <trkpt lat="43.81119" lon="7.27915">
        <ele>867</ele>
        <time>2012-12-30T12:44:36Z</time>
      </trkpt>
      <trkpt lat="43.81121" lon="7.27914">
        <ele>866.79998779297</ele>
        <time>2012-12-30T12:44:37Z</time>
      </trkpt>
      <trkpt lat="43.81121" lon="7.27913">
        <ele>866.59997558594</ele>
        <time>2012-12-30T12:44:38Z</time>
      </trkpt>
      <trkpt lat="43.81123" lon="7.27914">
        <ele>866.59997558594</ele>
        <time>2012-12-30T12:44:40Z</time>
      </trkpt>
      <trkpt lat="43.81123" lon="7.27913">
        <ele>866.59997558594</ele>
        <time>2012-12-30T12:44:42Z</time>
      </trkpt>
      <trkpt lat="43.81122" lon="7.27914">
        <ele>866.59997558594</ele>
        <time>2012-12-30T12:44:45Z</time>
      </trkpt>
      <trkpt lat="43.81122" lon="7.27914">
        <ele>866.59997558594</ele>
        <time>2012-12-30T12:44:46Z</time>
      </trkpt>
      <trkpt lat="43.81122" lon="7.27914">
        <ele>866.59997558594</ele>
        <time>2012-12-30T12:44:49Z</time>
      </trkpt>
      <trkpt lat="43.81122" lon="7.27914">
        <ele>866.79998779297</ele>
        <time>2012-12-30T12:44:58Z</time>
      </trkpt>
      <trkpt lat="43.81122" lon="7.27915">
        <ele>866.79998779297</ele>
        <time>2012-12-30T12:45:18Z</time>
      </trkpt>
      <trkpt lat="43.81121" lon="7.27914">
        <ele>866.79998779297</ele>
        <time>2012-12-30T12:45:20Z</time>
      </trkpt>
      <trkpt lat="43.8112" lon="7.27914">
        <ele>867</ele>
        <time>2012-12-30T12:45:22Z</time>
      </trkpt>
      <trkpt lat="43.8112" lon="7.27914">
        <ele>866.79998779297</ele>
        <time>2012-12-30T12:45:24Z</time>
      </trkpt>
      <trkpt lat="43.8112" lon="7.27914">
        <ele>866.79998779297</ele>
        <time>2012-12-30T12:45:25Z</time>
      </trkpt>
      <trkpt lat="43.81121" lon="7.27913">
        <ele>866.59997558594</ele>
        <time>2012-12-30T12:45:34Z</time>
      </trkpt>
      <trkpt lat="43.81121" lon="7.27913">
        <ele>866.59997558594</ele>
        <time>2012-12-30T12:45:37Z</time>
      </trkpt>
      <trkpt lat="43.81121" lon="7.27913">
        <ele>866.59997558594</ele>
        <time>2012-12-30T12:45:39Z</time>
      </trkpt>
      <trkpt lat="43.81125" lon="7.27912">
        <ele>866.20001220703</ele>
        <time>2012-12-30T12:45:43Z</time>
      </trkpt>
      <trkpt lat="43.81127" lon="7.2791">
        <ele>865.59997558594</ele>
        <time>2012-12-30T12:45:45Z</time>
      </trkpt>
      <trkpt lat="43.81134" lon="7.27909">
        <ele>865</ele>
        <time>2012-12-30T12:45:51Z</time>
      </trkpt>
      <trkpt lat="43.81136" lon="7.2791">
        <ele>865</ele>
        <time>2012-12-30T12:45:52Z</time>
      </trkpt>
      <trkpt lat="43.81143" lon="7.27913">
        <ele>865</ele>
        <time>2012-12-30T12:45:58Z</time>
      </trkpt>
      <trkpt lat="43.81144" lon="7.27915">
        <ele>865.20001220703</ele>
        <time>2012-12-30T12:46:00Z</time>
      </trkpt>
      <trkpt lat="43.81148" lon="7.27918">
        <ele>865</ele>
        <time>2012-12-30T12:46:04Z</time>
      </trkpt>
      <trkpt lat="43.81154" lon="7.27922">
        <ele>864.20001220703</ele>
        <time>2012-12-30T12:46:08Z</time>
      </trkpt>
      <trkpt lat="43.81156" lon="7.27923">
        <ele>863.79998779297</ele>
        <time>2012-12-30T12:46:10Z</time>
      </trkpt>
      <trkpt lat="43.81159" lon="7.27929">
        <ele>862.79998779297</ele>
        <time>2012-12-30T12:46:14Z</time>
      </trkpt>
      <trkpt lat="43.81161" lon="7.27933">
        <ele>862.20001220703</ele>
        <time>2012-12-30T12:46:16Z</time>
      </trkpt>
      <trkpt lat="43.81166" lon="7.27942">
        <ele>860.79998779297</ele>
        <time>2012-12-30T12:46:23Z</time>
      </trkpt>
      <trkpt lat="43.81174" lon="7.2795">
        <ele>858.59997558594</ele>
        <time>2012-12-30T12:46:28Z</time>
      </trkpt>
      <trkpt lat="43.81176" lon="7.27953">
        <ele>858</ele>
        <time>2012-12-30T12:46:30Z</time>
      </trkpt>
      <trkpt lat="43.81178" lon="7.27955">
        <ele>857.40002441406</ele>
        <time>2012-12-30T12:46:32Z</time>
      </trkpt>
      <trkpt lat="43.8119" lon="7.27961">
        <ele>855.20001220703</ele>
        <time>2012-12-30T12:46:38Z</time>
      </trkpt>
      <trkpt lat="43.81198" lon="7.2796">
        <ele>854.20001220703</ele>
        <time>2012-12-30T12:46:43Z</time>
      </trkpt>
      <trkpt lat="43.81205" lon="7.27959">
        <ele>853</ele>
        <time>2012-12-30T12:46:50Z</time>
      </trkpt>
      <trkpt lat="43.81208" lon="7.27959">
        <ele>852.79998779297</ele>
        <time>2012-12-30T12:46:53Z</time>
      </trkpt>
      <trkpt lat="43.8121" lon="7.27959">
        <ele>852.40002441406</ele>
        <time>2012-12-30T12:46:54Z</time>
      </trkpt>
      <trkpt lat="43.81218" lon="7.27958">
        <ele>851.20001220703</ele>
        <time>2012-12-30T12:46:58Z</time>
      </trkpt>
      <trkpt lat="43.81223" lon="7.27956">
        <ele>850.59997558594</ele>
        <time>2012-12-30T12:47:00Z</time>
      </trkpt>
      <trkpt lat="43.81229" lon="7.27953">
        <ele>849.59997558594</ele>
        <time>2012-12-30T12:47:03Z</time>
      </trkpt>
      <trkpt lat="43.8124" lon="7.2795">
        <ele>847.59997558594</ele>
        <time>2012-12-30T12:47:07Z</time>
      </trkpt>
      <trkpt lat="43.81263" lon="7.27949">
        <ele>845.40002441406</ele>
        <time>2012-12-30T12:47:12Z</time>
      </trkpt>
      <trkpt lat="43.81294" lon="7.27949">
        <ele>844</ele>
        <time>2012-12-30T12:47:17Z</time>
      </trkpt>
      <trkpt lat="43.81302" lon="7.27942">
        <ele>843.20001220703</ele>
        <time>2012-12-30T12:47:20Z</time>
      </trkpt>
      <trkpt lat="43.81307" lon="7.2794">
        <ele>842.79998779297</ele>
        <time>2012-12-30T12:47:22Z</time>
      </trkpt>
      <trkpt lat="43.81312" lon="7.27937">
        <ele>842.40002441406</ele>
        <time>2012-12-30T12:47:24Z</time>
      </trkpt>
      <trkpt lat="43.81321" lon="7.27932">
        <ele>841.59997558594</ele>
        <time>2012-12-30T12:47:27Z</time>
      </trkpt>
      <trkpt lat="43.81332" lon="7.27928">
        <ele>840.79998779297</ele>
        <time>2012-12-30T12:47:30Z</time>
      </trkpt>
      <trkpt lat="43.81336" lon="7.27928">
        <ele>840.20001220703</ele>
        <time>2012-12-30T12:47:32Z</time>
      </trkpt>
      <trkpt lat="43.81337" lon="7.27927">
        <ele>840</ele>
        <time>2012-12-30T12:47:37Z</time>
      </trkpt>
      <trkpt lat="43.81336" lon="7.27927">
        <ele>840</ele>
        <time>2012-12-30T12:47:40Z</time>
      </trkpt>
      <trkpt lat="43.81335" lon="7.27926">
        <ele>840.20001220703</ele>
        <time>2012-12-30T12:47:45Z</time>
      </trkpt>
      <trkpt lat="43.81336" lon="7.27926">
        <ele>840.20001220703</ele>
        <time>2012-12-30T12:47:52Z</time>
      </trkpt>
      <trkpt lat="43.81336" lon="7.27927">
        <ele>840</ele>
        <time>2012-12-30T12:47:54Z</time>
      </trkpt>
      <trkpt lat="43.81335" lon="7.27927">
        <ele>840.20001220703</ele>
        <time>2012-12-30T12:47:58Z</time>
      </trkpt>
      <trkpt lat="43.81335" lon="7.27927">
        <ele>840.20001220703</ele>
        <time>2012-12-30T12:48:00Z</time>
      </trkpt>
      <trkpt lat="43.81335" lon="7.27927">
        <ele>840.20001220703</ele>
        <time>2012-12-30T12:48:05Z</time>
      </trkpt>
      <trkpt lat="43.81336" lon="7.27927">
        <ele>840.20001220703</ele>
        <time>2012-12-30T12:48:13Z</time>
      </trkpt>
      <trkpt lat="43.81336" lon="7.27927">
        <ele>840.20001220703</ele>
        <time>2012-12-30T12:48:15Z</time>
      </trkpt>
      <trkpt lat="43.81336" lon="7.27927">
        <ele>840</ele>
        <time>2012-12-30T12:48:20Z</time>
      </trkpt>
      <trkpt lat="43.81337" lon="7.27927">
        <ele>840</ele>
        <time>2012-12-30T12:48:24Z</time>
      </trkpt>
      <trkpt lat="43.81337" lon="7.27928">
        <ele>840</ele>
        <time>2012-12-30T12:48:29Z</time>
      </trkpt>
      <trkpt lat="43.81336" lon="7.27929">
        <ele>840.20001220703</ele>
        <time>2012-12-30T12:48:38Z</time>
      </trkpt>
      <trkpt lat="43.81337" lon="7.2793">
        <ele>840.20001220703</ele>
        <time>2012-12-30T12:48:39Z</time>
      </trkpt>
      <trkpt lat="43.81338" lon="7.2793">
        <ele>840</ele>
        <time>2012-12-30T12:48:40Z</time>
      </trkpt>
      <trkpt lat="43.81338" lon="7.2793">
        <ele>840</ele>
        <time>2012-12-30T12:48:41Z</time>
      </trkpt>
      <trkpt lat="43.81343" lon="7.27925">
        <ele>838.59997558594</ele>
        <time>2012-12-30T12:48:45Z</time>
      </trkpt>
      <trkpt lat="43.81347" lon="7.27912">
        <ele>835.40002441406</ele>
        <time>2012-12-30T12:48:49Z</time>
      </trkpt>
      <trkpt lat="43.81352" lon="7.27909">
        <ele>833.40002441406</ele>
        <time>2012-12-30T12:48:51Z</time>
      </trkpt>
      <trkpt lat="43.81355" lon="7.27906">
        <ele>832</ele>
        <time>2012-12-30T12:48:52Z</time>
      </trkpt>
      <trkpt lat="43.81357" lon="7.27897">
        <ele>829</ele>
        <time>2012-12-30T12:48:54Z</time>
      </trkpt>
      <trkpt lat="43.81359" lon="7.27892">
        <ele>827.40002441406</ele>
        <time>2012-12-30T12:48:56Z</time>
      </trkpt>
      <trkpt lat="43.81366" lon="7.27884">
        <ele>824</ele>
        <time>2012-12-30T12:48:59Z</time>
      </trkpt>
      <trkpt lat="43.81369" lon="7.27879">
        <ele>822.59997558594</ele>
        <time>2012-12-30T12:49:00Z</time>
      </trkpt>
      <trkpt lat="43.81378" lon="7.27867">
        <ele>818.59997558594</ele>
        <time>2012-12-30T12:49:03Z</time>
      </trkpt>
      <trkpt lat="43.81384" lon="7.27861">
        <ele>816.40002441406</ele>
        <time>2012-12-30T12:49:05Z</time>
      </trkpt>
      <trkpt lat="43.81395" lon="7.27845">
        <ele>812.59997558594</ele>
        <time>2012-12-30T12:49:09Z</time>
      </trkpt>
      <trkpt lat="43.814" lon="7.27838">
        <ele>811</ele>
        <time>2012-12-30T12:49:12Z</time>
      </trkpt>
      <trkpt lat="43.814" lon="7.27836">
        <ele>810.79998779297</ele>
        <time>2012-12-30T12:49:13Z</time>
      </trkpt>
      <trkpt lat="43.81407" lon="7.27828">
        <ele>809.20001220703</ele>
        <time>2012-12-30T12:49:16Z</time>
      </trkpt>
      <trkpt lat="43.81408" lon="7.27822">
        <ele>807.59997558594</ele>
        <time>2012-12-30T12:49:19Z</time>
      </trkpt>
      <trkpt lat="43.81409" lon="7.27811">
        <ele>805.59997558594</ele>
        <time>2012-12-30T12:49:23Z</time>
      </trkpt>
      <trkpt lat="43.81408" lon="7.27797">
        <ele>802.59997558594</ele>
        <time>2012-12-30T12:49:27Z</time>
      </trkpt>
      <trkpt lat="43.81411" lon="7.27787">
        <ele>801</ele>
        <time>2012-12-30T12:49:30Z</time>
      </trkpt>
      <trkpt lat="43.81415" lon="7.27785">
        <ele>800.79998779297</ele>
        <time>2012-12-30T12:49:31Z</time>
      </trkpt>
      <trkpt lat="43.81421" lon="7.27767">
        <ele>797.20001220703</ele>
        <time>2012-12-30T12:49:35Z</time>
      </trkpt>
      <trkpt lat="43.81432" lon="7.27761">
        <ele>794.20001220703</ele>
        <time>2012-12-30T12:49:38Z</time>
      </trkpt>
      <trkpt lat="43.81435" lon="7.2776">
        <ele>793.59997558594</ele>
        <time>2012-12-30T12:49:39Z</time>
      </trkpt>
      <trkpt lat="43.81444" lon="7.27752">
        <ele>790.59997558594</ele>
        <time>2012-12-30T12:49:42Z</time>
      </trkpt>
      <trkpt lat="43.81446" lon="7.27742">
        <ele>788.79998779297</ele>
        <time>2012-12-30T12:49:45Z</time>
      </trkpt>
      <trkpt lat="43.81446" lon="7.27741">
        <ele>788.59997558594</ele>
        <time>2012-12-30T12:49:48Z</time>
      </trkpt>
      <trkpt lat="43.81446" lon="7.27741">
        <ele>788.59997558594</ele>
        <time>2012-12-30T12:49:51Z</time>
      </trkpt>
      <trkpt lat="43.81445" lon="7.27742">
        <ele>789</ele>
        <time>2012-12-30T12:49:59Z</time>
      </trkpt>
      <trkpt lat="43.81445" lon="7.27742">
        <ele>789</ele>
        <time>2012-12-30T12:50:01Z</time>
      </trkpt>
      <trkpt lat="43.81444" lon="7.27743">
        <ele>789.20001220703</ele>
        <time>2012-12-30T12:50:17Z</time>
      </trkpt>
      <trkpt lat="43.81444" lon="7.27742">
        <ele>789</ele>
        <time>2012-12-30T12:50:22Z</time>
      </trkpt>
      <trkpt lat="43.81443" lon="7.27742">
        <ele>789.20001220703</ele>
        <time>2012-12-30T12:50:32Z</time>
      </trkpt>
      <trkpt lat="43.81443" lon="7.27742">
        <ele>789</ele>
        <time>2012-12-30T12:50:33Z</time>
      </trkpt>
      <trkpt lat="43.81443" lon="7.27742">
        <ele>789.20001220703</ele>
        <time>2012-12-30T12:50:34Z</time>
      </trkpt>
      <trkpt lat="43.81443" lon="7.27742">
        <ele>789.20001220703</ele>
        <time>2012-12-30T12:50:35Z</time>
      </trkpt>
      <trkpt lat="43.81443" lon="7.27743">
        <ele>789.20001220703</ele>
        <time>2012-12-30T12:50:52Z</time>
      </trkpt>
      <trkpt lat="43.81443" lon="7.27743">
        <ele>789.40002441406</ele>
        <time>2012-12-30T12:51:09Z</time>
      </trkpt>
      <trkpt lat="43.81443" lon="7.27744">
        <ele>789.40002441406</ele>
        <time>2012-12-30T12:51:11Z</time>
      </trkpt>
      <trkpt lat="43.81443" lon="7.27745">
        <ele>789.59997558594</ele>
        <time>2012-12-30T12:51:21Z</time>
      </trkpt>
      <trkpt lat="43.81444" lon="7.27746">
        <ele>789.59997558594</ele>
        <time>2012-12-30T12:51:26Z</time>
      </trkpt>
      <trkpt lat="43.81444" lon="7.27746">
        <ele>789.59997558594</ele>
        <time>2012-12-30T12:51:32Z</time>
      </trkpt>
      <trkpt lat="43.81443" lon="7.27745">
        <ele>789.59997558594</ele>
        <time>2012-12-30T12:51:37Z</time>
      </trkpt>
      <trkpt lat="43.81443" lon="7.27744">
        <ele>789.40002441406</ele>
        <time>2012-12-30T12:52:01Z</time>
      </trkpt>
      <trkpt lat="43.81451" lon="7.27736">
        <ele>787.20001220703</ele>
        <time>2012-12-30T12:52:12Z</time>
      </trkpt>
      <trkpt lat="43.81459" lon="7.27722">
        <ele>784.79998779297</ele>
        <time>2012-12-30T12:52:15Z</time>
      </trkpt>
      <trkpt lat="43.81461" lon="7.27718">
        <ele>784.20001220703</ele>
        <time>2012-12-30T12:52:16Z</time>
      </trkpt>
      <trkpt lat="43.81468" lon="7.27697">
        <ele>782.40002441406</ele>
        <time>2012-12-30T12:52:20Z</time>
      </trkpt>
      <trkpt lat="43.81471" lon="7.27688">
        <ele>782</ele>
        <time>2012-12-30T12:52:22Z</time>
      </trkpt>
      <trkpt lat="43.81476" lon="7.2768">
        <ele>782</ele>
        <time>2012-12-30T12:52:24Z</time>
      </trkpt>
      <trkpt lat="43.81478" lon="7.27676">
        <ele>782</ele>
        <time>2012-12-30T12:52:25Z</time>
      </trkpt>
      <trkpt lat="43.81479" lon="7.2767">
        <ele>782</ele>
        <time>2012-12-30T12:52:26Z</time>
      </trkpt>
      <trkpt lat="43.8148" lon="7.27665">
        <ele>782</ele>
        <time>2012-12-30T12:52:27Z</time>
      </trkpt>
      <trkpt lat="43.81483" lon="7.27661">
        <ele>782.20001220703</ele>
        <time>2012-12-30T12:52:28Z</time>
      </trkpt>
      <trkpt lat="43.81485" lon="7.27656">
        <ele>782.20001220703</ele>
        <time>2012-12-30T12:52:29Z</time>
      </trkpt>
      <trkpt lat="43.8149" lon="7.2764">
        <ele>782.40002441406</ele>
        <time>2012-12-30T12:52:33Z</time>
      </trkpt>
      <trkpt lat="43.8149" lon="7.2764">
        <ele>782.59997558594</ele>
        <time>2012-12-30T12:52:35Z</time>
      </trkpt>
      <trkpt lat="43.8149" lon="7.2764">
        <ele>782.59997558594</ele>
        <time>2012-12-30T12:52:36Z</time>
      </trkpt>
      <trkpt lat="43.81491" lon="7.27636">
        <ele>782.59997558594</ele>
        <time>2012-12-30T12:52:39Z</time>
      </trkpt>
      <trkpt lat="43.8149" lon="7.27634">
        <ele>782.40002441406</ele>
        <time>2012-12-30T12:52:41Z</time>
      </trkpt>
      <trkpt lat="43.81491" lon="7.27631">
        <ele>782.40002441406</ele>
        <time>2012-12-30T12:52:43Z</time>
      </trkpt>
      <trkpt lat="43.81492" lon="7.27629">
        <ele>782.59997558594</ele>
        <time>2012-12-30T12:52:47Z</time>
      </trkpt>
      <trkpt lat="43.81493" lon="7.27625">
        <ele>782.79998779297</ele>
        <time>2012-12-30T12:52:49Z</time>
      </trkpt>
      <trkpt lat="43.81496" lon="7.27619">
        <ele>783.40002441406</ele>
        <time>2012-12-30T12:52:52Z</time>
      </trkpt>
      <trkpt lat="43.81499" lon="7.2761">
        <ele>784</ele>
        <time>2012-12-30T12:52:55Z</time>
      </trkpt>
      <trkpt lat="43.81502" lon="7.27605">
        <ele>783.59997558594</ele>
        <time>2012-12-30T12:52:57Z</time>
      </trkpt>
      <trkpt lat="43.81512" lon="7.27598">
        <ele>779.79998779297</ele>
        <time>2012-12-30T12:53:01Z</time>
      </trkpt>
      <trkpt lat="43.81516" lon="7.27592">
        <ele>778.40002441406</ele>
        <time>2012-12-30T12:53:03Z</time>
      </trkpt>
      <trkpt lat="43.81522" lon="7.2758">
        <ele>776.40002441406</ele>
        <time>2012-12-30T12:53:06Z</time>
      </trkpt>
      <trkpt lat="43.81531" lon="7.27566">
        <ele>772.40002441406</ele>
        <time>2012-12-30T12:53:11Z</time>
      </trkpt>
      <trkpt lat="43.81535" lon="7.27559">
        <ele>770.79998779297</ele>
        <time>2012-12-30T12:53:15Z</time>
      </trkpt>
      <trkpt lat="43.81538" lon="7.27559">
        <ele>769.79998779297</ele>
        <time>2012-12-30T12:53:18Z</time>
      </trkpt>
      <trkpt lat="43.81542" lon="7.27559">
        <ele>768.59997558594</ele>
        <time>2012-12-30T12:53:21Z</time>
      </trkpt>
      <trkpt lat="43.81551" lon="7.27558">
        <ele>766.20001220703</ele>
        <time>2012-12-30T12:53:26Z</time>
      </trkpt>
      <trkpt lat="43.81559" lon="7.2755">
        <ele>763.40002441406</ele>
        <time>2012-12-30T12:53:30Z</time>
      </trkpt>
      <trkpt lat="43.81565" lon="7.27539">
        <ele>761.59997558594</ele>
        <time>2012-12-30T12:53:34Z</time>
      </trkpt>
      <trkpt lat="43.81573" lon="7.27536">
        <ele>759.79998779297</ele>
        <time>2012-12-30T12:53:38Z</time>
      </trkpt>
      <trkpt lat="43.81573" lon="7.27534">
        <ele>759.79998779297</ele>
        <time>2012-12-30T12:53:43Z</time>
      </trkpt>
      <trkpt lat="43.81572" lon="7.27534">
        <ele>759.79998779297</ele>
        <time>2012-12-30T12:53:48Z</time>
      </trkpt>
      <trkpt lat="43.81571" lon="7.27534">
        <ele>760</ele>
        <time>2012-12-30T12:53:59Z</time>
      </trkpt>
      <trkpt lat="43.81571" lon="7.27534">
        <ele>760.20001220703</ele>
        <time>2012-12-30T12:54:00Z</time>
      </trkpt>
      <trkpt lat="43.81571" lon="7.27534">
        <ele>760.20001220703</ele>
        <time>2012-12-30T12:54:01Z</time>
      </trkpt>
      <trkpt lat="43.81571" lon="7.27534">
        <ele>760.20001220703</ele>
        <time>2012-12-30T12:54:02Z</time>
      </trkpt>
      <trkpt lat="43.81571" lon="7.27534">
        <ele>760.20001220703</ele>
        <time>2012-12-30T12:54:03Z</time>
      </trkpt>
      <trkpt lat="43.8157" lon="7.27535">
        <ele>760.20001220703</ele>
        <time>2012-12-30T12:54:06Z</time>
      </trkpt>
      <trkpt lat="43.8157" lon="7.27535">
        <ele>760.20001220703</ele>
        <time>2012-12-30T12:54:07Z</time>
      </trkpt>
      <trkpt lat="43.81571" lon="7.27535">
        <ele>760.20001220703</ele>
        <time>2012-12-30T12:54:11Z</time>
      </trkpt>
      <trkpt lat="43.81571" lon="7.27535">
        <ele>760.20001220703</ele>
        <time>2012-12-30T12:54:13Z</time>
      </trkpt>
      <trkpt lat="43.81571" lon="7.27535">
        <ele>760.20001220703</ele>
        <time>2012-12-30T12:54:16Z</time>
      </trkpt>
      <trkpt lat="43.81571" lon="7.27535">
        <ele>760.20001220703</ele>
        <time>2012-12-30T12:54:19Z</time>
      </trkpt>
      <trkpt lat="43.81571" lon="7.27535">
        <ele>760.20001220703</ele>
        <time>2012-12-30T12:54:24Z</time>
      </trkpt>
      <trkpt lat="43.81571" lon="7.27535">
        <ele>760.20001220703</ele>
        <time>2012-12-30T12:54:26Z</time>
      </trkpt>
      <trkpt lat="43.8157" lon="7.27534">
        <ele>760.20001220703</ele>
        <time>2012-12-30T12:54:46Z</time>
      </trkpt>
      <trkpt lat="43.8157" lon="7.27534">
        <ele>760.20001220703</ele>
        <time>2012-12-30T12:54:49Z</time>
      </trkpt>
      <trkpt lat="43.81571" lon="7.27535">
        <ele>760.20001220703</ele>
        <time>2012-12-30T12:55:02Z</time>
      </trkpt>
      <trkpt lat="43.81572" lon="7.27534">
        <ele>760</ele>
        <time>2012-12-30T12:55:05Z</time>
      </trkpt>
      <trkpt lat="43.81573" lon="7.27535">
        <ele>759.59997558594</ele>
        <time>2012-12-30T12:55:09Z</time>
      </trkpt>
      <trkpt lat="43.81573" lon="7.27535">
        <ele>759.59997558594</ele>
        <time>2012-12-30T12:55:11Z</time>
      </trkpt>
      <trkpt lat="43.81575" lon="7.27533">
        <ele>759</ele>
        <time>2012-12-30T12:55:14Z</time>
      </trkpt>
      <trkpt lat="43.81576" lon="7.27532">
        <ele>759</ele>
        <time>2012-12-30T12:55:15Z</time>
      </trkpt>
      <trkpt lat="43.8158" lon="7.27528">
        <ele>758.20001220703</ele>
        <time>2012-12-30T12:55:20Z</time>
      </trkpt>
      <trkpt lat="43.81581" lon="7.27525">
        <ele>757.79998779297</ele>
        <time>2012-12-30T12:55:22Z</time>
      </trkpt>
      <trkpt lat="43.81582" lon="7.27524">
        <ele>757.59997558594</ele>
        <time>2012-12-30T12:55:27Z</time>
      </trkpt>
      <trkpt lat="43.81584" lon="7.27523">
        <ele>757</ele>
        <time>2012-12-30T12:55:38Z</time>
      </trkpt>
      <trkpt lat="43.81587" lon="7.27523">
        <ele>756</ele>
        <time>2012-12-30T12:55:46Z</time>
      </trkpt>
      <trkpt lat="43.8159" lon="7.27522">
        <ele>755.40002441406</ele>
        <time>2012-12-30T12:55:51Z</time>
      </trkpt>
      <trkpt lat="43.81596" lon="7.27516">
        <ele>753.40002441406</ele>
        <time>2012-12-30T12:55:55Z</time>
      </trkpt>
      <trkpt lat="43.81605" lon="7.27498">
        <ele>750.40002441406</ele>
        <time>2012-12-30T12:56:00Z</time>
      </trkpt>
      <trkpt lat="43.81608" lon="7.27497">
        <ele>749.40002441406</ele>
        <time>2012-12-30T12:56:01Z</time>
      </trkpt>
      <trkpt lat="43.81614" lon="7.27491">
        <ele>747</ele>
        <time>2012-12-30T12:56:03Z</time>
      </trkpt>
      <trkpt lat="43.81627" lon="7.2748">
        <ele>742</ele>
        <time>2012-12-30T12:56:06Z</time>
      </trkpt>
      <trkpt lat="43.81632" lon="7.27476">
        <ele>740.20001220703</ele>
        <time>2012-12-30T12:56:07Z</time>
      </trkpt>
      <trkpt lat="43.81639" lon="7.27468">
        <ele>738.20001220703</ele>
        <time>2012-12-30T12:56:09Z</time>
      </trkpt>
      <trkpt lat="43.8164" lon="7.27462">
        <ele>737.79998779297</ele>
        <time>2012-12-30T12:56:10Z</time>
      </trkpt>
      <trkpt lat="43.81651" lon="7.27453">
        <ele>735.59997558594</ele>
        <time>2012-12-30T12:56:13Z</time>
      </trkpt>
      <trkpt lat="43.8166" lon="7.27444">
        <ele>734.40002441406</ele>
        <time>2012-12-30T12:56:15Z</time>
      </trkpt>
      <trkpt lat="43.81673" lon="7.27429">
        <ele>732.79998779297</ele>
        <time>2012-12-30T12:56:18Z</time>
      </trkpt>
      <trkpt lat="43.81684" lon="7.27414">
        <ele>730.59997558594</ele>
        <time>2012-12-30T12:56:21Z</time>
      </trkpt>
      <trkpt lat="43.8169" lon="7.27405">
        <ele>729.20001220703</ele>
        <time>2012-12-30T12:56:23Z</time>
      </trkpt>
      <trkpt lat="43.81698" lon="7.27393">
        <ele>727.59997558594</ele>
        <time>2012-12-30T12:56:28Z</time>
      </trkpt>
      <trkpt lat="43.817" lon="7.2739">
        <ele>727.40002441406</ele>
        <time>2012-12-30T12:56:29Z</time>
      </trkpt>
      <trkpt lat="43.81702" lon="7.27389">
        <ele>727.20001220703</ele>
        <time>2012-12-30T12:56:30Z</time>
      </trkpt>
      <trkpt lat="43.81708" lon="7.27381">
        <ele>727</ele>
        <time>2012-12-30T12:56:34Z</time>
      </trkpt>
      <trkpt lat="43.81718" lon="7.27366">
        <ele>727.40002441406</ele>
        <time>2012-12-30T12:56:39Z</time>
      </trkpt>
      <trkpt lat="43.81724" lon="7.27349">
        <ele>729.20001220703</ele>
        <time>2012-12-30T12:56:43Z</time>
      </trkpt>
      <trkpt lat="43.81735" lon="7.27325">
        <ele>731.59997558594</ele>
        <time>2012-12-30T12:56:48Z</time>
      </trkpt>
      <trkpt lat="43.81744" lon="7.27307">
        <ele>731.59997558594</ele>
        <time>2012-12-30T12:56:52Z</time>
      </trkpt>
      <trkpt lat="43.81752" lon="7.27291">
        <ele>731</ele>
        <time>2012-12-30T12:56:57Z</time>
      </trkpt>
      <trkpt lat="43.81765" lon="7.2727">
        <ele>726</ele>
        <time>2012-12-30T12:57:02Z</time>
      </trkpt>
      <trkpt lat="43.81776" lon="7.27247">
        <ele>722.20001220703</ele>
        <time>2012-12-30T12:57:07Z</time>
      </trkpt>
      <trkpt lat="43.81781" lon="7.27239">
        <ele>719.40002441406</ele>
        <time>2012-12-30T12:57:11Z</time>
      </trkpt>
      <trkpt lat="43.81783" lon="7.27237">
        <ele>718.79998779297</ele>
        <time>2012-12-30T12:57:15Z</time>
      </trkpt>
      <trkpt lat="43.81783" lon="7.27236">
        <ele>718.79998779297</ele>
        <time>2012-12-30T12:57:16Z</time>
      </trkpt>
      <trkpt lat="43.81787" lon="7.27229">
        <ele>716.59997558594</ele>
        <time>2012-12-30T12:57:21Z</time>
      </trkpt>
      <trkpt lat="43.81795" lon="7.2722">
        <ele>713.79998779297</ele>
        <time>2012-12-30T12:57:25Z</time>
      </trkpt>
      <trkpt lat="43.81797" lon="7.27217">
        <ele>713</ele>
        <time>2012-12-30T12:57:26Z</time>
      </trkpt>
      <trkpt lat="43.81802" lon="7.27207">
        <ele>711</ele>
        <time>2012-12-30T12:57:29Z</time>
      </trkpt>
      <trkpt lat="43.81815" lon="7.27189">
        <ele>707.59997558594</ele>
        <time>2012-12-30T12:57:34Z</time>
      </trkpt>
      <trkpt lat="43.81833" lon="7.27168">
        <ele>705</ele>
        <time>2012-12-30T12:57:39Z</time>
      </trkpt>
      <trkpt lat="43.81837" lon="7.27158">
        <ele>701.59997558594</ele>
        <time>2012-12-30T12:57:41Z</time>
      </trkpt>
      <trkpt lat="43.81841" lon="7.27155">
        <ele>699.59997558594</ele>
        <time>2012-12-30T12:57:42Z</time>
      </trkpt>
      <trkpt lat="43.81854" lon="7.27142">
        <ele>693.40002441406</ele>
        <time>2012-12-30T12:57:45Z</time>
      </trkpt>
      <trkpt lat="43.81856" lon="7.27135">
        <ele>692</ele>
        <time>2012-12-30T12:57:46Z</time>
      </trkpt>
      <trkpt lat="43.81863" lon="7.27125">
        <ele>689.20001220703</ele>
        <time>2012-12-30T12:57:48Z</time>
      </trkpt>
      <trkpt lat="43.81869" lon="7.27116">
        <ele>687.20001220703</ele>
        <time>2012-12-30T12:57:50Z</time>
      </trkpt>
      <trkpt lat="43.81884" lon="7.27097">
        <ele>684.20001220703</ele>
        <time>2012-12-30T12:57:54Z</time>
      </trkpt>
      <trkpt lat="43.81889" lon="7.27094">
        <ele>683.79998779297</ele>
        <time>2012-12-30T12:57:55Z</time>
      </trkpt>
      <trkpt lat="43.81892" lon="7.27088">
        <ele>683.59997558594</ele>
        <time>2012-12-30T12:57:56Z</time>
      </trkpt>
      <trkpt lat="43.81899" lon="7.27074">
        <ele>681.79998779297</ele>
        <time>2012-12-30T12:57:58Z</time>
      </trkpt>
      <trkpt lat="43.81907" lon="7.27064">
        <ele>680.40002441406</ele>
        <time>2012-12-30T12:58:00Z</time>
      </trkpt>
      <trkpt lat="43.81915" lon="7.27054">
        <ele>679.59997558594</ele>
        <time>2012-12-30T12:58:02Z</time>
      </trkpt>
      <trkpt lat="43.81926" lon="7.27042">
        <ele>676.59997558594</ele>
        <time>2012-12-30T12:58:06Z</time>
      </trkpt>
      <trkpt lat="43.81933" lon="7.27031">
        <ele>674.40002441406</ele>
        <time>2012-12-30T12:58:09Z</time>
      </trkpt>
      <trkpt lat="43.81942" lon="7.27026">
        <ele>672.79998779297</ele>
        <time>2012-12-30T12:58:11Z</time>
      </trkpt>
      <trkpt lat="43.81947" lon="7.27026">
        <ele>671.79998779297</ele>
        <time>2012-12-30T12:58:12Z</time>
      </trkpt>
      <trkpt lat="43.81952" lon="7.27019">
        <ele>671</ele>
        <time>2012-12-30T12:58:15Z</time>
      </trkpt>
      <trkpt lat="43.81955" lon="7.27011">
        <ele>670.79998779297</ele>
        <time>2012-12-30T12:58:17Z</time>
      </trkpt>
      <trkpt lat="43.81955" lon="7.27009">
        <ele>670.59997558594</ele>
        <time>2012-12-30T12:58:19Z</time>
      </trkpt>
      <trkpt lat="43.81957" lon="7.27007">
        <ele>670.40002441406</ele>
        <time>2012-12-30T12:58:20Z</time>
      </trkpt>
      <trkpt lat="43.81963" lon="7.27">
        <ele>670</ele>
        <time>2012-12-30T12:58:23Z</time>
      </trkpt>
      <trkpt lat="43.81971" lon="7.26993">
        <ele>668.20001220703</ele>
        <time>2012-12-30T12:58:26Z</time>
      </trkpt>
      <trkpt lat="43.81971" lon="7.26993">
        <ele>668.20001220703</ele>
        <time>2012-12-30T12:58:27Z</time>
      </trkpt>
      <trkpt lat="43.81976" lon="7.26992">
        <ele>667.79998779297</ele>
        <time>2012-12-30T12:58:32Z</time>
      </trkpt>
      <trkpt lat="43.81977" lon="7.26991">
        <ele>667.40002441406</ele>
        <time>2012-12-30T12:58:33Z</time>
      </trkpt>
      <trkpt lat="43.81982" lon="7.26981">
        <ele>665.79998779297</ele>
        <time>2012-12-30T12:58:36Z</time>
      </trkpt>
      <trkpt lat="43.8199" lon="7.26973">
        <ele>664.59997558594</ele>
        <time>2012-12-30T12:58:39Z</time>
      </trkpt>
      <trkpt lat="43.81999" lon="7.26964">
        <ele>663.79998779297</ele>
        <time>2012-12-30T12:58:43Z</time>
      </trkpt>
      <trkpt lat="43.82009" lon="7.26948">
        <ele>659.40002441406</ele>
        <time>2012-12-30T12:58:47Z</time>
      </trkpt>
      <trkpt lat="43.82014" lon="7.26954">
        <ele>657.79998779297</ele>
        <time>2012-12-30T12:58:50Z</time>
      </trkpt>
      <trkpt lat="43.82016" lon="7.26957">
        <ele>657.40002441406</ele>
        <time>2012-12-30T12:58:51Z</time>
      </trkpt>
      <trkpt lat="43.8202" lon="7.26957">
        <ele>656</ele>
        <time>2012-12-30T12:58:53Z</time>
      </trkpt>
      <trkpt lat="43.82023" lon="7.26954">
        <ele>654.59997558594</ele>
        <time>2012-12-30T12:58:54Z</time>
      </trkpt>
      <trkpt lat="43.82032" lon="7.26947">
        <ele>651.20001220703</ele>
        <time>2012-12-30T12:58:58Z</time>
      </trkpt>
      <trkpt lat="43.82033" lon="7.26946">
        <ele>650.79998779297</ele>
        <time>2012-12-30T12:58:59Z</time>
      </trkpt>
      <trkpt lat="43.82034" lon="7.26944">
        <ele>650.40002441406</ele>
        <time>2012-12-30T12:59:02Z</time>
      </trkpt>
      <trkpt lat="43.82035" lon="7.26941">
        <ele>650</ele>
        <time>2012-12-30T12:59:03Z</time>
      </trkpt>
      <trkpt lat="43.82034" lon="7.26942">
        <ele>650.20001220703</ele>
        <time>2012-12-30T12:59:05Z</time>
      </trkpt>
      <trkpt lat="43.82037" lon="7.26937">
        <ele>649.20001220703</ele>
        <time>2012-12-30T12:59:11Z</time>
      </trkpt>
      <trkpt lat="43.82042" lon="7.26927">
        <ele>647.20001220703</ele>
        <time>2012-12-30T12:59:14Z</time>
      </trkpt>
      <trkpt lat="43.82043" lon="7.26928">
        <ele>646.79998779297</ele>
        <time>2012-12-30T12:59:15Z</time>
      </trkpt>
      <trkpt lat="43.82051" lon="7.26933">
        <ele>644.20001220703</ele>
        <time>2012-12-30T12:59:18Z</time>
      </trkpt>
      <trkpt lat="43.82055" lon="7.26924">
        <ele>643</ele>
        <time>2012-12-30T12:59:21Z</time>
      </trkpt>
      <trkpt lat="43.82056" lon="7.26915">
        <ele>642</ele>
        <time>2012-12-30T12:59:23Z</time>
      </trkpt>
      <trkpt lat="43.82055" lon="7.26899">
        <ele>638.59997558594</ele>
        <time>2012-12-30T12:59:26Z</time>
      </trkpt>
      <trkpt lat="43.82051" lon="7.26878">
        <ele>634.40002441406</ele>
        <time>2012-12-30T12:59:30Z</time>
      </trkpt>
      <trkpt lat="43.8205" lon="7.26874">
        <ele>633.79998779297</ele>
        <time>2012-12-30T12:59:31Z</time>
      </trkpt>
      <trkpt lat="43.82046" lon="7.26869">
        <ele>633.79998779297</ele>
        <time>2012-12-30T12:59:33Z</time>
      </trkpt>
      <trkpt lat="43.82044" lon="7.26862">
        <ele>632.40002441406</ele>
        <time>2012-12-30T12:59:35Z</time>
      </trkpt>
      <trkpt lat="43.82045" lon="7.2686">
        <ele>631.59997558594</ele>
        <time>2012-12-30T12:59:37Z</time>
      </trkpt>
      <trkpt lat="43.82046" lon="7.26861">
        <ele>631.59997558594</ele>
        <time>2012-12-30T12:59:38Z</time>
      </trkpt>
      <trkpt lat="43.82047" lon="7.26852">
        <ele>629.20001220703</ele>
        <time>2012-12-30T12:59:41Z</time>
      </trkpt>
      <trkpt lat="43.82042" lon="7.26836">
        <ele>626.40002441406</ele>
        <time>2012-12-30T12:59:45Z</time>
      </trkpt>
      <trkpt lat="43.82035" lon="7.26827">
        <ele>625.59997558594</ele>
        <time>2012-12-30T12:59:48Z</time>
      </trkpt>
      <trkpt lat="43.82033" lon="7.26825">
        <ele>625.20001220703</ele>
        <time>2012-12-30T12:59:49Z</time>
      </trkpt>
      <trkpt lat="43.82029" lon="7.26814">
        <ele>622.20001220703</ele>
        <time>2012-12-30T12:59:53Z</time>
      </trkpt>
      <trkpt lat="43.82039" lon="7.26809">
        <ele>618.79998779297</ele>
        <time>2012-12-30T12:59:56Z</time>
      </trkpt>
      <trkpt lat="43.82053" lon="7.26806">
        <ele>615.20001220703</ele>
        <time>2012-12-30T13:00:01Z</time>
      </trkpt>
      <trkpt lat="43.82056" lon="7.26807">
        <ele>614.79998779297</ele>
        <time>2012-12-30T13:00:04Z</time>
      </trkpt>
      <trkpt lat="43.82056" lon="7.26806">
        <ele>614.59997558594</ele>
        <time>2012-12-30T13:00:05Z</time>
      </trkpt>
      <trkpt lat="43.82056" lon="7.2681">
        <ele>615.59997558594</ele>
        <time>2012-12-30T13:00:12Z</time>
      </trkpt>
      <trkpt lat="43.82053" lon="7.26809">
        <ele>616</ele>
        <time>2012-12-30T13:00:19Z</time>
      </trkpt>
      <trkpt lat="43.82049" lon="7.26811">
        <ele>617.20001220703</ele>
        <time>2012-12-30T13:00:24Z</time>
      </trkpt>
      <trkpt lat="43.82049" lon="7.26811">
        <ele>617.40002441406</ele>
        <time>2012-12-30T13:00:30Z</time>
      </trkpt>
      <trkpt lat="43.82049" lon="7.26811">
        <ele>617.20001220703</ele>
        <time>2012-12-30T13:00:33Z</time>
      </trkpt>
      <trkpt lat="43.8205" lon="7.26811">
        <ele>617.20001220703</ele>
        <time>2012-12-30T13:00:35Z</time>
      </trkpt>
      <trkpt lat="43.82053" lon="7.2681">
        <ele>616.40002441406</ele>
        <time>2012-12-30T13:00:38Z</time>
      </trkpt>
      <trkpt lat="43.82055" lon="7.26809">
        <ele>615.59997558594</ele>
        <time>2012-12-30T13:00:40Z</time>
      </trkpt>
      <trkpt lat="43.82056" lon="7.26804">
        <ele>614</ele>
        <time>2012-12-30T13:00:44Z</time>
      </trkpt>
      <trkpt lat="43.82055" lon="7.26801">
        <ele>613.40002441406</ele>
        <time>2012-12-30T13:00:45Z</time>
      </trkpt>
      <trkpt lat="43.82052" lon="7.26795">
        <ele>612.20001220703</ele>
        <time>2012-12-30T13:00:47Z</time>
      </trkpt>
      <trkpt lat="43.82051" lon="7.26795">
        <ele>612.20001220703</ele>
        <time>2012-12-30T13:00:48Z</time>
      </trkpt>
      <trkpt lat="43.82051" lon="7.26795">
        <ele>612.20001220703</ele>
        <time>2012-12-30T13:00:53Z</time>
      </trkpt>
      <trkpt lat="43.82053" lon="7.26798">
        <ele>613</ele>
        <time>2012-12-30T13:00:57Z</time>
      </trkpt>
      <trkpt lat="43.82056" lon="7.26806">
        <ele>614.40002441406</ele>
        <time>2012-12-30T13:01:05Z</time>
      </trkpt>
      <trkpt lat="43.82053" lon="7.26807">
        <ele>615.40002441406</ele>
        <time>2012-12-30T13:01:10Z</time>
      </trkpt>
      <trkpt lat="43.82048" lon="7.26809">
        <ele>617.20001220703</ele>
        <time>2012-12-30T13:01:17Z</time>
      </trkpt>
      <trkpt lat="43.82047" lon="7.26809">
        <ele>617.20001220703</ele>
        <time>2012-12-30T13:01:22Z</time>
      </trkpt>
      <trkpt lat="43.82047" lon="7.26809">
        <ele>617.20001220703</ele>
        <time>2012-12-30T13:01:24Z</time>
      </trkpt>
      <trkpt lat="43.82047" lon="7.26809">
        <ele>617</ele>
        <time>2012-12-30T13:01:25Z</time>
      </trkpt>
      <trkpt lat="43.82051" lon="7.26807">
        <ele>615.79998779297</ele>
        <time>2012-12-30T13:01:32Z</time>
      </trkpt>
      <trkpt lat="43.82054" lon="7.26807">
        <ele>615.20001220703</ele>
        <time>2012-12-30T13:01:33Z</time>
      </trkpt>
      <trkpt lat="43.82056" lon="7.26805">
        <ele>614.40002441406</ele>
        <time>2012-12-30T13:01:35Z</time>
      </trkpt>
      <trkpt lat="43.82054" lon="7.26801">
        <ele>613.40002441406</ele>
        <time>2012-12-30T13:01:37Z</time>
      </trkpt>
      <trkpt lat="43.8205" lon="7.26793">
        <ele>611.79998779297</ele>
        <time>2012-12-30T13:01:41Z</time>
      </trkpt>
      <trkpt lat="43.8205" lon="7.26792">
        <ele>611.59997558594</ele>
        <time>2012-12-30T13:01:44Z</time>
      </trkpt>
      <trkpt lat="43.82051" lon="7.26794">
        <ele>611.79998779297</ele>
        <time>2012-12-30T13:01:47Z</time>
      </trkpt>
      <trkpt lat="43.82051" lon="7.26795">
        <ele>612</ele>
        <time>2012-12-30T13:01:49Z</time>
      </trkpt>
      <trkpt lat="43.82051" lon="7.26795">
        <ele>612.20001220703</ele>
        <time>2012-12-30T13:01:53Z</time>
      </trkpt>
      <trkpt lat="43.82051" lon="7.26795">
        <ele>612.20001220703</ele>
        <time>2012-12-30T13:01:55Z</time>
      </trkpt>
      <trkpt lat="43.82051" lon="7.26795">
        <ele>612.40002441406</ele>
        <time>2012-12-30T13:02:01Z</time>
      </trkpt>
      <trkpt lat="43.8205" lon="7.26794">
        <ele>612</ele>
        <time>2012-12-30T13:02:10Z</time>
      </trkpt>
      <trkpt lat="43.8205" lon="7.26794">
        <ele>612</ele>
        <time>2012-12-30T13:02:12Z</time>
      </trkpt>
      <trkpt lat="43.8205" lon="7.26794">
        <ele>612</ele>
        <time>2012-12-30T13:02:14Z</time>
      </trkpt>
      <trkpt lat="43.8205" lon="7.26794">
        <ele>612</ele>
        <time>2012-12-30T13:02:16Z</time>
      </trkpt>
      <trkpt lat="43.82051" lon="7.26794">
        <ele>611.79998779297</ele>
        <time>2012-12-30T13:02:41Z</time>
      </trkpt>
      <trkpt lat="43.82051" lon="7.26793">
        <ele>611.79998779297</ele>
        <time>2012-12-30T13:02:42Z</time>
      </trkpt>
      <trkpt lat="43.82051" lon="7.26793">
        <ele>611.79998779297</ele>
        <time>2012-12-30T13:02:43Z</time>
      </trkpt>
      <trkpt lat="43.8205" lon="7.26793">
        <ele>611.79998779297</ele>
        <time>2012-12-30T13:02:50Z</time>
      </trkpt>
      <trkpt lat="43.82049" lon="7.26793">
        <ele>611.79998779297</ele>
        <time>2012-12-30T13:02:53Z</time>
      </trkpt>
      <trkpt lat="43.82049" lon="7.26792">
        <ele>611.79998779297</ele>
        <time>2012-12-30T13:02:59Z</time>
      </trkpt>
      <trkpt lat="43.82049" lon="7.26792">
        <ele>611.59997558594</ele>
        <time>2012-12-30T13:03:13Z</time>
      </trkpt>
      <trkpt lat="43.8205" lon="7.26792">
        <ele>611.59997558594</ele>
        <time>2012-12-30T13:03:15Z</time>
      </trkpt>
      <trkpt lat="43.8205" lon="7.26792">
        <ele>611.40002441406</ele>
        <time>2012-12-30T13:03:18Z</time>
      </trkpt>
      <trkpt lat="43.82051" lon="7.26792">
        <ele>611.40002441406</ele>
        <time>2012-12-30T13:03:22Z</time>
      </trkpt>
      <trkpt lat="43.82051" lon="7.26791">
        <ele>611.20001220703</ele>
        <time>2012-12-30T13:03:29Z</time>
      </trkpt>
      <trkpt lat="43.82051" lon="7.2679">
        <ele>610.79998779297</ele>
        <time>2012-12-30T13:03:32Z</time>
      </trkpt>
      <trkpt lat="43.82051" lon="7.26791">
        <ele>611</ele>
        <time>2012-12-30T13:03:37Z</time>
      </trkpt>
      <trkpt lat="43.82051" lon="7.26792">
        <ele>611.20001220703</ele>
        <time>2012-12-30T13:03:40Z</time>
      </trkpt>
      <trkpt lat="43.82052" lon="7.26793">
        <ele>611.40002441406</ele>
        <time>2012-12-30T13:03:50Z</time>
      </trkpt>
      <trkpt lat="43.8205" lon="7.26791">
        <ele>611.20001220703</ele>
        <time>2012-12-30T13:03:55Z</time>
      </trkpt>
      <trkpt lat="43.82045" lon="7.26785">
        <ele>610.20001220703</ele>
        <time>2012-12-30T13:03:58Z</time>
      </trkpt>
      <trkpt lat="43.82037" lon="7.26776">
        <ele>608.20001220703</ele>
        <time>2012-12-30T13:04:02Z</time>
      </trkpt>
      <trkpt lat="43.82037" lon="7.26774">
        <ele>607.59997558594</ele>
        <time>2012-12-30T13:04:03Z</time>
      </trkpt>
      <trkpt lat="43.8204" lon="7.26773">
        <ele>607</ele>
        <time>2012-12-30T13:04:06Z</time>
      </trkpt>
      <trkpt lat="43.8205" lon="7.26768">
        <ele>604.40002441406</ele>
        <time>2012-12-30T13:04:09Z</time>
      </trkpt>
      <trkpt lat="43.82061" lon="7.26766">
        <ele>602.59997558594</ele>
        <time>2012-12-30T13:04:13Z</time>
      </trkpt>
      <trkpt lat="43.82069" lon="7.26757">
        <ele>599.59997558594</ele>
        <time>2012-12-30T13:04:16Z</time>
      </trkpt>
      <trkpt lat="43.82079" lon="7.26759">
        <ele>599.20001220703</ele>
        <time>2012-12-30T13:04:19Z</time>
      </trkpt>
      <trkpt lat="43.82074" lon="7.26745">
        <ele>596</ele>
        <time>2012-12-30T13:04:22Z</time>
      </trkpt>
      <trkpt lat="43.82073" lon="7.26731">
        <ele>591.79998779297</ele>
        <time>2012-12-30T13:04:25Z</time>
      </trkpt>
      <trkpt lat="43.82072" lon="7.26726">
        <ele>590.40002441406</ele>
        <time>2012-12-30T13:04:26Z</time>
      </trkpt>
      <trkpt lat="43.82063" lon="7.26723">
        <ele>589.59997558594</ele>
        <time>2012-12-30T13:04:29Z</time>
      </trkpt>
      <trkpt lat="43.82063" lon="7.26711">
        <ele>586</ele>
        <time>2012-12-30T13:04:32Z</time>
      </trkpt>
      <trkpt lat="43.82066" lon="7.26696">
        <ele>581.40002441406</ele>
        <time>2012-12-30T13:04:35Z</time>
      </trkpt>
      <trkpt lat="43.82064" lon="7.26695">
        <ele>581</ele>
        <time>2012-12-30T13:04:37Z</time>
      </trkpt>
      <trkpt lat="43.82064" lon="7.26695">
        <ele>581.20001220703</ele>
        <time>2012-12-30T13:04:38Z</time>
      </trkpt>
      <trkpt lat="43.82064" lon="7.26697">
        <ele>581.79998779297</ele>
        <time>2012-12-30T13:04:39Z</time>
      </trkpt>
      <trkpt lat="43.82061" lon="7.26697">
        <ele>581.59997558594</ele>
        <time>2012-12-30T13:04:42Z</time>
      </trkpt>
      <trkpt lat="43.82063" lon="7.26696">
        <ele>581.40002441406</ele>
        <time>2012-12-30T13:04:46Z</time>
      </trkpt>
      <trkpt lat="43.82061" lon="7.26694">
        <ele>580.79998779297</ele>
        <time>2012-12-30T13:04:50Z</time>
      </trkpt>
      <trkpt lat="43.82059" lon="7.26695">
        <ele>580.79998779297</ele>
        <time>2012-12-30T13:04:54Z</time>
      </trkpt>
      <trkpt lat="43.8206" lon="7.26695">
        <ele>581</ele>
        <time>2012-12-30T13:04:58Z</time>
      </trkpt>
      <trkpt lat="43.8206" lon="7.26695">
        <ele>581</ele>
        <time>2012-12-30T13:05:04Z</time>
      </trkpt>
      <trkpt lat="43.82061" lon="7.26696">
        <ele>581.20001220703</ele>
        <time>2012-12-30T13:05:06Z</time>
      </trkpt>
      <trkpt lat="43.82061" lon="7.26698">
        <ele>581.79998779297</ele>
        <time>2012-12-30T13:05:15Z</time>
      </trkpt>
      <trkpt lat="43.82062" lon="7.26699">
        <ele>582.20001220703</ele>
        <time>2012-12-30T13:05:25Z</time>
      </trkpt>
      <trkpt lat="43.82062" lon="7.26698">
        <ele>581.79998779297</ele>
        <time>2012-12-30T13:05:28Z</time>
      </trkpt>
      <trkpt lat="43.82062" lon="7.26695">
        <ele>580.79998779297</ele>
        <time>2012-12-30T13:05:36Z</time>
      </trkpt>
      <trkpt lat="43.82062" lon="7.26696">
        <ele>581.40002441406</ele>
        <time>2012-12-30T13:05:40Z</time>
      </trkpt>
      <trkpt lat="43.82065" lon="7.26693">
        <ele>580.40002441406</ele>
        <time>2012-12-30T13:05:45Z</time>
      </trkpt>
      <trkpt lat="43.82076" lon="7.26687">
        <ele>579.20001220703</ele>
        <time>2012-12-30T13:05:49Z</time>
      </trkpt>
      <trkpt lat="43.82093" lon="7.26684">
        <ele>575</ele>
        <time>2012-12-30T13:05:53Z</time>
      </trkpt>
      <trkpt lat="43.82108" lon="7.26685">
        <ele>569.79998779297</ele>
        <time>2012-12-30T13:05:57Z</time>
      </trkpt>
      <trkpt lat="43.82112" lon="7.26685">
        <ele>568.40002441406</ele>
        <time>2012-12-30T13:05:59Z</time>
      </trkpt>
      <trkpt lat="43.82112" lon="7.26685">
        <ele>568.20001220703</ele>
        <time>2012-12-30T13:06:00Z</time>
      </trkpt>
      <trkpt lat="43.82111" lon="7.26679">
        <ele>567.59997558594</ele>
        <time>2012-12-30T13:06:03Z</time>
      </trkpt>
      <trkpt lat="43.82119" lon="7.26679">
        <ele>564.59997558594</ele>
        <time>2012-12-30T13:06:06Z</time>
      </trkpt>
      <trkpt lat="43.82123" lon="7.26679">
        <ele>563.20001220703</ele>
        <time>2012-12-30T13:06:07Z</time>
      </trkpt>
      <trkpt lat="43.82125" lon="7.26678">
        <ele>562.20001220703</ele>
        <time>2012-12-30T13:06:08Z</time>
      </trkpt>
      <trkpt lat="43.82125" lon="7.26677">
        <ele>562</ele>
        <time>2012-12-30T13:06:09Z</time>
      </trkpt>
      <trkpt lat="43.82125" lon="7.26675">
        <ele>562</ele>
        <time>2012-12-30T13:06:13Z</time>
      </trkpt>
      <trkpt lat="43.82125" lon="7.26676">
        <ele>561.79998779297</ele>
        <time>2012-12-30T13:06:20Z</time>
      </trkpt>
      <trkpt lat="43.82125" lon="7.26675">
        <ele>561.79998779297</ele>
        <time>2012-12-30T13:06:25Z</time>
      </trkpt>
      <trkpt lat="43.82125" lon="7.26676">
        <ele>562</ele>
        <time>2012-12-30T13:06:43Z</time>
      </trkpt>
      <trkpt lat="43.82124" lon="7.26675">
        <ele>562.20001220703</ele>
        <time>2012-12-30T13:06:58Z</time>
      </trkpt>
      <trkpt lat="43.82124" lon="7.26675">
        <ele>562.20001220703</ele>
        <time>2012-12-30T13:07:00Z</time>
      </trkpt>
      <trkpt lat="43.82124" lon="7.26675">
        <ele>562.40002441406</ele>
        <time>2012-12-30T13:07:02Z</time>
      </trkpt>
      <trkpt lat="43.82124" lon="7.26675">
        <ele>562.40002441406</ele>
        <time>2012-12-30T13:07:07Z</time>
      </trkpt>
      <trkpt lat="43.82123" lon="7.26675">
        <ele>562.40002441406</ele>
        <time>2012-12-30T13:07:14Z</time>
      </trkpt>
      <trkpt lat="43.82123" lon="7.26675">
        <ele>562.40002441406</ele>
        <time>2012-12-30T13:07:16Z</time>
      </trkpt>
      <trkpt lat="43.82123" lon="7.26673">
        <ele>562.20001220703</ele>
        <time>2012-12-30T13:07:23Z</time>
      </trkpt>
      <trkpt lat="43.82123" lon="7.26673">
        <ele>562.20001220703</ele>
        <time>2012-12-30T13:07:27Z</time>
      </trkpt>
      <trkpt lat="43.82123" lon="7.26673">
        <ele>562</ele>
        <time>2012-12-30T13:07:28Z</time>
      </trkpt>
      <trkpt lat="43.82123" lon="7.26672">
        <ele>562</ele>
        <time>2012-12-30T13:07:29Z</time>
      </trkpt>
      <trkpt lat="43.82123" lon="7.26671">
        <ele>562</ele>
        <time>2012-12-30T13:07:38Z</time>
      </trkpt>
      <trkpt lat="43.82119" lon="7.26666">
        <ele>561.79998779297</ele>
        <time>2012-12-30T13:07:53Z</time>
      </trkpt>
      <trkpt lat="43.82116" lon="7.26664">
        <ele>562.20001220703</ele>
        <time>2012-12-30T13:07:54Z</time>
      </trkpt>
      <trkpt lat="43.82098" lon="7.26649">
        <ele>562</ele>
        <time>2012-12-30T13:07:58Z</time>
      </trkpt>
      <trkpt lat="43.82083" lon="7.26641">
        <ele>562.79998779297</ele>
        <time>2012-12-30T13:08:01Z</time>
      </trkpt>
      <trkpt lat="43.82077" lon="7.26637">
        <ele>561</ele>
        <time>2012-12-30T13:08:02Z</time>
      </trkpt>
      <trkpt lat="43.82064" lon="7.26632">
        <ele>557.40002441406</ele>
        <time>2012-12-30T13:08:05Z</time>
      </trkpt>
      <trkpt lat="43.82058" lon="7.26631">
        <ele>556.40002441406</ele>
        <time>2012-12-30T13:08:06Z</time>
      </trkpt>
      <trkpt lat="43.82053" lon="7.26629">
        <ele>555</ele>
        <time>2012-12-30T13:08:07Z</time>
      </trkpt>
      <trkpt lat="43.82034" lon="7.26622">
        <ele>550.59997558594</ele>
        <time>2012-12-30T13:08:10Z</time>
      </trkpt>
      <trkpt lat="43.82026" lon="7.2662">
        <ele>548.79998779297</ele>
        <time>2012-12-30T13:08:12Z</time>
      </trkpt>
      <trkpt lat="43.82021" lon="7.26619">
        <ele>547.59997558594</ele>
        <time>2012-12-30T13:08:13Z</time>
      </trkpt>
      <trkpt lat="43.82014" lon="7.26618">
        <ele>546.59997558594</ele>
        <time>2012-12-30T13:08:14Z</time>
      </trkpt>
      <trkpt lat="43.82006" lon="7.26617">
        <ele>545.59997558594</ele>
        <time>2012-12-30T13:08:15Z</time>
      </trkpt>
      <trkpt lat="43.81993" lon="7.26618">
        <ele>543.20001220703</ele>
        <time>2012-12-30T13:08:17Z</time>
      </trkpt>
      <trkpt lat="43.81988" lon="7.26619">
        <ele>542.20001220703</ele>
        <time>2012-12-30T13:08:18Z</time>
      </trkpt>
      <trkpt lat="43.81979" lon="7.2662">
        <ele>540.59997558594</ele>
        <time>2012-12-30T13:08:20Z</time>
      </trkpt>
      <trkpt lat="43.8197" lon="7.2662">
        <ele>537.79998779297</ele>
        <time>2012-12-30T13:08:22Z</time>
      </trkpt>
      <trkpt lat="43.81958" lon="7.26624">
        <ele>536.40002441406</ele>
        <time>2012-12-30T13:08:24Z</time>
      </trkpt>
      <trkpt lat="43.81947" lon="7.26629">
        <ele>535.20001220703</ele>
        <time>2012-12-30T13:08:26Z</time>
      </trkpt>
      <trkpt lat="43.81936" lon="7.2663">
        <ele>532.79998779297</ele>
        <time>2012-12-30T13:08:28Z</time>
      </trkpt>
      <trkpt lat="43.81933" lon="7.26632">
        <ele>532.59997558594</ele>
        <time>2012-12-30T13:08:29Z</time>
      </trkpt>
      <trkpt lat="43.81929" lon="7.26632">
        <ele>531.40002441406</ele>
        <time>2012-12-30T13:08:30Z</time>
      </trkpt>
      <trkpt lat="43.81923" lon="7.26632">
        <ele>529.79998779297</ele>
        <time>2012-12-30T13:08:31Z</time>
      </trkpt>
      <trkpt lat="43.81917" lon="7.26633">
        <ele>528.59997558594</ele>
        <time>2012-12-30T13:08:32Z</time>
      </trkpt>
      <trkpt lat="43.81913" lon="7.26635">
        <ele>528.20001220703</ele>
        <time>2012-12-30T13:08:33Z</time>
      </trkpt>
      <trkpt lat="43.81903" lon="7.26636">
        <ele>524.79998779297</ele>
        <time>2012-12-30T13:08:37Z</time>
      </trkpt>
      <trkpt lat="43.81902" lon="7.26637">
        <ele>525.20001220703</ele>
        <time>2012-12-30T13:08:40Z</time>
      </trkpt>
      <trkpt lat="43.81899" lon="7.26638">
        <ele>524.40002441406</ele>
        <time>2012-12-30T13:08:45Z</time>
      </trkpt>
      <trkpt lat="43.81898" lon="7.26638">
        <ele>524</ele>
        <time>2012-12-30T13:08:50Z</time>
      </trkpt>
      <trkpt lat="43.819" lon="7.26639">
        <ele>525</ele>
        <time>2012-12-30T13:08:59Z</time>
      </trkpt>
      <trkpt lat="43.81899" lon="7.2664">
        <ele>525.20001220703</ele>
        <time>2012-12-30T13:09:06Z</time>
      </trkpt>
      <trkpt lat="43.81898" lon="7.2664">
        <ele>524.79998779297</ele>
        <time>2012-12-30T13:09:15Z</time>
      </trkpt>
      <trkpt lat="43.81898" lon="7.26641">
        <ele>525.20001220703</ele>
        <time>2012-12-30T13:09:22Z</time>
      </trkpt>
      <trkpt lat="43.81898" lon="7.26641">
        <ele>525.40002441406</ele>
        <time>2012-12-30T13:09:27Z</time>
      </trkpt>
      <trkpt lat="43.81898" lon="7.26641">
        <ele>525.59997558594</ele>
        <time>2012-12-30T13:09:30Z</time>
      </trkpt>
      <trkpt lat="43.81898" lon="7.26642">
        <ele>525.79998779297</ele>
        <time>2012-12-30T13:09:39Z</time>
      </trkpt>
      <trkpt lat="43.81898" lon="7.26642">
        <ele>525.59997558594</ele>
        <time>2012-12-30T13:09:42Z</time>
      </trkpt>
      <trkpt lat="43.81903" lon="7.26642">
        <ele>527.20001220703</ele>
        <time>2012-12-30T13:09:51Z</time>
      </trkpt>
      <trkpt lat="43.81907" lon="7.26641">
        <ele>528.40002441406</ele>
        <time>2012-12-30T13:09:57Z</time>
      </trkpt>
      <trkpt lat="43.81908" lon="7.26641">
        <ele>528.59997558594</ele>
        <time>2012-12-30T13:09:58Z</time>
      </trkpt>
      <trkpt lat="43.8191" lon="7.26641">
        <ele>529.40002441406</ele>
        <time>2012-12-30T13:10:01Z</time>
      </trkpt>
      <trkpt lat="43.81913" lon="7.26641">
        <ele>530.40002441406</ele>
        <time>2012-12-30T13:10:04Z</time>
      </trkpt>
      <trkpt lat="43.81916" lon="7.26639">
        <ele>530.79998779297</ele>
        <time>2012-12-30T13:10:08Z</time>
      </trkpt>
      <trkpt lat="43.81918" lon="7.26638">
        <ele>531</ele>
        <time>2012-12-30T13:10:11Z</time>
      </trkpt>
      <trkpt lat="43.81919" lon="7.26638">
        <ele>531.20001220703</ele>
        <time>2012-12-30T13:10:12Z</time>
      </trkpt>
      <trkpt lat="43.81925" lon="7.26635">
        <ele>531.59997558594</ele>
        <time>2012-12-30T13:10:20Z</time>
      </trkpt>
      <trkpt lat="43.81929" lon="7.26635">
        <ele>532.79998779297</ele>
        <time>2012-12-30T13:10:29Z</time>
      </trkpt>
      <trkpt lat="43.8193" lon="7.26636">
        <ele>533.59997558594</ele>
        <time>2012-12-30T13:10:33Z</time>
      </trkpt>
      <trkpt lat="43.81929" lon="7.26636">
        <ele>533.20001220703</ele>
        <time>2012-12-30T13:10:37Z</time>
      </trkpt>
      <trkpt lat="43.81929" lon="7.26637">
        <ele>533.40002441406</ele>
        <time>2012-12-30T13:10:45Z</time>
      </trkpt>
      <trkpt lat="43.81929" lon="7.26637">
        <ele>533.59997558594</ele>
        <time>2012-12-30T13:10:53Z</time>
      </trkpt>
      <trkpt lat="43.81929" lon="7.26637">
        <ele>533.59997558594</ele>
        <time>2012-12-30T13:10:56Z</time>
      </trkpt>
      <trkpt lat="43.81929" lon="7.26638">
        <ele>533.79998779297</ele>
        <time>2012-12-30T13:11:00Z</time>
      </trkpt>
      <trkpt lat="43.81929" lon="7.26638">
        <ele>533.79998779297</ele>
        <time>2012-12-30T13:11:03Z</time>
      </trkpt>
      <trkpt lat="43.81929" lon="7.26638">
        <ele>533.79998779297</ele>
        <time>2012-12-30T13:11:07Z</time>
      </trkpt>
      <trkpt lat="43.81929" lon="7.26638">
        <ele>534</ele>
        <time>2012-12-30T13:11:12Z</time>
      </trkpt>
      <trkpt lat="43.81929" lon="7.26638">
        <ele>534</ele>
        <time>2012-12-30T13:11:16Z</time>
      </trkpt>
      <trkpt lat="43.81929" lon="7.26638">
        <ele>534</ele>
        <time>2012-12-30T13:11:19Z</time>
      </trkpt>
      <trkpt lat="43.81924" lon="7.26638">
        <ele>532.79998779297</ele>
        <time>2012-12-30T13:11:26Z</time>
      </trkpt>
      <trkpt lat="43.81921" lon="7.26638">
        <ele>532</ele>
        <time>2012-12-30T13:11:27Z</time>
      </trkpt>
      <trkpt lat="43.8191" lon="7.26641">
        <ele>529.20001220703</ele>
        <time>2012-12-30T13:11:30Z</time>
      </trkpt>
      <trkpt lat="43.81907" lon="7.26641">
        <ele>528.40002441406</ele>
        <time>2012-12-30T13:11:31Z</time>
      </trkpt>
      <trkpt lat="43.81895" lon="7.26641">
        <ele>524.20001220703</ele>
        <time>2012-12-30T13:11:36Z</time>
      </trkpt>
      <trkpt lat="43.81893" lon="7.26642">
        <ele>523.59997558594</ele>
        <time>2012-12-30T13:11:43Z</time>
      </trkpt>
      <trkpt lat="43.81893" lon="7.26643">
        <ele>524.20001220703</ele>
        <time>2012-12-30T13:11:47Z</time>
      </trkpt>
      <trkpt lat="43.81894" lon="7.26643">
        <ele>524.40002441406</ele>
        <time>2012-12-30T13:11:56Z</time>
      </trkpt>
      <trkpt lat="43.81894" lon="7.26643">
        <ele>524.40002441406</ele>
        <time>2012-12-30T13:12:05Z</time>
      </trkpt>
      <trkpt lat="43.81894" lon="7.26643">
        <ele>524.79998779297</ele>
        <time>2012-12-30T13:12:31Z</time>
      </trkpt>
      <trkpt lat="43.81895" lon="7.26644">
        <ele>525.40002441406</ele>
        <time>2012-12-30T13:12:36Z</time>
      </trkpt>
      <trkpt lat="43.81895" lon="7.26644">
        <ele>525.20001220703</ele>
        <time>2012-12-30T13:12:38Z</time>
      </trkpt>
      <trkpt lat="43.81895" lon="7.26644">
        <ele>525.20001220703</ele>
        <time>2012-12-30T13:12:39Z</time>
      </trkpt>
      <trkpt lat="43.81895" lon="7.26643">
        <ele>525.20001220703</ele>
        <time>2012-12-30T13:12:41Z</time>
      </trkpt>
      <trkpt lat="43.81895" lon="7.26643">
        <ele>525</ele>
        <time>2012-12-30T13:12:44Z</time>
      </trkpt>
      <trkpt lat="43.81894" lon="7.26642">
        <ele>524.20001220703</ele>
        <time>2012-12-30T13:12:52Z</time>
      </trkpt>
      <trkpt lat="43.81894" lon="7.26642">
        <ele>524.20001220703</ele>
        <time>2012-12-30T13:13:02Z</time>
      </trkpt>
      <trkpt lat="43.81894" lon="7.26642">
        <ele>524.40002441406</ele>
        <time>2012-12-30T13:13:03Z</time>
      </trkpt>
      <trkpt lat="43.81894" lon="7.26643">
        <ele>524.59997558594</ele>
        <time>2012-12-30T13:13:06Z</time>
      </trkpt>
      <trkpt lat="43.81894" lon="7.26643">
        <ele>524.59997558594</ele>
        <time>2012-12-30T13:13:09Z</time>
      </trkpt>
      <trkpt lat="43.81894" lon="7.26642">
        <ele>524.20001220703</ele>
        <time>2012-12-30T13:13:18Z</time>
      </trkpt>
      <trkpt lat="43.81892" lon="7.26642">
        <ele>523.59997558594</ele>
        <time>2012-12-30T13:13:39Z</time>
      </trkpt>
      <trkpt lat="43.81891" lon="7.26643">
        <ele>523.40002441406</ele>
        <time>2012-12-30T13:13:41Z</time>
      </trkpt>
      <trkpt lat="43.81888" lon="7.26644">
        <ele>523.20001220703</ele>
        <time>2012-12-30T13:13:45Z</time>
      </trkpt>
      <trkpt lat="43.81884" lon="7.26647">
        <ele>522.79998779297</ele>
        <time>2012-12-30T13:13:48Z</time>
      </trkpt>
      <trkpt lat="43.81873" lon="7.26653">
        <ele>521.40002441406</ele>
        <time>2012-12-30T13:13:52Z</time>
      </trkpt>
      <trkpt lat="43.81855" lon="7.26665">
        <ele>519.40002441406</ele>
        <time>2012-12-30T13:13:57Z</time>
      </trkpt>
      <trkpt lat="43.81838" lon="7.26674">
        <ele>516.59997558594</ele>
        <time>2012-12-30T13:14:02Z</time>
      </trkpt>
      <trkpt lat="43.8183" lon="7.26684">
        <ele>517.59997558594</ele>
        <time>2012-12-30T13:14:04Z</time>
      </trkpt>
      <trkpt lat="43.81821" lon="7.26693">
        <ele>517.59997558594</ele>
        <time>2012-12-30T13:14:06Z</time>
      </trkpt>
      <trkpt lat="43.81813" lon="7.26701">
        <ele>517.79998779297</ele>
        <time>2012-12-30T13:14:08Z</time>
      </trkpt>
      <trkpt lat="43.81805" lon="7.26708">
        <ele>517.40002441406</ele>
        <time>2012-12-30T13:14:10Z</time>
      </trkpt>
      <trkpt lat="43.81801" lon="7.26713">
        <ele>517.79998779297</ele>
        <time>2012-12-30T13:14:11Z</time>
      </trkpt>
      <trkpt lat="43.81791" lon="7.26722">
        <ele>517</ele>
        <time>2012-12-30T13:14:14Z</time>
      </trkpt>
      <trkpt lat="43.81786" lon="7.26725">
        <ele>516.20001220703</ele>
        <time>2012-12-30T13:14:15Z</time>
      </trkpt>
      <trkpt lat="43.81783" lon="7.26728">
        <ele>516</ele>
        <time>2012-12-30T13:14:16Z</time>
      </trkpt>
      <trkpt lat="43.81778" lon="7.26729">
        <ele>514.79998779297</ele>
        <time>2012-12-30T13:14:17Z</time>
      </trkpt>
      <trkpt lat="43.81764" lon="7.26736">
        <ele>511.39999389648</ele>
        <time>2012-12-30T13:14:20Z</time>
      </trkpt>
      <trkpt lat="43.8176" lon="7.26738">
        <ele>510.60000610352</ele>
        <time>2012-12-30T13:14:21Z</time>
      </trkpt>
      <trkpt lat="43.81747" lon="7.26749">
        <ele>510.20001220703</ele>
        <time>2012-12-30T13:14:24Z</time>
      </trkpt>
      <trkpt lat="43.81739" lon="7.26758">
        <ele>512</ele>
        <time>2012-12-30T13:14:26Z</time>
      </trkpt>
      <trkpt lat="43.81728" lon="7.26764">
        <ele>512.59997558594</ele>
        <time>2012-12-30T13:14:29Z</time>
      </trkpt>
      <trkpt lat="43.81723" lon="7.26764">
        <ele>511.39999389648</ele>
        <time>2012-12-30T13:14:30Z</time>
      </trkpt>
      <trkpt lat="43.81711" lon="7.26765">
        <ele>509</ele>
        <time>2012-12-30T13:14:33Z</time>
      </trkpt>
      <trkpt lat="43.81707" lon="7.26764">
        <ele>507.39999389648</ele>
        <time>2012-12-30T13:14:34Z</time>
      </trkpt>
      <trkpt lat="43.8169" lon="7.26763">
        <ele>503.39999389648</ele>
        <time>2012-12-30T13:14:37Z</time>
      </trkpt>
      <trkpt lat="43.81683" lon="7.26763">
        <ele>502</ele>
        <time>2012-12-30T13:14:38Z</time>
      </trkpt>
      <trkpt lat="43.81677" lon="7.26765">
        <ele>501.39999389648</ele>
        <time>2012-12-30T13:14:39Z</time>
      </trkpt>
      <trkpt lat="43.81665" lon="7.26771">
        <ele>501</ele>
        <time>2012-12-30T13:14:41Z</time>
      </trkpt>
      <trkpt lat="43.8166" lon="7.26774">
        <ele>500.79998779297</ele>
        <time>2012-12-30T13:14:42Z</time>
      </trkpt>
      <trkpt lat="43.81633" lon="7.26789">
        <ele>501.39999389648</ele>
        <time>2012-12-30T13:14:47Z</time>
      </trkpt>
      <trkpt lat="43.81614" lon="7.26796">
        <ele>500.39999389648</ele>
        <time>2012-12-30T13:14:51Z</time>
      </trkpt>
      <trkpt lat="43.8161" lon="7.26796">
        <ele>499.39999389648</ele>
        <time>2012-12-30T13:14:52Z</time>
      </trkpt>
      <trkpt lat="43.81601" lon="7.26791">
        <ele>495.79998779297</ele>
        <time>2012-12-30T13:14:55Z</time>
      </trkpt>
      <trkpt lat="43.81596" lon="7.26791">
        <ele>494.60000610352</ele>
        <time>2012-12-30T13:14:56Z</time>
      </trkpt>
      <trkpt lat="43.81581" lon="7.26788">
        <ele>490.60000610352</ele>
        <time>2012-12-30T13:14:59Z</time>
      </trkpt>
      <trkpt lat="43.81561" lon="7.26781">
        <ele>486.39999389648</ele>
        <time>2012-12-30T13:15:03Z</time>
      </trkpt>
      <trkpt lat="43.81546" lon="7.26791">
        <ele>488.79998779297</ele>
        <time>2012-12-30T13:15:06Z</time>
      </trkpt>
      <trkpt lat="43.81529" lon="7.26795">
        <ele>488.60000610352</ele>
        <time>2012-12-30T13:15:10Z</time>
      </trkpt>
      <trkpt lat="43.81525" lon="7.26796">
        <ele>488.79998779297</ele>
        <time>2012-12-30T13:15:11Z</time>
      </trkpt>
      <trkpt lat="43.81521" lon="7.26795">
        <ele>488.20001220703</ele>
        <time>2012-12-30T13:15:12Z</time>
      </trkpt>
      <trkpt lat="43.81517" lon="7.26795">
        <ele>487.79998779297</ele>
        <time>2012-12-30T13:15:14Z</time>
      </trkpt>
      <trkpt lat="43.81512" lon="7.26785">
        <ele>483.60000610352</ele>
        <time>2012-12-30T13:15:18Z</time>
      </trkpt>
      <trkpt lat="43.81509" lon="7.26776">
        <ele>480.39999389648</ele>
        <time>2012-12-30T13:15:20Z</time>
      </trkpt>
      <trkpt lat="43.81504" lon="7.26771">
        <ele>478.20001220703</ele>
        <time>2012-12-30T13:15:22Z</time>
      </trkpt>
      <trkpt lat="43.81498" lon="7.26765">
        <ele>475.79998779297</ele>
        <time>2012-12-30T13:15:26Z</time>
      </trkpt>
      <trkpt lat="43.81493" lon="7.26756">
        <ele>473.20001220703</ele>
        <time>2012-12-30T13:15:29Z</time>
      </trkpt>
      <trkpt lat="43.81493" lon="7.26757">
        <ele>473.20001220703</ele>
        <time>2012-12-30T13:15:30Z</time>
      </trkpt>
      <trkpt lat="43.81492" lon="7.26756">
        <ele>473.20001220703</ele>
        <time>2012-12-30T13:15:33Z</time>
      </trkpt>
      <trkpt lat="43.81492" lon="7.26757">
        <ele>473.20001220703</ele>
        <time>2012-12-30T13:15:35Z</time>
      </trkpt>
      <trkpt lat="43.81492" lon="7.26757">
        <ele>473.20001220703</ele>
        <time>2012-12-30T13:15:38Z</time>
      </trkpt>
      <trkpt lat="43.81491" lon="7.26757">
        <ele>473.20001220703</ele>
        <time>2012-12-30T13:15:52Z</time>
      </trkpt>
      <trkpt lat="43.81492" lon="7.26757">
        <ele>473.39999389648</ele>
        <time>2012-12-30T13:15:54Z</time>
      </trkpt>
      <trkpt lat="43.81493" lon="7.26758">
        <ele>473.60000610352</ele>
        <time>2012-12-30T13:15:59Z</time>
      </trkpt>
      <trkpt lat="43.81492" lon="7.26758">
        <ele>473.79998779297</ele>
        <time>2012-12-30T13:16:03Z</time>
      </trkpt>
      <trkpt lat="43.81491" lon="7.26757">
        <ele>473.20001220703</ele>
        <time>2012-12-30T13:16:15Z</time>
      </trkpt>
      <trkpt lat="43.8149" lon="7.26755">
        <ele>472.60000610352</ele>
        <time>2012-12-30T13:16:27Z</time>
      </trkpt>
      <trkpt lat="43.81481" lon="7.26753">
        <ele>472</ele>
        <time>2012-12-30T13:16:33Z</time>
      </trkpt>
      <trkpt lat="43.8146" lon="7.26757">
        <ele>473.79998779297</ele>
        <time>2012-12-30T13:16:38Z</time>
      </trkpt>
      <trkpt lat="43.81436" lon="7.2676">
        <ele>475</ele>
        <time>2012-12-30T13:16:42Z</time>
      </trkpt>
      <trkpt lat="43.81429" lon="7.26759">
        <ele>474.79998779297</ele>
        <time>2012-12-30T13:16:43Z</time>
      </trkpt>
      <trkpt lat="43.81407" lon="7.26754">
        <ele>472.79998779297</ele>
        <time>2012-12-30T13:16:46Z</time>
      </trkpt>
      <trkpt lat="43.81393" lon="7.2675">
        <ele>470.60000610352</ele>
        <time>2012-12-30T13:16:48Z</time>
      </trkpt>
      <trkpt lat="43.81368" lon="7.26738">
        <ele>465.39999389648</ele>
        <time>2012-12-30T13:16:52Z</time>
      </trkpt>
      <trkpt lat="43.81362" lon="7.26735">
        <ele>464.39999389648</ele>
        <time>2012-12-30T13:16:53Z</time>
      </trkpt>
      <trkpt lat="43.81334" lon="7.26728">
        <ele>460.79998779297</ele>
        <time>2012-12-30T13:16:57Z</time>
      </trkpt>
      <trkpt lat="43.81326" lon="7.26728">
        <ele>460</ele>
        <time>2012-12-30T13:16:58Z</time>
      </trkpt>
      <trkpt lat="43.81301" lon="7.26737">
        <ele>459</ele>
        <time>2012-12-30T13:17:01Z</time>
      </trkpt>
      <trkpt lat="43.81294" lon="7.26742">
        <ele>459.39999389648</ele>
        <time>2012-12-30T13:17:02Z</time>
      </trkpt>
      <trkpt lat="43.81286" lon="7.26747">
        <ele>460</ele>
        <time>2012-12-30T13:17:03Z</time>
      </trkpt>
      <trkpt lat="43.81252" lon="7.26765">
        <ele>460.60000610352</ele>
        <time>2012-12-30T13:17:07Z</time>
      </trkpt>
      <trkpt lat="43.81243" lon="7.26768">
        <ele>460.60000610352</ele>
        <time>2012-12-30T13:17:08Z</time>
      </trkpt>
      <trkpt lat="43.81205" lon="7.26765">
        <ele>457.60000610352</ele>
        <time>2012-12-30T13:17:12Z</time>
      </trkpt>
      <trkpt lat="43.81195" lon="7.26763">
        <ele>456.39999389648</ele>
        <time>2012-12-30T13:17:13Z</time>
      </trkpt>
      <trkpt lat="43.81165" lon="7.26756">
        <ele>453.20001220703</ele>
        <time>2012-12-30T13:17:16Z</time>
      </trkpt>
      <trkpt lat="43.81136" lon="7.26758">
        <ele>451.39999389648</ele>
        <time>2012-12-30T13:17:19Z</time>
      </trkpt>
      <trkpt lat="43.81102" lon="7.26776">
        <ele>452.60000610352</ele>
        <time>2012-12-30T13:17:23Z</time>
      </trkpt>
      <trkpt lat="43.81084" lon="7.2678">
        <ele>452</ele>
        <time>2012-12-30T13:17:25Z</time>
      </trkpt>
      <trkpt lat="43.81064" lon="7.26779">
        <ele>450.20001220703</ele>
        <time>2012-12-30T13:17:27Z</time>
      </trkpt>
      <trkpt lat="43.81044" lon="7.26778">
        <ele>447.79998779297</ele>
        <time>2012-12-30T13:17:29Z</time>
      </trkpt>
      <trkpt lat="43.81022" lon="7.26775">
        <ele>445.39999389648</ele>
        <time>2012-12-30T13:17:31Z</time>
      </trkpt>
      <trkpt lat="43.81011" lon="7.26774">
        <ele>444.20001220703</ele>
        <time>2012-12-30T13:17:32Z</time>
      </trkpt>
      <trkpt lat="43.80981" lon="7.26779">
        <ele>441.79998779297</ele>
        <time>2012-12-30T13:17:35Z</time>
      </trkpt>
      <trkpt lat="43.80942" lon="7.26792">
        <ele>439.60000610352</ele>
        <time>2012-12-30T13:17:39Z</time>
      </trkpt>
      <trkpt lat="43.80932" lon="7.26795">
        <ele>439.20001220703</ele>
        <time>2012-12-30T13:17:40Z</time>
      </trkpt>
      <trkpt lat="43.80923" lon="7.26798">
        <ele>438.60000610352</ele>
        <time>2012-12-30T13:17:41Z</time>
      </trkpt>
      <trkpt lat="43.80913" lon="7.26801">
        <ele>438.20001220703</ele>
        <time>2012-12-30T13:17:42Z</time>
      </trkpt>
      <trkpt lat="43.80904" lon="7.26804">
        <ele>438.20001220703</ele>
        <time>2012-12-30T13:17:43Z</time>
      </trkpt>
      <trkpt lat="43.80856" lon="7.26813">
        <ele>436.60000610352</ele>
        <time>2012-12-30T13:17:48Z</time>
      </trkpt>
      <trkpt lat="43.80846" lon="7.26812">
        <ele>435.60000610352</ele>
        <time>2012-12-30T13:17:49Z</time>
      </trkpt>
      <trkpt lat="43.80817" lon="7.26801">
        <ele>430.20001220703</ele>
        <time>2012-12-30T13:17:52Z</time>
      </trkpt>
      <trkpt lat="43.80807" lon="7.26797">
        <ele>428.20001220703</ele>
        <time>2012-12-30T13:17:53Z</time>
      </trkpt>
      <trkpt lat="43.80798" lon="7.26794">
        <ele>426.60000610352</ele>
        <time>2012-12-30T13:17:54Z</time>
      </trkpt>
      <trkpt lat="43.80788" lon="7.26794">
        <ele>425.60000610352</ele>
        <time>2012-12-30T13:17:55Z</time>
      </trkpt>
      <trkpt lat="43.80779" lon="7.26796">
        <ele>425.20001220703</ele>
        <time>2012-12-30T13:17:56Z</time>
      </trkpt>
      <trkpt lat="43.80769" lon="7.26798">
        <ele>425</ele>
        <time>2012-12-30T13:17:57Z</time>
      </trkpt>
      <trkpt lat="43.80742" lon="7.26809">
        <ele>423.79998779297</ele>
        <time>2012-12-30T13:18:00Z</time>
      </trkpt>
      <trkpt lat="43.80689" lon="7.26837">
        <ele>416.39999389648</ele>
        <time>2012-12-30T13:18:06Z</time>
      </trkpt>
      <trkpt lat="43.80682" lon="7.26844">
        <ele>417.39999389648</ele>
        <time>2012-12-30T13:18:07Z</time>
      </trkpt>
      <trkpt lat="43.80675" lon="7.26852">
        <ele>419</ele>
        <time>2012-12-30T13:18:08Z</time>
      </trkpt>
      <trkpt lat="43.80651" lon="7.26871">
        <ele>422.39999389648</ele>
        <time>2012-12-30T13:18:11Z</time>
      </trkpt>
      <trkpt lat="43.80632" lon="7.26878">
        <ele>421.79998779297</ele>
        <time>2012-12-30T13:18:13Z</time>
      </trkpt>
      <trkpt lat="43.80604" lon="7.26887">
        <ele>420</ele>
        <time>2012-12-30T13:18:16Z</time>
      </trkpt>
      <trkpt lat="43.80549" lon="7.26907">
        <ele>418.79998779297</ele>
        <time>2012-12-30T13:18:22Z</time>
      </trkpt>
      <trkpt lat="43.8054" lon="7.26909">
        <ele>418</ele>
        <time>2012-12-30T13:18:23Z</time>
      </trkpt>
      <trkpt lat="43.8052" lon="7.2691">
        <ele>415.79998779297</ele>
        <time>2012-12-30T13:18:25Z</time>
      </trkpt>
      <trkpt lat="43.805" lon="7.26911">
        <ele>413.39999389648</ele>
        <time>2012-12-30T13:18:27Z</time>
      </trkpt>
      <trkpt lat="43.80467" lon="7.26911">
        <ele>410</ele>
        <time>2012-12-30T13:18:31Z</time>
      </trkpt>
      <trkpt lat="43.80461" lon="7.26911">
        <ele>409.39999389648</ele>
        <time>2012-12-30T13:18:32Z</time>
      </trkpt>
      <trkpt lat="43.80442" lon="7.26911">
        <ele>407.60000610352</ele>
        <time>2012-12-30T13:18:36Z</time>
      </trkpt>
      <trkpt lat="43.80435" lon="7.2691">
        <ele>406.79998779297</ele>
        <time>2012-12-30T13:18:38Z</time>
      </trkpt>
      <trkpt lat="43.80433" lon="7.26909">
        <ele>406.39999389648</ele>
        <time>2012-12-30T13:18:40Z</time>
      </trkpt>
      <trkpt lat="43.80419" lon="7.26906">
        <ele>404.60000610352</ele>
        <time>2012-12-30T13:18:44Z</time>
      </trkpt>
      <trkpt lat="43.80418" lon="7.26902">
        <ele>404</ele>
        <time>2012-12-30T13:18:46Z</time>
      </trkpt>
      <trkpt lat="43.80422" lon="7.26896">
        <ele>403.39999389648</ele>
        <time>2012-12-30T13:18:47Z</time>
      </trkpt>
      <trkpt lat="43.80435" lon="7.26875">
        <ele>400.60000610352</ele>
        <time>2012-12-30T13:18:50Z</time>
      </trkpt>
      <trkpt lat="43.80442" lon="7.26864">
        <ele>399</ele>
        <time>2012-12-30T13:18:54Z</time>
      </trkpt>
      <trkpt lat="43.80442" lon="7.26854">
        <ele>397</ele>
        <time>2012-12-30T13:18:57Z</time>
      </trkpt>
      <trkpt lat="43.80442" lon="7.26852">
        <ele>396.79998779297</ele>
        <time>2012-12-30T13:18:58Z</time>
      </trkpt>
      <trkpt lat="43.80443" lon="7.26853">
        <ele>397</ele>
        <time>2012-12-30T13:18:59Z</time>
      </trkpt>
      <trkpt lat="43.80442" lon="7.26852">
        <ele>396.79998779297</ele>
        <time>2012-12-30T13:19:00Z</time>
      </trkpt>
      <trkpt lat="43.80441" lon="7.26844">
        <ele>395.20001220703</ele>
        <time>2012-12-30T13:19:08Z</time>
      </trkpt>
      <trkpt lat="43.8044" lon="7.26841">
        <ele>394.79998779297</ele>
        <time>2012-12-30T13:19:12Z</time>
      </trkpt>
      <trkpt lat="43.80438" lon="7.26838">
        <ele>394.20001220703</ele>
        <time>2012-12-30T13:19:18Z</time>
      </trkpt>
      <trkpt lat="43.80437" lon="7.26835">
        <ele>393.79998779297</ele>
        <time>2012-12-30T13:19:24Z</time>
      </trkpt>
      <trkpt lat="43.80437" lon="7.26833">
        <ele>393.39999389648</ele>
        <time>2012-12-30T13:19:30Z</time>
      </trkpt>
      <trkpt lat="43.80437" lon="7.26827">
        <ele>393.79998779297</ele>
        <time>2012-12-30T13:19:35Z</time>
      </trkpt>
      <trkpt lat="43.80434" lon="7.26819">
        <ele>394.39999389648</ele>
        <time>2012-12-30T13:19:38Z</time>
      </trkpt>
      <trkpt lat="43.80436" lon="7.26813">
        <ele>394.79998779297</ele>
        <time>2012-12-30T13:19:40Z</time>
      </trkpt>
      <trkpt lat="43.80436" lon="7.26808">
        <ele>395.20001220703</ele>
        <time>2012-12-30T13:19:42Z</time>
      </trkpt>
      <trkpt lat="43.80438" lon="7.26798">
        <ele>395.60000610352</ele>
        <time>2012-12-30T13:19:45Z</time>
      </trkpt>
      <trkpt lat="43.80439" lon="7.26791">
        <ele>396.20001220703</ele>
        <time>2012-12-30T13:19:47Z</time>
      </trkpt>
      <trkpt lat="43.80444" lon="7.26777">
        <ele>397</ele>
        <time>2012-12-30T13:19:51Z</time>
      </trkpt>
      <trkpt lat="43.80446" lon="7.26774">
        <ele>397.20001220703</ele>
        <time>2012-12-30T13:19:52Z</time>
      </trkpt>
      <trkpt lat="43.80454" lon="7.26761">
        <ele>398.20001220703</ele>
        <time>2012-12-30T13:19:57Z</time>
      </trkpt>
      <trkpt lat="43.80457" lon="7.26754">
        <ele>398.60000610352</ele>
        <time>2012-12-30T13:19:59Z</time>
      </trkpt>
      <trkpt lat="43.8046" lon="7.26734">
        <ele>400.20001220703</ele>
        <time>2012-12-30T13:20:06Z</time>
      </trkpt>
      <trkpt lat="43.80458" lon="7.26716">
        <ele>401.60000610352</ele>
        <time>2012-12-30T13:20:14Z</time>
      </trkpt>
      <trkpt lat="43.80455" lon="7.26701">
        <ele>402.60000610352</ele>
        <time>2012-12-30T13:20:22Z</time>
      </trkpt>
      <trkpt lat="43.8045" lon="7.26693">
        <ele>402.79998779297</ele>
        <time>2012-12-30T13:20:28Z</time>
      </trkpt>
      <trkpt lat="43.80446" lon="7.26702">
        <ele>401.79998779297</ele>
        <time>2012-12-30T13:20:33Z</time>
      </trkpt>
      <trkpt lat="43.80448" lon="7.26713">
        <ele>401.20001220703</ele>
        <time>2012-12-30T13:20:38Z</time>
      </trkpt>
      <trkpt lat="43.80449" lon="7.26715">
        <ele>401.20001220703</ele>
        <time>2012-12-30T13:20:39Z</time>
      </trkpt>
      <trkpt lat="43.80448" lon="7.26728">
        <ele>400.39999389648</ele>
        <time>2012-12-30T13:20:45Z</time>
      </trkpt>
      <trkpt lat="43.80443" lon="7.26738">
        <ele>399.60000610352</ele>
        <time>2012-12-30T13:20:51Z</time>
      </trkpt>
      <trkpt lat="43.80432" lon="7.26742">
        <ele>399.20001220703</ele>
        <time>2012-12-30T13:20:58Z</time>
      </trkpt>
      <trkpt lat="43.80421" lon="7.26739">
        <ele>399.20001220703</ele>
        <time>2012-12-30T13:21:05Z</time>
      </trkpt>
      <trkpt lat="43.80411" lon="7.26726">
        <ele>399.20001220703</ele>
        <time>2012-12-30T13:21:12Z</time>
      </trkpt>
      <trkpt lat="43.804" lon="7.26703">
        <ele>399.39999389648</ele>
        <time>2012-12-30T13:21:21Z</time>
      </trkpt>
      <trkpt lat="43.80399" lon="7.26685">
        <ele>399.60000610352</ele>
        <time>2012-12-30T13:21:26Z</time>
      </trkpt>
      <trkpt lat="43.80398" lon="7.2668">
        <ele>399.60000610352</ele>
        <time>2012-12-30T13:21:27Z</time>
      </trkpt>
      <trkpt lat="43.80393" lon="7.26654">
        <ele>400</ele>
        <time>2012-12-30T13:21:32Z</time>
      </trkpt>
      <trkpt lat="43.80389" lon="7.26634">
        <ele>400.60000610352</ele>
        <time>2012-12-30T13:21:36Z</time>
      </trkpt>
      <trkpt lat="43.80389" lon="7.26627">
        <ele>400.79998779297</ele>
        <time>2012-12-30T13:21:38Z</time>
      </trkpt>
      <trkpt lat="43.80389" lon="7.26624">
        <ele>401</ele>
        <time>2012-12-30T13:21:39Z</time>
      </trkpt>
      <trkpt lat="43.80394" lon="7.26599">
        <ele>402.20001220703</ele>
        <time>2012-12-30T13:21:46Z</time>
      </trkpt>
      <trkpt lat="43.80399" lon="7.26581">
        <ele>403.20001220703</ele>
        <time>2012-12-30T13:21:52Z</time>
      </trkpt>
      <trkpt lat="43.80399" lon="7.26578">
        <ele>403.39999389648</ele>
        <time>2012-12-30T13:21:53Z</time>
      </trkpt>
      <trkpt lat="43.80403" lon="7.26562">
        <ele>404.39999389648</ele>
        <time>2012-12-30T13:22:00Z</time>
      </trkpt>
      <trkpt lat="43.80407" lon="7.26545">
        <ele>405.39999389648</ele>
        <time>2012-12-30T13:22:07Z</time>
      </trkpt>
      <trkpt lat="43.80411" lon="7.26521">
        <ele>406.79998779297</ele>
        <time>2012-12-30T13:22:16Z</time>
      </trkpt>
      <trkpt lat="43.80413" lon="7.26501">
        <ele>407.79998779297</ele>
        <time>2012-12-30T13:22:24Z</time>
      </trkpt>
      <trkpt lat="43.80413" lon="7.2648">
        <ele>409.20001220703</ele>
        <time>2012-12-30T13:22:32Z</time>
      </trkpt>
      <trkpt lat="43.80414" lon="7.26456">
        <ele>410.79998779297</ele>
        <time>2012-12-30T13:22:41Z</time>
      </trkpt>
      <trkpt lat="43.80416" lon="7.26443">
        <ele>412</ele>
        <time>2012-12-30T13:22:46Z</time>
      </trkpt>
      <trkpt lat="43.80419" lon="7.26432">
        <ele>412.79998779297</ele>
        <time>2012-12-30T13:22:50Z</time>
      </trkpt>
      <trkpt lat="43.80423" lon="7.26415">
        <ele>414</ele>
        <time>2012-12-30T13:22:57Z</time>
      </trkpt>
      <trkpt lat="43.80426" lon="7.26403">
        <ele>415.20001220703</ele>
        <time>2012-12-30T13:23:02Z</time>
      </trkpt>
      <trkpt lat="43.80427" lon="7.26395">
        <ele>416</ele>
        <time>2012-12-30T13:23:05Z</time>
      </trkpt>
      <trkpt lat="43.80431" lon="7.26376">
        <ele>417.79998779297</ele>
        <time>2012-12-30T13:23:13Z</time>
      </trkpt>
      <trkpt lat="43.80434" lon="7.26355">
        <ele>419.79998779297</ele>
        <time>2012-12-30T13:23:22Z</time>
      </trkpt>
      <trkpt lat="43.80435" lon="7.26353">
        <ele>420</ele>
        <time>2012-12-30T13:23:23Z</time>
      </trkpt>
      <trkpt lat="43.80439" lon="7.26334">
        <ele>422</ele>
        <time>2012-12-30T13:23:32Z</time>
      </trkpt>
      <trkpt lat="43.80444" lon="7.26321">
        <ele>422.79998779297</ele>
        <time>2012-12-30T13:23:39Z</time>
      </trkpt>
      <trkpt lat="43.80441" lon="7.26307">
        <ele>423.39999389648</ele>
        <time>2012-12-30T13:23:45Z</time>
      </trkpt>
      <trkpt lat="43.80442" lon="7.26289">
        <ele>424.39999389648</ele>
        <time>2012-12-30T13:23:53Z</time>
      </trkpt>
      <trkpt lat="43.80449" lon="7.26278">
        <ele>425.79998779297</ele>
        <time>2012-12-30T13:24:00Z</time>
      </trkpt>
      <trkpt lat="43.80457" lon="7.26268">
        <ele>427.39999389648</ele>
        <time>2012-12-30T13:24:08Z</time>
      </trkpt>
      <trkpt lat="43.80458" lon="7.26257">
        <ele>428.20001220703</ele>
        <time>2012-12-30T13:24:15Z</time>
      </trkpt>
      <trkpt lat="43.80461" lon="7.26246">
        <ele>429.60000610352</ele>
        <time>2012-12-30T13:24:22Z</time>
      </trkpt>
      <trkpt lat="43.80463" lon="7.2623">
        <ele>431.20001220703</ele>
        <time>2012-12-30T13:24:28Z</time>
      </trkpt>
      <trkpt lat="43.80463" lon="7.26211">
        <ele>432.79998779297</ele>
        <time>2012-12-30T13:24:32Z</time>
      </trkpt>
      <trkpt lat="43.80465" lon="7.26185">
        <ele>435.20001220703</ele>
        <time>2012-12-30T13:24:37Z</time>
      </trkpt>
      <trkpt lat="43.80466" lon="7.26179">
        <ele>435.79998779297</ele>
        <time>2012-12-30T13:24:38Z</time>
      </trkpt>
      <trkpt lat="43.8047" lon="7.26161">
        <ele>438.60000610352</ele>
        <time>2012-12-30T13:24:42Z</time>
      </trkpt>
      <trkpt lat="43.80468" lon="7.26158">
        <ele>439</ele>
        <time>2012-12-30T13:24:44Z</time>
      </trkpt>
      <trkpt lat="43.80466" lon="7.26157">
        <ele>439</ele>
        <time>2012-12-30T13:24:45Z</time>
      </trkpt>
      <trkpt lat="43.80457" lon="7.2616">
        <ele>437.39999389648</ele>
        <time>2012-12-30T13:24:49Z</time>
      </trkpt>
      <trkpt lat="43.80451" lon="7.26163">
        <ele>436</ele>
        <time>2012-12-30T13:24:52Z</time>
      </trkpt>
      <trkpt lat="43.80449" lon="7.26163">
        <ele>435.79998779297</ele>
        <time>2012-12-30T13:24:53Z</time>
      </trkpt>
      <trkpt lat="43.80442" lon="7.26166">
        <ele>434.20001220703</ele>
        <time>2012-12-30T13:24:57Z</time>
      </trkpt>
      <trkpt lat="43.80437" lon="7.26165">
        <ele>433.79998779297</ele>
        <time>2012-12-30T13:24:59Z</time>
      </trkpt>
      <trkpt lat="43.80433" lon="7.26164">
        <ele>433.60000610352</ele>
        <time>2012-12-30T13:25:02Z</time>
      </trkpt>
      <trkpt lat="43.80428" lon="7.26162">
        <ele>433.60000610352</ele>
        <time>2012-12-30T13:25:05Z</time>
      </trkpt>
      <trkpt lat="43.80426" lon="7.26162">
        <ele>433.60000610352</ele>
        <time>2012-12-30T13:25:09Z</time>
      </trkpt>
      <trkpt lat="43.80419" lon="7.26157">
        <ele>434</ele>
        <time>2012-12-30T13:25:16Z</time>
      </trkpt>
      <trkpt lat="43.80416" lon="7.26157">
        <ele>434</ele>
        <time>2012-12-30T13:25:17Z</time>
      </trkpt>
      <trkpt lat="43.80409" lon="7.26157">
        <ele>433.39999389648</ele>
        <time>2012-12-30T13:25:21Z</time>
      </trkpt>
      <trkpt lat="43.80404" lon="7.26153">
        <ele>434.20001220703</ele>
        <time>2012-12-30T13:25:25Z</time>
      </trkpt>
      <trkpt lat="43.80402" lon="7.26152">
        <ele>434.39999389648</ele>
        <time>2012-12-30T13:25:26Z</time>
      </trkpt>
      <trkpt lat="43.80394" lon="7.26146">
        <ele>435.60000610352</ele>
        <time>2012-12-30T13:25:33Z</time>
      </trkpt>
      <trkpt lat="43.8039" lon="7.26141">
        <ele>437</ele>
        <time>2012-12-30T13:25:37Z</time>
      </trkpt>
      <trkpt lat="43.80386" lon="7.26137">
        <ele>437.79998779297</ele>
        <time>2012-12-30T13:25:40Z</time>
      </trkpt>
      <trkpt lat="43.80379" lon="7.2613">
        <ele>439.39999389648</ele>
        <time>2012-12-30T13:25:45Z</time>
      </trkpt>
      <trkpt lat="43.80378" lon="7.26129">
        <ele>439.60000610352</ele>
        <time>2012-12-30T13:25:46Z</time>
      </trkpt>
      <trkpt lat="43.80371" lon="7.26117">
        <ele>442.39999389648</ele>
        <time>2012-12-30T13:25:53Z</time>
      </trkpt>
      <trkpt lat="43.8037" lon="7.26112">
        <ele>443.79998779297</ele>
        <time>2012-12-30T13:25:56Z</time>
      </trkpt>
      <trkpt lat="43.80368" lon="7.26105">
        <ele>445.39999389648</ele>
        <time>2012-12-30T13:25:59Z</time>
      </trkpt>
      <trkpt lat="43.80363" lon="7.26105">
        <ele>445</ele>
        <time>2012-12-30T13:26:02Z</time>
      </trkpt>
      <trkpt lat="43.80361" lon="7.26105">
        <ele>444.79998779297</ele>
        <time>2012-12-30T13:26:03Z</time>
      </trkpt>
      <trkpt lat="43.80354" lon="7.26105">
        <ele>444</ele>
        <time>2012-12-30T13:26:09Z</time>
      </trkpt>
      <trkpt lat="43.80344" lon="7.261">
        <ele>444.60000610352</ele>
        <time>2012-12-30T13:26:16Z</time>
      </trkpt>
      <trkpt lat="43.80332" lon="7.26091">
        <ele>445.79998779297</ele>
        <time>2012-12-30T13:26:23Z</time>
      </trkpt>
      <trkpt lat="43.80322" lon="7.26082">
        <ele>447.20001220703</ele>
        <time>2012-12-30T13:26:29Z</time>
      </trkpt>
      <trkpt lat="43.80321" lon="7.26081">
        <ele>447.79998779297</ele>
        <time>2012-12-30T13:26:31Z</time>
      </trkpt>
      <trkpt lat="43.8032" lon="7.26081">
        <ele>447.60000610352</ele>
        <time>2012-12-30T13:26:34Z</time>
      </trkpt>
      <trkpt lat="43.80318" lon="7.26071">
        <ele>450.39999389648</ele>
        <time>2012-12-30T13:26:40Z</time>
      </trkpt>
      <trkpt lat="43.80315" lon="7.26064">
        <ele>452.60000610352</ele>
        <time>2012-12-30T13:26:47Z</time>
      </trkpt>
      <trkpt lat="43.80312" lon="7.26059">
        <ele>453.79998779297</ele>
        <time>2012-12-30T13:26:52Z</time>
      </trkpt>
      <trkpt lat="43.8031" lon="7.26055">
        <ele>455</ele>
        <time>2012-12-30T13:26:56Z</time>
      </trkpt>
      <trkpt lat="43.80309" lon="7.26056">
        <ele>454.60000610352</ele>
        <time>2012-12-30T13:26:57Z</time>
      </trkpt>
      <trkpt lat="43.80307" lon="7.26055">
        <ele>454.79998779297</ele>
        <time>2012-12-30T13:27:01Z</time>
      </trkpt>
      <trkpt lat="43.80303" lon="7.26054">
        <ele>455</ele>
        <time>2012-12-30T13:27:06Z</time>
      </trkpt>
      <trkpt lat="43.80292" lon="7.26049">
        <ele>455.79998779297</ele>
        <time>2012-12-30T13:27:13Z</time>
      </trkpt>
      <trkpt lat="43.80281" lon="7.26042">
        <ele>457.20001220703</ele>
        <time>2012-12-30T13:27:20Z</time>
      </trkpt>
      <trkpt lat="43.80273" lon="7.26041">
        <ele>457</ele>
        <time>2012-12-30T13:27:26Z</time>
      </trkpt>
      <trkpt lat="43.80272" lon="7.2604">
        <ele>457.39999389648</ele>
        <time>2012-12-30T13:27:28Z</time>
      </trkpt>
      <trkpt lat="43.80267" lon="7.26038">
        <ele>457.79998779297</ele>
        <time>2012-12-30T13:27:32Z</time>
      </trkpt>
      <trkpt lat="43.80264" lon="7.26036">
        <ele>458.20001220703</ele>
        <time>2012-12-30T13:27:34Z</time>
      </trkpt>
      <trkpt lat="43.80263" lon="7.26035">
        <ele>458.60000610352</ele>
        <time>2012-12-30T13:27:35Z</time>
      </trkpt>
      <trkpt lat="43.80259" lon="7.26031">
        <ele>459.79998779297</ele>
        <time>2012-12-30T13:27:39Z</time>
      </trkpt>
      <trkpt lat="43.80254" lon="7.26023">
        <ele>462.20001220703</ele>
        <time>2012-12-30T13:27:45Z</time>
      </trkpt>
      <trkpt lat="43.80249" lon="7.26018">
        <ele>463.60000610352</ele>
        <time>2012-12-30T13:27:52Z</time>
      </trkpt>
      <trkpt lat="43.80245" lon="7.26015">
        <ele>464</ele>
        <time>2012-12-30T13:27:55Z</time>
      </trkpt>
      <trkpt lat="43.80241" lon="7.26014">
        <ele>463.79998779297</ele>
        <time>2012-12-30T13:27:59Z</time>
      </trkpt>
      <trkpt lat="43.80239" lon="7.26011">
        <ele>464.60000610352</ele>
        <time>2012-12-30T13:28:06Z</time>
      </trkpt>
      <trkpt lat="43.80236" lon="7.2601">
        <ele>464.79998779297</ele>
        <time>2012-12-30T13:28:11Z</time>
      </trkpt>
      <trkpt lat="43.80233" lon="7.26009">
        <ele>464.60000610352</ele>
        <time>2012-12-30T13:28:17Z</time>
      </trkpt>
      <trkpt lat="43.8023" lon="7.26006">
        <ele>465</ele>
        <time>2012-12-30T13:28:23Z</time>
      </trkpt>
      <trkpt lat="43.80225" lon="7.26004">
        <ele>465</ele>
        <time>2012-12-30T13:28:31Z</time>
      </trkpt>
      <trkpt lat="43.80227" lon="7.26003">
        <ele>465.39999389648</ele>
        <time>2012-12-30T13:28:37Z</time>
      </trkpt>
      <trkpt lat="43.80226" lon="7.26001">
        <ele>466</ele>
        <time>2012-12-30T13:28:42Z</time>
      </trkpt>
      <trkpt lat="43.80225" lon="7.26">
        <ele>466.39999389648</ele>
        <time>2012-12-30T13:28:51Z</time>
      </trkpt>
      <trkpt lat="43.80223" lon="7.25996">
        <ele>467.60000610352</ele>
        <time>2012-12-30T13:28:55Z</time>
      </trkpt>
      <trkpt lat="43.80223" lon="7.25995">
        <ele>468</ele>
        <time>2012-12-30T13:28:57Z</time>
      </trkpt>
      <trkpt lat="43.80221" lon="7.25992">
        <ele>468.60000610352</ele>
        <time>2012-12-30T13:29:01Z</time>
      </trkpt>
      <trkpt lat="43.80219" lon="7.25988">
        <ele>469.79998779297</ele>
        <time>2012-12-30T13:29:05Z</time>
      </trkpt>
      <trkpt lat="43.80217" lon="7.25985">
        <ele>470.60000610352</ele>
        <time>2012-12-30T13:29:08Z</time>
      </trkpt>
      <trkpt lat="43.80212" lon="7.25984">
        <ele>469.79998779297</ele>
        <time>2012-12-30T13:29:13Z</time>
      </trkpt>
      <trkpt lat="43.8021" lon="7.25985">
        <ele>469.60000610352</ele>
        <time>2012-12-30T13:29:14Z</time>
      </trkpt>
      <trkpt lat="43.80209" lon="7.25983">
        <ele>469.79998779297</ele>
        <time>2012-12-30T13:29:16Z</time>
      </trkpt>
      <trkpt lat="43.80207" lon="7.2598">
        <ele>470.79998779297</ele>
        <time>2012-12-30T13:29:20Z</time>
      </trkpt>
      <trkpt lat="43.80203" lon="7.25975">
        <ele>471.79998779297</ele>
        <time>2012-12-30T13:29:28Z</time>
      </trkpt>
      <trkpt lat="43.80197" lon="7.25972">
        <ele>472</ele>
        <time>2012-12-30T13:29:36Z</time>
      </trkpt>
      <trkpt lat="43.80196" lon="7.25972">
        <ele>472</ele>
        <time>2012-12-30T13:29:37Z</time>
      </trkpt>
      <trkpt lat="43.80192" lon="7.25968">
        <ele>472.60000610352</ele>
        <time>2012-12-30T13:29:43Z</time>
      </trkpt>
      <trkpt lat="43.80189" lon="7.25966">
        <ele>473</ele>
        <time>2012-12-30T13:29:46Z</time>
      </trkpt>
      <trkpt lat="43.80188" lon="7.25965">
        <ele>473.20001220703</ele>
        <time>2012-12-30T13:29:47Z</time>
      </trkpt>
      <trkpt lat="43.80188" lon="7.25964">
        <ele>473.20001220703</ele>
        <time>2012-12-30T13:29:48Z</time>
      </trkpt>
      <trkpt lat="43.80188" lon="7.25965">
        <ele>473</ele>
        <time>2012-12-30T13:29:49Z</time>
      </trkpt>
      <trkpt lat="43.80187" lon="7.25964">
        <ele>473.20001220703</ele>
        <time>2012-12-30T13:29:50Z</time>
      </trkpt>
      <trkpt lat="43.80183" lon="7.25957">
        <ele>475</ele>
        <time>2012-12-30T13:29:57Z</time>
      </trkpt>
      <trkpt lat="43.80176" lon="7.25948">
        <ele>477</ele>
        <time>2012-12-30T13:30:03Z</time>
      </trkpt>
      <trkpt lat="43.80161" lon="7.25941">
        <ele>476.79998779297</ele>
        <time>2012-12-30T13:30:09Z</time>
      </trkpt>
      <trkpt lat="43.80154" lon="7.25935">
        <ele>478.20001220703</ele>
        <time>2012-12-30T13:30:14Z</time>
      </trkpt>
      <trkpt lat="43.80144" lon="7.25926">
        <ele>479.60000610352</ele>
        <time>2012-12-30T13:30:21Z</time>
      </trkpt>
      <trkpt lat="43.80135" lon="7.25915">
        <ele>481.20001220703</ele>
        <time>2012-12-30T13:30:28Z</time>
      </trkpt>
      <trkpt lat="43.80134" lon="7.25914">
        <ele>481.39999389648</ele>
        <time>2012-12-30T13:30:29Z</time>
      </trkpt>
      <trkpt lat="43.80132" lon="7.25909">
        <ele>482.39999389648</ele>
        <time>2012-12-30T13:30:32Z</time>
      </trkpt>
      <trkpt lat="43.8013" lon="7.25908">
        <ele>482.39999389648</ele>
        <time>2012-12-30T13:30:33Z</time>
      </trkpt>
      <trkpt lat="43.80127" lon="7.25905">
        <ele>482.60000610352</ele>
        <time>2012-12-30T13:30:34Z</time>
      </trkpt>
      <trkpt lat="43.80122" lon="7.25892">
        <ele>484.79998779297</ele>
        <time>2012-12-30T13:30:40Z</time>
      </trkpt>
      <trkpt lat="43.80122" lon="7.25893">
        <ele>484.60000610352</ele>
        <time>2012-12-30T13:30:42Z</time>
      </trkpt>
      <trkpt lat="43.80122" lon="7.25892">
        <ele>484.79998779297</ele>
        <time>2012-12-30T13:30:44Z</time>
      </trkpt>
      <trkpt lat="43.80122" lon="7.2589">
        <ele>485.20001220703</ele>
        <time>2012-12-30T13:30:45Z</time>
      </trkpt>
      <trkpt lat="43.80122" lon="7.25887">
        <ele>486.20001220703</ele>
        <time>2012-12-30T13:30:48Z</time>
      </trkpt>
      <trkpt lat="43.80121" lon="7.25882">
        <ele>487</ele>
        <time>2012-12-30T13:30:52Z</time>
      </trkpt>
      <trkpt lat="43.80121" lon="7.25882">
        <ele>487</ele>
        <time>2012-12-30T13:30:53Z</time>
      </trkpt>
      <trkpt lat="43.80119" lon="7.25874">
        <ele>488.79998779297</ele>
        <time>2012-12-30T13:31:01Z</time>
      </trkpt>
      <trkpt lat="43.80116" lon="7.25862">
        <ele>491</ele>
        <time>2012-12-30T13:31:09Z</time>
      </trkpt>
      <trkpt lat="43.80116" lon="7.25861">
        <ele>491.39999389648</ele>
        <time>2012-12-30T13:31:11Z</time>
      </trkpt>
      <trkpt lat="43.80116" lon="7.25855">
        <ele>492.60000610352</ele>
        <time>2012-12-30T13:31:15Z</time>
      </trkpt>
      <trkpt lat="43.80112" lon="7.25846">
        <ele>494.20001220703</ele>
        <time>2012-12-30T13:31:20Z</time>
      </trkpt>
      <trkpt lat="43.80111" lon="7.25843">
        <ele>495</ele>
        <time>2012-12-30T13:31:21Z</time>
      </trkpt>
      <trkpt lat="43.80101" lon="7.25829">
        <ele>496.39999389648</ele>
        <time>2012-12-30T13:31:25Z</time>
      </trkpt>
      <trkpt lat="43.80098" lon="7.25829">
        <ele>496</ele>
        <time>2012-12-30T13:31:26Z</time>
      </trkpt>
      <trkpt lat="43.80094" lon="7.25828">
        <ele>495.39999389648</ele>
        <time>2012-12-30T13:31:30Z</time>
      </trkpt>
      <trkpt lat="43.80093" lon="7.25828">
        <ele>495.20001220703</ele>
        <time>2012-12-30T13:31:31Z</time>
      </trkpt>
      <trkpt lat="43.80092" lon="7.25831">
        <ele>494.60000610352</ele>
        <time>2012-12-30T13:31:35Z</time>
      </trkpt>
      <trkpt lat="43.80089" lon="7.25835">
        <ele>493.39999389648</ele>
        <time>2012-12-30T13:31:38Z</time>
      </trkpt>
      <trkpt lat="43.80086" lon="7.25838">
        <ele>492.20001220703</ele>
        <time>2012-12-30T13:31:40Z</time>
      </trkpt>
      <trkpt lat="43.80082" lon="7.25841">
        <ele>491</ele>
        <time>2012-12-30T13:31:43Z</time>
      </trkpt>
      <trkpt lat="43.8008" lon="7.25846">
        <ele>489.60000610352</ele>
        <time>2012-12-30T13:31:48Z</time>
      </trkpt>
      <trkpt lat="43.80079" lon="7.25848">
        <ele>489</ele>
        <time>2012-12-30T13:31:49Z</time>
      </trkpt>
      <trkpt lat="43.80071" lon="7.25858">
        <ele>486.20001220703</ele>
        <time>2012-12-30T13:31:54Z</time>
      </trkpt>
      <trkpt lat="43.80067" lon="7.25862">
        <ele>485</ele>
        <time>2012-12-30T13:31:56Z</time>
      </trkpt>
      <trkpt lat="43.80062" lon="7.25869">
        <ele>483</ele>
        <time>2012-12-30T13:32:00Z</time>
      </trkpt>
      <trkpt lat="43.80056" lon="7.25873">
        <ele>481.79998779297</ele>
        <time>2012-12-30T13:32:02Z</time>
      </trkpt>
      <trkpt lat="43.80048" lon="7.25878">
        <ele>480.39999389648</ele>
        <time>2012-12-30T13:32:05Z</time>
      </trkpt>
      <trkpt lat="43.80036" lon="7.25883">
        <ele>478.60000610352</ele>
        <time>2012-12-30T13:32:09Z</time>
      </trkpt>
      <trkpt lat="43.80018" lon="7.25883">
        <ele>477.79998779297</ele>
        <time>2012-12-30T13:32:12Z</time>
      </trkpt>
      <trkpt lat="43.80006" lon="7.25876">
        <ele>478.60000610352</ele>
        <time>2012-12-30T13:32:15Z</time>
      </trkpt>
      <trkpt lat="43.80003" lon="7.25874">
        <ele>478.60000610352</ele>
        <time>2012-12-30T13:32:16Z</time>
      </trkpt>
      <trkpt lat="43.79988" lon="7.25858">
        <ele>483.79998779297</ele>
        <time>2012-12-30T13:32:19Z</time>
      </trkpt>
      <trkpt lat="43.79984" lon="7.25852">
        <ele>485.39999389648</ele>
        <time>2012-12-30T13:32:20Z</time>
      </trkpt>
      <trkpt lat="43.79976" lon="7.25845">
        <ele>488</ele>
        <time>2012-12-30T13:32:22Z</time>
      </trkpt>
      <trkpt lat="43.79973" lon="7.25843">
        <ele>488.79998779297</ele>
        <time>2012-12-30T13:32:23Z</time>
      </trkpt>
      <trkpt lat="43.79972" lon="7.25844">
        <ele>488.79998779297</ele>
        <time>2012-12-30T13:32:26Z</time>
      </trkpt>
      <trkpt lat="43.79971" lon="7.25847">
        <ele>488.60000610352</ele>
        <time>2012-12-30T13:32:31Z</time>
      </trkpt>
      <trkpt lat="43.79972" lon="7.25851">
        <ele>487.79998779297</ele>
        <time>2012-12-30T13:32:37Z</time>
      </trkpt>
      <trkpt lat="43.7997" lon="7.25854">
        <ele>487.60000610352</ele>
        <time>2012-12-30T13:32:42Z</time>
      </trkpt>
      <trkpt lat="43.79966" lon="7.25862">
        <ele>487.20001220703</ele>
        <time>2012-12-30T13:32:51Z</time>
      </trkpt>
      <trkpt lat="43.79966" lon="7.2587">
        <ele>485.79998779297</ele>
        <time>2012-12-30T13:32:58Z</time>
      </trkpt>
      <trkpt lat="43.79965" lon="7.25876">
        <ele>485.20001220703</ele>
        <time>2012-12-30T13:33:05Z</time>
      </trkpt>
      <trkpt lat="43.79965" lon="7.25881">
        <ele>484.39999389648</ele>
        <time>2012-12-30T13:33:09Z</time>
      </trkpt>
      <trkpt lat="43.79964" lon="7.25887">
        <ele>483.60000610352</ele>
        <time>2012-12-30T13:33:12Z</time>
      </trkpt>
      <trkpt lat="43.79963" lon="7.25894">
        <ele>482.79998779297</ele>
        <time>2012-12-30T13:33:18Z</time>
      </trkpt>
      <trkpt lat="43.79963" lon="7.25895">
        <ele>482.79998779297</ele>
        <time>2012-12-30T13:33:19Z</time>
      </trkpt>
      <trkpt lat="43.79961" lon="7.25906">
        <ele>481.39999389648</ele>
        <time>2012-12-30T13:33:26Z</time>
      </trkpt>
      <trkpt lat="43.7996" lon="7.25909">
        <ele>481</ele>
        <time>2012-12-30T13:33:28Z</time>
      </trkpt>
      <trkpt lat="43.7996" lon="7.25917">
        <ele>480</ele>
        <time>2012-12-30T13:33:33Z</time>
      </trkpt>
      <trkpt lat="43.79959" lon="7.25925">
        <ele>479.60000610352</ele>
        <time>2012-12-30T13:33:37Z</time>
      </trkpt>
      <trkpt lat="43.7996" lon="7.25928">
        <ele>479.39999389648</ele>
        <time>2012-12-30T13:33:38Z</time>
      </trkpt>
      <trkpt lat="43.79959" lon="7.2593">
        <ele>479.39999389648</ele>
        <time>2012-12-30T13:33:39Z</time>
      </trkpt>
      <trkpt lat="43.79959" lon="7.25931">
        <ele>479.39999389648</ele>
        <time>2012-12-30T13:33:40Z</time>
      </trkpt>
      <trkpt lat="43.79959" lon="7.25933">
        <ele>479.20001220703</ele>
        <time>2012-12-30T13:33:41Z</time>
      </trkpt>
      <trkpt lat="43.79959" lon="7.25938">
        <ele>479</ele>
        <time>2012-12-30T13:33:44Z</time>
      </trkpt>
      <trkpt lat="43.79959" lon="7.25943">
        <ele>478.79998779297</ele>
        <time>2012-12-30T13:33:47Z</time>
      </trkpt>
      <trkpt lat="43.79959" lon="7.25948">
        <ele>478.39999389648</ele>
        <time>2012-12-30T13:33:54Z</time>
      </trkpt>
      <trkpt lat="43.7996" lon="7.25954">
        <ele>478</ele>
        <time>2012-12-30T13:34:01Z</time>
      </trkpt>
      <trkpt lat="43.7996" lon="7.25959">
        <ele>477.79998779297</ele>
        <time>2012-12-30T13:34:05Z</time>
      </trkpt>
      <trkpt lat="43.79958" lon="7.25961">
        <ele>478</ele>
        <time>2012-12-30T13:34:08Z</time>
      </trkpt>
      <trkpt lat="43.79956" lon="7.25967">
        <ele>478</ele>
        <time>2012-12-30T13:34:14Z</time>
      </trkpt>
      <trkpt lat="43.79955" lon="7.25975">
        <ele>478</ele>
        <time>2012-12-30T13:34:16Z</time>
      </trkpt>
      <trkpt lat="43.79953" lon="7.25981">
        <ele>478.20001220703</ele>
        <time>2012-12-30T13:34:18Z</time>
      </trkpt>
      <trkpt lat="43.79951" lon="7.25982">
        <ele>478.39999389648</ele>
        <time>2012-12-30T13:34:20Z</time>
      </trkpt>
      <trkpt lat="43.7995" lon="7.25987">
        <ele>478.60000610352</ele>
        <time>2012-12-30T13:34:23Z</time>
      </trkpt>
      <trkpt lat="43.7995" lon="7.25987">
        <ele>478.60000610352</ele>
        <time>2012-12-30T13:34:25Z</time>
      </trkpt>
      <trkpt lat="43.79949" lon="7.25988">
        <ele>478.60000610352</ele>
        <time>2012-12-30T13:34:26Z</time>
      </trkpt>
      <trkpt lat="43.79949" lon="7.25989">
        <ele>478.60000610352</ele>
        <time>2012-12-30T13:34:38Z</time>
      </trkpt>
      <trkpt lat="43.79947" lon="7.25988">
        <ele>479.20001220703</ele>
        <time>2012-12-30T13:34:51Z</time>
      </trkpt>
      <trkpt lat="43.79946" lon="7.25988">
        <ele>479.20001220703</ele>
        <time>2012-12-30T13:34:52Z</time>
      </trkpt>
      <trkpt lat="43.79946" lon="7.25988">
        <ele>479.20001220703</ele>
        <time>2012-12-30T13:34:53Z</time>
      </trkpt>
      <trkpt lat="43.79946" lon="7.25988">
        <ele>479.20001220703</ele>
        <time>2012-12-30T13:34:55Z</time>
      </trkpt>
      <trkpt lat="43.79946" lon="7.25988">
        <ele>479.20001220703</ele>
        <time>2012-12-30T13:34:56Z</time>
      </trkpt>
      <trkpt lat="43.79946" lon="7.25988">
        <ele>479.20001220703</ele>
        <time>2012-12-30T13:34:57Z</time>
      </trkpt>
      <trkpt lat="43.79946" lon="7.2599">
        <ele>479.20001220703</ele>
        <time>2012-12-30T13:34:59Z</time>
      </trkpt>
      <trkpt lat="43.79946" lon="7.25992">
        <ele>479</ele>
        <time>2012-12-30T13:35:06Z</time>
      </trkpt>
      <trkpt lat="43.79947" lon="7.25993">
        <ele>478.79998779297</ele>
        <time>2012-12-30T13:35:09Z</time>
      </trkpt>
      <trkpt lat="43.79949" lon="7.25995">
        <ele>478.20001220703</ele>
        <time>2012-12-30T13:35:25Z</time>
      </trkpt>
      <trkpt lat="43.79949" lon="7.25995">
        <ele>478.20001220703</ele>
        <time>2012-12-30T13:35:30Z</time>
      </trkpt>
      <trkpt lat="43.79948" lon="7.25994">
        <ele>478.60000610352</ele>
        <time>2012-12-30T13:35:39Z</time>
      </trkpt>
      <trkpt lat="43.79947" lon="7.25994">
        <ele>478.60000610352</ele>
        <time>2012-12-30T13:35:43Z</time>
      </trkpt>
      <trkpt lat="43.79948" lon="7.25992">
        <ele>478.60000610352</ele>
        <time>2012-12-30T13:35:59Z</time>
      </trkpt>
      <trkpt lat="43.79948" lon="7.25993">
        <ele>478.39999389648</ele>
        <time>2012-12-30T13:36:05Z</time>
      </trkpt>
      <trkpt lat="43.79948" lon="7.25993">
        <ele>478.39999389648</ele>
        <time>2012-12-30T13:36:08Z</time>
      </trkpt>
      <trkpt lat="43.79948" lon="7.25993">
        <ele>478.60000610352</ele>
        <time>2012-12-30T13:36:28Z</time>
      </trkpt>
      <trkpt lat="43.79946" lon="7.25994">
        <ele>478.79998779297</ele>
        <time>2012-12-30T13:36:32Z</time>
      </trkpt>
      <trkpt lat="43.79945" lon="7.25996">
        <ele>479</ele>
        <time>2012-12-30T13:36:34Z</time>
      </trkpt>
      <trkpt lat="43.79944" lon="7.25997">
        <ele>479.20001220703</ele>
        <time>2012-12-30T13:36:35Z</time>
      </trkpt>
      <trkpt lat="43.79942" lon="7.26001">
        <ele>479.60000610352</ele>
        <time>2012-12-30T13:36:38Z</time>
      </trkpt>
      <trkpt lat="43.79939" lon="7.26007">
        <ele>480.20001220703</ele>
        <time>2012-12-30T13:36:42Z</time>
      </trkpt>
      <trkpt lat="43.79937" lon="7.26008">
        <ele>480.39999389648</ele>
        <time>2012-12-30T13:36:43Z</time>
      </trkpt>
      <trkpt lat="43.79935" lon="7.26011">
        <ele>480.79998779297</ele>
        <time>2012-12-30T13:36:45Z</time>
      </trkpt>
      <trkpt lat="43.79931" lon="7.26013">
        <ele>481.60000610352</ele>
        <time>2012-12-30T13:36:48Z</time>
      </trkpt>
      <trkpt lat="43.79929" lon="7.26014">
        <ele>482</ele>
        <time>2012-12-30T13:36:50Z</time>
      </trkpt>
      <trkpt lat="43.79917" lon="7.26022">
        <ele>484</ele>
        <time>2012-12-30T13:36:56Z</time>
      </trkpt>
      <trkpt lat="43.79914" lon="7.26025">
        <ele>483.60000610352</ele>
        <time>2012-12-30T13:36:57Z</time>
      </trkpt>
      <trkpt lat="43.79897" lon="7.26039">
        <ele>480.79998779297</ele>
        <time>2012-12-30T13:37:01Z</time>
      </trkpt>
      <trkpt lat="43.79877" lon="7.26056">
        <ele>477.79998779297</ele>
        <time>2012-12-30T13:37:05Z</time>
      </trkpt>
      <trkpt lat="43.79859" lon="7.26079">
        <ele>474.39999389648</ele>
        <time>2012-12-30T13:37:10Z</time>
      </trkpt>
      <trkpt lat="43.79838" lon="7.26105">
        <ele>470</ele>
        <time>2012-12-30T13:37:15Z</time>
      </trkpt>
      <trkpt lat="43.79824" lon="7.26121">
        <ele>467</ele>
        <time>2012-12-30T13:37:19Z</time>
      </trkpt>
      <trkpt lat="43.7981" lon="7.26125">
        <ele>465.20001220703</ele>
        <time>2012-12-30T13:37:23Z</time>
      </trkpt>
      <trkpt lat="43.79807" lon="7.26123">
        <ele>465</ele>
        <time>2012-12-30T13:37:24Z</time>
      </trkpt>
      <trkpt lat="43.79804" lon="7.26121">
        <ele>464.79998779297</ele>
        <time>2012-12-30T13:37:25Z</time>
      </trkpt>
      <trkpt lat="43.79792" lon="7.26116">
        <ele>463.60000610352</ele>
        <time>2012-12-30T13:37:29Z</time>
      </trkpt>
      <trkpt lat="43.79789" lon="7.26113">
        <ele>463.39999389648</ele>
        <time>2012-12-30T13:37:30Z</time>
      </trkpt>
      <trkpt lat="43.79786" lon="7.2611">
        <ele>463.20001220703</ele>
        <time>2012-12-30T13:37:31Z</time>
      </trkpt>
      <trkpt lat="43.79783" lon="7.26108">
        <ele>463</ele>
        <time>2012-12-30T13:37:32Z</time>
      </trkpt>
      <trkpt lat="43.79782" lon="7.26107">
        <ele>463</ele>
        <time>2012-12-30T13:37:33Z</time>
      </trkpt>
      <trkpt lat="43.79781" lon="7.26105">
        <ele>462.79998779297</ele>
        <time>2012-12-30T13:37:35Z</time>
      </trkpt>
      <trkpt lat="43.79779" lon="7.26104">
        <ele>462.79998779297</ele>
        <time>2012-12-30T13:37:37Z</time>
      </trkpt>
      <trkpt lat="43.79778" lon="7.26102">
        <ele>462.60000610352</ele>
        <time>2012-12-30T13:37:39Z</time>
      </trkpt>
      <trkpt lat="43.79772" lon="7.26088">
        <ele>462.60000610352</ele>
        <time>2012-12-30T13:37:46Z</time>
      </trkpt>
      <trkpt lat="43.79765" lon="7.26069">
        <ele>462.60000610352</ele>
        <time>2012-12-30T13:37:53Z</time>
      </trkpt>
      <trkpt lat="43.79756" lon="7.26048">
        <ele>462.39999389648</ele>
        <time>2012-12-30T13:38:01Z</time>
      </trkpt>
      <trkpt lat="43.79746" lon="7.26024">
        <ele>462.39999389648</ele>
        <time>2012-12-30T13:38:09Z</time>
      </trkpt>
      <trkpt lat="43.79735" lon="7.25996">
        <ele>463</ele>
        <time>2012-12-30T13:38:18Z</time>
      </trkpt>
      <trkpt lat="43.79723" lon="7.25965">
        <ele>464</ele>
        <time>2012-12-30T13:38:28Z</time>
      </trkpt>
      <trkpt lat="43.79711" lon="7.25936">
        <ele>464</ele>
        <time>2012-12-30T13:38:37Z</time>
      </trkpt>
      <trkpt lat="43.7971" lon="7.25933">
        <ele>464</ele>
        <time>2012-12-30T13:38:38Z</time>
      </trkpt>
      <trkpt lat="43.79704" lon="7.25899">
        <ele>464.20001220703</ele>
        <time>2012-12-30T13:38:48Z</time>
      </trkpt>
      <trkpt lat="43.79705" lon="7.2587">
        <ele>465</ele>
        <time>2012-12-30T13:38:56Z</time>
      </trkpt>
      <trkpt lat="43.79708" lon="7.25842">
        <ele>467</ele>
        <time>2012-12-30T13:39:04Z</time>
      </trkpt>
      <trkpt lat="43.79708" lon="7.25839">
        <ele>467.20001220703</ele>
        <time>2012-12-30T13:39:05Z</time>
      </trkpt>
      <trkpt lat="43.79714" lon="7.25821">
        <ele>469.20001220703</ele>
        <time>2012-12-30T13:39:11Z</time>
      </trkpt>
      <trkpt lat="43.79721" lon="7.25796">
        <ele>471.79998779297</ele>
        <time>2012-12-30T13:39:19Z</time>
      </trkpt>
      <trkpt lat="43.79724" lon="7.25789">
        <ele>472.60000610352</ele>
        <time>2012-12-30T13:39:21Z</time>
      </trkpt>
      <trkpt lat="43.79728" lon="7.25775">
        <ele>474.39999389648</ele>
        <time>2012-12-30T13:39:25Z</time>
      </trkpt>
      <trkpt lat="43.79734" lon="7.25752">
        <ele>477</ele>
        <time>2012-12-30T13:39:31Z</time>
      </trkpt>
      <trkpt lat="43.79742" lon="7.25722">
        <ele>480.20001220703</ele>
        <time>2012-12-30T13:39:38Z</time>
      </trkpt>
      <trkpt lat="43.79745" lon="7.2569">
        <ele>480.60000610352</ele>
        <time>2012-12-30T13:39:45Z</time>
      </trkpt>
      <trkpt lat="43.79749" lon="7.25666">
        <ele>480.79998779297</ele>
        <time>2012-12-30T13:39:51Z</time>
      </trkpt>
      <trkpt lat="43.79742" lon="7.25639">
        <ele>483.79998779297</ele>
        <time>2012-12-30T13:39:57Z</time>
      </trkpt>
      <trkpt lat="43.79728" lon="7.25611">
        <ele>488.20001220703</ele>
        <time>2012-12-30T13:40:05Z</time>
      </trkpt>
      <trkpt lat="43.79715" lon="7.25602">
        <ele>490.60000610352</ele>
        <time>2012-12-30T13:40:11Z</time>
      </trkpt>
      <trkpt lat="43.79696" lon="7.25599">
        <ele>492.60000610352</ele>
        <time>2012-12-30T13:40:18Z</time>
      </trkpt>
      <trkpt lat="43.79677" lon="7.25609">
        <ele>490.39999389648</ele>
        <time>2012-12-30T13:40:25Z</time>
      </trkpt>
      <trkpt lat="43.79657" lon="7.25625">
        <ele>484.60000610352</ele>
        <time>2012-12-30T13:40:33Z</time>
      </trkpt>
      <trkpt lat="43.79649" lon="7.25631">
        <ele>482.60000610352</ele>
        <time>2012-12-30T13:40:36Z</time>
      </trkpt>
      <trkpt lat="43.79638" lon="7.25637">
        <ele>480.39999389648</ele>
        <time>2012-12-30T13:40:40Z</time>
      </trkpt>
      <trkpt lat="43.79612" lon="7.25653">
        <ele>476</ele>
        <time>2012-12-30T13:40:49Z</time>
      </trkpt>
      <trkpt lat="43.79588" lon="7.25653">
        <ele>476.79998779297</ele>
        <time>2012-12-30T13:40:56Z</time>
      </trkpt>
      <trkpt lat="43.79573" lon="7.25642">
        <ele>477.20001220703</ele>
        <time>2012-12-30T13:41:02Z</time>
      </trkpt>
      <trkpt lat="43.79563" lon="7.25628">
        <ele>478.20001220703</ele>
        <time>2012-12-30T13:41:07Z</time>
      </trkpt>
      <trkpt lat="43.79562" lon="7.25624">
        <ele>478.79998779297</ele>
        <time>2012-12-30T13:41:08Z</time>
      </trkpt>
      <trkpt lat="43.79549" lon="7.25589">
        <ele>486</ele>
        <time>2012-12-30T13:41:17Z</time>
      </trkpt>
      <trkpt lat="43.79537" lon="7.25555">
        <ele>489.39999389648</ele>
        <time>2012-12-30T13:41:26Z</time>
      </trkpt>
      <trkpt lat="43.79523" lon="7.2553">
        <ele>491.60000610352</ele>
        <time>2012-12-30T13:41:33Z</time>
      </trkpt>
      <trkpt lat="43.79502" lon="7.25521">
        <ele>489.39999389648</ele>
        <time>2012-12-30T13:41:39Z</time>
      </trkpt>
      <trkpt lat="43.79486" lon="7.25526">
        <ele>489</ele>
        <time>2012-12-30T13:41:44Z</time>
      </trkpt>
      <trkpt lat="43.79474" lon="7.25532">
        <ele>488.20001220703</ele>
        <time>2012-12-30T13:41:48Z</time>
      </trkpt>
      <trkpt lat="43.79463" lon="7.25538">
        <ele>487</ele>
        <time>2012-12-30T13:41:52Z</time>
      </trkpt>
      <trkpt lat="43.79434" lon="7.25544">
        <ele>486.39999389648</ele>
        <time>2012-12-30T13:42:02Z</time>
      </trkpt>
      <trkpt lat="43.79414" lon="7.25539">
        <ele>489.20001220703</ele>
        <time>2012-12-30T13:42:08Z</time>
      </trkpt>
      <trkpt lat="43.79391" lon="7.25524">
        <ele>489.60000610352</ele>
        <time>2012-12-30T13:42:16Z</time>
      </trkpt>
      <trkpt lat="43.79366" lon="7.25509">
        <ele>489.79998779297</ele>
        <time>2012-12-30T13:42:24Z</time>
      </trkpt>
      <trkpt lat="43.79344" lon="7.25494">
        <ele>489.20001220703</ele>
        <time>2012-12-30T13:42:31Z</time>
      </trkpt>
      <trkpt lat="43.79323" lon="7.25474">
        <ele>487.79998779297</ele>
        <time>2012-12-30T13:42:38Z</time>
      </trkpt>
      <trkpt lat="43.79313" lon="7.25448">
        <ele>490.39999389648</ele>
        <time>2012-12-30T13:42:45Z</time>
      </trkpt>
      <trkpt lat="43.79311" lon="7.25423">
        <ele>495.39999389648</ele>
        <time>2012-12-30T13:42:51Z</time>
      </trkpt>
      <trkpt lat="43.79311" lon="7.25384">
        <ele>501.39999389648</ele>
        <time>2012-12-30T13:42:59Z</time>
      </trkpt>
      <trkpt lat="43.79307" lon="7.2534">
        <ele>506.39999389648</ele>
        <time>2012-12-30T13:43:08Z</time>
      </trkpt>
      <trkpt lat="43.79293" lon="7.25315">
        <ele>508</ele>
        <time>2012-12-30T13:43:14Z</time>
      </trkpt>
      <trkpt lat="43.79274" lon="7.25303">
        <ele>507.79998779297</ele>
        <time>2012-12-30T13:43:20Z</time>
      </trkpt>
      <trkpt lat="43.79255" lon="7.25303">
        <ele>504.60000610352</ele>
        <time>2012-12-30T13:43:26Z</time>
      </trkpt>
      <trkpt lat="43.79236" lon="7.25312">
        <ele>504.20001220703</ele>
        <time>2012-12-30T13:43:32Z</time>
      </trkpt>
      <trkpt lat="43.79208" lon="7.25324">
        <ele>506</ele>
        <time>2012-12-30T13:43:41Z</time>
      </trkpt>
      <trkpt lat="43.79172" lon="7.25339">
        <ele>507.39999389648</ele>
        <time>2012-12-30T13:43:52Z</time>
      </trkpt>
      <trkpt lat="43.79145" lon="7.25349">
        <ele>510.39999389648</ele>
        <time>2012-12-30T13:44:00Z</time>
      </trkpt>
      <trkpt lat="43.79111" lon="7.25356">
        <ele>515.40002441406</ele>
        <time>2012-12-30T13:44:10Z</time>
      </trkpt>
      <trkpt lat="43.79075" lon="7.25356">
        <ele>521.40002441406</ele>
        <time>2012-12-30T13:44:20Z</time>
      </trkpt>
      <trkpt lat="43.79036" lon="7.25354">
        <ele>519.79998779297</ele>
        <time>2012-12-30T13:44:31Z</time>
      </trkpt>
      <trkpt lat="43.79005" lon="7.25349">
        <ele>520.20001220703</ele>
        <time>2012-12-30T13:44:40Z</time>
      </trkpt>
      <trkpt lat="43.78974" lon="7.25343">
        <ele>513.79998779297</ele>
        <time>2012-12-30T13:44:49Z</time>
      </trkpt>
      <trkpt lat="43.78956" lon="7.2533">
        <ele>512</ele>
        <time>2012-12-30T13:44:55Z</time>
      </trkpt>
      <trkpt lat="43.78939" lon="7.25307">
        <ele>511.79998779297</ele>
        <time>2012-12-30T13:45:02Z</time>
      </trkpt>
      <trkpt lat="43.78923" lon="7.25277">
        <ele>513</ele>
        <time>2012-12-30T13:45:10Z</time>
      </trkpt>
      <trkpt lat="43.78907" lon="7.25252">
        <ele>515.40002441406</ele>
        <time>2012-12-30T13:45:17Z</time>
      </trkpt>
      <trkpt lat="43.78883" lon="7.25237">
        <ele>517.59997558594</ele>
        <time>2012-12-30T13:45:24Z</time>
      </trkpt>
      <trkpt lat="43.78857" lon="7.25236">
        <ele>515.59997558594</ele>
        <time>2012-12-30T13:45:31Z</time>
      </trkpt>
      <trkpt lat="43.78835" lon="7.25231">
        <ele>515.59997558594</ele>
        <time>2012-12-30T13:45:38Z</time>
      </trkpt>
      <trkpt lat="43.78807" lon="7.25212">
        <ele>524</ele>
        <time>2012-12-30T13:45:46Z</time>
      </trkpt>
      <trkpt lat="43.78781" lon="7.25202">
        <ele>528.40002441406</ele>
        <time>2012-12-30T13:45:53Z</time>
      </trkpt>
      <trkpt lat="43.78764" lon="7.25206">
        <ele>527.40002441406</ele>
        <time>2012-12-30T13:45:58Z</time>
      </trkpt>
      <trkpt lat="43.78742" lon="7.25221">
        <ele>523.40002441406</ele>
        <time>2012-12-30T13:46:05Z</time>
      </trkpt>
      <trkpt lat="43.78718" lon="7.25238">
        <ele>520.79998779297</ele>
        <time>2012-12-30T13:46:13Z</time>
      </trkpt>
      <trkpt lat="43.78715" lon="7.2524">
        <ele>520.59997558594</ele>
        <time>2012-12-30T13:46:14Z</time>
      </trkpt>
      <trkpt lat="43.78691" lon="7.25246">
        <ele>522.20001220703</ele>
        <time>2012-12-30T13:46:21Z</time>
      </trkpt>
      <trkpt lat="43.78662" lon="7.25248">
        <ele>525.79998779297</ele>
        <time>2012-12-30T13:46:29Z</time>
      </trkpt>
      <trkpt lat="43.7863" lon="7.25243">
        <ele>527.40002441406</ele>
        <time>2012-12-30T13:46:38Z</time>
      </trkpt>
      <trkpt lat="43.78605" lon="7.25244">
        <ele>527</ele>
        <time>2012-12-30T13:46:45Z</time>
      </trkpt>
      <trkpt lat="43.78598" lon="7.25245">
        <ele>526.59997558594</ele>
        <time>2012-12-30T13:46:47Z</time>
      </trkpt>
      <trkpt lat="43.78564" lon="7.25248">
        <ele>527.59997558594</ele>
        <time>2012-12-30T13:46:56Z</time>
      </trkpt>
      <trkpt lat="43.78535" lon="7.25251">
        <ele>529</ele>
        <time>2012-12-30T13:47:04Z</time>
      </trkpt>
      <trkpt lat="43.7851" lon="7.25255">
        <ele>529.79998779297</ele>
        <time>2012-12-30T13:47:11Z</time>
      </trkpt>
      <trkpt lat="43.78481" lon="7.2526">
        <ele>531.40002441406</ele>
        <time>2012-12-30T13:47:19Z</time>
      </trkpt>
      <trkpt lat="43.78471" lon="7.25262">
        <ele>532</ele>
        <time>2012-12-30T13:47:22Z</time>
      </trkpt>
      <trkpt lat="43.7845" lon="7.25268">
        <ele>532.59997558594</ele>
        <time>2012-12-30T13:47:28Z</time>
      </trkpt>
      <trkpt lat="43.78423" lon="7.25278">
        <ele>532</ele>
        <time>2012-12-30T13:47:36Z</time>
      </trkpt>
      <trkpt lat="43.78412" lon="7.25283">
        <ele>531.20001220703</ele>
        <time>2012-12-30T13:47:39Z</time>
      </trkpt>
      <trkpt lat="43.78394" lon="7.2529">
        <ele>531</ele>
        <time>2012-12-30T13:47:44Z</time>
      </trkpt>
      <trkpt lat="43.78359" lon="7.25309">
        <ele>532</ele>
        <time>2012-12-30T13:47:54Z</time>
      </trkpt>
      <trkpt lat="43.78355" lon="7.25311">
        <ele>532.20001220703</ele>
        <time>2012-12-30T13:47:55Z</time>
      </trkpt>
      <trkpt lat="43.78349" lon="7.25315">
        <ele>532.59997558594</ele>
        <time>2012-12-30T13:47:57Z</time>
      </trkpt>
      <trkpt lat="43.7832" lon="7.2534">
        <ele>531.59997558594</ele>
        <time>2012-12-30T13:48:06Z</time>
      </trkpt>
      <trkpt lat="43.78293" lon="7.25359">
        <ele>527.40002441406</ele>
        <time>2012-12-30T13:48:15Z</time>
      </trkpt>
      <trkpt lat="43.78273" lon="7.25372">
        <ele>526</ele>
        <time>2012-12-30T13:48:22Z</time>
      </trkpt>
      <trkpt lat="43.78267" lon="7.25375">
        <ele>526</ele>
        <time>2012-12-30T13:48:24Z</time>
      </trkpt>
      <trkpt lat="43.78242" lon="7.2538">
        <ele>527</ele>
        <time>2012-12-30T13:48:31Z</time>
      </trkpt>
      <trkpt lat="43.78226" lon="7.25368">
        <ele>528.79998779297</ele>
        <time>2012-12-30T13:48:36Z</time>
      </trkpt>
      <trkpt lat="43.78214" lon="7.25346">
        <ele>532.20001220703</ele>
        <time>2012-12-30T13:48:42Z</time>
      </trkpt>
      <trkpt lat="43.78204" lon="7.25311">
        <ele>534.40002441406</ele>
        <time>2012-12-30T13:48:50Z</time>
      </trkpt>
      <trkpt lat="43.782" lon="7.25288">
        <ele>535</ele>
        <time>2012-12-30T13:48:57Z</time>
      </trkpt>
      <trkpt lat="43.78201" lon="7.25283">
        <ele>535.40002441406</ele>
        <time>2012-12-30T13:49:00Z</time>
      </trkpt>
      <trkpt lat="43.78198" lon="7.2528">
        <ele>535.20001220703</ele>
        <time>2012-12-30T13:49:02Z</time>
      </trkpt>
      <trkpt lat="43.78197" lon="7.2528">
        <ele>535</ele>
        <time>2012-12-30T13:49:03Z</time>
      </trkpt>
      <trkpt lat="43.78196" lon="7.25279">
        <ele>535</ele>
        <time>2012-12-30T13:49:08Z</time>
      </trkpt>
      <trkpt lat="43.78196" lon="7.25279">
        <ele>535</ele>
        <time>2012-12-30T13:49:13Z</time>
      </trkpt>
      <trkpt lat="43.78196" lon="7.25279">
        <ele>535</ele>
        <time>2012-12-30T13:49:14Z</time>
      </trkpt>
      <trkpt lat="43.78196" lon="7.25278">
        <ele>535</ele>
        <time>2012-12-30T13:49:16Z</time>
      </trkpt>
      <trkpt lat="43.78195" lon="7.25277">
        <ele>535</ele>
        <time>2012-12-30T13:49:24Z</time>
      </trkpt>
      <trkpt lat="43.78195" lon="7.25277">
        <ele>535</ele>
        <time>2012-12-30T13:49:26Z</time>
      </trkpt>
      <trkpt lat="43.78194" lon="7.25277">
        <ele>535</ele>
        <time>2012-12-30T13:49:32Z</time>
      </trkpt>
      <trkpt lat="43.78194" lon="7.25277">
        <ele>535</ele>
        <time>2012-12-30T13:49:33Z</time>
      </trkpt>
      <trkpt lat="43.78194" lon="7.25279">
        <ele>534.79998779297</ele>
        <time>2012-12-30T13:49:39Z</time>
      </trkpt>
      <trkpt lat="43.78194" lon="7.25279">
        <ele>534.79998779297</ele>
        <time>2012-12-30T13:49:40Z</time>
      </trkpt>
      <trkpt lat="43.78194" lon="7.25281">
        <ele>534.59997558594</ele>
        <time>2012-12-30T13:49:43Z</time>
      </trkpt>
      <trkpt lat="43.78194" lon="7.25281">
        <ele>534.59997558594</ele>
        <time>2012-12-30T13:49:46Z</time>
      </trkpt>
      <trkpt lat="43.78195" lon="7.25283">
        <ele>534.59997558594</ele>
        <time>2012-12-30T13:49:53Z</time>
      </trkpt>
      <trkpt lat="43.78195" lon="7.25283">
        <ele>534.59997558594</ele>
        <time>2012-12-30T13:49:56Z</time>
      </trkpt>
      <trkpt lat="43.78195" lon="7.25284">
        <ele>534.59997558594</ele>
        <time>2012-12-30T13:50:06Z</time>
      </trkpt>
      <trkpt lat="43.78195" lon="7.25283">
        <ele>534.59997558594</ele>
        <time>2012-12-30T13:50:07Z</time>
      </trkpt>
      <trkpt lat="43.78196" lon="7.25283">
        <ele>534.79998779297</ele>
        <time>2012-12-30T13:50:10Z</time>
      </trkpt>
      <trkpt lat="43.78196" lon="7.25284">
        <ele>534.79998779297</ele>
        <time>2012-12-30T13:50:11Z</time>
      </trkpt>
      <trkpt lat="43.78196" lon="7.25284">
        <ele>534.79998779297</ele>
        <time>2012-12-30T13:50:13Z</time>
      </trkpt>
      <trkpt lat="43.78196" lon="7.25284">
        <ele>534.59997558594</ele>
        <time>2012-12-30T13:50:15Z</time>
      </trkpt>
      <trkpt lat="43.78195" lon="7.25287">
        <ele>534.40002441406</ele>
        <time>2012-12-30T13:50:34Z</time>
      </trkpt>
      <trkpt lat="43.78196" lon="7.25287">
        <ele>534.59997558594</ele>
        <time>2012-12-30T13:50:40Z</time>
      </trkpt>
      <trkpt lat="43.78197" lon="7.25285">
        <ele>534.79998779297</ele>
        <time>2012-12-30T13:50:51Z</time>
      </trkpt>
      <trkpt lat="43.78197" lon="7.25285">
        <ele>534.79998779297</ele>
        <time>2012-12-30T13:50:55Z</time>
      </trkpt>
      <trkpt lat="43.78197" lon="7.25285">
        <ele>534.79998779297</ele>
        <time>2012-12-30T13:50:57Z</time>
      </trkpt>
      <trkpt lat="43.78197" lon="7.25284">
        <ele>535</ele>
        <time>2012-12-30T13:50:59Z</time>
      </trkpt>
      <trkpt lat="43.78196" lon="7.2528">
        <ele>535</ele>
        <time>2012-12-30T13:51:04Z</time>
      </trkpt>
      <trkpt lat="43.78193" lon="7.25278">
        <ele>534.79998779297</ele>
        <time>2012-12-30T13:51:06Z</time>
      </trkpt>
      <trkpt lat="43.78191" lon="7.25277">
        <ele>534.59997558594</ele>
        <time>2012-12-30T13:51:07Z</time>
      </trkpt>
      <trkpt lat="43.7819" lon="7.25276">
        <ele>534.40002441406</ele>
        <time>2012-12-30T13:51:10Z</time>
      </trkpt>
      <trkpt lat="43.78189" lon="7.25276">
        <ele>534.40002441406</ele>
        <time>2012-12-30T13:51:16Z</time>
      </trkpt>
      <trkpt lat="43.78192" lon="7.25275">
        <ele>534.79998779297</ele>
        <time>2012-12-30T13:51:27Z</time>
      </trkpt>
      <trkpt lat="43.78194" lon="7.25273">
        <ele>535.20001220703</ele>
        <time>2012-12-30T13:51:37Z</time>
      </trkpt>
      <trkpt lat="43.78194" lon="7.25273">
        <ele>535.20001220703</ele>
        <time>2012-12-30T13:51:38Z</time>
      </trkpt>
      <trkpt lat="43.78196" lon="7.25272">
        <ele>535.40002441406</ele>
        <time>2012-12-30T13:51:47Z</time>
      </trkpt>
      <trkpt lat="43.78191" lon="7.2527">
        <ele>535</ele>
        <time>2012-12-30T13:51:53Z</time>
      </trkpt>
      <trkpt lat="43.78187" lon="7.25266">
        <ele>534.79998779297</ele>
        <time>2012-12-30T13:51:56Z</time>
      </trkpt>
      <trkpt lat="43.78186" lon="7.25265">
        <ele>534.59997558594</ele>
        <time>2012-12-30T13:51:57Z</time>
      </trkpt>
      <trkpt lat="43.78182" lon="7.25263">
        <ele>534.40002441406</ele>
        <time>2012-12-30T13:51:59Z</time>
      </trkpt>
      <trkpt lat="43.7817" lon="7.25254">
        <ele>533.79998779297</ele>
        <time>2012-12-30T13:52:07Z</time>
      </trkpt>
      <trkpt lat="43.78161" lon="7.25243">
        <ele>537.40002441406</ele>
        <time>2012-12-30T13:52:16Z</time>
      </trkpt>
      <trkpt lat="43.78159" lon="7.25237">
        <ele>538.79998779297</ele>
        <time>2012-12-30T13:52:20Z</time>
      </trkpt>
      <trkpt lat="43.78159" lon="7.25235">
        <ele>539.20001220703</ele>
        <time>2012-12-30T13:52:21Z</time>
      </trkpt>
      <trkpt lat="43.78158" lon="7.25233">
        <ele>539.79998779297</ele>
        <time>2012-12-30T13:52:22Z</time>
      </trkpt>
      <trkpt lat="43.78157" lon="7.25232">
        <ele>540.40002441406</ele>
        <time>2012-12-30T13:52:23Z</time>
      </trkpt>
      <trkpt lat="43.78157" lon="7.2523">
        <ele>540.79998779297</ele>
        <time>2012-12-30T13:52:24Z</time>
      </trkpt>
      <trkpt lat="43.78156" lon="7.25225">
        <ele>542</ele>
        <time>2012-12-30T13:52:28Z</time>
      </trkpt>
      <trkpt lat="43.78156" lon="7.25225">
        <ele>542.20001220703</ele>
        <time>2012-12-30T13:52:29Z</time>
      </trkpt>
      <trkpt lat="43.78154" lon="7.25226">
        <ele>542.79998779297</ele>
        <time>2012-12-30T13:52:46Z</time>
      </trkpt>
      <trkpt lat="43.78154" lon="7.25227">
        <ele>542.59997558594</ele>
        <time>2012-12-30T13:52:49Z</time>
      </trkpt>
      <trkpt lat="43.78154" lon="7.25226">
        <ele>542.59997558594</ele>
        <time>2012-12-30T13:52:53Z</time>
      </trkpt>
      <trkpt lat="43.78154" lon="7.25226">
        <ele>542.59997558594</ele>
        <time>2012-12-30T13:52:54Z</time>
      </trkpt>
      <trkpt lat="43.78151" lon="7.25225">
        <ele>544</ele>
        <time>2012-12-30T13:53:03Z</time>
      </trkpt>
      <trkpt lat="43.78151" lon="7.25225">
        <ele>544</ele>
        <time>2012-12-30T13:53:04Z</time>
      </trkpt>
      <trkpt lat="43.78152" lon="7.25227">
        <ele>543.20001220703</ele>
        <time>2012-12-30T13:53:18Z</time>
      </trkpt>
      <trkpt lat="43.78153" lon="7.25227">
        <ele>543</ele>
        <time>2012-12-30T13:53:19Z</time>
      </trkpt>
      <trkpt lat="43.78153" lon="7.25228">
        <ele>542.79998779297</ele>
        <time>2012-12-30T13:53:21Z</time>
      </trkpt>
      <trkpt lat="43.78153" lon="7.25228">
        <ele>542.59997558594</ele>
        <time>2012-12-30T13:53:22Z</time>
      </trkpt>
      <trkpt lat="43.78153" lon="7.25228">
        <ele>542.79998779297</ele>
        <time>2012-12-30T13:53:23Z</time>
      </trkpt>
      <trkpt lat="43.78154" lon="7.25227">
        <ele>542.59997558594</ele>
        <time>2012-12-30T13:53:25Z</time>
      </trkpt>
      <trkpt lat="43.78154" lon="7.25227">
        <ele>542.40002441406</ele>
        <time>2012-12-30T13:53:32Z</time>
      </trkpt>
      <trkpt lat="43.78155" lon="7.25226">
        <ele>542.40002441406</ele>
        <time>2012-12-30T13:53:39Z</time>
      </trkpt>
      <trkpt lat="43.78152" lon="7.25225">
        <ele>543.59997558594</ele>
        <time>2012-12-30T13:53:56Z</time>
      </trkpt>
      <trkpt lat="43.78153" lon="7.25224">
        <ele>543.59997558594</ele>
        <time>2012-12-30T13:54:01Z</time>
      </trkpt>
      <trkpt lat="43.78153" lon="7.25224">
        <ele>543.59997558594</ele>
        <time>2012-12-30T13:54:02Z</time>
      </trkpt>
      <trkpt lat="43.78153" lon="7.25224">
        <ele>543.40002441406</ele>
        <time>2012-12-30T13:54:06Z</time>
      </trkpt>
      <trkpt lat="43.78152" lon="7.25224">
        <ele>543.59997558594</ele>
        <time>2012-12-30T13:54:22Z</time>
      </trkpt>
      <trkpt lat="43.78153" lon="7.25223">
        <ele>543.79998779297</ele>
        <time>2012-12-30T13:54:36Z</time>
      </trkpt>
      <trkpt lat="43.78153" lon="7.25226">
        <ele>543.20001220703</ele>
        <time>2012-12-30T13:54:40Z</time>
      </trkpt>
      <trkpt lat="43.78153" lon="7.25224">
        <ele>543.59997558594</ele>
        <time>2012-12-30T13:55:06Z</time>
      </trkpt>
      <trkpt lat="43.78152" lon="7.25225">
        <ele>543.59997558594</ele>
        <time>2012-12-30T13:55:09Z</time>
      </trkpt>
      <trkpt lat="43.78152" lon="7.25225">
        <ele>543.79998779297</ele>
        <time>2012-12-30T13:55:10Z</time>
      </trkpt>
      <trkpt lat="43.78154" lon="7.25227">
        <ele>542.59997558594</ele>
        <time>2012-12-30T13:55:23Z</time>
      </trkpt>
      <trkpt lat="43.78152" lon="7.25227">
        <ele>543.20001220703</ele>
        <time>2012-12-30T13:55:35Z</time>
      </trkpt>
      <trkpt lat="43.78151" lon="7.25227">
        <ele>543.59997558594</ele>
        <time>2012-12-30T13:55:45Z</time>
      </trkpt>
      <trkpt lat="43.78151" lon="7.25228">
        <ele>543.79998779297</ele>
        <time>2012-12-30T13:55:49Z</time>
      </trkpt>
      <trkpt lat="43.78149" lon="7.25229">
        <ele>544.20001220703</ele>
        <time>2012-12-30T13:56:18Z</time>
      </trkpt>
      <trkpt lat="43.78149" lon="7.25229">
        <ele>544.20001220703</ele>
        <time>2012-12-30T13:56:20Z</time>
      </trkpt>
      <trkpt lat="43.78149" lon="7.25229">
        <ele>544.20001220703</ele>
        <time>2012-12-30T13:56:34Z</time>
      </trkpt>
      <trkpt lat="43.78149" lon="7.25229">
        <ele>544.20001220703</ele>
        <time>2012-12-30T13:56:36Z</time>
      </trkpt>
      <trkpt lat="43.78152" lon="7.25226">
        <ele>543.40002441406</ele>
        <time>2012-12-30T13:56:57Z</time>
      </trkpt>
      <trkpt lat="43.78157" lon="7.25222">
        <ele>542</ele>
        <time>2012-12-30T13:57:10Z</time>
      </trkpt>
      <trkpt lat="43.78164" lon="7.25213">
        <ele>540.59997558594</ele>
        <time>2012-12-30T13:57:15Z</time>
      </trkpt>
      <trkpt lat="43.78169" lon="7.25204">
        <ele>540.79998779297</ele>
        <time>2012-12-30T13:57:17Z</time>
      </trkpt>
      <trkpt lat="43.78174" lon="7.25191">
        <ele>542.20001220703</ele>
        <time>2012-12-30T13:57:19Z</time>
      </trkpt>
      <trkpt lat="43.78185" lon="7.25173">
        <ele>542.59997558594</ele>
        <time>2012-12-30T13:57:22Z</time>
      </trkpt>
      <trkpt lat="43.78199" lon="7.25151">
        <ele>541.40002441406</ele>
        <time>2012-12-30T13:57:28Z</time>
      </trkpt>
      <trkpt lat="43.78201" lon="7.25147">
        <ele>541</ele>
        <time>2012-12-30T13:57:29Z</time>
      </trkpt>
      <trkpt lat="43.78217" lon="7.25115">
        <ele>538.40002441406</ele>
        <time>2012-12-30T13:57:35Z</time>
      </trkpt>
      <trkpt lat="43.78224" lon="7.25099">
        <ele>536.20001220703</ele>
        <time>2012-12-30T13:57:39Z</time>
      </trkpt>
      <trkpt lat="43.78224" lon="7.25097">
        <ele>536.40002441406</ele>
        <time>2012-12-30T13:57:41Z</time>
      </trkpt>
      <trkpt lat="43.78223" lon="7.25097">
        <ele>536.59997558594</ele>
        <time>2012-12-30T13:57:43Z</time>
      </trkpt>
      <trkpt lat="43.78222" lon="7.25098">
        <ele>537</ele>
        <time>2012-12-30T13:57:55Z</time>
      </trkpt>
      <trkpt lat="43.7822" lon="7.25096">
        <ele>537.59997558594</ele>
        <time>2012-12-30T13:58:02Z</time>
      </trkpt>
      <trkpt lat="43.78224" lon="7.25089">
        <ele>536.40002441406</ele>
        <time>2012-12-30T13:58:09Z</time>
      </trkpt>
      <trkpt lat="43.78225" lon="7.2508">
        <ele>536.20001220703</ele>
        <time>2012-12-30T13:58:16Z</time>
      </trkpt>
      <trkpt lat="43.78225" lon="7.25075">
        <ele>536.40002441406</ele>
        <time>2012-12-30T13:58:21Z</time>
      </trkpt>
      <trkpt lat="43.78225" lon="7.25074">
        <ele>536.40002441406</ele>
        <time>2012-12-30T13:58:22Z</time>
      </trkpt>
      <trkpt lat="43.78225" lon="7.25071">
        <ele>536.59997558594</ele>
        <time>2012-12-30T13:58:25Z</time>
      </trkpt>
      <trkpt lat="43.78224" lon="7.2507">
        <ele>536.79998779297</ele>
        <time>2012-12-30T13:58:26Z</time>
      </trkpt>
      <trkpt lat="43.78223" lon="7.25067">
        <ele>537.20001220703</ele>
        <time>2012-12-30T13:58:29Z</time>
      </trkpt>
      <trkpt lat="43.78223" lon="7.25066">
        <ele>537.40002441406</ele>
        <time>2012-12-30T13:58:30Z</time>
      </trkpt>
      <trkpt lat="43.78222" lon="7.25064">
        <ele>538</ele>
        <time>2012-12-30T13:58:33Z</time>
      </trkpt>
      <trkpt lat="43.78222" lon="7.25063">
        <ele>538.20001220703</ele>
        <time>2012-12-30T13:58:34Z</time>
      </trkpt>
      <trkpt lat="43.78222" lon="7.25058">
        <ele>538.20001220703</ele>
        <time>2012-12-30T13:58:39Z</time>
      </trkpt>
      <trkpt lat="43.78221" lon="7.25055">
        <ele>538.59997558594</ele>
        <time>2012-12-30T13:58:42Z</time>
      </trkpt>
      <trkpt lat="43.78221" lon="7.25051">
        <ele>538.79998779297</ele>
        <time>2012-12-30T13:58:46Z</time>
      </trkpt>
      <trkpt lat="43.78222" lon="7.25045">
        <ele>538.59997558594</ele>
        <time>2012-12-30T13:58:49Z</time>
      </trkpt>
      <trkpt lat="43.78223" lon="7.25038">
        <ele>538.20001220703</ele>
        <time>2012-12-30T13:58:56Z</time>
      </trkpt>
      <trkpt lat="43.78222" lon="7.25035">
        <ele>538.79998779297</ele>
        <time>2012-12-30T13:59:01Z</time>
      </trkpt>
      <trkpt lat="43.78221" lon="7.25033">
        <ele>539.40002441406</ele>
        <time>2012-12-30T13:59:07Z</time>
      </trkpt>
      <trkpt lat="43.78221" lon="7.25033">
        <ele>539.20001220703</ele>
        <time>2012-12-30T13:59:10Z</time>
      </trkpt>
      <trkpt lat="43.78221" lon="7.25033">
        <ele>539</ele>
        <time>2012-12-30T13:59:13Z</time>
      </trkpt>
      <trkpt lat="43.78221" lon="7.25026">
        <ele>539.40002441406</ele>
        <time>2012-12-30T13:59:17Z</time>
      </trkpt>
      <trkpt lat="43.7822" lon="7.25024">
        <ele>540</ele>
        <time>2012-12-30T13:59:21Z</time>
      </trkpt>
      <trkpt lat="43.78219" lon="7.25023">
        <ele>540.40002441406</ele>
        <time>2012-12-30T13:59:23Z</time>
      </trkpt>
      <trkpt lat="43.78219" lon="7.25021">
        <ele>540.20001220703</ele>
        <time>2012-12-30T13:59:29Z</time>
      </trkpt>
      <trkpt lat="43.78219" lon="7.25021">
        <ele>540.20001220703</ele>
        <time>2012-12-30T13:59:32Z</time>
      </trkpt>
      <trkpt lat="43.78219" lon="7.2502">
        <ele>540.20001220703</ele>
        <time>2012-12-30T13:59:33Z</time>
      </trkpt>
      <trkpt lat="43.78219" lon="7.25019">
        <ele>540.40002441406</ele>
        <time>2012-12-30T13:59:35Z</time>
      </trkpt>
      <trkpt lat="43.78218" lon="7.25016">
        <ele>540.79998779297</ele>
        <time>2012-12-30T13:59:39Z</time>
      </trkpt>
      <trkpt lat="43.78217" lon="7.25014">
        <ele>541.20001220703</ele>
        <time>2012-12-30T13:59:43Z</time>
      </trkpt>
      <trkpt lat="43.78217" lon="7.25014">
        <ele>541.40002441406</ele>
        <time>2012-12-30T13:59:44Z</time>
      </trkpt>
      <trkpt lat="43.78217" lon="7.25013">
        <ele>541.40002441406</ele>
        <time>2012-12-30T13:59:45Z</time>
      </trkpt>
      <trkpt lat="43.78217" lon="7.25014">
        <ele>541.59997558594</ele>
        <time>2012-12-30T13:59:50Z</time>
      </trkpt>
      <trkpt lat="43.78217" lon="7.25008">
        <ele>541.79998779297</ele>
        <time>2012-12-30T13:59:55Z</time>
      </trkpt>
      <trkpt lat="43.78216" lon="7.25002">
        <ele>542.20001220703</ele>
        <time>2012-12-30T13:59:59Z</time>
      </trkpt>
      <trkpt lat="43.78216" lon="7.25">
        <ele>542.40002441406</ele>
        <time>2012-12-30T14:00:00Z</time>
      </trkpt>
      <trkpt lat="43.78215" lon="7.24996">
        <ele>542.40002441406</ele>
        <time>2012-12-30T14:00:03Z</time>
      </trkpt>
      <trkpt lat="43.78215" lon="7.24993">
        <ele>542.59997558594</ele>
        <time>2012-12-30T14:00:06Z</time>
      </trkpt>
      <trkpt lat="43.78214" lon="7.24988">
        <ele>543</ele>
        <time>2012-12-30T14:00:11Z</time>
      </trkpt>
      <trkpt lat="43.78213" lon="7.24984">
        <ele>543</ele>
        <time>2012-12-30T14:00:14Z</time>
      </trkpt>
      <trkpt lat="43.78212" lon="7.24978">
        <ele>543.20001220703</ele>
        <time>2012-12-30T14:00:19Z</time>
      </trkpt>
      <trkpt lat="43.78209" lon="7.24971">
        <ele>543.79998779297</ele>
        <time>2012-12-30T14:00:25Z</time>
      </trkpt>
      <trkpt lat="43.78209" lon="7.2497">
        <ele>544</ele>
        <time>2012-12-30T14:00:28Z</time>
      </trkpt>
      <trkpt lat="43.78208" lon="7.24965">
        <ele>544</ele>
        <time>2012-12-30T14:00:33Z</time>
      </trkpt>
      <trkpt lat="43.78208" lon="7.24963">
        <ele>544</ele>
        <time>2012-12-30T14:00:34Z</time>
      </trkpt>
      <trkpt lat="43.78207" lon="7.24958">
        <ele>544</ele>
        <time>2012-12-30T14:00:37Z</time>
      </trkpt>
      <trkpt lat="43.78206" lon="7.24954">
        <ele>544</ele>
        <time>2012-12-30T14:00:40Z</time>
      </trkpt>
      <trkpt lat="43.78205" lon="7.24952">
        <ele>544.20001220703</ele>
        <time>2012-12-30T14:00:41Z</time>
      </trkpt>
      <trkpt lat="43.78204" lon="7.24946">
        <ele>544.40002441406</ele>
        <time>2012-12-30T14:00:48Z</time>
      </trkpt>
      <trkpt lat="43.782" lon="7.24942">
        <ele>545.59997558594</ele>
        <time>2012-12-30T14:00:55Z</time>
      </trkpt>
      <trkpt lat="43.78197" lon="7.24935">
        <ele>546.40002441406</ele>
        <time>2012-12-30T14:01:02Z</time>
      </trkpt>
      <trkpt lat="43.7819" lon="7.24931">
        <ele>549</ele>
        <time>2012-12-30T14:01:11Z</time>
      </trkpt>
      <trkpt lat="43.78186" lon="7.24927">
        <ele>550.20001220703</ele>
        <time>2012-12-30T14:01:17Z</time>
      </trkpt>
      <trkpt lat="43.78186" lon="7.24926">
        <ele>550.20001220703</ele>
        <time>2012-12-30T14:01:18Z</time>
      </trkpt>
      <trkpt lat="43.78185" lon="7.24924">
        <ele>550.59997558594</ele>
        <time>2012-12-30T14:01:20Z</time>
      </trkpt>
      <trkpt lat="43.78184" lon="7.24922">
        <ele>550.79998779297</ele>
        <time>2012-12-30T14:01:22Z</time>
      </trkpt>
      <trkpt lat="43.78183" lon="7.24921">
        <ele>550.79998779297</ele>
        <time>2012-12-30T14:01:23Z</time>
      </trkpt>
      <trkpt lat="43.78183" lon="7.2492">
        <ele>551</ele>
        <time>2012-12-30T14:01:24Z</time>
      </trkpt>
      <trkpt lat="43.78182" lon="7.24919">
        <ele>551.20001220703</ele>
        <time>2012-12-30T14:01:25Z</time>
      </trkpt>
      <trkpt lat="43.7818" lon="7.24917">
        <ele>551.79998779297</ele>
        <time>2012-12-30T14:01:28Z</time>
      </trkpt>
      <trkpt lat="43.78177" lon="7.24913">
        <ele>552.20001220703</ele>
        <time>2012-12-30T14:01:34Z</time>
      </trkpt>
      <trkpt lat="43.78177" lon="7.24914">
        <ele>552.20001220703</ele>
        <time>2012-12-30T14:01:36Z</time>
      </trkpt>
      <trkpt lat="43.78177" lon="7.24913">
        <ele>552</ele>
        <time>2012-12-30T14:01:39Z</time>
      </trkpt>
      <trkpt lat="43.78177" lon="7.24913">
        <ele>552</ele>
        <time>2012-12-30T14:01:40Z</time>
      </trkpt>
      <trkpt lat="43.78178" lon="7.24913">
        <ele>551.79998779297</ele>
        <time>2012-12-30T14:01:41Z</time>
      </trkpt>
      <trkpt lat="43.78177" lon="7.24912">
        <ele>551.79998779297</ele>
        <time>2012-12-30T14:01:45Z</time>
      </trkpt>
      <trkpt lat="43.78175" lon="7.2491">
        <ele>552.59997558594</ele>
        <time>2012-12-30T14:01:51Z</time>
      </trkpt>
      <trkpt lat="43.78171" lon="7.24906">
        <ele>553.20001220703</ele>
        <time>2012-12-30T14:01:59Z</time>
      </trkpt>
      <trkpt lat="43.78165" lon="7.24901">
        <ele>554.20001220703</ele>
        <time>2012-12-30T14:02:04Z</time>
      </trkpt>
      <trkpt lat="43.78164" lon="7.249">
        <ele>554.40002441406</ele>
        <time>2012-12-30T14:02:05Z</time>
      </trkpt>
      <trkpt lat="43.78162" lon="7.24899">
        <ele>554.79998779297</ele>
        <time>2012-12-30T14:02:06Z</time>
      </trkpt>
      <trkpt lat="43.78161" lon="7.24899">
        <ele>555.20001220703</ele>
        <time>2012-12-30T14:02:07Z</time>
      </trkpt>
      <trkpt lat="43.78153" lon="7.24894">
        <ele>556.79998779297</ele>
        <time>2012-12-30T14:02:13Z</time>
      </trkpt>
      <trkpt lat="43.78151" lon="7.24893">
        <ele>557.20001220703</ele>
        <time>2012-12-30T14:02:14Z</time>
      </trkpt>
      <trkpt lat="43.7815" lon="7.24893">
        <ele>557.40002441406</ele>
        <time>2012-12-30T14:02:15Z</time>
      </trkpt>
      <trkpt lat="43.78144" lon="7.2489">
        <ele>558.59997558594</ele>
        <time>2012-12-30T14:02:20Z</time>
      </trkpt>
      <trkpt lat="43.78142" lon="7.24888">
        <ele>559</ele>
        <time>2012-12-30T14:02:22Z</time>
      </trkpt>
      <trkpt lat="43.78141" lon="7.24887">
        <ele>559.20001220703</ele>
        <time>2012-12-30T14:02:23Z</time>
      </trkpt>
      <trkpt lat="43.78139" lon="7.24884">
        <ele>559.40002441406</ele>
        <time>2012-12-30T14:02:25Z</time>
      </trkpt>
      <trkpt lat="43.78132" lon="7.2488">
        <ele>560.79998779297</ele>
        <time>2012-12-30T14:02:30Z</time>
      </trkpt>
      <trkpt lat="43.7813" lon="7.24879">
        <ele>561.40002441406</ele>
        <time>2012-12-30T14:02:32Z</time>
      </trkpt>
      <trkpt lat="43.78127" lon="7.24878">
        <ele>562</ele>
        <time>2012-12-30T14:02:34Z</time>
      </trkpt>
      <trkpt lat="43.78126" lon="7.24877">
        <ele>562.20001220703</ele>
        <time>2012-12-30T14:02:35Z</time>
      </trkpt>
      <trkpt lat="43.78119" lon="7.24875">
        <ele>564.20001220703</ele>
        <time>2012-12-30T14:02:40Z</time>
      </trkpt>
      <trkpt lat="43.7811" lon="7.24875">
        <ele>567.20001220703</ele>
        <time>2012-12-30T14:02:47Z</time>
      </trkpt>
      <trkpt lat="43.78101" lon="7.24877">
        <ele>570.40002441406</ele>
        <time>2012-12-30T14:02:54Z</time>
      </trkpt>
      <trkpt lat="43.781" lon="7.24876">
        <ele>570.59997558594</ele>
        <time>2012-12-30T14:02:59Z</time>
      </trkpt>
      <trkpt lat="43.78097" lon="7.24875">
        <ele>571.59997558594</ele>
        <time>2012-12-30T14:03:07Z</time>
      </trkpt>
      <trkpt lat="43.78093" lon="7.24877">
        <ele>573.20001220703</ele>
        <time>2012-12-30T14:03:13Z</time>
      </trkpt>
      <trkpt lat="43.78092" lon="7.24877">
        <ele>573.59997558594</ele>
        <time>2012-12-30T14:03:14Z</time>
      </trkpt>
      <trkpt lat="43.78087" lon="7.24879">
        <ele>575.59997558594</ele>
        <time>2012-12-30T14:03:23Z</time>
      </trkpt>
      <trkpt lat="43.78083" lon="7.2488">
        <ele>577.20001220703</ele>
        <time>2012-12-30T14:03:32Z</time>
      </trkpt>
      <trkpt lat="43.78075" lon="7.24878">
        <ele>579</ele>
        <time>2012-12-30T14:03:41Z</time>
      </trkpt>
      <trkpt lat="43.78075" lon="7.24878">
        <ele>579</ele>
        <time>2012-12-30T14:03:42Z</time>
      </trkpt>
      <trkpt lat="43.78074" lon="7.24878">
        <ele>579.20001220703</ele>
        <time>2012-12-30T14:03:43Z</time>
      </trkpt>
      <trkpt lat="43.7807" lon="7.24879">
        <ele>580.59997558594</ele>
        <time>2012-12-30T14:03:49Z</time>
      </trkpt>
      <trkpt lat="43.78068" lon="7.2488">
        <ele>581.20001220703</ele>
        <time>2012-12-30T14:03:51Z</time>
      </trkpt>
      <trkpt lat="43.78061" lon="7.2488">
        <ele>583.59997558594</ele>
        <time>2012-12-30T14:03:59Z</time>
      </trkpt>
      <trkpt lat="43.78058" lon="7.24879">
        <ele>584.20001220703</ele>
        <time>2012-12-30T14:04:04Z</time>
      </trkpt>
      <trkpt lat="43.78057" lon="7.24879">
        <ele>584.20001220703</ele>
        <time>2012-12-30T14:04:06Z</time>
      </trkpt>
      <trkpt lat="43.78053" lon="7.24877">
        <ele>585.20001220703</ele>
        <time>2012-12-30T14:04:11Z</time>
      </trkpt>
      <trkpt lat="43.78052" lon="7.24876">
        <ele>585.40002441406</ele>
        <time>2012-12-30T14:04:12Z</time>
      </trkpt>
      <trkpt lat="43.78046" lon="7.24877">
        <ele>587.20001220703</ele>
        <time>2012-12-30T14:04:20Z</time>
      </trkpt>
      <trkpt lat="43.78041" lon="7.24876">
        <ele>588.40002441406</ele>
        <time>2012-12-30T14:04:27Z</time>
      </trkpt>
      <trkpt lat="43.78034" lon="7.24874">
        <ele>590.20001220703</ele>
        <time>2012-12-30T14:04:36Z</time>
      </trkpt>
      <trkpt lat="43.78033" lon="7.24874">
        <ele>590.59997558594</ele>
        <time>2012-12-30T14:04:37Z</time>
      </trkpt>
      <trkpt lat="43.7803" lon="7.24877">
        <ele>591.79998779297</ele>
        <time>2012-12-30T14:04:43Z</time>
      </trkpt>
      <trkpt lat="43.78025" lon="7.24877">
        <ele>593.40002441406</ele>
        <time>2012-12-30T14:04:49Z</time>
      </trkpt>
      <trkpt lat="43.7802" lon="7.24876">
        <ele>595</ele>
        <time>2012-12-30T14:04:57Z</time>
      </trkpt>
      <trkpt lat="43.78011" lon="7.24876">
        <ele>597.59997558594</ele>
        <time>2012-12-30T14:05:06Z</time>
      </trkpt>
      <trkpt lat="43.78009" lon="7.24874">
        <ele>597.79998779297</ele>
        <time>2012-12-30T14:05:13Z</time>
      </trkpt>
      <trkpt lat="43.78006" lon="7.24874">
        <ele>598.59997558594</ele>
        <time>2012-12-30T14:05:18Z</time>
      </trkpt>
      <trkpt lat="43.78004" lon="7.24874">
        <ele>599</ele>
        <time>2012-12-30T14:05:22Z</time>
      </trkpt>
      <trkpt lat="43.77995" lon="7.24871">
        <ele>601</ele>
        <time>2012-12-30T14:05:28Z</time>
      </trkpt>
      <trkpt lat="43.77988" lon="7.2487">
        <ele>602.40002441406</ele>
        <time>2012-12-30T14:05:32Z</time>
      </trkpt>
      <trkpt lat="43.77985" lon="7.24867">
        <ele>602.79998779297</ele>
        <time>2012-12-30T14:05:35Z</time>
      </trkpt>
      <trkpt lat="43.77984" lon="7.24865">
        <ele>602.59997558594</ele>
        <time>2012-12-30T14:05:36Z</time>
      </trkpt>
      <trkpt lat="43.77983" lon="7.2486">
        <ele>601.79998779297</ele>
        <time>2012-12-30T14:05:39Z</time>
      </trkpt>
      <trkpt lat="43.77983" lon="7.24859">
        <ele>601.59997558594</ele>
        <time>2012-12-30T14:05:40Z</time>
      </trkpt>
      <trkpt lat="43.77983" lon="7.24854">
        <ele>600.59997558594</ele>
        <time>2012-12-30T14:05:46Z</time>
      </trkpt>
      <trkpt lat="43.77982" lon="7.24851">
        <ele>600.40002441406</ele>
        <time>2012-12-30T14:05:51Z</time>
      </trkpt>
      <trkpt lat="43.77983" lon="7.24844">
        <ele>599</ele>
        <time>2012-12-30T14:05:58Z</time>
      </trkpt>
      <trkpt lat="43.77983" lon="7.24843">
        <ele>598.79998779297</ele>
        <time>2012-12-30T14:05:59Z</time>
      </trkpt>
      <trkpt lat="43.7798" lon="7.24837">
        <ele>598.59997558594</ele>
        <time>2012-12-30T14:06:05Z</time>
      </trkpt>
      <trkpt lat="43.77977" lon="7.2483">
        <ele>598.59997558594</ele>
        <time>2012-12-30T14:06:13Z</time>
      </trkpt>
      <trkpt lat="43.77976" lon="7.24825">
        <ele>598.40002441406</ele>
        <time>2012-12-30T14:06:20Z</time>
      </trkpt>
      <trkpt lat="43.77976" lon="7.24819">
        <ele>598</ele>
        <time>2012-12-30T14:06:26Z</time>
      </trkpt>
      <trkpt lat="43.77975" lon="7.24814">
        <ele>597.79998779297</ele>
        <time>2012-12-30T14:06:32Z</time>
      </trkpt>
      <trkpt lat="43.77972" lon="7.24808">
        <ele>598</ele>
        <time>2012-12-30T14:06:39Z</time>
      </trkpt>
      <trkpt lat="43.77971" lon="7.24802">
        <ele>598</ele>
        <time>2012-12-30T14:06:44Z</time>
      </trkpt>
      <trkpt lat="43.7797" lon="7.24801">
        <ele>598.20001220703</ele>
        <time>2012-12-30T14:06:45Z</time>
      </trkpt>
      <trkpt lat="43.77967" lon="7.24795">
        <ele>598.40002441406</ele>
        <time>2012-12-30T14:06:53Z</time>
      </trkpt>
      <trkpt lat="43.77964" lon="7.24792">
        <ele>599</ele>
        <time>2012-12-30T14:07:00Z</time>
      </trkpt>
      <trkpt lat="43.77963" lon="7.24794">
        <ele>599.40002441406</ele>
        <time>2012-12-30T14:07:07Z</time>
      </trkpt>
      <trkpt lat="43.77961" lon="7.24797">
        <ele>600.40002441406</ele>
        <time>2012-12-30T14:07:14Z</time>
      </trkpt>
      <trkpt lat="43.77958" lon="7.24801">
        <ele>601.59997558594</ele>
        <time>2012-12-30T14:07:20Z</time>
      </trkpt>
      <trkpt lat="43.77955" lon="7.24806">
        <ele>602.79998779297</ele>
        <time>2012-12-30T14:07:27Z</time>
      </trkpt>
      <trkpt lat="43.77952" lon="7.24809">
        <ele>604</ele>
        <time>2012-12-30T14:07:32Z</time>
      </trkpt>
      <trkpt lat="43.77949" lon="7.24815">
        <ele>605.59997558594</ele>
        <time>2012-12-30T14:07:40Z</time>
      </trkpt>
      <trkpt lat="43.77945" lon="7.24815">
        <ele>606.79998779297</ele>
        <time>2012-12-30T14:07:46Z</time>
      </trkpt>
      <trkpt lat="43.77941" lon="7.24815">
        <ele>608</ele>
        <time>2012-12-30T14:07:54Z</time>
      </trkpt>
      <trkpt lat="43.77937" lon="7.24819">
        <ele>609.20001220703</ele>
        <time>2012-12-30T14:08:01Z</time>
      </trkpt>
      <trkpt lat="43.77935" lon="7.24814">
        <ele>609.59997558594</ele>
        <time>2012-12-30T14:08:07Z</time>
      </trkpt>
      <trkpt lat="43.77932" lon="7.24808">
        <ele>609.79998779297</ele>
        <time>2012-12-30T14:08:14Z</time>
      </trkpt>
      <trkpt lat="43.77928" lon="7.24804">
        <ele>610.40002441406</ele>
        <time>2012-12-30T14:08:21Z</time>
      </trkpt>
      <trkpt lat="43.77927" lon="7.24805">
        <ele>611</ele>
        <time>2012-12-30T14:08:27Z</time>
      </trkpt>
      <trkpt lat="43.77922" lon="7.24809">
        <ele>612.79998779297</ele>
        <time>2012-12-30T14:08:34Z</time>
      </trkpt>
      <trkpt lat="43.77918" lon="7.24806">
        <ele>613.59997558594</ele>
        <time>2012-12-30T14:08:42Z</time>
      </trkpt>
      <trkpt lat="43.77915" lon="7.248">
        <ele>613.59997558594</ele>
        <time>2012-12-30T14:08:49Z</time>
      </trkpt>
      <trkpt lat="43.77913" lon="7.24796">
        <ele>613.40002441406</ele>
        <time>2012-12-30T14:08:55Z</time>
      </trkpt>
      <trkpt lat="43.77911" lon="7.24799">
        <ele>614.20001220703</ele>
        <time>2012-12-30T14:09:00Z</time>
      </trkpt>
      <trkpt lat="43.7791" lon="7.24798">
        <ele>614.20001220703</ele>
        <time>2012-12-30T14:09:04Z</time>
      </trkpt>
      <trkpt lat="43.77907" lon="7.24803">
        <ele>615.20001220703</ele>
        <time>2012-12-30T14:09:11Z</time>
      </trkpt>
      <trkpt lat="43.77904" lon="7.24805">
        <ele>616</ele>
        <time>2012-12-30T14:09:16Z</time>
      </trkpt>
      <trkpt lat="43.77902" lon="7.24807">
        <ele>616.59997558594</ele>
        <time>2012-12-30T14:09:20Z</time>
      </trkpt>
      <trkpt lat="43.77901" lon="7.24808">
        <ele>616.79998779297</ele>
        <time>2012-12-30T14:09:21Z</time>
      </trkpt>
      <trkpt lat="43.77896" lon="7.24812">
        <ele>618.20001220703</ele>
        <time>2012-12-30T14:09:29Z</time>
      </trkpt>
      <trkpt lat="43.77893" lon="7.24816">
        <ele>619.59997558594</ele>
        <time>2012-12-30T14:09:37Z</time>
      </trkpt>
      <trkpt lat="43.77888" lon="7.24821">
        <ele>621</ele>
        <time>2012-12-30T14:09:46Z</time>
      </trkpt>
      <trkpt lat="43.77884" lon="7.24825">
        <ele>622.79998779297</ele>
        <time>2012-12-30T14:09:55Z</time>
      </trkpt>
      <trkpt lat="43.77878" lon="7.24829">
        <ele>624.40002441406</ele>
        <time>2012-12-30T14:10:02Z</time>
      </trkpt>
      <trkpt lat="43.77874" lon="7.24833">
        <ele>626.20001220703</ele>
        <time>2012-12-30T14:10:10Z</time>
      </trkpt>
      <trkpt lat="43.77873" lon="7.24833">
        <ele>626.40002441406</ele>
        <time>2012-12-30T14:10:11Z</time>
      </trkpt>
      <trkpt lat="43.77868" lon="7.24834">
        <ele>627.59997558594</ele>
        <time>2012-12-30T14:10:19Z</time>
      </trkpt>
      <trkpt lat="43.77864" lon="7.24836">
        <ele>628.59997558594</ele>
        <time>2012-12-30T14:10:26Z</time>
      </trkpt>
      <trkpt lat="43.7786" lon="7.24839">
        <ele>630</ele>
        <time>2012-12-30T14:10:33Z</time>
      </trkpt>
      <trkpt lat="43.77854" lon="7.24843">
        <ele>632</ele>
        <time>2012-12-30T14:10:41Z</time>
      </trkpt>
      <trkpt lat="43.77852" lon="7.24846">
        <ele>632.79998779297</ele>
        <time>2012-12-30T14:10:45Z</time>
      </trkpt>
      <trkpt lat="43.7785" lon="7.24849">
        <ele>633.59997558594</ele>
        <time>2012-12-30T14:10:48Z</time>
      </trkpt>
      <trkpt lat="43.77848" lon="7.24851">
        <ele>634.40002441406</ele>
        <time>2012-12-30T14:10:50Z</time>
      </trkpt>
      <trkpt lat="43.77844" lon="7.24854">
        <ele>635.79998779297</ele>
        <time>2012-12-30T14:10:55Z</time>
      </trkpt>
      <trkpt lat="43.77839" lon="7.24856">
        <ele>637.20001220703</ele>
        <time>2012-12-30T14:11:03Z</time>
      </trkpt>
      <trkpt lat="43.77835" lon="7.24857">
        <ele>638.40002441406</ele>
        <time>2012-12-30T14:11:10Z</time>
      </trkpt>
      <trkpt lat="43.77831" lon="7.24859">
        <ele>639.40002441406</ele>
        <time>2012-12-30T14:11:18Z</time>
      </trkpt>
      <trkpt lat="43.77826" lon="7.24862">
        <ele>640</ele>
        <time>2012-12-30T14:11:25Z</time>
      </trkpt>
      <trkpt lat="43.77819" lon="7.24867">
        <ele>641.40002441406</ele>
        <time>2012-12-30T14:11:36Z</time>
      </trkpt>
      <trkpt lat="43.77815" lon="7.24871">
        <ele>642.40002441406</ele>
        <time>2012-12-30T14:11:44Z</time>
      </trkpt>
      <trkpt lat="43.7781" lon="7.24871">
        <ele>642.79998779297</ele>
        <time>2012-12-30T14:11:51Z</time>
      </trkpt>
      <trkpt lat="43.77804" lon="7.24869">
        <ele>642.79998779297</ele>
        <time>2012-12-30T14:11:59Z</time>
      </trkpt>
      <trkpt lat="43.77798" lon="7.24867">
        <ele>642.79998779297</ele>
        <time>2012-12-30T14:12:06Z</time>
      </trkpt>
      <trkpt lat="43.77797" lon="7.24867">
        <ele>642.79998779297</ele>
        <time>2012-12-30T14:12:07Z</time>
      </trkpt>
      <trkpt lat="43.77792" lon="7.24868">
        <ele>643.20001220703</ele>
        <time>2012-12-30T14:12:14Z</time>
      </trkpt>
      <trkpt lat="43.77791" lon="7.2487">
        <ele>643.79998779297</ele>
        <time>2012-12-30T14:12:20Z</time>
      </trkpt>
      <trkpt lat="43.77789" lon="7.24874">
        <ele>644.79998779297</ele>
        <time>2012-12-30T14:12:26Z</time>
      </trkpt>
      <trkpt lat="43.77783" lon="7.24878">
        <ele>646.20001220703</ele>
        <time>2012-12-30T14:12:32Z</time>
      </trkpt>
      <trkpt lat="43.77782" lon="7.24878">
        <ele>646.40002441406</ele>
        <time>2012-12-30T14:12:33Z</time>
      </trkpt>
      <trkpt lat="43.77776" lon="7.24883">
        <ele>648.20001220703</ele>
        <time>2012-12-30T14:12:40Z</time>
      </trkpt>
      <trkpt lat="43.77773" lon="7.24889">
        <ele>650</ele>
        <time>2012-12-30T14:12:46Z</time>
      </trkpt>
      <trkpt lat="43.77766" lon="7.24892">
        <ele>651.20001220703</ele>
        <time>2012-12-30T14:12:52Z</time>
      </trkpt>
      <trkpt lat="43.77764" lon="7.24893">
        <ele>651.79998779297</ele>
        <time>2012-12-30T14:12:55Z</time>
      </trkpt>
      <trkpt lat="43.77762" lon="7.24894">
        <ele>652.20001220703</ele>
        <time>2012-12-30T14:12:58Z</time>
      </trkpt>
      <trkpt lat="43.7776" lon="7.24894">
        <ele>652.59997558594</ele>
        <time>2012-12-30T14:13:03Z</time>
      </trkpt>
      <trkpt lat="43.7776" lon="7.24895">
        <ele>652.59997558594</ele>
        <time>2012-12-30T14:13:09Z</time>
      </trkpt>
      <trkpt lat="43.77759" lon="7.24896">
        <ele>652.79998779297</ele>
        <time>2012-12-30T14:13:12Z</time>
      </trkpt>
      <trkpt lat="43.77758" lon="7.24896">
        <ele>653</ele>
        <time>2012-12-30T14:13:17Z</time>
      </trkpt>
      <trkpt lat="43.77758" lon="7.24896">
        <ele>653.20001220703</ele>
        <time>2012-12-30T14:13:19Z</time>
      </trkpt>
      <trkpt lat="43.77756" lon="7.24896">
        <ele>653.20001220703</ele>
        <time>2012-12-30T14:13:40Z</time>
      </trkpt>
      <trkpt lat="43.77756" lon="7.24895">
        <ele>653.20001220703</ele>
        <time>2012-12-30T14:13:49Z</time>
      </trkpt>
      <trkpt lat="43.77756" lon="7.24895">
        <ele>653.20001220703</ele>
        <time>2012-12-30T14:14:03Z</time>
      </trkpt>
      <trkpt lat="43.77756" lon="7.24895">
        <ele>653.20001220703</ele>
        <time>2012-12-30T14:14:11Z</time>
      </trkpt>
      <trkpt lat="43.77755" lon="7.24896">
        <ele>653.20001220703</ele>
        <time>2012-12-30T14:14:41Z</time>
      </trkpt>
      <trkpt lat="43.77755" lon="7.24896">
        <ele>653.40002441406</ele>
        <time>2012-12-30T14:14:51Z</time>
      </trkpt>
      <trkpt lat="43.77755" lon="7.24896">
        <ele>653.40002441406</ele>
        <time>2012-12-30T14:14:53Z</time>
      </trkpt>
      <trkpt lat="43.77755" lon="7.24896">
        <ele>653.40002441406</ele>
        <time>2012-12-30T14:14:54Z</time>
      </trkpt>
      <trkpt lat="43.77755" lon="7.24896">
        <ele>653.40002441406</ele>
        <time>2012-12-30T14:14:55Z</time>
      </trkpt>
      <trkpt lat="43.77756" lon="7.24895">
        <ele>653.20001220703</ele>
        <time>2012-12-30T14:15:05Z</time>
      </trkpt>
      <trkpt lat="43.77756" lon="7.24897">
        <ele>653.59997558594</ele>
        <time>2012-12-30T14:15:19Z</time>
      </trkpt>
      <trkpt lat="43.77756" lon="7.24897">
        <ele>653.59997558594</ele>
        <time>2012-12-30T14:15:20Z</time>
      </trkpt>
      <trkpt lat="43.77757" lon="7.24899">
        <ele>654</ele>
        <time>2012-12-30T14:15:50Z</time>
      </trkpt>
      <trkpt lat="43.77756" lon="7.24899">
        <ele>654</ele>
        <time>2012-12-30T14:16:17Z</time>
      </trkpt>
      <trkpt lat="43.77756" lon="7.24899">
        <ele>654.20001220703</ele>
        <time>2012-12-30T14:16:18Z</time>
      </trkpt>
      <trkpt lat="43.77755" lon="7.24898">
        <ele>654.20001220703</ele>
        <time>2012-12-30T14:16:23Z</time>
      </trkpt>
      <trkpt lat="43.77756" lon="7.24897">
        <ele>653.79998779297</ele>
        <time>2012-12-30T14:16:32Z</time>
      </trkpt>
      <trkpt lat="43.77755" lon="7.24899">
        <ele>654.20001220703</ele>
        <time>2012-12-30T14:16:39Z</time>
      </trkpt>
      <trkpt lat="43.77755" lon="7.24898">
        <ele>654</ele>
        <time>2012-12-30T14:16:41Z</time>
      </trkpt>
      <trkpt lat="43.77755" lon="7.24897">
        <ele>653.59997558594</ele>
        <time>2012-12-30T14:16:45Z</time>
      </trkpt>
      <trkpt lat="43.77755" lon="7.24897">
        <ele>653.59997558594</ele>
        <time>2012-12-30T14:16:46Z</time>
      </trkpt>
      <trkpt lat="43.77755" lon="7.24896">
        <ele>653.40002441406</ele>
        <time>2012-12-30T14:16:53Z</time>
      </trkpt>
      <trkpt lat="43.77754" lon="7.24897">
        <ele>653.79998779297</ele>
        <time>2012-12-30T14:17:00Z</time>
      </trkpt>
      <trkpt lat="43.77754" lon="7.24896">
        <ele>653.40002441406</ele>
        <time>2012-12-30T14:17:17Z</time>
      </trkpt>
      <trkpt lat="43.77757" lon="7.24896">
        <ele>653.20001220703</ele>
        <time>2012-12-30T14:17:26Z</time>
      </trkpt>
      <trkpt lat="43.77757" lon="7.24894">
        <ele>652.79998779297</ele>
        <time>2012-12-30T14:17:35Z</time>
      </trkpt>
      <trkpt lat="43.77757" lon="7.24894">
        <ele>652.79998779297</ele>
        <time>2012-12-30T14:17:36Z</time>
      </trkpt>
      <trkpt lat="43.77754" lon="7.24894">
        <ele>653</ele>
        <time>2012-12-30T14:18:01Z</time>
      </trkpt>
      <trkpt lat="43.77754" lon="7.24894">
        <ele>653</ele>
        <time>2012-12-30T14:18:02Z</time>
      </trkpt>
      <trkpt lat="43.77755" lon="7.24894">
        <ele>653</ele>
        <time>2012-12-30T14:18:11Z</time>
      </trkpt>
      <trkpt lat="43.77754" lon="7.24892">
        <ele>652.40002441406</ele>
        <time>2012-12-30T14:18:40Z</time>
      </trkpt>
      <trkpt lat="43.77754" lon="7.24892">
        <ele>652.40002441406</ele>
        <time>2012-12-30T14:18:41Z</time>
      </trkpt>
      <trkpt lat="43.77756" lon="7.24893">
        <ele>652.59997558594</ele>
        <time>2012-12-30T14:18:53Z</time>
      </trkpt>
      <trkpt lat="43.77756" lon="7.24893">
        <ele>652.59997558594</ele>
        <time>2012-12-30T14:18:54Z</time>
      </trkpt>
      <trkpt lat="43.77756" lon="7.24893">
        <ele>652.59997558594</ele>
        <time>2012-12-30T14:18:55Z</time>
      </trkpt>
      <trkpt lat="43.77756" lon="7.24895">
        <ele>653.20001220703</ele>
        <time>2012-12-30T14:19:13Z</time>
      </trkpt>
      <trkpt lat="43.77756" lon="7.24896">
        <ele>653.20001220703</ele>
        <time>2012-12-30T14:19:15Z</time>
      </trkpt>
      <trkpt lat="43.77757" lon="7.24896">
        <ele>653.20001220703</ele>
        <time>2012-12-30T14:19:37Z</time>
      </trkpt>
      <trkpt lat="43.77756" lon="7.24896">
        <ele>653.20001220703</ele>
        <time>2012-12-30T14:19:40Z</time>
      </trkpt>
      <trkpt lat="43.77755" lon="7.24896">
        <ele>653.40002441406</ele>
        <time>2012-12-30T14:19:41Z</time>
      </trkpt>
      <trkpt lat="43.77756" lon="7.24896">
        <ele>653.40002441406</ele>
        <time>2012-12-30T14:19:44Z</time>
      </trkpt>
      <trkpt lat="43.77756" lon="7.24896">
        <ele>653.40002441406</ele>
        <time>2012-12-30T14:19:45Z</time>
      </trkpt>
      <trkpt lat="43.77755" lon="7.24896">
        <ele>653.40002441406</ele>
        <time>2012-12-30T14:19:46Z</time>
      </trkpt>
      <trkpt lat="43.77756" lon="7.24895">
        <ele>653.20001220703</ele>
        <time>2012-12-30T14:19:53Z</time>
      </trkpt>
      <trkpt lat="43.77756" lon="7.24895">
        <ele>653.20001220703</ele>
        <time>2012-12-30T14:19:54Z</time>
      </trkpt>
      <trkpt lat="43.77756" lon="7.24895">
        <ele>653</ele>
        <time>2012-12-30T14:19:55Z</time>
      </trkpt>
      <trkpt lat="43.77756" lon="7.24895">
        <ele>653</ele>
        <time>2012-12-30T14:19:57Z</time>
      </trkpt>
      <trkpt lat="43.77756" lon="7.24895">
        <ele>653</ele>
        <time>2012-12-30T14:19:58Z</time>
      </trkpt>
      <trkpt lat="43.77756" lon="7.24895">
        <ele>653</ele>
        <time>2012-12-30T14:20:00Z</time>
      </trkpt>
      <trkpt lat="43.77757" lon="7.24894">
        <ele>652.79998779297</ele>
        <time>2012-12-30T14:20:07Z</time>
      </trkpt>
      <trkpt lat="43.77757" lon="7.24894">
        <ele>652.59997558594</ele>
        <time>2012-12-30T14:20:11Z</time>
      </trkpt>
      <trkpt lat="43.77757" lon="7.24894">
        <ele>652.59997558594</ele>
        <time>2012-12-30T14:20:13Z</time>
      </trkpt>
      <trkpt lat="43.77757" lon="7.24894">
        <ele>652.59997558594</ele>
        <time>2012-12-30T14:20:18Z</time>
      </trkpt>
      <trkpt lat="43.77759" lon="7.24894">
        <ele>652.40002441406</ele>
        <time>2012-12-30T14:20:33Z</time>
      </trkpt>
      <trkpt lat="43.7776" lon="7.24895">
        <ele>652.59997558594</ele>
        <time>2012-12-30T14:20:47Z</time>
      </trkpt>
      <trkpt lat="43.7776" lon="7.24896">
        <ele>653</ele>
        <time>2012-12-30T14:21:13Z</time>
      </trkpt>
      <trkpt lat="43.77759" lon="7.24896">
        <ele>653.20001220703</ele>
        <time>2012-12-30T14:21:59Z</time>
      </trkpt>
      <trkpt lat="43.77757" lon="7.24896">
        <ele>653.20001220703</ele>
        <time>2012-12-30T14:22:11Z</time>
      </trkpt>
      <trkpt lat="43.77758" lon="7.24896">
        <ele>653</ele>
        <time>2012-12-30T14:22:13Z</time>
      </trkpt>
      <trkpt lat="43.77757" lon="7.24895">
        <ele>652.79998779297</ele>
        <time>2012-12-30T14:22:17Z</time>
      </trkpt>
      <trkpt lat="43.77758" lon="7.24895">
        <ele>652.79998779297</ele>
        <time>2012-12-30T14:22:52Z</time>
      </trkpt>
      <trkpt lat="43.77758" lon="7.24895">
        <ele>652.79998779297</ele>
        <time>2012-12-30T14:23:11Z</time>
      </trkpt>
      <trkpt lat="43.77758" lon="7.24895">
        <ele>652.59997558594</ele>
        <time>2012-12-30T14:23:24Z</time>
      </trkpt>
      <trkpt lat="43.7776" lon="7.24895">
        <ele>652.59997558594</ele>
        <time>2012-12-30T14:23:32Z</time>
      </trkpt>
      <trkpt lat="43.7776" lon="7.24895">
        <ele>652.59997558594</ele>
        <time>2012-12-30T14:23:42Z</time>
      </trkpt>
      <trkpt lat="43.7776" lon="7.24895">
        <ele>652.79998779297</ele>
        <time>2012-12-30T14:23:46Z</time>
      </trkpt>
      <trkpt lat="43.77752" lon="7.24896">
        <ele>653.79998779297</ele>
        <time>2012-12-30T14:24:06Z</time>
      </trkpt>
      <trkpt lat="43.77744" lon="7.24898">
        <ele>654.59997558594</ele>
        <time>2012-12-30T14:24:10Z</time>
      </trkpt>
      <trkpt lat="43.77742" lon="7.24898">
        <ele>654.59997558594</ele>
        <time>2012-12-30T14:24:11Z</time>
      </trkpt>
      <trkpt lat="43.77737" lon="7.24899">
        <ele>654.79998779297</ele>
        <time>2012-12-30T14:24:14Z</time>
      </trkpt>
      <trkpt lat="43.77721" lon="7.24907">
        <ele>656.79998779297</ele>
        <time>2012-12-30T14:24:21Z</time>
      </trkpt>
      <trkpt lat="43.77704" lon="7.24915">
        <ele>658.20001220703</ele>
        <time>2012-12-30T14:24:26Z</time>
      </trkpt>
      <trkpt lat="43.77701" lon="7.24915">
        <ele>658.40002441406</ele>
        <time>2012-12-30T14:24:27Z</time>
      </trkpt>
      <trkpt lat="43.77698" lon="7.24916">
        <ele>658.40002441406</ele>
        <time>2012-12-30T14:24:28Z</time>
      </trkpt>
      <trkpt lat="43.77692" lon="7.24915">
        <ele>658.20001220703</ele>
        <time>2012-12-30T14:24:30Z</time>
      </trkpt>
      <trkpt lat="43.77687" lon="7.24914">
        <ele>657.79998779297</ele>
        <time>2012-12-30T14:24:32Z</time>
      </trkpt>
      <trkpt lat="43.77682" lon="7.24911">
        <ele>657</ele>
        <time>2012-12-30T14:24:34Z</time>
      </trkpt>
      <trkpt lat="43.77671" lon="7.24902">
        <ele>655</ele>
        <time>2012-12-30T14:24:40Z</time>
      </trkpt>
      <trkpt lat="43.77661" lon="7.24899">
        <ele>654.40002441406</ele>
        <time>2012-12-30T14:24:46Z</time>
      </trkpt>
      <trkpt lat="43.77648" lon="7.24902">
        <ele>655.20001220703</ele>
        <time>2012-12-30T14:24:52Z</time>
      </trkpt>
      <trkpt lat="43.77637" lon="7.24902">
        <ele>655.40002441406</ele>
        <time>2012-12-30T14:24:57Z</time>
      </trkpt>
      <trkpt lat="43.7763" lon="7.24902">
        <ele>655.59997558594</ele>
        <time>2012-12-30T14:25:00Z</time>
      </trkpt>
      <trkpt lat="43.77628" lon="7.24902">
        <ele>655.79998779297</ele>
        <time>2012-12-30T14:25:01Z</time>
      </trkpt>
      <trkpt lat="43.77626" lon="7.24902">
        <ele>655.79998779297</ele>
        <time>2012-12-30T14:25:02Z</time>
      </trkpt>
      <trkpt lat="43.77624" lon="7.24902">
        <ele>656</ele>
        <time>2012-12-30T14:25:03Z</time>
      </trkpt>
      <trkpt lat="43.77623" lon="7.24903">
        <ele>656</ele>
        <time>2012-12-30T14:25:04Z</time>
      </trkpt>
      <trkpt lat="43.77621" lon="7.24903">
        <ele>656</ele>
        <time>2012-12-30T14:25:05Z</time>
      </trkpt>
      <trkpt lat="43.77617" lon="7.24902">
        <ele>656</ele>
        <time>2012-12-30T14:25:07Z</time>
      </trkpt>
      <trkpt lat="43.77613" lon="7.24902">
        <ele>656</ele>
        <time>2012-12-30T14:25:09Z</time>
      </trkpt>
      <trkpt lat="43.77595" lon="7.24906">
        <ele>657.59997558594</ele>
        <time>2012-12-30T14:25:17Z</time>
      </trkpt>
      <trkpt lat="43.77576" lon="7.24912">
        <ele>659</ele>
        <time>2012-12-30T14:25:23Z</time>
      </trkpt>
      <trkpt lat="43.77564" lon="7.24917">
        <ele>659.59997558594</ele>
        <time>2012-12-30T14:25:28Z</time>
      </trkpt>
      <trkpt lat="43.77554" lon="7.2492">
        <ele>660</ele>
        <time>2012-12-30T14:25:32Z</time>
      </trkpt>
      <trkpt lat="43.77545" lon="7.24923">
        <ele>660</ele>
        <time>2012-12-30T14:25:36Z</time>
      </trkpt>
      <trkpt lat="43.77542" lon="7.24924">
        <ele>660.20001220703</ele>
        <time>2012-12-30T14:25:37Z</time>
      </trkpt>
      <trkpt lat="43.77541" lon="7.24924">
        <ele>660.20001220703</ele>
        <time>2012-12-30T14:25:38Z</time>
      </trkpt>
      <trkpt lat="43.77531" lon="7.24926">
        <ele>660</ele>
        <time>2012-12-30T14:25:42Z</time>
      </trkpt>
      <trkpt lat="43.7753" lon="7.24926">
        <ele>660</ele>
        <time>2012-12-30T14:25:43Z</time>
      </trkpt>
      <trkpt lat="43.77513" lon="7.24931">
        <ele>660.40002441406</ele>
        <time>2012-12-30T14:25:50Z</time>
      </trkpt>
      <trkpt lat="43.77504" lon="7.24932">
        <ele>660.20001220703</ele>
        <time>2012-12-30T14:25:54Z</time>
      </trkpt>
      <trkpt lat="43.77502" lon="7.24933">
        <ele>660.20001220703</ele>
        <time>2012-12-30T14:25:55Z</time>
      </trkpt>
      <trkpt lat="43.77498" lon="7.24933">
        <ele>660.20001220703</ele>
        <time>2012-12-30T14:25:57Z</time>
      </trkpt>
      <trkpt lat="43.77482" lon="7.24935">
        <ele>661.20001220703</ele>
        <time>2012-12-30T14:26:03Z</time>
      </trkpt>
      <trkpt lat="43.7747" lon="7.24937">
        <ele>661.79998779297</ele>
        <time>2012-12-30T14:26:08Z</time>
      </trkpt>
      <trkpt lat="43.77463" lon="7.24938">
        <ele>662.20001220703</ele>
        <time>2012-12-30T14:26:11Z</time>
      </trkpt>
      <trkpt lat="43.77457" lon="7.24938">
        <ele>662.20001220703</ele>
        <time>2012-12-30T14:26:14Z</time>
      </trkpt>
      <trkpt lat="43.7745" lon="7.24936">
        <ele>661.59997558594</ele>
        <time>2012-12-30T14:26:17Z</time>
      </trkpt>
      <trkpt lat="43.77448" lon="7.24935">
        <ele>661.40002441406</ele>
        <time>2012-12-30T14:26:18Z</time>
      </trkpt>
      <trkpt lat="43.77445" lon="7.24935">
        <ele>661.20001220703</ele>
        <time>2012-12-30T14:26:19Z</time>
      </trkpt>
      <trkpt lat="43.77439" lon="7.24935">
        <ele>661.20001220703</ele>
        <time>2012-12-30T14:26:22Z</time>
      </trkpt>
      <trkpt lat="43.77429" lon="7.24938">
        <ele>662.40002441406</ele>
        <time>2012-12-30T14:26:27Z</time>
      </trkpt>
      <trkpt lat="43.77415" lon="7.24941">
        <ele>663.59997558594</ele>
        <time>2012-12-30T14:26:34Z</time>
      </trkpt>
      <trkpt lat="43.77412" lon="7.24941">
        <ele>663.79998779297</ele>
        <time>2012-12-30T14:26:40Z</time>
      </trkpt>
      <trkpt lat="43.77407" lon="7.24943">
        <ele>664.40002441406</ele>
        <time>2012-12-30T14:26:45Z</time>
      </trkpt>
      <trkpt lat="43.77404" lon="7.24943">
        <ele>664.40002441406</ele>
        <time>2012-12-30T14:26:51Z</time>
      </trkpt>
      <trkpt lat="43.77404" lon="7.24943">
        <ele>664.40002441406</ele>
        <time>2012-12-30T14:26:52Z</time>
      </trkpt>
      <trkpt lat="43.77402" lon="7.24942">
        <ele>664.40002441406</ele>
        <time>2012-12-30T14:26:55Z</time>
      </trkpt>
      <trkpt lat="43.77392" lon="7.24943">
        <ele>664.79998779297</ele>
        <time>2012-12-30T14:27:01Z</time>
      </trkpt>
      <trkpt lat="43.7738" lon="7.24942">
        <ele>665.20001220703</ele>
        <time>2012-12-30T14:27:07Z</time>
      </trkpt>
      <trkpt lat="43.77377" lon="7.24942">
        <ele>665.40002441406</ele>
        <time>2012-12-30T14:27:09Z</time>
      </trkpt>
      <trkpt lat="43.77372" lon="7.24945">
        <ele>666.20001220703</ele>
        <time>2012-12-30T14:27:12Z</time>
      </trkpt>
      <trkpt lat="43.77372" lon="7.24945">
        <ele>666.40002441406</ele>
        <time>2012-12-30T14:27:14Z</time>
      </trkpt>
      <trkpt lat="43.77368" lon="7.24945">
        <ele>666.40002441406</ele>
        <time>2012-12-30T14:27:20Z</time>
      </trkpt>
      <trkpt lat="43.77364" lon="7.24946">
        <ele>667</ele>
        <time>2012-12-30T14:27:26Z</time>
      </trkpt>
      <trkpt lat="43.77357" lon="7.24949">
        <ele>668</ele>
        <time>2012-12-30T14:27:33Z</time>
      </trkpt>
      <trkpt lat="43.77357" lon="7.24949">
        <ele>668.20001220703</ele>
        <time>2012-12-30T14:27:34Z</time>
      </trkpt>
      <trkpt lat="43.77356" lon="7.24949">
        <ele>668.20001220703</ele>
        <time>2012-12-30T14:27:35Z</time>
      </trkpt>
      <trkpt lat="43.77355" lon="7.2495">
        <ele>668.40002441406</ele>
        <time>2012-12-30T14:27:36Z</time>
      </trkpt>
      <trkpt lat="43.77349" lon="7.24952">
        <ele>669.40002441406</ele>
        <time>2012-12-30T14:27:42Z</time>
      </trkpt>
      <trkpt lat="43.77348" lon="7.24952">
        <ele>669.40002441406</ele>
        <time>2012-12-30T14:27:43Z</time>
      </trkpt>
      <trkpt lat="43.77346" lon="7.24952">
        <ele>669.59997558594</ele>
        <time>2012-12-30T14:27:45Z</time>
      </trkpt>
      <trkpt lat="43.77345" lon="7.24952">
        <ele>669.59997558594</ele>
        <time>2012-12-30T14:27:46Z</time>
      </trkpt>
      <trkpt lat="43.77344" lon="7.24952">
        <ele>669.59997558594</ele>
        <time>2012-12-30T14:27:47Z</time>
      </trkpt>
      <trkpt lat="43.7734" lon="7.24954">
        <ele>670.20001220703</ele>
        <time>2012-12-30T14:27:51Z</time>
      </trkpt>
      <trkpt lat="43.77336" lon="7.24955">
        <ele>670.79998779297</ele>
        <time>2012-12-30T14:27:56Z</time>
      </trkpt>
      <trkpt lat="43.77333" lon="7.24956">
        <ele>671.20001220703</ele>
        <time>2012-12-30T14:28:00Z</time>
      </trkpt>
      <trkpt lat="43.77332" lon="7.24956">
        <ele>671</ele>
        <time>2012-12-30T14:28:06Z</time>
      </trkpt>
      <trkpt lat="43.77329" lon="7.24955">
        <ele>670.59997558594</ele>
        <time>2012-12-30T14:28:11Z</time>
      </trkpt>
      <trkpt lat="43.77328" lon="7.24955">
        <ele>670.79998779297</ele>
        <time>2012-12-30T14:28:13Z</time>
      </trkpt>
      <trkpt lat="43.77328" lon="7.24955">
        <ele>671</ele>
        <time>2012-12-30T14:28:14Z</time>
      </trkpt>
      <trkpt lat="43.77328" lon="7.24956">
        <ele>671</ele>
        <time>2012-12-30T14:28:15Z</time>
      </trkpt>
      <trkpt lat="43.77326" lon="7.24956">
        <ele>671.20001220703</ele>
        <time>2012-12-30T14:28:17Z</time>
      </trkpt>
      <trkpt lat="43.77324" lon="7.24957">
        <ele>671.20001220703</ele>
        <time>2012-12-30T14:28:20Z</time>
      </trkpt>
      <trkpt lat="43.77324" lon="7.24957">
        <ele>671.40002441406</ele>
        <time>2012-12-30T14:28:21Z</time>
      </trkpt>
      <trkpt lat="43.7732" lon="7.24957">
        <ele>671.20001220703</ele>
        <time>2012-12-30T14:28:23Z</time>
      </trkpt>
      <trkpt lat="43.77317" lon="7.24957">
        <ele>671.40002441406</ele>
        <time>2012-12-30T14:28:25Z</time>
      </trkpt>
      <trkpt lat="43.77311" lon="7.2496">
        <ele>672.20001220703</ele>
        <time>2012-12-30T14:28:30Z</time>
      </trkpt>
      <trkpt lat="43.77309" lon="7.2496">
        <ele>672.20001220703</ele>
        <time>2012-12-30T14:28:32Z</time>
      </trkpt>
      <trkpt lat="43.77307" lon="7.2496">
        <ele>672.20001220703</ele>
        <time>2012-12-30T14:28:35Z</time>
      </trkpt>
      <trkpt lat="43.77306" lon="7.2496">
        <ele>672.20001220703</ele>
        <time>2012-12-30T14:28:37Z</time>
      </trkpt>
      <trkpt lat="43.77304" lon="7.24961">
        <ele>672.40002441406</ele>
        <time>2012-12-30T14:28:39Z</time>
      </trkpt>
      <trkpt lat="43.77303" lon="7.24962">
        <ele>672.79998779297</ele>
        <time>2012-12-30T14:28:40Z</time>
      </trkpt>
      <trkpt lat="43.77298" lon="7.24964">
        <ele>673.40002441406</ele>
        <time>2012-12-30T14:28:46Z</time>
      </trkpt>
      <trkpt lat="43.77296" lon="7.24964">
        <ele>673.40002441406</ele>
        <time>2012-12-30T14:28:53Z</time>
      </trkpt>
      <trkpt lat="43.77285" lon="7.24965">
        <ele>673.59997558594</ele>
        <time>2012-12-30T14:28:59Z</time>
      </trkpt>
      <trkpt lat="43.77266" lon="7.24966">
        <ele>674</ele>
        <time>2012-12-30T14:29:06Z</time>
      </trkpt>
      <trkpt lat="43.77245" lon="7.2497">
        <ele>675.20001220703</ele>
        <time>2012-12-30T14:29:14Z</time>
      </trkpt>
      <trkpt lat="43.77243" lon="7.24971">
        <ele>675.40002441406</ele>
        <time>2012-12-30T14:29:15Z</time>
      </trkpt>
      <trkpt lat="43.77229" lon="7.24974">
        <ele>676.40002441406</ele>
        <time>2012-12-30T14:29:20Z</time>
      </trkpt>
      <trkpt lat="43.77222" lon="7.24977">
        <ele>677.40002441406</ele>
        <time>2012-12-30T14:29:23Z</time>
      </trkpt>
      <trkpt lat="43.7722" lon="7.24978">
        <ele>677.40002441406</ele>
        <time>2012-12-30T14:29:24Z</time>
      </trkpt>
      <trkpt lat="43.77215" lon="7.24979">
        <ele>677.79998779297</ele>
        <time>2012-12-30T14:29:26Z</time>
      </trkpt>
      <trkpt lat="43.77199" lon="7.24981">
        <ele>678</ele>
        <time>2012-12-30T14:29:33Z</time>
      </trkpt>
      <trkpt lat="43.77181" lon="7.24981">
        <ele>677.59997558594</ele>
        <time>2012-12-30T14:29:39Z</time>
      </trkpt>
      <trkpt lat="43.77163" lon="7.24983">
        <ele>678</ele>
        <time>2012-12-30T14:29:45Z</time>
      </trkpt>
      <trkpt lat="43.77146" lon="7.24984">
        <ele>678.20001220703</ele>
        <time>2012-12-30T14:29:50Z</time>
      </trkpt>
      <trkpt lat="43.77142" lon="7.24985">
        <ele>678.20001220703</ele>
        <time>2012-12-30T14:29:51Z</time>
      </trkpt>
      <trkpt lat="43.77121" lon="7.24984">
        <ele>677.59997558594</ele>
        <time>2012-12-30T14:29:57Z</time>
      </trkpt>
      <trkpt lat="43.77102" lon="7.24985">
        <ele>677.59997558594</ele>
        <time>2012-12-30T14:30:03Z</time>
      </trkpt>
      <trkpt lat="43.77097" lon="7.24985">
        <ele>677.79998779297</ele>
        <time>2012-12-30T14:30:05Z</time>
      </trkpt>
      <trkpt lat="43.77084" lon="7.24987">
        <ele>678</ele>
        <time>2012-12-30T14:30:09Z</time>
      </trkpt>
      <trkpt lat="43.77081" lon="7.24986">
        <ele>677.79998779297</ele>
        <time>2012-12-30T14:30:10Z</time>
      </trkpt>
      <trkpt lat="43.77073" lon="7.24982">
        <ele>677</ele>
        <time>2012-12-30T14:30:13Z</time>
      </trkpt>
      <trkpt lat="43.77061" lon="7.24974">
        <ele>675</ele>
        <time>2012-12-30T14:30:18Z</time>
      </trkpt>
      <trkpt lat="43.77045" lon="7.24963">
        <ele>672.79998779297</ele>
        <time>2012-12-30T14:30:24Z</time>
      </trkpt>
      <trkpt lat="43.77028" lon="7.24958">
        <ele>672.40002441406</ele>
        <time>2012-12-30T14:30:30Z</time>
      </trkpt>
      <trkpt lat="43.77021" lon="7.24963">
        <ele>674.20001220703</ele>
        <time>2012-12-30T14:30:34Z</time>
      </trkpt>
      <trkpt lat="43.77014" lon="7.2497">
        <ele>676.40002441406</ele>
        <time>2012-12-30T14:30:38Z</time>
      </trkpt>
      <trkpt lat="43.77005" lon="7.24976">
        <ele>678.20001220703</ele>
        <time>2012-12-30T14:30:43Z</time>
      </trkpt>
      <trkpt lat="43.76999" lon="7.24978">
        <ele>679</ele>
        <time>2012-12-30T14:30:45Z</time>
      </trkpt>
      <trkpt lat="43.76989" lon="7.24984">
        <ele>679</ele>
        <time>2012-12-30T14:30:49Z</time>
      </trkpt>
      <trkpt lat="43.76969" lon="7.24991">
        <ele>678.20001220703</ele>
        <time>2012-12-30T14:30:55Z</time>
      </trkpt>
      <trkpt lat="43.76946" lon="7.24998">
        <ele>676.79998779297</ele>
        <time>2012-12-30T14:31:01Z</time>
      </trkpt>
      <trkpt lat="43.76941" lon="7.25001">
        <ele>676.40002441406</ele>
        <time>2012-12-30T14:31:03Z</time>
      </trkpt>
      <trkpt lat="43.76937" lon="7.25001">
        <ele>676</ele>
        <time>2012-12-30T14:31:04Z</time>
      </trkpt>
      <trkpt lat="43.76929" lon="7.25004">
        <ele>675.20001220703</ele>
        <time>2012-12-30T14:31:06Z</time>
      </trkpt>
      <trkpt lat="43.76907" lon="7.25018">
        <ele>673.59997558594</ele>
        <time>2012-12-30T14:31:11Z</time>
      </trkpt>
      <trkpt lat="43.76897" lon="7.25023">
        <ele>673</ele>
        <time>2012-12-30T14:31:13Z</time>
      </trkpt>
      <trkpt lat="43.76892" lon="7.25024">
        <ele>672.40002441406</ele>
        <time>2012-12-30T14:31:14Z</time>
      </trkpt>
      <trkpt lat="43.76888" lon="7.25025">
        <ele>672</ele>
        <time>2012-12-30T14:31:15Z</time>
      </trkpt>
      <trkpt lat="43.76883" lon="7.25026">
        <ele>671.40002441406</ele>
        <time>2012-12-30T14:31:16Z</time>
      </trkpt>
      <trkpt lat="43.76877" lon="7.25026">
        <ele>670.79998779297</ele>
        <time>2012-12-30T14:31:17Z</time>
      </trkpt>
      <trkpt lat="43.76858" lon="7.25025">
        <ele>668.59997558594</ele>
        <time>2012-12-30T14:31:20Z</time>
      </trkpt>
      <trkpt lat="43.76852" lon="7.25026">
        <ele>667.79998779297</ele>
        <time>2012-12-30T14:31:21Z</time>
      </trkpt>
      <trkpt lat="43.76846" lon="7.25027">
        <ele>667.20001220703</ele>
        <time>2012-12-30T14:31:23Z</time>
      </trkpt>
      <trkpt lat="43.76845" lon="7.25029">
        <ele>667</ele>
        <time>2012-12-30T14:31:27Z</time>
      </trkpt>
      <trkpt lat="43.76844" lon="7.2503">
        <ele>666.79998779297</ele>
        <time>2012-12-30T14:31:31Z</time>
      </trkpt>
      <trkpt lat="43.76844" lon="7.25033">
        <ele>666.79998779297</ele>
        <time>2012-12-30T14:31:58Z</time>
      </trkpt>
      <trkpt lat="43.76844" lon="7.25033">
        <ele>666.79998779297</ele>
        <time>2012-12-30T14:32:05Z</time>
      </trkpt>
      <trkpt lat="43.76844" lon="7.25034">
        <ele>666.59997558594</ele>
        <time>2012-12-30T14:32:10Z</time>
      </trkpt>
      <trkpt lat="43.76844" lon="7.25034">
        <ele>666.59997558594</ele>
        <time>2012-12-30T14:32:16Z</time>
      </trkpt>
      <trkpt lat="43.76844" lon="7.25033">
        <ele>666.79998779297</ele>
        <time>2012-12-30T14:32:19Z</time>
      </trkpt>
      <trkpt lat="43.76844" lon="7.25033">
        <ele>666.79998779297</ele>
        <time>2012-12-30T14:32:20Z</time>
      </trkpt>
      <trkpt lat="43.76844" lon="7.25034">
        <ele>666.79998779297</ele>
        <time>2012-12-30T14:32:21Z</time>
      </trkpt>
      <trkpt lat="43.76844" lon="7.25033">
        <ele>666.79998779297</ele>
        <time>2012-12-30T14:32:22Z</time>
      </trkpt>
      <trkpt lat="43.76844" lon="7.25033">
        <ele>666.79998779297</ele>
        <time>2012-12-30T14:32:23Z</time>
      </trkpt>
      <trkpt lat="43.76844" lon="7.25033">
        <ele>666.79998779297</ele>
        <time>2012-12-30T14:32:25Z</time>
      </trkpt>
      <trkpt lat="43.76844" lon="7.25031">
        <ele>666.79998779297</ele>
        <time>2012-12-30T14:32:51Z</time>
      </trkpt>
      <trkpt lat="43.76843" lon="7.25031">
        <ele>666.59997558594</ele>
        <time>2012-12-30T14:32:54Z</time>
      </trkpt>
      <trkpt lat="43.76843" lon="7.25031">
        <ele>666.59997558594</ele>
        <time>2012-12-30T14:32:55Z</time>
      </trkpt>
      <trkpt lat="43.76841" lon="7.25033">
        <ele>666.20001220703</ele>
        <time>2012-12-30T14:32:57Z</time>
      </trkpt>
      <trkpt lat="43.76826" lon="7.2504">
        <ele>664.40002441406</ele>
        <time>2012-12-30T14:33:01Z</time>
      </trkpt>
      <trkpt lat="43.76814" lon="7.25041">
        <ele>663.20001220703</ele>
        <time>2012-12-30T14:33:04Z</time>
      </trkpt>
      <trkpt lat="43.7681" lon="7.25038">
        <ele>663</ele>
        <time>2012-12-30T14:33:05Z</time>
      </trkpt>
      <trkpt lat="43.768" lon="7.25031">
        <ele>662.59997558594</ele>
        <time>2012-12-30T14:33:08Z</time>
      </trkpt>
      <trkpt lat="43.76789" lon="7.25026">
        <ele>662</ele>
        <time>2012-12-30T14:33:11Z</time>
      </trkpt>
      <trkpt lat="43.76778" lon="7.25031">
        <ele>660.59997558594</ele>
        <time>2012-12-30T14:33:14Z</time>
      </trkpt>
      <trkpt lat="43.76773" lon="7.25033">
        <ele>660.20001220703</ele>
        <time>2012-12-30T14:33:15Z</time>
      </trkpt>
      <trkpt lat="43.7676" lon="7.25038">
        <ele>658.59997558594</ele>
        <time>2012-12-30T14:33:18Z</time>
      </trkpt>
      <trkpt lat="43.76751" lon="7.25042">
        <ele>657.40002441406</ele>
        <time>2012-12-30T14:33:20Z</time>
      </trkpt>
      <trkpt lat="43.76739" lon="7.25049">
        <ele>655.20001220703</ele>
        <time>2012-12-30T14:33:24Z</time>
      </trkpt>
      <trkpt lat="43.76736" lon="7.25051">
        <ele>654.59997558594</ele>
        <time>2012-12-30T14:33:25Z</time>
      </trkpt>
      <trkpt lat="43.76733" lon="7.25052">
        <ele>654</ele>
        <time>2012-12-30T14:33:26Z</time>
      </trkpt>
      <trkpt lat="43.76722" lon="7.25051">
        <ele>652.59997558594</ele>
        <time>2012-12-30T14:33:29Z</time>
      </trkpt>
      <trkpt lat="43.76709" lon="7.25048">
        <ele>650.79998779297</ele>
        <time>2012-12-30T14:33:33Z</time>
      </trkpt>
      <trkpt lat="43.76705" lon="7.25048">
        <ele>650.20001220703</ele>
        <time>2012-12-30T14:33:34Z</time>
      </trkpt>
      <trkpt lat="43.76701" lon="7.25047">
        <ele>649.59997558594</ele>
        <time>2012-12-30T14:33:35Z</time>
      </trkpt>
      <trkpt lat="43.76692" lon="7.2504">
        <ele>648.40002441406</ele>
        <time>2012-12-30T14:33:37Z</time>
      </trkpt>
      <trkpt lat="43.76688" lon="7.2504">
        <ele>647.79998779297</ele>
        <time>2012-12-30T14:33:38Z</time>
      </trkpt>
      <trkpt lat="43.7668" lon="7.2505">
        <ele>646.59997558594</ele>
        <time>2012-12-30T14:33:40Z</time>
      </trkpt>
      <trkpt lat="43.76675" lon="7.25066">
        <ele>646.20001220703</ele>
        <time>2012-12-30T14:33:42Z</time>
      </trkpt>
      <trkpt lat="43.76672" lon="7.25072">
        <ele>646</ele>
        <time>2012-12-30T14:33:43Z</time>
      </trkpt>
      <trkpt lat="43.76665" lon="7.25083">
        <ele>645.79998779297</ele>
        <time>2012-12-30T14:33:45Z</time>
      </trkpt>
      <trkpt lat="43.76657" lon="7.25089">
        <ele>644.20001220703</ele>
        <time>2012-12-30T14:33:47Z</time>
      </trkpt>
      <trkpt lat="43.7664" lon="7.25091">
        <ele>642.20001220703</ele>
        <time>2012-12-30T14:33:50Z</time>
      </trkpt>
      <trkpt lat="43.76635" lon="7.2509">
        <ele>641.59997558594</ele>
        <time>2012-12-30T14:33:51Z</time>
      </trkpt>
      <trkpt lat="43.76628" lon="7.25091">
        <ele>641</ele>
        <time>2012-12-30T14:33:52Z</time>
      </trkpt>
      <trkpt lat="43.76608" lon="7.25095">
        <ele>638.40002441406</ele>
        <time>2012-12-30T14:33:56Z</time>
      </trkpt>
      <trkpt lat="43.76577" lon="7.25101">
        <ele>634.59997558594</ele>
        <time>2012-12-30T14:34:02Z</time>
      </trkpt>
      <trkpt lat="43.76573" lon="7.25104">
        <ele>634</ele>
        <time>2012-12-30T14:34:03Z</time>
      </trkpt>
      <trkpt lat="43.76559" lon="7.2511">
        <ele>632</ele>
        <time>2012-12-30T14:34:06Z</time>
      </trkpt>
      <trkpt lat="43.76554" lon="7.25113">
        <ele>631.59997558594</ele>
        <time>2012-12-30T14:34:07Z</time>
      </trkpt>
      <trkpt lat="43.76534" lon="7.25123">
        <ele>630</ele>
        <time>2012-12-30T14:34:11Z</time>
      </trkpt>
      <trkpt lat="43.76529" lon="7.25121">
        <ele>629.59997558594</ele>
        <time>2012-12-30T14:34:12Z</time>
      </trkpt>
      <trkpt lat="43.76512" lon="7.25113">
        <ele>627.40002441406</ele>
        <time>2012-12-30T14:34:15Z</time>
      </trkpt>
      <trkpt lat="43.76506" lon="7.25111">
        <ele>626.59997558594</ele>
        <time>2012-12-30T14:34:16Z</time>
      </trkpt>
      <trkpt lat="43.76501" lon="7.2511">
        <ele>625.79998779297</ele>
        <time>2012-12-30T14:34:17Z</time>
      </trkpt>
      <trkpt lat="43.76495" lon="7.25107">
        <ele>624.40002441406</ele>
        <time>2012-12-30T14:34:18Z</time>
      </trkpt>
      <trkpt lat="43.76485" lon="7.25104">
        <ele>622.40002441406</ele>
        <time>2012-12-30T14:34:20Z</time>
      </trkpt>
      <trkpt lat="43.76478" lon="7.25106">
        <ele>621.40002441406</ele>
        <time>2012-12-30T14:34:22Z</time>
      </trkpt>
      <trkpt lat="43.76475" lon="7.25106">
        <ele>620.79998779297</ele>
        <time>2012-12-30T14:34:23Z</time>
      </trkpt>
      <trkpt lat="43.76455" lon="7.25108">
        <ele>617.79998779297</ele>
        <time>2012-12-30T14:34:29Z</time>
      </trkpt>
      <trkpt lat="43.76437" lon="7.25116">
        <ele>616.79998779297</ele>
        <time>2012-12-30T14:34:33Z</time>
      </trkpt>
      <trkpt lat="43.7642" lon="7.25122">
        <ele>615.59997558594</ele>
        <time>2012-12-30T14:34:37Z</time>
      </trkpt>
      <trkpt lat="43.76415" lon="7.25124">
        <ele>615.40002441406</ele>
        <time>2012-12-30T14:34:38Z</time>
      </trkpt>
      <trkpt lat="43.76403" lon="7.25132">
        <ele>613.79998779297</ele>
        <time>2012-12-30T14:34:41Z</time>
      </trkpt>
      <trkpt lat="43.764" lon="7.25134">
        <ele>613.59997558594</ele>
        <time>2012-12-30T14:34:42Z</time>
      </trkpt>
      <trkpt lat="43.76392" lon="7.25141">
        <ele>613.20001220703</ele>
        <time>2012-12-30T14:34:44Z</time>
      </trkpt>
      <trkpt lat="43.76381" lon="7.25153">
        <ele>613.20001220703</ele>
        <time>2012-12-30T14:34:47Z</time>
      </trkpt>
      <trkpt lat="43.76373" lon="7.25161">
        <ele>613.40002441406</ele>
        <time>2012-12-30T14:34:49Z</time>
      </trkpt>
      <trkpt lat="43.7637" lon="7.25164">
        <ele>613.20001220703</ele>
        <time>2012-12-30T14:34:50Z</time>
      </trkpt>
      <trkpt lat="43.76366" lon="7.25167">
        <ele>613</ele>
        <time>2012-12-30T14:34:51Z</time>
      </trkpt>
      <trkpt lat="43.76363" lon="7.2517">
        <ele>612.59997558594</ele>
        <time>2012-12-30T14:34:52Z</time>
      </trkpt>
      <trkpt lat="43.76361" lon="7.25174">
        <ele>612.40002441406</ele>
        <time>2012-12-30T14:34:54Z</time>
      </trkpt>
      <trkpt lat="43.76361" lon="7.25175">
        <ele>612.40002441406</ele>
        <time>2012-12-30T14:34:56Z</time>
      </trkpt>
      <trkpt lat="43.76361" lon="7.25175">
        <ele>612.40002441406</ele>
        <time>2012-12-30T14:35:00Z</time>
      </trkpt>
      <trkpt lat="43.76361" lon="7.25175">
        <ele>612.59997558594</ele>
        <time>2012-12-30T14:35:03Z</time>
      </trkpt>
      <trkpt lat="43.76361" lon="7.25176">
        <ele>612.59997558594</ele>
        <time>2012-12-30T14:35:04Z</time>
      </trkpt>
      <trkpt lat="43.76359" lon="7.25178">
        <ele>612.40002441406</ele>
        <time>2012-12-30T14:35:31Z</time>
      </trkpt>
      <trkpt lat="43.7636" lon="7.25178">
        <ele>612.59997558594</ele>
        <time>2012-12-30T14:35:43Z</time>
      </trkpt>
      <trkpt lat="43.7636" lon="7.25178">
        <ele>612.59997558594</ele>
        <time>2012-12-30T14:35:44Z</time>
      </trkpt>
      <trkpt lat="43.7636" lon="7.25178">
        <ele>612.59997558594</ele>
        <time>2012-12-30T14:35:46Z</time>
      </trkpt>
      <trkpt lat="43.7636" lon="7.25178">
        <ele>612.40002441406</ele>
        <time>2012-12-30T14:35:50Z</time>
      </trkpt>
      <trkpt lat="43.76359" lon="7.25178">
        <ele>612.40002441406</ele>
        <time>2012-12-30T14:35:51Z</time>
      </trkpt>
      <trkpt lat="43.7636" lon="7.25179">
        <ele>612.40002441406</ele>
        <time>2012-12-30T14:36:01Z</time>
      </trkpt>
      <trkpt lat="43.76359" lon="7.25179">
        <ele>612.40002441406</ele>
        <time>2012-12-30T14:36:06Z</time>
      </trkpt>
      <trkpt lat="43.76358" lon="7.25181">
        <ele>612.40002441406</ele>
        <time>2012-12-30T14:36:31Z</time>
      </trkpt>
      <trkpt lat="43.76355" lon="7.25187">
        <ele>612.20001220703</ele>
        <time>2012-12-30T14:36:35Z</time>
      </trkpt>
      <trkpt lat="43.76341" lon="7.252">
        <ele>610.79998779297</ele>
        <time>2012-12-30T14:36:41Z</time>
      </trkpt>
      <trkpt lat="43.76324" lon="7.25197">
        <ele>607</ele>
        <time>2012-12-30T14:36:45Z</time>
      </trkpt>
      <trkpt lat="43.76307" lon="7.25196">
        <ele>604.20001220703</ele>
        <time>2012-12-30T14:36:48Z</time>
      </trkpt>
      <trkpt lat="43.76301" lon="7.25197">
        <ele>603.40002441406</ele>
        <time>2012-12-30T14:36:49Z</time>
      </trkpt>
      <trkpt lat="43.76294" lon="7.25198">
        <ele>602.40002441406</ele>
        <time>2012-12-30T14:36:50Z</time>
      </trkpt>
      <trkpt lat="43.76273" lon="7.252">
        <ele>599.59997558594</ele>
        <time>2012-12-30T14:36:54Z</time>
      </trkpt>
      <trkpt lat="43.76254" lon="7.25202">
        <ele>597</ele>
        <time>2012-12-30T14:36:58Z</time>
      </trkpt>
      <trkpt lat="43.7625" lon="7.25202">
        <ele>596.40002441406</ele>
        <time>2012-12-30T14:36:59Z</time>
      </trkpt>
      <trkpt lat="43.76236" lon="7.25204">
        <ele>593.59997558594</ele>
        <time>2012-12-30T14:37:03Z</time>
      </trkpt>
      <trkpt lat="43.76233" lon="7.25204">
        <ele>592.79998779297</ele>
        <time>2012-12-30T14:37:04Z</time>
      </trkpt>
      <trkpt lat="43.76229" lon="7.25204">
        <ele>592.20001220703</ele>
        <time>2012-12-30T14:37:05Z</time>
      </trkpt>
      <trkpt lat="43.7622" lon="7.25206">
        <ele>590.40002441406</ele>
        <time>2012-12-30T14:37:08Z</time>
      </trkpt>
      <trkpt lat="43.76217" lon="7.25206">
        <ele>589.79998779297</ele>
        <time>2012-12-30T14:37:09Z</time>
      </trkpt>
      <trkpt lat="43.7621" lon="7.25209">
        <ele>589</ele>
        <time>2012-12-30T14:37:13Z</time>
      </trkpt>
      <trkpt lat="43.76208" lon="7.2521">
        <ele>588.79998779297</ele>
        <time>2012-12-30T14:37:14Z</time>
      </trkpt>
      <trkpt lat="43.76208" lon="7.2521">
        <ele>588.79998779297</ele>
        <time>2012-12-30T14:37:17Z</time>
      </trkpt>
      <trkpt lat="43.76208" lon="7.2521">
        <ele>589</ele>
        <time>2012-12-30T14:37:19Z</time>
      </trkpt>
      <trkpt lat="43.76208" lon="7.2521">
        <ele>589</ele>
        <time>2012-12-30T14:37:33Z</time>
      </trkpt>
      <trkpt lat="43.76206" lon="7.25213">
        <ele>589.20001220703</ele>
        <time>2012-12-30T14:37:37Z</time>
      </trkpt>
      <trkpt lat="43.76202" lon="7.25216">
        <ele>589.20001220703</ele>
        <time>2012-12-30T14:37:39Z</time>
      </trkpt>
      <trkpt lat="43.76191" lon="7.25216">
        <ele>586.79998779297</ele>
        <time>2012-12-30T14:37:43Z</time>
      </trkpt>
      <trkpt lat="43.76189" lon="7.25219">
        <ele>587</ele>
        <time>2012-12-30T14:37:47Z</time>
      </trkpt>
      <trkpt lat="43.76188" lon="7.25219">
        <ele>587.20001220703</ele>
        <time>2012-12-30T14:37:48Z</time>
      </trkpt>
      <trkpt lat="43.76185" lon="7.25221">
        <ele>587.20001220703</ele>
        <time>2012-12-30T14:37:51Z</time>
      </trkpt>
      <trkpt lat="43.76183" lon="7.25222">
        <ele>587</ele>
        <time>2012-12-30T14:37:53Z</time>
      </trkpt>
      <trkpt lat="43.76176" lon="7.25226">
        <ele>586.79998779297</ele>
        <time>2012-12-30T14:37:56Z</time>
      </trkpt>
      <trkpt lat="43.76171" lon="7.25229">
        <ele>586.79998779297</ele>
        <time>2012-12-30T14:37:58Z</time>
      </trkpt>
      <trkpt lat="43.76169" lon="7.2523">
        <ele>586.40002441406</ele>
        <time>2012-12-30T14:37:59Z</time>
      </trkpt>
      <trkpt lat="43.76167" lon="7.25231">
        <ele>586.20001220703</ele>
        <time>2012-12-30T14:38:00Z</time>
      </trkpt>
      <trkpt lat="43.76158" lon="7.25237">
        <ele>585.59997558594</ele>
        <time>2012-12-30T14:38:04Z</time>
      </trkpt>
      <trkpt lat="43.76147" lon="7.25242">
        <ele>584.20001220703</ele>
        <time>2012-12-30T14:38:09Z</time>
      </trkpt>
      <trkpt lat="43.76139" lon="7.25245">
        <ele>583</ele>
        <time>2012-12-30T14:38:12Z</time>
      </trkpt>
      <trkpt lat="43.76136" lon="7.25248">
        <ele>583.20001220703</ele>
        <time>2012-12-30T14:38:13Z</time>
      </trkpt>
      <trkpt lat="43.76121" lon="7.25257">
        <ele>580.59997558594</ele>
        <time>2012-12-30T14:38:17Z</time>
      </trkpt>
      <trkpt lat="43.76103" lon="7.25272">
        <ele>578.20001220703</ele>
        <time>2012-12-30T14:38:22Z</time>
      </trkpt>
      <trkpt lat="43.76098" lon="7.25273">
        <ele>577</ele>
        <time>2012-12-30T14:38:24Z</time>
      </trkpt>
      <trkpt lat="43.76095" lon="7.25273">
        <ele>576.20001220703</ele>
        <time>2012-12-30T14:38:25Z</time>
      </trkpt>
      <trkpt lat="43.76088" lon="7.25276">
        <ele>574.59997558594</ele>
        <time>2012-12-30T14:38:27Z</time>
      </trkpt>
      <trkpt lat="43.76079" lon="7.2528">
        <ele>573</ele>
        <time>2012-12-30T14:38:29Z</time>
      </trkpt>
      <trkpt lat="43.76057" lon="7.2529">
        <ele>569.40002441406</ele>
        <time>2012-12-30T14:38:34Z</time>
      </trkpt>
      <trkpt lat="43.76043" lon="7.25299">
        <ele>568</ele>
        <time>2012-12-30T14:38:38Z</time>
      </trkpt>
      <trkpt lat="43.76036" lon="7.253">
        <ele>566.20001220703</ele>
        <time>2012-12-30T14:38:40Z</time>
      </trkpt>
      <trkpt lat="43.76018" lon="7.25308">
        <ele>563.59997558594</ele>
        <time>2012-12-30T14:38:44Z</time>
      </trkpt>
      <trkpt lat="43.76014" lon="7.2531">
        <ele>563.20001220703</ele>
        <time>2012-12-30T14:38:45Z</time>
      </trkpt>
      <trkpt lat="43.7601" lon="7.25313">
        <ele>562.79998779297</ele>
        <time>2012-12-30T14:38:46Z</time>
      </trkpt>
      <trkpt lat="43.75997" lon="7.25322">
        <ele>562.20001220703</ele>
        <time>2012-12-30T14:38:50Z</time>
      </trkpt>
      <trkpt lat="43.75986" lon="7.25329">
        <ele>561.40002441406</ele>
        <time>2012-12-30T14:38:55Z</time>
      </trkpt>
      <trkpt lat="43.75981" lon="7.25332">
        <ele>561</ele>
        <time>2012-12-30T14:38:57Z</time>
      </trkpt>
      <trkpt lat="43.75979" lon="7.25333">
        <ele>560.79998779297</ele>
        <time>2012-12-30T14:38:58Z</time>
      </trkpt>
      <trkpt lat="43.7597" lon="7.25338">
        <ele>559.79998779297</ele>
        <time>2012-12-30T14:39:01Z</time>
      </trkpt>
      <trkpt lat="43.7595" lon="7.25349">
        <ele>557.59997558594</ele>
        <time>2012-12-30T14:39:06Z</time>
      </trkpt>
      <trkpt lat="43.75935" lon="7.25359">
        <ele>556.59997558594</ele>
        <time>2012-12-30T14:39:09Z</time>
      </trkpt>
      <trkpt lat="43.7593" lon="7.25363">
        <ele>556.20001220703</ele>
        <time>2012-12-30T14:39:10Z</time>
      </trkpt>
      <trkpt lat="43.75914" lon="7.25377">
        <ele>556.20001220703</ele>
        <time>2012-12-30T14:39:14Z</time>
      </trkpt>
      <trkpt lat="43.75909" lon="7.25381">
        <ele>556</ele>
        <time>2012-12-30T14:39:16Z</time>
      </trkpt>
      <trkpt lat="43.75906" lon="7.25382">
        <ele>555.40002441406</ele>
        <time>2012-12-30T14:39:17Z</time>
      </trkpt>
      <trkpt lat="43.75903" lon="7.25384">
        <ele>555.20001220703</ele>
        <time>2012-12-30T14:39:18Z</time>
      </trkpt>
      <trkpt lat="43.75901" lon="7.25386">
        <ele>555.40002441406</ele>
        <time>2012-12-30T14:39:19Z</time>
      </trkpt>
      <trkpt lat="43.75901" lon="7.25387">
        <ele>555.40002441406</ele>
        <time>2012-12-30T14:39:20Z</time>
      </trkpt>
      <trkpt lat="43.75901" lon="7.25387">
        <ele>555.40002441406</ele>
        <time>2012-12-30T14:39:21Z</time>
      </trkpt>
      <trkpt lat="43.75901" lon="7.25388">
        <ele>555.79998779297</ele>
        <time>2012-12-30T14:39:27Z</time>
      </trkpt>
      <trkpt lat="43.75899" lon="7.2539">
        <ele>556</ele>
        <time>2012-12-30T14:39:30Z</time>
      </trkpt>
      <trkpt lat="43.75897" lon="7.25393">
        <ele>556</ele>
        <time>2012-12-30T14:39:36Z</time>
      </trkpt>
      <trkpt lat="43.75894" lon="7.25396">
        <ele>556.20001220703</ele>
        <time>2012-12-30T14:39:39Z</time>
      </trkpt>
      <trkpt lat="43.75893" lon="7.25399">
        <ele>556.59997558594</ele>
        <time>2012-12-30T14:39:41Z</time>
      </trkpt>
      <trkpt lat="43.75893" lon="7.25402">
        <ele>557.40002441406</ele>
        <time>2012-12-30T14:39:47Z</time>
      </trkpt>
      <trkpt lat="43.75893" lon="7.25402">
        <ele>557.40002441406</ele>
        <time>2012-12-30T14:39:53Z</time>
      </trkpt>
      <trkpt lat="43.75893" lon="7.25402">
        <ele>557.40002441406</ele>
        <time>2012-12-30T14:39:54Z</time>
      </trkpt>
      <trkpt lat="43.75894" lon="7.25402">
        <ele>557.59997558594</ele>
        <time>2012-12-30T14:40:12Z</time>
      </trkpt>
      <trkpt lat="43.75896" lon="7.25395">
        <ele>556.40002441406</ele>
        <time>2012-12-30T14:40:26Z</time>
      </trkpt>
      <trkpt lat="43.759" lon="7.25392">
        <ele>556.59997558594</ele>
        <time>2012-12-30T14:40:30Z</time>
      </trkpt>
      <trkpt lat="43.75903" lon="7.25391">
        <ele>557</ele>
        <time>2012-12-30T14:40:33Z</time>
      </trkpt>
      <trkpt lat="43.75902" lon="7.2539">
        <ele>556.79998779297</ele>
        <time>2012-12-30T14:40:38Z</time>
      </trkpt>
      <trkpt lat="43.759" lon="7.2539">
        <ele>556</ele>
        <time>2012-12-30T14:40:56Z</time>
      </trkpt>
      <trkpt lat="43.75895" lon="7.25388">
        <ele>554</ele>
        <time>2012-12-30T14:41:01Z</time>
      </trkpt>
      <trkpt lat="43.75883" lon="7.2539">
        <ele>552</ele>
        <time>2012-12-30T14:41:05Z</time>
      </trkpt>
      <trkpt lat="43.75872" lon="7.25398">
        <ele>551.40002441406</ele>
        <time>2012-12-30T14:41:09Z</time>
      </trkpt>
      <trkpt lat="43.75856" lon="7.25404">
        <ele>549</ele>
        <time>2012-12-30T14:41:13Z</time>
      </trkpt>
      <trkpt lat="43.75837" lon="7.25411">
        <ele>546.20001220703</ele>
        <time>2012-12-30T14:41:18Z</time>
      </trkpt>
      <trkpt lat="43.75818" lon="7.25417">
        <ele>542.40002441406</ele>
        <time>2012-12-30T14:41:23Z</time>
      </trkpt>
      <trkpt lat="43.75817" lon="7.25414">
        <ele>541.20001220703</ele>
        <time>2012-12-30T14:41:24Z</time>
      </trkpt>
      <trkpt lat="43.75815" lon="7.25409">
        <ele>539.40002441406</ele>
        <time>2012-12-30T14:41:25Z</time>
      </trkpt>
      <trkpt lat="43.75806" lon="7.25402">
        <ele>534.79998779297</ele>
        <time>2012-12-30T14:41:28Z</time>
      </trkpt>
      <trkpt lat="43.75799" lon="7.25394">
        <ele>530.59997558594</ele>
        <time>2012-12-30T14:41:31Z</time>
      </trkpt>
      <trkpt lat="43.75795" lon="7.25391">
        <ele>528.59997558594</ele>
        <time>2012-12-30T14:41:32Z</time>
      </trkpt>
      <trkpt lat="43.75778" lon="7.25395">
        <ele>524.40002441406</ele>
        <time>2012-12-30T14:41:36Z</time>
      </trkpt>
      <trkpt lat="43.75768" lon="7.25397">
        <ele>522</ele>
        <time>2012-12-30T14:41:39Z</time>
      </trkpt>
      <trkpt lat="43.75766" lon="7.25399">
        <ele>521.79998779297</ele>
        <time>2012-12-30T14:41:40Z</time>
      </trkpt>
      <trkpt lat="43.7576" lon="7.25404">
        <ele>521.40002441406</ele>
        <time>2012-12-30T14:41:42Z</time>
      </trkpt>
      <trkpt lat="43.75756" lon="7.25406">
        <ele>520.59997558594</ele>
        <time>2012-12-30T14:41:43Z</time>
      </trkpt>
      <trkpt lat="43.75742" lon="7.25415">
        <ele>519.40002441406</ele>
        <time>2012-12-30T14:41:46Z</time>
      </trkpt>
      <trkpt lat="43.75739" lon="7.25416">
        <ele>518.59997558594</ele>
        <time>2012-12-30T14:41:47Z</time>
      </trkpt>
      <trkpt lat="43.75732" lon="7.25412">
        <ele>515.79998779297</ele>
        <time>2012-12-30T14:41:50Z</time>
      </trkpt>
      <trkpt lat="43.75734" lon="7.2541">
        <ele>515.79998779297</ele>
        <time>2012-12-30T14:41:51Z</time>
      </trkpt>
      <trkpt lat="43.75737" lon="7.25407">
        <ele>515.59997558594</ele>
        <time>2012-12-30T14:41:53Z</time>
      </trkpt>
      <trkpt lat="43.75737" lon="7.25406">
        <ele>515.59997558594</ele>
        <time>2012-12-30T14:41:54Z</time>
      </trkpt>
      <trkpt lat="43.75737" lon="7.25407">
        <ele>515.59997558594</ele>
        <time>2012-12-30T14:41:57Z</time>
      </trkpt>
      <trkpt lat="43.75735" lon="7.25408">
        <ele>515.59997558594</ele>
        <time>2012-12-30T14:42:17Z</time>
      </trkpt>
      <trkpt lat="43.75735" lon="7.25408">
        <ele>515.59997558594</ele>
        <time>2012-12-30T14:42:18Z</time>
      </trkpt>
      <trkpt lat="43.75735" lon="7.25408">
        <ele>515.40002441406</ele>
        <time>2012-12-30T14:42:25Z</time>
      </trkpt>
      <trkpt lat="43.75735" lon="7.25408">
        <ele>515.40002441406</ele>
        <time>2012-12-30T14:42:26Z</time>
      </trkpt>
      <trkpt lat="43.75735" lon="7.25408">
        <ele>515.40002441406</ele>
        <time>2012-12-30T14:42:29Z</time>
      </trkpt>
      <trkpt lat="43.75735" lon="7.25408">
        <ele>515.59997558594</ele>
        <time>2012-12-30T14:42:34Z</time>
      </trkpt>
      <trkpt lat="43.75736" lon="7.25407">
        <ele>515.40002441406</ele>
        <time>2012-12-30T14:42:40Z</time>
      </trkpt>
      <trkpt lat="43.75736" lon="7.25407">
        <ele>515.59997558594</ele>
        <time>2012-12-30T14:42:41Z</time>
      </trkpt>
      <trkpt lat="43.75736" lon="7.25409">
        <ele>516</ele>
        <time>2012-12-30T14:42:58Z</time>
      </trkpt>
      <trkpt lat="43.75736" lon="7.25409">
        <ele>516</ele>
        <time>2012-12-30T14:43:00Z</time>
      </trkpt>
      <trkpt lat="43.75741" lon="7.25404">
        <ele>516</ele>
        <time>2012-12-30T14:43:09Z</time>
      </trkpt>
      <trkpt lat="43.75742" lon="7.25402">
        <ele>515.79998779297</ele>
        <time>2012-12-30T14:43:10Z</time>
      </trkpt>
      <trkpt lat="43.75753" lon="7.25391">
        <ele>515.79998779297</ele>
        <time>2012-12-30T14:43:15Z</time>
      </trkpt>
      <trkpt lat="43.75756" lon="7.25387">
        <ele>515.79998779297</ele>
        <time>2012-12-30T14:43:17Z</time>
      </trkpt>
      <trkpt lat="43.75757" lon="7.25381">
        <ele>514.59997558594</ele>
        <time>2012-12-30T14:43:19Z</time>
      </trkpt>
      <trkpt lat="43.75751" lon="7.25378">
        <ele>511.79998779297</ele>
        <time>2012-12-30T14:43:22Z</time>
      </trkpt>
      <trkpt lat="43.75742" lon="7.25379">
        <ele>509.60000610352</ele>
        <time>2012-12-30T14:43:25Z</time>
      </trkpt>
      <trkpt lat="43.75744" lon="7.25368">
        <ele>507.39999389648</ele>
        <time>2012-12-30T14:43:27Z</time>
      </trkpt>
      <trkpt lat="43.75751" lon="7.25355">
        <ele>505.79998779297</ele>
        <time>2012-12-30T14:43:30Z</time>
      </trkpt>
      <trkpt lat="43.75757" lon="7.25347">
        <ele>505.39999389648</ele>
        <time>2012-12-30T14:43:33Z</time>
      </trkpt>
      <trkpt lat="43.75757" lon="7.25344">
        <ele>504.79998779297</ele>
        <time>2012-12-30T14:43:34Z</time>
      </trkpt>
      <trkpt lat="43.75755" lon="7.25332">
        <ele>501.20001220703</ele>
        <time>2012-12-30T14:43:38Z</time>
      </trkpt>
      <trkpt lat="43.7575" lon="7.25328">
        <ele>498.39999389648</ele>
        <time>2012-12-30T14:43:42Z</time>
      </trkpt>
      <trkpt lat="43.75754" lon="7.25321">
        <ele>497.20001220703</ele>
        <time>2012-12-30T14:43:45Z</time>
      </trkpt>
      <trkpt lat="43.75757" lon="7.25313">
        <ele>495.60000610352</ele>
        <time>2012-12-30T14:43:47Z</time>
      </trkpt>
      <trkpt lat="43.75762" lon="7.25306">
        <ele>494.79998779297</ele>
        <time>2012-12-30T14:43:49Z</time>
      </trkpt>
      <trkpt lat="43.75765" lon="7.25297">
        <ele>492.79998779297</ele>
        <time>2012-12-30T14:43:52Z</time>
      </trkpt>
      <trkpt lat="43.75764" lon="7.25295">
        <ele>491.60000610352</ele>
        <time>2012-12-30T14:43:53Z</time>
      </trkpt>
      <trkpt lat="43.75756" lon="7.25294">
        <ele>489.39999389648</ele>
        <time>2012-12-30T14:43:57Z</time>
      </trkpt>
      <trkpt lat="43.7575" lon="7.25292">
        <ele>486.79998779297</ele>
        <time>2012-12-30T14:44:01Z</time>
      </trkpt>
      <trkpt lat="43.75753" lon="7.25281">
        <ele>484.39999389648</ele>
        <time>2012-12-30T14:44:04Z</time>
      </trkpt>
      <trkpt lat="43.7576" lon="7.25269">
        <ele>482.60000610352</ele>
        <time>2012-12-30T14:44:08Z</time>
      </trkpt>
      <trkpt lat="43.75764" lon="7.25267">
        <ele>483</ele>
        <time>2012-12-30T14:44:10Z</time>
      </trkpt>
      <trkpt lat="43.75768" lon="7.25261">
        <ele>482.39999389648</ele>
        <time>2012-12-30T14:44:12Z</time>
      </trkpt>
      <trkpt lat="43.75775" lon="7.25249">
        <ele>480.60000610352</ele>
        <time>2012-12-30T14:44:15Z</time>
      </trkpt>
      <trkpt lat="43.75778" lon="7.25246">
        <ele>480.39999389648</ele>
        <time>2012-12-30T14:44:16Z</time>
      </trkpt>
      <trkpt lat="43.75784" lon="7.25237">
        <ele>479.60000610352</ele>
        <time>2012-12-30T14:44:19Z</time>
      </trkpt>
      <trkpt lat="43.75784" lon="7.25233">
        <ele>478</ele>
        <time>2012-12-30T14:44:20Z</time>
      </trkpt>
      <trkpt lat="43.75777" lon="7.25228">
        <ele>475</ele>
        <time>2012-12-30T14:44:23Z</time>
      </trkpt>
      <trkpt lat="43.75768" lon="7.25222">
        <ele>471.20001220703</ele>
        <time>2012-12-30T14:44:27Z</time>
      </trkpt>
      <trkpt lat="43.75765" lon="7.25221">
        <ele>470</ele>
        <time>2012-12-30T14:44:28Z</time>
      </trkpt>
      <trkpt lat="43.75759" lon="7.25219">
        <ele>468</ele>
        <time>2012-12-30T14:44:30Z</time>
      </trkpt>
      <trkpt lat="43.75757" lon="7.25218">
        <ele>467.20001220703</ele>
        <time>2012-12-30T14:44:31Z</time>
      </trkpt>
      <trkpt lat="43.75755" lon="7.25218">
        <ele>466.60000610352</ele>
        <time>2012-12-30T14:44:32Z</time>
      </trkpt>
      <trkpt lat="43.75748" lon="7.25217">
        <ele>464.60000610352</ele>
        <time>2012-12-30T14:44:34Z</time>
      </trkpt>
      <trkpt lat="43.75737" lon="7.2522">
        <ele>463.20001220703</ele>
        <time>2012-12-30T14:44:37Z</time>
      </trkpt>
      <trkpt lat="43.75727" lon="7.25216">
        <ele>460.20001220703</ele>
        <time>2012-12-30T14:44:40Z</time>
      </trkpt>
      <trkpt lat="43.75712" lon="7.2522">
        <ele>458</ele>
        <time>2012-12-30T14:44:43Z</time>
      </trkpt>
      <trkpt lat="43.75705" lon="7.25227">
        <ele>457.79998779297</ele>
        <time>2012-12-30T14:44:45Z</time>
      </trkpt>
      <trkpt lat="43.75702" lon="7.25228">
        <ele>457.60000610352</ele>
        <time>2012-12-30T14:44:46Z</time>
      </trkpt>
      <trkpt lat="43.75689" lon="7.25227">
        <ele>454.20001220703</ele>
        <time>2012-12-30T14:44:49Z</time>
      </trkpt>
      <trkpt lat="43.75681" lon="7.25229">
        <ele>453</ele>
        <time>2012-12-30T14:44:52Z</time>
      </trkpt>
      <trkpt lat="43.75674" lon="7.25222">
        <ele>450</ele>
        <time>2012-12-30T14:44:55Z</time>
      </trkpt>
      <trkpt lat="43.75673" lon="7.25222">
        <ele>450</ele>
        <time>2012-12-30T14:44:56Z</time>
      </trkpt>
      <trkpt lat="43.75668" lon="7.25222">
        <ele>448.79998779297</ele>
        <time>2012-12-30T14:44:58Z</time>
      </trkpt>
      <trkpt lat="43.75658" lon="7.25217">
        <ele>446.39999389648</ele>
        <time>2012-12-30T14:45:02Z</time>
      </trkpt>
      <trkpt lat="43.7566" lon="7.25205">
        <ele>444.39999389648</ele>
        <time>2012-12-30T14:45:05Z</time>
      </trkpt>
      <trkpt lat="43.75661" lon="7.25194">
        <ele>442.39999389648</ele>
        <time>2012-12-30T14:45:08Z</time>
      </trkpt>
      <trkpt lat="43.75662" lon="7.2519">
        <ele>441.79998779297</ele>
        <time>2012-12-30T14:45:09Z</time>
      </trkpt>
      <trkpt lat="43.75665" lon="7.25183">
        <ele>440.79998779297</ele>
        <time>2012-12-30T14:45:11Z</time>
      </trkpt>
      <trkpt lat="43.75671" lon="7.25181">
        <ele>441.60000610352</ele>
        <time>2012-12-30T14:45:13Z</time>
      </trkpt>
      <trkpt lat="43.75675" lon="7.25176">
        <ele>441.20001220703</ele>
        <time>2012-12-30T14:45:15Z</time>
      </trkpt>
      <trkpt lat="43.75674" lon="7.25171">
        <ele>440</ele>
        <time>2012-12-30T14:45:16Z</time>
      </trkpt>
      <trkpt lat="43.75667" lon="7.25163">
        <ele>437.60000610352</ele>
        <time>2012-12-30T14:45:18Z</time>
      </trkpt>
      <trkpt lat="43.75661" lon="7.25163">
        <ele>436.79998779297</ele>
        <time>2012-12-30T14:45:19Z</time>
      </trkpt>
      <trkpt lat="43.75657" lon="7.25162">
        <ele>436.20001220703</ele>
        <time>2012-12-30T14:45:20Z</time>
      </trkpt>
      <trkpt lat="43.75646" lon="7.25156">
        <ele>434.20001220703</ele>
        <time>2012-12-30T14:45:23Z</time>
      </trkpt>
      <trkpt lat="43.7564" lon="7.25149">
        <ele>432.60000610352</ele>
        <time>2012-12-30T14:45:25Z</time>
      </trkpt>
      <trkpt lat="43.75632" lon="7.25145">
        <ele>431.39999389648</ele>
        <time>2012-12-30T14:45:27Z</time>
      </trkpt>
      <trkpt lat="43.75624" lon="7.25147">
        <ele>430.60000610352</ele>
        <time>2012-12-30T14:45:29Z</time>
      </trkpt>
      <trkpt lat="43.7562" lon="7.25149">
        <ele>430.39999389648</ele>
        <time>2012-12-30T14:45:30Z</time>
      </trkpt>
      <trkpt lat="43.75616" lon="7.2515">
        <ele>430</ele>
        <time>2012-12-30T14:45:31Z</time>
      </trkpt>
      <trkpt lat="43.75607" lon="7.25157">
        <ele>429.79998779297</ele>
        <time>2012-12-30T14:45:35Z</time>
      </trkpt>
      <trkpt lat="43.75601" lon="7.25164">
        <ele>429.79998779297</ele>
        <time>2012-12-30T14:45:39Z</time>
      </trkpt>
      <trkpt lat="43.75595" lon="7.25169">
        <ele>429.79998779297</ele>
        <time>2012-12-30T14:45:42Z</time>
      </trkpt>
      <trkpt lat="43.75589" lon="7.25171">
        <ele>429.39999389648</ele>
        <time>2012-12-30T14:45:44Z</time>
      </trkpt>
      <trkpt lat="43.75576" lon="7.25175">
        <ele>429.20001220703</ele>
        <time>2012-12-30T14:45:49Z</time>
      </trkpt>
      <trkpt lat="43.75566" lon="7.25179">
        <ele>429.39999389648</ele>
        <time>2012-12-30T14:45:53Z</time>
      </trkpt>
      <trkpt lat="43.75564" lon="7.2518">
        <ele>429.60000610352</ele>
        <time>2012-12-30T14:45:54Z</time>
      </trkpt>
      <trkpt lat="43.75559" lon="7.2518">
        <ele>429.39999389648</ele>
        <time>2012-12-30T14:45:56Z</time>
      </trkpt>
      <trkpt lat="43.75555" lon="7.25175">
        <ele>428.60000610352</ele>
        <time>2012-12-30T14:45:58Z</time>
      </trkpt>
      <trkpt lat="43.75548" lon="7.2517">
        <ele>428</ele>
        <time>2012-12-30T14:46:01Z</time>
      </trkpt>
      <trkpt lat="43.75543" lon="7.25178">
        <ele>428.79998779297</ele>
        <time>2012-12-30T14:46:05Z</time>
      </trkpt>
      <trkpt lat="43.75539" lon="7.2519">
        <ele>430</ele>
        <time>2012-12-30T14:46:12Z</time>
      </trkpt>
      <trkpt lat="43.75538" lon="7.25193">
        <ele>430.20001220703</ele>
        <time>2012-12-30T14:46:14Z</time>
      </trkpt>
      <trkpt lat="43.75536" lon="7.25197">
        <ele>430.60000610352</ele>
        <time>2012-12-30T14:46:18Z</time>
      </trkpt>
      <trkpt lat="43.75534" lon="7.25201">
        <ele>430.79998779297</ele>
        <time>2012-12-30T14:46:22Z</time>
      </trkpt>
      <trkpt lat="43.75534" lon="7.25202">
        <ele>431</ele>
        <time>2012-12-30T14:46:23Z</time>
      </trkpt>
      <trkpt lat="43.75534" lon="7.25201">
        <ele>430.79998779297</ele>
        <time>2012-12-30T14:46:26Z</time>
      </trkpt>
      <trkpt lat="43.75533" lon="7.25202">
        <ele>431</ele>
        <time>2012-12-30T14:46:32Z</time>
      </trkpt>
      <trkpt lat="43.75533" lon="7.25201">
        <ele>430.79998779297</ele>
        <time>2012-12-30T14:46:42Z</time>
      </trkpt>
      <trkpt lat="43.75532" lon="7.25201">
        <ele>430.79998779297</ele>
        <time>2012-12-30T14:46:44Z</time>
      </trkpt>
      <trkpt lat="43.75534" lon="7.25198">
        <ele>430.60000610352</ele>
        <time>2012-12-30T14:46:51Z</time>
      </trkpt>
      <trkpt lat="43.75534" lon="7.25197">
        <ele>430.39999389648</ele>
        <time>2012-12-30T14:46:52Z</time>
      </trkpt>
      <trkpt lat="43.75535" lon="7.25196">
        <ele>430.39999389648</ele>
        <time>2012-12-30T14:46:54Z</time>
      </trkpt>
      <trkpt lat="43.75538" lon="7.25191">
        <ele>430</ele>
        <time>2012-12-30T14:46:58Z</time>
      </trkpt>
      <trkpt lat="43.75541" lon="7.25188">
        <ele>429.79998779297</ele>
        <time>2012-12-30T14:47:01Z</time>
      </trkpt>
      <trkpt lat="43.75544" lon="7.25186">
        <ele>429.79998779297</ele>
        <time>2012-12-30T14:47:05Z</time>
      </trkpt>
      <trkpt lat="43.75544" lon="7.25185">
        <ele>429.60000610352</ele>
        <time>2012-12-30T14:47:06Z</time>
      </trkpt>
      <trkpt lat="43.75544" lon="7.25182">
        <ele>429.20001220703</ele>
        <time>2012-12-30T14:47:08Z</time>
      </trkpt>
      <trkpt lat="43.75545" lon="7.25178">
        <ele>428.79998779297</ele>
        <time>2012-12-30T14:47:11Z</time>
      </trkpt>
      <trkpt lat="43.75546" lon="7.25177">
        <ele>428.60000610352</ele>
        <time>2012-12-30T14:47:12Z</time>
      </trkpt>
      <trkpt lat="43.75547" lon="7.25176">
        <ele>428.60000610352</ele>
        <time>2012-12-30T14:47:13Z</time>
      </trkpt>
      <trkpt lat="43.7555" lon="7.25181">
        <ele>429.20001220703</ele>
        <time>2012-12-30T14:47:18Z</time>
      </trkpt>
      <trkpt lat="43.75551" lon="7.25185">
        <ele>429.79998779297</ele>
        <time>2012-12-30T14:47:22Z</time>
      </trkpt>
      <trkpt lat="43.75551" lon="7.25186">
        <ele>429.79998779297</ele>
        <time>2012-12-30T14:47:25Z</time>
      </trkpt>
      <trkpt lat="43.75551" lon="7.25186">
        <ele>430</ele>
        <time>2012-12-30T14:47:29Z</time>
      </trkpt>
      <trkpt lat="43.75551" lon="7.25187">
        <ele>430</ele>
        <time>2012-12-30T14:47:33Z</time>
      </trkpt>
      <trkpt lat="43.7555" lon="7.25186">
        <ele>430</ele>
        <time>2012-12-30T14:47:42Z</time>
      </trkpt>
      <trkpt lat="43.75551" lon="7.25186">
        <ele>430</ele>
        <time>2012-12-30T14:47:52Z</time>
      </trkpt>
      <trkpt lat="43.75551" lon="7.25187">
        <ele>430</ele>
        <time>2012-12-30T14:48:04Z</time>
      </trkpt>
      <trkpt lat="43.75551" lon="7.25187">
        <ele>430</ele>
        <time>2012-12-30T14:48:09Z</time>
      </trkpt>
      <trkpt lat="43.75551" lon="7.25187">
        <ele>430</ele>
        <time>2012-12-30T14:48:14Z</time>
      </trkpt>
      <trkpt lat="43.75551" lon="7.25188">
        <ele>430.20001220703</ele>
        <time>2012-12-30T14:48:31Z</time>
      </trkpt>
      <trkpt lat="43.75552" lon="7.25188">
        <ele>430.20001220703</ele>
        <time>2012-12-30T14:48:35Z</time>
      </trkpt>
      <trkpt lat="43.75551" lon="7.25188">
        <ele>430.20001220703</ele>
        <time>2012-12-30T14:48:50Z</time>
      </trkpt>
      <trkpt lat="43.75551" lon="7.25188">
        <ele>430.20001220703</ele>
        <time>2012-12-30T14:48:56Z</time>
      </trkpt>
      <trkpt lat="43.7555" lon="7.25188">
        <ele>430.20001220703</ele>
        <time>2012-12-30T14:49:20Z</time>
      </trkpt>
      <trkpt lat="43.75551" lon="7.25188">
        <ele>430.20001220703</ele>
        <time>2012-12-30T14:49:26Z</time>
      </trkpt>
      <trkpt lat="43.7555" lon="7.25185">
        <ele>429.79998779297</ele>
        <time>2012-12-30T14:49:37Z</time>
      </trkpt>
      <trkpt lat="43.75549" lon="7.25182">
        <ele>429.39999389648</ele>
        <time>2012-12-30T14:49:40Z</time>
      </trkpt>
      <trkpt lat="43.75546" lon="7.25176">
        <ele>428.60000610352</ele>
        <time>2012-12-30T14:49:46Z</time>
      </trkpt>
      <trkpt lat="43.75546" lon="7.25177">
        <ele>428.60000610352</ele>
        <time>2012-12-30T14:49:47Z</time>
      </trkpt>
      <trkpt lat="43.75541" lon="7.25183">
        <ele>429.20001220703</ele>
        <time>2012-12-30T14:49:53Z</time>
      </trkpt>
      <trkpt lat="43.75534" lon="7.25197">
        <ele>430.39999389648</ele>
        <time>2012-12-30T14:49:58Z</time>
      </trkpt>
      <trkpt lat="43.75532" lon="7.25202">
        <ele>431</ele>
        <time>2012-12-30T14:50:02Z</time>
      </trkpt>
      <trkpt lat="43.75532" lon="7.25203">
        <ele>431</ele>
        <time>2012-12-30T14:50:03Z</time>
      </trkpt>
      <trkpt lat="43.75532" lon="7.25203">
        <ele>431</ele>
        <time>2012-12-30T14:50:04Z</time>
      </trkpt>
      <trkpt lat="43.75532" lon="7.25203">
        <ele>431</ele>
        <time>2012-12-30T14:50:06Z</time>
      </trkpt>
      <trkpt lat="43.75533" lon="7.25201">
        <ele>430.79998779297</ele>
        <time>2012-12-30T14:50:10Z</time>
      </trkpt>
      <trkpt lat="43.7554" lon="7.25188">
        <ele>429.79998779297</ele>
        <time>2012-12-30T14:50:14Z</time>
      </trkpt>
      <trkpt lat="43.75543" lon="7.25181">
        <ele>429</ele>
        <time>2012-12-30T14:50:18Z</time>
      </trkpt>
      <trkpt lat="43.75543" lon="7.25179">
        <ele>428.79998779297</ele>
        <time>2012-12-30T14:50:19Z</time>
      </trkpt>
      <trkpt lat="43.75541" lon="7.25177">
        <ele>428.60000610352</ele>
        <time>2012-12-30T14:50:22Z</time>
      </trkpt>
      <trkpt lat="43.75541" lon="7.25177">
        <ele>428.60000610352</ele>
        <time>2012-12-30T14:50:25Z</time>
      </trkpt>
      <trkpt lat="43.75541" lon="7.25177">
        <ele>428.60000610352</ele>
        <time>2012-12-30T14:50:32Z</time>
      </trkpt>
      <trkpt lat="43.75541" lon="7.25179">
        <ele>428.79998779297</ele>
        <time>2012-12-30T14:50:55Z</time>
      </trkpt>
      <trkpt lat="43.75541" lon="7.25179">
        <ele>428.79998779297</ele>
        <time>2012-12-30T14:50:57Z</time>
      </trkpt>
      <trkpt lat="43.75541" lon="7.25178">
        <ele>428.60000610352</ele>
        <time>2012-12-30T14:51:11Z</time>
      </trkpt>
      <trkpt lat="43.75541" lon="7.25178">
        <ele>428.60000610352</ele>
        <time>2012-12-30T14:51:12Z</time>
      </trkpt>
      <trkpt lat="43.75541" lon="7.25178">
        <ele>428.60000610352</ele>
        <time>2012-12-30T14:51:13Z</time>
      </trkpt>
      <trkpt lat="43.75541" lon="7.25177">
        <ele>428.60000610352</ele>
        <time>2012-12-30T14:51:22Z</time>
      </trkpt>
      <trkpt lat="43.75541" lon="7.25177">
        <ele>428.60000610352</ele>
        <time>2012-12-30T14:51:23Z</time>
      </trkpt>
      <trkpt lat="43.75541" lon="7.25176">
        <ele>428.39999389648</ele>
        <time>2012-12-30T14:51:27Z</time>
      </trkpt>
      <trkpt lat="43.75541" lon="7.25176">
        <ele>428.39999389648</ele>
        <time>2012-12-30T14:51:29Z</time>
      </trkpt>
      <trkpt lat="43.75541" lon="7.25176">
        <ele>428.39999389648</ele>
        <time>2012-12-30T14:51:31Z</time>
      </trkpt>
      <trkpt lat="43.75541" lon="7.25176">
        <ele>428.39999389648</ele>
        <time>2012-12-30T14:51:39Z</time>
      </trkpt>
      <trkpt lat="43.75539" lon="7.25174">
        <ele>428.20001220703</ele>
        <time>2012-12-30T14:51:50Z</time>
      </trkpt>
      <trkpt lat="43.75536" lon="7.25173">
        <ele>428</ele>
        <time>2012-12-30T14:51:53Z</time>
      </trkpt>
      <trkpt lat="43.75529" lon="7.25172">
        <ele>427.79998779297</ele>
        <time>2012-12-30T14:51:57Z</time>
      </trkpt>
      <trkpt lat="43.75528" lon="7.25172">
        <ele>427.79998779297</ele>
        <time>2012-12-30T14:51:58Z</time>
      </trkpt>
      <trkpt lat="43.75525" lon="7.2517">
        <ele>427.60000610352</ele>
        <time>2012-12-30T14:52:03Z</time>
      </trkpt>
      <trkpt lat="43.75522" lon="7.25166">
        <ele>427.20001220703</ele>
        <time>2012-12-30T14:52:07Z</time>
      </trkpt>
      <trkpt lat="43.75518" lon="7.25165">
        <ele>427</ele>
        <time>2012-12-30T14:52:10Z</time>
      </trkpt>
      <trkpt lat="43.75517" lon="7.25168">
        <ele>427.20001220703</ele>
        <time>2012-12-30T14:52:12Z</time>
      </trkpt>
      <trkpt lat="43.75515" lon="7.25169">
        <ele>427.20001220703</ele>
        <time>2012-12-30T14:52:13Z</time>
      </trkpt>
      <trkpt lat="43.75514" lon="7.25169">
        <ele>427.20001220703</ele>
        <time>2012-12-30T14:52:16Z</time>
      </trkpt>
      <trkpt lat="43.75513" lon="7.2517">
        <ele>427.20001220703</ele>
        <time>2012-12-30T14:52:19Z</time>
      </trkpt>
      <trkpt lat="43.7551" lon="7.2517">
        <ele>427.20001220703</ele>
        <time>2012-12-30T14:52:23Z</time>
      </trkpt>
      <trkpt lat="43.75508" lon="7.2517">
        <ele>427.20001220703</ele>
        <time>2012-12-30T14:52:25Z</time>
      </trkpt>
      <trkpt lat="43.75504" lon="7.25174">
        <ele>427.39999389648</ele>
        <time>2012-12-30T14:52:28Z</time>
      </trkpt>
      <trkpt lat="43.75503" lon="7.25176">
        <ele>427.60000610352</ele>
        <time>2012-12-30T14:52:29Z</time>
      </trkpt>
      <trkpt lat="43.75502" lon="7.25177">
        <ele>427.60000610352</ele>
        <time>2012-12-30T14:52:30Z</time>
      </trkpt>
      <trkpt lat="43.75498" lon="7.2518">
        <ele>427.79998779297</ele>
        <time>2012-12-30T14:52:32Z</time>
      </trkpt>
      <trkpt lat="43.75492" lon="7.25183">
        <ele>428</ele>
        <time>2012-12-30T14:52:35Z</time>
      </trkpt>
      <trkpt lat="43.75488" lon="7.25183">
        <ele>428</ele>
        <time>2012-12-30T14:52:37Z</time>
      </trkpt>
      <trkpt lat="43.75486" lon="7.25182">
        <ele>428</ele>
        <time>2012-12-30T14:52:39Z</time>
      </trkpt>
      <trkpt lat="43.75484" lon="7.25183">
        <ele>428</ele>
        <time>2012-12-30T14:52:40Z</time>
      </trkpt>
      <trkpt lat="43.75482" lon="7.25183">
        <ele>428</ele>
        <time>2012-12-30T14:52:41Z</time>
      </trkpt>
      <trkpt lat="43.7548" lon="7.25186">
        <ele>428.20001220703</ele>
        <time>2012-12-30T14:52:42Z</time>
      </trkpt>
      <trkpt lat="43.75476" lon="7.25191">
        <ele>428.39999389648</ele>
        <time>2012-12-30T14:52:44Z</time>
      </trkpt>
      <trkpt lat="43.75471" lon="7.25197">
        <ele>428.60000610352</ele>
        <time>2012-12-30T14:52:46Z</time>
      </trkpt>
      <trkpt lat="43.75464" lon="7.25208">
        <ele>429</ele>
        <time>2012-12-30T14:52:50Z</time>
      </trkpt>
      <trkpt lat="43.75452" lon="7.25223">
        <ele>429</ele>
        <time>2012-12-30T14:52:57Z</time>
      </trkpt>
      <trkpt lat="43.75439" lon="7.25224">
        <ele>428.79998779297</ele>
        <time>2012-12-30T14:53:02Z</time>
      </trkpt>
      <trkpt lat="43.75421" lon="7.25227">
        <ele>428.39999389648</ele>
        <time>2012-12-30T14:53:08Z</time>
      </trkpt>
      <trkpt lat="43.75418" lon="7.25228">
        <ele>428.20001220703</ele>
        <time>2012-12-30T14:53:09Z</time>
      </trkpt>
      <trkpt lat="43.75402" lon="7.25238">
        <ele>428.39999389648</ele>
        <time>2012-12-30T14:53:15Z</time>
      </trkpt>
      <trkpt lat="43.75393" lon="7.25248">
        <ele>428.20001220703</ele>
        <time>2012-12-30T14:53:19Z</time>
      </trkpt>
      <trkpt lat="43.7539" lon="7.2525">
        <ele>428.20001220703</ele>
        <time>2012-12-30T14:53:20Z</time>
      </trkpt>
      <trkpt lat="43.75387" lon="7.25253">
        <ele>428.39999389648</ele>
        <time>2012-12-30T14:53:21Z</time>
      </trkpt>
      <trkpt lat="43.75385" lon="7.25256">
        <ele>428.60000610352</ele>
        <time>2012-12-30T14:53:22Z</time>
      </trkpt>
      <trkpt lat="43.75383" lon="7.25259">
        <ele>428.60000610352</ele>
        <time>2012-12-30T14:53:23Z</time>
      </trkpt>
      <trkpt lat="43.7538" lon="7.25266">
        <ele>428.79998779297</ele>
        <time>2012-12-30T14:53:25Z</time>
      </trkpt>
      <trkpt lat="43.75377" lon="7.25272">
        <ele>429</ele>
        <time>2012-12-30T14:53:27Z</time>
      </trkpt>
      <trkpt lat="43.7537" lon="7.25285">
        <ele>429.39999389648</ele>
        <time>2012-12-30T14:53:33Z</time>
      </trkpt>
      <trkpt lat="43.75352" lon="7.25294">
        <ele>429</ele>
        <time>2012-12-30T14:53:39Z</time>
      </trkpt>
      <trkpt lat="43.75346" lon="7.25294">
        <ele>428.79998779297</ele>
        <time>2012-12-30T14:53:41Z</time>
      </trkpt>
      <trkpt lat="43.75338" lon="7.25293">
        <ele>428.60000610352</ele>
        <time>2012-12-30T14:53:43Z</time>
      </trkpt>
      <trkpt lat="43.75322" lon="7.253">
        <ele>428</ele>
        <time>2012-12-30T14:53:48Z</time>
      </trkpt>
      <trkpt lat="43.75315" lon="7.25303">
        <ele>427.79998779297</ele>
        <time>2012-12-30T14:53:50Z</time>
      </trkpt>
      <trkpt lat="43.75304" lon="7.25298">
        <ele>427.60000610352</ele>
        <time>2012-12-30T14:53:53Z</time>
      </trkpt>
      <trkpt lat="43.75294" lon="7.25296">
        <ele>427.39999389648</ele>
        <time>2012-12-30T14:53:55Z</time>
      </trkpt>
      <trkpt lat="43.7529" lon="7.25296">
        <ele>427.39999389648</ele>
        <time>2012-12-30T14:53:56Z</time>
      </trkpt>
      <trkpt lat="43.7528" lon="7.25293">
        <ele>427</ele>
        <time>2012-12-30T14:54:00Z</time>
      </trkpt>
      <trkpt lat="43.75278" lon="7.25293">
        <ele>427</ele>
        <time>2012-12-30T14:54:02Z</time>
      </trkpt>
      <trkpt lat="43.75277" lon="7.25293">
        <ele>427</ele>
        <time>2012-12-30T14:54:04Z</time>
      </trkpt>
      <trkpt lat="43.75269" lon="7.25291">
        <ele>426.79998779297</ele>
        <time>2012-12-30T14:54:08Z</time>
      </trkpt>
      <trkpt lat="43.75266" lon="7.25291">
        <ele>426.79998779297</ele>
        <time>2012-12-30T14:54:09Z</time>
      </trkpt>
      <trkpt lat="43.75254" lon="7.25293">
        <ele>426.39999389648</ele>
        <time>2012-12-30T14:54:13Z</time>
      </trkpt>
      <trkpt lat="43.75252" lon="7.25296">
        <ele>426.39999389648</ele>
        <time>2012-12-30T14:54:14Z</time>
      </trkpt>
      <trkpt lat="43.75241" lon="7.25302">
        <ele>426</ele>
        <time>2012-12-30T14:54:17Z</time>
      </trkpt>
      <trkpt lat="43.75239" lon="7.25307">
        <ele>425.79998779297</ele>
        <time>2012-12-30T14:54:18Z</time>
      </trkpt>
      <trkpt lat="43.75232" lon="7.25333">
        <ele>425</ele>
        <time>2012-12-30T14:54:23Z</time>
      </trkpt>
      <trkpt lat="43.7523" lon="7.2534">
        <ele>425.20001220703</ele>
        <time>2012-12-30T14:54:26Z</time>
      </trkpt>
      <trkpt lat="43.7522" lon="7.25342">
        <ele>424.60000610352</ele>
        <time>2012-12-30T14:54:30Z</time>
      </trkpt>
      <trkpt lat="43.75206" lon="7.25348">
        <ele>424</ele>
        <time>2012-12-30T14:54:35Z</time>
      </trkpt>
      <trkpt lat="43.7519" lon="7.25358">
        <ele>422.79998779297</ele>
        <time>2012-12-30T14:54:40Z</time>
      </trkpt>
      <trkpt lat="43.7518" lon="7.25369">
        <ele>422</ele>
        <time>2012-12-30T14:54:43Z</time>
      </trkpt>
      <trkpt lat="43.75169" lon="7.25382">
        <ele>421</ele>
        <time>2012-12-30T14:54:47Z</time>
      </trkpt>
      <trkpt lat="43.75148" lon="7.25418">
        <ele>417.60000610352</ele>
        <time>2012-12-30T14:54:54Z</time>
      </trkpt>
      <trkpt lat="43.75133" lon="7.25446">
        <ele>416.60000610352</ele>
        <time>2012-12-30T14:54:59Z</time>
      </trkpt>
      <trkpt lat="43.75124" lon="7.25467">
        <ele>415.79998779297</ele>
        <time>2012-12-30T14:55:03Z</time>
      </trkpt>
      <trkpt lat="43.75121" lon="7.25473">
        <ele>415.60000610352</ele>
        <time>2012-12-30T14:55:04Z</time>
      </trkpt>
      <trkpt lat="43.7512" lon="7.25479">
        <ele>415.60000610352</ele>
        <time>2012-12-30T14:55:05Z</time>
      </trkpt>
      <trkpt lat="43.75117" lon="7.25491">
        <ele>415.39999389648</ele>
        <time>2012-12-30T14:55:07Z</time>
      </trkpt>
      <trkpt lat="43.75116" lon="7.25496">
        <ele>415.39999389648</ele>
        <time>2012-12-30T14:55:08Z</time>
      </trkpt>
      <trkpt lat="43.75111" lon="7.25508">
        <ele>415.60000610352</ele>
        <time>2012-12-30T14:55:11Z</time>
      </trkpt>
      <trkpt lat="43.75109" lon="7.2551">
        <ele>415.60000610352</ele>
        <time>2012-12-30T14:55:12Z</time>
      </trkpt>
      <trkpt lat="43.751" lon="7.25515">
        <ele>414.79998779297</ele>
        <time>2012-12-30T14:55:15Z</time>
      </trkpt>
      <trkpt lat="43.75096" lon="7.25516">
        <ele>414.39999389648</ele>
        <time>2012-12-30T14:55:16Z</time>
      </trkpt>
      <trkpt lat="43.75088" lon="7.25519">
        <ele>413.39999389648</ele>
        <time>2012-12-30T14:55:19Z</time>
      </trkpt>
      <trkpt lat="43.75085" lon="7.25519">
        <ele>412.79998779297</ele>
        <time>2012-12-30T14:55:20Z</time>
      </trkpt>
      <trkpt lat="43.75077" lon="7.2552">
        <ele>412.20001220703</ele>
        <time>2012-12-30T14:55:23Z</time>
      </trkpt>
      <trkpt lat="43.75072" lon="7.25522">
        <ele>412</ele>
        <time>2012-12-30T14:55:25Z</time>
      </trkpt>
      <trkpt lat="43.7507" lon="7.25521">
        <ele>411.60000610352</ele>
        <time>2012-12-30T14:55:26Z</time>
      </trkpt>
      <trkpt lat="43.75068" lon="7.2552">
        <ele>411.20001220703</ele>
        <time>2012-12-30T14:55:27Z</time>
      </trkpt>
      <trkpt lat="43.75063" lon="7.25521">
        <ele>411</ele>
        <time>2012-12-30T14:55:29Z</time>
      </trkpt>
      <trkpt lat="43.75061" lon="7.25522">
        <ele>411</ele>
        <time>2012-12-30T14:55:30Z</time>
      </trkpt>
      <trkpt lat="43.75058" lon="7.25524">
        <ele>411</ele>
        <time>2012-12-30T14:55:32Z</time>
      </trkpt>
      <trkpt lat="43.75055" lon="7.25524">
        <ele>410.79998779297</ele>
        <time>2012-12-30T14:55:33Z</time>
      </trkpt>
      <trkpt lat="43.75045" lon="7.25526">
        <ele>410</ele>
        <time>2012-12-30T14:55:36Z</time>
      </trkpt>
      <trkpt lat="43.75041" lon="7.25528">
        <ele>410</ele>
        <time>2012-12-30T14:55:37Z</time>
      </trkpt>
      <trkpt lat="43.75023" lon="7.25531">
        <ele>408.79998779297</ele>
        <time>2012-12-30T14:55:42Z</time>
      </trkpt>
      <trkpt lat="43.75008" lon="7.25536">
        <ele>408.20001220703</ele>
        <time>2012-12-30T14:55:46Z</time>
      </trkpt>
      <trkpt lat="43.74998" lon="7.25538">
        <ele>407.60000610352</ele>
        <time>2012-12-30T14:55:49Z</time>
      </trkpt>
      <trkpt lat="43.74994" lon="7.25537">
        <ele>407.39999389648</ele>
        <time>2012-12-30T14:55:50Z</time>
      </trkpt>
      <trkpt lat="43.74979" lon="7.2554">
        <ele>407.20001220703</ele>
        <time>2012-12-30T14:55:54Z</time>
      </trkpt>
      <trkpt lat="43.74965" lon="7.25543">
        <ele>407.20001220703</ele>
        <time>2012-12-30T14:55:58Z</time>
      </trkpt>
      <trkpt lat="43.74952" lon="7.25545">
        <ele>406.79998779297</ele>
        <time>2012-12-30T14:56:02Z</time>
      </trkpt>
      <trkpt lat="43.74936" lon="7.25549">
        <ele>407</ele>
        <time>2012-12-30T14:56:07Z</time>
      </trkpt>
      <trkpt lat="43.7493" lon="7.2555">
        <ele>406.79998779297</ele>
        <time>2012-12-30T14:56:09Z</time>
      </trkpt>
      <trkpt lat="43.74916" lon="7.25552">
        <ele>406.79998779297</ele>
        <time>2012-12-30T14:56:13Z</time>
      </trkpt>
      <trkpt lat="43.74901" lon="7.25554">
        <ele>406.79998779297</ele>
        <time>2012-12-30T14:56:19Z</time>
      </trkpt>
      <trkpt lat="43.74899" lon="7.25555">
        <ele>407</ele>
        <time>2012-12-30T14:56:20Z</time>
      </trkpt>
      <trkpt lat="43.7489" lon="7.25558">
        <ele>407.20001220703</ele>
        <time>2012-12-30T14:56:23Z</time>
      </trkpt>
      <trkpt lat="43.74881" lon="7.25557">
        <ele>407</ele>
        <time>2012-12-30T14:56:26Z</time>
      </trkpt>
      <trkpt lat="43.74872" lon="7.25557">
        <ele>406.79998779297</ele>
        <time>2012-12-30T14:56:28Z</time>
      </trkpt>
      <trkpt lat="43.74857" lon="7.25556">
        <ele>406.60000610352</ele>
        <time>2012-12-30T14:56:32Z</time>
      </trkpt>
      <trkpt lat="43.7485" lon="7.25558">
        <ele>406.79998779297</ele>
        <time>2012-12-30T14:56:34Z</time>
      </trkpt>
      <trkpt lat="43.74828" lon="7.25561">
        <ele>406.60000610352</ele>
        <time>2012-12-30T14:56:40Z</time>
      </trkpt>
      <trkpt lat="43.74821" lon="7.25562">
        <ele>406.39999389648</ele>
        <time>2012-12-30T14:56:42Z</time>
      </trkpt>
      <trkpt lat="43.74816" lon="7.25562">
        <ele>406.20001220703</ele>
        <time>2012-12-30T14:56:44Z</time>
      </trkpt>
      <trkpt lat="43.74813" lon="7.25561">
        <ele>405.79998779297</ele>
        <time>2012-12-30T14:56:47Z</time>
      </trkpt>
      <trkpt lat="43.74811" lon="7.25561">
        <ele>405.60000610352</ele>
        <time>2012-12-30T14:56:48Z</time>
      </trkpt>
      <trkpt lat="43.74808" lon="7.2556">
        <ele>405.39999389648</ele>
        <time>2012-12-30T14:56:49Z</time>
      </trkpt>
      <trkpt lat="43.74797" lon="7.25562">
        <ele>405.20001220703</ele>
        <time>2012-12-30T14:56:53Z</time>
      </trkpt>
      <trkpt lat="43.74797" lon="7.25562">
        <ele>405.20001220703</ele>
        <time>2012-12-30T14:56:54Z</time>
      </trkpt>
      <trkpt lat="43.7479" lon="7.25563">
        <ele>404.79998779297</ele>
        <time>2012-12-30T14:56:59Z</time>
      </trkpt>
      <trkpt lat="43.7477" lon="7.25566">
        <ele>404.20001220703</ele>
        <time>2012-12-30T14:57:04Z</time>
      </trkpt>
      <trkpt lat="43.74762" lon="7.25567">
        <ele>404</ele>
        <time>2012-12-30T14:57:06Z</time>
      </trkpt>
      <trkpt lat="43.7474" lon="7.25568">
        <ele>403.39999389648</ele>
        <time>2012-12-30T14:57:11Z</time>
      </trkpt>
      <trkpt lat="43.74716" lon="7.25564">
        <ele>402.20001220703</ele>
        <time>2012-12-30T14:57:16Z</time>
      </trkpt>
      <trkpt lat="43.74698" lon="7.25563">
        <ele>401.79998779297</ele>
        <time>2012-12-30T14:57:20Z</time>
      </trkpt>
      <trkpt lat="43.74696" lon="7.25563">
        <ele>401.79998779297</ele>
        <time>2012-12-30T14:57:21Z</time>
      </trkpt>
      <trkpt lat="43.74686" lon="7.25566">
        <ele>401.79998779297</ele>
        <time>2012-12-30T14:57:26Z</time>
      </trkpt>
      <trkpt lat="43.74677" lon="7.25572">
        <ele>402.20001220703</ele>
        <time>2012-12-30T14:57:31Z</time>
      </trkpt>
      <trkpt lat="43.74673" lon="7.25574">
        <ele>402.39999389648</ele>
        <time>2012-12-30T14:57:33Z</time>
      </trkpt>
      <trkpt lat="43.74672" lon="7.25575">
        <ele>402.39999389648</ele>
        <time>2012-12-30T14:57:36Z</time>
      </trkpt>
      <trkpt lat="43.74672" lon="7.25576">
        <ele>402.39999389648</ele>
        <time>2012-12-30T14:57:38Z</time>
      </trkpt>
      <trkpt lat="43.74671" lon="7.25577">
        <ele>402.39999389648</ele>
        <time>2012-12-30T14:57:42Z</time>
      </trkpt>
      <trkpt lat="43.74664" lon="7.25581">
        <ele>402.39999389648</ele>
        <time>2012-12-30T14:57:48Z</time>
      </trkpt>
      <trkpt lat="43.74655" lon="7.25585">
        <ele>402.20001220703</ele>
        <time>2012-12-30T14:57:57Z</time>
      </trkpt>
      <trkpt lat="43.74651" lon="7.25585">
        <ele>402</ele>
        <time>2012-12-30T14:58:00Z</time>
      </trkpt>
      <trkpt lat="43.74649" lon="7.25585">
        <ele>401.79998779297</ele>
        <time>2012-12-30T14:58:01Z</time>
      </trkpt>
      <trkpt lat="43.74636" lon="7.25584">
        <ele>400.60000610352</ele>
        <time>2012-12-30T14:58:08Z</time>
      </trkpt>
      <trkpt lat="43.74634" lon="7.25585">
        <ele>400.60000610352</ele>
        <time>2012-12-30T14:58:09Z</time>
      </trkpt>
      <trkpt lat="43.7463" lon="7.25588">
        <ele>400.79998779297</ele>
        <time>2012-12-30T14:58:12Z</time>
      </trkpt>
      <trkpt lat="43.74621" lon="7.25592">
        <ele>400.60000610352</ele>
        <time>2012-12-30T14:58:16Z</time>
      </trkpt>
      <trkpt lat="43.74617" lon="7.25592">
        <ele>400.20001220703</ele>
        <time>2012-12-30T14:58:17Z</time>
      </trkpt>
      <trkpt lat="43.74614" lon="7.25592">
        <ele>400</ele>
        <time>2012-12-30T14:58:18Z</time>
      </trkpt>
      <trkpt lat="43.74598" lon="7.25593">
        <ele>399</ele>
        <time>2012-12-30T14:58:24Z</time>
      </trkpt>
      <trkpt lat="43.74596" lon="7.25593">
        <ele>398.79998779297</ele>
        <time>2012-12-30T14:58:25Z</time>
      </trkpt>
      <trkpt lat="43.74594" lon="7.25593">
        <ele>398.60000610352</ele>
        <time>2012-12-30T14:58:26Z</time>
      </trkpt>
      <trkpt lat="43.74583" lon="7.25595">
        <ele>398</ele>
        <time>2012-12-30T14:58:30Z</time>
      </trkpt>
      <trkpt lat="43.74569" lon="7.25608">
        <ele>398.39999389648</ele>
        <time>2012-12-30T14:58:35Z</time>
      </trkpt>
      <trkpt lat="43.74562" lon="7.25622">
        <ele>399</ele>
        <time>2012-12-30T14:58:39Z</time>
      </trkpt>
      <trkpt lat="43.74562" lon="7.25625">
        <ele>399</ele>
        <time>2012-12-30T14:58:40Z</time>
      </trkpt>
      <trkpt lat="43.74558" lon="7.25639">
        <ele>399.60000610352</ele>
        <time>2012-12-30T14:58:45Z</time>
      </trkpt>
      <trkpt lat="43.74556" lon="7.25645">
        <ele>399.79998779297</ele>
        <time>2012-12-30T14:58:47Z</time>
      </trkpt>
      <trkpt lat="43.74545" lon="7.25668">
        <ele>399.39999389648</ele>
        <time>2012-12-30T14:58:54Z</time>
      </trkpt>
      <trkpt lat="43.74542" lon="7.25672">
        <ele>399.79998779297</ele>
        <time>2012-12-30T14:58:56Z</time>
      </trkpt>
      <trkpt lat="43.74538" lon="7.25689">
        <ele>401.20001220703</ele>
        <time>2012-12-30T14:59:04Z</time>
      </trkpt>
      <trkpt lat="43.74536" lon="7.25693">
        <ele>401.39999389648</ele>
        <time>2012-12-30T14:59:09Z</time>
      </trkpt>
      <trkpt lat="43.74535" lon="7.25696">
        <ele>401.79998779297</ele>
        <time>2012-12-30T14:59:12Z</time>
      </trkpt>
      <trkpt lat="43.74535" lon="7.25697">
        <ele>401.79998779297</ele>
        <time>2012-12-30T14:59:13Z</time>
      </trkpt>
      <trkpt lat="43.74533" lon="7.25701">
        <ele>402</ele>
        <time>2012-12-30T14:59:15Z</time>
      </trkpt>
      <trkpt lat="43.74532" lon="7.25705">
        <ele>402.39999389648</ele>
        <time>2012-12-30T14:59:17Z</time>
      </trkpt>
      <trkpt lat="43.7453" lon="7.2571">
        <ele>402.60000610352</ele>
        <time>2012-12-30T14:59:22Z</time>
      </trkpt>
      <trkpt lat="43.74525" lon="7.25714">
        <ele>402.20001220703</ele>
        <time>2012-12-30T14:59:27Z</time>
      </trkpt>
      <trkpt lat="43.74511" lon="7.25724">
        <ele>401</ele>
        <time>2012-12-30T14:59:33Z</time>
      </trkpt>
      <trkpt lat="43.74493" lon="7.25735">
        <ele>399</ele>
        <time>2012-12-30T14:59:39Z</time>
      </trkpt>
      <trkpt lat="43.74479" lon="7.25749">
        <ele>397.39999389648</ele>
        <time>2012-12-30T14:59:45Z</time>
      </trkpt>
      <trkpt lat="43.74465" lon="7.25766">
        <ele>395.20001220703</ele>
        <time>2012-12-30T14:59:51Z</time>
      </trkpt>
      <trkpt lat="43.7446" lon="7.25776">
        <ele>394.39999389648</ele>
        <time>2012-12-30T14:59:54Z</time>
      </trkpt>
      <trkpt lat="43.74456" lon="7.25781">
        <ele>393.79998779297</ele>
        <time>2012-12-30T14:59:56Z</time>
      </trkpt>
      <trkpt lat="43.74452" lon="7.25788">
        <ele>392.79998779297</ele>
        <time>2012-12-30T14:59:59Z</time>
      </trkpt>
      <trkpt lat="43.74451" lon="7.25793">
        <ele>392.60000610352</ele>
        <time>2012-12-30T15:00:01Z</time>
      </trkpt>
      <trkpt lat="43.74448" lon="7.25796">
        <ele>392</ele>
        <time>2012-12-30T15:00:03Z</time>
      </trkpt>
      <trkpt lat="43.74443" lon="7.25803">
        <ele>390.79998779297</ele>
        <time>2012-12-30T15:00:06Z</time>
      </trkpt>
      <trkpt lat="43.74434" lon="7.25818">
        <ele>388.39999389648</ele>
        <time>2012-12-30T15:00:12Z</time>
      </trkpt>
      <trkpt lat="43.74429" lon="7.25825">
        <ele>387</ele>
        <time>2012-12-30T15:00:15Z</time>
      </trkpt>
      <trkpt lat="43.74429" lon="7.25828">
        <ele>386.79998779297</ele>
        <time>2012-12-30T15:00:17Z</time>
      </trkpt>
      <trkpt lat="43.74426" lon="7.25838">
        <ele>385.60000610352</ele>
        <time>2012-12-30T15:00:22Z</time>
      </trkpt>
      <trkpt lat="43.74424" lon="7.25843">
        <ele>384.79998779297</ele>
        <time>2012-12-30T15:00:24Z</time>
      </trkpt>
      <trkpt lat="43.74424" lon="7.25846">
        <ele>384.60000610352</ele>
        <time>2012-12-30T15:00:25Z</time>
      </trkpt>
      <trkpt lat="43.74425" lon="7.2585">
        <ele>384.60000610352</ele>
        <time>2012-12-30T15:00:26Z</time>
      </trkpt>
      <trkpt lat="43.74426" lon="7.25857">
        <ele>384.39999389648</ele>
        <time>2012-12-30T15:00:28Z</time>
      </trkpt>
      <trkpt lat="43.74426" lon="7.25869">
        <ele>383.60000610352</ele>
        <time>2012-12-30T15:00:32Z</time>
      </trkpt>
      <trkpt lat="43.74425" lon="7.25872">
        <ele>383.39999389648</ele>
        <time>2012-12-30T15:00:33Z</time>
      </trkpt>
      <trkpt lat="43.74426" lon="7.25888">
        <ele>382.79998779297</ele>
        <time>2012-12-30T15:00:38Z</time>
      </trkpt>
      <trkpt lat="43.74428" lon="7.2589">
        <ele>383</ele>
        <time>2012-12-30T15:00:39Z</time>
      </trkpt>
      <trkpt lat="43.7443" lon="7.25898">
        <ele>383.39999389648</ele>
        <time>2012-12-30T15:00:42Z</time>
      </trkpt>
      <trkpt lat="43.74431" lon="7.259">
        <ele>383.60000610352</ele>
        <time>2012-12-30T15:00:43Z</time>
      </trkpt>
      <trkpt lat="43.74433" lon="7.25903">
        <ele>384</ele>
        <time>2012-12-30T15:00:44Z</time>
      </trkpt>
      <trkpt lat="43.74434" lon="7.25906">
        <ele>384.20001220703</ele>
        <time>2012-12-30T15:00:45Z</time>
      </trkpt>
      <trkpt lat="43.7444" lon="7.25929">
        <ele>383.60000610352</ele>
        <time>2012-12-30T15:00:51Z</time>
      </trkpt>
      <trkpt lat="43.74438" lon="7.25929">
        <ele>383</ele>
        <time>2012-12-30T15:00:53Z</time>
      </trkpt>
      <trkpt lat="43.74437" lon="7.25928">
        <ele>382.79998779297</ele>
        <time>2012-12-30T15:00:54Z</time>
      </trkpt>
      <trkpt lat="43.74435" lon="7.25932">
        <ele>381.79998779297</ele>
        <time>2012-12-30T15:00:57Z</time>
      </trkpt>
      <trkpt lat="43.74437" lon="7.25935">
        <ele>382</ele>
        <time>2012-12-30T15:00:59Z</time>
      </trkpt>
      <trkpt lat="43.74438" lon="7.25936">
        <ele>381.79998779297</ele>
        <time>2012-12-30T15:01:00Z</time>
      </trkpt>
      <trkpt lat="43.74438" lon="7.2594">
        <ele>381.39999389648</ele>
        <time>2012-12-30T15:01:02Z</time>
      </trkpt>
      <trkpt lat="43.7444" lon="7.25957">
        <ele>379.39999389648</ele>
        <time>2012-12-30T15:01:06Z</time>
      </trkpt>
      <trkpt lat="43.74448" lon="7.25978">
        <ele>378.39999389648</ele>
        <time>2012-12-30T15:01:10Z</time>
      </trkpt>
      <trkpt lat="43.74454" lon="7.25989">
        <ele>378.60000610352</ele>
        <time>2012-12-30T15:01:13Z</time>
      </trkpt>
      <trkpt lat="43.74459" lon="7.26015">
        <ele>375.39999389648</ele>
        <time>2012-12-30T15:01:17Z</time>
      </trkpt>
      <trkpt lat="43.7447" lon="7.26053">
        <ele>370.60000610352</ele>
        <time>2012-12-30T15:01:22Z</time>
      </trkpt>
      <trkpt lat="43.74477" lon="7.26069">
        <ele>368.39999389648</ele>
        <time>2012-12-30T15:01:24Z</time>
      </trkpt>
      <trkpt lat="43.7448" lon="7.26077">
        <ele>367.39999389648</ele>
        <time>2012-12-30T15:01:25Z</time>
      </trkpt>
      <trkpt lat="43.74485" lon="7.2609">
        <ele>365.39999389648</ele>
        <time>2012-12-30T15:01:27Z</time>
      </trkpt>
      <trkpt lat="43.74493" lon="7.26095">
        <ele>365.60000610352</ele>
        <time>2012-12-30T15:01:30Z</time>
      </trkpt>
      <trkpt lat="43.74494" lon="7.26096">
        <ele>365.60000610352</ele>
        <time>2012-12-30T15:01:31Z</time>
      </trkpt>
      <trkpt lat="43.74498" lon="7.261">
        <ele>365.60000610352</ele>
        <time>2012-12-30T15:01:33Z</time>
      </trkpt>
      <trkpt lat="43.74505" lon="7.26107">
        <ele>365</ele>
        <time>2012-12-30T15:01:35Z</time>
      </trkpt>
      <trkpt lat="43.74522" lon="7.26123">
        <ele>363.20001220703</ele>
        <time>2012-12-30T15:01:39Z</time>
      </trkpt>
      <trkpt lat="43.74545" lon="7.26151">
        <ele>357.79998779297</ele>
        <time>2012-12-30T15:01:44Z</time>
      </trkpt>
      <trkpt lat="43.74553" lon="7.26161">
        <ele>355</ele>
        <time>2012-12-30T15:01:47Z</time>
      </trkpt>
      <trkpt lat="43.74555" lon="7.26164">
        <ele>354.39999389648</ele>
        <time>2012-12-30T15:01:48Z</time>
      </trkpt>
      <trkpt lat="43.74557" lon="7.26166">
        <ele>353.79998779297</ele>
        <time>2012-12-30T15:01:49Z</time>
      </trkpt>
      <trkpt lat="43.74557" lon="7.26175">
        <ele>351.79998779297</ele>
        <time>2012-12-30T15:01:52Z</time>
      </trkpt>
      <trkpt lat="43.74557" lon="7.2618">
        <ele>350.79998779297</ele>
        <time>2012-12-30T15:01:55Z</time>
      </trkpt>
      <trkpt lat="43.74558" lon="7.26183">
        <ele>350.20001220703</ele>
        <time>2012-12-30T15:01:58Z</time>
      </trkpt>
      <trkpt lat="43.74558" lon="7.26183">
        <ele>350.20001220703</ele>
        <time>2012-12-30T15:01:59Z</time>
      </trkpt>
      <trkpt lat="43.74557" lon="7.26184">
        <ele>349.79998779297</ele>
        <time>2012-12-30T15:02:00Z</time>
      </trkpt>
      <trkpt lat="43.74556" lon="7.26192">
        <ele>348.20001220703</ele>
        <time>2012-12-30T15:02:02Z</time>
      </trkpt>
      <trkpt lat="43.74553" lon="7.26194">
        <ele>347.60000610352</ele>
        <time>2012-12-30T15:02:05Z</time>
      </trkpt>
      <trkpt lat="43.74552" lon="7.26195">
        <ele>347.39999389648</ele>
        <time>2012-12-30T15:02:07Z</time>
      </trkpt>
      <trkpt lat="43.74553" lon="7.26196">
        <ele>347.20001220703</ele>
        <time>2012-12-30T15:02:10Z</time>
      </trkpt>
      <trkpt lat="43.74554" lon="7.26198">
        <ele>346.79998779297</ele>
        <time>2012-12-30T15:02:15Z</time>
      </trkpt>
      <trkpt lat="43.74556" lon="7.26198">
        <ele>346.79998779297</ele>
        <time>2012-12-30T15:02:18Z</time>
      </trkpt>
      <trkpt lat="43.74552" lon="7.26204">
        <ele>345.39999389648</ele>
        <time>2012-12-30T15:02:23Z</time>
      </trkpt>
      <trkpt lat="43.74549" lon="7.26204">
        <ele>345.20001220703</ele>
        <time>2012-12-30T15:02:24Z</time>
      </trkpt>
      <trkpt lat="43.74544" lon="7.2621">
        <ele>343.79998779297</ele>
        <time>2012-12-30T15:02:27Z</time>
      </trkpt>
      <trkpt lat="43.74546" lon="7.26222">
        <ele>341.39999389648</ele>
        <time>2012-12-30T15:02:30Z</time>
      </trkpt>
      <trkpt lat="43.74546" lon="7.26225">
        <ele>340.60000610352</ele>
        <time>2012-12-30T15:02:31Z</time>
      </trkpt>
      <trkpt lat="43.74546" lon="7.26226">
        <ele>340.39999389648</ele>
        <time>2012-12-30T15:02:32Z</time>
      </trkpt>
      <trkpt lat="43.74546" lon="7.26227">
        <ele>340.20001220703</ele>
        <time>2012-12-30T15:02:35Z</time>
      </trkpt>
      <trkpt lat="43.74549" lon="7.26226">
        <ele>340.60000610352</ele>
        <time>2012-12-30T15:02:42Z</time>
      </trkpt>
      <trkpt lat="43.74549" lon="7.26225">
        <ele>340.60000610352</ele>
        <time>2012-12-30T15:02:48Z</time>
      </trkpt>
      <trkpt lat="43.74548" lon="7.26226">
        <ele>340.39999389648</ele>
        <time>2012-12-30T15:02:51Z</time>
      </trkpt>
      <trkpt lat="43.74548" lon="7.26226">
        <ele>340.39999389648</ele>
        <time>2012-12-30T15:02:52Z</time>
      </trkpt>
      <trkpt lat="43.74551" lon="7.26231">
        <ele>339.60000610352</ele>
        <time>2012-12-30T15:03:17Z</time>
      </trkpt>
      <trkpt lat="43.74553" lon="7.26231">
        <ele>339.39999389648</ele>
        <time>2012-12-30T15:03:29Z</time>
      </trkpt>
      <trkpt lat="43.74551" lon="7.26232">
        <ele>339.20001220703</ele>
        <time>2012-12-30T15:03:45Z</time>
      </trkpt>
      <trkpt lat="43.74546" lon="7.26241">
        <ele>337</ele>
        <time>2012-12-30T15:03:53Z</time>
      </trkpt>
      <trkpt lat="43.74543" lon="7.26246">
        <ele>336</ele>
        <time>2012-12-30T15:03:54Z</time>
      </trkpt>
      <trkpt lat="43.74536" lon="7.2625">
        <ele>334.60000610352</ele>
        <time>2012-12-30T15:03:56Z</time>
      </trkpt>
      <trkpt lat="43.74517" lon="7.26255">
        <ele>332.20001220703</ele>
        <time>2012-12-30T15:04:00Z</time>
      </trkpt>
      <trkpt lat="43.74506" lon="7.26264">
        <ele>329.20001220703</ele>
        <time>2012-12-30T15:04:03Z</time>
      </trkpt>
      <trkpt lat="43.74504" lon="7.26269">
        <ele>327.60000610352</ele>
        <time>2012-12-30T15:04:04Z</time>
      </trkpt>
      <trkpt lat="43.74501" lon="7.26275">
        <ele>325.79998779297</ele>
        <time>2012-12-30T15:04:05Z</time>
      </trkpt>
      <trkpt lat="43.74496" lon="7.26285">
        <ele>322.79998779297</ele>
        <time>2012-12-30T15:04:07Z</time>
      </trkpt>
      <trkpt lat="43.74488" lon="7.26295">
        <ele>320.39999389648</ele>
        <time>2012-12-30T15:04:09Z</time>
      </trkpt>
      <trkpt lat="43.74471" lon="7.26323">
        <ele>314</ele>
        <time>2012-12-30T15:04:14Z</time>
      </trkpt>
      <trkpt lat="43.74467" lon="7.26326">
        <ele>313.60000610352</ele>
        <time>2012-12-30T15:04:15Z</time>
      </trkpt>
      <trkpt lat="43.74456" lon="7.26328">
        <ele>313.79998779297</ele>
        <time>2012-12-30T15:04:17Z</time>
      </trkpt>
      <trkpt lat="43.74438" lon="7.26327">
        <ele>315.60000610352</ele>
        <time>2012-12-30T15:04:21Z</time>
      </trkpt>
      <trkpt lat="43.74434" lon="7.26326">
        <ele>316</ele>
        <time>2012-12-30T15:04:22Z</time>
      </trkpt>
      <trkpt lat="43.74429" lon="7.26327">
        <ele>316.20001220703</ele>
        <time>2012-12-30T15:04:23Z</time>
      </trkpt>
      <trkpt lat="43.74425" lon="7.26334">
        <ele>315.20001220703</ele>
        <time>2012-12-30T15:04:26Z</time>
      </trkpt>
      <trkpt lat="43.74425" lon="7.26334">
        <ele>315.20001220703</ele>
        <time>2012-12-30T15:04:27Z</time>
      </trkpt>
      <trkpt lat="43.74426" lon="7.26335">
        <ele>315</ele>
        <time>2012-12-30T15:04:30Z</time>
      </trkpt>
      <trkpt lat="43.74426" lon="7.26335">
        <ele>315</ele>
        <time>2012-12-30T15:04:34Z</time>
      </trkpt>
      <trkpt lat="43.74429" lon="7.26338">
        <ele>314.39999389648</ele>
        <time>2012-12-30T15:04:37Z</time>
      </trkpt>
      <trkpt lat="43.74433" lon="7.26338">
        <ele>314</ele>
        <time>2012-12-30T15:04:39Z</time>
      </trkpt>
      <trkpt lat="43.74438" lon="7.26337">
        <ele>313.60000610352</ele>
        <time>2012-12-30T15:04:41Z</time>
      </trkpt>
      <trkpt lat="43.74451" lon="7.26333">
        <ele>313</ele>
        <time>2012-12-30T15:04:45Z</time>
      </trkpt>
      <trkpt lat="43.74475" lon="7.26328">
        <ele>312.39999389648</ele>
        <time>2012-12-30T15:04:51Z</time>
      </trkpt>
      <trkpt lat="43.74485" lon="7.26326">
        <ele>312</ele>
        <time>2012-12-30T15:04:53Z</time>
      </trkpt>
      <trkpt lat="43.74509" lon="7.26324">
        <ele>312</ele>
        <time>2012-12-30T15:04:57Z</time>
      </trkpt>
      <trkpt lat="43.74515" lon="7.26326">
        <ele>311.60000610352</ele>
        <time>2012-12-30T15:04:58Z</time>
      </trkpt>
      <trkpt lat="43.7454" lon="7.26348">
        <ele>307.60000610352</ele>
        <time>2012-12-30T15:05:02Z</time>
      </trkpt>
      <trkpt lat="43.74562" lon="7.26367">
        <ele>304</ele>
        <time>2012-12-30T15:05:06Z</time>
      </trkpt>
      <trkpt lat="43.74567" lon="7.2637">
        <ele>303.39999389648</ele>
        <time>2012-12-30T15:05:07Z</time>
      </trkpt>
      <trkpt lat="43.74582" lon="7.26376">
        <ele>302.60000610352</ele>
        <time>2012-12-30T15:05:10Z</time>
      </trkpt>
      <trkpt lat="43.74592" lon="7.26377">
        <ele>302.79998779297</ele>
        <time>2012-12-30T15:05:12Z</time>
      </trkpt>
      <trkpt lat="43.74614" lon="7.26376">
        <ele>304.39999389648</ele>
        <time>2012-12-30T15:05:18Z</time>
      </trkpt>
      <trkpt lat="43.74622" lon="7.26373">
        <ele>305.39999389648</ele>
        <time>2012-12-30T15:05:20Z</time>
      </trkpt>
      <trkpt lat="43.74635" lon="7.26369">
        <ele>307.20001220703</ele>
        <time>2012-12-30T15:05:24Z</time>
      </trkpt>
      <trkpt lat="43.7466" lon="7.26369">
        <ele>308.60000610352</ele>
        <time>2012-12-30T15:05:31Z</time>
      </trkpt>
      <trkpt lat="43.74678" lon="7.2638">
        <ele>306.39999389648</ele>
        <time>2012-12-30T15:05:37Z</time>
      </trkpt>
      <trkpt lat="43.74693" lon="7.26385">
        <ele>305.39999389648</ele>
        <time>2012-12-30T15:05:42Z</time>
      </trkpt>
      <trkpt lat="43.7471" lon="7.26383">
        <ele>306</ele>
        <time>2012-12-30T15:05:48Z</time>
      </trkpt>
      <trkpt lat="43.74723" lon="7.2638">
        <ele>306.79998779297</ele>
        <time>2012-12-30T15:05:52Z</time>
      </trkpt>
      <trkpt lat="43.74733" lon="7.26378">
        <ele>307.39999389648</ele>
        <time>2012-12-30T15:05:55Z</time>
      </trkpt>
      <trkpt lat="43.74751" lon="7.26379">
        <ele>307.60000610352</ele>
        <time>2012-12-30T15:06:01Z</time>
      </trkpt>
      <trkpt lat="43.74765" lon="7.26381">
        <ele>308.79998779297</ele>
        <time>2012-12-30T15:06:06Z</time>
      </trkpt>
      <trkpt lat="43.74775" lon="7.26385">
        <ele>309</ele>
        <time>2012-12-30T15:06:09Z</time>
      </trkpt>
      <trkpt lat="43.74788" lon="7.26391">
        <ele>309.39999389648</ele>
        <time>2012-12-30T15:06:13Z</time>
      </trkpt>
      <trkpt lat="43.74807" lon="7.26401">
        <ele>309.39999389648</ele>
        <time>2012-12-30T15:06:19Z</time>
      </trkpt>
      <trkpt lat="43.74821" lon="7.26408">
        <ele>309.39999389648</ele>
        <time>2012-12-30T15:06:23Z</time>
      </trkpt>
      <trkpt lat="43.74826" lon="7.26411">
        <ele>309.60000610352</ele>
        <time>2012-12-30T15:06:25Z</time>
      </trkpt>
      <trkpt lat="43.74857" lon="7.2642">
        <ele>310.20001220703</ele>
        <time>2012-12-30T15:06:34Z</time>
      </trkpt>
      <trkpt lat="43.74874" lon="7.26423">
        <ele>311.39999389648</ele>
        <time>2012-12-30T15:06:39Z</time>
      </trkpt>
      <trkpt lat="43.74897" lon="7.2643">
        <ele>311.79998779297</ele>
        <time>2012-12-30T15:06:45Z</time>
      </trkpt>
      <trkpt lat="43.74906" lon="7.26436">
        <ele>311.39999389648</ele>
        <time>2012-12-30T15:06:47Z</time>
      </trkpt>
      <trkpt lat="43.74918" lon="7.26452">
        <ele>308.79998779297</ele>
        <time>2012-12-30T15:06:51Z</time>
      </trkpt>
      <trkpt lat="43.7492" lon="7.26457">
        <ele>307.79998779297</ele>
        <time>2012-12-30T15:06:52Z</time>
      </trkpt>
      <trkpt lat="43.74926" lon="7.26473">
        <ele>304.79998779297</ele>
        <time>2012-12-30T15:06:55Z</time>
      </trkpt>
      <trkpt lat="43.74929" lon="7.26479">
        <ele>304</ele>
        <time>2012-12-30T15:06:56Z</time>
      </trkpt>
      <trkpt lat="43.74947" lon="7.26503">
        <ele>302</ele>
        <time>2012-12-30T15:07:01Z</time>
      </trkpt>
      <trkpt lat="43.74963" lon="7.26517">
        <ele>302.20001220703</ele>
        <time>2012-12-30T15:07:06Z</time>
      </trkpt>
      <trkpt lat="43.74976" lon="7.26528">
        <ele>302.39999389648</ele>
        <time>2012-12-30T15:07:10Z</time>
      </trkpt>
      <trkpt lat="43.74987" lon="7.26535">
        <ele>302.79998779297</ele>
        <time>2012-12-30T15:07:13Z</time>
      </trkpt>
      <trkpt lat="43.75002" lon="7.26541">
        <ele>303.60000610352</ele>
        <time>2012-12-30T15:07:16Z</time>
      </trkpt>
      <trkpt lat="43.75007" lon="7.26541">
        <ele>303.39999389648</ele>
        <time>2012-12-30T15:07:17Z</time>
      </trkpt>
      <trkpt lat="43.75011" lon="7.26542">
        <ele>303.20001220703</ele>
        <time>2012-12-30T15:07:18Z</time>
      </trkpt>
      <trkpt lat="43.75024" lon="7.26543">
        <ele>303</ele>
        <time>2012-12-30T15:07:21Z</time>
      </trkpt>
      <trkpt lat="43.75035" lon="7.26543">
        <ele>302.79998779297</ele>
        <time>2012-12-30T15:07:24Z</time>
      </trkpt>
      <trkpt lat="43.75039" lon="7.26543">
        <ele>302.79998779297</ele>
        <time>2012-12-30T15:07:26Z</time>
      </trkpt>
      <trkpt lat="43.75043" lon="7.26543">
        <ele>302.79998779297</ele>
        <time>2012-12-30T15:07:29Z</time>
      </trkpt>
      <trkpt lat="43.75044" lon="7.26543">
        <ele>302.79998779297</ele>
        <time>2012-12-30T15:07:34Z</time>
      </trkpt>
      <trkpt lat="43.75045" lon="7.26543">
        <ele>302.79998779297</ele>
        <time>2012-12-30T15:07:36Z</time>
      </trkpt>
      <trkpt lat="43.75049" lon="7.26543">
        <ele>302.79998779297</ele>
        <time>2012-12-30T15:07:47Z</time>
      </trkpt>
      <trkpt lat="43.75051" lon="7.26544">
        <ele>302.39999389648</ele>
        <time>2012-12-30T15:07:56Z</time>
      </trkpt>
      <trkpt lat="43.75049" lon="7.26545">
        <ele>302</ele>
        <time>2012-12-30T15:08:07Z</time>
      </trkpt>
      <trkpt lat="43.75049" lon="7.26546">
        <ele>301.79998779297</ele>
        <time>2012-12-30T15:08:08Z</time>
      </trkpt>
      <trkpt lat="43.75049" lon="7.26545">
        <ele>302</ele>
        <time>2012-12-30T15:08:19Z</time>
      </trkpt>
      <trkpt lat="43.75048" lon="7.26547">
        <ele>301.60000610352</ele>
        <time>2012-12-30T15:08:40Z</time>
      </trkpt>
      <trkpt lat="43.75046" lon="7.26549">
        <ele>301</ele>
        <time>2012-12-30T15:08:43Z</time>
      </trkpt>
      <trkpt lat="43.75046" lon="7.2655">
        <ele>300.60000610352</ele>
        <time>2012-12-30T15:08:44Z</time>
      </trkpt>
      <trkpt lat="43.75046" lon="7.26555">
        <ele>299.20001220703</ele>
        <time>2012-12-30T15:08:50Z</time>
      </trkpt>
      <trkpt lat="43.75045" lon="7.26558">
        <ele>298.20001220703</ele>
        <time>2012-12-30T15:08:54Z</time>
      </trkpt>
      <trkpt lat="43.75045" lon="7.26559">
        <ele>298</ele>
        <time>2012-12-30T15:08:55Z</time>
      </trkpt>
      <trkpt lat="43.75045" lon="7.26558">
        <ele>298.20001220703</ele>
        <time>2012-12-30T15:08:57Z</time>
      </trkpt>
      <trkpt lat="43.7504" lon="7.26563">
        <ele>297</ele>
        <time>2012-12-30T15:09:01Z</time>
      </trkpt>
      <trkpt lat="43.7504" lon="7.26568">
        <ele>295.39999389648</ele>
        <time>2012-12-30T15:09:03Z</time>
      </trkpt>
      <trkpt lat="43.7504" lon="7.26571">
        <ele>294.79998779297</ele>
        <time>2012-12-30T15:09:05Z</time>
      </trkpt>
      <trkpt lat="43.75039" lon="7.26571">
        <ele>294.60000610352</ele>
        <time>2012-12-30T15:09:08Z</time>
      </trkpt>
      <trkpt lat="43.7504" lon="7.26571">
        <ele>294.60000610352</ele>
        <time>2012-12-30T15:09:09Z</time>
      </trkpt>
      <trkpt lat="43.7504" lon="7.26571">
        <ele>294.60000610352</ele>
        <time>2012-12-30T15:09:11Z</time>
      </trkpt>
      <trkpt lat="43.75035" lon="7.26575">
        <ele>293.60000610352</ele>
        <time>2012-12-30T15:09:16Z</time>
      </trkpt>
      <trkpt lat="43.75034" lon="7.26574">
        <ele>293.79998779297</ele>
        <time>2012-12-30T15:09:22Z</time>
      </trkpt>
      <trkpt lat="43.75033" lon="7.26573">
        <ele>294.20001220703</ele>
        <time>2012-12-30T15:09:26Z</time>
      </trkpt>
      <trkpt lat="43.75031" lon="7.26573">
        <ele>294.20001220703</ele>
        <time>2012-12-30T15:09:40Z</time>
      </trkpt>
      <trkpt lat="43.75031" lon="7.26573">
        <ele>294.20001220703</ele>
        <time>2012-12-30T15:09:43Z</time>
      </trkpt>
      <trkpt lat="43.75031" lon="7.26574">
        <ele>294.20001220703</ele>
        <time>2012-12-30T15:09:56Z</time>
      </trkpt>
      <trkpt lat="43.75031" lon="7.26573">
        <ele>294.39999389648</ele>
        <time>2012-12-30T15:09:57Z</time>
      </trkpt>
      <trkpt lat="43.75032" lon="7.26574">
        <ele>294.20001220703</ele>
        <time>2012-12-30T15:10:26Z</time>
      </trkpt>
      <trkpt lat="43.75032" lon="7.26574">
        <ele>294</ele>
        <time>2012-12-30T15:10:28Z</time>
      </trkpt>
      <trkpt lat="43.75034" lon="7.26575">
        <ele>293.60000610352</ele>
        <time>2012-12-30T15:10:33Z</time>
      </trkpt>
      <trkpt lat="43.75033" lon="7.26575">
        <ele>293.79998779297</ele>
        <time>2012-12-30T15:10:35Z</time>
      </trkpt>
      <trkpt lat="43.75033" lon="7.26575">
        <ele>293.79998779297</ele>
        <time>2012-12-30T15:10:42Z</time>
      </trkpt>
      <trkpt lat="43.75032" lon="7.26575">
        <ele>293.60000610352</ele>
        <time>2012-12-30T15:10:52Z</time>
      </trkpt>
      <trkpt lat="43.75029" lon="7.26581">
        <ele>292.39999389648</ele>
        <time>2012-12-30T15:11:09Z</time>
      </trkpt>
      <trkpt lat="43.75026" lon="7.26583">
        <ele>291.79998779297</ele>
        <time>2012-12-30T15:11:10Z</time>
      </trkpt>
      <trkpt lat="43.75021" lon="7.26587">
        <ele>291</ele>
        <time>2012-12-30T15:11:14Z</time>
      </trkpt>
      <trkpt lat="43.7502" lon="7.26592">
        <ele>289.60000610352</ele>
        <time>2012-12-30T15:11:17Z</time>
      </trkpt>
      <trkpt lat="43.75018" lon="7.26596">
        <ele>288.60000610352</ele>
        <time>2012-12-30T15:11:19Z</time>
      </trkpt>
      <trkpt lat="43.75005" lon="7.26608">
        <ele>285.79998779297</ele>
        <time>2012-12-30T15:11:23Z</time>
      </trkpt>
      <trkpt lat="43.74993" lon="7.26625">
        <ele>280.79998779297</ele>
        <time>2012-12-30T15:11:26Z</time>
      </trkpt>
      <trkpt lat="43.74988" lon="7.26632">
        <ele>278.60000610352</ele>
        <time>2012-12-30T15:11:27Z</time>
      </trkpt>
      <trkpt lat="43.74975" lon="7.26647">
        <ele>273.60000610352</ele>
        <time>2012-12-30T15:11:30Z</time>
      </trkpt>
      <trkpt lat="43.74971" lon="7.26652">
        <ele>272</ele>
        <time>2012-12-30T15:11:31Z</time>
      </trkpt>
      <trkpt lat="43.74966" lon="7.26656">
        <ele>270.60000610352</ele>
        <time>2012-12-30T15:11:32Z</time>
      </trkpt>
      <trkpt lat="43.74956" lon="7.26666">
        <ele>267.39999389648</ele>
        <time>2012-12-30T15:11:35Z</time>
      </trkpt>
      <trkpt lat="43.74957" lon="7.26667">
        <ele>267</ele>
        <time>2012-12-30T15:11:36Z</time>
      </trkpt>
      <trkpt lat="43.74956" lon="7.26669">
        <ele>266.39999389648</ele>
        <time>2012-12-30T15:11:37Z</time>
      </trkpt>
      <trkpt lat="43.74957" lon="7.26669">
        <ele>266.60000610352</ele>
        <time>2012-12-30T15:11:38Z</time>
      </trkpt>
      <trkpt lat="43.74958" lon="7.2667">
        <ele>266.39999389648</ele>
        <time>2012-12-30T15:11:49Z</time>
      </trkpt>
      <trkpt lat="43.74959" lon="7.2667">
        <ele>266.39999389648</ele>
        <time>2012-12-30T15:11:55Z</time>
      </trkpt>
      <trkpt lat="43.74959" lon="7.2667">
        <ele>266.20001220703</ele>
        <time>2012-12-30T15:11:56Z</time>
      </trkpt>
      <trkpt lat="43.74959" lon="7.2667">
        <ele>266.39999389648</ele>
        <time>2012-12-30T15:12:02Z</time>
      </trkpt>
      <trkpt lat="43.74959" lon="7.2667">
        <ele>266.60000610352</ele>
        <time>2012-12-30T15:12:07Z</time>
      </trkpt>
      <trkpt lat="43.74959" lon="7.2667">
        <ele>266.60000610352</ele>
        <time>2012-12-30T15:12:11Z</time>
      </trkpt>
      <trkpt lat="43.74958" lon="7.26674">
        <ele>265.20001220703</ele>
        <time>2012-12-30T15:12:19Z</time>
      </trkpt>
      <trkpt lat="43.74958" lon="7.26673">
        <ele>265.39999389648</ele>
        <time>2012-12-30T15:12:20Z</time>
      </trkpt>
      <trkpt lat="43.74957" lon="7.26675">
        <ele>264.79998779297</ele>
        <time>2012-12-30T15:12:32Z</time>
      </trkpt>
      <trkpt lat="43.74954" lon="7.26682">
        <ele>262.39999389648</ele>
        <time>2012-12-30T15:12:37Z</time>
      </trkpt>
      <trkpt lat="43.74948" lon="7.26694">
        <ele>258.39999389648</ele>
        <time>2012-12-30T15:12:41Z</time>
      </trkpt>
      <trkpt lat="43.74947" lon="7.26697">
        <ele>257.39999389648</ele>
        <time>2012-12-30T15:12:42Z</time>
      </trkpt>
      <trkpt lat="43.74941" lon="7.26713">
        <ele>252.19999694824</ele>
        <time>2012-12-30T15:12:47Z</time>
      </trkpt>
      <trkpt lat="43.74936" lon="7.2673">
        <ele>246.80000305176</ele>
        <time>2012-12-30T15:12:51Z</time>
      </trkpt>
      <trkpt lat="43.74928" lon="7.26758">
        <ele>238.19999694824</ele>
        <time>2012-12-30T15:12:57Z</time>
      </trkpt>
      <trkpt lat="43.7492" lon="7.26771">
        <ele>234</ele>
        <time>2012-12-30T15:13:01Z</time>
      </trkpt>
      <trkpt lat="43.74909" lon="7.26786">
        <ele>227.80000305176</ele>
        <time>2012-12-30T15:13:05Z</time>
      </trkpt>
      <trkpt lat="43.74898" lon="7.26802">
        <ele>221</ele>
        <time>2012-12-30T15:13:09Z</time>
      </trkpt>
      <trkpt lat="43.74889" lon="7.26813">
        <ele>215.80000305176</ele>
        <time>2012-12-30T15:13:13Z</time>
      </trkpt>
      <trkpt lat="43.74886" lon="7.26818">
        <ele>214</ele>
        <time>2012-12-30T15:13:15Z</time>
      </trkpt>
      <trkpt lat="43.7488" lon="7.26825">
        <ele>210.80000305176</ele>
        <time>2012-12-30T15:13:18Z</time>
      </trkpt>
      <trkpt lat="43.74878" lon="7.26827">
        <ele>210</ele>
        <time>2012-12-30T15:13:19Z</time>
      </trkpt>
      <trkpt lat="43.74876" lon="7.26828">
        <ele>208.80000305176</ele>
        <time>2012-12-30T15:13:20Z</time>
      </trkpt>
      <trkpt lat="43.74867" lon="7.26831">
        <ele>206.39999389648</ele>
        <time>2012-12-30T15:13:23Z</time>
      </trkpt>
      <trkpt lat="43.74853" lon="7.26828">
        <ele>204.19999694824</ele>
        <time>2012-12-30T15:13:27Z</time>
      </trkpt>
      <trkpt lat="43.74851" lon="7.26826">
        <ele>204.39999389648</ele>
        <time>2012-12-30T15:13:29Z</time>
      </trkpt>
      <trkpt lat="43.74851" lon="7.26826">
        <ele>204.60000610352</ele>
        <time>2012-12-30T15:13:30Z</time>
      </trkpt>
      <trkpt lat="43.74851" lon="7.26825">
        <ele>204.60000610352</ele>
        <time>2012-12-30T15:13:31Z</time>
      </trkpt>
      <trkpt lat="43.74851" lon="7.26826">
        <ele>204.39999389648</ele>
        <time>2012-12-30T15:13:36Z</time>
      </trkpt>
      <trkpt lat="43.74857" lon="7.2683">
        <ele>204.39999389648</ele>
        <time>2012-12-30T15:13:45Z</time>
      </trkpt>
      <trkpt lat="43.74858" lon="7.26834">
        <ele>203.80000305176</ele>
        <time>2012-12-30T15:13:55Z</time>
      </trkpt>
      <trkpt lat="43.7486" lon="7.26836">
        <ele>204</ele>
        <time>2012-12-30T15:13:57Z</time>
      </trkpt>
      <trkpt lat="43.7486" lon="7.26837">
        <ele>204</ele>
        <time>2012-12-30T15:13:59Z</time>
      </trkpt>
      <trkpt lat="43.74859" lon="7.26838">
        <ele>203.80000305176</ele>
        <time>2012-12-30T15:14:03Z</time>
      </trkpt>
      <trkpt lat="43.74859" lon="7.26838">
        <ele>203.80000305176</ele>
        <time>2012-12-30T15:14:06Z</time>
      </trkpt>
      <trkpt lat="43.74858" lon="7.26839">
        <ele>203.39999389648</ele>
        <time>2012-12-30T15:14:16Z</time>
      </trkpt>
      <trkpt lat="43.74857" lon="7.26838">
        <ele>203.39999389648</ele>
        <time>2012-12-30T15:14:27Z</time>
      </trkpt>
      <trkpt lat="43.74855" lon="7.26841">
        <ele>202.60000610352</ele>
        <time>2012-12-30T15:14:40Z</time>
      </trkpt>
      <trkpt lat="43.74855" lon="7.2684">
        <ele>202.80000305176</ele>
        <time>2012-12-30T15:14:41Z</time>
      </trkpt>
      <trkpt lat="43.74855" lon="7.2684">
        <ele>202.80000305176</ele>
        <time>2012-12-30T15:14:42Z</time>
      </trkpt>
      <trkpt lat="43.74858" lon="7.2684">
        <ele>203.39999389648</ele>
        <time>2012-12-30T15:14:50Z</time>
      </trkpt>
      <trkpt lat="43.74858" lon="7.2684">
        <ele>203.39999389648</ele>
        <time>2012-12-30T15:14:51Z</time>
      </trkpt>
      <trkpt lat="43.74859" lon="7.26841">
        <ele>203.39999389648</ele>
        <time>2012-12-30T15:14:52Z</time>
      </trkpt>
      <trkpt lat="43.74859" lon="7.26846">
        <ele>203</ele>
        <time>2012-12-30T15:15:05Z</time>
      </trkpt>
      <trkpt lat="43.7486" lon="7.26847">
        <ele>203.19999694824</ele>
        <time>2012-12-30T15:15:10Z</time>
      </trkpt>
      <trkpt lat="43.7486" lon="7.26849">
        <ele>203</ele>
        <time>2012-12-30T15:15:14Z</time>
      </trkpt>
      <trkpt lat="43.7486" lon="7.2685">
        <ele>202.80000305176</ele>
        <time>2012-12-30T15:15:16Z</time>
      </trkpt>
      <trkpt lat="43.7486" lon="7.2685">
        <ele>203</ele>
        <time>2012-12-30T15:15:18Z</time>
      </trkpt>
      <trkpt lat="43.74863" lon="7.26848">
        <ele>203.60000610352</ele>
        <time>2012-12-30T15:15:30Z</time>
      </trkpt>
      <trkpt lat="43.74861" lon="7.26846">
        <ele>203.39999389648</ele>
        <time>2012-12-30T15:16:04Z</time>
      </trkpt>
      <trkpt lat="43.74859" lon="7.26849">
        <ele>202.80000305176</ele>
        <time>2012-12-30T15:16:08Z</time>
      </trkpt>
      <trkpt lat="43.74859" lon="7.26854">
        <ele>202.39999389648</ele>
        <time>2012-12-30T15:16:10Z</time>
      </trkpt>
      <trkpt lat="43.74856" lon="7.26862">
        <ele>201.19999694824</ele>
        <time>2012-12-30T15:16:12Z</time>
      </trkpt>
      <trkpt lat="43.74857" lon="7.26868">
        <ele>200.80000305176</ele>
        <time>2012-12-30T15:16:13Z</time>
      </trkpt>
      <trkpt lat="43.74857" lon="7.26881">
        <ele>199.80000305176</ele>
        <time>2012-12-30T15:16:15Z</time>
      </trkpt>
      <trkpt lat="43.74858" lon="7.2692">
        <ele>197</ele>
        <time>2012-12-30T15:16:20Z</time>
      </trkpt>
      <trkpt lat="43.74856" lon="7.26959">
        <ele>198</ele>
        <time>2012-12-30T15:16:24Z</time>
      </trkpt>
      <trkpt lat="43.74853" lon="7.26971">
        <ele>198</ele>
        <time>2012-12-30T15:16:26Z</time>
      </trkpt>
      <trkpt lat="43.74852" lon="7.2698">
        <ele>198</ele>
        <time>2012-12-30T15:16:28Z</time>
      </trkpt>
      <trkpt lat="43.7485" lon="7.26991">
        <ele>198.19999694824</ele>
        <time>2012-12-30T15:16:31Z</time>
      </trkpt>
      <trkpt lat="43.7485" lon="7.26995">
        <ele>198.19999694824</ele>
        <time>2012-12-30T15:16:32Z</time>
      </trkpt>
      <trkpt lat="43.74849" lon="7.27">
        <ele>198.19999694824</ele>
        <time>2012-12-30T15:16:33Z</time>
      </trkpt>
      <trkpt lat="43.74846" lon="7.27009">
        <ele>198</ele>
        <time>2012-12-30T15:16:35Z</time>
      </trkpt>
      <trkpt lat="43.74841" lon="7.27019">
        <ele>197.39999389648</ele>
        <time>2012-12-30T15:16:37Z</time>
      </trkpt>
      <trkpt lat="43.74839" lon="7.27025">
        <ele>197.19999694824</ele>
        <time>2012-12-30T15:16:38Z</time>
      </trkpt>
      <trkpt lat="43.74834" lon="7.27064">
        <ele>196.80000305176</ele>
        <time>2012-12-30T15:16:43Z</time>
      </trkpt>
      <trkpt lat="43.74828" lon="7.27089">
        <ele>197.80000305176</ele>
        <time>2012-12-30T15:16:46Z</time>
      </trkpt>
      <trkpt lat="43.74834" lon="7.27096">
        <ele>195.60000610352</ele>
        <time>2012-12-30T15:16:48Z</time>
      </trkpt>
      <trkpt lat="43.74837" lon="7.27096">
        <ele>196.19999694824</ele>
        <time>2012-12-30T15:16:51Z</time>
      </trkpt>
      <trkpt lat="43.74838" lon="7.27098">
        <ele>196.19999694824</ele>
        <time>2012-12-30T15:16:55Z</time>
      </trkpt>
      <trkpt lat="43.74837" lon="7.27104">
        <ele>195.39999389648</ele>
        <time>2012-12-30T15:16:58Z</time>
      </trkpt>
      <trkpt lat="43.74837" lon="7.27108">
        <ele>194.80000305176</ele>
        <time>2012-12-30T15:17:00Z</time>
      </trkpt>
      <trkpt lat="43.74836" lon="7.27116">
        <ele>193.80000305176</ele>
        <time>2012-12-30T15:17:05Z</time>
      </trkpt>
      <trkpt lat="43.74837" lon="7.27119">
        <ele>193.60000610352</ele>
        <time>2012-12-30T15:17:07Z</time>
      </trkpt>
      <trkpt lat="43.74836" lon="7.27127">
        <ele>192.60000610352</ele>
        <time>2012-12-30T15:17:10Z</time>
      </trkpt>
      <trkpt lat="43.74833" lon="7.27138">
        <ele>190.39999389648</ele>
        <time>2012-12-30T15:17:15Z</time>
      </trkpt>
      <trkpt lat="43.74834" lon="7.27141">
        <ele>190.19999694824</ele>
        <time>2012-12-30T15:17:16Z</time>
      </trkpt>
      <trkpt lat="43.74829" lon="7.27151">
        <ele>189.80000305176</ele>
        <time>2012-12-30T15:17:21Z</time>
      </trkpt>
      <trkpt lat="43.74824" lon="7.27167">
        <ele>189.60000610352</ele>
        <time>2012-12-30T15:17:27Z</time>
      </trkpt>
      <trkpt lat="43.74816" lon="7.27189">
        <ele>190.39999389648</ele>
        <time>2012-12-30T15:17:32Z</time>
      </trkpt>
      <trkpt lat="43.74815" lon="7.27193">
        <ele>190.39999389648</ele>
        <time>2012-12-30T15:17:33Z</time>
      </trkpt>
      <trkpt lat="43.74804" lon="7.27211">
        <ele>191</ele>
        <time>2012-12-30T15:17:38Z</time>
      </trkpt>
      <trkpt lat="43.748" lon="7.27221">
        <ele>190.80000305176</ele>
        <time>2012-12-30T15:17:43Z</time>
      </trkpt>
      <trkpt lat="43.74801" lon="7.27219">
        <ele>190.80000305176</ele>
        <time>2012-12-30T15:17:46Z</time>
      </trkpt>
      <trkpt lat="43.74804" lon="7.27218">
        <ele>190.39999389648</ele>
        <time>2012-12-30T15:17:48Z</time>
      </trkpt>
      <trkpt lat="43.74803" lon="7.27215">
        <ele>190.80000305176</ele>
        <time>2012-12-30T15:17:52Z</time>
      </trkpt>
      <trkpt lat="43.74802" lon="7.27213">
        <ele>191.19999694824</ele>
        <time>2012-12-30T15:17:57Z</time>
      </trkpt>
      <trkpt lat="43.74801" lon="7.27213">
        <ele>191.60000610352</ele>
        <time>2012-12-30T15:17:59Z</time>
      </trkpt>
      <trkpt lat="43.74801" lon="7.27211">
        <ele>191.60000610352</ele>
        <time>2012-12-30T15:18:03Z</time>
      </trkpt>
      <trkpt lat="43.74801" lon="7.27212">
        <ele>191.39999389648</ele>
        <time>2012-12-30T15:18:05Z</time>
      </trkpt>
      <trkpt lat="43.74803" lon="7.27216">
        <ele>190.80000305176</ele>
        <time>2012-12-30T15:18:07Z</time>
      </trkpt>
      <trkpt lat="43.74798" lon="7.27218">
        <ele>191.39999389648</ele>
        <time>2012-12-30T15:18:11Z</time>
      </trkpt>
      <trkpt lat="43.74797" lon="7.27218">
        <ele>191.60000610352</ele>
        <time>2012-12-30T15:18:12Z</time>
      </trkpt>
      <trkpt lat="43.74788" lon="7.27217">
        <ele>193.19999694824</ele>
        <time>2012-12-30T15:18:16Z</time>
      </trkpt>
      <trkpt lat="43.74786" lon="7.27218">
        <ele>193.39999389648</ele>
        <time>2012-12-30T15:18:18Z</time>
      </trkpt>
      <trkpt lat="43.7478" lon="7.2722">
        <ele>194</ele>
        <time>2012-12-30T15:18:22Z</time>
      </trkpt>
      <trkpt lat="43.74778" lon="7.2722">
        <ele>194.19999694824</ele>
        <time>2012-12-30T15:18:24Z</time>
      </trkpt>
      <trkpt lat="43.74777" lon="7.27222">
        <ele>194.19999694824</ele>
        <time>2012-12-30T15:18:27Z</time>
      </trkpt>
      <trkpt lat="43.74776" lon="7.27224">
        <ele>194</ele>
        <time>2012-12-30T15:18:31Z</time>
      </trkpt>
      <trkpt lat="43.74773" lon="7.27231">
        <ele>193.19999694824</ele>
        <time>2012-12-30T15:18:39Z</time>
      </trkpt>
      <trkpt lat="43.74772" lon="7.27232">
        <ele>193.19999694824</ele>
        <time>2012-12-30T15:18:40Z</time>
      </trkpt>
      <trkpt lat="43.74771" lon="7.27235">
        <ele>192.80000305176</ele>
        <time>2012-12-30T15:18:42Z</time>
      </trkpt>
      <trkpt lat="43.74771" lon="7.27236">
        <ele>192.60000610352</ele>
        <time>2012-12-30T15:18:43Z</time>
      </trkpt>
      <trkpt lat="43.74771" lon="7.27238">
        <ele>192.19999694824</ele>
        <time>2012-12-30T15:18:44Z</time>
      </trkpt>
      <trkpt lat="43.74771" lon="7.27243">
        <ele>191.39999389648</ele>
        <time>2012-12-30T15:18:48Z</time>
      </trkpt>
      <trkpt lat="43.74765" lon="7.27256">
        <ele>189.80000305176</ele>
        <time>2012-12-30T15:19:09Z</time>
      </trkpt>
      <trkpt lat="43.74755" lon="7.27262">
        <ele>189.19999694824</ele>
        <time>2012-12-30T15:19:15Z</time>
      </trkpt>
      <trkpt lat="43.74749" lon="7.27273">
        <ele>187</ele>
        <time>2012-12-30T15:19:22Z</time>
      </trkpt>
      <trkpt lat="43.74743" lon="7.27286">
        <ele>186.60000610352</ele>
        <time>2012-12-30T15:19:30Z</time>
      </trkpt>
      <trkpt lat="43.74734" lon="7.27296">
        <ele>187.39999389648</ele>
        <time>2012-12-30T15:19:36Z</time>
      </trkpt>
      <trkpt lat="43.74725" lon="7.27295">
        <ele>191.39999389648</ele>
        <time>2012-12-30T15:19:41Z</time>
      </trkpt>
      <trkpt lat="43.74715" lon="7.27293">
        <ele>196.19999694824</ele>
        <time>2012-12-30T15:19:48Z</time>
      </trkpt>
      <trkpt lat="43.74714" lon="7.27293">
        <ele>196.60000610352</ele>
        <time>2012-12-30T15:19:50Z</time>
      </trkpt>
      <trkpt lat="43.74712" lon="7.27298">
        <ele>196.39999389648</ele>
        <time>2012-12-30T15:19:54Z</time>
      </trkpt>
      <trkpt lat="43.74704" lon="7.27302">
        <ele>198.19999694824</ele>
        <time>2012-12-30T15:20:03Z</time>
      </trkpt>
      <trkpt lat="43.74701" lon="7.27303">
        <ele>199.19999694824</ele>
        <time>2012-12-30T15:20:05Z</time>
      </trkpt>
      <trkpt lat="43.747" lon="7.27303">
        <ele>199.80000305176</ele>
        <time>2012-12-30T15:20:07Z</time>
      </trkpt>
      <trkpt lat="43.74697" lon="7.27304">
        <ele>200.60000610352</ele>
        <time>2012-12-30T15:20:14Z</time>
      </trkpt>
      <trkpt lat="43.74697" lon="7.27305">
        <ele>200.19999694824</ele>
        <time>2012-12-30T15:20:15Z</time>
      </trkpt>
      <trkpt lat="43.74696" lon="7.27312">
        <ele>199.19999694824</ele>
        <time>2012-12-30T15:20:26Z</time>
      </trkpt>
      <trkpt lat="43.74694" lon="7.27312">
        <ele>199.80000305176</ele>
        <time>2012-12-30T15:20:28Z</time>
      </trkpt>
      <trkpt lat="43.74693" lon="7.27313">
        <ele>199.80000305176</ele>
        <time>2012-12-30T15:20:30Z</time>
      </trkpt>
      <trkpt lat="43.74693" lon="7.27317">
        <ele>198.80000305176</ele>
        <time>2012-12-30T15:20:32Z</time>
      </trkpt>
      <trkpt lat="43.74693" lon="7.27318">
        <ele>198.80000305176</ele>
        <time>2012-12-30T15:20:33Z</time>
      </trkpt>
      <trkpt lat="43.74692" lon="7.27317">
        <ele>199.39999389648</ele>
        <time>2012-12-30T15:20:34Z</time>
      </trkpt>
      <trkpt lat="43.74691" lon="7.27313">
        <ele>200.60000610352</ele>
        <time>2012-12-30T15:20:39Z</time>
      </trkpt>
      <trkpt lat="43.74689" lon="7.27314">
        <ele>201</ele>
        <time>2012-12-30T15:20:40Z</time>
      </trkpt>
      <trkpt lat="43.74688" lon="7.27315">
        <ele>201.39999389648</ele>
        <time>2012-12-30T15:20:42Z</time>
      </trkpt>
      <trkpt lat="43.74688" lon="7.27315">
        <ele>201.60000610352</ele>
        <time>2012-12-30T15:20:44Z</time>
      </trkpt>
      <trkpt lat="43.74685" lon="7.27312">
        <ele>203</ele>
        <time>2012-12-30T15:20:57Z</time>
      </trkpt>
      <trkpt lat="43.74685" lon="7.27314">
        <ele>202.60000610352</ele>
        <time>2012-12-30T15:21:00Z</time>
      </trkpt>
      <trkpt lat="43.74686" lon="7.27314">
        <ele>202.19999694824</ele>
        <time>2012-12-30T15:21:01Z</time>
      </trkpt>
      <trkpt lat="43.74688" lon="7.27318">
        <ele>200.60000610352</ele>
        <time>2012-12-30T15:21:05Z</time>
      </trkpt>
      <trkpt lat="43.74691" lon="7.27315">
        <ele>200.19999694824</ele>
        <time>2012-12-30T15:21:09Z</time>
      </trkpt>
      <trkpt lat="43.74689" lon="7.27315">
        <ele>200.60000610352</ele>
        <time>2012-12-30T15:21:12Z</time>
      </trkpt>
      <trkpt lat="43.74687" lon="7.27315">
        <ele>201.80000305176</ele>
        <time>2012-12-30T15:21:14Z</time>
      </trkpt>
      <trkpt lat="43.74686" lon="7.27316">
        <ele>202</ele>
        <time>2012-12-30T15:21:16Z</time>
      </trkpt>
      <trkpt lat="43.74683" lon="7.27324">
        <ele>201.19999694824</ele>
        <time>2012-12-30T15:21:25Z</time>
      </trkpt>
      <trkpt lat="43.74684" lon="7.2732">
        <ele>201.80000305176</ele>
        <time>2012-12-30T15:21:29Z</time>
      </trkpt>
      <trkpt lat="43.74684" lon="7.27319">
        <ele>202</ele>
        <time>2012-12-30T15:21:30Z</time>
      </trkpt>
      <trkpt lat="43.74683" lon="7.27317">
        <ele>202.60000610352</ele>
        <time>2012-12-30T15:21:33Z</time>
      </trkpt>
      <trkpt lat="43.7468" lon="7.27317">
        <ele>204</ele>
        <time>2012-12-30T15:21:37Z</time>
      </trkpt>
      <trkpt lat="43.74677" lon="7.27315">
        <ele>205.80000305176</ele>
        <time>2012-12-30T15:21:40Z</time>
      </trkpt>
      <trkpt lat="43.74678" lon="7.27316">
        <ele>205.19999694824</ele>
        <time>2012-12-30T15:21:43Z</time>
      </trkpt>
      <trkpt lat="43.74677" lon="7.27316">
        <ele>205.39999389648</ele>
        <time>2012-12-30T15:21:44Z</time>
      </trkpt>
      <trkpt lat="43.74672" lon="7.27316">
        <ele>207.19999694824</ele>
        <time>2012-12-30T15:21:48Z</time>
      </trkpt>
      <trkpt lat="43.74672" lon="7.27316">
        <ele>207.60000610352</ele>
        <time>2012-12-30T15:21:49Z</time>
      </trkpt>
      <trkpt lat="43.74667" lon="7.27315">
        <ele>209.39999389648</ele>
        <time>2012-12-30T15:21:53Z</time>
      </trkpt>
      <trkpt lat="43.74666" lon="7.27315">
        <ele>210.19999694824</ele>
        <time>2012-12-30T15:21:55Z</time>
      </trkpt>
      <trkpt lat="43.74666" lon="7.27315">
        <ele>210</ele>
        <time>2012-12-30T15:21:58Z</time>
      </trkpt>
      <trkpt lat="43.74666" lon="7.27316">
        <ele>209.80000305176</ele>
        <time>2012-12-30T15:21:59Z</time>
      </trkpt>
      <trkpt lat="43.74668" lon="7.27318">
        <ele>208.60000610352</ele>
        <time>2012-12-30T15:22:04Z</time>
      </trkpt>
      <trkpt lat="43.74668" lon="7.27317">
        <ele>208.60000610352</ele>
        <time>2012-12-30T15:22:05Z</time>
      </trkpt>
      <trkpt lat="43.74662" lon="7.27318">
        <ele>210.39999389648</ele>
        <time>2012-12-30T15:22:14Z</time>
      </trkpt>
      <trkpt lat="43.74662" lon="7.27324">
        <ele>209</ele>
        <time>2012-12-30T15:22:21Z</time>
      </trkpt>
      <trkpt lat="43.7466" lon="7.27325">
        <ele>209.39999389648</ele>
        <time>2012-12-30T15:22:25Z</time>
      </trkpt>
      <trkpt lat="43.74655" lon="7.27323">
        <ele>212.19999694824</ele>
        <time>2012-12-30T15:22:31Z</time>
      </trkpt>
      <trkpt lat="43.74657" lon="7.27322">
        <ele>211.80000305176</ele>
        <time>2012-12-30T15:22:34Z</time>
      </trkpt>
      <trkpt lat="43.74658" lon="7.27321">
        <ele>211.60000610352</ele>
        <time>2012-12-30T15:22:38Z</time>
      </trkpt>
      <trkpt lat="43.74661" lon="7.27319">
        <ele>211</ele>
        <time>2012-12-30T15:22:43Z</time>
      </trkpt>
      <trkpt lat="43.74667" lon="7.27318">
        <ele>208.60000610352</ele>
        <time>2012-12-30T15:22:51Z</time>
      </trkpt>
      <trkpt lat="43.74665" lon="7.27321">
        <ele>208.80000305176</ele>
        <time>2012-12-30T15:22:53Z</time>
      </trkpt>
      <trkpt lat="43.74664" lon="7.27322">
        <ele>208.80000305176</ele>
        <time>2012-12-30T15:22:55Z</time>
      </trkpt>
      <trkpt lat="43.74667" lon="7.27324">
        <ele>207.19999694824</ele>
        <time>2012-12-30T15:22:59Z</time>
      </trkpt>
      <trkpt lat="43.74667" lon="7.27324">
        <ele>207</ele>
        <time>2012-12-30T15:23:03Z</time>
      </trkpt>
      <trkpt lat="43.74669" lon="7.27324">
        <ele>206.60000610352</ele>
        <time>2012-12-30T15:23:05Z</time>
      </trkpt>
      <trkpt lat="43.74669" lon="7.27324">
        <ele>206.39999389648</ele>
        <time>2012-12-30T15:23:06Z</time>
      </trkpt>
      <trkpt lat="43.74669" lon="7.27324">
        <ele>206.39999389648</ele>
        <time>2012-12-30T15:23:07Z</time>
      </trkpt>
      <trkpt lat="43.7467" lon="7.27324">
        <ele>205.80000305176</ele>
        <time>2012-12-30T15:23:12Z</time>
      </trkpt>
      <trkpt lat="43.74664" lon="7.27329">
        <ele>207</ele>
        <time>2012-12-30T15:23:20Z</time>
      </trkpt>
      <trkpt lat="43.74662" lon="7.2733">
        <ele>208</ele>
        <time>2012-12-30T15:23:21Z</time>
      </trkpt>
      <trkpt lat="43.74662" lon="7.27329">
        <ele>208.19999694824</ele>
        <time>2012-12-30T15:23:24Z</time>
      </trkpt>
      <trkpt lat="43.74661" lon="7.27326">
        <ele>209</ele>
        <time>2012-12-30T15:23:32Z</time>
      </trkpt>
      <trkpt lat="43.7466" lon="7.27325">
        <ele>209.60000610352</ele>
        <time>2012-12-30T15:23:33Z</time>
      </trkpt>
      <trkpt lat="43.7466" lon="7.27322">
        <ele>210.39999389648</ele>
        <time>2012-12-30T15:23:37Z</time>
      </trkpt>
      <trkpt lat="43.74661" lon="7.27322">
        <ele>210.19999694824</ele>
        <time>2012-12-30T15:23:42Z</time>
      </trkpt>
      <trkpt lat="43.74663" lon="7.27322">
        <ele>209.60000610352</ele>
        <time>2012-12-30T15:23:44Z</time>
      </trkpt>
      <trkpt lat="43.74675" lon="7.27319">
        <ele>205.19999694824</ele>
        <time>2012-12-30T15:24:11Z</time>
      </trkpt>
      <trkpt lat="43.74677" lon="7.2732">
        <ele>204.39999389648</ele>
        <time>2012-12-30T15:24:14Z</time>
      </trkpt>
      <trkpt lat="43.74677" lon="7.27325">
        <ele>203.19999694824</ele>
        <time>2012-12-30T15:24:24Z</time>
      </trkpt>
      <trkpt lat="43.74678" lon="7.27323">
        <ele>203.39999389648</ele>
        <time>2012-12-30T15:24:35Z</time>
      </trkpt>
      <trkpt lat="43.74679" lon="7.2732">
        <ele>203.60000610352</ele>
        <time>2012-12-30T15:24:42Z</time>
      </trkpt>
      <trkpt lat="43.74681" lon="7.2732">
        <ele>202.80000305176</ele>
        <time>2012-12-30T15:24:43Z</time>
      </trkpt>
      <trkpt lat="43.74681" lon="7.2732">
        <ele>202.80000305176</ele>
        <time>2012-12-30T15:24:45Z</time>
      </trkpt>
      <trkpt lat="43.74683" lon="7.27319">
        <ele>202.39999389648</ele>
        <time>2012-12-30T15:24:46Z</time>
      </trkpt>
      <trkpt lat="43.74683" lon="7.27319">
        <ele>202.19999694824</ele>
        <time>2012-12-30T15:24:47Z</time>
      </trkpt>
      <trkpt lat="43.74685" lon="7.27319">
        <ele>201.80000305176</ele>
        <time>2012-12-30T15:24:50Z</time>
      </trkpt>
      <trkpt lat="43.74687" lon="7.2732">
        <ele>200.60000610352</ele>
        <time>2012-12-30T15:24:52Z</time>
      </trkpt>
      <trkpt lat="43.74688" lon="7.27322">
        <ele>199.60000610352</ele>
        <time>2012-12-30T15:24:53Z</time>
      </trkpt>
      <trkpt lat="43.74691" lon="7.27327">
        <ele>197.19999694824</ele>
        <time>2012-12-30T15:24:59Z</time>
      </trkpt>
      <trkpt lat="43.74691" lon="7.27332">
        <ele>195.80000305176</ele>
        <time>2012-12-30T15:25:03Z</time>
      </trkpt>
      <trkpt lat="43.74691" lon="7.27335">
        <ele>195.60000610352</ele>
        <time>2012-12-30T15:25:05Z</time>
      </trkpt>
      <trkpt lat="43.74694" lon="7.27339">
        <ele>193.80000305176</ele>
        <time>2012-12-30T15:25:11Z</time>
      </trkpt>
      <trkpt lat="43.74696" lon="7.2734">
        <ele>193.19999694824</ele>
        <time>2012-12-30T15:25:13Z</time>
      </trkpt>
      <trkpt lat="43.747" lon="7.27346">
        <ele>191.19999694824</ele>
        <time>2012-12-30T15:25:19Z</time>
      </trkpt>
      <trkpt lat="43.747" lon="7.27346">
        <ele>191.19999694824</ele>
        <time>2012-12-30T15:25:25Z</time>
      </trkpt>
      <trkpt lat="43.74699" lon="7.27345">
        <ele>191.39999389648</ele>
        <time>2012-12-30T15:25:28Z</time>
      </trkpt>
      <trkpt lat="43.74704" lon="7.27346">
        <ele>189.39999389648</ele>
        <time>2012-12-30T15:25:55Z</time>
      </trkpt>
      <trkpt lat="43.74704" lon="7.27346">
        <ele>189.80000305176</ele>
        <time>2012-12-30T15:25:57Z</time>
      </trkpt>
      <trkpt lat="43.74702" lon="7.27348">
        <ele>190.19999694824</ele>
        <time>2012-12-30T15:26:05Z</time>
      </trkpt>
      <trkpt lat="43.74701" lon="7.27345">
        <ele>190.60000610352</ele>
        <time>2012-12-30T15:26:10Z</time>
      </trkpt>
      <trkpt lat="43.74699" lon="7.27345">
        <ele>191.39999389648</ele>
        <time>2012-12-30T15:26:16Z</time>
      </trkpt>
      <trkpt lat="43.74701" lon="7.27346">
        <ele>190.80000305176</ele>
        <time>2012-12-30T15:26:18Z</time>
      </trkpt>
      <trkpt lat="43.74702" lon="7.27345">
        <ele>190.39999389648</ele>
        <time>2012-12-30T15:26:29Z</time>
      </trkpt>
      <trkpt lat="43.74701" lon="7.27345">
        <ele>190.60000610352</ele>
        <time>2012-12-30T15:26:32Z</time>
      </trkpt>
      <trkpt lat="43.74701" lon="7.27344">
        <ele>191</ele>
        <time>2012-12-30T15:26:37Z</time>
      </trkpt>
      <trkpt lat="43.74702" lon="7.27348">
        <ele>190.19999694824</ele>
        <time>2012-12-30T15:26:52Z</time>
      </trkpt>
      <trkpt lat="43.74702" lon="7.27349">
        <ele>190.19999694824</ele>
        <time>2012-12-30T15:26:53Z</time>
      </trkpt>
      <trkpt lat="43.74709" lon="7.2735">
        <ele>187.60000610352</ele>
        <time>2012-12-30T15:26:58Z</time>
      </trkpt>
      <trkpt lat="43.74712" lon="7.27351">
        <ele>186.39999389648</ele>
        <time>2012-12-30T15:27:00Z</time>
      </trkpt>
      <trkpt lat="43.74712" lon="7.27351">
        <ele>186.39999389648</ele>
        <time>2012-12-30T15:27:01Z</time>
      </trkpt>
      <trkpt lat="43.74713" lon="7.27352">
        <ele>186</ele>
        <time>2012-12-30T15:27:04Z</time>
      </trkpt>
      <trkpt lat="43.74712" lon="7.27353">
        <ele>186.39999389648</ele>
        <time>2012-12-30T15:27:05Z</time>
      </trkpt>
      <trkpt lat="43.74713" lon="7.27355">
        <ele>185.80000305176</ele>
        <time>2012-12-30T15:27:11Z</time>
      </trkpt>
      <trkpt lat="43.74713" lon="7.27357">
        <ele>185.60000610352</ele>
        <time>2012-12-30T15:27:13Z</time>
      </trkpt>
      <trkpt lat="43.74712" lon="7.27364">
        <ele>185.60000610352</ele>
        <time>2012-12-30T15:27:19Z</time>
      </trkpt>
      <trkpt lat="43.74709" lon="7.27366">
        <ele>186.19999694824</ele>
        <time>2012-12-30T15:27:24Z</time>
      </trkpt>
      <trkpt lat="43.74709" lon="7.27368">
        <ele>186.39999389648</ele>
        <time>2012-12-30T15:27:26Z</time>
      </trkpt>
      <trkpt lat="43.74707" lon="7.2737">
        <ele>186.60000610352</ele>
        <time>2012-12-30T15:27:27Z</time>
      </trkpt>
      <trkpt lat="43.74706" lon="7.27377">
        <ele>186.80000305176</ele>
        <time>2012-12-30T15:27:29Z</time>
      </trkpt>
      <trkpt lat="43.74703" lon="7.27379">
        <ele>187.39999389648</ele>
        <time>2012-12-30T15:27:32Z</time>
      </trkpt>
      <trkpt lat="43.74702" lon="7.2738">
        <ele>187.60000610352</ele>
        <time>2012-12-30T15:27:36Z</time>
      </trkpt>
      <trkpt lat="43.74704" lon="7.27382">
        <ele>186.60000610352</ele>
        <time>2012-12-30T15:27:42Z</time>
      </trkpt>
      <trkpt lat="43.74702" lon="7.27383">
        <ele>187.60000610352</ele>
        <time>2012-12-30T15:27:45Z</time>
      </trkpt>
      <trkpt lat="43.74701" lon="7.27384">
        <ele>187.80000305176</ele>
        <time>2012-12-30T15:27:46Z</time>
      </trkpt>
      <trkpt lat="43.74699" lon="7.27385">
        <ele>188.19999694824</ele>
        <time>2012-12-30T15:27:50Z</time>
      </trkpt>
      <trkpt lat="43.74698" lon="7.27387">
        <ele>188.39999389648</ele>
        <time>2012-12-30T15:27:52Z</time>
      </trkpt>
      <trkpt lat="43.74697" lon="7.27388">
        <ele>188.60000610352</ele>
        <time>2012-12-30T15:27:53Z</time>
      </trkpt>
      <trkpt lat="43.74695" lon="7.2739">
        <ele>189</ele>
        <time>2012-12-30T15:27:55Z</time>
      </trkpt>
      <trkpt lat="43.74691" lon="7.27395">
        <ele>189.80000305176</ele>
        <time>2012-12-30T15:27:59Z</time>
      </trkpt>
      <trkpt lat="43.74689" lon="7.27396">
        <ele>190.19999694824</ele>
        <time>2012-12-30T15:28:01Z</time>
      </trkpt>
      <trkpt lat="43.74689" lon="7.27403">
        <ele>189.80000305176</ele>
        <time>2012-12-30T15:28:07Z</time>
      </trkpt>
      <trkpt lat="43.74688" lon="7.27414">
        <ele>189</ele>
        <time>2012-12-30T15:28:12Z</time>
      </trkpt>
      <trkpt lat="43.74681" lon="7.27421">
        <ele>189.80000305176</ele>
        <time>2012-12-30T15:28:18Z</time>
      </trkpt>
      <trkpt lat="43.74679" lon="7.27427">
        <ele>189.80000305176</ele>
        <time>2012-12-30T15:28:21Z</time>
      </trkpt>
      <trkpt lat="43.74678" lon="7.2743">
        <ele>189.60000610352</ele>
        <time>2012-12-30T15:28:24Z</time>
      </trkpt>
      <trkpt lat="43.74668" lon="7.27436">
        <ele>190.80000305176</ele>
        <time>2012-12-30T15:28:30Z</time>
      </trkpt>
      <trkpt lat="43.74666" lon="7.27442">
        <ele>190.19999694824</ele>
        <time>2012-12-30T15:28:32Z</time>
      </trkpt>
      <trkpt lat="43.74667" lon="7.27446">
        <ele>189.39999389648</ele>
        <time>2012-12-30T15:28:33Z</time>
      </trkpt>
      <trkpt lat="43.74666" lon="7.27449">
        <ele>189</ele>
        <time>2012-12-30T15:28:34Z</time>
      </trkpt>
      <trkpt lat="43.74661" lon="7.27465">
        <ele>188.60000610352</ele>
        <time>2012-12-30T15:28:39Z</time>
      </trkpt>
      <trkpt lat="43.74657" lon="7.27476">
        <ele>188.19999694824</ele>
        <time>2012-12-30T15:28:42Z</time>
      </trkpt>
      <trkpt lat="43.74654" lon="7.27485">
        <ele>188</ele>
        <time>2012-12-30T15:28:44Z</time>
      </trkpt>
      <trkpt lat="43.74646" lon="7.27503">
        <ele>188.19999694824</ele>
        <time>2012-12-30T15:28:48Z</time>
      </trkpt>
      <trkpt lat="43.74635" lon="7.2752">
        <ele>190</ele>
        <time>2012-12-30T15:28:53Z</time>
      </trkpt>
      <trkpt lat="43.74629" lon="7.27528">
        <ele>191.19999694824</ele>
        <time>2012-12-30T15:28:56Z</time>
      </trkpt>
      <trkpt lat="43.74624" lon="7.27533">
        <ele>192.80000305176</ele>
        <time>2012-12-30T15:28:58Z</time>
      </trkpt>
      <trkpt lat="43.74615" lon="7.27545">
        <ele>194.19999694824</ele>
        <time>2012-12-30T15:29:02Z</time>
      </trkpt>
      <trkpt lat="43.74605" lon="7.27559">
        <ele>196</ele>
        <time>2012-12-30T15:29:07Z</time>
      </trkpt>
      <trkpt lat="43.74597" lon="7.27579">
        <ele>195.39999389648</ele>
        <time>2012-12-30T15:29:13Z</time>
      </trkpt>
      <trkpt lat="43.74593" lon="7.27595">
        <ele>193.39999389648</ele>
        <time>2012-12-30T15:29:16Z</time>
      </trkpt>
      <trkpt lat="43.7459" lon="7.27599">
        <ele>193.80000305176</ele>
        <time>2012-12-30T15:29:17Z</time>
      </trkpt>
      <trkpt lat="43.7458" lon="7.27617">
        <ele>192</ele>
        <time>2012-12-30T15:29:23Z</time>
      </trkpt>
      <trkpt lat="43.74573" lon="7.27629">
        <ele>190.19999694824</ele>
        <time>2012-12-30T15:29:28Z</time>
      </trkpt>
      <trkpt lat="43.74564" lon="7.27643">
        <ele>188.39999389648</ele>
        <time>2012-12-30T15:29:34Z</time>
      </trkpt>
      <trkpt lat="43.74557" lon="7.27646">
        <ele>189.39999389648</ele>
        <time>2012-12-30T15:29:38Z</time>
      </trkpt>
      <trkpt lat="43.74555" lon="7.27646">
        <ele>189.60000610352</ele>
        <time>2012-12-30T15:29:39Z</time>
      </trkpt>
      <trkpt lat="43.74544" lon="7.27648">
        <ele>191.80000305176</ele>
        <time>2012-12-30T15:29:45Z</time>
      </trkpt>
      <trkpt lat="43.74543" lon="7.27646">
        <ele>192.60000610352</ele>
        <time>2012-12-30T15:29:46Z</time>
      </trkpt>
      <trkpt lat="43.74541" lon="7.27642">
        <ele>194.39999389648</ele>
        <time>2012-12-30T15:29:48Z</time>
      </trkpt>
      <trkpt lat="43.74538" lon="7.27637">
        <ele>196.39999389648</ele>
        <time>2012-12-30T15:29:50Z</time>
      </trkpt>
      <trkpt lat="43.74537" lon="7.27636">
        <ele>197.19999694824</ele>
        <time>2012-12-30T15:29:51Z</time>
      </trkpt>
      <trkpt lat="43.74527" lon="7.27631">
        <ele>201.19999694824</ele>
        <time>2012-12-30T15:29:57Z</time>
      </trkpt>
      <trkpt lat="43.74516" lon="7.27625">
        <ele>205.39999389648</ele>
        <time>2012-12-30T15:30:03Z</time>
      </trkpt>
      <trkpt lat="43.74505" lon="7.27635">
        <ele>205.19999694824</ele>
        <time>2012-12-30T15:30:09Z</time>
      </trkpt>
      <trkpt lat="43.74503" lon="7.27636">
        <ele>205.39999389648</ele>
        <time>2012-12-30T15:30:10Z</time>
      </trkpt>
      <trkpt lat="43.74489" lon="7.27642">
        <ele>207.60000610352</ele>
        <time>2012-12-30T15:30:17Z</time>
      </trkpt>
      <trkpt lat="43.74486" lon="7.27643">
        <ele>208.19999694824</ele>
        <time>2012-12-30T15:30:19Z</time>
      </trkpt>
      <trkpt lat="43.74482" lon="7.27644">
        <ele>209.19999694824</ele>
        <time>2012-12-30T15:30:23Z</time>
      </trkpt>
      <trkpt lat="43.74479" lon="7.2765">
        <ele>208.19999694824</ele>
        <time>2012-12-30T15:30:30Z</time>
      </trkpt>
      <trkpt lat="43.74479" lon="7.27651">
        <ele>207.80000305176</ele>
        <time>2012-12-30T15:30:31Z</time>
      </trkpt>
      <trkpt lat="43.74479" lon="7.27655">
        <ele>206.60000610352</ele>
        <time>2012-12-30T15:30:39Z</time>
      </trkpt>
      <trkpt lat="43.74477" lon="7.27658">
        <ele>206.19999694824</ele>
        <time>2012-12-30T15:30:50Z</time>
      </trkpt>
      <trkpt lat="43.74476" lon="7.27656">
        <ele>207.19999694824</ele>
        <time>2012-12-30T15:30:55Z</time>
      </trkpt>
      <trkpt lat="43.74476" lon="7.27657">
        <ele>206.80000305176</ele>
        <time>2012-12-30T15:30:57Z</time>
      </trkpt>
      <trkpt lat="43.74479" lon="7.2766">
        <ele>205</ele>
        <time>2012-12-30T15:31:01Z</time>
      </trkpt>
      <trkpt lat="43.74477" lon="7.27659">
        <ele>205.80000305176</ele>
        <time>2012-12-30T15:31:09Z</time>
      </trkpt>
      <trkpt lat="43.74479" lon="7.27661">
        <ele>205</ele>
        <time>2012-12-30T15:31:11Z</time>
      </trkpt>
      <trkpt lat="43.74477" lon="7.27661">
        <ele>205.39999389648</ele>
        <time>2012-12-30T15:31:16Z</time>
      </trkpt>
      <trkpt lat="43.74478" lon="7.27662">
        <ele>204.80000305176</ele>
        <time>2012-12-30T15:31:19Z</time>
      </trkpt>
      <trkpt lat="43.74479" lon="7.27661">
        <ele>204.60000610352</ele>
        <time>2012-12-30T15:31:20Z</time>
      </trkpt>
      <trkpt lat="43.74481" lon="7.27661">
        <ele>204.19999694824</ele>
        <time>2012-12-30T15:31:21Z</time>
      </trkpt>
      <trkpt lat="43.74481" lon="7.27661">
        <ele>204.19999694824</ele>
        <time>2012-12-30T15:31:23Z</time>
      </trkpt>
      <trkpt lat="43.74484" lon="7.27661">
        <ele>203.60000610352</ele>
        <time>2012-12-30T15:31:24Z</time>
      </trkpt>
      <trkpt lat="43.74485" lon="7.27664">
        <ele>202.39999389648</ele>
        <time>2012-12-30T15:31:30Z</time>
      </trkpt>
      <trkpt lat="43.74483" lon="7.27667">
        <ele>202</ele>
        <time>2012-12-30T15:31:35Z</time>
      </trkpt>
      <trkpt lat="43.74481" lon="7.27669">
        <ele>202</ele>
        <time>2012-12-30T15:31:39Z</time>
      </trkpt>
      <trkpt lat="43.74479" lon="7.27674">
        <ele>201.80000305176</ele>
        <time>2012-12-30T15:31:46Z</time>
      </trkpt>
      <trkpt lat="43.74479" lon="7.27676">
        <ele>201.39999389648</ele>
        <time>2012-12-30T15:31:52Z</time>
      </trkpt>
      <trkpt lat="43.7448" lon="7.27685">
        <ele>199.39999389648</ele>
        <time>2012-12-30T15:31:59Z</time>
      </trkpt>
      <trkpt lat="43.7448" lon="7.27688">
        <ele>198.80000305176</ele>
        <time>2012-12-30T15:32:01Z</time>
      </trkpt>
      <trkpt lat="43.74477" lon="7.27697">
        <ele>197.80000305176</ele>
        <time>2012-12-30T15:32:05Z</time>
      </trkpt>
      <trkpt lat="43.74472" lon="7.27709">
        <ele>196.80000305176</ele>
        <time>2012-12-30T15:32:11Z</time>
      </trkpt>
      <trkpt lat="43.74463" lon="7.27719">
        <ele>197.19999694824</ele>
        <time>2012-12-30T15:32:18Z</time>
      </trkpt>
      <trkpt lat="43.7446" lon="7.27721">
        <ele>197.19999694824</ele>
        <time>2012-12-30T15:32:20Z</time>
      </trkpt>
      <trkpt lat="43.74453" lon="7.27729">
        <ele>197.19999694824</ele>
        <time>2012-12-30T15:32:26Z</time>
      </trkpt>
      <trkpt lat="43.74451" lon="7.2773">
        <ele>197.39999389648</ele>
        <time>2012-12-30T15:32:28Z</time>
      </trkpt>
      <trkpt lat="43.7445" lon="7.2773">
        <ele>197.60000610352</ele>
        <time>2012-12-30T15:32:29Z</time>
      </trkpt>
      <trkpt lat="43.74448" lon="7.27733">
        <ele>197.60000610352</ele>
        <time>2012-12-30T15:32:34Z</time>
      </trkpt>
      <trkpt lat="43.74445" lon="7.27734">
        <ele>197.80000305176</ele>
        <time>2012-12-30T15:32:45Z</time>
      </trkpt>
      <trkpt lat="43.74445" lon="7.27734">
        <ele>198</ele>
        <time>2012-12-30T15:32:49Z</time>
      </trkpt>
      <trkpt lat="43.74444" lon="7.27734">
        <ele>198</ele>
        <time>2012-12-30T15:32:51Z</time>
      </trkpt>
      <trkpt lat="43.74442" lon="7.27739">
        <ele>197.39999389648</ele>
        <time>2012-12-30T15:33:02Z</time>
      </trkpt>
      <trkpt lat="43.74442" lon="7.27739">
        <ele>197.39999389648</ele>
        <time>2012-12-30T15:33:03Z</time>
      </trkpt>
      <trkpt lat="43.74442" lon="7.2774">
        <ele>197.19999694824</ele>
        <time>2012-12-30T15:33:05Z</time>
      </trkpt>
      <trkpt lat="43.74442" lon="7.2774">
        <ele>197.19999694824</ele>
        <time>2012-12-30T15:33:07Z</time>
      </trkpt>
      <trkpt lat="43.74442" lon="7.27741">
        <ele>196.80000305176</ele>
        <time>2012-12-30T15:33:11Z</time>
      </trkpt>
      <trkpt lat="43.74442" lon="7.27739">
        <ele>197.19999694824</ele>
        <time>2012-12-30T15:33:14Z</time>
      </trkpt>
      <trkpt lat="43.74442" lon="7.27739">
        <ele>197.39999389648</ele>
        <time>2012-12-30T15:33:17Z</time>
      </trkpt>
      <trkpt lat="43.74443" lon="7.27734">
        <ele>198.19999694824</ele>
        <time>2012-12-30T15:33:23Z</time>
      </trkpt>
      <trkpt lat="43.74443" lon="7.27733">
        <ele>198.39999389648</ele>
        <time>2012-12-30T15:33:28Z</time>
      </trkpt>
      <trkpt lat="43.74444" lon="7.27737">
        <ele>197.39999389648</ele>
        <time>2012-12-30T15:33:42Z</time>
      </trkpt>
      <trkpt lat="43.74445" lon="7.27741">
        <ele>196.39999389648</ele>
        <time>2012-12-30T15:33:48Z</time>
      </trkpt>
      <trkpt lat="43.74444" lon="7.27744">
        <ele>195.80000305176</ele>
        <time>2012-12-30T15:33:52Z</time>
      </trkpt>
      <trkpt lat="43.7444" lon="7.27748">
        <ele>195.60000610352</ele>
        <time>2012-12-30T15:34:00Z</time>
      </trkpt>
      <trkpt lat="43.7444" lon="7.27746">
        <ele>196</ele>
        <time>2012-12-30T15:34:03Z</time>
      </trkpt>
      <trkpt lat="43.74442" lon="7.27746">
        <ele>195.60000610352</ele>
        <time>2012-12-30T15:34:10Z</time>
      </trkpt>
      <trkpt lat="43.74441" lon="7.27747">
        <ele>195.60000610352</ele>
        <time>2012-12-30T15:34:14Z</time>
      </trkpt>
      <trkpt lat="43.7444" lon="7.27749">
        <ele>195.19999694824</ele>
        <time>2012-12-30T15:34:19Z</time>
      </trkpt>
      <trkpt lat="43.74441" lon="7.27741">
        <ele>197</ele>
        <time>2012-12-30T15:34:40Z</time>
      </trkpt>
      <trkpt lat="43.74441" lon="7.2774">
        <ele>197.39999389648</ele>
        <time>2012-12-30T15:34:43Z</time>
      </trkpt>
      <trkpt lat="43.74441" lon="7.2774">
        <ele>197.19999694824</ele>
        <time>2012-12-30T15:34:44Z</time>
      </trkpt>
      <trkpt lat="43.7444" lon="7.27745">
        <ele>196.19999694824</ele>
        <time>2012-12-30T15:34:46Z</time>
      </trkpt>
      <trkpt lat="43.74436" lon="7.27752">
        <ele>195.39999389648</ele>
        <time>2012-12-30T15:34:48Z</time>
      </trkpt>
      <trkpt lat="43.74441" lon="7.2777">
        <ele>190.80000305176</ele>
        <time>2012-12-30T15:34:52Z</time>
      </trkpt>
      <trkpt lat="43.74442" lon="7.27785">
        <ele>187.39999389648</ele>
        <time>2012-12-30T15:34:56Z</time>
      </trkpt>
      <trkpt lat="43.74446" lon="7.27793">
        <ele>185</ele>
        <time>2012-12-30T15:34:59Z</time>
      </trkpt>
      <trkpt lat="43.74447" lon="7.27794">
        <ele>184.60000610352</ele>
        <time>2012-12-30T15:35:00Z</time>
      </trkpt>
      <trkpt lat="43.74451" lon="7.27805">
        <ele>181.80000305176</ele>
        <time>2012-12-30T15:35:03Z</time>
      </trkpt>
      <trkpt lat="43.74451" lon="7.27811">
        <ele>180.60000610352</ele>
        <time>2012-12-30T15:35:04Z</time>
      </trkpt>
      <trkpt lat="43.74454" lon="7.27817">
        <ele>178.80000305176</ele>
        <time>2012-12-30T15:35:06Z</time>
      </trkpt>
      <trkpt lat="43.74455" lon="7.2782">
        <ele>178</ele>
        <time>2012-12-30T15:35:08Z</time>
      </trkpt>
      <trkpt lat="43.74458" lon="7.27822">
        <ele>177.19999694824</ele>
        <time>2012-12-30T15:35:13Z</time>
      </trkpt>
      <trkpt lat="43.74456" lon="7.27828">
        <ele>176.39999389648</ele>
        <time>2012-12-30T15:35:36Z</time>
      </trkpt>
      <trkpt lat="43.74461" lon="7.27828">
        <ele>175.60000610352</ele>
        <time>2012-12-30T15:35:44Z</time>
      </trkpt>
      <trkpt lat="43.7446" lon="7.27829">
        <ele>175.60000610352</ele>
        <time>2012-12-30T15:35:48Z</time>
      </trkpt>
      <trkpt lat="43.74459" lon="7.2783">
        <ele>175.39999389648</ele>
        <time>2012-12-30T15:35:49Z</time>
      </trkpt>
      <trkpt lat="43.74461" lon="7.27833">
        <ele>174.60000610352</ele>
        <time>2012-12-30T15:35:55Z</time>
      </trkpt>
      <trkpt lat="43.74461" lon="7.27834">
        <ele>174.39999389648</ele>
        <time>2012-12-30T15:35:58Z</time>
      </trkpt>
      <trkpt lat="43.74466" lon="7.27838">
        <ele>173</ele>
        <time>2012-12-30T15:36:07Z</time>
      </trkpt>
      <trkpt lat="43.74467" lon="7.27839">
        <ele>172.60000610352</ele>
        <time>2012-12-30T15:36:09Z</time>
      </trkpt>
      <trkpt lat="43.74468" lon="7.27842">
        <ele>172</ele>
        <time>2012-12-30T15:36:10Z</time>
      </trkpt>
      <trkpt lat="43.74469" lon="7.27844">
        <ele>171.60000610352</ele>
        <time>2012-12-30T15:36:11Z</time>
      </trkpt>
      <trkpt lat="43.7447" lon="7.27848">
        <ele>170.39999389648</ele>
        <time>2012-12-30T15:36:16Z</time>
      </trkpt>
      <trkpt lat="43.74469" lon="7.27848">
        <ele>170.60000610352</ele>
        <time>2012-12-30T15:36:18Z</time>
      </trkpt>
      <trkpt lat="43.74469" lon="7.27849">
        <ele>170.39999389648</ele>
        <time>2012-12-30T15:36:21Z</time>
      </trkpt>
      <trkpt lat="43.74468" lon="7.27852">
        <ele>170</ele>
        <time>2012-12-30T15:36:24Z</time>
      </trkpt>
      <trkpt lat="43.74467" lon="7.27854">
        <ele>169.80000305176</ele>
        <time>2012-12-30T15:36:28Z</time>
      </trkpt>
      <trkpt lat="43.74466" lon="7.27853">
        <ele>170</ele>
        <time>2012-12-30T15:36:29Z</time>
      </trkpt>
      <trkpt lat="43.74468" lon="7.27851">
        <ele>170.39999389648</ele>
        <time>2012-12-30T15:36:35Z</time>
      </trkpt>
      <trkpt lat="43.74468" lon="7.2785">
        <ele>170.39999389648</ele>
        <time>2012-12-30T15:36:39Z</time>
      </trkpt>
      <trkpt lat="43.74468" lon="7.2785">
        <ele>170.39999389648</ele>
        <time>2012-12-30T15:36:41Z</time>
      </trkpt>
      <trkpt lat="43.74469" lon="7.27846">
        <ele>171</ele>
        <time>2012-12-30T15:36:47Z</time>
      </trkpt>
      <trkpt lat="43.74468" lon="7.27845">
        <ele>171.19999694824</ele>
        <time>2012-12-30T15:37:00Z</time>
      </trkpt>
      <trkpt lat="43.74469" lon="7.27843">
        <ele>171.39999389648</ele>
        <time>2012-12-30T15:37:18Z</time>
      </trkpt>
      <trkpt lat="43.7447" lon="7.27844">
        <ele>171.19999694824</ele>
        <time>2012-12-30T15:37:19Z</time>
      </trkpt>
      <trkpt lat="43.74469" lon="7.27843">
        <ele>171.60000610352</ele>
        <time>2012-12-30T15:37:23Z</time>
      </trkpt>
      <trkpt lat="43.74469" lon="7.27842">
        <ele>171.80000305176</ele>
        <time>2012-12-30T15:37:25Z</time>
      </trkpt>
      <trkpt lat="43.74469" lon="7.27842">
        <ele>171.80000305176</ele>
        <time>2012-12-30T15:37:27Z</time>
      </trkpt>
      <trkpt lat="43.74468" lon="7.27842">
        <ele>171.80000305176</ele>
        <time>2012-12-30T15:37:30Z</time>
      </trkpt>
      <trkpt lat="43.74468" lon="7.27843">
        <ele>171.80000305176</ele>
        <time>2012-12-30T15:37:35Z</time>
      </trkpt>
      <trkpt lat="43.74467" lon="7.27842">
        <ele>172</ele>
        <time>2012-12-30T15:37:42Z</time>
      </trkpt>
      <trkpt lat="43.74466" lon="7.27844">
        <ele>171.80000305176</ele>
        <time>2012-12-30T15:37:49Z</time>
      </trkpt>
      <trkpt lat="43.74466" lon="7.27845">
        <ele>171.60000610352</ele>
        <time>2012-12-30T15:37:53Z</time>
      </trkpt>
      <trkpt lat="43.74466" lon="7.27846">
        <ele>171.39999389648</ele>
        <time>2012-12-30T15:37:55Z</time>
      </trkpt>
      <trkpt lat="43.74466" lon="7.27847">
        <ele>171.19999694824</ele>
        <time>2012-12-30T15:37:56Z</time>
      </trkpt>
      <trkpt lat="43.74467" lon="7.27847">
        <ele>171</ele>
        <time>2012-12-30T15:38:02Z</time>
      </trkpt>
      <trkpt lat="43.74463" lon="7.27844">
        <ele>172.19999694824</ele>
        <time>2012-12-30T15:38:21Z</time>
      </trkpt>
      <trkpt lat="43.74461" lon="7.27845">
        <ele>172.39999389648</ele>
        <time>2012-12-30T15:38:50Z</time>
      </trkpt>
      <trkpt lat="43.74462" lon="7.27848">
        <ele>171.60000610352</ele>
        <time>2012-12-30T15:39:13Z</time>
      </trkpt>
      <trkpt lat="43.74462" lon="7.27848">
        <ele>171.60000610352</ele>
        <time>2012-12-30T15:39:14Z</time>
      </trkpt>
      <trkpt lat="43.74464" lon="7.27846">
        <ele>171.80000305176</ele>
        <time>2012-12-30T15:39:17Z</time>
      </trkpt>
      <trkpt lat="43.7446" lon="7.27853">
        <ele>171</ele>
        <time>2012-12-30T15:39:26Z</time>
      </trkpt>
      <trkpt lat="43.74459" lon="7.27856">
        <ele>170.60000610352</ele>
        <time>2012-12-30T15:39:28Z</time>
      </trkpt>
      <trkpt lat="43.74454" lon="7.27868">
        <ele>169.19999694824</ele>
        <time>2012-12-30T15:39:33Z</time>
      </trkpt>
      <trkpt lat="43.74451" lon="7.27873">
        <ele>168.60000610352</ele>
        <time>2012-12-30T15:39:35Z</time>
      </trkpt>
      <trkpt lat="43.74447" lon="7.27877">
        <ele>168.39999389648</ele>
        <time>2012-12-30T15:39:37Z</time>
      </trkpt>
      <trkpt lat="43.74443" lon="7.27882">
        <ele>168.19999694824</ele>
        <time>2012-12-30T15:39:40Z</time>
      </trkpt>
      <trkpt lat="43.74436" lon="7.27883">
        <ele>169</ele>
        <time>2012-12-30T15:39:43Z</time>
      </trkpt>
      <trkpt lat="43.74435" lon="7.27882">
        <ele>169.60000610352</ele>
        <time>2012-12-30T15:39:44Z</time>
      </trkpt>
      <trkpt lat="43.74432" lon="7.27878">
        <ele>170.39999389648</ele>
        <time>2012-12-30T15:39:47Z</time>
      </trkpt>
      <trkpt lat="43.74425" lon="7.27871">
        <ele>173</ele>
        <time>2012-12-30T15:39:52Z</time>
      </trkpt>
      <trkpt lat="43.74419" lon="7.27871">
        <ele>173.80000305176</ele>
        <time>2012-12-30T15:39:55Z</time>
      </trkpt>
      <trkpt lat="43.74416" lon="7.27872">
        <ele>174</ele>
        <time>2012-12-30T15:39:56Z</time>
      </trkpt>
      <trkpt lat="43.74408" lon="7.27869">
        <ele>175</ele>
        <time>2012-12-30T15:40:00Z</time>
      </trkpt>
      <trkpt lat="43.74407" lon="7.27868">
        <ele>175.39999389648</ele>
        <time>2012-12-30T15:40:01Z</time>
      </trkpt>
      <trkpt lat="43.74405" lon="7.27868">
        <ele>175.39999389648</ele>
        <time>2012-12-30T15:40:04Z</time>
      </trkpt>
      <trkpt lat="43.74399" lon="7.27868">
        <ele>175.80000305176</ele>
        <time>2012-12-30T15:40:09Z</time>
      </trkpt>
      <trkpt lat="43.74397" lon="7.27867">
        <ele>176.19999694824</ele>
        <time>2012-12-30T15:40:11Z</time>
      </trkpt>
      <trkpt lat="43.74396" lon="7.27867">
        <ele>176.19999694824</ele>
        <time>2012-12-30T15:40:15Z</time>
      </trkpt>
      <trkpt lat="43.74397" lon="7.27866">
        <ele>176.39999389648</ele>
        <time>2012-12-30T15:40:23Z</time>
      </trkpt>
      <trkpt lat="43.74397" lon="7.27868">
        <ele>176</ele>
        <time>2012-12-30T15:40:25Z</time>
      </trkpt>
      <trkpt lat="43.74396" lon="7.27868">
        <ele>176</ele>
        <time>2012-12-30T15:40:31Z</time>
      </trkpt>
      <trkpt lat="43.74393" lon="7.27866">
        <ele>176.60000610352</ele>
        <time>2012-12-30T15:40:41Z</time>
      </trkpt>
      <trkpt lat="43.7439" lon="7.27868">
        <ele>176.60000610352</ele>
        <time>2012-12-30T15:40:50Z</time>
      </trkpt>
      <trkpt lat="43.74389" lon="7.27877">
        <ele>175</ele>
        <time>2012-12-30T15:41:08Z</time>
      </trkpt>
      <trkpt lat="43.74385" lon="7.27877">
        <ele>175.39999389648</ele>
        <time>2012-12-30T15:41:09Z</time>
      </trkpt>
      <trkpt lat="43.74379" lon="7.27879">
        <ele>175.39999389648</ele>
        <time>2012-12-30T15:41:13Z</time>
      </trkpt>
      <trkpt lat="43.74376" lon="7.2788">
        <ele>175.60000610352</ele>
        <time>2012-12-30T15:41:14Z</time>
      </trkpt>
      <trkpt lat="43.74368" lon="7.27887">
        <ele>175.19999694824</ele>
        <time>2012-12-30T15:41:17Z</time>
      </trkpt>
      <trkpt lat="43.74372" lon="7.27887">
        <ele>174.80000305176</ele>
        <time>2012-12-30T15:41:20Z</time>
      </trkpt>
      <trkpt lat="43.74372" lon="7.27889">
        <ele>174.39999389648</ele>
        <time>2012-12-30T15:41:22Z</time>
      </trkpt>
      <trkpt lat="43.74372" lon="7.2789">
        <ele>174.39999389648</ele>
        <time>2012-12-30T15:41:23Z</time>
      </trkpt>
      <trkpt lat="43.74368" lon="7.27898">
        <ele>173.39999389648</ele>
        <time>2012-12-30T15:41:29Z</time>
      </trkpt>
      <trkpt lat="43.74367" lon="7.27901">
        <ele>173</ele>
        <time>2012-12-30T15:41:30Z</time>
      </trkpt>
      <trkpt lat="43.74368" lon="7.27903">
        <ele>172.60000610352</ele>
        <time>2012-12-30T15:41:31Z</time>
      </trkpt>
      <trkpt lat="43.74366" lon="7.27904">
        <ele>172.60000610352</ele>
        <time>2012-12-30T15:41:32Z</time>
      </trkpt>
      <trkpt lat="43.74366" lon="7.27905">
        <ele>172.60000610352</ele>
        <time>2012-12-30T15:41:33Z</time>
      </trkpt>
      <trkpt lat="43.74365" lon="7.27907">
        <ele>172.39999389648</ele>
        <time>2012-12-30T15:41:35Z</time>
      </trkpt>
      <trkpt lat="43.74364" lon="7.27906">
        <ele>172.39999389648</ele>
        <time>2012-12-30T15:41:36Z</time>
      </trkpt>
      <trkpt lat="43.74363" lon="7.2791">
        <ele>172.19999694824</ele>
        <time>2012-12-30T15:41:42Z</time>
      </trkpt>
      <trkpt lat="43.74364" lon="7.27905">
        <ele>172.60000610352</ele>
        <time>2012-12-30T15:42:03Z</time>
      </trkpt>
      <trkpt lat="43.7436" lon="7.27905">
        <ele>173</ele>
        <time>2012-12-30T15:42:09Z</time>
      </trkpt>
      <trkpt lat="43.7436" lon="7.27908">
        <ele>172.60000610352</ele>
        <time>2012-12-30T15:42:16Z</time>
      </trkpt>
      <trkpt lat="43.74359" lon="7.27908">
        <ele>172.60000610352</ele>
        <time>2012-12-30T15:42:23Z</time>
      </trkpt>
      <trkpt lat="43.74358" lon="7.27908">
        <ele>172.80000305176</ele>
        <time>2012-12-30T15:42:26Z</time>
      </trkpt>
      <trkpt lat="43.7436" lon="7.27917">
        <ele>171.39999389648</ele>
        <time>2012-12-30T15:42:36Z</time>
      </trkpt>
      <trkpt lat="43.74359" lon="7.2792">
        <ele>170.80000305176</ele>
        <time>2012-12-30T15:42:37Z</time>
      </trkpt>
      <trkpt lat="43.74356" lon="7.27925">
        <ele>170.39999389648</ele>
        <time>2012-12-30T15:42:40Z</time>
      </trkpt>
      <trkpt lat="43.74353" lon="7.27929">
        <ele>169.80000305176</ele>
        <time>2012-12-30T15:42:43Z</time>
      </trkpt>
      <trkpt lat="43.74351" lon="7.27933">
        <ele>169.39999389648</ele>
        <time>2012-12-30T15:42:45Z</time>
      </trkpt>
      <trkpt lat="43.74345" lon="7.27942">
        <ele>168.39999389648</ele>
        <time>2012-12-30T15:42:50Z</time>
      </trkpt>
      <trkpt lat="43.74339" lon="7.27957">
        <ele>166.39999389648</ele>
        <time>2012-12-30T15:42:56Z</time>
      </trkpt>
      <trkpt lat="43.7434" lon="7.27968">
        <ele>164.60000610352</ele>
        <time>2012-12-30T15:43:01Z</time>
      </trkpt>
      <trkpt lat="43.74343" lon="7.27972">
        <ele>163.60000610352</ele>
        <time>2012-12-30T15:43:03Z</time>
      </trkpt>
      <trkpt lat="43.74345" lon="7.27975">
        <ele>162.80000305176</ele>
        <time>2012-12-30T15:43:04Z</time>
      </trkpt>
      <trkpt lat="43.74347" lon="7.27979">
        <ele>161.80000305176</ele>
        <time>2012-12-30T15:43:06Z</time>
      </trkpt>
      <trkpt lat="43.74347" lon="7.27984">
        <ele>161</ele>
        <time>2012-12-30T15:43:10Z</time>
      </trkpt>
      <trkpt lat="43.74348" lon="7.27986">
        <ele>160.39999389648</ele>
        <time>2012-12-30T15:43:11Z</time>
      </trkpt>
      <trkpt lat="43.74348" lon="7.28001">
        <ele>158</ele>
        <time>2012-12-30T15:43:15Z</time>
      </trkpt>
      <trkpt lat="43.74342" lon="7.28017">
        <ele>156.39999389648</ele>
        <time>2012-12-30T15:43:18Z</time>
      </trkpt>
      <trkpt lat="43.74341" lon="7.28019">
        <ele>156.19999694824</ele>
        <time>2012-12-30T15:43:19Z</time>
      </trkpt>
      <trkpt lat="43.74339" lon="7.28022">
        <ele>156</ele>
        <time>2012-12-30T15:43:20Z</time>
      </trkpt>
      <trkpt lat="43.74334" lon="7.28031">
        <ele>155.80000305176</ele>
        <time>2012-12-30T15:43:24Z</time>
      </trkpt>
      <trkpt lat="43.74331" lon="7.28035">
        <ele>155.39999389648</ele>
        <time>2012-12-30T15:43:26Z</time>
      </trkpt>
      <trkpt lat="43.74327" lon="7.28043">
        <ele>154.60000610352</ele>
        <time>2012-12-30T15:43:30Z</time>
      </trkpt>
      <trkpt lat="43.74322" lon="7.2805">
        <ele>154</ele>
        <time>2012-12-30T15:43:34Z</time>
      </trkpt>
      <trkpt lat="43.74315" lon="7.28063">
        <ele>152.60000610352</ele>
        <time>2012-12-30T15:43:41Z</time>
      </trkpt>
      <trkpt lat="43.74312" lon="7.2807">
        <ele>151.80000305176</ele>
        <time>2012-12-30T15:43:46Z</time>
      </trkpt>
      <trkpt lat="43.74311" lon="7.28072">
        <ele>151.60000610352</ele>
        <time>2012-12-30T15:43:47Z</time>
      </trkpt>
      <trkpt lat="43.74309" lon="7.28075">
        <ele>151.39999389648</ele>
        <time>2012-12-30T15:43:49Z</time>
      </trkpt>
      <trkpt lat="43.74303" lon="7.28086">
        <ele>149.80000305176</ele>
        <time>2012-12-30T15:43:57Z</time>
      </trkpt>
      <trkpt lat="43.74302" lon="7.28087">
        <ele>149.39999389648</ele>
        <time>2012-12-30T15:43:58Z</time>
      </trkpt>
      <trkpt lat="43.74299" lon="7.28092">
        <ele>148</ele>
        <time>2012-12-30T15:44:03Z</time>
      </trkpt>
      <trkpt lat="43.74299" lon="7.28093">
        <ele>148</ele>
        <time>2012-12-30T15:44:04Z</time>
      </trkpt>
      <trkpt lat="43.74299" lon="7.28091">
        <ele>148.39999389648</ele>
        <time>2012-12-30T15:44:15Z</time>
      </trkpt>
      <trkpt lat="43.74299" lon="7.2809">
        <ele>148.60000610352</ele>
        <time>2012-12-30T15:44:16Z</time>
      </trkpt>
      <trkpt lat="43.74299" lon="7.2809">
        <ele>148.80000305176</ele>
        <time>2012-12-30T15:44:17Z</time>
      </trkpt>
      <trkpt lat="43.74299" lon="7.28096">
        <ele>147.19999694824</ele>
        <time>2012-12-30T15:44:53Z</time>
      </trkpt>
      <trkpt lat="43.74299" lon="7.28096">
        <ele>147</ele>
        <time>2012-12-30T15:45:05Z</time>
      </trkpt>
      <trkpt lat="43.74299" lon="7.28097">
        <ele>146.80000305176</ele>
        <time>2012-12-30T15:45:13Z</time>
      </trkpt>
      <trkpt lat="43.743" lon="7.28096">
        <ele>146.80000305176</ele>
        <time>2012-12-30T15:45:19Z</time>
      </trkpt>
      <trkpt lat="43.74301" lon="7.28097">
        <ele>146.80000305176</ele>
        <time>2012-12-30T15:45:31Z</time>
      </trkpt>
      <trkpt lat="43.74301" lon="7.28096">
        <ele>146.80000305176</ele>
        <time>2012-12-30T15:45:32Z</time>
      </trkpt>
      <trkpt lat="43.74301" lon="7.28096">
        <ele>146.80000305176</ele>
        <time>2012-12-30T15:45:35Z</time>
      </trkpt>
      <trkpt lat="43.74301" lon="7.28096">
        <ele>146.80000305176</ele>
        <time>2012-12-30T15:45:36Z</time>
      </trkpt>
      <trkpt lat="43.74301" lon="7.28104">
        <ele>144.60000610352</ele>
        <time>2012-12-30T15:45:42Z</time>
      </trkpt>
      <trkpt lat="43.74303" lon="7.28119">
        <ele>140.19999694824</ele>
        <time>2012-12-30T15:45:48Z</time>
      </trkpt>
      <trkpt lat="43.74303" lon="7.28122">
        <ele>139.39999389648</ele>
        <time>2012-12-30T15:45:49Z</time>
      </trkpt>
      <trkpt lat="43.74297" lon="7.28132">
        <ele>137.60000610352</ele>
        <time>2012-12-30T15:45:52Z</time>
      </trkpt>
      <trkpt lat="43.74286" lon="7.28147">
        <ele>135</ele>
        <time>2012-12-30T15:45:55Z</time>
      </trkpt>
      <trkpt lat="43.74281" lon="7.28159">
        <ele>133</ele>
        <time>2012-12-30T15:45:57Z</time>
      </trkpt>
      <trkpt lat="43.74271" lon="7.28182">
        <ele>131.39999389648</ele>
        <time>2012-12-30T15:46:00Z</time>
      </trkpt>
      <trkpt lat="43.74268" lon="7.28192">
        <ele>131.39999389648</ele>
        <time>2012-12-30T15:46:01Z</time>
      </trkpt>
      <trkpt lat="43.74257" lon="7.2822">
        <ele>131.39999389648</ele>
        <time>2012-12-30T15:46:05Z</time>
      </trkpt>
      <trkpt lat="43.7425" lon="7.28236">
        <ele>131.80000305176</ele>
        <time>2012-12-30T15:46:08Z</time>
      </trkpt>
      <trkpt lat="43.74248" lon="7.28242">
        <ele>131.39999389648</ele>
        <time>2012-12-30T15:46:09Z</time>
      </trkpt>
      <trkpt lat="43.74246" lon="7.28248">
        <ele>130.80000305176</ele>
        <time>2012-12-30T15:46:10Z</time>
      </trkpt>
      <trkpt lat="43.74238" lon="7.28264">
        <ele>128.80000305176</ele>
        <time>2012-12-30T15:46:13Z</time>
      </trkpt>
      <trkpt lat="43.74234" lon="7.28275">
        <ele>127.59999847412</ele>
        <time>2012-12-30T15:46:15Z</time>
      </trkpt>
      <trkpt lat="43.74226" lon="7.28293">
        <ele>125.80000305176</ele>
        <time>2012-12-30T15:46:19Z</time>
      </trkpt>
      <trkpt lat="43.7422" lon="7.283">
        <ele>125.19999694824</ele>
        <time>2012-12-30T15:46:21Z</time>
      </trkpt>
      <trkpt lat="43.74216" lon="7.28303">
        <ele>125</ele>
        <time>2012-12-30T15:46:22Z</time>
      </trkpt>
      <trkpt lat="43.74216" lon="7.28315">
        <ele>124</ele>
        <time>2012-12-30T15:46:25Z</time>
      </trkpt>
      <trkpt lat="43.74216" lon="7.28327">
        <ele>123</ele>
        <time>2012-12-30T15:46:28Z</time>
      </trkpt>
      <trkpt lat="43.74201" lon="7.28337">
        <ele>122.40000152588</ele>
        <time>2012-12-30T15:46:31Z</time>
      </trkpt>
      <trkpt lat="43.7419" lon="7.28348">
        <ele>121.19999694824</ele>
        <time>2012-12-30T15:46:33Z</time>
      </trkpt>
      <trkpt lat="43.74178" lon="7.28358">
        <ele>121.19999694824</ele>
        <time>2012-12-30T15:46:35Z</time>
      </trkpt>
      <trkpt lat="43.74174" lon="7.28361">
        <ele>121.40000152588</ele>
        <time>2012-12-30T15:46:36Z</time>
      </trkpt>
      <trkpt lat="43.74169" lon="7.28371">
        <ele>121.40000152588</ele>
        <time>2012-12-30T15:46:38Z</time>
      </trkpt>
      <trkpt lat="43.74169" lon="7.2839">
        <ele>119.59999847412</ele>
        <time>2012-12-30T15:46:41Z</time>
      </trkpt>
      <trkpt lat="43.7417" lon="7.28395">
        <ele>118.80000305176</ele>
        <time>2012-12-30T15:46:42Z</time>
      </trkpt>
      <trkpt lat="43.74174" lon="7.28406">
        <ele>116.19999694824</ele>
        <time>2012-12-30T15:46:45Z</time>
      </trkpt>
      <trkpt lat="43.74171" lon="7.28411">
        <ele>117</ele>
        <time>2012-12-30T15:46:47Z</time>
      </trkpt>
      <trkpt lat="43.74168" lon="7.28414">
        <ele>117.80000305176</ele>
        <time>2012-12-30T15:46:48Z</time>
      </trkpt>
      <trkpt lat="43.7416" lon="7.28426">
        <ele>115.19999694824</ele>
        <time>2012-12-30T15:46:51Z</time>
      </trkpt>
      <trkpt lat="43.74158" lon="7.28436">
        <ele>112.80000305176</ele>
        <time>2012-12-30T15:46:53Z</time>
      </trkpt>
      <trkpt lat="43.74152" lon="7.28451">
        <ele>109.40000152588</ele>
        <time>2012-12-30T15:46:55Z</time>
      </trkpt>
      <trkpt lat="43.74146" lon="7.28468">
        <ele>105.80000305176</ele>
        <time>2012-12-30T15:46:57Z</time>
      </trkpt>
      <trkpt lat="43.74142" lon="7.28473">
        <ele>104.59999847412</ele>
        <time>2012-12-30T15:46:58Z</time>
      </trkpt>
      <trkpt lat="43.7413" lon="7.28489">
        <ele>101.19999694824</ele>
        <time>2012-12-30T15:47:01Z</time>
      </trkpt>
      <trkpt lat="43.74126" lon="7.28494">
        <ele>100.40000152588</ele>
        <time>2012-12-30T15:47:02Z</time>
      </trkpt>
      <trkpt lat="43.74124" lon="7.285">
        <ele>99.400001525879</ele>
        <time>2012-12-30T15:47:03Z</time>
      </trkpt>
      <trkpt lat="43.74121" lon="7.28515">
        <ele>96.599998474121</ele>
        <time>2012-12-30T15:47:05Z</time>
      </trkpt>
      <trkpt lat="43.74117" lon="7.28528">
        <ele>94.199996948242</ele>
        <time>2012-12-30T15:47:07Z</time>
      </trkpt>
      <trkpt lat="43.74113" lon="7.28537">
        <ele>92.400001525879</ele>
        <time>2012-12-30T15:47:09Z</time>
      </trkpt>
      <trkpt lat="43.741" lon="7.28542">
        <ele>91</ele>
        <time>2012-12-30T15:47:12Z</time>
      </trkpt>
      <trkpt lat="43.74094" lon="7.28544">
        <ele>90.400001525879</ele>
        <time>2012-12-30T15:47:13Z</time>
      </trkpt>
      <trkpt lat="43.74089" lon="7.28546">
        <ele>89.800003051758</ele>
        <time>2012-12-30T15:47:14Z</time>
      </trkpt>
      <trkpt lat="43.74081" lon="7.28548">
        <ele>89</ele>
        <time>2012-12-30T15:47:16Z</time>
      </trkpt>
      <trkpt lat="43.74071" lon="7.28549">
        <ele>87.400001525879</ele>
        <time>2012-12-30T15:47:20Z</time>
      </trkpt>
      <trkpt lat="43.74071" lon="7.2855">
        <ele>87.199996948242</ele>
        <time>2012-12-30T15:47:21Z</time>
      </trkpt>
      <trkpt lat="43.74068" lon="7.28548">
        <ele>87</ele>
        <time>2012-12-30T15:47:24Z</time>
      </trkpt>
      <trkpt lat="43.74065" lon="7.2855">
        <ele>86.199996948242</ele>
        <time>2012-12-30T15:47:26Z</time>
      </trkpt>
      <trkpt lat="43.74065" lon="7.28559">
        <ele>84.599998474121</ele>
        <time>2012-12-30T15:47:28Z</time>
      </trkpt>
      <trkpt lat="43.74064" lon="7.28568">
        <ele>83</ele>
        <time>2012-12-30T15:47:30Z</time>
      </trkpt>
      <trkpt lat="43.74066" lon="7.28571">
        <ele>82.800003051758</ele>
        <time>2012-12-30T15:47:32Z</time>
      </trkpt>
      <trkpt lat="43.7407" lon="7.28573">
        <ele>83</ele>
        <time>2012-12-30T15:47:34Z</time>
      </trkpt>
      <trkpt lat="43.74067" lon="7.2858">
        <ele>81.199996948242</ele>
        <time>2012-12-30T15:47:38Z</time>
      </trkpt>
      <trkpt lat="43.74057" lon="7.28587">
        <ele>78.800003051758</ele>
        <time>2012-12-30T15:47:42Z</time>
      </trkpt>
      <trkpt lat="43.74057" lon="7.28591">
        <ele>78.199996948242</ele>
        <time>2012-12-30T15:47:43Z</time>
      </trkpt>
      <trkpt lat="43.74061" lon="7.28595">
        <ele>78</ele>
        <time>2012-12-30T15:47:46Z</time>
      </trkpt>
      <trkpt lat="43.74063" lon="7.28597">
        <ele>77.800003051758</ele>
        <time>2012-12-30T15:47:47Z</time>
      </trkpt>
      <trkpt lat="43.74074" lon="7.28597">
        <ele>79.199996948242</ele>
        <time>2012-12-30T15:47:51Z</time>
      </trkpt>
      <trkpt lat="43.74076" lon="7.28599">
        <ele>79</ele>
        <time>2012-12-30T15:47:52Z</time>
      </trkpt>
      <trkpt lat="43.7407" lon="7.286">
        <ele>78.199996948242</ele>
        <time>2012-12-30T15:47:55Z</time>
      </trkpt>
      <trkpt lat="43.74066" lon="7.28599">
        <ele>77.800003051758</ele>
        <time>2012-12-30T15:47:56Z</time>
      </trkpt>
      <trkpt lat="43.74055" lon="7.28607">
        <ele>75.199996948242</ele>
        <time>2012-12-30T15:47:59Z</time>
      </trkpt>
      <trkpt lat="43.74047" lon="7.28617">
        <ele>72.599998474121</ele>
        <time>2012-12-30T15:48:02Z</time>
      </trkpt>
      <trkpt lat="43.74047" lon="7.28618">
        <ele>72.599998474121</ele>
        <time>2012-12-30T15:48:05Z</time>
      </trkpt>
      <trkpt lat="43.74047" lon="7.28619">
        <ele>72.199996948242</ele>
        <time>2012-12-30T15:48:08Z</time>
      </trkpt>
      <trkpt lat="43.74047" lon="7.28619">
        <ele>72.199996948242</ele>
        <time>2012-12-30T15:48:15Z</time>
      </trkpt>
      <trkpt lat="43.74046" lon="7.28621">
        <ele>72</ele>
        <time>2012-12-30T15:48:18Z</time>
      </trkpt>
      <trkpt lat="43.74046" lon="7.28624">
        <ele>71.400001525879</ele>
        <time>2012-12-30T15:48:21Z</time>
      </trkpt>
      <trkpt lat="43.74045" lon="7.28626">
        <ele>71</ele>
        <time>2012-12-30T15:48:27Z</time>
      </trkpt>
      <trkpt lat="43.74046" lon="7.28626">
        <ele>71.199996948242</ele>
        <time>2012-12-30T15:48:33Z</time>
      </trkpt>
      <trkpt lat="43.74046" lon="7.28627">
        <ele>71</ele>
        <time>2012-12-30T15:48:37Z</time>
      </trkpt>
      <trkpt lat="43.74045" lon="7.2863">
        <ele>70.400001525879</ele>
        <time>2012-12-30T15:48:42Z</time>
      </trkpt>
      <trkpt lat="43.74043" lon="7.28632">
        <ele>69.800003051758</ele>
        <time>2012-12-30T15:48:51Z</time>
      </trkpt>
      <trkpt lat="43.74043" lon="7.28631">
        <ele>70</ele>
        <time>2012-12-30T15:48:54Z</time>
      </trkpt>
      <trkpt lat="43.74043" lon="7.28632">
        <ele>69.800003051758</ele>
        <time>2012-12-30T15:49:04Z</time>
      </trkpt>
      <trkpt lat="43.74042" lon="7.28636">
        <ele>69.199996948242</ele>
        <time>2012-12-30T15:49:15Z</time>
      </trkpt>
      <trkpt lat="43.74043" lon="7.28634">
        <ele>69.599998474121</ele>
        <time>2012-12-30T15:49:25Z</time>
      </trkpt>
      <trkpt lat="43.74045" lon="7.28631">
        <ele>70.199996948242</ele>
        <time>2012-12-30T15:49:28Z</time>
      </trkpt>
      <trkpt lat="43.74046" lon="7.28627">
        <ele>70.800003051758</ele>
        <time>2012-12-30T15:49:39Z</time>
      </trkpt>
      <trkpt lat="43.74046" lon="7.28626">
        <ele>71.199996948242</ele>
        <time>2012-12-30T15:49:48Z</time>
      </trkpt>
      <trkpt lat="43.74043" lon="7.28636">
        <ele>69.199996948242</ele>
        <time>2012-12-30T15:50:16Z</time>
      </trkpt>
      <trkpt lat="43.74041" lon="7.2864">
        <ele>68.400001525879</ele>
        <time>2012-12-30T15:50:17Z</time>
      </trkpt>
      <trkpt lat="43.74037" lon="7.28645">
        <ele>67.599998474121</ele>
        <time>2012-12-30T15:50:18Z</time>
      </trkpt>
      <trkpt lat="43.74031" lon="7.28653">
        <ele>66</ele>
        <time>2012-12-30T15:50:20Z</time>
      </trkpt>
      <trkpt lat="43.74028" lon="7.28657">
        <ele>65.199996948242</ele>
        <time>2012-12-30T15:50:21Z</time>
      </trkpt>
      <trkpt lat="43.74023" lon="7.28663">
        <ele>64.199996948242</ele>
        <time>2012-12-30T15:50:24Z</time>
      </trkpt>
      <trkpt lat="43.74022" lon="7.28664">
        <ele>64</ele>
        <time>2012-12-30T15:50:25Z</time>
      </trkpt>
      <trkpt lat="43.74015" lon="7.28676">
        <ele>63</ele>
        <time>2012-12-30T15:50:28Z</time>
      </trkpt>
      <trkpt lat="43.7401" lon="7.28686">
        <ele>62.599998474121</ele>
        <time>2012-12-30T15:50:30Z</time>
      </trkpt>
      <trkpt lat="43.74001" lon="7.28705">
        <ele>61.599998474121</ele>
        <time>2012-12-30T15:50:33Z</time>
      </trkpt>
      <trkpt lat="43.73997" lon="7.28714">
        <ele>61.200000762939</ele>
        <time>2012-12-30T15:50:35Z</time>
      </trkpt>
      <trkpt lat="43.73993" lon="7.28723">
        <ele>60.799999237061</ele>
        <time>2012-12-30T15:50:38Z</time>
      </trkpt>
      <trkpt lat="43.73989" lon="7.2873">
        <ele>60.400001525879</ele>
        <time>2012-12-30T15:50:40Z</time>
      </trkpt>
      <trkpt lat="43.73983" lon="7.28753">
        <ele>59.599998474121</ele>
        <time>2012-12-30T15:50:46Z</time>
      </trkpt>
      <trkpt lat="43.73981" lon="7.28761">
        <ele>59.599998474121</ele>
        <time>2012-12-30T15:50:51Z</time>
      </trkpt>
      <trkpt lat="43.73981" lon="7.28772">
        <ele>59.599998474121</ele>
        <time>2012-12-30T15:50:57Z</time>
      </trkpt>
      <trkpt lat="43.73985" lon="7.28778">
        <ele>59.799999237061</ele>
        <time>2012-12-30T15:51:01Z</time>
      </trkpt>
      <trkpt lat="43.73987" lon="7.28779">
        <ele>60</ele>
        <time>2012-12-30T15:51:02Z</time>
      </trkpt>
      <trkpt lat="43.7399" lon="7.28779">
        <ele>60</ele>
        <time>2012-12-30T15:51:04Z</time>
      </trkpt>
      <trkpt lat="43.74" lon="7.28782">
        <ele>60.200000762939</ele>
        <time>2012-12-30T15:51:08Z</time>
      </trkpt>
      <trkpt lat="43.74016" lon="7.28784">
        <ele>60.799999237061</ele>
        <time>2012-12-30T15:51:14Z</time>
      </trkpt>
      <trkpt lat="43.74026" lon="7.28785">
        <ele>61.200000762939</ele>
        <time>2012-12-30T15:51:18Z</time>
      </trkpt>
      <trkpt lat="43.74033" lon="7.28787">
        <ele>61.400001525879</ele>
        <time>2012-12-30T15:51:21Z</time>
      </trkpt>
      <trkpt lat="43.74051" lon="7.28792">
        <ele>62.200000762939</ele>
        <time>2012-12-30T15:51:28Z</time>
      </trkpt>
      <trkpt lat="43.74057" lon="7.28793">
        <ele>62.599998474121</ele>
        <time>2012-12-30T15:51:30Z</time>
      </trkpt>
      <trkpt lat="43.74068" lon="7.28795">
        <ele>63</ele>
        <time>2012-12-30T15:51:35Z</time>
      </trkpt>
      <trkpt lat="43.74081" lon="7.28788">
        <ele>63.200000762939</ele>
        <time>2012-12-30T15:51:41Z</time>
      </trkpt>
      <trkpt lat="43.74093" lon="7.2877">
        <ele>62.599998474121</ele>
        <time>2012-12-30T15:51:47Z</time>
      </trkpt>
      <trkpt lat="43.74111" lon="7.28748">
        <ele>62</ele>
        <time>2012-12-30T15:51:55Z</time>
      </trkpt>
      <trkpt lat="43.74114" lon="7.28746">
        <ele>62.200000762939</ele>
        <time>2012-12-30T15:51:56Z</time>
      </trkpt>
      <trkpt lat="43.74134" lon="7.2873">
        <ele>63</ele>
        <time>2012-12-30T15:52:05Z</time>
      </trkpt>
      <trkpt lat="43.74147" lon="7.28715">
        <ele>64</ele>
        <time>2012-12-30T15:52:12Z</time>
      </trkpt>
      <trkpt lat="43.74165" lon="7.28694">
        <ele>65.199996948242</ele>
        <time>2012-12-30T15:52:22Z</time>
      </trkpt>
      <trkpt lat="43.74174" lon="7.28683">
        <ele>65.599998474121</ele>
        <time>2012-12-30T15:52:29Z</time>
      </trkpt>
      <trkpt lat="43.74175" lon="7.28683">
        <ele>65.599998474121</ele>
        <time>2012-12-30T15:52:30Z</time>
      </trkpt>
      <trkpt lat="43.74176" lon="7.28682">
        <ele>65.599998474121</ele>
        <time>2012-12-30T15:52:35Z</time>
      </trkpt>
      <trkpt lat="43.74177" lon="7.28682">
        <ele>65.599998474121</ele>
        <time>2012-12-30T15:52:41Z</time>
      </trkpt>
      <trkpt lat="43.74177" lon="7.28679">
        <ele>65.800003051758</ele>
        <time>2012-12-30T15:53:00Z</time>
      </trkpt>
      <trkpt lat="43.74177" lon="7.28678">
        <ele>65.800003051758</ele>
        <time>2012-12-30T15:53:02Z</time>
      </trkpt>
      <trkpt lat="43.74177" lon="7.28677">
        <ele>65.800003051758</ele>
        <time>2012-12-30T15:53:04Z</time>
      </trkpt>
      <trkpt lat="43.74178" lon="7.28674">
        <ele>66</ele>
        <time>2012-12-30T15:53:09Z</time>
      </trkpt>
      <trkpt lat="43.74178" lon="7.28673">
        <ele>66</ele>
        <time>2012-12-30T15:53:12Z</time>
      </trkpt>
      <trkpt lat="43.74176" lon="7.28674">
        <ele>66</ele>
        <time>2012-12-30T15:53:27Z</time>
      </trkpt>
      <trkpt lat="43.74176" lon="7.28676">
        <ele>66</ele>
        <time>2012-12-30T15:53:47Z</time>
      </trkpt>
      <trkpt lat="43.74176" lon="7.28678">
        <ele>65.800003051758</ele>
        <time>2012-12-30T15:53:59Z</time>
      </trkpt>
      <trkpt lat="43.74178" lon="7.28681">
        <ele>65.599998474121</ele>
        <time>2012-12-30T15:54:14Z</time>
      </trkpt>
      <trkpt lat="43.74177" lon="7.28682">
        <ele>65.599998474121</ele>
        <time>2012-12-30T15:54:29Z</time>
      </trkpt>
      <trkpt lat="43.74178" lon="7.28683">
        <ele>65.400001525879</ele>
        <time>2012-12-30T15:54:33Z</time>
      </trkpt>
      <trkpt lat="43.74178" lon="7.28683">
        <ele>65.400001525879</ele>
        <time>2012-12-30T15:54:34Z</time>
      </trkpt>
      <trkpt lat="43.74178" lon="7.28683">
        <ele>65.400001525879</ele>
        <time>2012-12-30T15:54:36Z</time>
      </trkpt>
      <trkpt lat="43.74178" lon="7.2868">
        <ele>65.599998474121</ele>
        <time>2012-12-30T15:54:52Z</time>
      </trkpt>
      <trkpt lat="43.74177" lon="7.28679">
        <ele>65.800003051758</ele>
        <time>2012-12-30T15:54:55Z</time>
      </trkpt>
      <trkpt lat="43.74176" lon="7.28679">
        <ele>65.800003051758</ele>
        <time>2012-12-30T15:54:56Z</time>
      </trkpt>
      <trkpt lat="43.74177" lon="7.2868">
        <ele>65.599998474121</ele>
        <time>2012-12-30T15:54:58Z</time>
      </trkpt>
      <trkpt lat="43.74177" lon="7.2868">
        <ele>65.599998474121</ele>
        <time>2012-12-30T15:55:01Z</time>
      </trkpt>
      <trkpt lat="43.74176" lon="7.28682">
        <ele>65.599998474121</ele>
        <time>2012-12-30T15:55:10Z</time>
      </trkpt>
      <trkpt lat="43.74178" lon="7.28685">
        <ele>65.400001525879</ele>
        <time>2012-12-30T15:55:15Z</time>
      </trkpt>
      <trkpt lat="43.74178" lon="7.28684">
        <ele>65.400001525879</ele>
        <time>2012-12-30T15:55:25Z</time>
      </trkpt>
      <trkpt lat="43.74178" lon="7.28684">
        <ele>65.400001525879</ele>
        <time>2012-12-30T15:55:26Z</time>
      </trkpt>
      <trkpt lat="43.74178" lon="7.28684">
        <ele>65.400001525879</ele>
        <time>2012-12-30T15:55:29Z</time>
      </trkpt>
      <trkpt lat="43.74178" lon="7.28682">
        <ele>65.599998474121</ele>
        <time>2012-12-30T15:55:36Z</time>
      </trkpt>
      <trkpt lat="43.74178" lon="7.28682">
        <ele>65.599998474121</ele>
        <time>2012-12-30T15:55:38Z</time>
      </trkpt>
      <trkpt lat="43.74178" lon="7.28682">
        <ele>65.599998474121</ele>
        <time>2012-12-30T15:55:39Z</time>
      </trkpt>
      <trkpt lat="43.74179" lon="7.28681">
        <ele>65.599998474121</ele>
        <time>2012-12-30T15:55:40Z</time>
      </trkpt>
      <trkpt lat="43.74178" lon="7.2868">
        <ele>65.599998474121</ele>
        <time>2012-12-30T15:55:41Z</time>
      </trkpt>
      <trkpt lat="43.74179" lon="7.28682">
        <ele>65.599998474121</ele>
        <time>2012-12-30T15:55:44Z</time>
      </trkpt>
      <trkpt lat="43.74179" lon="7.28684">
        <ele>65.400001525879</ele>
        <time>2012-12-30T15:55:49Z</time>
      </trkpt>
      <trkpt lat="43.7418" lon="7.28686">
        <ele>65.199996948242</ele>
        <time>2012-12-30T15:55:54Z</time>
      </trkpt>
      <trkpt lat="43.74179" lon="7.28684">
        <ele>65.400001525879</ele>
        <time>2012-12-30T15:56:00Z</time>
      </trkpt>
      <trkpt lat="43.74179" lon="7.28684">
        <ele>65.400001525879</ele>
        <time>2012-12-30T15:56:02Z</time>
      </trkpt>
      <trkpt lat="43.74179" lon="7.28679">
        <ele>65.599998474121</ele>
        <time>2012-12-30T15:56:09Z</time>
      </trkpt>
      <trkpt lat="43.74179" lon="7.28678">
        <ele>65.599998474121</ele>
        <time>2012-12-30T15:56:14Z</time>
      </trkpt>
      <trkpt lat="43.74179" lon="7.28678">
        <ele>65.599998474121</ele>
        <time>2012-12-30T15:56:15Z</time>
      </trkpt>
      <trkpt lat="43.74179" lon="7.28677">
        <ele>65.800003051758</ele>
        <time>2012-12-30T15:56:17Z</time>
      </trkpt>
      <trkpt lat="43.74179" lon="7.28677">
        <ele>65.800003051758</ele>
        <time>2012-12-30T15:56:18Z</time>
      </trkpt>
      <trkpt lat="43.74184" lon="7.28685">
        <ele>65.199996948242</ele>
        <time>2012-12-30T15:57:08Z</time>
      </trkpt>
      <trkpt lat="43.74185" lon="7.28682">
        <ele>65.199996948242</ele>
        <time>2012-12-30T15:57:09Z</time>
      </trkpt>
      <trkpt lat="43.74189" lon="7.28672">
        <ele>65.599998474121</ele>
        <time>2012-12-30T15:57:11Z</time>
      </trkpt>
      <trkpt lat="43.74195" lon="7.28661">
        <ele>66.599998474121</ele>
        <time>2012-12-30T15:57:15Z</time>
      </trkpt>
      <trkpt lat="43.74202" lon="7.28653">
        <ele>67.400001525879</ele>
        <time>2012-12-30T15:57:19Z</time>
      </trkpt>
      <trkpt lat="43.74203" lon="7.28653">
        <ele>67.400001525879</ele>
        <time>2012-12-30T15:57:20Z</time>
      </trkpt>
      <trkpt lat="43.7421" lon="7.28651">
        <ele>67.199996948242</ele>
        <time>2012-12-30T15:57:24Z</time>
      </trkpt>
      <trkpt lat="43.74212" lon="7.28654">
        <ele>66.599998474121</ele>
        <time>2012-12-30T15:57:25Z</time>
      </trkpt>
      <trkpt lat="43.74222" lon="7.28657">
        <ele>65.400001525879</ele>
        <time>2012-12-30T15:57:29Z</time>
      </trkpt>
      <trkpt lat="43.74234" lon="7.28663">
        <ele>64</ele>
        <time>2012-12-30T15:57:33Z</time>
      </trkpt>
      <trkpt lat="43.74244" lon="7.2867">
        <ele>63.200000762939</ele>
        <time>2012-12-30T15:57:37Z</time>
      </trkpt>
      <trkpt lat="43.74246" lon="7.28671">
        <ele>63</ele>
        <time>2012-12-30T15:57:38Z</time>
      </trkpt>
      <trkpt lat="43.74251" lon="7.28673">
        <ele>63</ele>
        <time>2012-12-30T15:57:40Z</time>
      </trkpt>
      <trkpt lat="43.74255" lon="7.28674">
        <ele>63.599998474121</ele>
        <time>2012-12-30T15:57:42Z</time>
      </trkpt>
      <trkpt lat="43.74257" lon="7.28677">
        <ele>63.799999237061</ele>
        <time>2012-12-30T15:57:43Z</time>
      </trkpt>
      <trkpt lat="43.74263" lon="7.28687">
        <ele>64.400001525879</ele>
        <time>2012-12-30T15:57:47Z</time>
      </trkpt>
      <trkpt lat="43.74271" lon="7.28695">
        <ele>65</ele>
        <time>2012-12-30T15:57:51Z</time>
      </trkpt>
      <trkpt lat="43.74273" lon="7.28697">
        <ele>65.199996948242</ele>
        <time>2012-12-30T15:57:52Z</time>
      </trkpt>
      <trkpt lat="43.74281" lon="7.28712">
        <ele>65.400001525879</ele>
        <time>2012-12-30T15:57:57Z</time>
      </trkpt>
      <trkpt lat="43.7428" lon="7.28728">
        <ele>64.400001525879</ele>
        <time>2012-12-30T15:58:02Z</time>
      </trkpt>
      <trkpt lat="43.74277" lon="7.28742">
        <ele>63.599998474121</ele>
        <time>2012-12-30T15:58:06Z</time>
      </trkpt>
      <trkpt lat="43.74274" lon="7.28745">
        <ele>63.200000762939</ele>
        <time>2012-12-30T15:58:10Z</time>
      </trkpt>
      <trkpt lat="43.74273" lon="7.28746">
        <ele>63.200000762939</ele>
        <time>2012-12-30T15:58:14Z</time>
      </trkpt>
      <trkpt lat="43.74272" lon="7.28748">
        <ele>63</ele>
        <time>2012-12-30T15:58:19Z</time>
      </trkpt>
      <trkpt lat="43.7417" lon="7.28685">
        <ele>65.599998474121</ele>
        <time>2012-12-30T17:08:48Z</time>
      </trkpt>
      <trkpt lat="43.7417" lon="7.28685">
        <ele>65.599998474121</ele>
        <time>2012-12-30T17:08:49Z</time>
      </trkpt>
      <trkpt lat="43.74171" lon="7.28685">
        <ele>65.599998474121</ele>
        <time>2012-12-30T17:08:53Z</time>
      </trkpt>
    </trkseg>
  </trk>
</gpx>